<?xml version="1.0" encoding="UTF-8"?>
<gpx version="1.1" creator="https://www.youtrack.es" xsi:schemaLocation="http://www.topografix.com/GPX/1/1 http://www.topografix.com/GPX/1/1/gpx.xsd http://www.garmin.com/xmlschemas/GpxExtensions/v3 http://www.garmin.com/xmlschemas/GpxExtensionsv3.xsd http://www.garmin.com/xmlschemas/TrackPointExtension/v1 http://www.garmin.com/xmlschemas/TrackPointExtensionv1.xsd" xmlns:gpxtpx="http://www.garmin.com/xmlschemas/TrackPointExtension/v1" xmlns:gpxx="http://www.garmin.com/xmlschemas/GpxExtensions/v3" xmlns:xsi="http://www.w3.org/2001/XMLSchema-instance">
  <metadata>
    <link href="https://www.youtrack.es">
      <text>YouTrack.es</text>
    </link>
    <time>2026-05-09T02:57:12Z</time>
  </metadata>
  <trk>
    <src>https://www.youtrack.es</src>
    <link href="https://www.youtrack.es/ruta/34167-gr11">
      <text>YouTrack.es</text>
    </link>
    <trkseg>
      <trkpt lat="42.6262787171" lon="0.5446659587">
        <ele>1271.00</ele>
        <time>2022-07-09T07:09:44Z</time>
      </trkpt>
      <trkpt lat="42.6263246499" lon="0.5445895996">
        <ele>1271.48</ele>
        <time>2022-07-09T07:09:48Z</time>
      </trkpt>
      <trkpt lat="42.6264694054" lon="0.5443391483">
        <ele>1273.40</ele>
        <time>2022-07-09T07:10:07Z</time>
      </trkpt>
      <trkpt lat="42.6266253088" lon="0.5442203768">
        <ele>1274.85</ele>
        <time>2022-07-09T07:10:22Z</time>
      </trkpt>
      <trkpt lat="42.6268657017" lon="0.5441000964">
        <ele>1271.48</ele>
        <time>2022-07-09T07:10:39Z</time>
      </trkpt>
      <trkpt lat="42.6270959526" lon="0.5440435186">
        <ele>1270.52</ele>
        <time>2022-07-09T07:10:55Z</time>
      </trkpt>
      <trkpt lat="42.6272298954" lon="0.5440192949">
        <ele>1271.48</ele>
        <time>2022-07-09T07:11:06Z</time>
      </trkpt>
      <trkpt lat="42.6272425521" lon="0.5439688358">
        <ele>1271.00</ele>
        <time>2022-07-09T07:11:08Z</time>
      </trkpt>
      <trkpt lat="42.6271013170" lon="0.5439131800">
        <ele>1271.48</ele>
        <time>2022-07-09T07:11:19Z</time>
      </trkpt>
      <trkpt lat="42.6268866565" lon="0.5439892039">
        <ele>1269.56</ele>
        <time>2022-07-09T07:11:30Z</time>
      </trkpt>
      <trkpt lat="42.6268211100" lon="0.5440230668">
        <ele>1269.56</ele>
        <time>2022-07-09T07:11:36Z</time>
      </trkpt>
      <trkpt lat="42.6266468503" lon="0.5439730268">
        <ele>1269.56</ele>
        <time>2022-07-09T07:11:50Z</time>
      </trkpt>
      <trkpt lat="42.6264387276" lon="0.5439373199">
        <ele>1269.56</ele>
        <time>2022-07-09T07:12:05Z</time>
      </trkpt>
      <trkpt lat="42.6263245661" lon="0.5437512416">
        <ele>1269.56</ele>
        <time>2022-07-09T07:12:19Z</time>
      </trkpt>
      <trkpt lat="42.6263352949" lon="0.5437143613">
        <ele>1269.08</ele>
        <time>2022-07-09T07:12:22Z</time>
      </trkpt>
      <trkpt lat="42.6264787931" lon="0.5435239244">
        <ele>1270.04</ele>
        <time>2022-07-09T07:12:37Z</time>
      </trkpt>
      <trkpt lat="42.6266277395" lon="0.5432730541">
        <ele>1270.52</ele>
        <time>2022-07-09T07:12:52Z</time>
      </trkpt>
      <trkpt lat="42.6267910190" lon="0.5430440605">
        <ele>1271.96</ele>
        <time>2022-07-09T07:13:06Z</time>
      </trkpt>
      <trkpt lat="42.6270337589" lon="0.5427770969">
        <ele>1271.96</ele>
        <time>2022-07-09T07:13:26Z</time>
      </trkpt>
      <trkpt lat="42.6272150595" lon="0.5426526256">
        <ele>1272.44</ele>
        <time>2022-07-09T07:13:39Z</time>
      </trkpt>
      <trkpt lat="42.6272747386" lon="0.5425688066">
        <ele>1271.00</ele>
        <time>2022-07-09T07:13:45Z</time>
      </trkpt>
      <trkpt lat="42.6273584738" lon="0.5424156692">
        <ele>1271.00</ele>
        <time>2022-07-09T07:13:59Z</time>
      </trkpt>
      <trkpt lat="42.6274122018" lon="0.5424377136">
        <ele>1271.00</ele>
        <time>2022-07-09T07:14:15Z</time>
      </trkpt>
      <trkpt lat="42.6274125371" lon="0.5423751846">
        <ele>1271.48</ele>
        <time>2022-07-09T07:14:31Z</time>
      </trkpt>
      <trkpt lat="42.6273938455" lon="0.5424129870">
        <ele>1271.48</ele>
        <time>2022-07-09T07:14:50Z</time>
      </trkpt>
      <trkpt lat="42.6274241041" lon="0.5424424913">
        <ele>1272.44</ele>
        <time>2022-07-09T07:15:10Z</time>
      </trkpt>
      <trkpt lat="42.6275810972" lon="0.5424901843">
        <ele>1273.40</ele>
        <time>2022-07-09T07:15:22Z</time>
      </trkpt>
      <trkpt lat="42.6276986115" lon="0.5425258074">
        <ele>1274.36</ele>
        <time>2022-07-09T07:15:31Z</time>
      </trkpt>
      <trkpt lat="42.6277306303" lon="0.5425196886">
        <ele>1274.85</ele>
        <time>2022-07-09T07:15:34Z</time>
      </trkpt>
      <trkpt lat="42.6277746353" lon="0.5425341055">
        <ele>1274.85</ele>
        <time>2022-07-09T07:15:37Z</time>
      </trkpt>
      <trkpt lat="42.6280416828" lon="0.5423347838">
        <ele>1277.73</ele>
        <time>2022-07-09T07:15:52Z</time>
      </trkpt>
      <trkpt lat="42.6281397510" lon="0.5419924669">
        <ele>1280.13</ele>
        <time>2022-07-09T07:16:10Z</time>
      </trkpt>
      <trkpt lat="42.6281997655" lon="0.5416642316">
        <ele>1283.02</ele>
        <time>2022-07-09T07:16:27Z</time>
      </trkpt>
      <trkpt lat="42.6282885298" lon="0.5413944181">
        <ele>1284.94</ele>
        <time>2022-07-09T07:16:43Z</time>
      </trkpt>
      <trkpt lat="42.6283449400" lon="0.5413302127">
        <ele>1285.90</ele>
        <time>2022-07-09T07:16:49Z</time>
      </trkpt>
      <trkpt lat="42.6285666414" lon="0.5413048994">
        <ele>1289.27</ele>
        <time>2022-07-09T07:17:08Z</time>
      </trkpt>
      <trkpt lat="42.6287331060" lon="0.5414598808">
        <ele>1292.63</ele>
        <time>2022-07-09T07:17:24Z</time>
      </trkpt>
      <trkpt lat="42.6287454274" lon="0.5414688494">
        <ele>1292.63</ele>
        <time>2022-07-09T07:17:25Z</time>
      </trkpt>
      <trkpt lat="42.6288644504" lon="0.5414975155">
        <ele>1294.55</ele>
        <time>2022-07-09T07:17:35Z</time>
      </trkpt>
      <trkpt lat="42.6290943660" lon="0.5413695239">
        <ele>1297.44</ele>
        <time>2022-07-09T07:17:52Z</time>
      </trkpt>
      <trkpt lat="42.6292544603" lon="0.5411034822">
        <ele>1299.36</ele>
        <time>2022-07-09T07:18:11Z</time>
      </trkpt>
      <trkpt lat="42.6293295622" lon="0.5410614889">
        <ele>1301.28</ele>
        <time>2022-07-09T07:18:21Z</time>
      </trkpt>
      <trkpt lat="42.6293462422" lon="0.5411511753">
        <ele>1302.72</ele>
        <time>2022-07-09T07:18:29Z</time>
      </trkpt>
      <trkpt lat="42.6293317415" lon="0.5412032269">
        <ele>1304.17</ele>
        <time>2022-07-09T07:18:34Z</time>
      </trkpt>
      <trkpt lat="42.6292667817" lon="0.5413267761">
        <ele>1305.61</ele>
        <time>2022-07-09T07:18:42Z</time>
      </trkpt>
      <trkpt lat="42.6291445736" lon="0.5415560212">
        <ele>1307.53</ele>
        <time>2022-07-09T07:19:00Z</time>
      </trkpt>
      <trkpt lat="42.6292387862" lon="0.5415927339">
        <ele>1309.93</ele>
        <time>2022-07-09T07:19:12Z</time>
      </trkpt>
      <trkpt lat="42.6293031592" lon="0.5415323842">
        <ele>1312.82</ele>
        <time>2022-07-09T07:19:24Z</time>
      </trkpt>
      <trkpt lat="42.6294006407" lon="0.5414680950">
        <ele>1315.70</ele>
        <time>2022-07-09T07:19:37Z</time>
      </trkpt>
      <trkpt lat="42.6294619124" lon="0.5413861200">
        <ele>1316.66</ele>
        <time>2022-07-09T07:19:44Z</time>
      </trkpt>
      <trkpt lat="42.6295225974" lon="0.5413070787">
        <ele>1318.10</ele>
        <time>2022-07-09T07:19:51Z</time>
      </trkpt>
      <trkpt lat="42.6296303049" lon="0.5410076771">
        <ele>1319.07</ele>
        <time>2022-07-09T07:20:09Z</time>
      </trkpt>
      <trkpt lat="42.6296879724" lon="0.5407547113">
        <ele>1319.07</ele>
        <time>2022-07-09T07:20:22Z</time>
      </trkpt>
      <trkpt lat="42.6297603920" lon="0.5404980574">
        <ele>1320.03</ele>
        <time>2022-07-09T07:20:37Z</time>
      </trkpt>
      <trkpt lat="42.6298119407" lon="0.5402789544">
        <ele>1320.99</ele>
        <time>2022-07-09T07:20:48Z</time>
      </trkpt>
      <trkpt lat="42.6298378408" lon="0.5401856638">
        <ele>1320.99</ele>
        <time>2022-07-09T07:20:54Z</time>
      </trkpt>
      <trkpt lat="42.6298596337" lon="0.5401191954">
        <ele>1320.99</ele>
        <time>2022-07-09T07:20:58Z</time>
      </trkpt>
      <trkpt lat="42.6299428660" lon="0.5398168601">
        <ele>1322.91</ele>
        <time>2022-07-09T07:21:14Z</time>
      </trkpt>
      <trkpt lat="42.6299818419" lon="0.5397228990">
        <ele>1324.35</ele>
        <time>2022-07-09T07:21:21Z</time>
      </trkpt>
      <trkpt lat="42.6299964264" lon="0.5396788940">
        <ele>1324.35</ele>
        <time>2022-07-09T07:21:24Z</time>
      </trkpt>
      <trkpt lat="42.6301078219" lon="0.5393996090">
        <ele>1328.20</ele>
        <time>2022-07-09T07:21:40Z</time>
      </trkpt>
      <trkpt lat="42.6301585324" lon="0.5392228346">
        <ele>1331.08</ele>
        <time>2022-07-09T07:21:53Z</time>
      </trkpt>
      <trkpt lat="42.6302296948" lon="0.5390350800">
        <ele>1334.93</ele>
        <time>2022-07-09T07:22:08Z</time>
      </trkpt>
      <trkpt lat="42.6302357297" lon="0.5390249379">
        <ele>1334.93</ele>
        <time>2022-07-09T07:22:09Z</time>
      </trkpt>
      <trkpt lat="42.6303241588" lon="0.5389480758">
        <ele>1335.89</ele>
        <time>2022-07-09T07:22:17Z</time>
      </trkpt>
      <trkpt lat="42.6303462032" lon="0.5389215890">
        <ele>1335.89</ele>
        <time>2022-07-09T07:22:19Z</time>
      </trkpt>
      <trkpt lat="42.6303690858" lon="0.5389050767">
        <ele>1336.37</ele>
        <time>2022-07-09T07:22:21Z</time>
      </trkpt>
      <trkpt lat="42.6304674055" lon="0.5388128757">
        <ele>1337.33</ele>
        <time>2022-07-09T07:22:30Z</time>
      </trkpt>
      <trkpt lat="42.6305548288" lon="0.5387425516">
        <ele>1338.29</ele>
        <time>2022-07-09T07:22:38Z</time>
      </trkpt>
      <trkpt lat="42.6306350436" lon="0.5387331638">
        <ele>1339.25</ele>
        <time>2022-07-09T07:22:45Z</time>
      </trkpt>
      <trkpt lat="42.6307618618" lon="0.5386135541">
        <ele>1341.18</ele>
        <time>2022-07-09T07:22:59Z</time>
      </trkpt>
      <trkpt lat="42.6309279073" lon="0.5386654381">
        <ele>1343.58</ele>
        <time>2022-07-09T07:23:14Z</time>
      </trkpt>
      <trkpt lat="42.6310493611" lon="0.5387000553">
        <ele>1345.02</ele>
        <time>2022-07-09T07:23:24Z</time>
      </trkpt>
      <trkpt lat="42.6311306655" lon="0.5386643484">
        <ele>1345.98</ele>
        <time>2022-07-09T07:23:30Z</time>
      </trkpt>
      <trkpt lat="42.6313161571" lon="0.5386595707">
        <ele>1347.91</ele>
        <time>2022-07-09T07:23:44Z</time>
      </trkpt>
      <trkpt lat="42.6313383691" lon="0.5386469979">
        <ele>1348.87</ele>
        <time>2022-07-09T07:23:46Z</time>
      </trkpt>
      <trkpt lat="42.6314782631" lon="0.5384724867">
        <ele>1350.79</ele>
        <time>2022-07-09T07:24:00Z</time>
      </trkpt>
      <trkpt lat="42.6316408720" lon="0.5384221114">
        <ele>1353.19</ele>
        <time>2022-07-09T07:24:14Z</time>
      </trkpt>
      <trkpt lat="42.6317606494" lon="0.5384658650">
        <ele>1356.08</ele>
        <time>2022-07-09T07:24:27Z</time>
      </trkpt>
      <trkpt lat="42.6318821032" lon="0.5385117140">
        <ele>1358.48</ele>
        <time>2022-07-09T07:24:40Z</time>
      </trkpt>
      <trkpt lat="42.6319262758" lon="0.5385264661">
        <ele>1359.44</ele>
        <time>2022-07-09T07:24:44Z</time>
      </trkpt>
      <trkpt lat="42.6321150362" lon="0.5385892466">
        <ele>1360.88</ele>
        <time>2022-07-09T07:24:59Z</time>
      </trkpt>
      <trkpt lat="42.6322612166" lon="0.5386592355">
        <ele>1362.81</ele>
        <time>2022-07-09T07:25:13Z</time>
      </trkpt>
      <trkpt lat="42.6324104145" lon="0.5386885721">
        <ele>1365.21</ele>
        <time>2022-07-09T07:25:25Z</time>
      </trkpt>
      <trkpt lat="42.6325588580" lon="0.5387510173">
        <ele>1367.61</ele>
        <time>2022-07-09T07:25:39Z</time>
      </trkpt>
      <trkpt lat="42.6326694991" lon="0.5387545377">
        <ele>1369.05</ele>
        <time>2022-07-09T07:25:48Z</time>
      </trkpt>
      <trkpt lat="42.6328184456" lon="0.5387678649">
        <ele>1371.46</ele>
        <time>2022-07-09T07:26:01Z</time>
      </trkpt>
      <trkpt lat="42.6328457706" lon="0.5387734808">
        <ele>1372.42</ele>
        <time>2022-07-09T07:26:03Z</time>
      </trkpt>
      <trkpt lat="42.6328708325" lon="0.5387772527">
        <ele>1372.90</ele>
        <time>2022-07-09T07:26:05Z</time>
      </trkpt>
      <trkpt lat="42.6329602674" lon="0.5387515202">
        <ele>1373.86</ele>
        <time>2022-07-09T07:26:12Z</time>
      </trkpt>
      <trkpt lat="42.6330008358" lon="0.5387582257">
        <ele>1375.30</ele>
        <time>2022-07-09T07:26:15Z</time>
      </trkpt>
      <trkpt lat="42.6330337767" lon="0.5387736484">
        <ele>1375.30</ele>
        <time>2022-07-09T07:26:18Z</time>
      </trkpt>
      <trkpt lat="42.6330795418" lon="0.5387754086">
        <ele>1376.75</ele>
        <time>2022-07-09T07:26:22Z</time>
      </trkpt>
      <trkpt lat="42.6331317611" lon="0.5387310684">
        <ele>1377.71</ele>
        <time>2022-07-09T07:26:27Z</time>
      </trkpt>
      <trkpt lat="42.6333111338" lon="0.5386032443">
        <ele>1378.67</ele>
        <time>2022-07-09T07:26:41Z</time>
      </trkpt>
      <trkpt lat="42.6333511993" lon="0.5386065971">
        <ele>1378.67</ele>
        <time>2022-07-09T07:26:44Z</time>
      </trkpt>
      <trkpt lat="42.6334100403" lon="0.5386116263">
        <ele>1377.71</ele>
        <time>2022-07-09T07:26:49Z</time>
      </trkpt>
      <trkpt lat="42.6334386226" lon="0.5386133865">
        <ele>1377.23</ele>
        <time>2022-07-09T07:26:52Z</time>
      </trkpt>
      <trkpt lat="42.6335118804" lon="0.5386469141">
        <ele>1375.78</ele>
        <time>2022-07-09T07:26:57Z</time>
      </trkpt>
      <trkpt lat="42.6337260380" lon="0.5385522824">
        <ele>1375.78</ele>
        <time>2022-07-09T07:27:13Z</time>
      </trkpt>
      <trkpt lat="42.6338014752" lon="0.5384905078">
        <ele>1375.30</ele>
        <time>2022-07-09T07:27:18Z</time>
      </trkpt>
      <trkpt lat="42.6339588035" lon="0.5384993926">
        <ele>1373.86</ele>
        <time>2022-07-09T07:27:29Z</time>
      </trkpt>
      <trkpt lat="42.6340998709" lon="0.5386060104">
        <ele>1374.34</ele>
        <time>2022-07-09T07:27:42Z</time>
      </trkpt>
      <trkpt lat="42.6341665909" lon="0.5387483351">
        <ele>1377.23</ele>
        <time>2022-07-09T07:27:56Z</time>
      </trkpt>
      <trkpt lat="42.6342086680" lon="0.5389365088">
        <ele>1378.67</ele>
        <time>2022-07-09T07:28:10Z</time>
      </trkpt>
      <trkpt lat="42.6342509966" lon="0.5390882213">
        <ele>1382.03</ele>
        <time>2022-07-09T07:28:22Z</time>
      </trkpt>
      <trkpt lat="42.6343837660" lon="0.5392749701">
        <ele>1384.92</ele>
        <time>2022-07-09T07:28:37Z</time>
      </trkpt>
      <trkpt lat="42.6345870271" lon="0.5394188035">
        <ele>1387.32</ele>
        <time>2022-07-09T07:28:52Z</time>
      </trkpt>
      <trkpt lat="42.6347961556" lon="0.5394541752">
        <ele>1386.84</ele>
        <time>2022-07-09T07:29:06Z</time>
      </trkpt>
      <trkpt lat="42.6350195333" lon="0.5394472182">
        <ele>1387.32</ele>
        <time>2022-07-09T07:29:22Z</time>
      </trkpt>
      <trkpt lat="42.6350624487" lon="0.5394260120">
        <ele>1388.28</ele>
        <time>2022-07-09T07:29:26Z</time>
      </trkpt>
      <trkpt lat="42.6350917853" lon="0.5394240003">
        <ele>1388.76</ele>
        <time>2022-07-09T07:29:28Z</time>
      </trkpt>
      <trkpt lat="42.6352994889" lon="0.5393925682">
        <ele>1389.72</ele>
        <time>2022-07-09T07:29:43Z</time>
      </trkpt>
      <trkpt lat="42.6354823820" lon="0.5393861141">
        <ele>1390.68</ele>
        <time>2022-07-09T07:29:57Z</time>
      </trkpt>
      <trkpt lat="42.6356646046" lon="0.5393753853">
        <ele>1392.61</ele>
        <time>2022-07-09T07:30:11Z</time>
      </trkpt>
      <trkpt lat="42.6357604936" lon="0.5393630639">
        <ele>1393.57</ele>
        <time>2022-07-09T07:30:19Z</time>
      </trkpt>
      <trkpt lat="42.6357956976" lon="0.5393605493">
        <ele>1394.05</ele>
        <time>2022-07-09T07:30:22Z</time>
      </trkpt>
      <trkpt lat="42.6359053329" lon="0.5393136106">
        <ele>1395.97</ele>
        <time>2022-07-09T07:30:32Z</time>
      </trkpt>
      <trkpt lat="42.6359556243" lon="0.5392782390">
        <ele>1396.93</ele>
        <time>2022-07-09T07:30:37Z</time>
      </trkpt>
      <trkpt lat="42.6359833684" lon="0.5392784905">
        <ele>1396.93</ele>
        <time>2022-07-09T07:30:40Z</time>
      </trkpt>
      <trkpt lat="42.6360629126" lon="0.5392943323">
        <ele>1398.37</ele>
        <time>2022-07-09T07:30:47Z</time>
      </trkpt>
      <trkpt lat="42.6361106057" lon="0.5393137783">
        <ele>1398.37</ele>
        <time>2022-07-09T07:30:51Z</time>
      </trkpt>
      <trkpt lat="42.6361733861" lon="0.5392856151">
        <ele>1398.86</ele>
        <time>2022-07-09T07:30:59Z</time>
      </trkpt>
      <trkpt lat="42.6364048943" lon="0.5392426997">
        <ele>1399.34</ele>
        <time>2022-07-09T07:31:14Z</time>
      </trkpt>
      <trkpt lat="42.6366545074" lon="0.5391920730">
        <ele>1400.78</ele>
        <time>2022-07-09T07:31:29Z</time>
      </trkpt>
      <trkpt lat="42.6366887894" lon="0.5391849484">
        <ele>1400.78</ele>
        <time>2022-07-09T07:31:32Z</time>
      </trkpt>
      <trkpt lat="42.6367659867" lon="0.5392257683">
        <ele>1402.22</ele>
        <time>2022-07-09T07:31:40Z</time>
      </trkpt>
      <trkpt lat="42.6369390730" lon="0.5393944122">
        <ele>1404.62</ele>
        <time>2022-07-09T07:31:57Z</time>
      </trkpt>
      <trkpt lat="42.6370251551" lon="0.5394930672">
        <ele>1405.58</ele>
        <time>2022-07-09T07:32:06Z</time>
      </trkpt>
      <trkpt lat="42.6372049470" lon="0.5395088252">
        <ele>1408.47</ele>
        <time>2022-07-09T07:32:20Z</time>
      </trkpt>
      <trkpt lat="42.6373603474" lon="0.5395256728">
        <ele>1411.83</ele>
        <time>2022-07-09T07:32:36Z</time>
      </trkpt>
      <trkpt lat="42.6375534665" lon="0.5395361502">
        <ele>1414.72</ele>
        <time>2022-07-09T07:32:50Z</time>
      </trkpt>
      <trkpt lat="42.6377014071" lon="0.5395211466">
        <ele>1416.64</ele>
        <time>2022-07-09T07:33:04Z</time>
      </trkpt>
      <trkpt lat="42.6378472522" lon="0.5395120103">
        <ele>1418.08</ele>
        <time>2022-07-09T07:33:17Z</time>
      </trkpt>
      <trkpt lat="42.6380305644" lon="0.5394537561">
        <ele>1420.49</ele>
        <time>2022-07-09T07:33:33Z</time>
      </trkpt>
      <trkpt lat="42.6380493399" lon="0.5394504033">
        <ele>1420.49</ele>
        <time>2022-07-09T07:33:35Z</time>
      </trkpt>
      <trkpt lat="42.6382065006" lon="0.5394480564">
        <ele>1422.89</ele>
        <time>2022-07-09T07:33:49Z</time>
      </trkpt>
      <trkpt lat="42.6383689418" lon="0.5394647364">
        <ele>1423.37</ele>
        <time>2022-07-09T07:34:03Z</time>
      </trkpt>
      <trkpt lat="42.6385736279" lon="0.5394199770">
        <ele>1423.37</ele>
        <time>2022-07-09T07:34:17Z</time>
      </trkpt>
      <trkpt lat="42.6386248413" lon="0.5393991061">
        <ele>1423.85</ele>
        <time>2022-07-09T07:34:21Z</time>
      </trkpt>
      <trkpt lat="42.6386799943" lon="0.5393727031">
        <ele>1424.81</ele>
        <time>2022-07-09T07:34:25Z</time>
      </trkpt>
      <trkpt lat="42.6387561020" lon="0.5394013692">
        <ele>1425.77</ele>
        <time>2022-07-09T07:34:31Z</time>
      </trkpt>
      <trkpt lat="42.6389652304" lon="0.5393213220">
        <ele>1426.25</ele>
        <time>2022-07-09T07:34:47Z</time>
      </trkpt>
      <trkpt lat="42.6390476245" lon="0.5392833520">
        <ele>1426.25</ele>
        <time>2022-07-09T07:34:53Z</time>
      </trkpt>
      <trkpt lat="42.6390787214" lon="0.5392851122">
        <ele>1426.73</ele>
        <time>2022-07-09T07:34:55Z</time>
      </trkpt>
      <trkpt lat="42.6392261591" lon="0.5392718688">
        <ele>1426.73</ele>
        <time>2022-07-09T07:35:06Z</time>
      </trkpt>
      <trkpt lat="42.6392791327" lon="0.5392954219">
        <ele>1426.73</ele>
        <time>2022-07-09T07:35:10Z</time>
      </trkpt>
      <trkpt lat="42.6394833997" lon="0.5392766465">
        <ele>1425.77</ele>
        <time>2022-07-09T07:35:24Z</time>
      </trkpt>
      <trkpt lat="42.6395384688" lon="0.5392424483">
        <ele>1425.29</ele>
        <time>2022-07-09T07:35:28Z</time>
      </trkpt>
      <trkpt lat="42.6395986509" lon="0.5391112715">
        <ele>1425.29</ele>
        <time>2022-07-09T07:35:35Z</time>
      </trkpt>
      <trkpt lat="42.6397920214" lon="0.5390731338">
        <ele>1425.29</ele>
        <time>2022-07-09T07:35:50Z</time>
      </trkpt>
      <trkpt lat="42.6398259681" lon="0.5390808452">
        <ele>1426.25</ele>
        <time>2022-07-09T07:35:53Z</time>
      </trkpt>
      <trkpt lat="42.6399537921" lon="0.5390563700">
        <ele>1427.70</ele>
        <time>2022-07-09T07:36:06Z</time>
      </trkpt>
      <trkpt lat="42.6399775129" lon="0.5390567053">
        <ele>1428.18</ele>
        <time>2022-07-09T07:36:08Z</time>
      </trkpt>
      <trkpt lat="42.6400745753" lon="0.5390106048">
        <ele>1429.14</ele>
        <time>2022-07-09T07:36:17Z</time>
      </trkpt>
      <trkpt lat="42.6401323266" lon="0.5389399454">
        <ele>1430.58</ele>
        <time>2022-07-09T07:36:24Z</time>
      </trkpt>
      <trkpt lat="42.6402228512" lon="0.5388648435">
        <ele>1432.02</ele>
        <time>2022-07-09T07:36:33Z</time>
      </trkpt>
      <trkpt lat="42.6402832009" lon="0.5388104450">
        <ele>1432.50</ele>
        <time>2022-07-09T07:36:39Z</time>
      </trkpt>
      <trkpt lat="42.6404443011" lon="0.5387207586">
        <ele>1434.42</ele>
        <time>2022-07-09T07:36:52Z</time>
      </trkpt>
      <trkpt lat="42.6404743921" lon="0.5386901647">
        <ele>1434.91</ele>
        <time>2022-07-09T07:36:55Z</time>
      </trkpt>
      <trkpt lat="42.6405419502" lon="0.5385150667">
        <ele>1436.35</ele>
        <time>2022-07-09T07:37:08Z</time>
      </trkpt>
      <trkpt lat="42.6406350732" lon="0.5383921880">
        <ele>1437.79</ele>
        <time>2022-07-09T07:37:19Z</time>
      </trkpt>
      <trkpt lat="42.6406626496" lon="0.5381771922">
        <ele>1439.71</ele>
        <time>2022-07-09T07:37:31Z</time>
      </trkpt>
      <trkpt lat="42.6406986080" lon="0.5381082930">
        <ele>1440.67</ele>
        <time>2022-07-09T07:37:37Z</time>
      </trkpt>
      <trkpt lat="42.6407800801" lon="0.5380734242">
        <ele>1441.63</ele>
        <time>2022-07-09T07:37:45Z</time>
      </trkpt>
      <trkpt lat="42.6409290265" lon="0.5379739311">
        <ele>1443.56</ele>
        <time>2022-07-09T07:37:57Z</time>
      </trkpt>
      <trkpt lat="42.6410694234" lon="0.5379014276">
        <ele>1445.96</ele>
        <time>2022-07-09T07:38:10Z</time>
      </trkpt>
      <trkpt lat="42.6411340479" lon="0.5378108192">
        <ele>1447.40</ele>
        <time>2022-07-09T07:38:19Z</time>
      </trkpt>
      <trkpt lat="42.6411706768" lon="0.5377544090">
        <ele>1448.36</ele>
        <time>2022-07-09T07:38:24Z</time>
      </trkpt>
      <trkpt lat="42.6412140112" lon="0.5377391540">
        <ele>1449.32</ele>
        <time>2022-07-09T07:38:29Z</time>
      </trkpt>
      <trkpt lat="42.6412630454" lon="0.5376700871">
        <ele>1450.77</ele>
        <time>2022-07-09T07:38:36Z</time>
      </trkpt>
      <trkpt lat="42.6413560007" lon="0.5376073904">
        <ele>1452.21</ele>
        <time>2022-07-09T07:38:45Z</time>
      </trkpt>
      <trkpt lat="42.6414394006" lon="0.5374863558">
        <ele>1453.65</ele>
        <time>2022-07-09T07:38:55Z</time>
      </trkpt>
      <trkpt lat="42.6414898597" lon="0.5374237429">
        <ele>1454.61</ele>
        <time>2022-07-09T07:39:01Z</time>
      </trkpt>
      <trkpt lat="42.6415346190" lon="0.5374014471">
        <ele>1455.09</ele>
        <time>2022-07-09T07:39:06Z</time>
      </trkpt>
      <trkpt lat="42.6415827312" lon="0.5373571068">
        <ele>1455.57</ele>
        <time>2022-07-09T07:39:11Z</time>
      </trkpt>
      <trkpt lat="42.6416510437" lon="0.5373179633">
        <ele>1456.05</ele>
        <time>2022-07-09T07:39:17Z</time>
      </trkpt>
      <trkpt lat="42.6417649537" lon="0.5371361598">
        <ele>1457.98</ele>
        <time>2022-07-09T07:39:31Z</time>
      </trkpt>
      <trkpt lat="42.6417818852" lon="0.5371132772">
        <ele>1457.98</ele>
        <time>2022-07-09T07:39:33Z</time>
      </trkpt>
      <trkpt lat="42.6419085357" lon="0.5370021332">
        <ele>1459.42</ele>
        <time>2022-07-09T07:39:45Z</time>
      </trkpt>
      <trkpt lat="42.6419684663" lon="0.5369800050">
        <ele>1459.42</ele>
        <time>2022-07-09T07:39:50Z</time>
      </trkpt>
      <trkpt lat="42.6421490964" lon="0.5368661787">
        <ele>1460.86</ele>
        <time>2022-07-09T07:40:05Z</time>
      </trkpt>
      <trkpt lat="42.6422694605" lon="0.5367701221">
        <ele>1461.34</ele>
        <time>2022-07-09T07:40:16Z</time>
      </trkpt>
      <trkpt lat="42.6424145512" lon="0.5366647616">
        <ele>1460.86</ele>
        <time>2022-07-09T07:40:30Z</time>
      </trkpt>
      <trkpt lat="42.6425287127" lon="0.5365594011">
        <ele>1459.90</ele>
        <time>2022-07-09T07:40:43Z</time>
      </trkpt>
      <trkpt lat="42.6426019706" lon="0.5365411285">
        <ele>1459.42</ele>
        <time>2022-07-09T07:40:47Z</time>
      </trkpt>
      <trkpt lat="42.6426893100" lon="0.5365581438">
        <ele>1459.42</ele>
        <time>2022-07-09T07:40:51Z</time>
      </trkpt>
      <trkpt lat="42.6427580416" lon="0.5365463253">
        <ele>1459.42</ele>
        <time>2022-07-09T07:40:55Z</time>
      </trkpt>
      <trkpt lat="42.6428428665" lon="0.5365407094">
        <ele>1459.42</ele>
        <time>2022-07-09T07:41:00Z</time>
      </trkpt>
      <trkpt lat="42.6429618895" lon="0.5364982132">
        <ele>1459.42</ele>
        <time>2022-07-09T07:41:11Z</time>
      </trkpt>
      <trkpt lat="42.6430790685" lon="0.5364641827">
        <ele>1459.42</ele>
        <time>2022-07-09T07:41:19Z</time>
      </trkpt>
      <trkpt lat="42.6432849281" lon="0.5364242010">
        <ele>1460.86</ele>
        <time>2022-07-09T07:41:34Z</time>
      </trkpt>
      <trkpt lat="42.6434582658" lon="0.5363610853">
        <ele>1462.78</ele>
        <time>2022-07-09T07:41:49Z</time>
      </trkpt>
      <trkpt lat="42.6434715092" lon="0.5363527872">
        <ele>1462.78</ele>
        <time>2022-07-09T07:41:50Z</time>
      </trkpt>
      <trkpt lat="42.6435098145" lon="0.5363492668">
        <ele>1463.26</ele>
        <time>2022-07-09T07:41:53Z</time>
      </trkpt>
      <trkpt lat="42.6436668914" lon="0.5362844747">
        <ele>1465.19</ele>
        <time>2022-07-09T07:42:08Z</time>
      </trkpt>
      <trkpt lat="42.6437635347" lon="0.5362428166">
        <ele>1465.67</ele>
        <time>2022-07-09T07:42:15Z</time>
      </trkpt>
      <trkpt lat="42.6438296679" lon="0.5362379551">
        <ele>1465.67</ele>
        <time>2022-07-09T07:42:19Z</time>
      </trkpt>
      <trkpt lat="42.6439599227" lon="0.5361060239">
        <ele>1465.67</ele>
        <time>2022-07-09T07:42:31Z</time>
      </trkpt>
      <trkpt lat="42.6440948714" lon="0.5359403137">
        <ele>1467.11</ele>
        <time>2022-07-09T07:42:45Z</time>
      </trkpt>
      <trkpt lat="42.6441252138" lon="0.5359170958">
        <ele>1467.59</ele>
        <time>2022-07-09T07:42:48Z</time>
      </trkpt>
      <trkpt lat="42.6442122180" lon="0.5358504597">
        <ele>1468.07</ele>
        <time>2022-07-09T07:42:56Z</time>
      </trkpt>
      <trkpt lat="42.6442957856" lon="0.5358139984">
        <ele>1469.03</ele>
        <time>2022-07-09T07:43:03Z</time>
      </trkpt>
      <trkpt lat="42.6443589013" lon="0.5357618630">
        <ele>1469.99</ele>
        <time>2022-07-09T07:43:10Z</time>
      </trkpt>
      <trkpt lat="42.6444766670" lon="0.5357544869">
        <ele>1471.44</ele>
        <time>2022-07-09T07:43:18Z</time>
      </trkpt>
      <trkpt lat="42.6446206681" lon="0.5357031059">
        <ele>1471.92</ele>
        <time>2022-07-09T07:43:28Z</time>
      </trkpt>
      <trkpt lat="42.6447495818" lon="0.5356028583">
        <ele>1472.88</ele>
        <time>2022-07-09T07:43:38Z</time>
      </trkpt>
      <trkpt lat="42.6448209118" lon="0.5355233978">
        <ele>1472.88</ele>
        <time>2022-07-09T07:43:44Z</time>
      </trkpt>
      <trkpt lat="42.6449082512" lon="0.5354400817">
        <ele>1473.84</ele>
        <time>2022-07-09T07:43:52Z</time>
      </trkpt>
      <trkpt lat="42.6449890528" lon="0.5353596993">
        <ele>1474.80</ele>
        <time>2022-07-09T07:43:59Z</time>
      </trkpt>
      <trkpt lat="42.6450121868" lon="0.5353491381">
        <ele>1475.28</ele>
        <time>2022-07-09T07:44:01Z</time>
      </trkpt>
      <trkpt lat="42.6451243367" lon="0.5351638980">
        <ele>1475.28</ele>
        <time>2022-07-09T07:44:13Z</time>
      </trkpt>
      <trkpt lat="42.6451644022" lon="0.5350843538">
        <ele>1475.28</ele>
        <time>2022-07-09T07:44:18Z</time>
      </trkpt>
      <trkpt lat="42.6452493109" lon="0.5349519197">
        <ele>1473.84</ele>
        <time>2022-07-09T07:44:26Z</time>
      </trkpt>
      <trkpt lat="42.6452605426" lon="0.5349367484">
        <ele>1473.84</ele>
        <time>2022-07-09T07:44:27Z</time>
      </trkpt>
      <trkpt lat="42.6453773025" lon="0.5347798392">
        <ele>1473.84</ele>
        <time>2022-07-09T07:44:40Z</time>
      </trkpt>
      <trkpt lat="42.6454762090" lon="0.5346372630">
        <ele>1474.80</ele>
        <time>2022-07-09T07:44:52Z</time>
      </trkpt>
      <trkpt lat="42.6454873569" lon="0.5346078426">
        <ele>1474.80</ele>
        <time>2022-07-09T07:44:54Z</time>
      </trkpt>
      <trkpt lat="42.6455241535" lon="0.5345595628">
        <ele>1474.80</ele>
        <time>2022-07-09T07:44:58Z</time>
      </trkpt>
      <trkpt lat="42.6456355490" lon="0.5344255362">
        <ele>1475.76</ele>
        <time>2022-07-09T07:45:10Z</time>
      </trkpt>
      <trkpt lat="42.6456582639" lon="0.5344284698">
        <ele>1475.76</ele>
        <time>2022-07-09T07:45:11Z</time>
      </trkpt>
      <trkpt lat="42.6456735190" lon="0.5344184116">
        <ele>1475.76</ele>
        <time>2022-07-09T07:45:12Z</time>
      </trkpt>
      <trkpt lat="42.6456888579" lon="0.5344087724">
        <ele>1475.76</ele>
        <time>2022-07-09T07:45:13Z</time>
      </trkpt>
      <trkpt lat="42.6457051188" lon="0.5344005581">
        <ele>1476.24</ele>
        <time>2022-07-09T07:45:14Z</time>
      </trkpt>
      <trkpt lat="42.6457200386" lon="0.5343960319">
        <ele>1476.24</ele>
        <time>2022-07-09T07:45:15Z</time>
      </trkpt>
      <trkpt lat="42.6458779536" lon="0.5342700519">
        <ele>1477.68</ele>
        <time>2022-07-09T07:45:28Z</time>
      </trkpt>
      <trkpt lat="42.6458895206" lon="0.5342608318">
        <ele>1477.68</ele>
        <time>2022-07-09T07:45:29Z</time>
      </trkpt>
      <trkpt lat="42.6459354535" lon="0.5341972969">
        <ele>1478.65</ele>
        <time>2022-07-09T07:45:34Z</time>
      </trkpt>
      <trkpt lat="42.6459442545" lon="0.5341849755">
        <ele>1478.65</ele>
        <time>2022-07-09T07:45:35Z</time>
      </trkpt>
      <trkpt lat="42.6459496189" lon="0.5341691338">
        <ele>1479.13</ele>
        <time>2022-07-09T07:45:36Z</time>
      </trkpt>
      <trkpt lat="42.6459582523" lon="0.5341544654">
        <ele>1479.13</ele>
        <time>2022-07-09T07:45:37Z</time>
      </trkpt>
      <trkpt lat="42.6459675562" lon="0.5341395456">
        <ele>1479.13</ele>
        <time>2022-07-09T07:45:38Z</time>
      </trkpt>
      <trkpt lat="42.6460409816" lon="0.5340644438">
        <ele>1479.61</ele>
        <time>2022-07-09T07:45:48Z</time>
      </trkpt>
      <trkpt lat="42.6460793708" lon="0.5339973047">
        <ele>1480.09</ele>
        <time>2022-07-09T07:45:53Z</time>
      </trkpt>
      <trkpt lat="42.6460825559" lon="0.5339790322">
        <ele>1480.09</ele>
        <time>2022-07-09T07:45:54Z</time>
      </trkpt>
      <trkpt lat="42.6460906863" lon="0.5339608435">
        <ele>1480.09</ele>
        <time>2022-07-09T07:45:55Z</time>
      </trkpt>
      <trkpt lat="42.6461193524" lon="0.5339071993">
        <ele>1480.57</ele>
        <time>2022-07-09T07:45:59Z</time>
      </trkpt>
      <trkpt lat="42.6461337693" lon="0.5338799581">
        <ele>1480.57</ele>
        <time>2022-07-09T07:46:01Z</time>
      </trkpt>
      <trkpt lat="42.6461403072" lon="0.5338645354">
        <ele>1480.57</ele>
        <time>2022-07-09T07:46:02Z</time>
      </trkpt>
      <trkpt lat="42.6462263893" lon="0.5336313508">
        <ele>1482.49</ele>
        <time>2022-07-09T07:46:17Z</time>
      </trkpt>
      <trkpt lat="42.6462552231" lon="0.5335864238">
        <ele>1482.49</ele>
        <time>2022-07-09T07:46:21Z</time>
      </trkpt>
      <trkpt lat="42.6462739147" lon="0.5335198715">
        <ele>1482.97</ele>
        <time>2022-07-09T07:46:26Z</time>
      </trkpt>
      <trkpt lat="42.6463730726" lon="0.5333411694">
        <ele>1484.89</ele>
        <time>2022-07-09T07:46:40Z</time>
      </trkpt>
      <trkpt lat="42.6464682911" lon="0.5332024489">
        <ele>1486.82</ele>
        <time>2022-07-09T07:46:53Z</time>
      </trkpt>
      <trkpt lat="42.6465149783" lon="0.5331518222">
        <ele>1487.30</ele>
        <time>2022-07-09T07:46:58Z</time>
      </trkpt>
      <trkpt lat="42.6466568001" lon="0.5329852737">
        <ele>1489.22</ele>
        <time>2022-07-09T07:47:11Z</time>
      </trkpt>
      <trkpt lat="42.6466785930" lon="0.5329798255">
        <ele>1489.22</ele>
        <time>2022-07-09T07:47:12Z</time>
      </trkpt>
      <trkpt lat="42.6466999669" lon="0.5329745449">
        <ele>1489.22</ele>
        <time>2022-07-09T07:47:13Z</time>
      </trkpt>
      <trkpt lat="42.6468462311" lon="0.5328417756">
        <ele>1491.62</ele>
        <time>2022-07-09T07:47:26Z</time>
      </trkpt>
      <trkpt lat="42.6468697004" lon="0.5328306276">
        <ele>1492.10</ele>
        <time>2022-07-09T07:47:28Z</time>
      </trkpt>
      <trkpt lat="42.6468870509" lon="0.5328246765">
        <ele>1492.10</ele>
        <time>2022-07-09T07:47:29Z</time>
      </trkpt>
      <trkpt lat="42.6468967739" lon="0.5328220781">
        <ele>1492.10</ele>
        <time>2022-07-09T07:47:30Z</time>
      </trkpt>
      <trkpt lat="42.6469163876" lon="0.5328176357">
        <ele>1492.58</ele>
        <time>2022-07-09T07:47:32Z</time>
      </trkpt>
      <trkpt lat="42.6470300462" lon="0.5327929929">
        <ele>1494.03</ele>
        <time>2022-07-09T07:47:40Z</time>
      </trkpt>
      <trkpt lat="42.6470578741" lon="0.5327878799">
        <ele>1494.51</ele>
        <time>2022-07-09T07:47:42Z</time>
      </trkpt>
      <trkpt lat="42.6471048966" lon="0.5327758938">
        <ele>1494.99</ele>
        <time>2022-07-09T07:47:46Z</time>
      </trkpt>
      <trkpt lat="42.6471157931" lon="0.5327766482">
        <ele>1494.99</ele>
        <time>2022-07-09T07:47:47Z</time>
      </trkpt>
      <trkpt lat="42.6471291203" lon="0.5327759776">
        <ele>1495.47</ele>
        <time>2022-07-09T07:47:48Z</time>
      </trkpt>
      <trkpt lat="42.6471406035" lon="0.5327714514">
        <ele>1495.47</ele>
        <time>2022-07-09T07:47:49Z</time>
      </trkpt>
      <trkpt lat="42.6472451258" lon="0.5327175558">
        <ele>1497.39</ele>
        <time>2022-07-09T07:47:59Z</time>
      </trkpt>
      <trkpt lat="42.6472553518" lon="0.5327121075">
        <ele>1497.39</ele>
        <time>2022-07-09T07:48:00Z</time>
      </trkpt>
      <trkpt lat="42.6472655777" lon="0.5327042285">
        <ele>1497.87</ele>
        <time>2022-07-09T07:48:01Z</time>
      </trkpt>
      <trkpt lat="42.6474137697" lon="0.5325930845">
        <ele>1500.27</ele>
        <time>2022-07-09T07:48:15Z</time>
      </trkpt>
      <trkpt lat="42.6475248300" lon="0.5324872211">
        <ele>1503.16</ele>
        <time>2022-07-09T07:48:28Z</time>
      </trkpt>
      <trkpt lat="42.6476284303" lon="0.5323640071">
        <ele>1506.04</ele>
        <time>2022-07-09T07:48:41Z</time>
      </trkpt>
      <trkpt lat="42.6476855110" lon="0.5322270468">
        <ele>1507.97</ele>
        <time>2022-07-09T07:48:52Z</time>
      </trkpt>
      <trkpt lat="42.6477921288" lon="0.5320892483">
        <ele>1510.85</ele>
        <time>2022-07-09T07:49:07Z</time>
      </trkpt>
      <trkpt lat="42.6478504669" lon="0.5318699777">
        <ele>1512.29</ele>
        <time>2022-07-09T07:49:21Z</time>
      </trkpt>
      <trkpt lat="42.6479693223" lon="0.5316571612">
        <ele>1514.21</ele>
        <time>2022-07-09T07:49:36Z</time>
      </trkpt>
      <trkpt lat="42.6479785424" lon="0.5316466838">
        <ele>1514.21</ele>
        <time>2022-07-09T07:49:37Z</time>
      </trkpt>
      <trkpt lat="42.6479901094" lon="0.5316360388">
        <ele>1514.69</ele>
        <time>2022-07-09T07:49:38Z</time>
      </trkpt>
      <trkpt lat="42.6480025984" lon="0.5316265672">
        <ele>1514.69</ele>
        <time>2022-07-09T07:49:39Z</time>
      </trkpt>
      <trkpt lat="42.6480124891" lon="0.5316131562">
        <ele>1514.69</ele>
        <time>2022-07-09T07:49:40Z</time>
      </trkpt>
      <trkpt lat="42.6480230503" lon="0.5315976497">
        <ele>1514.69</ele>
        <time>2022-07-09T07:49:41Z</time>
      </trkpt>
      <trkpt lat="42.6480334438" lon="0.5315825623">
        <ele>1515.18</ele>
        <time>2022-07-09T07:49:42Z</time>
      </trkpt>
      <trkpt lat="42.6481271535" lon="0.5314005911">
        <ele>1517.58</ele>
        <time>2022-07-09T07:49:56Z</time>
      </trkpt>
      <trkpt lat="42.6482512057" lon="0.5312771257">
        <ele>1520.46</ele>
        <time>2022-07-09T07:50:10Z</time>
      </trkpt>
      <trkpt lat="42.6483755931" lon="0.5311910436">
        <ele>1521.42</ele>
        <time>2022-07-09T07:50:20Z</time>
      </trkpt>
      <trkpt lat="42.6483926922" lon="0.5311844219">
        <ele>1521.42</ele>
        <time>2022-07-09T07:50:21Z</time>
      </trkpt>
      <trkpt lat="42.6484060194" lon="0.5311820749">
        <ele>1521.42</ele>
        <time>2022-07-09T07:50:22Z</time>
      </trkpt>
      <trkpt lat="42.6484280638" lon="0.5311672390">
        <ele>1521.42</ele>
        <time>2022-07-09T07:50:24Z</time>
      </trkpt>
      <trkpt lat="42.6485331729" lon="0.5311078113">
        <ele>1521.90</ele>
        <time>2022-07-09T07:50:32Z</time>
      </trkpt>
      <trkpt lat="42.6485409681" lon="0.5310954899">
        <ele>1521.90</ele>
        <time>2022-07-09T07:50:33Z</time>
      </trkpt>
      <trkpt lat="42.6485812850" lon="0.5310529936">
        <ele>1522.39</ele>
        <time>2022-07-09T07:50:37Z</time>
      </trkpt>
      <trkpt lat="42.6485922653" lon="0.5310488027">
        <ele>1522.87</ele>
        <time>2022-07-09T07:50:38Z</time>
      </trkpt>
      <trkpt lat="42.6486040000" lon="0.5310451146">
        <ele>1522.87</ele>
        <time>2022-07-09T07:50:39Z</time>
      </trkpt>
      <trkpt lat="42.6486155670" lon="0.5310459528">
        <ele>1522.87</ele>
        <time>2022-07-09T07:50:40Z</time>
      </trkpt>
      <trkpt lat="42.6486292295" lon="0.5310418457">
        <ele>1523.35</ele>
        <time>2022-07-09T07:50:41Z</time>
      </trkpt>
      <trkpt lat="42.6486416347" lon="0.5310380738">
        <ele>1523.35</ele>
        <time>2022-07-09T07:50:42Z</time>
      </trkpt>
      <trkpt lat="42.6486537047" lon="0.5310312845">
        <ele>1523.35</ele>
        <time>2022-07-09T07:50:43Z</time>
      </trkpt>
      <trkpt lat="42.6487587299" lon="0.5309405923">
        <ele>1525.75</ele>
        <time>2022-07-09T07:50:55Z</time>
      </trkpt>
      <trkpt lat="42.6489003003" lon="0.5306786578">
        <ele>1527.67</ele>
        <time>2022-07-09T07:51:11Z</time>
      </trkpt>
      <trkpt lat="42.6490465645" lon="0.5304475687">
        <ele>1527.67</ele>
        <time>2022-07-09T07:51:26Z</time>
      </trkpt>
      <trkpt lat="42.6491635758" lon="0.5301723909">
        <ele>1527.67</ele>
        <time>2022-07-09T07:51:43Z</time>
      </trkpt>
      <trkpt lat="42.6491803396" lon="0.5301480833">
        <ele>1527.67</ele>
        <time>2022-07-09T07:51:45Z</time>
      </trkpt>
      <trkpt lat="42.6491908170" lon="0.5301367678">
        <ele>1527.67</ele>
        <time>2022-07-09T07:51:46Z</time>
      </trkpt>
      <trkpt lat="42.6492160466" lon="0.5300936010">
        <ele>1527.67</ele>
        <time>2022-07-09T07:51:49Z</time>
      </trkpt>
      <trkpt lat="42.6492261048" lon="0.5300830398">
        <ele>1527.67</ele>
        <time>2022-07-09T07:51:50Z</time>
      </trkpt>
      <trkpt lat="42.6492348220" lon="0.5300722271">
        <ele>1527.67</ele>
        <time>2022-07-09T07:51:51Z</time>
      </trkpt>
      <trkpt lat="42.6493804157" lon="0.5299174134">
        <ele>1528.15</ele>
        <time>2022-07-09T07:52:06Z</time>
      </trkpt>
      <trkpt lat="42.6495315414" lon="0.5297624320">
        <ele>1528.15</ele>
        <time>2022-07-09T07:52:21Z</time>
      </trkpt>
      <trkpt lat="42.6496260893" lon="0.5296325963">
        <ele>1528.63</ele>
        <time>2022-07-09T07:52:32Z</time>
      </trkpt>
      <trkpt lat="42.6496892050" lon="0.5294135772">
        <ele>1529.11</ele>
        <time>2022-07-09T07:52:46Z</time>
      </trkpt>
      <trkpt lat="42.6497140992" lon="0.5293375533">
        <ele>1529.11</ele>
        <time>2022-07-09T07:52:51Z</time>
      </trkpt>
      <trkpt lat="42.6497249957" lon="0.5293246452">
        <ele>1529.11</ele>
        <time>2022-07-09T07:52:52Z</time>
      </trkpt>
      <trkpt lat="42.6497363113" lon="0.5293049477">
        <ele>1529.11</ele>
        <time>2022-07-09T07:52:53Z</time>
      </trkpt>
      <trkpt lat="42.6497375686" lon="0.5292927101">
        <ele>1529.11</ele>
        <time>2022-07-09T07:52:54Z</time>
      </trkpt>
      <trkpt lat="42.6497486327" lon="0.5292528961">
        <ele>1529.11</ele>
        <time>2022-07-09T07:53:05Z</time>
      </trkpt>
      <trkpt lat="42.6497566793" lon="0.5292790476">
        <ele>1529.11</ele>
        <time>2022-07-09T07:53:08Z</time>
      </trkpt>
      <trkpt lat="42.6497675758" lon="0.5292708334">
        <ele>1529.11</ele>
        <time>2022-07-09T07:53:09Z</time>
      </trkpt>
      <trkpt lat="42.6499046199" lon="0.5291575938">
        <ele>1529.11</ele>
        <time>2022-07-09T07:53:20Z</time>
      </trkpt>
      <trkpt lat="42.6499138400" lon="0.5291424226">
        <ele>1529.11</ele>
        <time>2022-07-09T07:53:21Z</time>
      </trkpt>
      <trkpt lat="42.6499241497" lon="0.5291264970">
        <ele>1529.11</ele>
        <time>2022-07-09T07:53:22Z</time>
      </trkpt>
      <trkpt lat="42.6499363873" lon="0.5291098170">
        <ele>1529.11</ele>
        <time>2022-07-09T07:53:23Z</time>
      </trkpt>
      <trkpt lat="42.6499502175" lon="0.5290954839">
        <ele>1529.11</ele>
        <time>2022-07-09T07:53:24Z</time>
      </trkpt>
      <trkpt lat="42.6499637123" lon="0.5290824082">
        <ele>1529.11</ele>
        <time>2022-07-09T07:53:25Z</time>
      </trkpt>
      <trkpt lat="42.6499735191" lon="0.5290772952">
        <ele>1529.11</ele>
        <time>2022-07-09T07:53:26Z</time>
      </trkpt>
      <trkpt lat="42.6499860920" lon="0.5290720146">
        <ele>1529.11</ele>
        <time>2022-07-09T07:53:27Z</time>
      </trkpt>
      <trkpt lat="42.6499983296" lon="0.5290627945">
        <ele>1529.59</ele>
        <time>2022-07-09T07:53:28Z</time>
      </trkpt>
      <trkpt lat="42.6500060409" lon="0.5290515628">
        <ele>1529.59</ele>
        <time>2022-07-09T07:53:29Z</time>
      </trkpt>
      <trkpt lat="42.6500381436" lon="0.5290194601">
        <ele>1529.59</ele>
        <time>2022-07-09T07:53:33Z</time>
      </trkpt>
      <trkpt lat="42.6501850784" lon="0.5288614612">
        <ele>1530.56</ele>
        <time>2022-07-09T07:53:46Z</time>
      </trkpt>
      <trkpt lat="42.6503236312" lon="0.5287493952">
        <ele>1531.52</ele>
        <time>2022-07-09T07:53:57Z</time>
      </trkpt>
      <trkpt lat="42.6504924428" lon="0.5286431964">
        <ele>1532.48</ele>
        <time>2022-07-09T07:54:10Z</time>
      </trkpt>
      <trkpt lat="42.6505844761" lon="0.5284996144">
        <ele>1534.88</ele>
        <time>2022-07-09T07:54:23Z</time>
      </trkpt>
      <trkpt lat="42.6506715640" lon="0.5283651687">
        <ele>1535.36</ele>
        <time>2022-07-09T07:54:34Z</time>
      </trkpt>
      <trkpt lat="42.6506780181" lon="0.5283482373">
        <ele>1535.36</ele>
        <time>2022-07-09T07:54:35Z</time>
      </trkpt>
      <trkpt lat="42.6507952809" lon="0.5282017216">
        <ele>1536.32</ele>
        <time>2022-07-09T07:54:47Z</time>
      </trkpt>
      <trkpt lat="42.6508083567" lon="0.5281894840">
        <ele>1536.32</ele>
        <time>2022-07-09T07:54:48Z</time>
      </trkpt>
      <trkpt lat="42.6508187503" lon="0.5281788390">
        <ele>1536.32</ele>
        <time>2022-07-09T07:54:49Z</time>
      </trkpt>
      <trkpt lat="42.6509156451" lon="0.5281050783">
        <ele>1536.80</ele>
        <time>2022-07-09T07:54:57Z</time>
      </trkpt>
      <trkpt lat="42.6510842890" lon="0.5280023161">
        <ele>1537.77</ele>
        <time>2022-07-09T07:55:11Z</time>
      </trkpt>
      <trkpt lat="42.6512390189" lon="0.5279153958">
        <ele>1538.25</ele>
        <time>2022-07-09T07:55:26Z</time>
      </trkpt>
      <trkpt lat="42.6514152065" lon="0.5278502684">
        <ele>1538.73</ele>
        <time>2022-07-09T07:55:38Z</time>
      </trkpt>
      <trkpt lat="42.6514308807" lon="0.5278444849">
        <ele>1538.73</ele>
        <time>2022-07-09T07:55:39Z</time>
      </trkpt>
      <trkpt lat="42.6516224071" lon="0.5277661979">
        <ele>1538.73</ele>
        <time>2022-07-09T07:55:49Z</time>
      </trkpt>
      <trkpt lat="42.6516365726" lon="0.5277542118">
        <ele>1538.73</ele>
        <time>2022-07-09T07:55:50Z</time>
      </trkpt>
      <trkpt lat="42.6516615506" lon="0.5277338438">
        <ele>1538.73</ele>
        <time>2022-07-09T07:55:52Z</time>
      </trkpt>
      <trkpt lat="42.6516748779" lon="0.5277188402">
        <ele>1538.73</ele>
        <time>2022-07-09T07:55:53Z</time>
      </trkpt>
      <trkpt lat="42.6516877860" lon="0.5277075246">
        <ele>1538.73</ele>
        <time>2022-07-09T07:55:54Z</time>
      </trkpt>
      <trkpt lat="42.6516977604" lon="0.5276944488">
        <ele>1538.73</ele>
        <time>2022-07-09T07:55:55Z</time>
      </trkpt>
      <trkpt lat="42.6517106686" lon="0.5276724882">
        <ele>1538.73</ele>
        <time>2022-07-09T07:55:56Z</time>
      </trkpt>
      <trkpt lat="42.6517234091" lon="0.5276586581">
        <ele>1537.77</ele>
        <time>2022-07-09T07:55:58Z</time>
      </trkpt>
      <trkpt lat="42.6517425198" lon="0.5276335962">
        <ele>1537.77</ele>
        <time>2022-07-09T07:55:59Z</time>
      </trkpt>
      <trkpt lat="42.6517534163" lon="0.5276207719">
        <ele>1537.77</ele>
        <time>2022-07-09T07:56:00Z</time>
      </trkpt>
      <trkpt lat="42.6518963277" lon="0.5274401419">
        <ele>1538.25</ele>
        <time>2022-07-09T07:56:14Z</time>
      </trkpt>
      <trkpt lat="42.6519999281" lon="0.5272866692">
        <ele>1539.69</ele>
        <time>2022-07-09T07:56:26Z</time>
      </trkpt>
      <trkpt lat="42.6521393191" lon="0.5271373875">
        <ele>1541.13</ele>
        <time>2022-07-09T07:56:41Z</time>
      </trkpt>
      <trkpt lat="42.6522769500" lon="0.5270190351">
        <ele>1543.05</ele>
        <time>2022-07-09T07:56:54Z</time>
      </trkpt>
      <trkpt lat="42.6524217054" lon="0.5268855114">
        <ele>1544.98</ele>
        <time>2022-07-09T07:57:09Z</time>
      </trkpt>
      <trkpt lat="42.6524576638" lon="0.5268449429">
        <ele>1545.46</ele>
        <time>2022-07-09T07:57:13Z</time>
      </trkpt>
      <trkpt lat="42.6525517087" lon="0.5266887881">
        <ele>1547.86</ele>
        <time>2022-07-09T07:57:27Z</time>
      </trkpt>
      <trkpt lat="42.6525847334" lon="0.5266253371">
        <ele>1548.34</ele>
        <time>2022-07-09T07:57:32Z</time>
      </trkpt>
      <trkpt lat="42.6525904331" lon="0.5266129319">
        <ele>1548.34</ele>
        <time>2022-07-09T07:57:33Z</time>
      </trkpt>
      <trkpt lat="42.6525974739" lon="0.5265996885">
        <ele>1548.34</ele>
        <time>2022-07-09T07:57:34Z</time>
      </trkpt>
      <trkpt lat="42.6526074484" lon="0.5265892949">
        <ele>1548.34</ele>
        <time>2022-07-09T07:57:35Z</time>
      </trkpt>
      <trkpt lat="42.6526188478" lon="0.5265772250">
        <ele>1548.34</ele>
        <time>2022-07-09T07:57:36Z</time>
      </trkpt>
      <trkpt lat="42.6527523715" lon="0.5263565294">
        <ele>1550.26</ele>
        <time>2022-07-09T07:57:51Z</time>
      </trkpt>
      <trkpt lat="42.6528744958" lon="0.5261263624">
        <ele>1551.22</ele>
        <time>2022-07-09T07:58:08Z</time>
      </trkpt>
      <trkpt lat="42.6529863942" lon="0.5260002147">
        <ele>1551.71</ele>
        <time>2022-07-09T07:58:21Z</time>
      </trkpt>
      <trkpt lat="42.6529962011" lon="0.5259884801">
        <ele>1551.71</ele>
        <time>2022-07-09T07:58:22Z</time>
      </trkpt>
      <trkpt lat="42.6530076843" lon="0.5259774160">
        <ele>1551.71</ele>
        <time>2022-07-09T07:58:23Z</time>
      </trkpt>
      <trkpt lat="42.6530182455" lon="0.5259658489">
        <ele>1551.71</ele>
        <time>2022-07-09T07:58:24Z</time>
      </trkpt>
      <trkpt lat="42.6530329976" lon="0.5259516835">
        <ele>1551.71</ele>
        <time>2022-07-09T07:58:25Z</time>
      </trkpt>
      <trkpt lat="42.6532003842" lon="0.5257513560">
        <ele>1551.71</ele>
        <time>2022-07-09T07:58:42Z</time>
      </trkpt>
      <trkpt lat="42.6533127856" lon="0.5256361049">
        <ele>1552.67</ele>
        <time>2022-07-09T07:58:54Z</time>
      </trkpt>
      <trkpt lat="42.6534241810" lon="0.5254551396">
        <ele>1555.55</ele>
        <time>2022-07-09T07:59:09Z</time>
      </trkpt>
      <trkpt lat="42.6535481494" lon="0.5252873339">
        <ele>1556.99</ele>
        <time>2022-07-09T07:59:23Z</time>
      </trkpt>
      <trkpt lat="42.6536680944" lon="0.5251149181">
        <ele>1559.40</ele>
        <time>2022-07-09T07:59:38Z</time>
      </trkpt>
      <trkpt lat="42.6537325513" lon="0.5249584280">
        <ele>1561.80</ele>
        <time>2022-07-09T07:59:51Z</time>
      </trkpt>
      <trkpt lat="42.6538363192" lon="0.5248198751">
        <ele>1563.24</ele>
        <time>2022-07-09T08:00:02Z</time>
      </trkpt>
      <trkpt lat="42.6539025363" lon="0.5246837530">
        <ele>1565.16</ele>
        <time>2022-07-09T08:00:14Z</time>
      </trkpt>
      <trkpt lat="42.6539104991" lon="0.5246349704">
        <ele>1566.12</ele>
        <time>2022-07-09T08:00:17Z</time>
      </trkpt>
      <trkpt lat="42.6539633051" lon="0.5244695116">
        <ele>1567.09</ele>
        <time>2022-07-09T08:00:29Z</time>
      </trkpt>
      <trkpt lat="42.6540177874" lon="0.5242704414">
        <ele>1569.49</ele>
        <time>2022-07-09T08:00:43Z</time>
      </trkpt>
      <trkpt lat="42.6540943142" lon="0.5240708683">
        <ele>1571.89</ele>
        <time>2022-07-09T08:00:57Z</time>
      </trkpt>
      <trkpt lat="42.6542278379" lon="0.5239158031">
        <ele>1573.82</ele>
        <time>2022-07-09T08:01:11Z</time>
      </trkpt>
      <trkpt lat="42.6543678995" lon="0.5237990431">
        <ele>1575.26</ele>
        <time>2022-07-09T08:01:24Z</time>
      </trkpt>
      <trkpt lat="42.6544772834" lon="0.5236572213">
        <ele>1577.18</ele>
        <time>2022-07-09T08:01:36Z</time>
      </trkpt>
      <trkpt lat="42.6545560732" lon="0.5234681256">
        <ele>1577.66</ele>
        <time>2022-07-09T08:01:49Z</time>
      </trkpt>
      <trkpt lat="42.6545766927" lon="0.5234439019">
        <ele>1577.66</ele>
        <time>2022-07-09T08:01:51Z</time>
      </trkpt>
      <trkpt lat="42.6546591707" lon="0.5233252142">
        <ele>1578.62</ele>
        <time>2022-07-09T08:02:00Z</time>
      </trkpt>
      <trkpt lat="42.6547032595" lon="0.5232310016">
        <ele>1580.06</ele>
        <time>2022-07-09T08:02:08Z</time>
      </trkpt>
      <trkpt lat="42.6548005734" lon="0.5230744276">
        <ele>1581.03</ele>
        <time>2022-07-09T08:02:20Z</time>
      </trkpt>
      <trkpt lat="42.6548995636" lon="0.5229029339">
        <ele>1581.99</ele>
        <time>2022-07-09T08:02:34Z</time>
      </trkpt>
      <trkpt lat="42.6549954526" lon="0.5227506347">
        <ele>1584.39</ele>
        <time>2022-07-09T08:02:46Z</time>
      </trkpt>
      <trkpt lat="42.6551489253" lon="0.5226203799">
        <ele>1584.87</ele>
        <time>2022-07-09T08:02:59Z</time>
      </trkpt>
      <trkpt lat="42.6552309841" lon="0.5224786419">
        <ele>1584.87</ele>
        <time>2022-07-09T08:03:10Z</time>
      </trkpt>
      <trkpt lat="42.6552728098" lon="0.5223673303">
        <ele>1585.35</ele>
        <time>2022-07-09T08:03:18Z</time>
      </trkpt>
      <trkpt lat="42.6553360932" lon="0.5222478043">
        <ele>1585.83</ele>
        <time>2022-07-09T08:03:27Z</time>
      </trkpt>
      <trkpt lat="42.6554115303" lon="0.5220660008">
        <ele>1584.87</ele>
        <time>2022-07-09T08:03:38Z</time>
      </trkpt>
      <trkpt lat="42.6554982830" lon="0.5219110195">
        <ele>1584.87</ele>
        <time>2022-07-09T08:03:48Z</time>
      </trkpt>
      <trkpt lat="42.6555254404" lon="0.5218191538">
        <ele>1585.35</ele>
        <time>2022-07-09T08:03:54Z</time>
      </trkpt>
      <trkpt lat="42.6556689385" lon="0.5216536112">
        <ele>1582.47</ele>
        <time>2022-07-09T08:04:08Z</time>
      </trkpt>
      <trkpt lat="42.6557193976" lon="0.5215728935">
        <ele>1582.47</ele>
        <time>2022-07-09T08:04:14Z</time>
      </trkpt>
      <trkpt lat="42.6558003668" lon="0.5214739032">
        <ele>1581.03</ele>
        <time>2022-07-09T08:04:23Z</time>
      </trkpt>
      <trkpt lat="42.6558421087" lon="0.5214392021">
        <ele>1580.54</ele>
        <time>2022-07-09T08:04:27Z</time>
      </trkpt>
      <trkpt lat="42.6558548491" lon="0.5214267969">
        <ele>1580.06</ele>
        <time>2022-07-09T08:04:28Z</time>
      </trkpt>
      <trkpt lat="42.6558722835" lon="0.5214188341">
        <ele>1580.06</ele>
        <time>2022-07-09T08:04:29Z</time>
      </trkpt>
      <trkpt lat="42.6559855230" lon="0.5212293193">
        <ele>1578.14</ele>
        <time>2022-07-09T08:04:42Z</time>
      </trkpt>
      <trkpt lat="42.6561630517" lon="0.5210825521">
        <ele>1577.18</ele>
        <time>2022-07-09T08:04:57Z</time>
      </trkpt>
      <trkpt lat="42.6562831644" lon="0.5209718272">
        <ele>1576.22</ele>
        <time>2022-07-09T08:05:07Z</time>
      </trkpt>
      <trkpt lat="42.6562931389" lon="0.5209553149">
        <ele>1576.70</ele>
        <time>2022-07-09T08:05:08Z</time>
      </trkpt>
      <trkpt lat="42.6564444322" lon="0.5207471922">
        <ele>1576.22</ele>
        <time>2022-07-09T08:05:23Z</time>
      </trkpt>
      <trkpt lat="42.6564777084" lon="0.5207228847">
        <ele>1575.74</ele>
        <time>2022-07-09T08:05:26Z</time>
      </trkpt>
      <trkpt lat="42.6565007586" lon="0.5207000021">
        <ele>1575.26</ele>
        <time>2022-07-09T08:05:28Z</time>
      </trkpt>
      <trkpt lat="42.6565952227" lon="0.5206052028">
        <ele>1574.30</ele>
        <time>2022-07-09T08:05:38Z</time>
      </trkpt>
      <trkpt lat="42.6567370445" lon="0.5205240659">
        <ele>1573.33</ele>
        <time>2022-07-09T08:05:51Z</time>
      </trkpt>
      <trkpt lat="42.6568544749" lon="0.5203763768">
        <ele>1573.33</ele>
        <time>2022-07-09T08:06:03Z</time>
      </trkpt>
      <trkpt lat="42.6569358632" lon="0.5202109180">
        <ele>1573.33</ele>
        <time>2022-07-09T08:06:16Z</time>
      </trkpt>
      <trkpt lat="42.6569610089" lon="0.5201685056">
        <ele>1574.78</ele>
        <time>2022-07-09T08:06:20Z</time>
      </trkpt>
      <trkpt lat="42.6569776051" lon="0.5200305395">
        <ele>1575.26</ele>
        <time>2022-07-09T08:06:30Z</time>
      </trkpt>
      <trkpt lat="42.6569749229" lon="0.5200066511">
        <ele>1575.26</ele>
        <time>2022-07-09T08:06:31Z</time>
      </trkpt>
      <trkpt lat="42.6569777727" lon="0.5199849419">
        <ele>1575.26</ele>
        <time>2022-07-09T08:06:32Z</time>
      </trkpt>
      <trkpt lat="42.6569845621" lon="0.5198816769">
        <ele>1575.74</ele>
        <time>2022-07-09T08:06:40Z</time>
      </trkpt>
      <trkpt lat="42.6569996495" lon="0.5198591296">
        <ele>1575.74</ele>
        <time>2022-07-09T08:06:42Z</time>
      </trkpt>
      <trkpt lat="42.6570034213" lon="0.5198491551">
        <ele>1575.74</ele>
        <time>2022-07-09T08:06:43Z</time>
      </trkpt>
      <trkpt lat="42.6570153236" lon="0.5198415276">
        <ele>1576.70</ele>
        <time>2022-07-09T08:06:44Z</time>
      </trkpt>
      <trkpt lat="42.6570299082" lon="0.5198348220">
        <ele>1576.70</ele>
        <time>2022-07-09T08:06:45Z</time>
      </trkpt>
      <trkpt lat="42.6570438221" lon="0.5198293738">
        <ele>1576.70</ele>
        <time>2022-07-09T08:06:46Z</time>
      </trkpt>
      <trkpt lat="42.6570597477" lon="0.5198209081">
        <ele>1576.70</ele>
        <time>2022-07-09T08:06:47Z</time>
      </trkpt>
      <trkpt lat="42.6571702212" lon="0.5197479017">
        <ele>1577.18</ele>
        <time>2022-07-09T08:06:58Z</time>
      </trkpt>
      <trkpt lat="42.6572367735" lon="0.5197666772">
        <ele>1579.10</ele>
        <time>2022-07-09T08:07:09Z</time>
      </trkpt>
      <trkpt lat="42.6573347580" lon="0.5198737141">
        <ele>1578.14</ele>
        <time>2022-07-09T08:07:23Z</time>
      </trkpt>
      <trkpt lat="42.6573910005" lon="0.5199020449">
        <ele>1579.58</ele>
        <time>2022-07-09T08:07:28Z</time>
      </trkpt>
      <trkpt lat="42.6575476583" lon="0.5198036414">
        <ele>1580.54</ele>
        <time>2022-07-09T08:07:41Z</time>
      </trkpt>
      <trkpt lat="42.6575745642" lon="0.5197586305">
        <ele>1581.03</ele>
        <time>2022-07-09T08:07:46Z</time>
      </trkpt>
      <trkpt lat="42.6575971954" lon="0.5197130330">
        <ele>1581.51</ele>
        <time>2022-07-09T08:07:50Z</time>
      </trkpt>
      <trkpt lat="42.6576134562" lon="0.5196965206">
        <ele>1581.99</ele>
        <time>2022-07-09T08:07:52Z</time>
      </trkpt>
      <trkpt lat="42.6576216705" lon="0.5196837801">
        <ele>1581.99</ele>
        <time>2022-07-09T08:07:53Z</time>
      </trkpt>
      <trkpt lat="42.6577442978" lon="0.5195726361">
        <ele>1583.43</ele>
        <time>2022-07-09T08:08:06Z</time>
      </trkpt>
      <trkpt lat="42.6578209922" lon="0.5194006395">
        <ele>1585.35</ele>
        <time>2022-07-09T08:08:19Z</time>
      </trkpt>
      <trkpt lat="42.6579554379" lon="0.5192895792">
        <ele>1587.75</ele>
        <time>2022-07-09T08:08:34Z</time>
      </trkpt>
      <trkpt lat="42.6580345631" lon="0.5193601549">
        <ele>1590.64</ele>
        <time>2022-07-09T08:08:49Z</time>
      </trkpt>
      <trkpt lat="42.6581185497" lon="0.5193549581">
        <ele>1592.56</ele>
        <time>2022-07-09T08:08:58Z</time>
      </trkpt>
      <trkpt lat="42.6582228206" lon="0.5192432273">
        <ele>1594.96</ele>
        <time>2022-07-09T08:09:11Z</time>
      </trkpt>
      <trkpt lat="42.6582819130" lon="0.5191894155">
        <ele>1595.93</ele>
        <time>2022-07-09T08:09:18Z</time>
      </trkpt>
      <trkpt lat="42.6584197115" lon="0.5191138107">
        <ele>1597.85</ele>
        <time>2022-07-09T08:09:32Z</time>
      </trkpt>
      <trkpt lat="42.6585544925" lon="0.5190400500">
        <ele>1601.21</ele>
        <time>2022-07-09T08:09:48Z</time>
      </trkpt>
      <trkpt lat="42.6586514711" lon="0.5189774372">
        <ele>1604.10</ele>
        <time>2022-07-09T08:10:01Z</time>
      </trkpt>
      <trkpt lat="42.6587560773" lon="0.5188973900">
        <ele>1606.50</ele>
        <time>2022-07-09T08:10:14Z</time>
      </trkpt>
      <trkpt lat="42.6587930415" lon="0.5188667122">
        <ele>1607.46</ele>
        <time>2022-07-09T08:10:18Z</time>
      </trkpt>
      <trkpt lat="42.6589388866" lon="0.5186757725">
        <ele>1607.94</ele>
        <time>2022-07-09T08:10:33Z</time>
      </trkpt>
      <trkpt lat="42.6590504497" lon="0.5185593478">
        <ele>1607.94</ele>
        <time>2022-07-09T08:10:44Z</time>
      </trkpt>
      <trkpt lat="42.6592174172" lon="0.5184155144">
        <ele>1606.98</ele>
        <time>2022-07-09T08:10:59Z</time>
      </trkpt>
      <trkpt lat="42.6593470853" lon="0.5182162765">
        <ele>1606.50</ele>
        <time>2022-07-09T08:11:12Z</time>
      </trkpt>
      <trkpt lat="42.6594095305" lon="0.5180752929">
        <ele>1606.50</ele>
        <time>2022-07-09T08:11:24Z</time>
      </trkpt>
      <trkpt lat="42.6595583931" lon="0.5178424437">
        <ele>1606.50</ele>
        <time>2022-07-09T08:11:39Z</time>
      </trkpt>
      <trkpt lat="42.6596978679" lon="0.5176698603">
        <ele>1607.94</ele>
        <time>2022-07-09T08:11:53Z</time>
      </trkpt>
      <trkpt lat="42.6597904041" lon="0.5174510926">
        <ele>1608.42</ele>
        <time>2022-07-09T08:12:08Z</time>
      </trkpt>
      <trkpt lat="42.6598893944" lon="0.5173092708">
        <ele>1609.38</ele>
        <time>2022-07-09T08:12:20Z</time>
      </trkpt>
      <trkpt lat="42.6600111835" lon="0.5171664432">
        <ele>1610.35</ele>
        <time>2022-07-09T08:12:32Z</time>
      </trkpt>
      <trkpt lat="42.6601347327" lon="0.5170639325">
        <ele>1610.83</ele>
        <time>2022-07-09T08:12:43Z</time>
      </trkpt>
      <trkpt lat="42.6602809131" lon="0.5169341806">
        <ele>1612.27</ele>
        <time>2022-07-09T08:12:57Z</time>
      </trkpt>
      <trkpt lat="42.6603307854" lon="0.5169029161">
        <ele>1612.75</ele>
        <time>2022-07-09T08:13:01Z</time>
      </trkpt>
      <trkpt lat="42.6603778079" lon="0.5168307479">
        <ele>1613.71</ele>
        <time>2022-07-09T08:13:07Z</time>
      </trkpt>
      <trkpt lat="42.6604455337" lon="0.5167238787">
        <ele>1613.71</ele>
        <time>2022-07-09T08:13:15Z</time>
      </trkpt>
      <trkpt lat="42.6605536602" lon="0.5165750999">
        <ele>1615.15</ele>
        <time>2022-07-09T08:13:28Z</time>
      </trkpt>
      <trkpt lat="42.6605996769" lon="0.5164899398">
        <ele>1616.11</ele>
        <time>2022-07-09T08:13:34Z</time>
      </trkpt>
      <trkpt lat="42.6606385689" lon="0.5163908657">
        <ele>1617.07</ele>
        <time>2022-07-09T08:13:42Z</time>
      </trkpt>
      <trkpt lat="42.6606518961" lon="0.5163681507">
        <ele>1617.07</ele>
        <time>2022-07-09T08:13:44Z</time>
      </trkpt>
      <trkpt lat="42.6607061271" lon="0.5162535701">
        <ele>1618.52</ele>
        <time>2022-07-09T08:13:54Z</time>
      </trkpt>
      <trkpt lat="42.6607878506" lon="0.5160850938">
        <ele>1620.92</ele>
        <time>2022-07-09T08:14:07Z</time>
      </trkpt>
      <trkpt lat="42.6608369686" lon="0.5158698466">
        <ele>1622.84</ele>
        <time>2022-07-09T08:14:23Z</time>
      </trkpt>
      <trkpt lat="42.6609173510" lon="0.5157224927">
        <ele>1624.77</ele>
        <time>2022-07-09T08:14:35Z</time>
      </trkpt>
      <trkpt lat="42.6609709952" lon="0.5156430323">
        <ele>1623.80</ele>
        <time>2022-07-09T08:14:42Z</time>
      </trkpt>
      <trkpt lat="42.6609845739" lon="0.5156291183">
        <ele>1626.69</ele>
        <time>2022-07-09T08:14:44Z</time>
      </trkpt>
      <trkpt lat="42.6610118989" lon="0.5156041402">
        <ele>1626.69</ele>
        <time>2022-07-09T08:14:47Z</time>
      </trkpt>
      <trkpt lat="42.6610440854" lon="0.5155685171">
        <ele>1626.69</ele>
        <time>2022-07-09T08:14:51Z</time>
      </trkpt>
      <trkpt lat="42.6610565744" lon="0.5155607220">
        <ele>1627.17</ele>
        <time>2022-07-09T08:14:52Z</time>
      </trkpt>
      <trkpt lat="42.6612310857" lon="0.5153632443">
        <ele>1627.65</ele>
        <time>2022-07-09T08:15:08Z</time>
      </trkpt>
      <trkpt lat="42.6613658667" lon="0.5152165610">
        <ele>1628.61</ele>
        <time>2022-07-09T08:15:23Z</time>
      </trkpt>
      <trkpt lat="42.6615156513" lon="0.5150365178">
        <ele>1629.57</ele>
        <time>2022-07-09T08:15:37Z</time>
      </trkpt>
      <trkpt lat="42.6615411323" lon="0.5150005594">
        <ele>1630.05</ele>
        <time>2022-07-09T08:15:40Z</time>
      </trkpt>
      <trkpt lat="42.6616919227" lon="0.5148496013">
        <ele>1631.49</ele>
        <time>2022-07-09T08:15:54Z</time>
      </trkpt>
      <trkpt lat="42.6618295535" lon="0.5147092044">
        <ele>1632.94</ele>
        <time>2022-07-09T08:16:07Z</time>
      </trkpt>
      <trkpt lat="42.6619834453" lon="0.5145666283">
        <ele>1634.86</ele>
        <time>2022-07-09T08:16:21Z</time>
      </trkpt>
      <trkpt lat="42.6620340720" lon="0.5145314243">
        <ele>1635.34</ele>
        <time>2022-07-09T08:16:27Z</time>
      </trkpt>
      <trkpt lat="42.6620526798" lon="0.5145111401">
        <ele>1635.34</ele>
        <time>2022-07-09T08:16:29Z</time>
      </trkpt>
      <trkpt lat="42.6621929090" lon="0.5144030973">
        <ele>1637.74</ele>
        <time>2022-07-09T08:16:44Z</time>
      </trkpt>
      <trkpt lat="42.6623080764" lon="0.5143018439">
        <ele>1640.15</ele>
        <time>2022-07-09T08:16:59Z</time>
      </trkpt>
      <trkpt lat="42.6624036301" lon="0.5142467748">
        <ele>1643.51</ele>
        <time>2022-07-09T08:17:13Z</time>
      </trkpt>
      <trkpt lat="42.6624450367" lon="0.5142145883">
        <ele>1643.51</ele>
        <time>2022-07-09T08:17:18Z</time>
      </trkpt>
      <trkpt lat="42.6625024527" lon="0.5141595192">
        <ele>1644.95</ele>
        <time>2022-07-09T08:17:25Z</time>
      </trkpt>
      <trkpt lat="42.6625153609" lon="0.5141494609">
        <ele>1645.43</ele>
        <time>2022-07-09T08:17:27Z</time>
      </trkpt>
      <trkpt lat="42.6625563484" lon="0.5140912067">
        <ele>1647.36</ele>
        <time>2022-07-09T08:17:35Z</time>
      </trkpt>
      <trkpt lat="42.6626843400" lon="0.5139754526">
        <ele>1649.28</ele>
        <time>2022-07-09T08:17:48Z</time>
      </trkpt>
      <trkpt lat="42.6628407463" lon="0.5138092395">
        <ele>1650.24</ele>
        <time>2022-07-09T08:18:01Z</time>
      </trkpt>
      <trkpt lat="42.6629407424" lon="0.5136897136">
        <ele>1652.16</ele>
        <time>2022-07-09T08:18:13Z</time>
      </trkpt>
      <trkpt lat="42.6629849151" lon="0.5136231612">
        <ele>1652.64</ele>
        <time>2022-07-09T08:18:19Z</time>
      </trkpt>
      <trkpt lat="42.6631016750" lon="0.5134411901">
        <ele>1654.57</ele>
        <time>2022-07-09T08:18:33Z</time>
      </trkpt>
      <trkpt lat="42.6631101407" lon="0.5134257674">
        <ele>1654.57</ele>
        <time>2022-07-09T08:18:34Z</time>
      </trkpt>
      <trkpt lat="42.6631466020" lon="0.5133375060">
        <ele>1656.01</ele>
        <time>2022-07-09T08:18:41Z</time>
      </trkpt>
      <trkpt lat="42.6631465182" lon="0.5131787527">
        <ele>1657.45</ele>
        <time>2022-07-09T08:18:52Z</time>
      </trkpt>
      <trkpt lat="42.6631863322" lon="0.5129917525">
        <ele>1658.89</ele>
        <time>2022-07-09T08:19:03Z</time>
      </trkpt>
      <trkpt lat="42.6632020902" lon="0.5129085202">
        <ele>1659.85</ele>
        <time>2022-07-09T08:19:09Z</time>
      </trkpt>
      <trkpt lat="42.6632658765" lon="0.5127602443">
        <ele>1662.26</ele>
        <time>2022-07-09T08:19:22Z</time>
      </trkpt>
      <trkpt lat="42.6632886752" lon="0.5125820450">
        <ele>1664.18</ele>
        <time>2022-07-09T08:19:35Z</time>
      </trkpt>
      <trkpt lat="42.6633837260" lon="0.5123890936">
        <ele>1666.58</ele>
        <time>2022-07-09T08:19:50Z</time>
      </trkpt>
      <trkpt lat="42.6633905992" lon="0.5123723298">
        <ele>1667.06</ele>
        <time>2022-07-09T08:19:51Z</time>
      </trkpt>
      <trkpt lat="42.6634524576" lon="0.5121362116">
        <ele>1668.99</ele>
        <time>2022-07-09T08:20:06Z</time>
      </trkpt>
      <trkpt lat="42.6634938642" lon="0.5119281728">
        <ele>1672.35</ele>
        <time>2022-07-09T08:20:22Z</time>
      </trkpt>
      <trkpt lat="42.6634948701" lon="0.5119101517">
        <ele>1672.35</ele>
        <time>2022-07-09T08:20:23Z</time>
      </trkpt>
      <trkpt lat="42.6635046769" lon="0.5117747001">
        <ele>1674.27</ele>
        <time>2022-07-09T08:20:35Z</time>
      </trkpt>
      <trkpt lat="42.6635408029" lon="0.5116545875">
        <ele>1676.20</ele>
        <time>2022-07-09T08:20:44Z</time>
      </trkpt>
      <trkpt lat="42.6635618415" lon="0.5114849377">
        <ele>1678.60</ele>
        <time>2022-07-09T08:20:58Z</time>
      </trkpt>
      <trkpt lat="42.6635697205" lon="0.5114483926">
        <ele>1679.08</ele>
        <time>2022-07-09T08:21:01Z</time>
      </trkpt>
      <trkpt lat="42.6636425592" lon="0.5112558603">
        <ele>1681.00</ele>
        <time>2022-07-09T08:21:16Z</time>
      </trkpt>
      <trkpt lat="42.6636749133" lon="0.5111084227">
        <ele>1682.93</ele>
        <time>2022-07-09T08:21:28Z</time>
      </trkpt>
      <trkpt lat="42.6637426391" lon="0.5109511781">
        <ele>1686.29</ele>
        <time>2022-07-09T08:21:42Z</time>
      </trkpt>
      <trkpt lat="42.6637739036" lon="0.5109063350">
        <ele>1686.77</ele>
        <time>2022-07-09T08:21:46Z</time>
      </trkpt>
      <trkpt lat="42.6638844609" lon="0.5107340030">
        <ele>1689.65</ele>
        <time>2022-07-09T08:22:01Z</time>
      </trkpt>
      <trkpt lat="42.6639041584" lon="0.5106307380">
        <ele>1691.58</ele>
        <time>2022-07-09T08:22:12Z</time>
      </trkpt>
      <trkpt lat="42.6640064176" lon="0.5104474258">
        <ele>1694.46</ele>
        <time>2022-07-09T08:22:28Z</time>
      </trkpt>
      <trkpt lat="42.6640323177" lon="0.5103678815">
        <ele>1695.90</ele>
        <time>2022-07-09T08:22:36Z</time>
      </trkpt>
      <trkpt lat="42.6640790887" lon="0.5102824699">
        <ele>1697.34</ele>
        <time>2022-07-09T08:22:44Z</time>
      </trkpt>
      <trkpt lat="42.6640869677" lon="0.5102540553">
        <ele>1698.31</ele>
        <time>2022-07-09T08:22:46Z</time>
      </trkpt>
      <trkpt lat="42.6641028933" lon="0.5102344416">
        <ele>1698.31</ele>
        <time>2022-07-09T08:22:48Z</time>
      </trkpt>
      <trkpt lat="42.6641409472" lon="0.5101739243">
        <ele>1699.75</ele>
        <time>2022-07-09T08:22:55Z</time>
      </trkpt>
      <trkpt lat="42.6642950065" lon="0.5100452621">
        <ele>1700.23</ele>
        <time>2022-07-09T08:23:09Z</time>
      </trkpt>
      <trkpt lat="42.6644178852" lon="0.5099050328">
        <ele>1700.71</ele>
        <time>2022-07-09T08:23:23Z</time>
      </trkpt>
      <trkpt lat="42.6644266862" lon="0.5099081341">
        <ele>1699.27</ele>
        <time>2022-07-09T08:23:28Z</time>
      </trkpt>
      <trkpt lat="42.6644961722" lon="0.5098538194">
        <ele>1696.86</ele>
        <time>2022-07-09T08:23:40Z</time>
      </trkpt>
      <trkpt lat="42.6645443682" lon="0.5097968224">
        <ele>1696.86</ele>
        <time>2022-07-09T08:23:44Z</time>
      </trkpt>
      <trkpt lat="42.6645750459" lon="0.5097412504">
        <ele>1697.34</ele>
        <time>2022-07-09T08:23:47Z</time>
      </trkpt>
      <trkpt lat="42.6646813285" lon="0.5096047930">
        <ele>1695.42</ele>
        <time>2022-07-09T08:24:00Z</time>
      </trkpt>
      <trkpt lat="42.6647954900" lon="0.5095283501">
        <ele>1694.46</ele>
        <time>2022-07-09T08:24:12Z</time>
      </trkpt>
      <trkpt lat="42.6649104059" lon="0.5096131749">
        <ele>1693.50</ele>
        <time>2022-07-09T08:24:27Z</time>
      </trkpt>
      <trkpt lat="42.6649337076" lon="0.5097678211">
        <ele>1693.98</ele>
        <time>2022-07-09T08:24:40Z</time>
      </trkpt>
      <trkpt lat="42.6649399102" lon="0.5098879337">
        <ele>1694.94</ele>
        <time>2022-07-09T08:24:49Z</time>
      </trkpt>
      <trkpt lat="42.6649318635" lon="0.5099932943">
        <ele>1696.38</ele>
        <time>2022-07-09T08:24:57Z</time>
      </trkpt>
      <trkpt lat="42.6649645530" lon="0.5102083739">
        <ele>1697.83</ele>
        <time>2022-07-09T08:25:12Z</time>
      </trkpt>
      <trkpt lat="42.6650143415" lon="0.5104185920">
        <ele>1700.23</ele>
        <time>2022-07-09T08:25:27Z</time>
      </trkpt>
      <trkpt lat="42.6650629565" lon="0.5105615873">
        <ele>1700.23</ele>
        <time>2022-07-09T08:25:39Z</time>
      </trkpt>
      <trkpt lat="42.6650271658" lon="0.5106561352">
        <ele>1701.19</ele>
        <time>2022-07-09T08:25:47Z</time>
      </trkpt>
      <trkpt lat="42.6650214661" lon="0.5108220130">
        <ele>1703.11</ele>
        <time>2022-07-09T08:26:00Z</time>
      </trkpt>
      <trkpt lat="42.6650208794" lon="0.5109772459">
        <ele>1705.04</ele>
        <time>2022-07-09T08:26:13Z</time>
      </trkpt>
      <trkpt lat="42.6650245674" lon="0.5111225881">
        <ele>1708.40</ele>
        <time>2022-07-09T08:26:27Z</time>
      </trkpt>
      <trkpt lat="42.6651364658" lon="0.5111829378">
        <ele>1710.80</ele>
        <time>2022-07-09T08:26:43Z</time>
      </trkpt>
      <trkpt lat="42.6651878469" lon="0.5111758132">
        <ele>1712.73</ele>
        <time>2022-07-09T08:26:56Z</time>
      </trkpt>
      <trkpt lat="42.6652522199" lon="0.5112754740">
        <ele>1715.61</ele>
        <time>2022-07-09T08:27:09Z</time>
      </trkpt>
      <trkpt lat="42.6653564069" lon="0.5113172159">
        <ele>1718.01</ele>
        <time>2022-07-09T08:27:23Z</time>
      </trkpt>
      <trkpt lat="42.6655061077" lon="0.5112208240">
        <ele>1721.86</ele>
        <time>2022-07-09T08:27:37Z</time>
      </trkpt>
      <trkpt lat="42.6656106301" lon="0.5112331454">
        <ele>1723.30</ele>
        <time>2022-07-09T08:27:51Z</time>
      </trkpt>
      <trkpt lat="42.6657496020" lon="0.5113622267">
        <ele>1725.70</ele>
        <time>2022-07-09T08:28:06Z</time>
      </trkpt>
      <trkpt lat="42.6659439784" lon="0.5114682578">
        <ele>1727.63</ele>
        <time>2022-07-09T08:28:23Z</time>
      </trkpt>
      <trkpt lat="42.6660806034" lon="0.5115250032">
        <ele>1730.03</ele>
        <time>2022-07-09T08:28:36Z</time>
      </trkpt>
      <trkpt lat="42.6662181504" lon="0.5115944892">
        <ele>1732.43</ele>
        <time>2022-07-09T08:28:49Z</time>
      </trkpt>
      <trkpt lat="42.6662938390" lon="0.5116477981">
        <ele>1733.88</ele>
        <time>2022-07-09T08:28:59Z</time>
      </trkpt>
      <trkpt lat="42.6664337330" lon="0.5116670765">
        <ele>1736.76</ele>
        <time>2022-07-09T08:29:13Z</time>
      </trkpt>
      <trkpt lat="42.6666376647" lon="0.5114712752">
        <ele>1738.20</ele>
        <time>2022-07-09T08:29:28Z</time>
      </trkpt>
      <trkpt lat="42.6667464618" lon="0.5113078281">
        <ele>1738.68</ele>
        <time>2022-07-09T08:29:38Z</time>
      </trkpt>
      <trkpt lat="42.6668359805" lon="0.5111097638">
        <ele>1737.72</ele>
        <time>2022-07-09T08:29:51Z</time>
      </trkpt>
      <trkpt lat="42.6668683346" lon="0.5110562034">
        <ele>1737.72</ele>
        <time>2022-07-09T08:29:54Z</time>
      </trkpt>
      <trkpt lat="42.6670140959" lon="0.5108228512">
        <ele>1735.80</ele>
        <time>2022-07-09T08:30:09Z</time>
      </trkpt>
      <trkpt lat="42.6670560893" lon="0.5106477533">
        <ele>1732.43</ele>
        <time>2022-07-09T08:30:20Z</time>
      </trkpt>
      <trkpt lat="42.6672186982" lon="0.5104305781">
        <ele>1732.43</ele>
        <time>2022-07-09T08:30:36Z</time>
      </trkpt>
      <trkpt lat="42.6672627032" lon="0.5103828013">
        <ele>1732.91</ele>
        <time>2022-07-09T08:30:41Z</time>
      </trkpt>
      <trkpt lat="42.6674170978" lon="0.5101751816">
        <ele>1731.47</ele>
        <time>2022-07-09T08:30:57Z</time>
      </trkpt>
      <trkpt lat="42.6674605999" lon="0.5100574996">
        <ele>1731.47</ele>
        <time>2022-07-09T08:31:12Z</time>
      </trkpt>
      <trkpt lat="42.6673772000" lon="0.5100797955">
        <ele>1730.03</ele>
        <time>2022-07-09T08:31:31Z</time>
      </trkpt>
      <trkpt lat="42.6673861686" lon="0.5101069529">
        <ele>1730.03</ele>
        <time>2022-07-09T08:31:52Z</time>
      </trkpt>
      <trkpt lat="42.6674027648" lon="0.5101275723">
        <ele>1730.51</ele>
        <time>2022-07-09T08:32:26Z</time>
      </trkpt>
      <trkpt lat="42.6673950534" lon="0.5101471022">
        <ele>1730.99</ele>
        <time>2022-07-09T08:32:43Z</time>
      </trkpt>
      <trkpt lat="42.6673771162" lon="0.5101408996">
        <ele>1731.47</ele>
        <time>2022-07-09T08:33:04Z</time>
      </trkpt>
      <trkpt lat="42.6673749369" lon="0.5101616867">
        <ele>1731.47</ele>
        <time>2022-07-09T08:33:25Z</time>
      </trkpt>
      <trkpt lat="42.6673686504" lon="0.5101543106">
        <ele>1731.47</ele>
        <time>2022-07-09T08:33:40Z</time>
      </trkpt>
      <trkpt lat="42.6673701592" lon="0.5101630278">
        <ele>1731.47</ele>
        <time>2022-07-09T08:34:02Z</time>
      </trkpt>
      <trkpt lat="42.6673502941" lon="0.5101554003">
        <ele>1731.95</ele>
        <time>2022-07-09T08:34:19Z</time>
      </trkpt>
      <trkpt lat="42.6673610229" lon="0.5101689789">
        <ele>1731.95</ele>
        <time>2022-07-09T08:34:48Z</time>
      </trkpt>
      <trkpt lat="42.6673423313" lon="0.5101607647">
        <ele>1732.43</ele>
        <time>2022-07-09T08:35:13Z</time>
      </trkpt>
      <trkpt lat="42.6673309319" lon="0.5101538077">
        <ele>1732.43</ele>
        <time>2022-07-09T08:35:37Z</time>
      </trkpt>
      <trkpt lat="42.6673293393" lon="0.5101476051">
        <ele>1732.43</ele>
        <time>2022-07-09T08:35:55Z</time>
      </trkpt>
      <trkpt lat="42.6673336141" lon="0.5101658776">
        <ele>1732.43</ele>
        <time>2022-07-09T08:35:57Z</time>
      </trkpt>
      <trkpt lat="42.6673244778" lon="0.5101925321">
        <ele>1737.24</ele>
        <time>2022-07-09T08:35:59Z</time>
      </trkpt>
      <trkpt lat="42.6673204545" lon="0.5101962201">
        <ele>1733.88</ele>
        <time>2022-07-09T08:36:00Z</time>
      </trkpt>
      <trkpt lat="42.6673262380" lon="0.5101796240">
        <ele>1733.88</ele>
        <time>2022-07-09T08:36:01Z</time>
      </trkpt>
      <trkpt lat="42.6673124079" lon="0.5101451743">
        <ele>1732.91</ele>
        <time>2022-07-09T08:36:13Z</time>
      </trkpt>
      <trkpt lat="42.6672888547" lon="0.5101122335">
        <ele>1734.36</ele>
        <time>2022-07-09T08:36:28Z</time>
      </trkpt>
      <trkpt lat="42.6673350390" lon="0.5101234652">
        <ele>1734.36</ele>
        <time>2022-07-09T08:36:43Z</time>
      </trkpt>
      <trkpt lat="42.6673613582" lon="0.5101178493">
        <ele>1734.36</ele>
        <time>2022-07-09T08:36:56Z</time>
      </trkpt>
      <trkpt lat="42.6674015913" lon="0.5101129040">
        <ele>1734.36</ele>
        <time>2022-07-09T08:37:04Z</time>
      </trkpt>
      <trkpt lat="42.6674435847" lon="0.5100652948">
        <ele>1734.36</ele>
        <time>2022-07-09T08:37:09Z</time>
      </trkpt>
      <trkpt lat="42.6675162558" lon="0.5099656340">
        <ele>1734.36</ele>
        <time>2022-07-09T08:37:18Z</time>
      </trkpt>
      <trkpt lat="42.6675494481" lon="0.5098979082">
        <ele>1734.84</ele>
        <time>2022-07-09T08:37:22Z</time>
      </trkpt>
      <trkpt lat="42.6676905155" lon="0.5096659809">
        <ele>1735.80</ele>
        <time>2022-07-09T08:37:38Z</time>
      </trkpt>
      <trkpt lat="42.6677102130" lon="0.5096245743">
        <ele>1736.28</ele>
        <time>2022-07-09T08:37:41Z</time>
      </trkpt>
      <trkpt lat="42.6677446626" lon="0.5095757078">
        <ele>1736.76</ele>
        <time>2022-07-09T08:37:45Z</time>
      </trkpt>
      <trkpt lat="42.6679011527" lon="0.5093688425">
        <ele>1737.24</ele>
        <time>2022-07-09T08:38:01Z</time>
      </trkpt>
      <trkpt lat="42.6680316590" lon="0.5091241747">
        <ele>1738.20</ele>
        <time>2022-07-09T08:38:17Z</time>
      </trkpt>
      <trkpt lat="42.6681491733" lon="0.5089096818">
        <ele>1739.64</ele>
        <time>2022-07-09T08:38:32Z</time>
      </trkpt>
      <trkpt lat="42.6682694536" lon="0.5087056663">
        <ele>1740.12</ele>
        <time>2022-07-09T08:38:46Z</time>
      </trkpt>
      <trkpt lat="42.6682716329" lon="0.5086906627">
        <ele>1740.12</ele>
        <time>2022-07-09T08:38:47Z</time>
      </trkpt>
      <trkpt lat="42.6682711300" lon="0.5086357612">
        <ele>1740.60</ele>
        <time>2022-07-09T08:38:55Z</time>
      </trkpt>
      <trkpt lat="42.6682396978" lon="0.5084102880">
        <ele>1741.57</ele>
        <time>2022-07-09T08:39:09Z</time>
      </trkpt>
      <trkpt lat="42.6682570484" lon="0.5083141476">
        <ele>1742.05</ele>
        <time>2022-07-09T08:39:22Z</time>
      </trkpt>
      <trkpt lat="42.6682219282" lon="0.5083165783">
        <ele>1742.05</ele>
        <time>2022-07-09T08:39:37Z</time>
      </trkpt>
      <trkpt lat="42.6682138816" lon="0.5082206894">
        <ele>1742.53</ele>
        <time>2022-07-09T08:39:51Z</time>
      </trkpt>
      <trkpt lat="42.6683008019" lon="0.5079697352">
        <ele>1743.97</ele>
        <time>2022-07-09T08:40:06Z</time>
      </trkpt>
      <trkpt lat="42.6683110278" lon="0.5079558212">
        <ele>1744.45</ele>
        <time>2022-07-09T08:40:07Z</time>
      </trkpt>
      <trkpt lat="42.6683667675" lon="0.5078753550">
        <ele>1744.45</ele>
        <time>2022-07-09T08:40:13Z</time>
      </trkpt>
      <trkpt lat="42.6683705393" lon="0.5078415759">
        <ele>1744.45</ele>
        <time>2022-07-09T08:40:15Z</time>
      </trkpt>
      <trkpt lat="42.6684014685" lon="0.5077481177">
        <ele>1744.93</ele>
        <time>2022-07-09T08:40:21Z</time>
      </trkpt>
      <trkpt lat="42.6685227547" lon="0.5074910447">
        <ele>1746.85</ele>
        <time>2022-07-09T08:40:38Z</time>
      </trkpt>
      <trkpt lat="42.6686008740" lon="0.5072882026">
        <ele>1748.29</ele>
        <time>2022-07-09T08:40:52Z</time>
      </trkpt>
      <trkpt lat="42.6686121058" lon="0.5071646534">
        <ele>1748.78</ele>
        <time>2022-07-09T08:40:59Z</time>
      </trkpt>
      <trkpt lat="42.6686763950" lon="0.5069834366">
        <ele>1749.74</ele>
        <time>2022-07-09T08:41:12Z</time>
      </trkpt>
      <trkpt lat="42.6687011216" lon="0.5069546029">
        <ele>1750.22</ele>
        <time>2022-07-09T08:41:15Z</time>
      </trkpt>
      <trkpt lat="42.6688088290" lon="0.5069994461">
        <ele>1749.26</ele>
        <time>2022-07-09T08:41:23Z</time>
      </trkpt>
      <trkpt lat="42.6689012814" lon="0.5069623981">
        <ele>1748.78</ele>
        <time>2022-07-09T08:41:30Z</time>
      </trkpt>
      <trkpt lat="42.6691337116" lon="0.5069113523">
        <ele>1750.70</ele>
        <time>2022-07-09T08:41:48Z</time>
      </trkpt>
      <trkpt lat="42.6693326980" lon="0.5069272779">
        <ele>1750.70</ele>
        <time>2022-07-09T08:42:03Z</time>
      </trkpt>
      <trkpt lat="42.6694816444" lon="0.5068166368">
        <ele>1751.18</ele>
        <time>2022-07-09T08:42:16Z</time>
      </trkpt>
      <trkpt lat="42.6696121506" lon="0.5067046545">
        <ele>1751.66</ele>
        <time>2022-07-09T08:42:27Z</time>
      </trkpt>
      <trkpt lat="42.6698017493" lon="0.5065650120">
        <ele>1751.66</ele>
        <time>2022-07-09T08:42:42Z</time>
      </trkpt>
      <trkpt lat="42.6698838919" lon="0.5065109488">
        <ele>1750.22</ele>
        <time>2022-07-09T08:42:48Z</time>
      </trkpt>
      <trkpt lat="42.6700107101" lon="0.5063440651">
        <ele>1750.22</ele>
        <time>2022-07-09T08:43:00Z</time>
      </trkpt>
      <trkpt lat="42.6700795256" lon="0.5062594078">
        <ele>1750.22</ele>
        <time>2022-07-09T08:43:07Z</time>
      </trkpt>
      <trkpt lat="42.6702262927" lon="0.5061143171">
        <ele>1750.22</ele>
        <time>2022-07-09T08:43:21Z</time>
      </trkpt>
      <trkpt lat="42.6702812780" lon="0.5059365369">
        <ele>1750.22</ele>
        <time>2022-07-09T08:43:31Z</time>
      </trkpt>
      <trkpt lat="42.6703818608" lon="0.5057798792">
        <ele>1752.14</ele>
        <time>2022-07-09T08:43:43Z</time>
      </trkpt>
      <trkpt lat="42.6704829466" lon="0.5055824853">
        <ele>1753.58</ele>
        <time>2022-07-09T08:43:56Z</time>
      </trkpt>
      <trkpt lat="42.6705672685" lon="0.5053664837">
        <ele>1754.06</ele>
        <time>2022-07-09T08:44:10Z</time>
      </trkpt>
      <trkpt lat="42.6706468966" lon="0.5052275117">
        <ele>1756.95</ele>
        <time>2022-07-09T08:44:24Z</time>
      </trkpt>
      <trkpt lat="42.6707036421" lon="0.5050908867">
        <ele>1759.83</ele>
        <time>2022-07-09T08:44:37Z</time>
      </trkpt>
      <trkpt lat="42.6707526762" lon="0.5049483944">
        <ele>1762.23</ele>
        <time>2022-07-09T08:44:51Z</time>
      </trkpt>
      <trkpt lat="42.6707759779" lon="0.5048601329">
        <ele>1764.16</ele>
        <time>2022-07-09T08:44:59Z</time>
      </trkpt>
      <trkpt lat="42.6708266884" lon="0.5046840291">
        <ele>1766.56</ele>
        <time>2022-07-09T08:45:13Z</time>
      </trkpt>
      <trkpt lat="42.6708509121" lon="0.5046168063">
        <ele>1769.44</ele>
        <time>2022-07-09T08:45:26Z</time>
      </trkpt>
      <trkpt lat="42.6708556898" lon="0.5046810955">
        <ele>1770.89</ele>
        <time>2022-07-09T08:45:36Z</time>
      </trkpt>
      <trkpt lat="42.6708829310" lon="0.5048278626">
        <ele>1773.29</ele>
        <time>2022-07-09T08:45:49Z</time>
      </trkpt>
      <trkpt lat="42.6709604636" lon="0.5048521701">
        <ele>1775.69</ele>
        <time>2022-07-09T08:46:00Z</time>
      </trkpt>
      <trkpt lat="42.6709964219" lon="0.5047251843">
        <ele>1776.65</ele>
        <time>2022-07-09T08:46:12Z</time>
      </trkpt>
      <trkpt lat="42.6710047200" lon="0.5046862084">
        <ele>1777.61</ele>
        <time>2022-07-09T08:46:15Z</time>
      </trkpt>
      <trkpt lat="42.6710684225" lon="0.5045655090">
        <ele>1778.10</ele>
        <time>2022-07-09T08:46:23Z</time>
      </trkpt>
      <trkpt lat="42.6712088194" lon="0.5043290555">
        <ele>1780.02</ele>
        <time>2022-07-09T08:46:38Z</time>
      </trkpt>
      <trkpt lat="42.6712776348" lon="0.5040978827">
        <ele>1781.46</ele>
        <time>2022-07-09T08:46:52Z</time>
      </trkpt>
      <trkpt lat="42.6712848432" lon="0.5040846393">
        <ele>1781.94</ele>
        <time>2022-07-09T08:46:53Z</time>
      </trkpt>
      <trkpt lat="42.6713037025" lon="0.5038594175">
        <ele>1782.42</ele>
        <time>2022-07-09T08:47:05Z</time>
      </trkpt>
      <trkpt lat="42.6713461149" lon="0.5035673082">
        <ele>1783.86</ele>
        <time>2022-07-09T08:47:20Z</time>
      </trkpt>
      <trkpt lat="42.6713583525" lon="0.5034616962">
        <ele>1784.34</ele>
        <time>2022-07-09T08:47:25Z</time>
      </trkpt>
      <trkpt lat="42.6714017708" lon="0.5032241531">
        <ele>1784.34</ele>
        <time>2022-07-09T08:47:38Z</time>
      </trkpt>
      <trkpt lat="42.6714198757" lon="0.5029824190">
        <ele>1784.82</ele>
        <time>2022-07-09T08:47:50Z</time>
      </trkpt>
      <trkpt lat="42.6714365557" lon="0.5028613005">
        <ele>1784.82</ele>
        <time>2022-07-09T08:47:56Z</time>
      </trkpt>
      <trkpt lat="42.6714642998" lon="0.5026849452">
        <ele>1784.82</ele>
        <time>2022-07-09T08:48:05Z</time>
      </trkpt>
      <trkpt lat="42.6714911219" lon="0.5024651717">
        <ele>1784.82</ele>
        <time>2022-07-09T08:48:17Z</time>
      </trkpt>
      <trkpt lat="42.6714933012" lon="0.5023553688">
        <ele>1785.79</ele>
        <time>2022-07-09T08:48:24Z</time>
      </trkpt>
      <trkpt lat="42.6715644635" lon="0.5021297280">
        <ele>1785.79</ele>
        <time>2022-07-09T08:48:36Z</time>
      </trkpt>
      <trkpt lat="42.6715985779" lon="0.5020147283">
        <ele>1783.86</ele>
        <time>2022-07-09T08:48:42Z</time>
      </trkpt>
      <trkpt lat="42.6716515515" lon="0.5019132234">
        <ele>1782.90</ele>
        <time>2022-07-09T08:48:48Z</time>
      </trkpt>
      <trkpt lat="42.6716592629" lon="0.5018553045">
        <ele>1782.90</ele>
        <time>2022-07-09T08:48:51Z</time>
      </trkpt>
      <trkpt lat="42.6716699079" lon="0.5017672945">
        <ele>1782.90</ele>
        <time>2022-07-09T08:48:55Z</time>
      </trkpt>
      <trkpt lat="42.6717016753" lon="0.5015192740">
        <ele>1784.34</ele>
        <time>2022-07-09T08:49:09Z</time>
      </trkpt>
      <trkpt lat="42.6717451774" lon="0.5013539828">
        <ele>1784.34</ele>
        <time>2022-07-09T08:49:20Z</time>
      </trkpt>
      <trkpt lat="42.6717673056" lon="0.5012123287">
        <ele>1784.34</ele>
        <time>2022-07-09T08:49:27Z</time>
      </trkpt>
      <trkpt lat="42.6717936248" lon="0.5010796431">
        <ele>1783.86</ele>
        <time>2022-07-09T08:49:33Z</time>
      </trkpt>
      <trkpt lat="42.6718178485" lon="0.5008119252">
        <ele>1785.31</ele>
        <time>2022-07-09T08:49:47Z</time>
      </trkpt>
      <trkpt lat="42.6718843170" lon="0.5005755555">
        <ele>1785.79</ele>
        <time>2022-07-09T08:50:00Z</time>
      </trkpt>
      <trkpt lat="42.6718929503" lon="0.5005332269">
        <ele>1784.34</ele>
        <time>2022-07-09T08:50:02Z</time>
      </trkpt>
      <trkpt lat="42.6719455887" lon="0.5002319813">
        <ele>1781.94</ele>
        <time>2022-07-09T08:50:17Z</time>
      </trkpt>
      <trkpt lat="42.6719950419" lon="0.4999626707">
        <ele>1781.94</ele>
        <time>2022-07-09T08:50:30Z</time>
      </trkpt>
      <trkpt lat="42.6720242109" lon="0.4998455755">
        <ele>1781.46</ele>
        <time>2022-07-09T08:50:36Z</time>
      </trkpt>
      <trkpt lat="42.6720763464" lon="0.4995776061">
        <ele>1782.42</ele>
        <time>2022-07-09T08:50:51Z</time>
      </trkpt>
      <trkpt lat="42.6721314155" lon="0.4993283283">
        <ele>1783.38</ele>
        <time>2022-07-09T08:51:04Z</time>
      </trkpt>
      <trkpt lat="42.6721526217" lon="0.4991944693">
        <ele>1782.90</ele>
        <time>2022-07-09T08:51:11Z</time>
      </trkpt>
      <trkpt lat="42.6721792761" lon="0.4991057888">
        <ele>1780.02</ele>
        <time>2022-07-09T08:51:16Z</time>
      </trkpt>
      <trkpt lat="42.6722454932" lon="0.4989389051">
        <ele>1779.54</ele>
        <time>2022-07-09T08:51:26Z</time>
      </trkpt>
      <trkpt lat="42.6722532883" lon="0.4988376517">
        <ele>1779.54</ele>
        <time>2022-07-09T08:51:31Z</time>
      </trkpt>
      <trkpt lat="42.6723205950" lon="0.4985460453">
        <ele>1778.58</ele>
        <time>2022-07-09T08:51:47Z</time>
      </trkpt>
      <trkpt lat="42.6723848004" lon="0.4982877988">
        <ele>1776.65</ele>
        <time>2022-07-09T08:52:01Z</time>
      </trkpt>
      <trkpt lat="42.6723990496" lon="0.4981755652">
        <ele>1776.17</ele>
        <time>2022-07-09T08:52:07Z</time>
      </trkpt>
      <trkpt lat="42.6724194176" lon="0.4981272854">
        <ele>1776.17</ele>
        <time>2022-07-09T08:52:10Z</time>
      </trkpt>
      <trkpt lat="42.6725007221" lon="0.4979287181">
        <ele>1776.17</ele>
        <time>2022-07-09T08:52:23Z</time>
      </trkpt>
      <trkpt lat="42.6725223474" lon="0.4978902452">
        <ele>1776.17</ele>
        <time>2022-07-09T08:52:26Z</time>
      </trkpt>
      <trkpt lat="42.6725326572" lon="0.4978500959">
        <ele>1777.61</ele>
        <time>2022-07-09T08:52:29Z</time>
      </trkpt>
      <trkpt lat="42.6726030651" lon="0.4977288097">
        <ele>1780.02</ele>
        <time>2022-07-09T08:52:41Z</time>
      </trkpt>
      <trkpt lat="42.6726305578" lon="0.4976244550">
        <ele>1780.98</ele>
        <time>2022-07-09T08:52:48Z</time>
      </trkpt>
      <trkpt lat="42.6726426277" lon="0.4974908475">
        <ele>1781.46</ele>
        <time>2022-07-09T08:52:55Z</time>
      </trkpt>
      <trkpt lat="42.6726497523" lon="0.4974498600">
        <ele>1781.46</ele>
        <time>2022-07-09T08:52:57Z</time>
      </trkpt>
      <trkpt lat="42.6726727188" lon="0.4973362852">
        <ele>1781.46</ele>
        <time>2022-07-09T08:53:03Z</time>
      </trkpt>
      <trkpt lat="42.6727691945" lon="0.4971502069">
        <ele>1781.94</ele>
        <time>2022-07-09T08:53:16Z</time>
      </trkpt>
      <trkpt lat="42.6728214975" lon="0.4970192816">
        <ele>1783.38</ele>
        <time>2022-07-09T08:53:27Z</time>
      </trkpt>
      <trkpt lat="42.6728779078" lon="0.4968701676">
        <ele>1785.31</ele>
        <time>2022-07-09T08:53:39Z</time>
      </trkpt>
      <trkpt lat="42.6729174703" lon="0.4967887793">
        <ele>1785.79</ele>
        <time>2022-07-09T08:53:47Z</time>
      </trkpt>
      <trkpt lat="42.6729491539" lon="0.4965504818">
        <ele>1785.79</ele>
        <time>2022-07-09T08:53:59Z</time>
      </trkpt>
      <trkpt lat="42.6729797479" lon="0.4964103363">
        <ele>1785.79</ele>
        <time>2022-07-09T08:54:07Z</time>
      </trkpt>
      <trkpt lat="42.6730296202" lon="0.4961123597">
        <ele>1787.23</ele>
        <time>2022-07-09T08:54:22Z</time>
      </trkpt>
      <trkpt lat="42.6730525866" lon="0.4959463142">
        <ele>1789.15</ele>
        <time>2022-07-09T08:54:35Z</time>
      </trkpt>
      <trkpt lat="42.6730575319" lon="0.4959318135">
        <ele>1789.63</ele>
        <time>2022-07-09T08:54:36Z</time>
      </trkpt>
      <trkpt lat="42.6731106732" lon="0.4956528638">
        <ele>1789.15</ele>
        <time>2022-07-09T08:54:51Z</time>
      </trkpt>
      <trkpt lat="42.6731183007" lon="0.4955029115">
        <ele>1788.19</ele>
        <time>2022-07-09T08:54:58Z</time>
      </trkpt>
      <trkpt lat="42.6731209829" lon="0.4954495188">
        <ele>1788.19</ele>
        <time>2022-07-09T08:55:01Z</time>
      </trkpt>
      <trkpt lat="42.6731440332" lon="0.4953159112">
        <ele>1788.19</ele>
        <time>2022-07-09T08:55:11Z</time>
      </trkpt>
      <trkpt lat="42.6731531695" lon="0.4952838086">
        <ele>1788.19</ele>
        <time>2022-07-09T08:55:13Z</time>
      </trkpt>
      <trkpt lat="42.6732253376" lon="0.4951103032">
        <ele>1791.55</ele>
        <time>2022-07-09T08:55:26Z</time>
      </trkpt>
      <trkpt lat="42.6732286904" lon="0.4950995743">
        <ele>1791.55</ele>
        <time>2022-07-09T08:55:27Z</time>
      </trkpt>
      <trkpt lat="42.6732448675" lon="0.4950538930">
        <ele>1792.03</ele>
        <time>2022-07-09T08:55:30Z</time>
      </trkpt>
      <trkpt lat="42.6732650679" lon="0.4949753545">
        <ele>1792.52</ele>
        <time>2022-07-09T08:55:34Z</time>
      </trkpt>
      <trkpt lat="42.6732784789" lon="0.4947466962">
        <ele>1791.55</ele>
        <time>2022-07-09T08:55:46Z</time>
      </trkpt>
      <trkpt lat="42.6732980926" lon="0.4946435988">
        <ele>1791.55</ele>
        <time>2022-07-09T08:55:52Z</time>
      </trkpt>
      <trkpt lat="42.6733114198" lon="0.4945616238">
        <ele>1791.55</ele>
        <time>2022-07-09T08:55:57Z</time>
      </trkpt>
      <trkpt lat="42.6733120903" lon="0.4944877792">
        <ele>1791.55</ele>
        <time>2022-07-09T08:56:01Z</time>
      </trkpt>
      <trkpt lat="42.6733272616" lon="0.4942586180">
        <ele>1791.55</ele>
        <time>2022-07-09T08:56:14Z</time>
      </trkpt>
      <trkpt lat="42.6733870246" lon="0.4940560274">
        <ele>1793.96</ele>
        <time>2022-07-09T08:56:28Z</time>
      </trkpt>
      <trkpt lat="42.6734066382" lon="0.4938309733">
        <ele>1795.40</ele>
        <time>2022-07-09T08:56:41Z</time>
      </trkpt>
      <trkpt lat="42.6734392438" lon="0.4937484954">
        <ele>1796.36</ele>
        <time>2022-07-09T08:56:48Z</time>
      </trkpt>
      <trkpt lat="42.6735105738" lon="0.4936440568">
        <ele>1799.73</ele>
        <time>2022-07-09T08:57:01Z</time>
      </trkpt>
      <trkpt lat="42.6735414192" lon="0.4935793485">
        <ele>1801.17</ele>
        <time>2022-07-09T08:57:08Z</time>
      </trkpt>
      <trkpt lat="42.6735575963" lon="0.4934091121">
        <ele>1804.53</ele>
        <time>2022-07-09T08:57:21Z</time>
      </trkpt>
      <trkpt lat="42.6735869329" lon="0.4932466708">
        <ele>1806.94</ele>
        <time>2022-07-09T08:57:34Z</time>
      </trkpt>
      <trkpt lat="42.6736200415" lon="0.4930672981">
        <ele>1809.82</ele>
        <time>2022-07-09T08:57:50Z</time>
      </trkpt>
      <trkpt lat="42.6736638788" lon="0.4929070361">
        <ele>1812.70</ele>
        <time>2022-07-09T08:58:04Z</time>
      </trkpt>
      <trkpt lat="42.6736802235" lon="0.4927812237">
        <ele>1814.63</ele>
        <time>2022-07-09T08:58:14Z</time>
      </trkpt>
      <trkpt lat="42.6737039443" lon="0.4926277511">
        <ele>1817.99</ele>
        <time>2022-07-09T08:58:27Z</time>
      </trkpt>
      <trkpt lat="42.6737457700" lon="0.4924915452">
        <ele>1820.87</ele>
        <time>2022-07-09T08:58:41Z</time>
      </trkpt>
      <trkpt lat="42.6737835724" lon="0.4923687503">
        <ele>1824.24</ele>
        <time>2022-07-09T08:58:55Z</time>
      </trkpt>
      <trkpt lat="42.6738174353" lon="0.4922334664">
        <ele>1827.60</ele>
        <time>2022-07-09T08:59:09Z</time>
      </trkpt>
      <trkpt lat="42.6738362946" lon="0.4922614619">
        <ele>1829.53</ele>
        <time>2022-07-09T08:59:18Z</time>
      </trkpt>
      <trkpt lat="42.6738949679" lon="0.4924357217">
        <ele>1831.93</ele>
        <time>2022-07-09T08:59:32Z</time>
      </trkpt>
      <trkpt lat="42.6738775335" lon="0.4926372226">
        <ele>1832.41</ele>
        <time>2022-07-09T08:59:46Z</time>
      </trkpt>
      <trkpt lat="42.6739029307" lon="0.4927867558">
        <ele>1834.33</ele>
        <time>2022-07-09T08:59:59Z</time>
      </trkpt>
      <trkpt lat="42.6739092171" lon="0.4929322656">
        <ele>1836.26</ele>
        <time>2022-07-09T09:00:11Z</time>
      </trkpt>
      <trkpt lat="42.6739574969" lon="0.4929159209">
        <ele>1838.18</ele>
        <time>2022-07-09T09:00:21Z</time>
      </trkpt>
      <trkpt lat="42.6740337722" lon="0.4927911144">
        <ele>1841.06</ele>
        <time>2022-07-09T09:00:33Z</time>
      </trkpt>
      <trkpt lat="42.6740417350" lon="0.4927768651">
        <ele>1841.06</ele>
        <time>2022-07-09T09:00:34Z</time>
      </trkpt>
      <trkpt lat="42.6740988996" lon="0.4925757833">
        <ele>1842.50</ele>
        <time>2022-07-09T09:00:48Z</time>
      </trkpt>
      <trkpt lat="42.6741244644" lon="0.4924824927">
        <ele>1842.98</ele>
        <time>2022-07-09T09:00:55Z</time>
      </trkpt>
      <trkpt lat="42.6741553098" lon="0.4923047125">
        <ele>1846.83</ele>
        <time>2022-07-09T09:01:10Z</time>
      </trkpt>
      <trkpt lat="42.6741735823" lon="0.4922438599">
        <ele>1847.79</ele>
        <time>2022-07-09T09:01:15Z</time>
      </trkpt>
      <trkpt lat="42.6742028352" lon="0.4920962546">
        <ele>1849.71</ele>
        <time>2022-07-09T09:01:24Z</time>
      </trkpt>
      <trkpt lat="42.6742226165" lon="0.4919882957">
        <ele>1849.71</ele>
        <time>2022-07-09T09:01:30Z</time>
      </trkpt>
      <trkpt lat="42.6742487680" lon="0.4918182269">
        <ele>1849.71</ele>
        <time>2022-07-09T09:01:39Z</time>
      </trkpt>
      <trkpt lat="42.6742526237" lon="0.4917800054">
        <ele>1848.27</ele>
        <time>2022-07-09T09:01:41Z</time>
      </trkpt>
      <trkpt lat="42.6742737461" lon="0.4915160593">
        <ele>1848.27</ele>
        <time>2022-07-09T09:01:55Z</time>
      </trkpt>
      <trkpt lat="42.6742869057" lon="0.4912839644">
        <ele>1849.71</ele>
        <time>2022-07-09T09:02:08Z</time>
      </trkpt>
      <trkpt lat="42.6743221097" lon="0.4910146538">
        <ele>1850.19</ele>
        <time>2022-07-09T09:02:23Z</time>
      </trkpt>
      <trkpt lat="42.6744094491" lon="0.4907726683">
        <ele>1850.19</ele>
        <time>2022-07-09T09:02:37Z</time>
      </trkpt>
      <trkpt lat="42.6744528674" lon="0.4906986561">
        <ele>1848.75</ele>
        <time>2022-07-09T09:02:42Z</time>
      </trkpt>
      <trkpt lat="42.6745533664" lon="0.4904293455">
        <ele>1848.75</ele>
        <time>2022-07-09T09:02:57Z</time>
      </trkpt>
      <trkpt lat="42.6746438071" lon="0.4902348015">
        <ele>1848.75</ele>
        <time>2022-07-09T09:03:10Z</time>
      </trkpt>
      <trkpt lat="42.6747511793" lon="0.4900135193">
        <ele>1850.68</ele>
        <time>2022-07-09T09:03:25Z</time>
      </trkpt>
      <trkpt lat="42.6748275384" lon="0.4898627289">
        <ele>1851.16</ele>
        <time>2022-07-09T09:03:35Z</time>
      </trkpt>
      <trkpt lat="42.6748582162" lon="0.4897546023">
        <ele>1851.64</ele>
        <time>2022-07-09T09:03:42Z</time>
      </trkpt>
      <trkpt lat="42.6749247685" lon="0.4896740522">
        <ele>1853.56</ele>
        <time>2022-07-09T09:03:49Z</time>
      </trkpt>
      <trkpt lat="42.6749466453" lon="0.4896088410">
        <ele>1854.04</ele>
        <time>2022-07-09T09:03:54Z</time>
      </trkpt>
      <trkpt lat="42.6749608107" lon="0.4894466512">
        <ele>1854.52</ele>
        <time>2022-07-09T09:04:04Z</time>
      </trkpt>
      <trkpt lat="42.6749573741" lon="0.4893062543">
        <ele>1855.96</ele>
        <time>2022-07-09T09:04:14Z</time>
      </trkpt>
      <trkpt lat="42.6749844477" lon="0.4892579746">
        <ele>1856.44</ele>
        <time>2022-07-09T09:04:18Z</time>
      </trkpt>
      <trkpt lat="42.6750390138" lon="0.4889904242">
        <ele>1858.37</ele>
        <time>2022-07-09T09:04:35Z</time>
      </trkpt>
      <trkpt lat="42.6750788279" lon="0.4888182599">
        <ele>1858.37</ele>
        <time>2022-07-09T09:04:46Z</time>
      </trkpt>
      <trkpt lat="42.6751074102" lon="0.4886672180">
        <ele>1855.96</ele>
        <time>2022-07-09T09:04:55Z</time>
      </trkpt>
      <trkpt lat="42.6750653330" lon="0.4885315988">
        <ele>1855.48</ele>
        <time>2022-07-09T09:05:07Z</time>
      </trkpt>
      <trkpt lat="42.6750538498" lon="0.4885172658">
        <ele>1855.96</ele>
        <time>2022-07-09T09:05:21Z</time>
      </trkpt>
      <trkpt lat="42.6750599686" lon="0.4885154217">
        <ele>1854.52</ele>
        <time>2022-07-09T09:05:37Z</time>
      </trkpt>
      <trkpt lat="42.6750531793" lon="0.4885170143">
        <ele>1855.96</ele>
        <time>2022-07-09T09:05:50Z</time>
      </trkpt>
      <trkpt lat="42.6750569511" lon="0.4884932935">
        <ele>1855.96</ele>
        <time>2022-07-09T09:05:57Z</time>
      </trkpt>
      <trkpt lat="42.6750705298" lon="0.4883539025">
        <ele>1855.96</ele>
        <time>2022-07-09T09:06:05Z</time>
      </trkpt>
      <trkpt lat="42.6750695240" lon="0.4882892780">
        <ele>1854.52</ele>
        <time>2022-07-09T09:06:08Z</time>
      </trkpt>
      <trkpt lat="42.6750884671" lon="0.4879757110">
        <ele>1853.08</ele>
        <time>2022-07-09T09:06:24Z</time>
      </trkpt>
      <trkpt lat="42.6751036383" lon="0.4877046403">
        <ele>1853.08</ele>
        <time>2022-07-09T09:06:39Z</time>
      </trkpt>
      <trkpt lat="42.6751218271" lon="0.4874359164">
        <ele>1852.12</ele>
        <time>2022-07-09T09:06:53Z</time>
      </trkpt>
      <trkpt lat="42.6752371620" lon="0.4871573020">
        <ele>1851.64</ele>
        <time>2022-07-09T09:07:09Z</time>
      </trkpt>
      <trkpt lat="42.6753344759" lon="0.4869061802">
        <ele>1851.64</ele>
        <time>2022-07-09T09:07:25Z</time>
      </trkpt>
      <trkpt lat="42.6753521618" lon="0.4868003167">
        <ele>1851.64</ele>
        <time>2022-07-09T09:07:31Z</time>
      </trkpt>
      <trkpt lat="42.6753593702" lon="0.4867167491">
        <ele>1853.08</ele>
        <time>2022-07-09T09:07:36Z</time>
      </trkpt>
      <trkpt lat="42.6753781457" lon="0.4865812976">
        <ele>1854.04</ele>
        <time>2022-07-09T09:07:44Z</time>
      </trkpt>
      <trkpt lat="42.6753822528" lon="0.4865396395">
        <ele>1854.04</ele>
        <time>2022-07-09T09:07:47Z</time>
      </trkpt>
      <trkpt lat="42.6753358170" lon="0.4863670561">
        <ele>1857.40</ele>
        <time>2022-07-09T09:08:00Z</time>
      </trkpt>
      <trkpt lat="42.6753235795" lon="0.4863602668">
        <ele>1857.40</ele>
        <time>2022-07-09T09:08:01Z</time>
      </trkpt>
      <trkpt lat="42.6751969289" lon="0.4862171039">
        <ele>1859.33</ele>
        <time>2022-07-09T09:08:15Z</time>
      </trkpt>
      <trkpt lat="42.6751408540" lon="0.4860394076">
        <ele>1861.25</ele>
        <time>2022-07-09T09:08:30Z</time>
      </trkpt>
      <trkpt lat="42.6751486491" lon="0.4858881980">
        <ele>1863.65</ele>
        <time>2022-07-09T09:08:43Z</time>
      </trkpt>
      <trkpt lat="42.6751612220" lon="0.4857438616">
        <ele>1867.02</ele>
        <time>2022-07-09T09:08:56Z</time>
      </trkpt>
      <trkpt lat="42.6752011199" lon="0.4855691828">
        <ele>1869.42</ele>
        <time>2022-07-09T09:09:10Z</time>
      </trkpt>
      <trkpt lat="42.6752429456" lon="0.4854176380">
        <ele>1871.82</ele>
        <time>2022-07-09T09:09:23Z</time>
      </trkpt>
      <trkpt lat="42.6752846036" lon="0.4853746388">
        <ele>1872.79</ele>
        <time>2022-07-09T09:09:31Z</time>
      </trkpt>
      <trkpt lat="42.6752990205" lon="0.4854367487">
        <ele>1873.75</ele>
        <time>2022-07-09T09:09:36Z</time>
      </trkpt>
      <trkpt lat="42.6753167901" lon="0.4856408481">
        <ele>1876.15</ele>
        <time>2022-07-09T09:09:50Z</time>
      </trkpt>
      <trkpt lat="42.6753503177" lon="0.4858040437">
        <ele>1879.03</ele>
        <time>2022-07-09T09:10:03Z</time>
      </trkpt>
      <trkpt lat="42.6753674168" lon="0.4858190473">
        <ele>1880.00</ele>
        <time>2022-07-09T09:10:05Z</time>
      </trkpt>
      <trkpt lat="42.6754788123" lon="0.4857419338">
        <ele>1880.96</ele>
        <time>2022-07-09T09:10:20Z</time>
      </trkpt>
      <trkpt lat="42.6754785609" lon="0.4857474659">
        <ele>1881.44</ele>
        <time>2022-07-09T09:10:34Z</time>
      </trkpt>
      <trkpt lat="42.6755048800" lon="0.4856855236">
        <ele>1881.44</ele>
        <time>2022-07-09T09:10:47Z</time>
      </trkpt>
      <trkpt lat="42.6755029522" lon="0.4856527504">
        <ele>1881.92</ele>
        <time>2022-07-09T09:10:55Z</time>
      </trkpt>
      <trkpt lat="42.6755351387" lon="0.4855929874">
        <ele>1882.40</ele>
        <time>2022-07-09T09:11:00Z</time>
      </trkpt>
      <trkpt lat="42.6756187063" lon="0.4854749702">
        <ele>1884.80</ele>
        <time>2022-07-09T09:11:10Z</time>
      </trkpt>
      <trkpt lat="42.6756254956" lon="0.4852438811">
        <ele>1887.69</ele>
        <time>2022-07-09T09:11:26Z</time>
      </trkpt>
      <trkpt lat="42.6756234001" lon="0.4852325656">
        <ele>1887.69</ele>
        <time>2022-07-09T09:11:28Z</time>
      </trkpt>
      <trkpt lat="42.6756105758" lon="0.4853172228">
        <ele>1887.69</ele>
        <time>2022-07-09T09:11:33Z</time>
      </trkpt>
      <trkpt lat="42.6756328717" lon="0.4853872955">
        <ele>1887.69</ele>
        <time>2022-07-09T09:11:40Z</time>
      </trkpt>
      <trkpt lat="42.6756938081" lon="0.4853749741">
        <ele>1889.61</ele>
        <time>2022-07-09T09:11:51Z</time>
      </trkpt>
      <trkpt lat="42.6756285969" lon="0.4853805061">
        <ele>1887.69</ele>
        <time>2022-07-09T09:11:57Z</time>
      </trkpt>
      <trkpt lat="42.6755902916" lon="0.4854347371">
        <ele>1885.76</ele>
        <time>2022-07-09T09:12:02Z</time>
      </trkpt>
      <trkpt lat="42.6755189616" lon="0.4854076635">
        <ele>1884.32</ele>
        <time>2022-07-09T09:12:08Z</time>
      </trkpt>
      <trkpt lat="42.6754788123" lon="0.4853822663">
        <ele>1884.32</ele>
        <time>2022-07-09T09:12:12Z</time>
      </trkpt>
      <trkpt lat="42.6754669938" lon="0.4853791650">
        <ele>1884.32</ele>
        <time>2022-07-09T09:12:13Z</time>
      </trkpt>
      <trkpt lat="42.6755013596" lon="0.4851180688">
        <ele>1884.32</ele>
        <time>2022-07-09T09:12:29Z</time>
      </trkpt>
      <trkpt lat="42.6754502300" lon="0.4847803619">
        <ele>1882.40</ele>
        <time>2022-07-09T09:12:47Z</time>
      </trkpt>
      <trkpt lat="42.6754304487" lon="0.4846543819">
        <ele>1882.40</ele>
        <time>2022-07-09T09:12:54Z</time>
      </trkpt>
      <trkpt lat="42.6754553430" lon="0.4843531363">
        <ele>1885.28</ele>
        <time>2022-07-09T09:13:11Z</time>
      </trkpt>
      <trkpt lat="42.6754768007" lon="0.4841278307">
        <ele>1885.76</ele>
        <time>2022-07-09T09:13:23Z</time>
      </trkpt>
      <trkpt lat="42.6755016111" lon="0.4838956520">
        <ele>1888.17</ele>
        <time>2022-07-09T09:13:37Z</time>
      </trkpt>
      <trkpt lat="42.6754989289" lon="0.4838221427">
        <ele>1888.65</ele>
        <time>2022-07-09T09:13:41Z</time>
      </trkpt>
      <trkpt lat="42.6755033713" lon="0.4837083165">
        <ele>1888.65</ele>
        <time>2022-07-09T09:13:47Z</time>
      </trkpt>
      <trkpt lat="42.6755110826" lon="0.4836622160">
        <ele>1888.65</ele>
        <time>2022-07-09T09:13:50Z</time>
      </trkpt>
      <trkpt lat="42.6755288523" lon="0.4835572746">
        <ele>1888.65</ele>
        <time>2022-07-09T09:13:58Z</time>
      </trkpt>
      <trkpt lat="42.6755601168" lon="0.4835076537">
        <ele>1888.65</ele>
        <time>2022-07-09T09:14:02Z</time>
      </trkpt>
      <trkpt lat="42.6756125037" lon="0.4833342321">
        <ele>1890.57</ele>
        <time>2022-07-09T09:14:15Z</time>
      </trkpt>
      <trkpt lat="42.6756197121" lon="0.4833068233">
        <ele>1890.57</ele>
        <time>2022-07-09T09:14:17Z</time>
      </trkpt>
      <trkpt lat="42.6756643038" lon="0.4832347389">
        <ele>1891.05</ele>
        <time>2022-07-09T09:14:25Z</time>
      </trkpt>
      <trkpt lat="42.6757001784" lon="0.4830495827">
        <ele>1893.45</ele>
        <time>2022-07-09T09:14:39Z</time>
      </trkpt>
      <trkpt lat="42.6757102367" lon="0.4829262011">
        <ele>1893.45</ele>
        <time>2022-07-09T09:14:46Z</time>
      </trkpt>
      <trkpt lat="42.6757794712" lon="0.4827361833">
        <ele>1896.82</ele>
        <time>2022-07-09T09:15:02Z</time>
      </trkpt>
      <trkpt lat="42.6757804770" lon="0.4827243648">
        <ele>1896.82</ele>
        <time>2022-07-09T09:15:03Z</time>
      </trkpt>
      <trkpt lat="42.6757684909" lon="0.4827020690">
        <ele>1897.30</ele>
        <time>2022-07-09T09:15:05Z</time>
      </trkpt>
      <trkpt lat="42.6757834107" lon="0.4825102072">
        <ele>1897.78</ele>
        <time>2022-07-09T09:15:18Z</time>
      </trkpt>
      <trkpt lat="42.6757872663" lon="0.4824208561">
        <ele>1896.34</ele>
        <time>2022-07-09T09:15:24Z</time>
      </trkpt>
      <trkpt lat="42.6758012641" lon="0.4823709000">
        <ele>1896.34</ele>
        <time>2022-07-09T09:15:26Z</time>
      </trkpt>
      <trkpt lat="42.6758235600" lon="0.4822680540">
        <ele>1895.86</ele>
        <time>2022-07-09T09:15:32Z</time>
      </trkpt>
      <trkpt lat="42.6758206263" lon="0.4822408967">
        <ele>1896.34</ele>
        <time>2022-07-09T09:15:33Z</time>
      </trkpt>
      <trkpt lat="42.6758295950" lon="0.4820816405">
        <ele>1896.34</ele>
        <time>2022-07-09T09:15:42Z</time>
      </trkpt>
      <trkpt lat="42.6758439280" lon="0.4820037726">
        <ele>1897.30</ele>
        <time>2022-07-09T09:15:47Z</time>
      </trkpt>
      <trkpt lat="42.6758510526" lon="0.4819924571">
        <ele>1897.30</ele>
        <time>2022-07-09T09:15:48Z</time>
      </trkpt>
      <trkpt lat="42.6758445147" lon="0.4819459375">
        <ele>1898.74</ele>
        <time>2022-07-09T09:15:51Z</time>
      </trkpt>
      <trkpt lat="42.6758409105" lon="0.4819263238">
        <ele>1898.74</ele>
        <time>2022-07-09T09:15:52Z</time>
      </trkpt>
      <trkpt lat="42.6758498792" lon="0.4817189556">
        <ele>1898.74</ele>
        <time>2022-07-09T09:16:07Z</time>
      </trkpt>
      <trkpt lat="42.6758573391" lon="0.4817091487">
        <ele>1898.74</ele>
        <time>2022-07-09T09:16:08Z</time>
      </trkpt>
      <trkpt lat="42.6758518908" lon="0.4814283550">
        <ele>1899.22</ele>
        <time>2022-07-09T09:16:24Z</time>
      </trkpt>
      <trkpt lat="42.6758627035" lon="0.4813266825">
        <ele>1900.18</ele>
        <time>2022-07-09T09:16:31Z</time>
      </trkpt>
      <trkpt lat="42.6758854184" lon="0.4811375868">
        <ele>1902.59</ele>
        <time>2022-07-09T09:16:46Z</time>
      </trkpt>
      <trkpt lat="42.6759211253" lon="0.4809013847">
        <ele>1904.03</ele>
        <time>2022-07-09T09:17:01Z</time>
      </trkpt>
      <trkpt lat="42.6759242266" lon="0.4808888957">
        <ele>1904.03</ele>
        <time>2022-07-09T09:17:02Z</time>
      </trkpt>
      <trkpt lat="42.6759276632" lon="0.4808092676">
        <ele>1904.99</ele>
        <time>2022-07-09T09:17:08Z</time>
      </trkpt>
      <trkpt lat="42.6759607717" lon="0.4807275441">
        <ele>1905.47</ele>
        <time>2022-07-09T09:17:14Z</time>
      </trkpt>
      <trkpt lat="42.6759862527" lon="0.4805299826">
        <ele>1907.39</ele>
        <time>2022-07-09T09:17:28Z</time>
      </trkpt>
      <trkpt lat="42.6759975683" lon="0.4803501908">
        <ele>1907.87</ele>
        <time>2022-07-09T09:17:42Z</time>
      </trkpt>
      <trkpt lat="42.6760009211" lon="0.4802784417">
        <ele>1908.35</ele>
        <time>2022-07-09T09:17:47Z</time>
      </trkpt>
      <trkpt lat="42.6760474406" lon="0.4801864922">
        <ele>1909.80</ele>
        <time>2022-07-09T09:17:57Z</time>
      </trkpt>
      <trkpt lat="42.6760304254" lon="0.4801243823">
        <ele>1909.32</ele>
        <time>2022-07-09T09:18:01Z</time>
      </trkpt>
      <trkpt lat="42.6760482788" lon="0.4800283257">
        <ele>1910.28</ele>
        <time>2022-07-09T09:18:08Z</time>
      </trkpt>
      <trkpt lat="42.6760323532" lon="0.4798856657">
        <ele>1909.32</ele>
        <time>2022-07-09T09:18:20Z</time>
      </trkpt>
      <trkpt lat="42.6760148350" lon="0.4797548242">
        <ele>1906.43</ele>
        <time>2022-07-09T09:18:30Z</time>
      </trkpt>
      <trkpt lat="42.6760208700" lon="0.4796220548">
        <ele>1905.95</ele>
        <time>2022-07-09T09:18:39Z</time>
      </trkpt>
      <trkpt lat="42.6759768650" lon="0.4794903751">
        <ele>1903.55</ele>
        <time>2022-07-09T09:18:49Z</time>
      </trkpt>
      <trkpt lat="42.6759701595" lon="0.4793322925">
        <ele>1903.07</ele>
        <time>2022-07-09T09:18:59Z</time>
      </trkpt>
      <trkpt lat="42.6759750210" lon="0.4791263491">
        <ele>1902.11</ele>
        <time>2022-07-09T09:19:13Z</time>
      </trkpt>
      <trkpt lat="42.6759569161" lon="0.4790786561">
        <ele>1901.14</ele>
        <time>2022-07-09T09:19:16Z</time>
      </trkpt>
      <trkpt lat="42.6759415772" lon="0.4788688570">
        <ele>1899.22</ele>
        <time>2022-07-09T09:19:30Z</time>
      </trkpt>
      <trkpt lat="42.6759911142" lon="0.4787392728">
        <ele>1900.18</ele>
        <time>2022-07-09T09:19:40Z</time>
      </trkpt>
      <trkpt lat="42.6759644598" lon="0.4786504246">
        <ele>1899.22</ele>
        <time>2022-07-09T09:19:47Z</time>
      </trkpt>
      <trkpt lat="42.6759714168" lon="0.4785923380">
        <ele>1898.74</ele>
        <time>2022-07-09T09:19:50Z</time>
      </trkpt>
      <trkpt lat="42.6760226302" lon="0.4783836287">
        <ele>1898.74</ele>
        <time>2022-07-09T09:20:05Z</time>
      </trkpt>
      <trkpt lat="42.6760474406" lon="0.4781905934">
        <ele>1899.70</ele>
        <time>2022-07-09T09:20:20Z</time>
      </trkpt>
      <trkpt lat="42.6760499552" lon="0.4779718257">
        <ele>1898.26</ele>
        <time>2022-07-09T09:20:32Z</time>
      </trkpt>
      <trkpt lat="42.6760710776" lon="0.4778243881">
        <ele>1898.74</ele>
        <time>2022-07-09T09:20:43Z</time>
      </trkpt>
      <trkpt lat="42.6761098858" lon="0.4776409082">
        <ele>1900.18</ele>
        <time>2022-07-09T09:20:56Z</time>
      </trkpt>
      <trkpt lat="42.6761057787" lon="0.4776261561">
        <ele>1898.74</ele>
        <time>2022-07-09T09:20:57Z</time>
      </trkpt>
      <trkpt lat="42.6761053596" lon="0.4775639623">
        <ele>1898.26</ele>
        <time>2022-07-09T09:21:01Z</time>
      </trkpt>
      <trkpt lat="42.6761507057" lon="0.4773794767">
        <ele>1899.22</ele>
        <time>2022-07-09T09:21:16Z</time>
      </trkpt>
      <trkpt lat="42.6761516277" lon="0.4773460329">
        <ele>1899.22</ele>
        <time>2022-07-09T09:21:18Z</time>
      </trkpt>
      <trkpt lat="42.6761487778" lon="0.4772564303">
        <ele>1898.26</ele>
        <time>2022-07-09T09:21:23Z</time>
      </trkpt>
      <trkpt lat="42.6761653740" lon="0.4770959169">
        <ele>1899.70</ele>
        <time>2022-07-09T09:21:31Z</time>
      </trkpt>
      <trkpt lat="42.6761666313" lon="0.4769193940">
        <ele>1900.18</ele>
        <time>2022-07-09T09:21:44Z</time>
      </trkpt>
      <trkpt lat="42.6761982311" lon="0.4767760634">
        <ele>1901.14</ele>
        <time>2022-07-09T09:21:55Z</time>
      </trkpt>
      <trkpt lat="42.6762258075" lon="0.4765712097">
        <ele>1901.14</ele>
        <time>2022-07-09T09:22:09Z</time>
      </trkpt>
      <trkpt lat="42.6762362011" lon="0.4763917532">
        <ele>1901.63</ele>
        <time>2022-07-09T09:22:22Z</time>
      </trkpt>
      <trkpt lat="42.6762361173" lon="0.4763371870">
        <ele>1900.18</ele>
        <time>2022-07-09T09:22:25Z</time>
      </trkpt>
      <trkpt lat="42.6762482710" lon="0.4762130510">
        <ele>1901.63</ele>
        <time>2022-07-09T09:22:33Z</time>
      </trkpt>
      <trkpt lat="42.6762431581" lon="0.4761008173">
        <ele>1902.11</ele>
        <time>2022-07-09T09:22:39Z</time>
      </trkpt>
      <trkpt lat="42.6762701478" lon="0.4759681318">
        <ele>1902.59</ele>
        <time>2022-07-09T09:22:49Z</time>
      </trkpt>
      <trkpt lat="42.6762954611" lon="0.4758133180">
        <ele>1904.03</ele>
        <time>2022-07-09T09:22:58Z</time>
      </trkpt>
      <trkpt lat="42.6763019152" lon="0.4756052792">
        <ele>1902.59</ele>
        <time>2022-07-09T09:23:10Z</time>
      </trkpt>
      <trkpt lat="42.6763046812" lon="0.4755925387">
        <ele>1902.59</ele>
        <time>2022-07-09T09:23:11Z</time>
      </trkpt>
      <trkpt lat="42.6763187628" lon="0.4755177721">
        <ele>1902.59</ele>
        <time>2022-07-09T09:23:15Z</time>
      </trkpt>
      <trkpt lat="42.6763518713" lon="0.4754617810">
        <ele>1904.03</ele>
        <time>2022-07-09T09:23:21Z</time>
      </trkpt>
      <trkpt lat="42.6763600856" lon="0.4753928818">
        <ele>1904.51</ele>
        <time>2022-07-09T09:23:26Z</time>
      </trkpt>
      <trkpt lat="42.6764004026" lon="0.4751126748">
        <ele>1902.59</ele>
        <time>2022-07-09T09:23:41Z</time>
      </trkpt>
      <trkpt lat="42.6764234528" lon="0.4750763811">
        <ele>1902.59</ele>
        <time>2022-07-09T09:23:44Z</time>
      </trkpt>
      <trkpt lat="42.6765067689" lon="0.4748158716">
        <ele>1902.59</ele>
        <time>2022-07-09T09:24:01Z</time>
      </trkpt>
      <trkpt lat="42.6765232813" lon="0.4747685138">
        <ele>1903.55</ele>
        <time>2022-07-09T09:24:05Z</time>
      </trkpt>
      <trkpt lat="42.6766079385" lon="0.4745691922">
        <ele>1902.59</ele>
        <time>2022-07-09T09:24:18Z</time>
      </trkpt>
      <trkpt lat="42.6766248699" lon="0.4745472316">
        <ele>1903.07</ele>
        <time>2022-07-09T09:24:20Z</time>
      </trkpt>
      <trkpt lat="42.6766893268" lon="0.4743474908">
        <ele>1903.55</ele>
        <time>2022-07-09T09:24:32Z</time>
      </trkpt>
      <trkpt lat="42.6767386124" lon="0.4741915036">
        <ele>1901.14</ele>
        <time>2022-07-09T09:24:41Z</time>
      </trkpt>
      <trkpt lat="42.6767753251" lon="0.4741044994">
        <ele>1901.14</ele>
        <time>2022-07-09T09:24:47Z</time>
      </trkpt>
      <trkpt lat="42.6768312324" lon="0.4739693832">
        <ele>1901.14</ele>
        <time>2022-07-09T09:24:56Z</time>
      </trkpt>
      <trkpt lat="42.6768635027" lon="0.4739205167">
        <ele>1901.14</ele>
        <time>2022-07-09T09:25:00Z</time>
      </trkpt>
      <trkpt lat="42.6768793445" lon="0.4738420621">
        <ele>1902.59</ele>
        <time>2022-07-09T09:25:05Z</time>
      </trkpt>
      <trkpt lat="42.6768943481" lon="0.4738165811">
        <ele>1902.59</ele>
        <time>2022-07-09T09:25:07Z</time>
      </trkpt>
      <trkpt lat="42.6769541949" lon="0.4737161659">
        <ele>1903.55</ele>
        <time>2022-07-09T09:25:18Z</time>
      </trkpt>
      <trkpt lat="42.6769850403" lon="0.4736518767">
        <ele>1902.11</ele>
        <time>2022-07-09T09:25:23Z</time>
      </trkpt>
      <trkpt lat="42.6769941766" lon="0.4735971428">
        <ele>1902.11</ele>
        <time>2022-07-09T09:25:28Z</time>
      </trkpt>
      <trkpt lat="42.6769851241" lon="0.4735505395">
        <ele>1901.63</ele>
        <time>2022-07-09T09:25:31Z</time>
      </trkpt>
      <trkpt lat="42.6770128682" lon="0.4733774532">
        <ele>1901.63</ele>
        <time>2022-07-09T09:25:43Z</time>
      </trkpt>
      <trkpt lat="42.6770517603" lon="0.4731694143">
        <ele>1900.66</ele>
        <time>2022-07-09T09:25:56Z</time>
      </trkpt>
      <trkpt lat="42.6771239284" lon="0.4729243275">
        <ele>1899.70</ele>
        <time>2022-07-09T09:26:11Z</time>
      </trkpt>
      <trkpt lat="42.6771256048" lon="0.4728718568">
        <ele>1897.78</ele>
        <time>2022-07-09T09:26:14Z</time>
      </trkpt>
      <trkpt lat="42.6771820150" lon="0.4727457091">
        <ele>1896.82</ele>
        <time>2022-07-09T09:26:22Z</time>
      </trkpt>
      <trkpt lat="42.6772278640" lon="0.4726203158">
        <ele>1896.82</ele>
        <time>2022-07-09T09:26:30Z</time>
      </trkpt>
      <trkpt lat="42.6772395149" lon="0.4725354910">
        <ele>1895.38</ele>
        <time>2022-07-09T09:26:35Z</time>
      </trkpt>
      <trkpt lat="42.6772778202" lon="0.4724341538">
        <ele>1896.82</ele>
        <time>2022-07-09T09:26:41Z</time>
      </trkpt>
      <trkpt lat="42.6773186401" lon="0.4723928310">
        <ele>1898.26</ele>
        <time>2022-07-09T09:26:45Z</time>
      </trkpt>
      <trkpt lat="42.6773314644" lon="0.4723655898">
        <ele>1897.30</ele>
        <time>2022-07-09T09:26:47Z</time>
      </trkpt>
      <trkpt lat="42.6773507427" lon="0.4723375104">
        <ele>1897.30</ele>
        <time>2022-07-09T09:26:49Z</time>
      </trkpt>
      <trkpt lat="42.6773841027" lon="0.4721835349">
        <ele>1896.82</ele>
        <time>2022-07-09T09:26:58Z</time>
      </trkpt>
      <trkpt lat="42.6774356514" lon="0.4720825329">
        <ele>1895.38</ele>
        <time>2022-07-09T09:27:05Z</time>
      </trkpt>
      <trkpt lat="42.6775390003" lon="0.4719335865">
        <ele>1896.82</ele>
        <time>2022-07-09T09:27:17Z</time>
      </trkpt>
      <trkpt lat="42.6775752101" lon="0.4718999751">
        <ele>1896.82</ele>
        <time>2022-07-09T09:27:20Z</time>
      </trkpt>
      <trkpt lat="42.6775938179" lon="0.4718350992">
        <ele>1895.38</ele>
        <time>2022-07-09T09:27:24Z</time>
      </trkpt>
      <trkpt lat="42.6776064746" lon="0.4717993923">
        <ele>1895.38</ele>
        <time>2022-07-09T09:27:26Z</time>
      </trkpt>
      <trkpt lat="42.6776764635" lon="0.4715846479">
        <ele>1894.42</ele>
        <time>2022-07-09T09:27:39Z</time>
      </trkpt>
      <trkpt lat="42.6776857674" lon="0.4715097975">
        <ele>1895.86</ele>
        <time>2022-07-09T09:27:43Z</time>
      </trkpt>
      <trkpt lat="42.6776940655" lon="0.4714336060">
        <ele>1894.42</ele>
        <time>2022-07-09T09:27:47Z</time>
      </trkpt>
      <trkpt lat="42.6777023636" lon="0.4713940434">
        <ele>1895.86</ele>
        <time>2022-07-09T09:27:49Z</time>
      </trkpt>
      <trkpt lat="42.6777767111" lon="0.4711092263">
        <ele>1893.93</ele>
        <time>2022-07-09T09:28:05Z</time>
      </trkpt>
      <trkpt lat="42.6777942292" lon="0.4710591026">
        <ele>1893.93</ele>
        <time>2022-07-09T09:28:09Z</time>
      </trkpt>
      <trkpt lat="42.6777985878" lon="0.4710254911">
        <ele>1893.93</ele>
        <time>2022-07-09T09:28:11Z</time>
      </trkpt>
      <trkpt lat="42.6778296009" lon="0.4709296022">
        <ele>1895.38</ele>
        <time>2022-07-09T09:28:17Z</time>
      </trkpt>
      <trkpt lat="42.6778714266" lon="0.4708581883">
        <ele>1895.38</ele>
        <time>2022-07-09T09:28:22Z</time>
      </trkpt>
      <trkpt lat="42.6779687405" lon="0.4706569389">
        <ele>1895.38</ele>
        <time>2022-07-09T09:28:37Z</time>
      </trkpt>
      <trkpt lat="42.6779755298" lon="0.4706395883">
        <ele>1895.38</ele>
        <time>2022-07-09T09:28:38Z</time>
      </trkpt>
      <trkpt lat="42.6779968198" lon="0.4705861118">
        <ele>1895.38</ele>
        <time>2022-07-09T09:28:42Z</time>
      </trkpt>
      <trkpt lat="42.6780852489" lon="0.4704808351">
        <ele>1897.30</ele>
        <time>2022-07-09T09:28:53Z</time>
      </trkpt>
      <trkpt lat="42.6781345345" lon="0.4704339802">
        <ele>1899.22</ele>
        <time>2022-07-09T09:29:01Z</time>
      </trkpt>
      <trkpt lat="42.6782429125" lon="0.4702617321">
        <ele>1899.22</ele>
        <time>2022-07-09T09:29:16Z</time>
      </trkpt>
      <trkpt lat="42.6782520488" lon="0.4702264443">
        <ele>1899.70</ele>
        <time>2022-07-09T09:29:19Z</time>
      </trkpt>
      <trkpt lat="42.6782740094" lon="0.4701882228">
        <ele>1900.66</ele>
        <time>2022-07-09T09:29:23Z</time>
      </trkpt>
      <trkpt lat="42.6782988198" lon="0.4701494984">
        <ele>1900.66</ele>
        <time>2022-07-09T09:29:26Z</time>
      </trkpt>
      <trkpt lat="42.6783887576" lon="0.4699669406">
        <ele>1902.59</ele>
        <time>2022-07-09T09:29:40Z</time>
      </trkpt>
      <trkpt lat="42.6784467604" lon="0.4698438942">
        <ele>1904.99</ele>
        <time>2022-07-09T09:29:52Z</time>
      </trkpt>
      <trkpt lat="42.6784869097" lon="0.4697635118">
        <ele>1907.39</ele>
        <time>2022-07-09T09:30:02Z</time>
      </trkpt>
      <trkpt lat="42.6784961298" lon="0.4697475862">
        <ele>1907.39</ele>
        <time>2022-07-09T09:30:04Z</time>
      </trkpt>
      <trkpt lat="42.6785103790" lon="0.4697112087">
        <ele>1908.83</ele>
        <time>2022-07-09T09:30:07Z</time>
      </trkpt>
      <trkpt lat="42.6785170846" lon="0.4696176667">
        <ele>1907.39</ele>
        <time>2022-07-09T09:30:22Z</time>
      </trkpt>
      <trkpt lat="42.6784994826" lon="0.4695926886">
        <ele>1907.39</ele>
        <time>2022-07-09T09:30:37Z</time>
      </trkpt>
      <trkpt lat="42.6785046794" lon="0.4695770144">
        <ele>1908.35</ele>
        <time>2022-07-09T09:31:05Z</time>
      </trkpt>
      <trkpt lat="42.6784818806" lon="0.4695739131">
        <ele>1908.35</ele>
        <time>2022-07-09T09:31:22Z</time>
      </trkpt>
      <trkpt lat="42.6784773543" lon="0.4696006514">
        <ele>1908.35</ele>
        <time>2022-07-09T09:31:44Z</time>
      </trkpt>
      <trkpt lat="42.6784901787" lon="0.4695925210">
        <ele>1908.35</ele>
        <time>2022-07-09T09:31:46Z</time>
      </trkpt>
      <trkpt lat="42.6784879994" lon="0.4694532137">
        <ele>1908.83</ele>
        <time>2022-07-09T09:31:58Z</time>
      </trkpt>
      <trkpt lat="42.6784883346" lon="0.4694293253">
        <ele>1908.83</ele>
        <time>2022-07-09T09:32:00Z</time>
      </trkpt>
      <trkpt lat="42.6785009913" lon="0.4693167564">
        <ele>1909.80</ele>
        <time>2022-07-09T09:32:08Z</time>
      </trkpt>
      <trkpt lat="42.6785882469" lon="0.4691822268">
        <ele>1912.20</ele>
        <time>2022-07-09T09:32:22Z</time>
      </trkpt>
      <trkpt lat="42.6786162425" lon="0.4691325221">
        <ele>1912.68</ele>
        <time>2022-07-09T09:32:26Z</time>
      </trkpt>
      <trkpt lat="42.6786546316" lon="0.4690772016">
        <ele>1913.64</ele>
        <time>2022-07-09T09:32:31Z</time>
      </trkpt>
      <trkpt lat="42.6786829624" lon="0.4690084700">
        <ele>1914.12</ele>
        <time>2022-07-09T09:32:37Z</time>
      </trkpt>
      <trkpt lat="42.6786616724" lon="0.4689054564">
        <ele>1914.60</ele>
        <time>2022-07-09T09:32:45Z</time>
      </trkpt>
      <trkpt lat="42.6786392089" lon="0.4688557517">
        <ele>1916.04</ele>
        <time>2022-07-09T09:32:51Z</time>
      </trkpt>
      <trkpt lat="42.6787287276" lon="0.4687038716">
        <ele>1918.93</ele>
        <time>2022-07-09T09:33:07Z</time>
      </trkpt>
      <trkpt lat="42.6787433960" lon="0.4686800670">
        <ele>1918.93</ele>
        <time>2022-07-09T09:33:09Z</time>
      </trkpt>
      <trkpt lat="42.6787639316" lon="0.4686622974">
        <ele>1919.41</ele>
        <time>2022-07-09T09:33:11Z</time>
      </trkpt>
      <trkpt lat="42.6787915081" lon="0.4685913865">
        <ele>1920.37</ele>
        <time>2022-07-09T09:33:18Z</time>
      </trkpt>
      <trkpt lat="42.6788123790" lon="0.4685330484">
        <ele>1922.29</ele>
        <time>2022-07-09T09:33:23Z</time>
      </trkpt>
      <trkpt lat="42.6788775064" lon="0.4683829285">
        <ele>1923.25</ele>
        <time>2022-07-09T09:33:35Z</time>
      </trkpt>
      <trkpt lat="42.6788830385" lon="0.4683740437">
        <ele>1923.25</ele>
        <time>2022-07-09T09:33:36Z</time>
      </trkpt>
      <trkpt lat="42.6788910851" lon="0.4682390112">
        <ele>1923.25</ele>
        <time>2022-07-09T09:33:44Z</time>
      </trkpt>
      <trkpt lat="42.6788754109" lon="0.4681862053">
        <ele>1923.25</ele>
        <time>2022-07-09T09:33:47Z</time>
      </trkpt>
      <trkpt lat="42.6788370218" lon="0.4681427032">
        <ele>1923.25</ele>
        <time>2022-07-09T09:33:52Z</time>
      </trkpt>
      <trkpt lat="42.6788029075" lon="0.4681256041">
        <ele>1923.74</ele>
        <time>2022-07-09T09:33:55Z</time>
      </trkpt>
      <trkpt lat="42.6788512710" lon="0.4679985344">
        <ele>1927.10</ele>
        <time>2022-07-09T09:34:08Z</time>
      </trkpt>
      <trkpt lat="42.6789138000" lon="0.4678984545">
        <ele>1930.46</ele>
        <time>2022-07-09T09:34:21Z</time>
      </trkpt>
      <trkpt lat="42.6789991278" lon="0.4678764101">
        <ele>1932.87</ele>
        <time>2022-07-09T09:34:34Z</time>
      </trkpt>
      <trkpt lat="42.6790581364" lon="0.4678075947">
        <ele>1936.23</ele>
        <time>2022-07-09T09:34:49Z</time>
      </trkpt>
      <trkpt lat="42.6790873893" lon="0.4677218478">
        <ele>1939.60</ele>
        <time>2022-07-09T09:35:04Z</time>
      </trkpt>
      <trkpt lat="42.6791466493" lon="0.4676365200">
        <ele>1942.96</ele>
        <time>2022-07-09T09:35:18Z</time>
      </trkpt>
      <trkpt lat="42.6791484933" lon="0.4676148109">
        <ele>1944.40</ele>
        <time>2022-07-09T09:35:33Z</time>
      </trkpt>
      <trkpt lat="42.6791347470" lon="0.4675957002">
        <ele>1944.40</ele>
        <time>2022-07-09T09:35:52Z</time>
      </trkpt>
      <trkpt lat="42.6791235991" lon="0.4675981309">
        <ele>1944.40</ele>
        <time>2022-07-09T09:36:11Z</time>
      </trkpt>
      <trkpt lat="42.6792024728" lon="0.4675769247">
        <ele>1946.33</ele>
        <time>2022-07-09T09:36:28Z</time>
      </trkpt>
      <trkpt lat="42.6791919116" lon="0.4674711451">
        <ele>1949.21</ele>
        <time>2022-07-09T09:36:40Z</time>
      </trkpt>
      <trkpt lat="42.6791852061" lon="0.4674319178">
        <ele>1949.21</ele>
        <time>2022-07-09T09:36:44Z</time>
      </trkpt>
      <trkpt lat="42.6791384351" lon="0.4673607554">
        <ele>1953.06</ele>
        <time>2022-07-09T09:36:58Z</time>
      </trkpt>
      <trkpt lat="42.6791543607" lon="0.4673087038">
        <ele>1954.98</ele>
        <time>2022-07-09T09:37:06Z</time>
      </trkpt>
      <trkpt lat="42.6791635808" lon="0.4672688898">
        <ele>1955.46</ele>
        <time>2022-07-09T09:37:11Z</time>
      </trkpt>
      <trkpt lat="42.6791883912" lon="0.4671780299">
        <ele>1958.82</ele>
        <time>2022-07-09T09:37:23Z</time>
      </trkpt>
      <trkpt lat="42.6792806759" lon="0.4670202825">
        <ele>1959.30</ele>
        <time>2022-07-09T09:37:36Z</time>
      </trkpt>
      <trkpt lat="42.6792913210" lon="0.4670082126">
        <ele>1959.30</ele>
        <time>2022-07-09T09:37:37Z</time>
      </trkpt>
      <trkpt lat="42.6793101802" lon="0.4669864196">
        <ele>1959.30</ele>
        <time>2022-07-09T09:37:39Z</time>
      </trkpt>
      <trkpt lat="42.6793604717" lon="0.4667993356">
        <ele>1961.71</ele>
        <time>2022-07-09T09:37:53Z</time>
      </trkpt>
      <trkpt lat="42.6793700270" lon="0.4666686617">
        <ele>1963.15</ele>
        <time>2022-07-09T09:38:03Z</time>
      </trkpt>
      <trkpt lat="42.6793928258" lon="0.4665166978">
        <ele>1965.55</ele>
        <time>2022-07-09T09:38:15Z</time>
      </trkpt>
      <trkpt lat="42.6794052310" lon="0.4664473794">
        <ele>1966.51</ele>
        <time>2022-07-09T09:38:22Z</time>
      </trkpt>
      <trkpt lat="42.6794101764" lon="0.4664389975">
        <ele>1966.99</ele>
        <time>2022-07-09T09:38:23Z</time>
      </trkpt>
      <trkpt lat="42.6794125233" lon="0.4664132651">
        <ele>1967.96</ele>
        <time>2022-07-09T09:38:25Z</time>
      </trkpt>
      <trkpt lat="42.6794390101" lon="0.4662935715">
        <ele>1968.92</ele>
        <time>2022-07-09T09:38:36Z</time>
      </trkpt>
      <trkpt lat="42.6794320531" lon="0.4661509115">
        <ele>1971.32</ele>
        <time>2022-07-09T09:38:48Z</time>
      </trkpt>
      <trkpt lat="42.6794374175" lon="0.4661314655">
        <ele>1972.28</ele>
        <time>2022-07-09T09:38:50Z</time>
      </trkpt>
      <trkpt lat="42.6794342324" lon="0.4661173839">
        <ele>1972.28</ele>
        <time>2022-07-09T09:38:51Z</time>
      </trkpt>
      <trkpt lat="42.6794314664" lon="0.4659652524">
        <ele>1974.69</ele>
        <time>2022-07-09T09:39:03Z</time>
      </trkpt>
      <trkpt lat="42.6794028841" lon="0.4658107739">
        <ele>1977.57</ele>
        <time>2022-07-09T09:39:17Z</time>
      </trkpt>
      <trkpt lat="42.6793791633" lon="0.4657672718">
        <ele>1978.53</ele>
        <time>2022-07-09T09:39:22Z</time>
      </trkpt>
      <trkpt lat="42.6793349907" lon="0.4656802677">
        <ele>1979.97</ele>
        <time>2022-07-09T09:39:36Z</time>
      </trkpt>
      <trkpt lat="42.6793127786" lon="0.4656597320">
        <ele>1980.45</ele>
        <time>2022-07-09T09:39:39Z</time>
      </trkpt>
      <trkpt lat="42.6792955119" lon="0.4656025674">
        <ele>1981.41</ele>
        <time>2022-07-09T09:39:44Z</time>
      </trkpt>
      <trkpt lat="42.6793548558" lon="0.4655353446">
        <ele>1983.82</ele>
        <time>2022-07-09T09:39:58Z</time>
      </trkpt>
      <trkpt lat="42.6793678477" lon="0.4655118752">
        <ele>1986.22</ele>
        <time>2022-07-09T09:40:03Z</time>
      </trkpt>
      <trkpt lat="42.6794470567" lon="0.4654290620">
        <ele>1988.62</ele>
        <time>2022-07-09T09:40:16Z</time>
      </trkpt>
      <trkpt lat="42.6793898083" lon="0.4653650243">
        <ele>1990.07</ele>
        <time>2022-07-09T09:40:26Z</time>
      </trkpt>
      <trkpt lat="42.6794025488" lon="0.4653258808">
        <ele>1992.47</ele>
        <time>2022-07-09T09:40:34Z</time>
      </trkpt>
      <trkpt lat="42.6793736313" lon="0.4652218614">
        <ele>1994.87</ele>
        <time>2022-07-09T09:40:46Z</time>
      </trkpt>
      <trkpt lat="42.6794158760" lon="0.4651769344">
        <ele>1996.32</ele>
        <time>2022-07-09T09:40:52Z</time>
      </trkpt>
      <trkpt lat="42.6793540176" lon="0.4650580790">
        <ele>1995.83</ele>
        <time>2022-07-09T09:41:01Z</time>
      </trkpt>
      <trkpt lat="42.6793188136" lon="0.4648269899">
        <ele>1997.28</ele>
        <time>2022-07-09T09:41:16Z</time>
      </trkpt>
      <trkpt lat="42.6792527642" lon="0.4647807218">
        <ele>1999.20</ele>
        <time>2022-07-09T09:41:27Z</time>
      </trkpt>
      <trkpt lat="42.6792684384" lon="0.4646886885">
        <ele>2001.60</ele>
        <time>2022-07-09T09:41:38Z</time>
      </trkpt>
      <trkpt lat="42.6792813465" lon="0.4646463599">
        <ele>2003.52</ele>
        <time>2022-07-09T09:41:43Z</time>
      </trkpt>
      <trkpt lat="42.6793045644" lon="0.4645481240">
        <ele>2005.45</ele>
        <time>2022-07-09T09:41:55Z</time>
      </trkpt>
      <trkpt lat="42.6793463062" lon="0.4645373952">
        <ele>2007.37</ele>
        <time>2022-07-09T09:42:02Z</time>
      </trkpt>
      <trkpt lat="42.6793653332" lon="0.4644207191">
        <ele>2008.81</ele>
        <time>2022-07-09T09:42:14Z</time>
      </trkpt>
      <trkpt lat="42.6794342324" lon="0.4643235728">
        <ele>2011.70</ele>
        <time>2022-07-09T09:42:27Z</time>
      </trkpt>
      <trkpt lat="42.6794401836" lon="0.4643009417">
        <ele>2012.18</ele>
        <time>2022-07-09T09:42:29Z</time>
      </trkpt>
      <trkpt lat="42.6794499904" lon="0.4641711060">
        <ele>2015.06</ele>
        <time>2022-07-09T09:42:42Z</time>
      </trkpt>
      <trkpt lat="42.6794561930" lon="0.4640490655">
        <ele>2018.91</ele>
        <time>2022-07-09T09:42:54Z</time>
      </trkpt>
      <trkpt lat="42.6794711966" lon="0.4640138615">
        <ele>2019.39</ele>
        <time>2022-07-09T09:42:58Z</time>
      </trkpt>
      <trkpt lat="42.6795099210" lon="0.4639219120">
        <ele>2021.31</ele>
        <time>2022-07-09T09:43:07Z</time>
      </trkpt>
      <trkpt lat="42.6795068197" lon="0.4637841135">
        <ele>2022.75</ele>
        <time>2022-07-09T09:43:18Z</time>
      </trkpt>
      <trkpt lat="42.6794514991" lon="0.4637221713">
        <ele>2023.71</ele>
        <time>2022-07-09T09:43:23Z</time>
      </trkpt>
      <trkpt lat="42.6794228330" lon="0.4635720514">
        <ele>2026.60</ele>
        <time>2022-07-09T09:43:39Z</time>
      </trkpt>
      <trkpt lat="42.6794124395" lon="0.4635191616">
        <ele>2028.04</ele>
        <time>2022-07-09T09:43:44Z</time>
      </trkpt>
      <trkpt lat="42.6793986093" lon="0.4634821136">
        <ele>2026.12</ele>
        <time>2022-07-09T09:43:47Z</time>
      </trkpt>
      <trkpt lat="42.6793976873" lon="0.4634402040">
        <ele>2028.04</ele>
        <time>2022-07-09T09:43:50Z</time>
      </trkpt>
      <trkpt lat="42.6793945022" lon="0.4633732326">
        <ele>2028.04</ele>
        <time>2022-07-09T09:43:54Z</time>
      </trkpt>
      <trkpt lat="42.6794069074" lon="0.4633193370">
        <ele>2029.96</ele>
        <time>2022-07-09T09:43:58Z</time>
      </trkpt>
      <trkpt lat="42.6794430334" lon="0.4631901719">
        <ele>2031.88</ele>
        <time>2022-07-09T09:44:09Z</time>
      </trkpt>
      <trkpt lat="42.6794417761" lon="0.4631404672">
        <ele>2032.84</ele>
        <time>2022-07-09T09:44:12Z</time>
      </trkpt>
      <trkpt lat="42.6794319693" lon="0.4630366992">
        <ele>2034.77</ele>
        <time>2022-07-09T09:44:21Z</time>
      </trkpt>
      <trkpt lat="42.6794261858" lon="0.4630029202">
        <ele>2036.21</ele>
        <time>2022-07-09T09:44:24Z</time>
      </trkpt>
      <trkpt lat="42.6794028003" lon="0.4629511200">
        <ele>2034.29</ele>
        <time>2022-07-09T09:44:27Z</time>
      </trkpt>
      <trkpt lat="42.6793961786" lon="0.4628259782">
        <ele>2036.21</ele>
        <time>2022-07-09T09:44:34Z</time>
      </trkpt>
      <trkpt lat="42.6793821808" lon="0.4627482779">
        <ele>2036.21</ele>
        <time>2022-07-09T09:44:39Z</time>
      </trkpt>
      <trkpt lat="42.6793556940" lon="0.4625010118">
        <ele>2035.25</ele>
        <time>2022-07-09T09:44:52Z</time>
      </trkpt>
      <trkpt lat="42.6793539338" lon="0.4624624550">
        <ele>2035.25</ele>
        <time>2022-07-09T09:44:54Z</time>
      </trkpt>
      <trkpt lat="42.6793841925" lon="0.4622053821">
        <ele>2035.25</ele>
        <time>2022-07-09T09:45:09Z</time>
      </trkpt>
      <trkpt lat="42.6793890540" lon="0.4621528275">
        <ele>2036.69</ele>
        <time>2022-07-09T09:45:13Z</time>
      </trkpt>
      <trkpt lat="42.6794059016" lon="0.4620830063">
        <ele>2037.65</ele>
        <time>2022-07-09T09:45:18Z</time>
      </trkpt>
      <trkpt lat="42.6794255152" lon="0.4620481376">
        <ele>2037.65</ele>
        <time>2022-07-09T09:45:21Z</time>
      </trkpt>
      <trkpt lat="42.6794402674" lon="0.4619623907">
        <ele>2040.54</ele>
        <time>2022-07-09T09:45:28Z</time>
      </trkpt>
      <trkpt lat="42.6794391777" lon="0.4619328026">
        <ele>2041.50</ele>
        <time>2022-07-09T09:45:30Z</time>
      </trkpt>
      <trkpt lat="42.6794298738" lon="0.4618126061">
        <ele>2040.54</ele>
        <time>2022-07-09T09:45:37Z</time>
      </trkpt>
      <trkpt lat="42.6794304606" lon="0.4618001170">
        <ele>2040.54</ele>
        <time>2022-07-09T09:45:38Z</time>
      </trkpt>
      <trkpt lat="42.6794369146" lon="0.4617563635">
        <ele>2041.50</ele>
        <time>2022-07-09T09:45:41Z</time>
      </trkpt>
      <trkpt lat="42.6795155369" lon="0.4616898112">
        <ele>2043.42</ele>
        <time>2022-07-09T09:45:49Z</time>
      </trkpt>
      <trkpt lat="42.6795795746" lon="0.4615492467">
        <ele>2043.90</ele>
        <time>2022-07-09T09:45:59Z</time>
      </trkpt>
      <trkpt lat="42.6795593742" lon="0.4613744840">
        <ele>2044.86</ele>
        <time>2022-07-09T09:46:10Z</time>
      </trkpt>
      <trkpt lat="42.6794960070" lon="0.4611340072">
        <ele>2046.30</ele>
        <time>2022-07-09T09:46:26Z</time>
      </trkpt>
      <trkpt lat="42.6794669218" lon="0.4609216098">
        <ele>2047.75</ele>
        <time>2022-07-09T09:46:39Z</time>
      </trkpt>
      <trkpt lat="42.6794612221" lon="0.4608947039">
        <ele>2045.82</ele>
        <time>2022-07-09T09:46:41Z</time>
      </trkpt>
      <trkpt lat="42.6794639044" lon="0.4607667960">
        <ele>2048.23</ele>
        <time>2022-07-09T09:46:50Z</time>
      </trkpt>
      <trkpt lat="42.6794030517" lon="0.4605964758">
        <ele>2049.67</ele>
        <time>2022-07-09T09:47:02Z</time>
      </trkpt>
      <trkpt lat="42.6793842763" lon="0.4605106451">
        <ele>2050.15</ele>
        <time>2022-07-09T09:47:08Z</time>
      </trkpt>
      <trkpt lat="42.6793759782" lon="0.4604789615">
        <ele>2049.67</ele>
        <time>2022-07-09T09:47:11Z</time>
      </trkpt>
      <trkpt lat="42.6793783251" lon="0.4604547378">
        <ele>2051.11</ele>
        <time>2022-07-09T09:47:13Z</time>
      </trkpt>
      <trkpt lat="42.6793879643" lon="0.4604148399">
        <ele>2053.99</ele>
        <time>2022-07-09T09:47:16Z</time>
      </trkpt>
      <trkpt lat="42.6794202346" lon="0.4603447672">
        <ele>2051.11</ele>
        <time>2022-07-09T09:47:21Z</time>
      </trkpt>
      <trkpt lat="42.6794272754" lon="0.4603294283">
        <ele>2051.11</ele>
        <time>2022-07-09T09:47:22Z</time>
      </trkpt>
      <trkpt lat="42.6794490684" lon="0.4601840023">
        <ele>2052.55</ele>
        <time>2022-07-09T09:47:33Z</time>
      </trkpt>
      <trkpt lat="42.6794421952" lon="0.4601280112">
        <ele>2053.99</ele>
        <time>2022-07-09T09:47:37Z</time>
      </trkpt>
      <trkpt lat="42.6794544328" lon="0.4600901250">
        <ele>2054.96</ele>
        <time>2022-07-09T09:47:40Z</time>
      </trkpt>
      <trkpt lat="42.6794470567" lon="0.4600415099">
        <ele>2053.51</ele>
        <time>2022-07-09T09:47:43Z</time>
      </trkpt>
      <trkpt lat="42.6794483140" lon="0.4600235727">
        <ele>2053.51</ele>
        <time>2022-07-09T09:47:44Z</time>
      </trkpt>
      <trkpt lat="42.6794246770" lon="0.4598476365">
        <ele>2053.03</ele>
        <time>2022-07-09T09:47:54Z</time>
      </trkpt>
      <trkpt lat="42.6794125233" lon="0.4597332235">
        <ele>2054.47</ele>
        <time>2022-07-09T09:48:01Z</time>
      </trkpt>
      <trkpt lat="42.6794580370" lon="0.4596636537">
        <ele>2054.47</ele>
        <time>2022-07-09T09:48:07Z</time>
      </trkpt>
      <trkpt lat="42.6794587076" lon="0.4596400168">
        <ele>2054.47</ele>
        <time>2022-07-09T09:48:09Z</time>
      </trkpt>
      <trkpt lat="42.6794891339" lon="0.4593624081">
        <ele>2051.11</ele>
        <time>2022-07-09T09:48:27Z</time>
      </trkpt>
      <trkpt lat="42.6795066521" lon="0.4592353385">
        <ele>2050.15</ele>
        <time>2022-07-09T09:48:40Z</time>
      </trkpt>
      <trkpt lat="42.6795079932" lon="0.4592008889">
        <ele>2050.63</ele>
        <time>2022-07-09T09:48:42Z</time>
      </trkpt>
      <trkpt lat="42.6794356573" lon="0.4591702949">
        <ele>2050.15</ele>
        <time>2022-07-09T09:48:52Z</time>
      </trkpt>
      <trkpt lat="42.6794035546" lon="0.4591542855">
        <ele>2050.15</ele>
        <time>2022-07-09T09:48:56Z</time>
      </trkpt>
      <trkpt lat="42.6793220825" lon="0.4590770043">
        <ele>2052.07</ele>
        <time>2022-07-09T09:49:10Z</time>
      </trkpt>
      <trkpt lat="42.6793144550" lon="0.4590272997">
        <ele>2054.96</ele>
        <time>2022-07-09T09:49:16Z</time>
      </trkpt>
      <trkpt lat="42.6793139521" lon="0.4590092786">
        <ele>2055.92</ele>
        <time>2022-07-09T09:49:18Z</time>
      </trkpt>
      <trkpt lat="42.6793095097" lon="0.4588936921">
        <ele>2058.32</ele>
        <time>2022-07-09T09:49:32Z</time>
      </trkpt>
      <trkpt lat="42.6793035585" lon="0.4588324204">
        <ele>2059.28</ele>
        <time>2022-07-09T09:49:38Z</time>
      </trkpt>
      <trkpt lat="42.6793535147" lon="0.4587389622">
        <ele>2061.68</ele>
        <time>2022-07-09T09:49:53Z</time>
      </trkpt>
      <trkpt lat="42.6793613099" lon="0.4587050155">
        <ele>2062.17</ele>
        <time>2022-07-09T09:49:56Z</time>
      </trkpt>
      <trkpt lat="42.6793782413" lon="0.4586904310">
        <ele>2062.65</ele>
        <time>2022-07-09T09:49:58Z</time>
      </trkpt>
      <trkpt lat="42.6794056501" lon="0.4586299974">
        <ele>2064.09</ele>
        <time>2022-07-09T09:50:03Z</time>
      </trkpt>
      <trkpt lat="42.6793889701" lon="0.4584562406">
        <ele>2065.53</ele>
        <time>2022-07-09T09:50:15Z</time>
      </trkpt>
      <trkpt lat="42.6793971844" lon="0.4584144149">
        <ele>2065.53</ele>
        <time>2022-07-09T09:50:18Z</time>
      </trkpt>
      <trkpt lat="42.6793991961" lon="0.4582850821">
        <ele>2066.49</ele>
        <time>2022-07-09T09:50:26Z</time>
      </trkpt>
      <trkpt lat="42.6794561092" lon="0.4581614491">
        <ele>2067.45</ele>
        <time>2022-07-09T09:50:36Z</time>
      </trkpt>
      <trkpt lat="42.6794806682" lon="0.4580856767">
        <ele>2069.38</ele>
        <time>2022-07-09T09:50:44Z</time>
      </trkpt>
      <trkpt lat="42.6794779021" lon="0.4579270910">
        <ele>2072.26</ele>
        <time>2022-07-09T09:50:57Z</time>
      </trkpt>
      <trkpt lat="42.6794544328" lon="0.4577999376">
        <ele>2075.14</ele>
        <time>2022-07-09T09:51:10Z</time>
      </trkpt>
      <trkpt lat="42.6793986093" lon="0.4575949162">
        <ele>2078.51</ele>
        <time>2022-07-09T09:51:25Z</time>
      </trkpt>
      <trkpt lat="42.6793696079" lon="0.4575168807">
        <ele>2078.99</ele>
        <time>2022-07-09T09:51:31Z</time>
      </trkpt>
      <trkpt lat="42.6793136168" lon="0.4574371688">
        <ele>2079.47</ele>
        <time>2022-07-09T09:51:38Z</time>
      </trkpt>
      <trkpt lat="42.6793001220" lon="0.4573189840">
        <ele>2082.83</ele>
        <time>2022-07-09T09:51:49Z</time>
      </trkpt>
      <trkpt lat="42.6792928297" lon="0.4572373442">
        <ele>2085.24</ele>
        <time>2022-07-09T09:51:54Z</time>
      </trkpt>
      <trkpt lat="42.6792817656" lon="0.4572106060">
        <ele>2085.72</ele>
        <time>2022-07-09T09:51:56Z</time>
      </trkpt>
      <trkpt lat="42.6792701986" lon="0.4571744800">
        <ele>2083.79</ele>
        <time>2022-07-09T09:51:59Z</time>
      </trkpt>
      <trkpt lat="42.6792615652" lon="0.4571111966">
        <ele>2086.20</ele>
        <time>2022-07-09T09:52:04Z</time>
      </trkpt>
      <trkpt lat="42.6792574581" lon="0.4570729751">
        <ele>2084.76</ele>
        <time>2022-07-09T09:52:08Z</time>
      </trkpt>
      <trkpt lat="42.6792396046" lon="0.4570128769">
        <ele>2083.79</ele>
        <time>2022-07-09T09:52:13Z</time>
      </trkpt>
      <trkpt lat="42.6792339049" lon="0.4569257051">
        <ele>2088.60</ele>
        <time>2022-07-09T09:52:23Z</time>
      </trkpt>
      <trkpt lat="42.6792370062" lon="0.4569150601">
        <ele>2088.60</ele>
        <time>2022-07-09T09:52:24Z</time>
      </trkpt>
      <trkpt lat="42.6792226732" lon="0.4568558838">
        <ele>2090.04</ele>
        <time>2022-07-09T09:52:30Z</time>
      </trkpt>
      <trkpt lat="42.6791773271" lon="0.4566550534">
        <ele>2091.97</ele>
        <time>2022-07-09T09:52:44Z</time>
      </trkpt>
      <trkpt lat="42.6791665144" lon="0.4566203523">
        <ele>2092.45</ele>
        <time>2022-07-09T09:52:47Z</time>
      </trkpt>
      <trkpt lat="42.6791409496" lon="0.4563947953">
        <ele>2093.89</ele>
        <time>2022-07-09T09:53:03Z</time>
      </trkpt>
      <trkpt lat="42.6790873893" lon="0.4562487826">
        <ele>2097.73</ele>
        <time>2022-07-09T09:53:14Z</time>
      </trkpt>
      <trkpt lat="42.6790041570" lon="0.4560558312">
        <ele>2097.73</ele>
        <time>2022-07-09T09:53:28Z</time>
      </trkpt>
      <trkpt lat="42.6789577212" lon="0.4559290130">
        <ele>2100.14</ele>
        <time>2022-07-09T09:53:39Z</time>
      </trkpt>
      <trkpt lat="42.6789505128" lon="0.4559159372">
        <ele>2103.98</ele>
        <time>2022-07-09T09:53:40Z</time>
      </trkpt>
      <trkpt lat="42.6789453160" lon="0.4559031129">
        <ele>2102.54</ele>
        <time>2022-07-09T09:53:41Z</time>
      </trkpt>
      <trkpt lat="42.6789340004" lon="0.4558850918">
        <ele>2101.10</ele>
        <time>2022-07-09T09:53:43Z</time>
      </trkpt>
      <trkpt lat="42.6788921747" lon="0.4557482153">
        <ele>2101.10</ele>
        <time>2022-07-09T09:53:53Z</time>
      </trkpt>
      <trkpt lat="42.6788730640" lon="0.4556770530">
        <ele>2101.10</ele>
        <time>2022-07-09T09:53:59Z</time>
      </trkpt>
      <trkpt lat="42.6788131334" lon="0.4555633105">
        <ele>2104.46</ele>
        <time>2022-07-09T09:54:09Z</time>
      </trkpt>
      <trkpt lat="42.6787725650" lon="0.4555099178">
        <ele>2104.94</ele>
        <time>2022-07-09T09:54:14Z</time>
      </trkpt>
      <trkpt lat="42.6787471678" lon="0.4554491490">
        <ele>2103.98</ele>
        <time>2022-07-09T09:54:20Z</time>
      </trkpt>
      <trkpt lat="42.6786592416" lon="0.4553503264">
        <ele>2104.94</ele>
        <time>2022-07-09T09:54:33Z</time>
      </trkpt>
      <trkpt lat="42.6786426455" lon="0.4552775715">
        <ele>2107.83</ele>
        <time>2022-07-09T09:54:45Z</time>
      </trkpt>
      <trkpt lat="42.6786850579" lon="0.4552236758">
        <ele>2109.75</ele>
        <time>2022-07-09T09:54:57Z</time>
      </trkpt>
      <trkpt lat="42.6787048392" lon="0.4551389348">
        <ele>2112.63</ele>
        <time>2022-07-09T09:55:08Z</time>
      </trkpt>
      <trkpt lat="42.6787068509" lon="0.4551286250">
        <ele>2113.12</ele>
        <time>2022-07-09T09:55:09Z</time>
      </trkpt>
      <trkpt lat="42.6787179150" lon="0.4550916608">
        <ele>2113.60</ele>
        <time>2022-07-09T09:55:13Z</time>
      </trkpt>
      <trkpt lat="42.6786718983" lon="0.4549604002">
        <ele>2117.44</ele>
        <time>2022-07-09T09:55:23Z</time>
      </trkpt>
      <trkpt lat="42.6786649413" lon="0.4549464863">
        <ele>2117.44</ele>
        <time>2022-07-09T09:55:24Z</time>
      </trkpt>
      <trkpt lat="42.6786448248" lon="0.4549032357">
        <ele>2117.44</ele>
        <time>2022-07-09T09:55:28Z</time>
      </trkpt>
      <trkpt lat="42.6786320843" lon="0.4547095299">
        <ele>2119.36</ele>
        <time>2022-07-09T09:55:43Z</time>
      </trkpt>
      <trkpt lat="42.6786586549" lon="0.4546132218">
        <ele>2121.29</ele>
        <time>2022-07-09T09:55:52Z</time>
      </trkpt>
      <trkpt lat="42.6786895841" lon="0.4545059334">
        <ele>2120.81</ele>
        <time>2022-07-09T09:56:04Z</time>
      </trkpt>
      <trkpt lat="42.6786674559" lon="0.4544057697">
        <ele>2122.73</ele>
        <time>2022-07-09T09:56:17Z</time>
      </trkpt>
      <trkpt lat="42.6786498539" lon="0.4542714078">
        <ele>2124.65</ele>
        <time>2022-07-09T09:56:33Z</time>
      </trkpt>
      <trkpt lat="42.6786645222" lon="0.4541767761">
        <ele>2126.57</ele>
        <time>2022-07-09T09:56:45Z</time>
      </trkpt>
      <trkpt lat="42.6786739100" lon="0.4540739302">
        <ele>2129.94</ele>
        <time>2022-07-09T09:56:58Z</time>
      </trkpt>
      <trkpt lat="42.6786813699" lon="0.4539488722">
        <ele>2133.30</ele>
        <time>2022-07-09T09:57:11Z</time>
      </trkpt>
      <trkpt lat="42.6786838844" lon="0.4539403226">
        <ele>2134.26</ele>
        <time>2022-07-09T09:57:12Z</time>
      </trkpt>
      <trkpt lat="42.6786555536" lon="0.4538159352">
        <ele>2134.26</ele>
        <time>2022-07-09T09:57:21Z</time>
      </trkpt>
      <trkpt lat="42.6786271390" lon="0.4536313657">
        <ele>2136.67</ele>
        <time>2022-07-09T09:57:36Z</time>
      </trkpt>
      <trkpt lat="42.6786182541" lon="0.4534632247">
        <ele>2139.55</ele>
        <time>2022-07-09T09:57:52Z</time>
      </trkpt>
      <trkpt lat="42.6785953715" lon="0.4533015378">
        <ele>2143.40</ele>
        <time>2022-07-09T09:58:07Z</time>
      </trkpt>
      <trkpt lat="42.6785623468" lon="0.4531665053">
        <ele>2145.32</ele>
        <time>2022-07-09T09:58:20Z</time>
      </trkpt>
      <trkpt lat="42.6785423141" lon="0.4530486558">
        <ele>2147.24</ele>
        <time>2022-07-09T09:58:34Z</time>
      </trkpt>
      <trkpt lat="42.6784995664" lon="0.4529526830">
        <ele>2150.61</ele>
        <time>2022-07-09T09:58:46Z</time>
      </trkpt>
      <trkpt lat="42.6784867421" lon="0.4529296327">
        <ele>2151.09</ele>
        <time>2022-07-09T09:58:49Z</time>
      </trkpt>
      <trkpt lat="42.6784796175" lon="0.4527370166">
        <ele>2153.97</ele>
        <time>2022-07-09T09:59:06Z</time>
      </trkpt>
      <trkpt lat="42.6784683019" lon="0.4526720569">
        <ele>2155.89</ele>
        <time>2022-07-09T09:59:12Z</time>
      </trkpt>
      <trkpt lat="42.6784589980" lon="0.4525014013">
        <ele>2158.30</ele>
        <time>2022-07-09T09:59:28Z</time>
      </trkpt>
      <trkpt lat="42.6784425694" lon="0.4524300713">
        <ele>2160.22</ele>
        <time>2022-07-09T09:59:35Z</time>
      </trkpt>
      <trkpt lat="42.6783163380" lon="0.4522990622">
        <ele>2161.66</ele>
        <time>2022-07-09T09:59:50Z</time>
      </trkpt>
      <trkpt lat="42.6782558206" lon="0.4522141535">
        <ele>2163.10</ele>
        <time>2022-07-09T10:00:03Z</time>
      </trkpt>
      <trkpt lat="42.6782102231" lon="0.4521823023">
        <ele>2165.03</ele>
        <time>2022-07-09T10:00:11Z</time>
      </trkpt>
      <trkpt lat="42.6781703252" lon="0.4520654585">
        <ele>2168.39</ele>
        <time>2022-07-09T10:00:25Z</time>
      </trkpt>
      <trkpt lat="42.6781298406" lon="0.4520060308">
        <ele>2169.83</ele>
        <time>2022-07-09T10:00:37Z</time>
      </trkpt>
      <trkpt lat="42.6780900266" lon="0.4519121535">
        <ele>2172.72</ele>
        <time>2022-07-09T10:00:50Z</time>
      </trkpt>
      <trkpt lat="42.6780513022" lon="0.4518238083">
        <ele>2175.12</ele>
        <time>2022-07-09T10:01:02Z</time>
      </trkpt>
      <trkpt lat="42.6779984124" lon="0.4517673980">
        <ele>2178.97</ele>
        <time>2022-07-09T10:01:15Z</time>
      </trkpt>
      <trkpt lat="42.6779690757" lon="0.4517446831">
        <ele>2180.41</ele>
        <time>2022-07-09T10:01:30Z</time>
      </trkpt>
      <trkpt lat="42.6779402420" lon="0.4516865965">
        <ele>2182.81</ele>
        <time>2022-07-09T10:01:44Z</time>
      </trkpt>
      <trkpt lat="42.6779124141" lon="0.4516383167">
        <ele>2184.25</ele>
        <time>2022-07-09T10:01:53Z</time>
      </trkpt>
      <trkpt lat="42.6779006794" lon="0.4515658133">
        <ele>2187.14</ele>
        <time>2022-07-09T10:02:07Z</time>
      </trkpt>
      <trkpt lat="42.6779043674" lon="0.4514440242">
        <ele>2190.02</ele>
        <time>2022-07-09T10:02:18Z</time>
      </trkpt>
      <trkpt lat="42.6778923813" lon="0.4513513204">
        <ele>2192.42</ele>
        <time>2022-07-09T10:02:33Z</time>
      </trkpt>
      <trkpt lat="42.6779022720" lon="0.4512690939">
        <ele>2195.31</ele>
        <time>2022-07-09T10:02:47Z</time>
      </trkpt>
      <trkpt lat="42.6779000927" lon="0.4512161203">
        <ele>2198.67</ele>
        <time>2022-07-09T10:02:58Z</time>
      </trkpt>
      <trkpt lat="42.6779436786" lon="0.4511392582">
        <ele>2201.08</ele>
        <time>2022-07-09T10:03:09Z</time>
      </trkpt>
      <trkpt lat="42.6779629570" lon="0.4510260187">
        <ele>2203.48</ele>
        <time>2022-07-09T10:03:23Z</time>
      </trkpt>
      <trkpt lat="42.6779643819" lon="0.4509836063">
        <ele>2204.44</ele>
        <time>2022-07-09T10:03:28Z</time>
      </trkpt>
      <trkpt lat="42.6779938024" lon="0.4509239271">
        <ele>2205.40</ele>
        <time>2022-07-09T10:03:35Z</time>
      </trkpt>
      <trkpt lat="42.6780226361" lon="0.4507814348">
        <ele>2208.77</ele>
        <time>2022-07-09T10:03:48Z</time>
      </trkpt>
      <trkpt lat="42.6780311856" lon="0.4506837018">
        <ele>2210.69</ele>
        <time>2022-07-09T10:04:00Z</time>
      </trkpt>
      <trkpt lat="42.6780668087" lon="0.4505615775">
        <ele>2213.09</ele>
        <time>2022-07-09T10:04:14Z</time>
      </trkpt>
      <trkpt lat="42.6781091373" lon="0.4504514392">
        <ele>2216.46</ele>
        <time>2022-07-09T10:04:27Z</time>
      </trkpt>
      <trkpt lat="42.6781171840" lon="0.4504192527">
        <ele>2217.90</ele>
        <time>2022-07-09T10:04:37Z</time>
      </trkpt>
      <trkpt lat="42.6781300083" lon="0.4503229447">
        <ele>2220.78</ele>
        <time>2022-07-09T10:04:50Z</time>
      </trkpt>
      <trkpt lat="42.6781308465" lon="0.4501999822">
        <ele>2222.71</ele>
        <time>2022-07-09T10:05:03Z</time>
      </trkpt>
      <trkpt lat="42.6781691518" lon="0.4500735831">
        <ele>2226.07</ele>
        <time>2022-07-09T10:05:18Z</time>
      </trkpt>
      <trkpt lat="42.6782050263" lon="0.4499776103">
        <ele>2228.95</ele>
        <time>2022-07-09T10:05:30Z</time>
      </trkpt>
      <trkpt lat="42.6782370452" lon="0.4499025084">
        <ele>2231.84</ele>
        <time>2022-07-09T10:05:42Z</time>
      </trkpt>
      <trkpt lat="42.6782379672" lon="0.4497899394">
        <ele>2234.72</ele>
        <time>2022-07-09T10:05:55Z</time>
      </trkpt>
      <trkpt lat="42.6782616042" lon="0.4496751074">
        <ele>2237.61</ele>
        <time>2022-07-09T10:06:09Z</time>
      </trkpt>
      <trkpt lat="42.6782868337" lon="0.4495212156">
        <ele>2240.49</ele>
        <time>2022-07-09T10:06:24Z</time>
      </trkpt>
      <trkpt lat="42.6783004124" lon="0.4494297691">
        <ele>2242.89</ele>
        <time>2022-07-09T10:06:41Z</time>
      </trkpt>
      <trkpt lat="42.6783120632" lon="0.4493126739">
        <ele>2246.26</ele>
        <time>2022-07-09T10:06:56Z</time>
      </trkpt>
      <trkpt lat="42.6783336047" lon="0.4491697624">
        <ele>2249.14</ele>
        <time>2022-07-09T10:07:10Z</time>
      </trkpt>
      <trkpt lat="42.6783617679" lon="0.4490566906">
        <ele>2252.03</ele>
        <time>2022-07-09T10:07:25Z</time>
      </trkpt>
      <trkpt lat="42.6783797890" lon="0.4489593767">
        <ele>2254.43</ele>
        <time>2022-07-09T10:07:39Z</time>
      </trkpt>
      <trkpt lat="42.6783895958" lon="0.4488317203">
        <ele>2258.27</ele>
        <time>2022-07-09T10:07:54Z</time>
      </trkpt>
      <trkpt lat="42.6783938706" lon="0.4487425368">
        <ele>2260.68</ele>
        <time>2022-07-09T10:08:07Z</time>
      </trkpt>
      <trkpt lat="42.6783919428" lon="0.4486365058">
        <ele>2264.04</ele>
        <time>2022-07-09T10:08:19Z</time>
      </trkpt>
      <trkpt lat="42.6783984806" lon="0.4485203326">
        <ele>2267.41</ele>
        <time>2022-07-09T10:08:32Z</time>
      </trkpt>
      <trkpt lat="42.6783901826" lon="0.4484032374">
        <ele>2269.81</ele>
        <time>2022-07-09T10:08:47Z</time>
      </trkpt>
      <trkpt lat="42.6783899311" lon="0.4483143892">
        <ele>2272.69</ele>
        <time>2022-07-09T10:08:59Z</time>
      </trkpt>
      <trkpt lat="42.6783523802" lon="0.4482718091">
        <ele>2274.62</ele>
        <time>2022-07-09T10:09:12Z</time>
      </trkpt>
      <trkpt lat="42.6783343591" lon="0.4481800273">
        <ele>2277.02</ele>
        <time>2022-07-09T10:09:26Z</time>
      </trkpt>
      <trkpt lat="42.6783237141" lon="0.4481610842">
        <ele>2278.46</ele>
        <time>2022-07-09T10:09:31Z</time>
      </trkpt>
      <trkpt lat="42.6783339400" lon="0.4481235333">
        <ele>2279.42</ele>
        <time>2022-07-09T10:09:36Z</time>
      </trkpt>
      <trkpt lat="42.6782726683" lon="0.4480654467">
        <ele>2282.31</ele>
        <time>2022-07-09T10:09:51Z</time>
      </trkpt>
      <trkpt lat="42.6782484446" lon="0.4480017442">
        <ele>2284.71</ele>
        <time>2022-07-09T10:10:01Z</time>
      </trkpt>
      <trkpt lat="42.6783004124" lon="0.4478905164">
        <ele>2288.08</ele>
        <time>2022-07-09T10:10:15Z</time>
      </trkpt>
      <trkpt lat="42.6783237979" lon="0.4477412347">
        <ele>2291.44</ele>
        <time>2022-07-09T10:10:31Z</time>
      </trkpt>
      <trkpt lat="42.6783570740" lon="0.4475992452">
        <ele>2294.80</ele>
        <time>2022-07-09T10:10:46Z</time>
      </trkpt>
      <trkpt lat="42.6784049347" lon="0.4475105647">
        <ele>2298.17</ele>
        <time>2022-07-09T10:11:01Z</time>
      </trkpt>
      <trkpt lat="42.6784406416" lon="0.4474545736">
        <ele>2299.13</ele>
        <time>2022-07-09T10:11:08Z</time>
      </trkpt>
      <trkpt lat="42.6784778573" lon="0.4474503826">
        <ele>2300.09</ele>
        <time>2022-07-09T10:11:12Z</time>
      </trkpt>
      <trkpt lat="42.6784960460" lon="0.4473534878">
        <ele>2301.53</ele>
        <time>2022-07-09T10:11:22Z</time>
      </trkpt>
      <trkpt lat="42.6785328425" lon="0.4472078942">
        <ele>2304.42</ele>
        <time>2022-07-09T10:11:35Z</time>
      </trkpt>
      <trkpt lat="42.6785454154" lon="0.4471658170">
        <ele>2305.38</ele>
        <time>2022-07-09T10:11:39Z</time>
      </trkpt>
      <trkpt lat="42.6785629336" lon="0.4470146913">
        <ele>2308.26</ele>
        <time>2022-07-09T10:11:53Z</time>
      </trkpt>
      <trkpt lat="42.6785951201" lon="0.4468901362">
        <ele>2309.70</ele>
        <time>2022-07-09T10:12:06Z</time>
      </trkpt>
      <trkpt lat="42.6785926893" lon="0.4468797427">
        <ele>2309.22</ele>
        <time>2022-07-09T10:12:17Z</time>
      </trkpt>
      <trkpt lat="42.6785466727" lon="0.4468440358">
        <ele>2308.74</ele>
        <time>2022-07-09T10:12:42Z</time>
      </trkpt>
      <trkpt lat="42.6785252150" lon="0.4468550161">
        <ele>2308.74</ele>
        <time>2022-07-09T10:13:16Z</time>
      </trkpt>
      <trkpt lat="42.6785444096" lon="0.4468964227">
        <ele>2308.74</ele>
        <time>2022-07-09T10:13:35Z</time>
      </trkpt>
      <trkpt lat="42.6785314176" lon="0.4468783177">
        <ele>2308.74</ele>
        <time>2022-07-09T10:13:55Z</time>
      </trkpt>
      <trkpt lat="42.6785423141" lon="0.4468903877">
        <ele>2309.22</ele>
        <time>2022-07-09T10:14:17Z</time>
      </trkpt>
      <trkpt lat="42.6785420626" lon="0.4468755517">
        <ele>2308.74</ele>
        <time>2022-07-09T10:14:50Z</time>
      </trkpt>
      <trkpt lat="42.6785392966" lon="0.4468823411">
        <ele>2308.74</ele>
        <time>2022-07-09T10:15:14Z</time>
      </trkpt>
      <trkpt lat="42.6785448287" lon="0.4468721990">
        <ele>2309.22</ele>
        <time>2022-07-09T10:15:49Z</time>
      </trkpt>
      <trkpt lat="42.6785491034" lon="0.4468673375">
        <ele>2309.22</ele>
        <time>2022-07-09T10:16:28Z</time>
      </trkpt>
      <trkpt lat="42.6785323396" lon="0.4468913935">
        <ele>2309.22</ele>
        <time>2022-07-09T10:16:53Z</time>
      </trkpt>
      <trkpt lat="42.6785330940" lon="0.4468575306">
        <ele>2309.70</ele>
        <time>2022-07-09T10:17:26Z</time>
      </trkpt>
      <trkpt lat="42.6785325911" lon="0.4468749650">
        <ele>2309.70</ele>
        <time>2022-07-09T10:17:53Z</time>
      </trkpt>
      <trkpt lat="42.6785356924" lon="0.4468666669">
        <ele>2309.70</ele>
        <time>2022-07-09T10:18:19Z</time>
      </trkpt>
      <trkpt lat="42.6785351057" lon="0.4469037149">
        <ele>2309.70</ele>
        <time>2022-07-09T10:18:48Z</time>
      </trkpt>
      <trkpt lat="42.6785480976" lon="0.4468938243">
        <ele>2310.19</ele>
        <time>2022-07-09T10:19:22Z</time>
      </trkpt>
      <trkpt lat="42.6785471756" lon="0.4468778148">
        <ele>2309.70</ele>
        <time>2022-07-09T10:19:53Z</time>
      </trkpt>
      <trkpt lat="42.6785560604" lon="0.4468607157">
        <ele>2311.15</ele>
        <time>2022-07-09T10:20:15Z</time>
      </trkpt>
      <trkpt lat="42.6785501093" lon="0.4468682595">
        <ele>2311.15</ele>
        <time>2022-07-09T10:20:16Z</time>
      </trkpt>
      <trkpt lat="42.6785309147" lon="0.4468604643">
        <ele>2310.19</ele>
        <time>2022-07-09T10:20:40Z</time>
      </trkpt>
      <trkpt lat="42.6785004884" lon="0.4468806647">
        <ele>2310.19</ele>
        <time>2022-07-09T10:21:06Z</time>
      </trkpt>
      <trkpt lat="42.6785085350" lon="0.4468678404">
        <ele>2310.19</ele>
        <time>2022-07-09T10:21:37Z</time>
      </trkpt>
      <trkpt lat="42.6785190962" lon="0.4468825087">
        <ele>2311.15</ele>
        <time>2022-07-09T10:21:58Z</time>
      </trkpt>
      <trkpt lat="42.6785425656" lon="0.4468992725">
        <ele>2310.67</ele>
        <time>2022-07-09T10:22:08Z</time>
      </trkpt>
      <trkpt lat="42.6785619278" lon="0.4468896333">
        <ele>2310.67</ele>
        <time>2022-07-09T10:22:25Z</time>
      </trkpt>
      <trkpt lat="42.6785760093" lon="0.4468986019">
        <ele>2311.15</ele>
        <time>2022-07-09T10:22:43Z</time>
      </trkpt>
      <trkpt lat="42.6785672922" lon="0.4468713608">
        <ele>2312.59</ele>
        <time>2022-07-09T10:22:53Z</time>
      </trkpt>
      <trkpt lat="42.6785445772" lon="0.4468106758">
        <ele>2313.55</ele>
        <time>2022-07-09T10:22:59Z</time>
      </trkpt>
      <trkpt lat="42.6785406377" lon="0.4466940835">
        <ele>2315.47</ele>
        <time>2022-07-09T10:23:13Z</time>
      </trkpt>
      <trkpt lat="42.6785386261" lon="0.4465861246">
        <ele>2317.88</ele>
        <time>2022-07-09T10:23:24Z</time>
      </trkpt>
      <trkpt lat="42.6784788631" lon="0.4464487452">
        <ele>2321.24</ele>
        <time>2022-07-09T10:23:39Z</time>
      </trkpt>
      <trkpt lat="42.6784557290" lon="0.4463702068">
        <ele>2323.16</ele>
        <time>2022-07-09T10:23:49Z</time>
      </trkpt>
      <trkpt lat="42.6783746760" lon="0.4463208374">
        <ele>2325.09</ele>
        <time>2022-07-09T10:24:01Z</time>
      </trkpt>
      <trkpt lat="42.6783341076" lon="0.4462873098">
        <ele>2327.97</ele>
        <time>2022-07-09T10:24:13Z</time>
      </trkpt>
      <trkpt lat="42.6783061959" lon="0.4462247808">
        <ele>2328.93</ele>
        <time>2022-07-09T10:24:28Z</time>
      </trkpt>
      <trkpt lat="42.6782596763" lon="0.4461822007">
        <ele>2330.85</ele>
        <time>2022-07-09T10:24:39Z</time>
      </trkpt>
      <trkpt lat="42.6782020926" lon="0.4461711366">
        <ele>2332.78</ele>
        <time>2022-07-09T10:24:49Z</time>
      </trkpt>
      <trkpt lat="42.6781440061" lon="0.4461069312">
        <ele>2335.66</ele>
        <time>2022-07-09T10:25:02Z</time>
      </trkpt>
      <trkpt lat="42.6781176031" lon="0.4460631777">
        <ele>2338.06</ele>
        <time>2022-07-09T10:25:14Z</time>
      </trkpt>
      <trkpt lat="42.6780893560" lon="0.4459770955">
        <ele>2339.51</ele>
        <time>2022-07-09T10:25:24Z</time>
      </trkpt>
      <trkpt lat="42.6780673116" lon="0.4458063561">
        <ele>2341.43</ele>
        <time>2022-07-09T10:25:37Z</time>
      </trkpt>
      <trkpt lat="42.6780624501" lon="0.4456178471">
        <ele>2343.35</ele>
        <time>2022-07-09T10:25:50Z</time>
      </trkpt>
      <trkpt lat="42.6780623663" lon="0.4454709962">
        <ele>2345.27</ele>
        <time>2022-07-09T10:26:00Z</time>
      </trkpt>
      <trkpt lat="42.6780564152" lon="0.4454538971">
        <ele>2345.75</ele>
        <time>2022-07-09T10:26:02Z</time>
      </trkpt>
      <trkpt lat="42.6780386455" lon="0.4453244805">
        <ele>2348.16</ele>
        <time>2022-07-09T10:26:14Z</time>
      </trkpt>
      <trkpt lat="42.6780342869" lon="0.4453082196">
        <ele>2348.16</ele>
        <time>2022-07-09T10:26:16Z</time>
      </trkpt>
      <trkpt lat="42.6780034415" lon="0.4451412521">
        <ele>2351.04</ele>
        <time>2022-07-09T10:26:31Z</time>
      </trkpt>
      <trkpt lat="42.6779984962" lon="0.4449975863">
        <ele>2353.93</ele>
        <time>2022-07-09T10:26:42Z</time>
      </trkpt>
      <trkpt lat="42.6779884379" lon="0.4449011106">
        <ele>2354.41</ele>
        <time>2022-07-09T10:26:50Z</time>
      </trkpt>
      <trkpt lat="42.6779535692" lon="0.4447592888">
        <ele>2358.25</ele>
        <time>2022-07-09T10:27:05Z</time>
      </trkpt>
      <trkpt lat="42.6779140905" lon="0.4446377512">
        <ele>2360.65</ele>
        <time>2022-07-09T10:27:18Z</time>
      </trkpt>
      <trkpt lat="42.6778856758" lon="0.4444920737">
        <ele>2364.02</ele>
        <time>2022-07-09T10:27:33Z</time>
      </trkpt>
      <trkpt lat="42.6778633799" lon="0.4443733022">
        <ele>2366.90</ele>
        <time>2022-07-09T10:27:47Z</time>
      </trkpt>
      <trkpt lat="42.6778489631" lon="0.4443258606">
        <ele>2369.79</ele>
        <time>2022-07-09T10:28:00Z</time>
      </trkpt>
      <trkpt lat="42.6777912118" lon="0.4442880582">
        <ele>2373.15</ele>
        <time>2022-07-09T10:28:14Z</time>
      </trkpt>
      <trkpt lat="42.6777563430" lon="0.4442064185">
        <ele>2375.55</ele>
        <time>2022-07-09T10:28:26Z</time>
      </trkpt>
      <trkpt lat="42.6776827499" lon="0.4441272933">
        <ele>2377.48</ele>
        <time>2022-07-09T10:28:38Z</time>
      </trkpt>
      <trkpt lat="42.6776293572" lon="0.4439814482">
        <ele>2380.84</ele>
        <time>2022-07-09T10:28:53Z</time>
      </trkpt>
      <trkpt lat="42.6775772218" lon="0.4438567255">
        <ele>2383.73</ele>
        <time>2022-07-09T10:29:09Z</time>
      </trkpt>
      <trkpt lat="42.6775579434" lon="0.4438120499">
        <ele>2385.17</ele>
        <time>2022-07-09T10:29:15Z</time>
      </trkpt>
      <trkpt lat="42.6775575243" lon="0.4437915981">
        <ele>2385.65</ele>
        <time>2022-07-09T10:29:17Z</time>
      </trkpt>
      <trkpt lat="42.6775690913" lon="0.4437581543">
        <ele>2385.65</ele>
        <time>2022-07-09T10:29:20Z</time>
      </trkpt>
      <trkpt lat="42.6775420178" lon="0.4436144885">
        <ele>2389.49</ele>
        <time>2022-07-09T10:29:35Z</time>
      </trkpt>
      <trkpt lat="42.6775372401" lon="0.4435673822">
        <ele>2389.97</ele>
        <time>2022-07-09T10:29:40Z</time>
      </trkpt>
      <trkpt lat="42.6775291096" lon="0.4435492773">
        <ele>2390.94</ele>
        <time>2022-07-09T10:29:43Z</time>
      </trkpt>
      <trkpt lat="42.6775366534" lon="0.4434178490">
        <ele>2393.34</ele>
        <time>2022-07-09T10:29:57Z</time>
      </trkpt>
      <trkpt lat="42.6775135193" lon="0.4433220439">
        <ele>2395.74</ele>
        <time>2022-07-09T10:30:10Z</time>
      </trkpt>
      <trkpt lat="42.6775139384" lon="0.4433131590">
        <ele>2396.22</ele>
        <time>2022-07-09T10:30:11Z</time>
      </trkpt>
      <trkpt lat="42.6774740405" lon="0.4432024341">
        <ele>2398.63</ele>
        <time>2022-07-09T10:30:24Z</time>
      </trkpt>
      <trkpt lat="42.6774660777" lon="0.4431081377">
        <ele>2400.55</ele>
        <time>2022-07-09T10:30:36Z</time>
      </trkpt>
      <trkpt lat="42.6774578635" lon="0.4430415016">
        <ele>2402.95</ele>
        <time>2022-07-09T10:30:48Z</time>
      </trkpt>
      <trkpt lat="42.6774575282" lon="0.4429902043">
        <ele>2402.47</ele>
        <time>2022-07-09T10:30:53Z</time>
      </trkpt>
      <trkpt lat="42.6774423569" lon="0.4428272601">
        <ele>2405.36</ele>
        <time>2022-07-09T10:31:07Z</time>
      </trkpt>
      <trkpt lat="42.6774499007" lon="0.4427036270">
        <ele>2407.76</ele>
        <time>2022-07-09T10:31:18Z</time>
      </trkpt>
      <trkpt lat="42.6774548460" lon="0.4426115099">
        <ele>2408.72</ele>
        <time>2022-07-09T10:31:29Z</time>
      </trkpt>
      <trkpt lat="42.6774522476" lon="0.4424846079">
        <ele>2411.60</ele>
        <time>2022-07-09T10:31:40Z</time>
      </trkpt>
      <trkpt lat="42.6774332207" lon="0.4423850309">
        <ele>2413.53</ele>
        <time>2022-07-09T10:31:51Z</time>
      </trkpt>
      <trkpt lat="42.6774117630" lon="0.4422717914">
        <ele>2415.45</ele>
        <time>2022-07-09T10:32:03Z</time>
      </trkpt>
      <trkpt lat="42.6773904730" lon="0.4422319774">
        <ele>2416.89</ele>
        <time>2022-07-09T10:32:08Z</time>
      </trkpt>
      <trkpt lat="42.6773622259" lon="0.4421856254">
        <ele>2417.85</ele>
        <time>2022-07-09T10:32:14Z</time>
      </trkpt>
      <trkpt lat="42.6773567777" lon="0.4420851264">
        <ele>2417.85</ele>
        <time>2022-07-09T10:32:21Z</time>
      </trkpt>
      <trkpt lat="42.6773478929" lon="0.4420634173">
        <ele>2417.85</ele>
        <time>2022-07-09T10:32:23Z</time>
      </trkpt>
      <trkpt lat="42.6773545146" lon="0.4419706296">
        <ele>2419.30</ele>
        <time>2022-07-09T10:32:31Z</time>
      </trkpt>
      <trkpt lat="42.6772820111" lon="0.4418583959">
        <ele>2420.74</ele>
        <time>2022-07-09T10:32:42Z</time>
      </trkpt>
      <trkpt lat="42.6772698574" lon="0.4418133013">
        <ele>2421.22</ele>
        <time>2022-07-09T10:32:46Z</time>
      </trkpt>
      <trkpt lat="42.6772467233" lon="0.4417032469">
        <ele>2423.62</ele>
        <time>2022-07-09T10:32:58Z</time>
      </trkpt>
      <trkpt lat="42.6771836076" lon="0.4416179191">
        <ele>2425.54</ele>
        <time>2022-07-09T10:33:09Z</time>
      </trkpt>
      <trkpt lat="42.6771557797" lon="0.4415042605">
        <ele>2427.95</ele>
        <time>2022-07-09T10:33:22Z</time>
      </trkpt>
      <trkpt lat="42.6771494932" lon="0.4414969683">
        <ele>2428.43</ele>
        <time>2022-07-09T10:33:23Z</time>
      </trkpt>
      <trkpt lat="42.6770839468" lon="0.4413947091">
        <ele>2430.83</ele>
        <time>2022-07-09T10:33:37Z</time>
      </trkpt>
      <trkpt lat="42.6770209987" lon="0.4412847385">
        <ele>2433.71</ele>
        <time>2022-07-09T10:33:51Z</time>
      </trkpt>
      <trkpt lat="42.6770170592" lon="0.4412632808">
        <ele>2434.68</ele>
        <time>2022-07-09T10:33:53Z</time>
      </trkpt>
      <trkpt lat="42.6769920811" lon="0.4411438387">
        <ele>2436.60</ele>
        <time>2022-07-09T10:34:07Z</time>
      </trkpt>
      <trkpt lat="42.6769398618" lon="0.4410748556">
        <ele>2438.04</ele>
        <time>2022-07-09T10:34:15Z</time>
      </trkpt>
      <trkpt lat="42.6768916659" lon="0.4409741051">
        <ele>2440.44</ele>
        <time>2022-07-09T10:34:29Z</time>
      </trkpt>
      <trkpt lat="42.6768394466" lon="0.4408826586">
        <ele>2442.85</ele>
        <time>2022-07-09T10:34:41Z</time>
      </trkpt>
      <trkpt lat="42.6767879818" lon="0.4408003483">
        <ele>2443.81</ele>
        <time>2022-07-09T10:34:51Z</time>
      </trkpt>
      <trkpt lat="42.6767630875" lon="0.4407482129">
        <ele>2445.25</ele>
        <time>2022-07-09T10:34:57Z</time>
      </trkpt>
      <trkpt lat="42.6767316554" lon="0.4406897072">
        <ele>2446.69</ele>
        <time>2022-07-09T10:35:04Z</time>
      </trkpt>
      <trkpt lat="42.6766572241" lon="0.4405790661">
        <ele>2449.58</ele>
        <time>2022-07-09T10:35:18Z</time>
      </trkpt>
      <trkpt lat="42.6766343415" lon="0.4405669123">
        <ele>2450.06</ele>
        <time>2022-07-09T10:35:21Z</time>
      </trkpt>
      <trkpt lat="42.6766079385" lon="0.4405031260">
        <ele>2452.94</ele>
        <time>2022-07-09T10:35:33Z</time>
      </trkpt>
      <trkpt lat="42.6765622571" lon="0.4404276889">
        <ele>2455.34</ele>
        <time>2022-07-09T10:35:44Z</time>
      </trkpt>
      <trkpt lat="42.6765571442" lon="0.4403778166">
        <ele>2455.82</ele>
        <time>2022-07-09T10:35:49Z</time>
      </trkpt>
      <trkpt lat="42.6765578985" lon="0.4403311294">
        <ele>2456.79</ele>
        <time>2022-07-09T10:35:53Z</time>
      </trkpt>
      <trkpt lat="42.6765356027" lon="0.4402582068">
        <ele>2457.75</ele>
        <time>2022-07-09T10:36:01Z</time>
      </trkpt>
      <trkpt lat="42.6764786057" lon="0.4401946720">
        <ele>2460.15</ele>
        <time>2022-07-09T10:36:13Z</time>
      </trkpt>
      <trkpt lat="42.6764664520" lon="0.4401940852">
        <ele>2460.15</ele>
        <time>2022-07-09T10:36:30Z</time>
      </trkpt>
      <trkpt lat="42.6764693856" lon="0.4402221646">
        <ele>2460.15</ele>
        <time>2022-07-09T10:36:46Z</time>
      </trkpt>
      <trkpt lat="42.6764892507" lon="0.4402266070">
        <ele>2459.67</ele>
        <time>2022-07-09T10:37:05Z</time>
      </trkpt>
      <trkpt lat="42.6764604170" lon="0.4402141180">
        <ele>2459.67</ele>
        <time>2022-07-09T10:37:19Z</time>
      </trkpt>
      <trkpt lat="42.6764692180" lon="0.4401301313">
        <ele>2462.07</ele>
        <time>2022-07-09T10:37:35Z</time>
      </trkpt>
      <trkpt lat="42.6764418092" lon="0.4400246870">
        <ele>2465.44</ele>
        <time>2022-07-09T10:37:48Z</time>
      </trkpt>
      <trkpt lat="42.6764178369" lon="0.4399219248">
        <ele>2468.32</ele>
        <time>2022-07-09T10:38:00Z</time>
      </trkpt>
      <trkpt lat="42.6764031686" lon="0.4398321547">
        <ele>2470.73</ele>
        <time>2022-07-09T10:38:13Z</time>
      </trkpt>
      <trkpt lat="42.6763861533" lon="0.4397342540">
        <ele>2474.09</ele>
        <time>2022-07-09T10:38:27Z</time>
      </trkpt>
      <trkpt lat="42.6763846446" lon="0.4396924283">
        <ele>2475.05</ele>
        <time>2022-07-09T10:38:32Z</time>
      </trkpt>
      <trkpt lat="42.6763902605" lon="0.4395701364">
        <ele>2477.45</ele>
        <time>2022-07-09T10:38:46Z</time>
      </trkpt>
      <trkpt lat="42.6763692219" lon="0.4394807015">
        <ele>2479.38</ele>
        <time>2022-07-09T10:38:57Z</time>
      </trkpt>
      <trkpt lat="42.6763760950" lon="0.4393295757">
        <ele>2481.30</ele>
        <time>2022-07-09T10:39:11Z</time>
      </trkpt>
      <trkpt lat="42.6763918530" lon="0.4392260592">
        <ele>2483.70</ele>
        <time>2022-07-09T10:39:22Z</time>
      </trkpt>
      <trkpt lat="42.6764016598" lon="0.4391771089">
        <ele>2484.18</ele>
        <time>2022-07-09T10:39:26Z</time>
      </trkpt>
      <trkpt lat="42.6764312480" lon="0.4391181003">
        <ele>2487.07</ele>
        <time>2022-07-09T10:39:35Z</time>
      </trkpt>
      <trkpt lat="42.6764045097" lon="0.4390616901">
        <ele>2489.47</ele>
        <time>2022-07-09T10:39:46Z</time>
      </trkpt>
      <trkpt lat="42.6764045935" lon="0.4389733449">
        <ele>2491.87</ele>
        <time>2022-07-09T10:39:58Z</time>
      </trkpt>
      <trkpt lat="42.6763985585" lon="0.4388868436">
        <ele>2494.28</ele>
        <time>2022-07-09T10:40:14Z</time>
      </trkpt>
      <trkpt lat="42.6764020789" lon="0.4388281703">
        <ele>2497.64</ele>
        <time>2022-07-09T10:40:25Z</time>
      </trkpt>
      <trkpt lat="42.6764102932" lon="0.4387544096">
        <ele>2500.53</ele>
        <time>2022-07-09T10:40:39Z</time>
      </trkpt>
      <trkpt lat="42.6764311641" lon="0.4386736080">
        <ele>2503.89</ele>
        <time>2022-07-09T10:40:53Z</time>
      </trkpt>
      <trkpt lat="42.6764384564" lon="0.4385813233">
        <ele>2506.77</ele>
        <time>2022-07-09T10:41:06Z</time>
      </trkpt>
      <trkpt lat="42.6764172502" lon="0.4385274276">
        <ele>2510.14</ele>
        <time>2022-07-09T10:41:18Z</time>
      </trkpt>
      <trkpt lat="42.6764024980" lon="0.4384568520">
        <ele>2513.02</ele>
        <time>2022-07-09T10:41:29Z</time>
      </trkpt>
      <trkpt lat="42.6764221117" lon="0.4383227415">
        <ele>2516.39</ele>
        <time>2022-07-09T10:41:43Z</time>
      </trkpt>
      <trkpt lat="42.6764537115" lon="0.4381988570">
        <ele>2518.31</ele>
        <time>2022-07-09T10:41:57Z</time>
      </trkpt>
      <trkpt lat="42.6764506940" lon="0.4381919838">
        <ele>2518.31</ele>
        <time>2022-07-09T10:41:58Z</time>
      </trkpt>
      <trkpt lat="42.6764697209" lon="0.4380541015">
        <ele>2521.68</ele>
        <time>2022-07-09T10:42:14Z</time>
      </trkpt>
      <trkpt lat="42.6764584891" lon="0.4379571229">
        <ele>2525.04</ele>
        <time>2022-07-09T10:42:25Z</time>
      </trkpt>
      <trkpt lat="42.6764482632" lon="0.4378109425">
        <ele>2527.92</ele>
        <time>2022-07-09T10:42:40Z</time>
      </trkpt>
      <trkpt lat="42.6764504425" lon="0.4377873894">
        <ele>2528.40</ele>
        <time>2022-07-09T10:42:42Z</time>
      </trkpt>
      <trkpt lat="42.6764525380" lon="0.4376631696">
        <ele>2530.33</ele>
        <time>2022-07-09T10:42:53Z</time>
      </trkpt>
      <trkpt lat="42.6764493529" lon="0.4375308193">
        <ele>2532.73</ele>
        <time>2022-07-09T10:43:03Z</time>
      </trkpt>
      <trkpt lat="42.6764730737" lon="0.4373655282">
        <ele>2534.65</ele>
        <time>2022-07-09T10:43:17Z</time>
      </trkpt>
      <trkpt lat="42.6765246224" lon="0.4372241255">
        <ele>2536.58</ele>
        <time>2022-07-09T10:43:30Z</time>
      </trkpt>
      <trkpt lat="42.6765617542" lon="0.4370331857">
        <ele>2539.94</ele>
        <time>2022-07-09T10:43:45Z</time>
      </trkpt>
      <trkpt lat="42.6766005624" lon="0.4368656315">
        <ele>2542.34</ele>
        <time>2022-07-09T10:43:59Z</time>
      </trkpt>
      <trkpt lat="42.6766396221" lon="0.4367695749">
        <ele>2542.82</ele>
        <time>2022-07-09T10:44:06Z</time>
      </trkpt>
      <trkpt lat="42.6766734850" lon="0.4365472868">
        <ele>2543.79</ele>
        <time>2022-07-09T10:44:20Z</time>
      </trkpt>
      <trkpt lat="42.6767487545" lon="0.4363331292">
        <ele>2543.79</ele>
        <time>2022-07-09T10:44:32Z</time>
      </trkpt>
      <trkpt lat="42.6767833717" lon="0.4361744598">
        <ele>2542.82</ele>
        <time>2022-07-09T10:44:42Z</time>
      </trkpt>
      <trkpt lat="42.6768525224" lon="0.4362203088">
        <ele>2542.34</ele>
        <time>2022-07-09T10:44:52Z</time>
      </trkpt>
      <trkpt lat="42.6769225113" lon="0.4362941533">
        <ele>2542.34</ele>
        <time>2022-07-09T10:44:59Z</time>
      </trkpt>
      <trkpt lat="42.6769426279" lon="0.4363378230">
        <ele>2542.34</ele>
        <time>2022-07-09T10:45:02Z</time>
      </trkpt>
      <trkpt lat="42.6769818552" lon="0.4363824148">
        <ele>2543.79</ele>
        <time>2022-07-09T10:45:07Z</time>
      </trkpt>
      <trkpt lat="42.6771140378" lon="0.4364653956">
        <ele>2546.19</ele>
        <time>2022-07-09T10:45:21Z</time>
      </trkpt>
      <trkpt lat="42.6772123575" lon="0.4365260806">
        <ele>2549.55</ele>
        <time>2022-07-09T10:45:34Z</time>
      </trkpt>
      <trkpt lat="42.6773994416" lon="0.4366039485">
        <ele>2550.03</ele>
        <time>2022-07-09T10:45:49Z</time>
      </trkpt>
      <trkpt lat="42.6774771418" lon="0.4366137553">
        <ele>2548.59</ele>
        <time>2022-07-09T10:45:55Z</time>
      </trkpt>
      <trkpt lat="42.6775017008" lon="0.4366348777">
        <ele>2548.59</ele>
        <time>2022-07-09T10:45:57Z</time>
      </trkpt>
      <trkpt lat="42.6775265951" lon="0.4366409965">
        <ele>2548.59</ele>
        <time>2022-07-09T10:46:00Z</time>
      </trkpt>
      <trkpt lat="42.6776270941" lon="0.4365650564">
        <ele>2548.11</ele>
        <time>2022-07-09T10:46:10Z</time>
      </trkpt>
      <trkpt lat="42.6776486356" lon="0.4365345463">
        <ele>2548.11</ele>
        <time>2022-07-09T10:46:13Z</time>
      </trkpt>
      <trkpt lat="42.6776894554" lon="0.4365168605">
        <ele>2548.11</ele>
        <time>2022-07-09T10:46:17Z</time>
      </trkpt>
      <trkpt lat="42.6777581871" lon="0.4364624619">
        <ele>2548.11</ele>
        <time>2022-07-09T10:46:23Z</time>
      </trkpt>
      <trkpt lat="42.6779130846" lon="0.4364039563">
        <ele>2548.59</ele>
        <time>2022-07-09T10:46:36Z</time>
      </trkpt>
      <trkpt lat="42.6780052856" lon="0.4363421816">
        <ele>2549.55</ele>
        <time>2022-07-09T10:46:47Z</time>
      </trkpt>
      <trkpt lat="42.6780301798" lon="0.4363431036">
        <ele>2549.55</ele>
        <time>2022-07-09T10:46:49Z</time>
      </trkpt>
      <trkpt lat="42.6782067865" lon="0.4364130925">
        <ele>2551.00</ele>
        <time>2022-07-09T10:47:04Z</time>
      </trkpt>
      <trkpt lat="42.6783243008" lon="0.4364636354">
        <ele>2552.44</ele>
        <time>2022-07-09T10:47:15Z</time>
      </trkpt>
      <trkpt lat="42.6784602553" lon="0.4365706723">
        <ele>2553.40</ele>
        <time>2022-07-09T10:47:29Z</time>
      </trkpt>
      <trkpt lat="42.6784702297" lon="0.4365725163">
        <ele>2554.36</ele>
        <time>2022-07-09T10:47:30Z</time>
      </trkpt>
      <trkpt lat="42.6785719022" lon="0.4366432596">
        <ele>2557.24</ele>
        <time>2022-07-09T10:47:43Z</time>
      </trkpt>
      <trkpt lat="42.6787485089" lon="0.4367053695">
        <ele>2558.21</ele>
        <time>2022-07-09T10:47:59Z</time>
      </trkpt>
      <trkpt lat="42.6787715591" lon="0.4367100634">
        <ele>2558.69</ele>
        <time>2022-07-09T10:48:01Z</time>
      </trkpt>
      <trkpt lat="42.6788098644" lon="0.4366423376">
        <ele>2558.69</ele>
        <time>2022-07-09T10:48:07Z</time>
      </trkpt>
      <trkpt lat="42.6788309868" lon="0.4366137553">
        <ele>2556.76</ele>
        <time>2022-07-09T10:48:10Z</time>
      </trkpt>
      <trkpt lat="42.6790162269" lon="0.4364943970">
        <ele>2555.32</ele>
        <time>2022-07-09T10:48:26Z</time>
      </trkpt>
      <trkpt lat="42.6790259499" lon="0.4364957381">
        <ele>2554.84</ele>
        <time>2022-07-09T10:48:27Z</time>
      </trkpt>
      <trkpt lat="42.6790759061" lon="0.4364915472">
        <ele>2553.40</ele>
        <time>2022-07-09T10:48:31Z</time>
      </trkpt>
      <trkpt lat="42.6791341603" lon="0.4364813212">
        <ele>2552.44</ele>
        <time>2022-07-09T10:48:36Z</time>
      </trkpt>
      <trkpt lat="42.6792377606" lon="0.4364980012">
        <ele>2550.03</ele>
        <time>2022-07-09T10:48:45Z</time>
      </trkpt>
      <trkpt lat="42.6793126948" lon="0.4363778885">
        <ele>2549.55</ele>
        <time>2022-07-09T10:48:54Z</time>
      </trkpt>
      <trkpt lat="42.6793760620" lon="0.4362264276">
        <ele>2549.55</ele>
        <time>2022-07-09T10:49:05Z</time>
      </trkpt>
      <trkpt lat="42.6793732122" lon="0.4361424409">
        <ele>2549.07</ele>
        <time>2022-07-09T10:49:12Z</time>
      </trkpt>
      <trkpt lat="42.6793933287" lon="0.4361146130">
        <ele>2548.59</ele>
        <time>2022-07-09T10:49:15Z</time>
      </trkpt>
      <trkpt lat="42.6794170495" lon="0.4360933229">
        <ele>2547.63</ele>
        <time>2022-07-09T10:49:27Z</time>
      </trkpt>
      <trkpt lat="42.6794035546" lon="0.4360858630">
        <ele>2548.11</ele>
        <time>2022-07-09T10:49:54Z</time>
      </trkpt>
      <trkpt lat="42.6794207375" lon="0.4360844381">
        <ele>2548.11</ele>
        <time>2022-07-09T10:50:07Z</time>
      </trkpt>
      <trkpt lat="42.6794217434" lon="0.4360807501">
        <ele>2547.63</ele>
        <time>2022-07-09T10:50:33Z</time>
      </trkpt>
      <trkpt lat="42.6794184744" lon="0.4361052252">
        <ele>2548.11</ele>
        <time>2022-07-09T10:51:13Z</time>
      </trkpt>
      <trkpt lat="42.6794242579" lon="0.4360810015">
        <ele>2548.11</ele>
        <time>2022-07-09T10:51:35Z</time>
      </trkpt>
      <trkpt lat="42.6794154570" lon="0.4360623937">
        <ele>2549.55</ele>
        <time>2022-07-09T10:51:51Z</time>
      </trkpt>
      <trkpt lat="42.6794167981" lon="0.4360888805">
        <ele>2550.03</ele>
        <time>2022-07-09T10:52:07Z</time>
      </trkpt>
      <trkpt lat="42.6794239227" lon="0.4360257648">
        <ele>2550.03</ele>
        <time>2022-07-09T10:52:13Z</time>
      </trkpt>
      <trkpt lat="42.6794276945" lon="0.4360012058">
        <ele>2549.07</ele>
        <time>2022-07-09T10:52:15Z</time>
      </trkpt>
      <trkpt lat="42.6794547681" lon="0.4359127767">
        <ele>2547.63</ele>
        <time>2022-07-09T10:52:21Z</time>
      </trkpt>
      <trkpt lat="42.6794698555" lon="0.4358593002">
        <ele>2547.63</ele>
        <time>2022-07-09T10:52:24Z</time>
      </trkpt>
      <trkpt lat="42.6794768125" lon="0.4357892275">
        <ele>2545.71</ele>
        <time>2022-07-09T10:52:28Z</time>
      </trkpt>
      <trkpt lat="42.6794862840" lon="0.4355896544">
        <ele>2543.31</ele>
        <time>2022-07-09T10:52:42Z</time>
      </trkpt>
      <trkpt lat="42.6794952527" lon="0.4355410393">
        <ele>2541.86</ele>
        <time>2022-07-09T10:52:45Z</time>
      </trkpt>
      <trkpt lat="42.6795308758" lon="0.4354308173">
        <ele>2538.98</ele>
        <time>2022-07-09T10:52:53Z</time>
      </trkpt>
      <trkpt lat="42.6794779021" lon="0.4352119658">
        <ele>2535.61</ele>
        <time>2022-07-09T10:53:06Z</time>
      </trkpt>
      <trkpt lat="42.6794930734" lon="0.4349978920">
        <ele>2532.73</ele>
        <time>2022-07-09T10:53:18Z</time>
      </trkpt>
      <trkpt lat="42.6794801652" lon="0.4349091277">
        <ele>2530.33</ele>
        <time>2022-07-09T10:53:25Z</time>
      </trkpt>
      <trkpt lat="42.6794484816" lon="0.4348979797">
        <ele>2528.89</ele>
        <time>2022-07-09T10:53:28Z</time>
      </trkpt>
      <trkpt lat="42.6794391777" lon="0.4348912742">
        <ele>2528.89</ele>
        <time>2022-07-09T10:53:29Z</time>
      </trkpt>
      <trkpt lat="42.6794408541" lon="0.4348085448">
        <ele>2527.92</ele>
        <time>2022-07-09T10:53:42Z</time>
      </trkpt>
      <trkpt lat="42.6794514991" lon="0.4347494524">
        <ele>2526.48</ele>
        <time>2022-07-09T10:53:48Z</time>
      </trkpt>
      <trkpt lat="42.6794385072" lon="0.4347247258">
        <ele>2525.52</ele>
        <time>2022-07-09T10:53:50Z</time>
      </trkpt>
      <trkpt lat="42.6794344001" lon="0.4346935451">
        <ele>2525.04</ele>
        <time>2022-07-09T10:53:52Z</time>
      </trkpt>
      <trkpt lat="42.6794310473" lon="0.4346220475">
        <ele>2522.64</ele>
        <time>2022-07-09T10:53:57Z</time>
      </trkpt>
      <trkpt lat="42.6794226654" lon="0.4345039465">
        <ele>2520.71</ele>
        <time>2022-07-09T10:54:04Z</time>
      </trkpt>
      <trkpt lat="42.6794263534" lon="0.4343862645">
        <ele>2517.83</ele>
        <time>2022-07-09T10:54:12Z</time>
      </trkpt>
      <trkpt lat="42.6794188097" lon="0.4342865199">
        <ele>2515.43</ele>
        <time>2022-07-09T10:54:19Z</time>
      </trkpt>
      <trkpt lat="42.6794141158" lon="0.4341832548">
        <ele>2513.50</ele>
        <time>2022-07-09T10:54:25Z</time>
      </trkpt>
      <trkpt lat="42.6794140320" lon="0.4341499787">
        <ele>2513.02</ele>
        <time>2022-07-09T10:54:27Z</time>
      </trkpt>
      <trkpt lat="42.6794049796" lon="0.4341196362">
        <ele>2512.54</ele>
        <time>2022-07-09T10:54:29Z</time>
      </trkpt>
      <trkpt lat="42.6794333104" lon="0.4340053070">
        <ele>2511.58</ele>
        <time>2022-07-09T10:54:35Z</time>
      </trkpt>
      <trkpt lat="42.6794245094" lon="0.4337210767">
        <ele>2509.66</ele>
        <time>2022-07-09T10:54:50Z</time>
      </trkpt>
      <trkpt lat="42.6794205699" lon="0.4336132016">
        <ele>2507.26</ele>
        <time>2022-07-09T10:54:57Z</time>
      </trkpt>
      <trkpt lat="42.6794492360" lon="0.4335628264">
        <ele>2506.77</ele>
        <time>2022-07-09T10:55:02Z</time>
      </trkpt>
      <trkpt lat="42.6794463862" lon="0.4335355014">
        <ele>2505.33</ele>
        <time>2022-07-09T10:55:04Z</time>
      </trkpt>
      <trkpt lat="42.6794545166" lon="0.4335079249">
        <ele>2504.85</ele>
        <time>2022-07-09T10:55:06Z</time>
      </trkpt>
      <trkpt lat="42.6794655807" lon="0.4333565477">
        <ele>2501.01</ele>
        <time>2022-07-09T10:55:17Z</time>
      </trkpt>
      <trkpt lat="42.6794623118" lon="0.4333000537">
        <ele>2500.53</ele>
        <time>2022-07-09T10:55:21Z</time>
      </trkpt>
      <trkpt lat="42.6794715319" lon="0.4332012311">
        <ele>2498.60</ele>
        <time>2022-07-09T10:55:28Z</time>
      </trkpt>
      <trkpt lat="42.6794638205" lon="0.4331694636">
        <ele>2497.64</ele>
        <time>2022-07-09T10:55:30Z</time>
      </trkpt>
      <trkpt lat="42.6794996113" lon="0.4329932760">
        <ele>2495.24</ele>
        <time>2022-07-09T10:55:42Z</time>
      </trkpt>
      <trkpt lat="42.6795248408" lon="0.4327769391">
        <ele>2492.36</ele>
        <time>2022-07-09T10:55:56Z</time>
      </trkpt>
      <trkpt lat="42.6795188896" lon="0.4326984007">
        <ele>2490.91</ele>
        <time>2022-07-09T10:56:10Z</time>
      </trkpt>
      <trkpt lat="42.6795170456" lon="0.4326940421">
        <ele>2490.91</ele>
        <time>2022-07-09T10:56:11Z</time>
      </trkpt>
      <trkpt lat="42.6795424428" lon="0.4325269908">
        <ele>2489.47</ele>
        <time>2022-07-09T10:56:20Z</time>
      </trkpt>
      <trkpt lat="42.6795728691" lon="0.4323929641">
        <ele>2486.59</ele>
        <time>2022-07-09T10:56:28Z</time>
      </trkpt>
      <trkpt lat="42.6796020381" lon="0.4322814010">
        <ele>2485.15</ele>
        <time>2022-07-09T10:56:34Z</time>
      </trkpt>
      <trkpt lat="42.6796196401" lon="0.4321159422">
        <ele>2482.74</ele>
        <time>2022-07-09T10:56:43Z</time>
      </trkpt>
      <trkpt lat="42.6796500664" lon="0.4318732861">
        <ele>2480.82</ele>
        <time>2022-07-09T10:56:57Z</time>
      </trkpt>
      <trkpt lat="42.6796516590" lon="0.4317845218">
        <ele>2478.90</ele>
        <time>2022-07-09T10:57:04Z</time>
      </trkpt>
      <trkpt lat="42.6796059776" lon="0.4317796603">
        <ele>2478.90</ele>
        <time>2022-07-09T10:57:08Z</time>
      </trkpt>
      <trkpt lat="42.6795957517" lon="0.4317202326">
        <ele>2475.05</ele>
        <time>2022-07-09T10:57:13Z</time>
      </trkpt>
      <trkpt lat="42.6796050556" lon="0.4316916503">
        <ele>2474.57</ele>
        <time>2022-07-09T10:57:15Z</time>
      </trkpt>
      <trkpt lat="42.6796102524" lon="0.4316574521">
        <ele>2474.09</ele>
        <time>2022-07-09T10:57:17Z</time>
      </trkpt>
      <trkpt lat="42.6795618050" lon="0.4314991180">
        <ele>2471.69</ele>
        <time>2022-07-09T10:57:28Z</time>
      </trkpt>
      <trkpt lat="42.6795245893" lon="0.4314118624">
        <ele>2469.76</ele>
        <time>2022-07-09T10:57:34Z</time>
      </trkpt>
      <trkpt lat="42.6795067359" lon="0.4313737247">
        <ele>2469.28</ele>
        <time>2022-07-09T10:57:37Z</time>
      </trkpt>
      <trkpt lat="42.6794862002" lon="0.4313479923">
        <ele>2469.28</ele>
        <time>2022-07-09T10:57:40Z</time>
      </trkpt>
      <trkpt lat="42.6794851944" lon="0.4313050769">
        <ele>2466.88</ele>
        <time>2022-07-09T10:57:43Z</time>
      </trkpt>
      <trkpt lat="42.6794599649" lon="0.4312203359">
        <ele>2465.92</ele>
        <time>2022-07-09T10:57:49Z</time>
      </trkpt>
      <trkpt lat="42.6794825122" lon="0.4310771730">
        <ele>2462.55</ele>
        <time>2022-07-09T10:58:04Z</time>
      </trkpt>
      <trkpt lat="42.6794768125" lon="0.4310509376">
        <ele>2462.55</ele>
        <time>2022-07-09T10:58:06Z</time>
      </trkpt>
      <trkpt lat="42.6794799976" lon="0.4309853073">
        <ele>2462.55</ele>
        <time>2022-07-09T10:58:10Z</time>
      </trkpt>
      <trkpt lat="42.6795286965" lon="0.4307820462">
        <ele>2459.19</ele>
        <time>2022-07-09T10:58:22Z</time>
      </trkpt>
      <trkpt lat="42.6795185544" lon="0.4306299984">
        <ele>2457.27</ele>
        <time>2022-07-09T10:58:30Z</time>
      </trkpt>
      <trkpt lat="42.6795160398" lon="0.4305993207">
        <ele>2457.27</ele>
        <time>2022-07-09T10:58:32Z</time>
      </trkpt>
      <trkpt lat="42.6795191411" lon="0.4305514600">
        <ele>2455.82</ele>
        <time>2022-07-09T10:58:35Z</time>
      </trkpt>
      <trkpt lat="42.6794943307" lon="0.4304774478">
        <ele>2455.34</ele>
        <time>2022-07-09T10:58:40Z</time>
      </trkpt>
      <trkpt lat="42.6794943307" lon="0.4304325208">
        <ele>2453.90</ele>
        <time>2022-07-09T10:58:43Z</time>
      </trkpt>
      <trkpt lat="42.6794910617" lon="0.4304161761">
        <ele>2453.90</ele>
        <time>2022-07-09T10:58:44Z</time>
      </trkpt>
      <trkpt lat="42.6794867031" lon="0.4303819779">
        <ele>2452.94</ele>
        <time>2022-07-09T10:58:46Z</time>
      </trkpt>
      <trkpt lat="42.6794856973" lon="0.4303377215">
        <ele>2451.98</ele>
        <time>2022-07-09T10:58:50Z</time>
      </trkpt>
      <trkpt lat="42.6794629823" lon="0.4303048644">
        <ele>2451.50</ele>
        <time>2022-07-09T10:58:53Z</time>
      </trkpt>
      <trkpt lat="42.6794671733" lon="0.4301898647">
        <ele>2448.13</ele>
        <time>2022-07-09T10:59:00Z</time>
      </trkpt>
      <trkpt lat="42.6794182230" lon="0.4300689138">
        <ele>2444.77</ele>
        <time>2022-07-09T10:59:10Z</time>
      </trkpt>
      <trkpt lat="42.6794154570" lon="0.4300436843">
        <ele>2443.81</ele>
        <time>2022-07-09T10:59:12Z</time>
      </trkpt>
      <trkpt lat="42.6794017106" lon="0.4300151020">
        <ele>2443.33</ele>
        <time>2022-07-09T10:59:14Z</time>
      </trkpt>
      <trkpt lat="42.6793996990" lon="0.4298984259">
        <ele>2439.48</ele>
        <time>2022-07-09T10:59:23Z</time>
      </trkpt>
      <trkpt lat="42.6794419438" lon="0.4298280180">
        <ele>2436.12</ele>
        <time>2022-07-09T10:59:36Z</time>
      </trkpt>
      <trkpt lat="42.6794338971" lon="0.4298027884">
        <ele>2435.16</ele>
        <time>2022-07-09T10:59:39Z</time>
      </trkpt>
      <trkpt lat="42.6794131100" lon="0.4297842644">
        <ele>2434.68</ele>
        <time>2022-07-09T10:59:41Z</time>
      </trkpt>
      <trkpt lat="42.6793714520" lon="0.4297516588">
        <ele>2433.23</ele>
        <time>2022-07-09T10:59:45Z</time>
      </trkpt>
      <trkpt lat="42.6792561170" lon="0.4295851104">
        <ele>2432.75</ele>
        <time>2022-07-09T10:59:58Z</time>
      </trkpt>
      <trkpt lat="42.6792525966" lon="0.4295717832">
        <ele>2432.75</ele>
        <time>2022-07-09T10:59:59Z</time>
      </trkpt>
      <trkpt lat="42.6792505849" lon="0.4293591343">
        <ele>2431.31</ele>
        <time>2022-07-09T11:00:12Z</time>
      </trkpt>
      <trkpt lat="42.6792479027" lon="0.4293258581">
        <ele>2430.83</ele>
        <time>2022-07-09T11:00:14Z</time>
      </trkpt>
      <trkpt lat="42.6792467292" lon="0.4291148856">
        <ele>2427.47</ele>
        <time>2022-07-09T11:00:27Z</time>
      </trkpt>
      <trkpt lat="42.6792655885" lon="0.4290620796">
        <ele>2427.47</ele>
        <time>2022-07-09T11:00:30Z</time>
      </trkpt>
      <trkpt lat="42.6792939194" lon="0.4288692120">
        <ele>2424.10</ele>
        <time>2022-07-09T11:00:43Z</time>
      </trkpt>
      <trkpt lat="42.6792967692" lon="0.4287946969">
        <ele>2423.62</ele>
        <time>2022-07-09T11:00:49Z</time>
      </trkpt>
      <trkpt lat="42.6793096773" lon="0.4286417272">
        <ele>2423.62</ele>
        <time>2022-07-09T11:00:57Z</time>
      </trkpt>
      <trkpt lat="42.6793273631" lon="0.4285424855">
        <ele>2423.14</ele>
        <time>2022-07-09T11:01:02Z</time>
      </trkpt>
      <trkpt lat="42.6792971883" lon="0.4284518771">
        <ele>2421.22</ele>
        <time>2022-07-09T11:01:08Z</time>
      </trkpt>
      <trkpt lat="42.6792900637" lon="0.4283575807">
        <ele>2421.22</ele>
        <time>2022-07-09T11:01:13Z</time>
      </trkpt>
      <trkpt lat="42.6792779099" lon="0.4282810539">
        <ele>2421.22</ele>
        <time>2022-07-09T11:01:17Z</time>
      </trkpt>
      <trkpt lat="42.6792810112" lon="0.4282435030">
        <ele>2421.22</ele>
        <time>2022-07-09T11:01:19Z</time>
      </trkpt>
      <trkpt lat="42.6793027204" lon="0.4281368013">
        <ele>2421.22</ele>
        <time>2022-07-09T11:01:25Z</time>
      </trkpt>
      <trkpt lat="42.6793142036" lon="0.4280562513">
        <ele>2420.26</ele>
        <time>2022-07-09T11:01:29Z</time>
      </trkpt>
      <trkpt lat="42.6792962663" lon="0.4279686604">
        <ele>2418.33</ele>
        <time>2022-07-09T11:01:34Z</time>
      </trkpt>
      <trkpt lat="42.6792906504" lon="0.4279152676">
        <ele>2417.37</ele>
        <time>2022-07-09T11:01:37Z</time>
      </trkpt>
      <trkpt lat="42.6792857889" lon="0.4277731106">
        <ele>2415.45</ele>
        <time>2022-07-09T11:01:46Z</time>
      </trkpt>
      <trkpt lat="42.6793065760" lon="0.4276974220">
        <ele>2414.49</ele>
        <time>2022-07-09T11:01:51Z</time>
      </trkpt>
      <trkpt lat="42.6793410257" lon="0.4274261836">
        <ele>2413.05</ele>
        <time>2022-07-09T11:02:06Z</time>
      </trkpt>
      <trkpt lat="42.6793203223" lon="0.4272965156">
        <ele>2411.12</ele>
        <time>2022-07-09T11:02:13Z</time>
      </trkpt>
      <trkpt lat="42.6793403551" lon="0.4272213299">
        <ele>2410.16</ele>
        <time>2022-07-09T11:02:17Z</time>
      </trkpt>
      <trkpt lat="42.6793610584" lon="0.4270515125">
        <ele>2409.20</ele>
        <time>2022-07-09T11:02:27Z</time>
      </trkpt>
      <trkpt lat="42.6793698594" lon="0.4269334953">
        <ele>2406.80</ele>
        <time>2022-07-09T11:02:34Z</time>
      </trkpt>
      <trkpt lat="42.6793862879" lon="0.4268277157">
        <ele>2405.36</ele>
        <time>2022-07-09T11:02:40Z</time>
      </trkpt>
      <trkpt lat="42.6793993637" lon="0.4267037474">
        <ele>2403.91</ele>
        <time>2022-07-09T11:02:47Z</time>
      </trkpt>
      <trkpt lat="42.6794118527" lon="0.4266502708">
        <ele>2403.43</ele>
        <time>2022-07-09T11:02:50Z</time>
      </trkpt>
      <trkpt lat="42.6794017944" lon="0.4265746661">
        <ele>2402.47</ele>
        <time>2022-07-09T11:02:54Z</time>
      </trkpt>
      <trkpt lat="42.6793914009" lon="0.4265076108">
        <ele>2401.51</ele>
        <time>2022-07-09T11:02:58Z</time>
      </trkpt>
      <trkpt lat="42.6793936640" lon="0.4264848959">
        <ele>2401.03</ele>
        <time>2022-07-09T11:03:00Z</time>
      </trkpt>
      <trkpt lat="42.6794157922" lon="0.4264589120">
        <ele>2399.59</ele>
        <time>2022-07-09T11:03:03Z</time>
      </trkpt>
      <trkpt lat="42.6793773193" lon="0.4263683874">
        <ele>2398.15</ele>
        <time>2022-07-09T11:03:11Z</time>
      </trkpt>
      <trkpt lat="42.6793877129" lon="0.4262690619">
        <ele>2396.70</ele>
        <time>2022-07-09T11:03:17Z</time>
      </trkpt>
      <trkpt lat="42.6794050634" lon="0.4260405712">
        <ele>2394.30</ele>
        <time>2022-07-09T11:03:30Z</time>
      </trkpt>
      <trkpt lat="42.6794139482" lon="0.4259658884">
        <ele>2393.82</ele>
        <time>2022-07-09T11:03:34Z</time>
      </trkpt>
      <trkpt lat="42.6794332266" lon="0.4258343764">
        <ele>2390.46</ele>
        <time>2022-07-09T11:03:42Z</time>
      </trkpt>
      <trkpt lat="42.6794603840" lon="0.4256184585">
        <ele>2387.09</ele>
        <time>2022-07-09T11:03:54Z</time>
      </trkpt>
      <trkpt lat="42.6794976834" lon="0.4253820051">
        <ele>2383.73</ele>
        <time>2022-07-09T11:04:08Z</time>
      </trkpt>
      <trkpt lat="42.6795076579" lon="0.4253358208">
        <ele>2382.28</ele>
        <time>2022-07-09T11:04:12Z</time>
      </trkpt>
      <trkpt lat="42.6794921514" lon="0.4252680950">
        <ele>2380.36</ele>
        <time>2022-07-09T11:04:17Z</time>
      </trkpt>
      <trkpt lat="42.6795070712" lon="0.4251961783">
        <ele>2378.92</ele>
        <time>2022-07-09T11:04:21Z</time>
      </trkpt>
      <trkpt lat="42.6795007847" lon="0.4251555260">
        <ele>2378.92</ele>
        <time>2022-07-09T11:04:23Z</time>
      </trkpt>
      <trkpt lat="42.6795041375" lon="0.4250591341">
        <ele>2378.92</ele>
        <time>2022-07-09T11:04:29Z</time>
      </trkpt>
      <trkpt lat="42.6795089152" lon="0.4248520173">
        <ele>2374.59</ele>
        <time>2022-07-09T11:04:43Z</time>
      </trkpt>
      <trkpt lat="42.6795245055" lon="0.4248308949">
        <ele>2374.11</ele>
        <time>2022-07-09T11:04:45Z</time>
      </trkpt>
      <trkpt lat="42.6795339771" lon="0.4247516021">
        <ele>2372.67</ele>
        <time>2022-07-09T11:04:50Z</time>
      </trkpt>
      <trkpt lat="42.6795165427" lon="0.4245732352">
        <ele>2371.23</ele>
        <time>2022-07-09T11:04:59Z</time>
      </trkpt>
      <trkpt lat="42.6795027126" lon="0.4245057609">
        <ele>2369.79</ele>
        <time>2022-07-09T11:05:04Z</time>
      </trkpt>
      <trkpt lat="42.6795049757" lon="0.4244615044">
        <ele>2368.83</ele>
        <time>2022-07-09T11:05:07Z</time>
      </trkpt>
      <trkpt lat="42.6794958394" lon="0.4244325869">
        <ele>2368.35</ele>
        <time>2022-07-09T11:05:09Z</time>
      </trkpt>
      <trkpt lat="42.6794888824" lon="0.4243577365">
        <ele>2367.38</ele>
        <time>2022-07-09T11:05:14Z</time>
      </trkpt>
      <trkpt lat="42.6795094181" lon="0.4242807068">
        <ele>2364.98</ele>
        <time>2022-07-09T11:05:20Z</time>
      </trkpt>
      <trkpt lat="42.6795077417" lon="0.4242541362">
        <ele>2364.98</ele>
        <time>2022-07-09T11:05:22Z</time>
      </trkpt>
      <trkpt lat="42.6795240026" lon="0.4241383821">
        <ele>2361.62</ele>
        <time>2022-07-09T11:05:31Z</time>
      </trkpt>
      <trkpt lat="42.6795172971" lon="0.4240916949">
        <ele>2361.14</ele>
        <time>2022-07-09T11:05:34Z</time>
      </trkpt>
      <trkpt lat="42.6794957556" lon="0.4239600152">
        <ele>2357.29</ele>
        <time>2022-07-09T11:05:46Z</time>
      </trkpt>
      <trkpt lat="42.6795190573" lon="0.4238616955">
        <ele>2353.93</ele>
        <time>2022-07-09T11:05:55Z</time>
      </trkpt>
      <trkpt lat="42.6794986892" lon="0.4237999208">
        <ele>2352.00</ele>
        <time>2022-07-09T11:06:01Z</time>
      </trkpt>
      <trkpt lat="42.6794724539" lon="0.4236088134">
        <ele>2348.16</ele>
        <time>2022-07-09T11:06:13Z</time>
      </trkpt>
      <trkpt lat="42.6794594619" lon="0.4235097393">
        <ele>2346.72</ele>
        <time>2022-07-09T11:06:20Z</time>
      </trkpt>
      <trkpt lat="42.6794101764" lon="0.4233726952">
        <ele>2345.75</ele>
        <time>2022-07-09T11:06:28Z</time>
      </trkpt>
      <trkpt lat="42.6794373337" lon="0.4232517444">
        <ele>2342.87</ele>
        <time>2022-07-09T11:06:38Z</time>
      </trkpt>
      <trkpt lat="42.6794390939" lon="0.4232405964">
        <ele>2342.39</ele>
        <time>2022-07-09T11:06:39Z</time>
      </trkpt>
      <trkpt lat="42.6794505771" lon="0.4232045542">
        <ele>2341.43</ele>
        <time>2022-07-09T11:06:42Z</time>
      </trkpt>
      <trkpt lat="42.6794429496" lon="0.4230853636">
        <ele>2339.02</ele>
        <time>2022-07-09T11:06:50Z</time>
      </trkpt>
      <trkpt lat="42.6794129424" lon="0.4229486547">
        <ele>2337.10</ele>
        <time>2022-07-09T11:06:58Z</time>
      </trkpt>
      <trkpt lat="42.6793991961" lon="0.4228160530">
        <ele>2335.66</ele>
        <time>2022-07-09T11:07:05Z</time>
      </trkpt>
      <trkpt lat="42.6793834381" lon="0.4227139615">
        <ele>2334.70</ele>
        <time>2022-07-09T11:07:11Z</time>
      </trkpt>
      <trkpt lat="42.6793935802" lon="0.4226624966">
        <ele>2332.78</ele>
        <time>2022-07-09T11:07:15Z</time>
      </trkpt>
      <trkpt lat="42.6794040576" lon="0.4225464910">
        <ele>2331.33</ele>
        <time>2022-07-09T11:07:23Z</time>
      </trkpt>
      <trkpt lat="42.6793883834" lon="0.4224806093">
        <ele>2329.89</ele>
        <time>2022-07-09T11:07:27Z</time>
      </trkpt>
      <trkpt lat="42.6794074103" lon="0.4223473370">
        <ele>2327.97</ele>
        <time>2022-07-09T11:07:37Z</time>
      </trkpt>
      <trkpt lat="42.6793925744" lon="0.4223080259">
        <ele>2327.01</ele>
        <time>2022-07-09T11:07:40Z</time>
      </trkpt>
      <trkpt lat="42.6794061530" lon="0.4222412221">
        <ele>2325.57</ele>
        <time>2022-07-09T11:07:44Z</time>
      </trkpt>
      <trkpt lat="42.6794072427" lon="0.4222030845">
        <ele>2325.09</ele>
        <time>2022-07-09T11:07:46Z</time>
      </trkpt>
      <trkpt lat="42.6793519221" lon="0.4220861569">
        <ele>2322.68</ele>
        <time>2022-07-09T11:07:55Z</time>
      </trkpt>
      <trkpt lat="42.6793389302" lon="0.4220493603">
        <ele>2321.72</ele>
        <time>2022-07-09T11:07:58Z</time>
      </trkpt>
      <trkpt lat="42.6793339010" lon="0.4219894297">
        <ele>2320.28</ele>
        <time>2022-07-09T11:08:01Z</time>
      </trkpt>
      <trkpt lat="42.6792655885" lon="0.4218631145">
        <ele>2317.40</ele>
        <time>2022-07-09T11:08:11Z</time>
      </trkpt>
      <trkpt lat="42.6792599726" lon="0.4218456801">
        <ele>2317.40</ele>
        <time>2022-07-09T11:08:12Z</time>
      </trkpt>
      <trkpt lat="42.6792945061" lon="0.4217411578">
        <ele>2315.95</ele>
        <time>2022-07-09T11:08:19Z</time>
      </trkpt>
      <trkpt lat="42.6793154608" lon="0.4216518067">
        <ele>2314.51</ele>
        <time>2022-07-09T11:08:26Z</time>
      </trkpt>
      <trkpt lat="42.6793037262" lon="0.4214881919">
        <ele>2311.15</ele>
        <time>2022-07-09T11:08:37Z</time>
      </trkpt>
      <trkpt lat="42.6792969368" lon="0.4214270040">
        <ele>2310.19</ele>
        <time>2022-07-09T11:08:41Z</time>
      </trkpt>
      <trkpt lat="42.6792978588" lon="0.4213562608">
        <ele>2308.74</ele>
        <time>2022-07-09T11:08:45Z</time>
      </trkpt>
      <trkpt lat="42.6792992000" lon="0.4213265888">
        <ele>2308.26</ele>
        <time>2022-07-09T11:08:47Z</time>
      </trkpt>
      <trkpt lat="42.6792825200" lon="0.4211224895">
        <ele>2305.38</ele>
        <time>2022-07-09T11:09:00Z</time>
      </trkpt>
      <trkpt lat="42.6793057378" lon="0.4210593738">
        <ele>2303.46</ele>
        <time>2022-07-09T11:09:04Z</time>
      </trkpt>
      <trkpt lat="42.6793246809" lon="0.4209540971">
        <ele>2302.01</ele>
        <time>2022-07-09T11:09:10Z</time>
      </trkpt>
      <trkpt lat="42.6793253515" lon="0.4209157079">
        <ele>2301.53</ele>
        <time>2022-07-09T11:09:13Z</time>
      </trkpt>
      <trkpt lat="42.6793236751" lon="0.4208019655">
        <ele>2298.65</ele>
        <time>2022-07-09T11:09:22Z</time>
      </trkpt>
      <trkpt lat="42.6793245133" lon="0.4207163863">
        <ele>2297.69</ele>
        <time>2022-07-09T11:09:28Z</time>
      </trkpt>
      <trkpt lat="42.6793089230" lon="0.4206365068">
        <ele>2295.77</ele>
        <time>2022-07-09T11:09:34Z</time>
      </trkpt>
      <trkpt lat="42.6793187298" lon="0.4205424618">
        <ele>2292.88</ele>
        <time>2022-07-09T11:09:43Z</time>
      </trkpt>
      <trkpt lat="42.6793266926" lon="0.4204266239">
        <ele>2289.52</ele>
        <time>2022-07-09T11:09:53Z</time>
      </trkpt>
      <trkpt lat="42.6793092582" lon="0.4203293938">
        <ele>2286.63</ele>
        <time>2022-07-09T11:10:01Z</time>
      </trkpt>
      <trkpt lat="42.6793102641" lon="0.4202954471">
        <ele>2285.67</ele>
        <time>2022-07-09T11:10:05Z</time>
      </trkpt>
      <trkpt lat="42.6793171372" lon="0.4202247877">
        <ele>2284.23</ele>
        <time>2022-07-09T11:10:10Z</time>
      </trkpt>
      <trkpt lat="42.6793035585" lon="0.4200976342">
        <ele>2280.87</ele>
        <time>2022-07-09T11:10:22Z</time>
      </trkpt>
      <trkpt lat="42.6793044806" lon="0.4199584946">
        <ele>2277.50</ele>
        <time>2022-07-09T11:10:35Z</time>
      </trkpt>
      <trkpt lat="42.6793074142" lon="0.4198771901">
        <ele>2275.10</ele>
        <time>2022-07-09T11:10:42Z</time>
      </trkpt>
      <trkpt lat="42.6792849507" lon="0.4197216220">
        <ele>2273.66</ele>
        <time>2022-07-09T11:10:52Z</time>
      </trkpt>
      <trkpt lat="42.6793174725" lon="0.4196947161">
        <ele>2273.17</ele>
        <time>2022-07-09T11:10:56Z</time>
      </trkpt>
      <trkpt lat="42.6793133654" lon="0.4196691513">
        <ele>2271.73</ele>
        <time>2022-07-09T11:10:58Z</time>
      </trkpt>
      <trkpt lat="42.6792965177" lon="0.4196424130">
        <ele>2271.73</ele>
        <time>2022-07-09T11:11:01Z</time>
      </trkpt>
      <trkpt lat="42.6792834420" lon="0.4195782077">
        <ele>2270.29</ele>
        <time>2022-07-09T11:11:09Z</time>
      </trkpt>
      <trkpt lat="42.6793753076" lon="0.4194017686">
        <ele>2267.41</ele>
        <time>2022-07-09T11:11:24Z</time>
      </trkpt>
      <trkpt lat="42.6794349868" lon="0.4192524869">
        <ele>2264.52</ele>
        <time>2022-07-09T11:11:35Z</time>
      </trkpt>
      <trkpt lat="42.6794857811" lon="0.4190851841">
        <ele>2262.12</ele>
        <time>2022-07-09T11:11:48Z</time>
      </trkpt>
      <trkpt lat="42.6794931572" lon="0.4190257564">
        <ele>2259.72</ele>
        <time>2022-07-09T11:11:54Z</time>
      </trkpt>
      <trkpt lat="42.6795696840" lon="0.4188719485">
        <ele>2255.87</ele>
        <time>2022-07-09T11:12:08Z</time>
      </trkpt>
      <trkpt lat="42.6795873698" lon="0.4188218247">
        <ele>2254.91</ele>
        <time>2022-07-09T11:12:12Z</time>
      </trkpt>
      <trkpt lat="42.6795910578" lon="0.4188057315">
        <ele>2254.91</ele>
        <time>2022-07-09T11:12:13Z</time>
      </trkpt>
      <trkpt lat="42.6795939915" lon="0.4187392630">
        <ele>2253.95</ele>
        <time>2022-07-09T11:12:17Z</time>
      </trkpt>
      <trkpt lat="42.6795927342" lon="0.4186323099">
        <ele>2252.51</ele>
        <time>2022-07-09T11:12:26Z</time>
      </trkpt>
      <trkpt lat="42.6796067320" lon="0.4185912386">
        <ele>2251.06</ele>
        <time>2022-07-09T11:12:30Z</time>
      </trkpt>
      <trkpt lat="42.6796269324" lon="0.4185494967">
        <ele>2249.62</ele>
        <time>2022-07-09T11:12:34Z</time>
      </trkpt>
      <trkpt lat="42.6796488930" lon="0.4184438009">
        <ele>2246.74</ele>
        <time>2022-07-09T11:12:42Z</time>
      </trkpt>
      <trkpt lat="42.6797110029" lon="0.4183236044">
        <ele>2243.37</ele>
        <time>2022-07-09T11:12:53Z</time>
      </trkpt>
      <trkpt lat="42.6797130983" lon="0.4182666913">
        <ele>2242.89</ele>
        <time>2022-07-09T11:12:57Z</time>
      </trkpt>
      <trkpt lat="42.6797319576" lon="0.4181462433">
        <ele>2239.05</ele>
        <time>2022-07-09T11:13:08Z</time>
      </trkpt>
      <trkpt lat="42.6797348913" lon="0.4181407113">
        <ele>2239.53</ele>
        <time>2022-07-09T11:13:09Z</time>
      </trkpt>
      <trkpt lat="42.6797791477" lon="0.4181417171">
        <ele>2235.68</ele>
        <time>2022-07-09T11:13:18Z</time>
      </trkpt>
      <trkpt lat="42.6798243262" lon="0.4180594906">
        <ele>2231.84</ele>
        <time>2022-07-09T11:13:30Z</time>
      </trkpt>
      <trkpt lat="42.6798264217" lon="0.4180485941">
        <ele>2231.84</ele>
        <time>2022-07-09T11:13:31Z</time>
      </trkpt>
      <trkpt lat="42.6798362285" lon="0.4180090316">
        <ele>2229.43</ele>
        <time>2022-07-09T11:13:36Z</time>
      </trkpt>
      <trkpt lat="42.6798584405" lon="0.4179365281">
        <ele>2227.03</ele>
        <time>2022-07-09T11:13:46Z</time>
      </trkpt>
      <trkpt lat="42.6798422635" lon="0.4178950377">
        <ele>2226.07</ele>
        <time>2022-07-09T11:13:49Z</time>
      </trkpt>
      <trkpt lat="42.6798481308" lon="0.4178771842">
        <ele>2225.11</ele>
        <time>2022-07-09T11:13:51Z</time>
      </trkpt>
      <trkpt lat="42.6799224783" lon="0.4177508689">
        <ele>2221.74</ele>
        <time>2022-07-09T11:14:03Z</time>
      </trkpt>
      <trkpt lat="42.6799879409" lon="0.4176821373">
        <ele>2217.90</ele>
        <time>2022-07-09T11:14:13Z</time>
      </trkpt>
      <trkpt lat="42.6800312754" lon="0.4175512958">
        <ele>2214.53</ele>
        <time>2022-07-09T11:14:25Z</time>
      </trkpt>
      <trkpt lat="42.6800499670" lon="0.4175191093">
        <ele>2212.61</ele>
        <time>2022-07-09T11:14:33Z</time>
      </trkpt>
      <trkpt lat="42.6800764538" lon="0.4174504615">
        <ele>2209.25</ele>
        <time>2022-07-09T11:14:43Z</time>
      </trkpt>
      <trkpt lat="42.6800974924" lon="0.4174083006">
        <ele>2205.88</ele>
        <time>2022-07-09T11:14:51Z</time>
      </trkpt>
      <trkpt lat="42.6800982468" lon="0.4173932131">
        <ele>2205.40</ele>
        <time>2022-07-09T11:14:52Z</time>
      </trkpt>
      <trkpt lat="42.6801373903" lon="0.4173030239">
        <ele>2202.04</ele>
        <time>2022-07-09T11:15:01Z</time>
      </trkpt>
      <trkpt lat="42.6801689900" lon="0.4172114097">
        <ele>2198.67</ele>
        <time>2022-07-09T11:15:10Z</time>
      </trkpt>
      <trkpt lat="42.6801735163" lon="0.4171993397">
        <ele>2198.67</ele>
        <time>2022-07-09T11:15:11Z</time>
      </trkpt>
      <trkpt lat="42.6801706664" lon="0.4171521496">
        <ele>2197.23</ele>
        <time>2022-07-09T11:15:14Z</time>
      </trkpt>
      <trkpt lat="42.6801774558" lon="0.4170651454">
        <ele>2195.31</ele>
        <time>2022-07-09T11:15:21Z</time>
      </trkpt>
      <trkpt lat="42.6801895257" lon="0.4170059692">
        <ele>2195.31</ele>
        <time>2022-07-09T11:15:25Z</time>
      </trkpt>
      <trkpt lat="42.6802344527" lon="0.4169116728">
        <ele>2191.94</ele>
        <time>2022-07-09T11:15:35Z</time>
      </trkpt>
      <trkpt lat="42.6803163439" lon="0.4167733714">
        <ele>2188.58</ele>
        <time>2022-07-09T11:15:45Z</time>
      </trkpt>
      <trkpt lat="42.6803590916" lon="0.4165810905">
        <ele>2186.18</ele>
        <time>2022-07-09T11:15:57Z</time>
      </trkpt>
      <trkpt lat="42.6803897694" lon="0.4165286198">
        <ele>2184.25</ele>
        <time>2022-07-09T11:16:02Z</time>
      </trkpt>
      <trkpt lat="42.6803927869" lon="0.4163485765">
        <ele>2183.29</ele>
        <time>2022-07-09T11:16:12Z</time>
      </trkpt>
      <trkpt lat="42.6804149151" lon="0.4162056651">
        <ele>2182.81</ele>
        <time>2022-07-09T11:16:21Z</time>
      </trkpt>
      <trkpt lat="42.6803958043" lon="0.4159598239">
        <ele>2180.41</ele>
        <time>2022-07-09T11:16:35Z</time>
      </trkpt>
      <trkpt lat="42.6803957205" lon="0.4158002324">
        <ele>2178.97</ele>
        <time>2022-07-09T11:16:44Z</time>
      </trkpt>
      <trkpt lat="42.6803894341" lon="0.4157092888">
        <ele>2176.56</ele>
        <time>2022-07-09T11:16:51Z</time>
      </trkpt>
      <trkpt lat="42.6803959720" lon="0.4156344384">
        <ele>2174.16</ele>
        <time>2022-07-09T11:16:56Z</time>
      </trkpt>
      <trkpt lat="42.6803983189" lon="0.4155968037">
        <ele>2174.16</ele>
        <time>2022-07-09T11:16:58Z</time>
      </trkpt>
      <trkpt lat="42.6804108080" lon="0.4154878389">
        <ele>2169.83</ele>
        <time>2022-07-09T11:17:12Z</time>
      </trkpt>
      <trkpt lat="42.6804143284" lon="0.4154765233">
        <ele>2169.35</ele>
        <time>2022-07-09T11:17:14Z</time>
      </trkpt>
      <trkpt lat="42.6803998277" lon="0.4153466877">
        <ele>2165.99</ele>
        <time>2022-07-09T11:17:25Z</time>
      </trkpt>
      <trkpt lat="42.6804195251" lon="0.4152497090">
        <ele>2163.10</ele>
        <time>2022-07-09T11:17:35Z</time>
      </trkpt>
      <trkpt lat="42.6804294158" lon="0.4152119067">
        <ele>2162.14</ele>
        <time>2022-07-09T11:17:38Z</time>
      </trkpt>
      <trkpt lat="42.6804409828" lon="0.4151367210">
        <ele>2159.74</ele>
        <time>2022-07-09T11:17:43Z</time>
      </trkpt>
      <trkpt lat="42.6804591715" lon="0.4150373954">
        <ele>2156.86</ele>
        <time>2022-07-09T11:17:50Z</time>
      </trkpt>
      <trkpt lat="42.6804580819" lon="0.4150041193">
        <ele>2155.89</ele>
        <time>2022-07-09T11:17:52Z</time>
      </trkpt>
      <trkpt lat="42.6804619376" lon="0.4149604496">
        <ele>2154.45</ele>
        <time>2022-07-09T11:17:55Z</time>
      </trkpt>
      <trkpt lat="42.6804820541" lon="0.4148345534">
        <ele>2151.09</ele>
        <time>2022-07-09T11:18:04Z</time>
      </trkpt>
      <trkpt lat="42.6804632787" lon="0.4146693461">
        <ele>2148.68</ele>
        <time>2022-07-09T11:18:14Z</time>
      </trkpt>
      <trkpt lat="42.6804415695" lon="0.4146260116">
        <ele>2147.24</ele>
        <time>2022-07-09T11:18:18Z</time>
      </trkpt>
      <trkpt lat="42.6804531366" lon="0.4145405162">
        <ele>2143.40</ele>
        <time>2022-07-09T11:18:27Z</time>
      </trkpt>
      <trkpt lat="42.6804606803" lon="0.4144590441">
        <ele>2141.47</ele>
        <time>2022-07-09T11:18:33Z</time>
      </trkpt>
      <trkpt lat="42.6804667152" lon="0.4143308848">
        <ele>2138.59</ele>
        <time>2022-07-09T11:18:43Z</time>
      </trkpt>
      <trkpt lat="42.6804983150" lon="0.4141721316">
        <ele>2135.23</ele>
        <time>2022-07-09T11:18:53Z</time>
      </trkpt>
      <trkpt lat="42.6804723311" lon="0.4139153939">
        <ele>2131.38</ele>
        <time>2022-07-09T11:19:09Z</time>
      </trkpt>
      <trkpt lat="42.6804637816" lon="0.4138273001">
        <ele>2129.94</ele>
        <time>2022-07-09T11:19:15Z</time>
      </trkpt>
      <trkpt lat="42.6804651227" lon="0.4136226978">
        <ele>2127.05</ele>
        <time>2022-07-09T11:19:28Z</time>
      </trkpt>
      <trkpt lat="42.6804572437" lon="0.4135421477">
        <ele>2126.57</ele>
        <time>2022-07-09T11:19:33Z</time>
      </trkpt>
      <trkpt lat="42.6804724149" lon="0.4134018347">
        <ele>2125.13</ele>
        <time>2022-07-09T11:19:41Z</time>
      </trkpt>
      <trkpt lat="42.6804776117" lon="0.4133476876">
        <ele>2124.17</ele>
        <time>2022-07-09T11:19:45Z</time>
      </trkpt>
      <trkpt lat="42.6804925315" lon="0.4131967295">
        <ele>2121.29</ele>
        <time>2022-07-09T11:19:55Z</time>
      </trkpt>
      <trkpt lat="42.6805017516" lon="0.4131577536">
        <ele>2119.84</ele>
        <time>2022-07-09T11:20:00Z</time>
      </trkpt>
      <trkpt lat="42.6804916933" lon="0.4129535705">
        <ele>2116.00</ele>
        <time>2022-07-09T11:20:14Z</time>
      </trkpt>
      <trkpt lat="42.6804885082" lon="0.4129423387">
        <ele>2115.52</ele>
        <time>2022-07-09T11:20:15Z</time>
      </trkpt>
      <trkpt lat="42.6804872509" lon="0.4128295183">
        <ele>2113.12</ele>
        <time>2022-07-09T11:20:25Z</time>
      </trkpt>
      <trkpt lat="42.6804865804" lon="0.4126770515">
        <ele>2109.75</ele>
        <time>2022-07-09T11:20:37Z</time>
      </trkpt>
      <trkpt lat="42.6804849040" lon="0.4126040451">
        <ele>2106.39</ele>
        <time>2022-07-09T11:20:44Z</time>
      </trkpt>
      <trkpt lat="42.6804797910" lon="0.4125674162">
        <ele>2105.42</ele>
        <time>2022-07-09T11:20:47Z</time>
      </trkpt>
      <trkpt lat="42.6804789528" lon="0.4125427734">
        <ele>2103.50</ele>
        <time>2022-07-09T11:20:51Z</time>
      </trkpt>
      <trkpt lat="42.6804768573" lon="0.4124419391">
        <ele>2100.62</ele>
        <time>2022-07-09T11:21:00Z</time>
      </trkpt>
      <trkpt lat="42.6804522146" lon="0.4123557732">
        <ele>2097.73</ele>
        <time>2022-07-09T11:21:08Z</time>
      </trkpt>
      <trkpt lat="42.6804293320" lon="0.4122963455">
        <ele>2095.33</ele>
        <time>2022-07-09T11:21:13Z</time>
      </trkpt>
      <trkpt lat="42.6803933736" lon="0.4122143704">
        <ele>2091.97</ele>
        <time>2022-07-09T11:21:21Z</time>
      </trkpt>
      <trkpt lat="42.6803947985" lon="0.4121706169">
        <ele>2091.00</ele>
        <time>2022-07-09T11:21:26Z</time>
      </trkpt>
      <trkpt lat="42.6803654619" lon="0.4120556172">
        <ele>2089.08</ele>
        <time>2022-07-09T11:21:35Z</time>
      </trkpt>
      <trkpt lat="42.6803496201" lon="0.4119880591">
        <ele>2085.72</ele>
        <time>2022-07-09T11:21:42Z</time>
      </trkpt>
      <trkpt lat="42.6803462673" lon="0.4119438864">
        <ele>2085.24</ele>
        <time>2022-07-09T11:21:46Z</time>
      </trkpt>
      <trkpt lat="42.6803551521" lon="0.4118975345">
        <ele>2084.76</ele>
        <time>2022-07-09T11:21:49Z</time>
      </trkpt>
      <trkpt lat="42.6803657133" lon="0.4117434751">
        <ele>2081.39</ele>
        <time>2022-07-09T11:22:01Z</time>
      </trkpt>
      <trkpt lat="42.6803688984" lon="0.4117304832">
        <ele>2081.39</ele>
        <time>2022-07-09T11:22:02Z</time>
      </trkpt>
      <trkpt lat="42.6803743467" lon="0.4116953630">
        <ele>2081.39</ele>
        <time>2022-07-09T11:22:05Z</time>
      </trkpt>
      <trkpt lat="42.6803838182" lon="0.4116086941">
        <ele>2077.55</ele>
        <time>2022-07-09T11:22:13Z</time>
      </trkpt>
      <trkpt lat="42.6803880092" lon="0.4115971271">
        <ele>2077.55</ele>
        <time>2022-07-09T11:22:14Z</time>
      </trkpt>
      <trkpt lat="42.6803884283" lon="0.4115177505">
        <ele>2075.62</ele>
        <time>2022-07-09T11:22:20Z</time>
      </trkpt>
      <trkpt lat="42.6803896856" lon="0.4115011543">
        <ele>2076.10</ele>
        <time>2022-07-09T11:22:21Z</time>
      </trkpt>
      <trkpt lat="42.6803888474" lon="0.4114459176">
        <ele>2072.26</ele>
        <time>2022-07-09T11:22:26Z</time>
      </trkpt>
      <trkpt lat="42.6803947147" lon="0.4114438221">
        <ele>2072.26</ele>
        <time>2022-07-09T11:22:27Z</time>
      </trkpt>
      <trkpt lat="42.6804349478" lon="0.4114655312">
        <ele>2069.38</ele>
        <time>2022-07-09T11:22:35Z</time>
      </trkpt>
      <trkpt lat="42.6804452576" lon="0.4114181735">
        <ele>2067.93</ele>
        <time>2022-07-09T11:22:40Z</time>
      </trkpt>
      <trkpt lat="42.6804517116" lon="0.4113760963">
        <ele>2066.97</ele>
        <time>2022-07-09T11:22:43Z</time>
      </trkpt>
      <trkpt lat="42.6804355346" lon="0.4113299958">
        <ele>2066.01</ele>
        <time>2022-07-09T11:22:46Z</time>
      </trkpt>
      <trkpt lat="42.6804460958" lon="0.4111736733">
        <ele>2063.13</ele>
        <time>2022-07-09T11:22:57Z</time>
      </trkpt>
      <trkpt lat="42.6805319265" lon="0.4111047741">
        <ele>2059.76</ele>
        <time>2022-07-09T11:23:07Z</time>
      </trkpt>
      <trkpt lat="42.6805495284" lon="0.4111098871">
        <ele>2059.76</ele>
        <time>2022-07-09T11:23:09Z</time>
      </trkpt>
      <trkpt lat="42.6806465909" lon="0.4111269023">
        <ele>2058.32</ele>
        <time>2022-07-09T11:23:23Z</time>
      </trkpt>
      <trkpt lat="42.6806525420" lon="0.4111353680">
        <ele>2058.32</ele>
        <time>2022-07-09T11:23:25Z</time>
      </trkpt>
      <trkpt lat="42.6806730777" lon="0.4111192748">
        <ele>2058.80</ele>
        <time>2022-07-09T11:23:31Z</time>
      </trkpt>
      <trkpt lat="42.6806696411" lon="0.4110954702">
        <ele>2059.28</ele>
        <time>2022-07-09T11:23:33Z</time>
      </trkpt>
      <trkpt lat="42.6806839742" lon="0.4110514652">
        <ele>2059.28</ele>
        <time>2022-07-09T11:23:36Z</time>
      </trkpt>
      <trkpt lat="42.6807319187" lon="0.4110235535">
        <ele>2059.28</ele>
        <time>2022-07-09T11:23:40Z</time>
      </trkpt>
      <trkpt lat="42.6808703877" lon="0.4109985754">
        <ele>2060.24</ele>
        <time>2022-07-09T11:23:51Z</time>
      </trkpt>
      <trkpt lat="42.6809490938" lon="0.4109814763">
        <ele>2061.68</ele>
        <time>2022-07-09T11:23:58Z</time>
      </trkpt>
      <trkpt lat="42.6810788456" lon="0.4109373037">
        <ele>2064.09</ele>
        <time>2022-07-09T11:24:12Z</time>
      </trkpt>
      <trkpt lat="42.6811455656" lon="0.4108928796">
        <ele>2066.01</ele>
        <time>2022-07-09T11:24:25Z</time>
      </trkpt>
      <trkpt lat="42.6811702084" lon="0.4108784627">
        <ele>2066.01</ele>
        <time>2022-07-09T11:24:29Z</time>
      </trkpt>
      <trkpt lat="42.6811800990" lon="0.4108725954">
        <ele>2067.45</ele>
        <time>2022-07-09T11:24:31Z</time>
      </trkpt>
      <trkpt lat="42.6812385209" lon="0.4108758643">
        <ele>2066.01</ele>
        <time>2022-07-09T11:24:38Z</time>
      </trkpt>
      <trkpt lat="42.6812286302" lon="0.4107912909">
        <ele>2064.09</ele>
        <time>2022-07-09T11:24:50Z</time>
      </trkpt>
      <trkpt lat="42.6812313963" lon="0.4107617866">
        <ele>2064.09</ele>
        <time>2022-07-09T11:24:52Z</time>
      </trkpt>
      <trkpt lat="42.6812355034" lon="0.4107332043">
        <ele>2064.09</ele>
        <time>2022-07-09T11:24:54Z</time>
      </trkpt>
      <trkpt lat="42.6812000480" lon="0.4106702562">
        <ele>2065.05</ele>
        <time>2022-07-09T11:25:00Z</time>
      </trkpt>
      <trkpt lat="42.6811727230" lon="0.4106702562">
        <ele>2063.61</ele>
        <time>2022-07-09T11:25:03Z</time>
      </trkpt>
      <trkpt lat="42.6811083499" lon="0.4105529934">
        <ele>2062.65</ele>
        <time>2022-07-09T11:25:16Z</time>
      </trkpt>
      <trkpt lat="42.6811136305" lon="0.4105172027">
        <ele>2056.88</ele>
        <time>2022-07-09T11:25:30Z</time>
      </trkpt>
      <trkpt lat="42.6811163966" lon="0.4105203040">
        <ele>2060.72</ele>
        <time>2022-07-09T11:25:31Z</time>
      </trkpt>
      <trkpt lat="42.6810701285" lon="0.4105429351">
        <ele>2061.20</ele>
        <time>2022-07-09T11:26:05Z</time>
      </trkpt>
      <trkpt lat="42.6810728107" lon="0.4105316196">
        <ele>2060.72</ele>
        <time>2022-07-09T11:26:33Z</time>
      </trkpt>
      <trkpt lat="42.6811034884" lon="0.4105267581">
        <ele>2060.72</ele>
        <time>2022-07-09T11:26:44Z</time>
      </trkpt>
      <trkpt lat="42.6810813602" lon="0.4104930628">
        <ele>2060.24</ele>
        <time>2022-07-09T11:27:00Z</time>
      </trkpt>
      <trkpt lat="42.6810780913" lon="0.4104855191">
        <ele>2060.24</ele>
        <time>2022-07-09T11:27:01Z</time>
      </trkpt>
      <trkpt lat="42.6810676977" lon="0.4104529135">
        <ele>2061.68</ele>
        <time>2022-07-09T11:27:06Z</time>
      </trkpt>
      <trkpt lat="42.6810688712" lon="0.4103373270">
        <ele>2064.57</ele>
        <time>2022-07-09T11:27:19Z</time>
      </trkpt>
      <trkpt lat="42.6810634229" lon="0.4102333914">
        <ele>2066.49</ele>
        <time>2022-07-09T11:27:32Z</time>
      </trkpt>
      <trkpt lat="42.6810412947" lon="0.4101854470">
        <ele>2068.89</ele>
        <time>2022-07-09T11:27:39Z</time>
      </trkpt>
      <trkpt lat="42.6810259558" lon="0.4101827648">
        <ele>2069.38</ele>
        <time>2022-07-09T11:27:41Z</time>
      </trkpt>
      <trkpt lat="42.6808367763" lon="0.4100814275">
        <ele>2071.78</ele>
        <time>2022-07-09T11:27:58Z</time>
      </trkpt>
      <trkpt lat="42.6807668712" lon="0.4100224189">
        <ele>2072.74</ele>
        <time>2022-07-09T11:28:04Z</time>
      </trkpt>
      <trkpt lat="42.6806284860" lon="0.4098096862">
        <ele>2070.82</ele>
        <time>2022-07-09T11:28:20Z</time>
      </trkpt>
      <trkpt lat="42.6805388834" lon="0.4096716363">
        <ele>2070.34</ele>
        <time>2022-07-09T11:28:34Z</time>
      </trkpt>
      <trkpt lat="42.6804787852" lon="0.4095940199">
        <ele>2073.22</ele>
        <time>2022-07-09T11:28:43Z</time>
      </trkpt>
      <trkpt lat="42.6803971455" lon="0.4095511045">
        <ele>2075.14</ele>
        <time>2022-07-09T11:28:54Z</time>
      </trkpt>
      <trkpt lat="42.6802466065" lon="0.4095458239">
        <ele>2078.51</ele>
        <time>2022-07-09T11:29:09Z</time>
      </trkpt>
      <trkpt lat="42.6800597738" lon="0.4095094465">
        <ele>2082.35</ele>
        <time>2022-07-09T11:29:27Z</time>
      </trkpt>
      <trkpt lat="42.6800480392" lon="0.4095144756">
        <ele>2083.79</ele>
        <time>2022-07-09T11:29:29Z</time>
      </trkpt>
      <trkpt lat="42.6800009329" lon="0.4095337540">
        <ele>2083.79</ele>
        <time>2022-07-09T11:29:33Z</time>
      </trkpt>
      <trkpt lat="42.6798062213" lon="0.4094426427">
        <ele>2085.72</ele>
        <time>2022-07-09T11:29:49Z</time>
      </trkpt>
      <trkpt lat="42.6797566842" lon="0.4094092827">
        <ele>2084.28</ele>
        <time>2022-07-09T11:29:53Z</time>
      </trkpt>
      <trkpt lat="42.6796027087" lon="0.4093289003">
        <ele>2083.31</ele>
        <time>2022-07-09T11:30:06Z</time>
      </trkpt>
      <trkpt lat="42.6795214880" lon="0.4093076941">
        <ele>2087.16</ele>
        <time>2022-07-09T11:30:17Z</time>
      </trkpt>
      <trkpt lat="42.6794118527" lon="0.4093375336">
        <ele>2085.24</ele>
        <time>2022-07-09T11:30:27Z</time>
      </trkpt>
      <trkpt lat="42.6792324800" lon="0.4095062613">
        <ele>2088.12</ele>
        <time>2022-07-09T11:30:42Z</time>
      </trkpt>
      <trkpt lat="42.6792211644" lon="0.4095164035">
        <ele>2088.12</ele>
        <time>2022-07-09T11:30:43Z</time>
      </trkpt>
      <trkpt lat="42.6791495830" lon="0.4095312394">
        <ele>2085.24</ele>
        <time>2022-07-09T11:30:48Z</time>
      </trkpt>
      <trkpt lat="42.6791087631" lon="0.4095405433">
        <ele>2083.31</ele>
        <time>2022-07-09T11:30:51Z</time>
      </trkpt>
      <trkpt lat="42.6789500937" lon="0.4095625877">
        <ele>2079.95</ele>
        <time>2022-07-09T11:31:04Z</time>
      </trkpt>
      <trkpt lat="42.6789397001" lon="0.4095585644">
        <ele>2079.95</ele>
        <time>2022-07-09T11:31:05Z</time>
      </trkpt>
      <trkpt lat="42.6788490079" lon="0.4095241148">
        <ele>2076.59</ele>
        <time>2022-07-09T11:31:15Z</time>
      </trkpt>
      <trkpt lat="42.6788328309" lon="0.4095274676">
        <ele>2075.62</ele>
        <time>2022-07-09T11:31:17Z</time>
      </trkpt>
      <trkpt lat="42.6787459943" lon="0.4095210135">
        <ele>2072.74</ele>
        <time>2022-07-09T11:31:27Z</time>
      </trkpt>
      <trkpt lat="42.6787029114" lon="0.4094994720">
        <ele>2070.82</ele>
        <time>2022-07-09T11:31:32Z</time>
      </trkpt>
      <trkpt lat="42.6786310785" lon="0.4094538745">
        <ele>2066.97</ele>
        <time>2022-07-09T11:31:42Z</time>
      </trkpt>
      <trkpt lat="42.6786172483" lon="0.4094293993">
        <ele>2065.05</ele>
        <time>2022-07-09T11:31:45Z</time>
      </trkpt>
      <trkpt lat="42.6785963774" lon="0.4094007332">
        <ele>2063.61</ele>
        <time>2022-07-09T11:31:48Z</time>
      </trkpt>
      <trkpt lat="42.6785851456" lon="0.4093801137">
        <ele>2062.65</ele>
        <time>2022-07-09T11:31:50Z</time>
      </trkpt>
      <trkpt lat="42.6785638556" lon="0.4093305767">
        <ele>2061.20</ele>
        <time>2022-07-09T11:31:54Z</time>
      </trkpt>
      <trkpt lat="42.6785566472" lon="0.4092891701">
        <ele>2060.72</ele>
        <time>2022-07-09T11:31:57Z</time>
      </trkpt>
      <trkpt lat="42.6785101276" lon="0.4091473483">
        <ele>2057.84</ele>
        <time>2022-07-09T11:32:09Z</time>
      </trkpt>
      <trkpt lat="42.6785247959" lon="0.4091097973">
        <ele>2056.40</ele>
        <time>2022-07-09T11:32:12Z</time>
      </trkpt>
      <trkpt lat="42.6785288192" lon="0.4090827238">
        <ele>2055.44</ele>
        <time>2022-07-09T11:32:14Z</time>
      </trkpt>
      <trkpt lat="42.6785367820" lon="0.4089968093">
        <ele>2053.99</ele>
        <time>2022-07-09T11:32:20Z</time>
      </trkpt>
      <trkpt lat="42.6785674598" lon="0.4088213760">
        <ele>2051.11</ele>
        <time>2022-07-09T11:32:35Z</time>
      </trkpt>
      <trkpt lat="42.6785695553" lon="0.4087380599">
        <ele>2049.67</ele>
        <time>2022-07-09T11:32:40Z</time>
      </trkpt>
      <trkpt lat="42.6785752550" lon="0.4086142592">
        <ele>2046.78</ele>
        <time>2022-07-09T11:32:52Z</time>
      </trkpt>
      <trkpt lat="42.6785840560" lon="0.4085746128">
        <ele>2045.34</ele>
        <time>2022-07-09T11:32:56Z</time>
      </trkpt>
      <trkpt lat="42.6785900071" lon="0.4085497186">
        <ele>2044.86</ele>
        <time>2022-07-09T11:32:59Z</time>
      </trkpt>
      <trkpt lat="42.6785952877" lon="0.4084610380">
        <ele>2041.50</ele>
        <time>2022-07-09T11:33:05Z</time>
      </trkpt>
      <trkpt lat="42.6785838045" lon="0.4083352257">
        <ele>2038.61</ele>
        <time>2022-07-09T11:33:13Z</time>
      </trkpt>
      <trkpt lat="42.6785760932" lon="0.4082583636">
        <ele>2037.17</ele>
        <time>2022-07-09T11:33:18Z</time>
      </trkpt>
      <trkpt lat="42.6785807870" lon="0.4081743769">
        <ele>2035.73</ele>
        <time>2022-07-09T11:33:24Z</time>
      </trkpt>
      <trkpt lat="42.6785708964" lon="0.4081462137">
        <ele>2034.77</ele>
        <time>2022-07-09T11:33:26Z</time>
      </trkpt>
      <trkpt lat="42.6785581559" lon="0.4080982693">
        <ele>2033.33</ele>
        <time>2022-07-09T11:33:29Z</time>
      </trkpt>
      <trkpt lat="42.6785019971" lon="0.4079691879">
        <ele>2029.48</ele>
        <time>2022-07-09T11:33:40Z</time>
      </trkpt>
      <trkpt lat="42.6784869935" lon="0.4079443775">
        <ele>2029.00</ele>
        <time>2022-07-09T11:33:42Z</time>
      </trkpt>
      <trkpt lat="42.6784653682" lon="0.4078819323">
        <ele>2027.56</ele>
        <time>2022-07-09T11:33:46Z</time>
      </trkpt>
      <trkpt lat="42.6784422342" lon="0.4077738896">
        <ele>2025.15</ele>
        <time>2022-07-09T11:33:53Z</time>
      </trkpt>
      <trkpt lat="42.6784444973" lon="0.4077639151">
        <ele>2024.67</ele>
        <time>2022-07-09T11:33:54Z</time>
      </trkpt>
      <trkpt lat="42.6784362830" lon="0.4076815210">
        <ele>2024.19</ele>
        <time>2022-07-09T11:34:03Z</time>
      </trkpt>
      <trkpt lat="42.6783891767" lon="0.4076595604">
        <ele>2022.75</ele>
        <time>2022-07-09T11:34:07Z</time>
      </trkpt>
      <trkpt lat="42.6783713233" lon="0.4076354206">
        <ele>2021.31</ele>
        <time>2022-07-09T11:34:10Z</time>
      </trkpt>
      <trkpt lat="42.6783589181" lon="0.4075973667">
        <ele>2019.87</ele>
        <time>2022-07-09T11:34:13Z</time>
      </trkpt>
      <trkpt lat="42.6783209480" lon="0.4074624181">
        <ele>2016.02</ele>
        <time>2022-07-09T11:34:22Z</time>
      </trkpt>
      <trkpt lat="42.6783074532" lon="0.4073659424">
        <ele>2014.58</ele>
        <time>2022-07-09T11:34:28Z</time>
      </trkpt>
      <trkpt lat="42.6782396436" lon="0.4072515294">
        <ele>2012.18</ele>
        <time>2022-07-09T11:34:37Z</time>
      </trkpt>
      <trkpt lat="42.6782186888" lon="0.4072283953">
        <ele>2010.73</ele>
        <time>2022-07-09T11:34:40Z</time>
      </trkpt>
      <trkpt lat="42.6782054454" lon="0.4072070215">
        <ele>2009.77</ele>
        <time>2022-07-09T11:34:42Z</time>
      </trkpt>
      <trkpt lat="42.6782014221" lon="0.4071955383">
        <ele>2009.77</ele>
        <time>2022-07-09T11:34:43Z</time>
      </trkpt>
      <trkpt lat="42.6781546511" lon="0.4071056005">
        <ele>2007.37</ele>
        <time>2022-07-09T11:34:50Z</time>
      </trkpt>
      <trkpt lat="42.6780989114" lon="0.4070106335">
        <ele>2004.01</ele>
        <time>2022-07-09T11:34:59Z</time>
      </trkpt>
      <trkpt lat="42.6779967360" lon="0.4070088733">
        <ele>2001.60</ele>
        <time>2022-07-09T11:35:13Z</time>
      </trkpt>
      <trkpt lat="42.6778952312" lon="0.4069511220">
        <ele>1998.72</ele>
        <time>2022-07-09T11:35:25Z</time>
      </trkpt>
      <trkpt lat="42.6778596081" lon="0.4069219530">
        <ele>1997.28</ele>
        <time>2022-07-09T11:35:29Z</time>
      </trkpt>
      <trkpt lat="42.6778268348" lon="0.4069080390">
        <ele>1996.80</ele>
        <time>2022-07-09T11:35:32Z</time>
      </trkpt>
      <trkpt lat="42.6776921377" lon="0.4068259802">
        <ele>1993.43</ele>
        <time>2022-07-09T11:35:46Z</time>
      </trkpt>
      <trkpt lat="42.6776426844" lon="0.4067890998">
        <ele>1991.51</ele>
        <time>2022-07-09T11:35:51Z</time>
      </trkpt>
      <trkpt lat="42.6776237413" lon="0.4067754373">
        <ele>1990.55</ele>
        <time>2022-07-09T11:35:53Z</time>
      </trkpt>
      <trkpt lat="42.6775935665" lon="0.4067675583">
        <ele>1990.07</ele>
        <time>2022-07-09T11:35:56Z</time>
      </trkpt>
      <trkpt lat="42.6775771379" lon="0.4067450110">
        <ele>1989.59</ele>
        <time>2022-07-09T11:35:58Z</time>
      </trkpt>
      <trkpt lat="42.6774499007" lon="0.4067237210">
        <ele>1986.22</ele>
        <time>2022-07-09T11:36:13Z</time>
      </trkpt>
      <trkpt lat="42.6773649082" lon="0.4067157581">
        <ele>1982.86</ele>
        <time>2022-07-09T11:36:25Z</time>
      </trkpt>
      <trkpt lat="42.6773033850" lon="0.4066749383">
        <ele>1981.90</ele>
        <time>2022-07-09T11:36:36Z</time>
      </trkpt>
      <trkpt lat="42.6772447117" lon="0.4066564143">
        <ele>1984.30</ele>
        <time>2022-07-09T11:36:42Z</time>
      </trkpt>
      <trkpt lat="42.6771972701" lon="0.4066497087">
        <ele>1984.30</ele>
        <time>2022-07-09T11:36:46Z</time>
      </trkpt>
      <trkpt lat="42.6770303026" lon="0.4065842461">
        <ele>1981.90</ele>
        <time>2022-07-09T11:37:00Z</time>
      </trkpt>
      <trkpt lat="42.6768587250" lon="0.4065106530">
        <ele>1979.97</ele>
        <time>2022-07-09T11:37:14Z</time>
      </trkpt>
      <trkpt lat="42.6766709704" lon="0.4064753652">
        <ele>1976.13</ele>
        <time>2022-07-09T11:37:29Z</time>
      </trkpt>
      <trkpt lat="42.6765676215" lon="0.4064029455">
        <ele>1973.24</ele>
        <time>2022-07-09T11:37:39Z</time>
      </trkpt>
      <trkpt lat="42.6763868239" lon="0.4063539952">
        <ele>1969.88</ele>
        <time>2022-07-09T11:37:53Z</time>
      </trkpt>
      <trkpt lat="42.6763230376" lon="0.4063374829">
        <ele>1967.48</ele>
        <time>2022-07-09T11:37:59Z</time>
      </trkpt>
      <trkpt lat="42.6761868317" lon="0.4063354712">
        <ele>1965.07</ele>
        <time>2022-07-09T11:38:10Z</time>
      </trkpt>
      <trkpt lat="42.6759853307" lon="0.4062074795">
        <ele>1962.19</ele>
        <time>2022-07-09T11:38:27Z</time>
      </trkpt>
      <trkpt lat="42.6759345364" lon="0.4061794002">
        <ele>1961.23</ele>
        <time>2022-07-09T11:38:34Z</time>
      </trkpt>
      <trkpt lat="42.6758201234" lon="0.4060963355">
        <ele>1957.86</ele>
        <time>2022-07-09T11:38:46Z</time>
      </trkpt>
      <trkpt lat="42.6756829955" lon="0.4060803261">
        <ele>1954.98</ele>
        <time>2022-07-09T11:38:57Z</time>
      </trkpt>
      <trkpt lat="42.6756401639" lon="0.4060558509">
        <ele>1953.54</ele>
        <time>2022-07-09T11:39:01Z</time>
      </trkpt>
      <trkpt lat="42.6755510643" lon="0.4060276039">
        <ele>1952.57</ele>
        <time>2022-07-09T11:39:08Z</time>
      </trkpt>
      <trkpt lat="42.6754589472" lon="0.4059203155">
        <ele>1949.21</ele>
        <time>2022-07-09T11:39:20Z</time>
      </trkpt>
      <trkpt lat="42.6754400879" lon="0.4059121851">
        <ele>1949.21</ele>
        <time>2022-07-09T11:39:22Z</time>
      </trkpt>
      <trkpt lat="42.6752871182" lon="0.4060193896">
        <ele>1946.33</ele>
        <time>2022-07-09T11:39:34Z</time>
      </trkpt>
      <trkpt lat="42.6752763893" lon="0.4060237482">
        <ele>1946.33</ele>
        <time>2022-07-09T11:39:35Z</time>
      </trkpt>
      <trkpt lat="42.6751190610" lon="0.4060202278">
        <ele>1947.29</ele>
        <time>2022-07-09T11:39:48Z</time>
      </trkpt>
      <trkpt lat="42.6750914846" lon="0.4060038831">
        <ele>1945.85</ele>
        <time>2022-07-09T11:39:50Z</time>
      </trkpt>
      <trkpt lat="42.6750226691" lon="0.4058944993">
        <ele>1942.96</ele>
        <time>2022-07-09T11:39:59Z</time>
      </trkpt>
      <trkpt lat="42.6749907341" lon="0.4058516677">
        <ele>1942.96</ele>
        <time>2022-07-09T11:40:03Z</time>
      </trkpt>
      <trkpt lat="42.6749216672" lon="0.4058236722">
        <ele>1942.48</ele>
        <time>2022-07-09T11:40:08Z</time>
      </trkpt>
      <trkpt lat="42.6748130377" lon="0.4058470577">
        <ele>1942.96</ele>
        <time>2022-07-09T11:40:16Z</time>
      </trkpt>
      <trkpt lat="42.6746017300" lon="0.4057389311">
        <ele>1941.52</ele>
        <time>2022-07-09T11:40:33Z</time>
      </trkpt>
      <trkpt lat="42.6744210161" lon="0.4056251887">
        <ele>1939.12</ele>
        <time>2022-07-09T11:40:48Z</time>
      </trkpt>
      <trkpt lat="42.6743690483" lon="0.4056090117">
        <ele>1939.12</ele>
        <time>2022-07-09T11:40:52Z</time>
      </trkpt>
      <trkpt lat="42.6741556451" lon="0.4054676089">
        <ele>1936.23</ele>
        <time>2022-07-09T11:41:09Z</time>
      </trkpt>
      <trkpt lat="42.6741029229" lon="0.4054235201">
        <ele>1935.75</ele>
        <time>2022-07-09T11:41:14Z</time>
      </trkpt>
      <trkpt lat="42.6740444172" lon="0.4054230172">
        <ele>1934.79</ele>
        <time>2022-07-09T11:41:18Z</time>
      </trkpt>
      <trkpt lat="42.6738678105" lon="0.4053182434">
        <ele>1933.83</ele>
        <time>2022-07-09T11:41:32Z</time>
      </trkpt>
      <trkpt lat="42.6738523040" lon="0.4053090233">
        <ele>1933.83</ele>
        <time>2022-07-09T11:41:33Z</time>
      </trkpt>
      <trkpt lat="42.6736358833" lon="0.4052250367">
        <ele>1931.91</ele>
        <time>2022-07-09T11:41:49Z</time>
      </trkpt>
      <trkpt lat="42.6734308619" lon="0.4051070195">
        <ele>1929.50</ele>
        <time>2022-07-09T11:42:05Z</time>
      </trkpt>
      <trkpt lat="42.6733877789" lon="0.4050421435">
        <ele>1927.58</ele>
        <time>2022-07-09T11:42:11Z</time>
      </trkpt>
      <trkpt lat="42.6733965799" lon="0.4049916845">
        <ele>1927.58</ele>
        <time>2022-07-09T11:42:15Z</time>
      </trkpt>
      <trkpt lat="42.6733451150" lon="0.4049764294">
        <ele>1926.14</ele>
        <time>2022-07-09T11:42:19Z</time>
      </trkpt>
      <trkpt lat="42.6731987670" lon="0.4049333464">
        <ele>1927.10</ele>
        <time>2022-07-09T11:42:32Z</time>
      </trkpt>
      <trkpt lat="42.6730851084" lon="0.4048977233">
        <ele>1929.98</ele>
        <time>2022-07-09T11:42:43Z</time>
      </trkpt>
      <trkpt lat="42.6729726233" lon="0.4048507009">
        <ele>1926.62</ele>
        <time>2022-07-09T11:42:51Z</time>
      </trkpt>
      <trkpt lat="42.6727940887" lon="0.4047776107">
        <ele>1925.66</ele>
        <time>2022-07-09T11:43:07Z</time>
      </trkpt>
      <trkpt lat="42.6726233494" lon="0.4046835657">
        <ele>1925.66</ele>
        <time>2022-07-09T11:43:21Z</time>
      </trkpt>
      <trkpt lat="42.6725746505" lon="0.4046599288">
        <ele>1925.66</ele>
        <time>2022-07-09T11:43:24Z</time>
      </trkpt>
      <trkpt lat="42.6724301465" lon="0.4045323562">
        <ele>1925.66</ele>
        <time>2022-07-09T11:43:38Z</time>
      </trkpt>
      <trkpt lat="42.6723879855" lon="0.4044948891">
        <ele>1926.62</ele>
        <time>2022-07-09T11:43:43Z</time>
      </trkpt>
      <trkpt lat="42.6723173261" lon="0.4044444300">
        <ele>1926.14</ele>
        <time>2022-07-09T11:43:49Z</time>
      </trkpt>
      <trkpt lat="42.6722262986" lon="0.4043586832">
        <ele>1926.14</ele>
        <time>2022-07-09T11:43:57Z</time>
      </trkpt>
      <trkpt lat="42.6721343491" lon="0.4042798933">
        <ele>1926.14</ele>
        <time>2022-07-09T11:44:06Z</time>
      </trkpt>
      <trkpt lat="42.6721190941" lon="0.4042257462">
        <ele>1924.70</ele>
        <time>2022-07-09T11:44:10Z</time>
      </trkpt>
      <trkpt lat="42.6721227821" lon="0.4041091539">
        <ele>1924.70</ele>
        <time>2022-07-09T11:44:18Z</time>
      </trkpt>
      <trkpt lat="42.6721104607" lon="0.4040670767">
        <ele>1924.70</ele>
        <time>2022-07-09T11:44:21Z</time>
      </trkpt>
      <trkpt lat="42.6720372867" lon="0.4039285239">
        <ele>1923.74</ele>
        <time>2022-07-09T11:44:35Z</time>
      </trkpt>
      <trkpt lat="42.6719157491" lon="0.4038243368">
        <ele>1927.58</ele>
        <time>2022-07-09T11:44:49Z</time>
      </trkpt>
      <trkpt lat="42.6718916092" lon="0.4037907254">
        <ele>1926.14</ele>
        <time>2022-07-09T11:44:52Z</time>
      </trkpt>
      <trkpt lat="42.6718772762" lon="0.4037723690">
        <ele>1925.18</ele>
        <time>2022-07-09T11:44:54Z</time>
      </trkpt>
      <trkpt lat="42.6718077064" lon="0.4036395997">
        <ele>1923.74</ele>
        <time>2022-07-09T11:45:04Z</time>
      </trkpt>
      <trkpt lat="42.6717078779" lon="0.4034991190">
        <ele>1925.18</ele>
        <time>2022-07-09T11:45:15Z</time>
      </trkpt>
      <trkpt lat="42.6715425868" lon="0.4033084307">
        <ele>1924.70</ele>
        <time>2022-07-09T11:45:32Z</time>
      </trkpt>
      <trkpt lat="42.6714043692" lon="0.4031499289">
        <ele>1925.66</ele>
        <time>2022-07-09T11:45:46Z</time>
      </trkpt>
      <trkpt lat="42.6713031158" lon="0.4029644374">
        <ele>1923.74</ele>
        <time>2022-07-09T11:46:00Z</time>
      </trkpt>
      <trkpt lat="42.6712555904" lon="0.4028912634">
        <ele>1923.74</ele>
        <time>2022-07-09T11:46:06Z</time>
      </trkpt>
      <trkpt lat="42.6712333784" lon="0.4028556403">
        <ele>1922.77</ele>
        <time>2022-07-09T11:46:11Z</time>
      </trkpt>
      <trkpt lat="42.6710488088" lon="0.4027964640">
        <ele>1924.70</ele>
        <time>2022-07-09T11:46:26Z</time>
      </trkpt>
      <trkpt lat="42.6709918957" lon="0.4027414788">
        <ele>1927.10</ele>
        <time>2022-07-09T11:46:42Z</time>
      </trkpt>
      <trkpt lat="42.6709933206" lon="0.4027433228">
        <ele>1925.66</ele>
        <time>2022-07-09T11:46:45Z</time>
      </trkpt>
      <trkpt lat="42.6709754672" lon="0.4027330969">
        <ele>1925.18</ele>
        <time>2022-07-09T11:47:15Z</time>
      </trkpt>
      <trkpt lat="42.6709694322" lon="0.4027296603">
        <ele>1925.18</ele>
        <time>2022-07-09T11:47:16Z</time>
      </trkpt>
      <trkpt lat="42.6708555222" lon="0.4024779517">
        <ele>1923.74</ele>
        <time>2022-07-09T11:47:33Z</time>
      </trkpt>
      <trkpt lat="42.6707717869" lon="0.4023172706">
        <ele>1923.74</ele>
        <time>2022-07-09T11:47:45Z</time>
      </trkpt>
      <trkpt lat="42.6707530115" lon="0.4022958130">
        <ele>1925.18</ele>
        <time>2022-07-09T11:47:47Z</time>
      </trkpt>
      <trkpt lat="42.6706472319" lon="0.4020667356">
        <ele>1924.70</ele>
        <time>2022-07-09T11:48:02Z</time>
      </trkpt>
      <trkpt lat="42.6706397720" lon="0.4020429309">
        <ele>1924.70</ele>
        <time>2022-07-09T11:48:04Z</time>
      </trkpt>
      <trkpt lat="42.6706357487" lon="0.4020193778">
        <ele>1923.74</ele>
        <time>2022-07-09T11:48:06Z</time>
      </trkpt>
      <trkpt lat="42.6706334017" lon="0.4019275960">
        <ele>1922.29</ele>
        <time>2022-07-09T11:48:12Z</time>
      </trkpt>
      <trkpt lat="42.6705992874" lon="0.4018777236">
        <ele>1922.29</ele>
        <time>2022-07-09T11:48:16Z</time>
      </trkpt>
      <trkpt lat="42.6705075894" lon="0.4017454572">
        <ele>1921.33</ele>
        <time>2022-07-09T11:48:27Z</time>
      </trkpt>
      <trkpt lat="42.6704780851" lon="0.4017198086">
        <ele>1919.89</ele>
        <time>2022-07-09T11:48:30Z</time>
      </trkpt>
      <trkpt lat="42.6703759935" lon="0.4015564453">
        <ele>1918.45</ele>
        <time>2022-07-09T11:48:42Z</time>
      </trkpt>
      <trkpt lat="42.6702913363" lon="0.4014324769">
        <ele>1915.08</ele>
        <time>2022-07-09T11:48:53Z</time>
      </trkpt>
      <trkpt lat="42.6702786796" lon="0.4014116060">
        <ele>1914.60</ele>
        <time>2022-07-09T11:48:56Z</time>
      </trkpt>
      <trkpt lat="42.6702436432" lon="0.4013639968">
        <ele>1913.64</ele>
        <time>2022-07-09T11:49:00Z</time>
      </trkpt>
      <trkpt lat="42.6701635960" lon="0.4011692014">
        <ele>1911.72</ele>
        <time>2022-07-09T11:49:15Z</time>
      </trkpt>
      <trkpt lat="42.6701583993" lon="0.4011598974">
        <ele>1911.72</ele>
        <time>2022-07-09T11:49:16Z</time>
      </trkpt>
      <trkpt lat="42.6701090299" lon="0.4010985419">
        <ele>1911.72</ele>
        <time>2022-07-09T11:49:22Z</time>
      </trkpt>
      <trkpt lat="42.6700759213" lon="0.4010372702">
        <ele>1912.68</ele>
        <time>2022-07-09T11:49:27Z</time>
      </trkpt>
      <trkpt lat="42.6700253785" lon="0.4009583965">
        <ele>1912.68</ele>
        <time>2022-07-09T11:49:33Z</time>
      </trkpt>
      <trkpt lat="42.6700085308" lon="0.4009277187">
        <ele>1912.68</ele>
        <time>2022-07-09T11:49:35Z</time>
      </trkpt>
      <trkpt lat="42.6699455827" lon="0.4008153174">
        <ele>1911.24</ele>
        <time>2022-07-09T11:49:43Z</time>
      </trkpt>
      <trkpt lat="42.6698389649" lon="0.4005884193">
        <ele>1910.76</ele>
        <time>2022-07-09T11:49:58Z</time>
      </trkpt>
      <trkpt lat="42.6697853208" lon="0.4005134013">
        <ele>1910.28</ele>
        <time>2022-07-09T11:50:04Z</time>
      </trkpt>
      <trkpt lat="42.6697607618" lon="0.4004069511">
        <ele>1911.24</ele>
        <time>2022-07-09T11:50:11Z</time>
      </trkpt>
      <trkpt lat="42.6697376277" lon="0.4003207013">
        <ele>1912.68</ele>
        <time>2022-07-09T11:50:21Z</time>
      </trkpt>
      <trkpt lat="42.6696879230" lon="0.4002445936">
        <ele>1912.20</ele>
        <time>2022-07-09T11:50:27Z</time>
      </trkpt>
      <trkpt lat="42.6695870049" lon="0.4000432603">
        <ele>1912.68</ele>
        <time>2022-07-09T11:50:41Z</time>
      </trkpt>
      <trkpt lat="42.6695336122" lon="0.3999685775">
        <ele>1911.24</ele>
        <time>2022-07-09T11:50:49Z</time>
      </trkpt>
      <trkpt lat="42.6694816444" lon="0.3998352215">
        <ele>1912.68</ele>
        <time>2022-07-09T11:51:04Z</time>
      </trkpt>
      <trkpt lat="42.6694552414" lon="0.3997666575">
        <ele>1912.68</ele>
        <time>2022-07-09T11:51:09Z</time>
      </trkpt>
      <trkpt lat="42.6694492903" lon="0.3997346386">
        <ele>1913.16</ele>
        <time>2022-07-09T11:51:11Z</time>
      </trkpt>
      <trkpt lat="42.6694204565" lon="0.3995727003">
        <ele>1915.08</ele>
        <time>2022-07-09T11:51:25Z</time>
      </trkpt>
      <trkpt lat="42.6693399902" lon="0.3993038088">
        <ele>1912.68</ele>
        <time>2022-07-09T11:51:41Z</time>
      </trkpt>
      <trkpt lat="42.6693370566" lon="0.3992576245">
        <ele>1912.68</ele>
        <time>2022-07-09T11:51:45Z</time>
      </trkpt>
      <trkpt lat="42.6693046186" lon="0.3991862945">
        <ele>1912.20</ele>
        <time>2022-07-09T11:51:50Z</time>
      </trkpt>
      <trkpt lat="42.6692973264" lon="0.3991109412">
        <ele>1911.72</ele>
        <time>2022-07-09T11:51:55Z</time>
      </trkpt>
      <trkpt lat="42.6692484599" lon="0.3990157228">
        <ele>1911.24</ele>
        <time>2022-07-09T11:52:03Z</time>
      </trkpt>
      <trkpt lat="42.6692141779" lon="0.3989039920">
        <ele>1911.24</ele>
        <time>2022-07-09T11:52:10Z</time>
      </trkpt>
      <trkpt lat="42.6691170316" lon="0.3986649401">
        <ele>1912.68</ele>
        <time>2022-07-09T11:52:26Z</time>
      </trkpt>
      <trkpt lat="42.6690655667" lon="0.3986219410">
        <ele>1911.24</ele>
        <time>2022-07-09T11:52:31Z</time>
      </trkpt>
      <trkpt lat="42.6690370683" lon="0.3985908441">
        <ele>1910.76</ele>
        <time>2022-07-09T11:52:34Z</time>
      </trkpt>
      <trkpt lat="42.6689980086" lon="0.3985604178">
        <ele>1908.83</ele>
        <time>2022-07-09T11:52:38Z</time>
      </trkpt>
      <trkpt lat="42.6689575240" lon="0.3985181730">
        <ele>1908.35</ele>
        <time>2022-07-09T11:52:43Z</time>
      </trkpt>
      <trkpt lat="42.6688911393" lon="0.3984558955">
        <ele>1906.43</ele>
        <time>2022-07-09T11:52:50Z</time>
      </trkpt>
      <trkpt lat="42.6688422728" lon="0.3983844817">
        <ele>1904.99</ele>
        <time>2022-07-09T11:52:57Z</time>
      </trkpt>
      <trkpt lat="42.6688117627" lon="0.3983642813">
        <ele>1904.51</ele>
        <time>2022-07-09T11:53:00Z</time>
      </trkpt>
      <trkpt lat="42.6687347330" lon="0.3982333560">
        <ele>1903.55</ele>
        <time>2022-07-09T11:53:11Z</time>
      </trkpt>
      <trkpt lat="42.6686053164" lon="0.3980488703">
        <ele>1902.11</ele>
        <time>2022-07-09T11:53:25Z</time>
      </trkpt>
      <trkpt lat="42.6685705315" lon="0.3979319427">
        <ele>1900.18</ele>
        <time>2022-07-09T11:53:33Z</time>
      </trkpt>
      <trkpt lat="42.6684928313" lon="0.3978253249">
        <ele>1896.82</ele>
        <time>2022-07-09T11:53:45Z</time>
      </trkpt>
      <trkpt lat="42.6684116106" lon="0.3977057990">
        <ele>1894.90</ele>
        <time>2022-07-09T11:53:54Z</time>
      </trkpt>
      <trkpt lat="42.6682437211" lon="0.3975576069">
        <ele>1892.97</ele>
        <time>2022-07-09T11:54:10Z</time>
      </trkpt>
      <trkpt lat="42.6681165677" lon="0.3974322975">
        <ele>1890.57</ele>
        <time>2022-07-09T11:54:23Z</time>
      </trkpt>
      <trkpt lat="42.6681081858" lon="0.3974220715">
        <ele>1890.57</ele>
        <time>2022-07-09T11:54:24Z</time>
      </trkpt>
      <trkpt lat="42.6680806093" lon="0.3973613027">
        <ele>1889.13</ele>
        <time>2022-07-09T11:54:28Z</time>
      </trkpt>
      <trkpt lat="42.6680500992" lon="0.3973240871">
        <ele>1888.65</ele>
        <time>2022-07-09T11:54:31Z</time>
      </trkpt>
      <trkpt lat="42.6679760031" lon="0.3972001188">
        <ele>1886.24</ele>
        <time>2022-07-09T11:54:41Z</time>
      </trkpt>
      <trkpt lat="42.6679176651" lon="0.3970992845">
        <ele>1884.32</ele>
        <time>2022-07-09T11:54:50Z</time>
      </trkpt>
      <trkpt lat="42.6678794436" lon="0.3970262781">
        <ele>1883.36</ele>
        <time>2022-07-09T11:54:55Z</time>
      </trkpt>
      <trkpt lat="42.6678228658" lon="0.3968569636">
        <ele>1879.51</ele>
        <time>2022-07-09T11:55:09Z</time>
      </trkpt>
      <trkpt lat="42.6678081974" lon="0.3968432173">
        <ele>1879.51</ele>
        <time>2022-07-09T11:55:11Z</time>
      </trkpt>
      <trkpt lat="42.6677232888" lon="0.3966802731">
        <ele>1878.55</ele>
        <time>2022-07-09T11:55:24Z</time>
      </trkpt>
      <trkpt lat="42.6676601730" lon="0.3964793589">
        <ele>1877.11</ele>
        <time>2022-07-09T11:55:35Z</time>
      </trkpt>
      <trkpt lat="42.6676175091" lon="0.3963940311">
        <ele>1876.63</ele>
        <time>2022-07-09T11:55:41Z</time>
      </trkpt>
      <trkpt lat="42.6675621886" lon="0.3963299096">
        <ele>1875.67</ele>
        <time>2022-07-09T11:55:46Z</time>
      </trkpt>
      <trkpt lat="42.6674832311" lon="0.3962268960">
        <ele>1874.71</ele>
        <time>2022-07-09T11:55:57Z</time>
      </trkpt>
      <trkpt lat="42.6674361248" lon="0.3961629421">
        <ele>1874.71</ele>
        <time>2022-07-09T11:56:03Z</time>
      </trkpt>
      <trkpt lat="42.6673622802" lon="0.3960182704">
        <ele>1873.27</ele>
        <time>2022-07-09T11:56:17Z</time>
      </trkpt>
      <trkpt lat="42.6673196163" lon="0.3959652968">
        <ele>1872.79</ele>
        <time>2022-07-09T11:56:23Z</time>
      </trkpt>
      <trkpt lat="42.6672431733" lon="0.3958202899">
        <ele>1870.38</ele>
        <time>2022-07-09T11:56:35Z</time>
      </trkpt>
      <trkpt lat="42.6672067121" lon="0.3957570065">
        <ele>1870.38</ele>
        <time>2022-07-09T11:56:40Z</time>
      </trkpt>
      <trkpt lat="42.6670664828" lon="0.3955819923">
        <ele>1867.02</ele>
        <time>2022-07-09T11:56:55Z</time>
      </trkpt>
      <trkpt lat="42.6669663191" lon="0.3954857681">
        <ele>1865.09</ele>
        <time>2022-07-09T11:57:10Z</time>
      </trkpt>
      <trkpt lat="42.6669077296" lon="0.3954109177">
        <ele>1864.61</ele>
        <time>2022-07-09T11:57:18Z</time>
      </trkpt>
      <trkpt lat="42.6668633893" lon="0.3953821678">
        <ele>1862.69</ele>
        <time>2022-07-09T11:57:23Z</time>
      </trkpt>
      <trkpt lat="42.6668397523" lon="0.3953867778">
        <ele>1862.69</ele>
        <time>2022-07-09T11:57:25Z</time>
      </trkpt>
      <trkpt lat="42.6668059733" lon="0.3953654040">
        <ele>1860.77</ele>
        <time>2022-07-09T11:57:28Z</time>
      </trkpt>
      <trkpt lat="42.6666255947" lon="0.3953164537">
        <ele>1859.33</ele>
        <time>2022-07-09T11:57:43Z</time>
      </trkpt>
      <trkpt lat="42.6665555220" lon="0.3953125142">
        <ele>1859.81</ele>
        <time>2022-07-09T11:57:48Z</time>
      </trkpt>
      <trkpt lat="42.6665053144" lon="0.3953064792">
        <ele>1857.89</ele>
        <time>2022-07-09T11:57:52Z</time>
      </trkpt>
      <trkpt lat="42.6664406061" lon="0.3953036293">
        <ele>1856.92</ele>
        <time>2022-07-09T11:57:57Z</time>
      </trkpt>
      <trkpt lat="42.6664069947" lon="0.3953123465">
        <ele>1855.96</ele>
        <time>2022-07-09T11:58:00Z</time>
      </trkpt>
      <trkpt lat="42.6663221698" lon="0.3952676710">
        <ele>1852.12</ele>
        <time>2022-07-09T11:58:07Z</time>
      </trkpt>
      <trkpt lat="42.6662489958" lon="0.3952219058">
        <ele>1850.68</ele>
        <time>2022-07-09T11:58:13Z</time>
      </trkpt>
      <trkpt lat="42.6661922503" lon="0.3952154517">
        <ele>1850.19</ele>
        <time>2022-07-09T11:58:17Z</time>
      </trkpt>
      <trkpt lat="42.6661495864" lon="0.3952472191">
        <ele>1850.19</ele>
        <time>2022-07-09T11:58:22Z</time>
      </trkpt>
      <trkpt lat="42.6661309786" lon="0.3952420224">
        <ele>1848.75</ele>
        <time>2022-07-09T11:58:24Z</time>
      </trkpt>
      <trkpt lat="42.6660976186" lon="0.3952566907">
        <ele>1846.83</ele>
        <time>2022-07-09T11:58:28Z</time>
      </trkpt>
      <trkpt lat="42.6660894044" lon="0.3952356521">
        <ele>1845.39</ele>
        <time>2022-07-09T11:58:42Z</time>
      </trkpt>
      <trkpt lat="42.6660846267" lon="0.3952361550">
        <ele>1845.39</ele>
        <time>2022-07-09T11:58:43Z</time>
      </trkpt>
      <trkpt lat="42.6660220977" lon="0.3952011187">
        <ele>1845.39</ele>
        <time>2022-07-09T11:58:50Z</time>
      </trkpt>
      <trkpt lat="42.6658388693" lon="0.3949639946">
        <ele>1842.50</ele>
        <time>2022-07-09T11:59:09Z</time>
      </trkpt>
      <trkpt lat="42.6657129731" lon="0.3947315644">
        <ele>1840.58</ele>
        <time>2022-07-09T11:59:25Z</time>
      </trkpt>
      <trkpt lat="42.6655777730" lon="0.3945355956">
        <ele>1839.62</ele>
        <time>2022-07-09T11:59:39Z</time>
      </trkpt>
      <trkpt lat="42.6655278169" lon="0.3945107013">
        <ele>1839.62</ele>
        <time>2022-07-09T11:59:43Z</time>
      </trkpt>
      <trkpt lat="42.6653379668" lon="0.3943589889">
        <ele>1839.62</ele>
        <time>2022-07-09T11:59:59Z</time>
      </trkpt>
      <trkpt lat="42.6653233822" lon="0.3943276405">
        <ele>1839.62</ele>
        <time>2022-07-09T12:00:01Z</time>
      </trkpt>
      <trkpt lat="42.6651652157" lon="0.3942263033">
        <ele>1837.70</ele>
        <time>2022-07-09T12:00:14Z</time>
      </trkpt>
      <trkpt lat="42.6651519723" lon="0.3942258842">
        <ele>1837.70</ele>
        <time>2022-07-09T12:00:15Z</time>
      </trkpt>
      <trkpt lat="42.6650795527" lon="0.3941473458">
        <ele>1837.22</ele>
        <time>2022-07-09T12:00:23Z</time>
      </trkpt>
      <trkpt lat="42.6650489587" lon="0.3940303344">
        <ele>1835.77</ele>
        <time>2022-07-09T12:00:31Z</time>
      </trkpt>
      <trkpt lat="42.6650318597" lon="0.3939101379">
        <ele>1834.81</ele>
        <time>2022-07-09T12:00:38Z</time>
      </trkpt>
      <trkpt lat="42.6649859268" lon="0.3937516361">
        <ele>1831.93</ele>
        <time>2022-07-09T12:00:49Z</time>
      </trkpt>
      <trkpt lat="42.6649565902" lon="0.3937316872">
        <ele>1831.45</ele>
        <time>2022-07-09T12:00:52Z</time>
      </trkpt>
      <trkpt lat="42.6649114117" lon="0.3936584294">
        <ele>1828.08</ele>
        <time>2022-07-09T12:01:01Z</time>
      </trkpt>
      <trkpt lat="42.6649079751" lon="0.3936492093">
        <ele>1828.08</ele>
        <time>2022-07-09T12:01:02Z</time>
      </trkpt>
      <trkpt lat="42.6648715977" lon="0.3936306853">
        <ele>1826.16</ele>
        <time>2022-07-09T12:01:08Z</time>
      </trkpt>
      <trkpt lat="42.6648733579" lon="0.3935449384">
        <ele>1823.76</ele>
        <time>2022-07-09T12:01:16Z</time>
      </trkpt>
      <trkpt lat="42.6648829971" lon="0.3934129234">
        <ele>1819.91</ele>
        <time>2022-07-09T12:01:29Z</time>
      </trkpt>
      <trkpt lat="42.6648968272" lon="0.3933726903">
        <ele>1819.43</ele>
        <time>2022-07-09T12:01:32Z</time>
      </trkpt>
      <trkpt lat="42.6649097353" lon="0.3931764700">
        <ele>1815.59</ele>
        <time>2022-07-09T12:01:44Z</time>
      </trkpt>
      <trkpt lat="42.6649061311" lon="0.3930392582">
        <ele>1813.66</ele>
        <time>2022-07-09T12:01:52Z</time>
      </trkpt>
      <trkpt lat="42.6649057958" lon="0.3930074908">
        <ele>1813.18</ele>
        <time>2022-07-09T12:01:54Z</time>
      </trkpt>
      <trkpt lat="42.6648860145" lon="0.3929439560">
        <ele>1812.22</ele>
        <time>2022-07-09T12:01:58Z</time>
      </trkpt>
      <trkpt lat="42.6648604497" lon="0.3928282019">
        <ele>1810.78</ele>
        <time>2022-07-09T12:02:06Z</time>
      </trkpt>
      <trkpt lat="42.6647949871" lon="0.3926992044">
        <ele>1809.34</ele>
        <time>2022-07-09T12:02:19Z</time>
      </trkpt>
      <trkpt lat="42.6647762116" lon="0.3926720470">
        <ele>1808.38</ele>
        <time>2022-07-09T12:02:31Z</time>
      </trkpt>
      <trkpt lat="42.6647479646" lon="0.3926509246">
        <ele>1807.42</ele>
        <time>2022-07-09T12:02:50Z</time>
      </trkpt>
      <trkpt lat="42.6647291053" lon="0.3926088475">
        <ele>1807.42</ele>
        <time>2022-07-09T12:02:55Z</time>
      </trkpt>
      <trkpt lat="42.6647128444" lon="0.3925956879">
        <ele>1807.42</ele>
        <time>2022-07-09T12:02:57Z</time>
      </trkpt>
      <trkpt lat="42.6645673346" lon="0.3923938517">
        <ele>1804.53</ele>
        <time>2022-07-09T12:03:14Z</time>
      </trkpt>
      <trkpt lat="42.6645230781" lon="0.3923421353">
        <ele>1804.53</ele>
        <time>2022-07-09T12:03:22Z</time>
      </trkpt>
      <trkpt lat="42.6644538436" lon="0.3923171572">
        <ele>1804.05</ele>
        <time>2022-07-09T12:03:27Z</time>
      </trkpt>
      <trkpt lat="42.6642420329" lon="0.3922203463">
        <ele>1802.61</ele>
        <time>2022-07-09T12:03:43Z</time>
      </trkpt>
      <trkpt lat="42.6642347407" lon="0.3922040854">
        <ele>1802.13</ele>
        <time>2022-07-09T12:03:44Z</time>
      </trkpt>
      <trkpt lat="42.6641198248" lon="0.3920496069">
        <ele>1800.21</ele>
        <time>2022-07-09T12:03:56Z</time>
      </trkpt>
      <trkpt lat="42.6639427152" lon="0.3919185139">
        <ele>1796.36</ele>
        <time>2022-07-09T12:04:11Z</time>
      </trkpt>
      <trkpt lat="42.6638090238" lon="0.3917786200">
        <ele>1796.36</ele>
        <time>2022-07-09T12:04:24Z</time>
      </trkpt>
      <trkpt lat="42.6636928506" lon="0.3916599322">
        <ele>1793.48</ele>
        <time>2022-07-09T12:04:36Z</time>
      </trkpt>
      <trkpt lat="42.6636729855" lon="0.3915806394">
        <ele>1790.11</ele>
        <time>2022-07-09T12:04:43Z</time>
      </trkpt>
      <trkpt lat="42.6636508573" lon="0.3915359639">
        <ele>1789.15</ele>
        <time>2022-07-09T12:04:47Z</time>
      </trkpt>
      <trkpt lat="42.6636320818" lon="0.3914947249">
        <ele>1788.67</ele>
        <time>2022-07-09T12:04:50Z</time>
      </trkpt>
      <trkpt lat="42.6635966264" lon="0.3914062120">
        <ele>1786.27</ele>
        <time>2022-07-09T12:04:56Z</time>
      </trkpt>
      <trkpt lat="42.6634412259" lon="0.3913491312">
        <ele>1783.86</ele>
        <time>2022-07-09T12:05:09Z</time>
      </trkpt>
      <trkpt lat="42.6633522101" lon="0.3912426811">
        <ele>1780.50</ele>
        <time>2022-07-09T12:05:19Z</time>
      </trkpt>
      <trkpt lat="42.6632738393" lon="0.3910457063">
        <ele>1777.13</ele>
        <time>2022-07-09T12:05:31Z</time>
      </trkpt>
      <trkpt lat="42.6631093863" lon="0.3909516614">
        <ele>1777.13</ele>
        <time>2022-07-09T12:05:44Z</time>
      </trkpt>
      <trkpt lat="42.6630446780" lon="0.3908559401">
        <ele>1776.65</ele>
        <time>2022-07-09T12:05:51Z</time>
      </trkpt>
      <trkpt lat="42.6629774552" lon="0.3906702809">
        <ele>1773.77</ele>
        <time>2022-07-09T12:06:02Z</time>
      </trkpt>
      <trkpt lat="42.6628368068" lon="0.3904807661">
        <ele>1771.85</ele>
        <time>2022-07-09T12:06:16Z</time>
      </trkpt>
      <trkpt lat="42.6628167741" lon="0.3904388566">
        <ele>1771.37</ele>
        <time>2022-07-09T12:06:19Z</time>
      </trkpt>
      <trkpt lat="42.6627817377" lon="0.3903448116">
        <ele>1769.44</ele>
        <time>2022-07-09T12:06:26Z</time>
      </trkpt>
      <trkpt lat="42.6626823284" lon="0.3902318235">
        <ele>1768.96</ele>
        <time>2022-07-09T12:06:35Z</time>
      </trkpt>
      <trkpt lat="42.6625395007" lon="0.3899468388">
        <ele>1767.52</ele>
        <time>2022-07-09T12:06:53Z</time>
      </trkpt>
      <trkpt lat="42.6624203101" lon="0.3897142410">
        <ele>1765.60</ele>
        <time>2022-07-09T12:07:08Z</time>
      </trkpt>
      <trkpt lat="42.6624043845" lon="0.3894504625">
        <ele>1765.12</ele>
        <time>2022-07-09T12:07:23Z</time>
      </trkpt>
      <trkpt lat="42.6624115929" lon="0.3894150909">
        <ele>1765.12</ele>
        <time>2022-07-09T12:07:25Z</time>
      </trkpt>
      <trkpt lat="42.6623737905" lon="0.3893345408">
        <ele>1764.64</ele>
        <time>2022-07-09T12:07:30Z</time>
      </trkpt>
      <trkpt lat="42.6623475552" lon="0.3892670665">
        <ele>1764.16</ele>
        <time>2022-07-09T12:07:34Z</time>
      </trkpt>
      <trkpt lat="42.6623022929" lon="0.3892036993">
        <ele>1763.20</ele>
        <time>2022-07-09T12:07:39Z</time>
      </trkpt>
      <trkpt lat="42.6622641552" lon="0.3891273402">
        <ele>1762.23</ele>
        <time>2022-07-09T12:07:44Z</time>
      </trkpt>
      <trkpt lat="42.6622050628" lon="0.3891057987">
        <ele>1762.23</ele>
        <time>2022-07-09T12:07:48Z</time>
      </trkpt>
      <trkpt lat="42.6620570384" lon="0.3889691737">
        <ele>1759.83</ele>
        <time>2022-07-09T12:08:02Z</time>
      </trkpt>
      <trkpt lat="42.6620319765" lon="0.3888671659">
        <ele>1758.87</ele>
        <time>2022-07-09T12:08:10Z</time>
      </trkpt>
      <trkpt lat="42.6619964372" lon="0.3888116777">
        <ele>1757.91</ele>
        <time>2022-07-09T12:08:14Z</time>
      </trkpt>
      <trkpt lat="42.6618718822" lon="0.3885971010">
        <ele>1760.31</ele>
        <time>2022-07-09T12:08:31Z</time>
      </trkpt>
      <trkpt lat="42.6618556213" lon="0.3885722067">
        <ele>1760.79</ele>
        <time>2022-07-09T12:08:33Z</time>
      </trkpt>
      <trkpt lat="42.6618155558" lon="0.3884846997">
        <ele>1760.31</ele>
        <time>2022-07-09T12:08:39Z</time>
      </trkpt>
      <trkpt lat="42.6617765799" lon="0.3884057421">
        <ele>1759.35</ele>
        <time>2022-07-09T12:08:44Z</time>
      </trkpt>
      <trkpt lat="42.6617287192" lon="0.3882894851">
        <ele>1758.87</ele>
        <time>2022-07-09T12:08:52Z</time>
      </trkpt>
      <trkpt lat="42.6616505999" lon="0.3880980425">
        <ele>1760.79</ele>
        <time>2022-07-09T12:09:05Z</time>
      </trkpt>
      <trkpt lat="42.6616003085" lon="0.3879479226">
        <ele>1760.79</ele>
        <time>2022-07-09T12:09:15Z</time>
      </trkpt>
      <trkpt lat="42.6615909208" lon="0.3879052587">
        <ele>1760.31</ele>
        <time>2022-07-09T12:09:18Z</time>
      </trkpt>
      <trkpt lat="42.6614734903" lon="0.3876955435">
        <ele>1762.23</ele>
        <time>2022-07-09T12:09:34Z</time>
      </trkpt>
      <trkpt lat="42.6614521164" lon="0.3876349423">
        <ele>1762.23</ele>
        <time>2022-07-09T12:09:39Z</time>
      </trkpt>
      <trkpt lat="42.6613234542" lon="0.3874314297">
        <ele>1761.27</ele>
        <time>2022-07-09T12:09:54Z</time>
      </trkpt>
      <trkpt lat="42.6612512022" lon="0.3872239776">
        <ele>1763.68</ele>
        <time>2022-07-09T12:10:11Z</time>
      </trkpt>
      <trkpt lat="42.6612237934" lon="0.3871678188">
        <ele>1765.12</ele>
        <time>2022-07-09T12:10:17Z</time>
      </trkpt>
      <trkpt lat="42.6611850690" lon="0.3870957345">
        <ele>1765.12</ele>
        <time>2022-07-09T12:10:23Z</time>
      </trkpt>
      <trkpt lat="42.6610827260" lon="0.3869759571">
        <ele>1762.23</ele>
        <time>2022-07-09T12:10:35Z</time>
      </trkpt>
      <trkpt lat="42.6610189397" lon="0.3868930601">
        <ele>1761.27</ele>
        <time>2022-07-09T12:10:41Z</time>
      </trkpt>
      <trkpt lat="42.6609031018" lon="0.3866892122">
        <ele>1761.27</ele>
        <time>2022-07-09T12:10:57Z</time>
      </trkpt>
      <trkpt lat="42.6608177740" lon="0.3865068220">
        <ele>1759.35</ele>
        <time>2022-07-09T12:11:12Z</time>
      </trkpt>
      <trkpt lat="42.6607870962" lon="0.3864030540">
        <ele>1757.91</ele>
        <time>2022-07-09T12:11:19Z</time>
      </trkpt>
      <trkpt lat="42.6607539039" lon="0.3862564545">
        <ele>1755.02</ele>
        <time>2022-07-09T12:11:32Z</time>
      </trkpt>
      <trkpt lat="42.6607115753" lon="0.3861372638">
        <ele>1751.66</ele>
        <time>2022-07-09T12:11:46Z</time>
      </trkpt>
      <trkpt lat="42.6607022714" lon="0.3861491662">
        <ele>1750.22</ele>
        <time>2022-07-09T12:12:10Z</time>
      </trkpt>
      <trkpt lat="42.6607035287" lon="0.3861478250">
        <ele>1753.10</ele>
        <time>2022-07-09T12:12:12Z</time>
      </trkpt>
      <trkpt lat="42.6607055403" lon="0.3861504234">
        <ele>1749.26</ele>
        <time>2022-07-09T12:12:13Z</time>
      </trkpt>
      <trkpt lat="42.6607044507" lon="0.3861486632">
        <ele>1749.26</ele>
        <time>2022-07-09T12:12:14Z</time>
      </trkpt>
      <trkpt lat="42.6607018523" lon="0.3861447237">
        <ele>1755.99</ele>
        <time>2022-07-09T12:12:15Z</time>
      </trkpt>
      <trkpt lat="42.6607012656" lon="0.3861443046">
        <ele>1752.14</ele>
        <time>2022-07-09T12:12:16Z</time>
      </trkpt>
      <trkpt lat="42.6607092284" lon="0.3861267865">
        <ele>1751.18</ele>
        <time>2022-07-09T12:12:28Z</time>
      </trkpt>
      <trkpt lat="42.6607098989" lon="0.3861144651">
        <ele>1752.62</ele>
        <time>2022-07-09T12:12:33Z</time>
      </trkpt>
      <trkpt lat="42.6607168559" lon="0.3861127049">
        <ele>1751.18</ele>
        <time>2022-07-09T12:12:36Z</time>
      </trkpt>
      <trkpt lat="42.6607119944" lon="0.3860950191">
        <ele>1752.62</ele>
        <time>2022-07-09T12:12:39Z</time>
      </trkpt>
      <trkpt lat="42.6607241482" lon="0.3860257845">
        <ele>1751.18</ele>
        <time>2022-07-09T12:12:43Z</time>
      </trkpt>
      <trkpt lat="42.6607294288" lon="0.3858448192">
        <ele>1749.74</ele>
        <time>2022-07-09T12:12:53Z</time>
      </trkpt>
      <trkpt lat="42.6607288420" lon="0.3857717291">
        <ele>1748.78</ele>
        <time>2022-07-09T12:12:57Z</time>
      </trkpt>
      <trkpt lat="42.6606667321" lon="0.3855925240">
        <ele>1745.89</ele>
        <time>2022-07-09T12:13:09Z</time>
      </trkpt>
      <trkpt lat="42.6606751978" lon="0.3854408953">
        <ele>1744.45</ele>
        <time>2022-07-09T12:13:24Z</time>
      </trkpt>
      <trkpt lat="42.6606881060" lon="0.3852182720">
        <ele>1741.08</ele>
        <time>2022-07-09T12:13:37Z</time>
      </trkpt>
      <trkpt lat="42.6606926322" lon="0.3851134144">
        <ele>1739.64</ele>
        <time>2022-07-09T12:13:42Z</time>
      </trkpt>
      <trkpt lat="42.6607236452" lon="0.3848440200">
        <ele>1736.76</ele>
        <time>2022-07-09T12:13:56Z</time>
      </trkpt>
      <trkpt lat="42.6606772095" lon="0.3844866995">
        <ele>1734.84</ele>
        <time>2022-07-09T12:14:14Z</time>
      </trkpt>
      <trkpt lat="42.6606417540" lon="0.3842346556">
        <ele>1734.36</ele>
        <time>2022-07-09T12:14:27Z</time>
      </trkpt>
      <trkpt lat="42.6606234815" lon="0.3838989604">
        <ele>1732.43</ele>
        <time>2022-07-09T12:14:44Z</time>
      </trkpt>
      <trkpt lat="42.6606463641" lon="0.3835772630">
        <ele>1731.95</ele>
        <time>2022-07-09T12:15:01Z</time>
      </trkpt>
      <trkpt lat="42.6606902853" lon="0.3832557332">
        <ele>1730.51</ele>
        <time>2022-07-09T12:15:18Z</time>
      </trkpt>
      <trkpt lat="42.6606234815" lon="0.3830422461">
        <ele>1727.15</ele>
        <time>2022-07-09T12:15:31Z</time>
      </trkpt>
      <trkpt lat="42.6605627965" lon="0.3829240613">
        <ele>1725.22</ele>
        <time>2022-07-09T12:15:44Z</time>
      </trkpt>
      <trkpt lat="42.6605744474" lon="0.3829308506">
        <ele>1725.22</ele>
        <time>2022-07-09T12:15:46Z</time>
      </trkpt>
      <trkpt lat="42.6605694182" lon="0.3827834129">
        <ele>1722.82</ele>
        <time>2022-07-09T12:15:55Z</time>
      </trkpt>
      <trkpt lat="42.6605587732" lon="0.3825755417">
        <ele>1719.46</ele>
        <time>2022-07-09T12:16:06Z</time>
      </trkpt>
      <trkpt lat="42.6605558395" lon="0.3824739531">
        <ele>1718.49</ele>
        <time>2022-07-09T12:16:12Z</time>
      </trkpt>
      <trkpt lat="42.6605653111" lon="0.3821523394">
        <ele>1716.57</ele>
        <time>2022-07-09T12:16:29Z</time>
      </trkpt>
      <trkpt lat="42.6605907921" lon="0.3818490822">
        <ele>1716.09</ele>
        <time>2022-07-09T12:16:45Z</time>
      </trkpt>
      <trkpt lat="42.6606185362" lon="0.3815759998">
        <ele>1715.13</ele>
        <time>2022-07-09T12:17:00Z</time>
      </trkpt>
      <trkpt lat="42.6606947277" lon="0.3812057711">
        <ele>1713.21</ele>
        <time>2022-07-09T12:17:20Z</time>
      </trkpt>
      <trkpt lat="42.6607589331" lon="0.3809113987">
        <ele>1711.76</ele>
        <time>2022-07-09T12:17:37Z</time>
      </trkpt>
      <trkpt lat="42.6607786305" lon="0.3807695769">
        <ele>1711.76</ele>
        <time>2022-07-09T12:17:45Z</time>
      </trkpt>
      <trkpt lat="42.6608052850" lon="0.3805811517">
        <ele>1713.21</ele>
        <time>2022-07-09T12:17:56Z</time>
      </trkpt>
      <trkpt lat="42.6608153433" lon="0.3804508131">
        <ele>1713.69</ele>
        <time>2022-07-09T12:18:03Z</time>
      </trkpt>
      <trkpt lat="42.6608425006" lon="0.3801752999">
        <ele>1710.80</ele>
        <time>2022-07-09T12:18:17Z</time>
      </trkpt>
      <trkpt lat="42.6608047821" lon="0.3798404429">
        <ele>1708.88</ele>
        <time>2022-07-09T12:18:35Z</time>
      </trkpt>
      <trkpt lat="42.6607549097" lon="0.3796080127">
        <ele>1708.40</ele>
        <time>2022-07-09T12:18:48Z</time>
      </trkpt>
      <trkpt lat="42.6607425883" lon="0.3795388620">
        <ele>1708.40</ele>
        <time>2022-07-09T12:18:52Z</time>
      </trkpt>
      <trkpt lat="42.6606635470" lon="0.3792936914">
        <ele>1707.92</ele>
        <time>2022-07-09T12:19:07Z</time>
      </trkpt>
      <trkpt lat="42.6605874393" lon="0.3789845668">
        <ele>1706.96</ele>
        <time>2022-07-09T12:19:25Z</time>
      </trkpt>
      <trkpt lat="42.6605743635" lon="0.3789279889">
        <ele>1706.96</ele>
        <time>2022-07-09T12:19:29Z</time>
      </trkpt>
      <trkpt lat="42.6605725195" lon="0.3788978979">
        <ele>1706.96</ele>
        <time>2022-07-09T12:19:31Z</time>
      </trkpt>
      <trkpt lat="42.6604858506" lon="0.3786632884">
        <ele>1706.48</ele>
        <time>2022-07-09T12:19:50Z</time>
      </trkpt>
      <trkpt lat="42.6604726072" lon="0.3785891924">
        <ele>1706.48</ele>
        <time>2022-07-09T12:20:03Z</time>
      </trkpt>
      <trkpt lat="42.6604736969" lon="0.3786021844">
        <ele>1707.92</ele>
        <time>2022-07-09T12:20:15Z</time>
      </trkpt>
      <trkpt lat="42.6604762115" lon="0.3786012623">
        <ele>1708.40</ele>
        <time>2022-07-09T12:20:20Z</time>
      </trkpt>
      <trkpt lat="42.6605385728" lon="0.3785578441">
        <ele>1708.40</ele>
        <time>2022-07-09T12:20:27Z</time>
      </trkpt>
      <trkpt lat="42.6606090646" lon="0.3783739451">
        <ele>1710.80</ele>
        <time>2022-07-09T12:20:43Z</time>
      </trkpt>
      <trkpt lat="42.6606259961" lon="0.3783522360">
        <ele>1711.28</ele>
        <time>2022-07-09T12:20:45Z</time>
      </trkpt>
      <trkpt lat="42.6606806461" lon="0.3782459535">
        <ele>1713.21</ele>
        <time>2022-07-09T12:20:55Z</time>
      </trkpt>
      <trkpt lat="42.6607560832" lon="0.3781823348">
        <ele>1715.13</ele>
        <time>2022-07-09T12:21:04Z</time>
      </trkpt>
      <trkpt lat="42.6607184485" lon="0.3781379946">
        <ele>1716.57</ele>
        <time>2022-07-09T12:21:13Z</time>
      </trkpt>
      <trkpt lat="42.6606907044" lon="0.3781484719">
        <ele>1716.57</ele>
        <time>2022-07-09T12:21:15Z</time>
      </trkpt>
      <trkpt lat="42.6606272534" lon="0.3781721089">
        <ele>1717.53</ele>
        <time>2022-07-09T12:21:20Z</time>
      </trkpt>
      <trkpt lat="42.6604607888" lon="0.3782237414">
        <ele>1719.46</ele>
        <time>2022-07-09T12:21:36Z</time>
      </trkpt>
      <trkpt lat="42.6604610402" lon="0.3782011941">
        <ele>1719.46</ele>
        <time>2022-07-09T12:21:38Z</time>
      </trkpt>
      <trkpt lat="42.6606378146" lon="0.3780105058">
        <ele>1722.34</ele>
        <time>2022-07-09T12:21:57Z</time>
      </trkpt>
      <trkpt lat="42.6606753655" lon="0.3779622260">
        <ele>1722.82</ele>
        <time>2022-07-09T12:22:01Z</time>
      </trkpt>
      <trkpt lat="42.6607043669" lon="0.3779002000">
        <ele>1722.82</ele>
        <time>2022-07-09T12:22:05Z</time>
      </trkpt>
      <trkpt lat="42.6607216336" lon="0.3778361622">
        <ele>1723.78</ele>
        <time>2022-07-09T12:22:10Z</time>
      </trkpt>
      <trkpt lat="42.6607402414" lon="0.3777820151">
        <ele>1723.78</ele>
        <time>2022-07-09T12:22:15Z</time>
      </trkpt>
      <trkpt lat="42.6607867610" lon="0.3775950149">
        <ele>1726.18</ele>
        <time>2022-07-09T12:22:31Z</time>
      </trkpt>
      <trkpt lat="42.6607859228" lon="0.3775818553">
        <ele>1726.18</ele>
        <time>2022-07-09T12:22:42Z</time>
      </trkpt>
      <trkpt lat="42.6607422531" lon="0.3775237687">
        <ele>1728.59</ele>
        <time>2022-07-09T12:22:56Z</time>
      </trkpt>
      <trkpt lat="42.6607122459" lon="0.3774429671">
        <ele>1730.03</ele>
        <time>2022-07-09T12:23:07Z</time>
      </trkpt>
      <trkpt lat="42.6606431790" lon="0.3772424720">
        <ele>1731.47</ele>
        <time>2022-07-09T12:23:22Z</time>
      </trkpt>
      <trkpt lat="42.6606244035" lon="0.3772250377">
        <ele>1731.47</ele>
        <time>2022-07-09T12:23:24Z</time>
      </trkpt>
      <trkpt lat="42.6606441848" lon="0.3771527018">
        <ele>1732.43</ele>
        <time>2022-07-09T12:23:31Z</time>
      </trkpt>
      <trkpt lat="42.6606557518" lon="0.3769750893">
        <ele>1735.80</ele>
        <time>2022-07-09T12:23:49Z</time>
      </trkpt>
      <trkpt lat="42.6606347132" lon="0.3769651148">
        <ele>1736.28</ele>
        <time>2022-07-09T12:23:51Z</time>
      </trkpt>
      <trkpt lat="42.6604890358" lon="0.3769600857">
        <ele>1737.72</ele>
        <time>2022-07-09T12:24:05Z</time>
      </trkpt>
      <trkpt lat="42.6604607888" lon="0.3769528773">
        <ele>1737.24</ele>
        <time>2022-07-09T12:24:17Z</time>
      </trkpt>
      <trkpt lat="42.6604633033" lon="0.3769594990">
        <ele>1737.24</ele>
        <time>2022-07-09T12:24:45Z</time>
      </trkpt>
      <trkpt lat="42.6604543347" lon="0.3769465070">
        <ele>1737.24</ele>
        <time>2022-07-09T12:24:51Z</time>
      </trkpt>
      <trkpt lat="42.6603713538" lon="0.3767987341">
        <ele>1736.28</ele>
        <time>2022-07-09T12:25:02Z</time>
      </trkpt>
      <trkpt lat="42.6602660771" lon="0.3768522944">
        <ele>1734.84</ele>
        <time>2022-07-09T12:25:10Z</time>
      </trkpt>
      <trkpt lat="42.6602287777" lon="0.3769074474">
        <ele>1734.36</ele>
        <time>2022-07-09T12:25:14Z</time>
      </trkpt>
      <trkpt lat="42.6601734571" lon="0.3769028373">
        <ele>1734.36</ele>
        <time>2022-07-09T12:25:19Z</time>
      </trkpt>
      <trkpt lat="42.6600289531" lon="0.3769846447">
        <ele>1730.99</ele>
        <time>2022-07-09T12:25:33Z</time>
      </trkpt>
      <trkpt lat="42.6599732134" lon="0.3768987302">
        <ele>1727.63</ele>
        <time>2022-07-09T12:25:45Z</time>
      </trkpt>
      <trkpt lat="42.6599773206" lon="0.3768646996">
        <ele>1727.15</ele>
        <time>2022-07-09T12:25:48Z</time>
      </trkpt>
      <trkpt lat="42.6601157058" lon="0.3766336106">
        <ele>1723.78</ele>
        <time>2022-07-09T12:26:04Z</time>
      </trkpt>
      <trkpt lat="42.6601179689" lon="0.3766069561">
        <ele>1722.82</ele>
        <time>2022-07-09T12:26:06Z</time>
      </trkpt>
      <trkpt lat="42.6601546817" lon="0.3764421679">
        <ele>1720.90</ele>
        <time>2022-07-09T12:26:17Z</time>
      </trkpt>
      <trkpt lat="42.6602275204" lon="0.3762310278">
        <ele>1718.97</ele>
        <time>2022-07-09T12:26:31Z</time>
      </trkpt>
      <trkpt lat="42.6602769736" lon="0.3761579376">
        <ele>1718.01</ele>
        <time>2022-07-09T12:26:36Z</time>
      </trkpt>
      <trkpt lat="42.6603820827" lon="0.3759723622">
        <ele>1716.57</ele>
        <time>2022-07-09T12:26:50Z</time>
      </trkpt>
      <trkpt lat="42.6603353117" lon="0.3758978471">
        <ele>1713.21</ele>
        <time>2022-07-09T12:27:00Z</time>
      </trkpt>
      <trkpt lat="42.6603193022" lon="0.3758991044">
        <ele>1713.21</ele>
        <time>2022-07-09T12:27:01Z</time>
      </trkpt>
      <trkpt lat="42.6601810008" lon="0.3760074824">
        <ele>1709.84</ele>
        <time>2022-07-09T12:27:16Z</time>
      </trkpt>
      <trkpt lat="42.6601069886" lon="0.3760285210">
        <ele>1708.40</ele>
        <time>2022-07-09T12:27:29Z</time>
      </trkpt>
      <trkpt lat="42.6600904763" lon="0.3760569356">
        <ele>1707.44</ele>
        <time>2022-07-09T12:27:32Z</time>
      </trkpt>
      <trkpt lat="42.6600210741" lon="0.3762171976">
        <ele>1704.55</ele>
        <time>2022-07-09T12:27:45Z</time>
      </trkpt>
      <trkpt lat="42.6599969342" lon="0.3762404993">
        <ele>1703.11</ele>
        <time>2022-07-09T12:27:48Z</time>
      </trkpt>
      <trkpt lat="42.6599556953" lon="0.3763052914">
        <ele>1702.63</ele>
        <time>2022-07-09T12:27:55Z</time>
      </trkpt>
      <trkpt lat="42.6598245185" lon="0.3763762023">
        <ele>1699.27</ele>
        <time>2022-07-09T12:28:10Z</time>
      </trkpt>
      <trkpt lat="42.6597453095" lon="0.3763927147">
        <ele>1698.79</ele>
        <time>2022-07-09T12:28:28Z</time>
      </trkpt>
      <trkpt lat="42.6596880611" lon="0.3763684072">
        <ele>1697.34</ele>
        <time>2022-07-09T12:28:41Z</time>
      </trkpt>
      <trkpt lat="42.6597062498" lon="0.3762844205">
        <ele>1696.86</ele>
        <time>2022-07-09T12:28:46Z</time>
      </trkpt>
      <trkpt lat="42.6597245224" lon="0.3761772159">
        <ele>1694.94</ele>
        <time>2022-07-09T12:28:52Z</time>
      </trkpt>
      <trkpt lat="42.6597904041" lon="0.3759989329">
        <ele>1692.06</ele>
        <time>2022-07-09T12:29:05Z</time>
      </trkpt>
      <trkpt lat="42.6598427072" lon="0.3758581169">
        <ele>1690.14</ele>
        <time>2022-07-09T12:29:13Z</time>
      </trkpt>
      <trkpt lat="42.6599116065" lon="0.3757078294">
        <ele>1686.77</ele>
        <time>2022-07-09T12:29:23Z</time>
      </trkpt>
      <trkpt lat="42.6599439606" lon="0.3756555263">
        <ele>1685.81</ele>
        <time>2022-07-09T12:29:27Z</time>
      </trkpt>
      <trkpt lat="42.6600019634" lon="0.3755342402">
        <ele>1682.93</ele>
        <time>2022-07-09T12:29:36Z</time>
      </trkpt>
      <trkpt lat="42.6600931585" lon="0.3753213398">
        <ele>1680.04</ele>
        <time>2022-07-09T12:29:50Z</time>
      </trkpt>
      <trkpt lat="42.6601897180" lon="0.3750402946">
        <ele>1677.64</ele>
        <time>2022-07-09T12:30:05Z</time>
      </trkpt>
      <trkpt lat="42.6602153666" lon="0.3749630973">
        <ele>1675.72</ele>
        <time>2022-07-09T12:30:10Z</time>
      </trkpt>
      <trkpt lat="42.6602466311" lon="0.3748911805">
        <ele>1674.75</ele>
        <time>2022-07-09T12:30:15Z</time>
      </trkpt>
      <trkpt lat="42.6603125967" lon="0.3748346865">
        <ele>1673.79</ele>
        <time>2022-07-09T12:30:20Z</time>
      </trkpt>
      <trkpt lat="42.6603327971" lon="0.3747726604">
        <ele>1672.83</ele>
        <time>2022-07-09T12:30:24Z</time>
      </trkpt>
      <trkpt lat="42.6603559311" lon="0.3747269791">
        <ele>1671.87</ele>
        <time>2022-07-09T12:30:27Z</time>
      </trkpt>
      <trkpt lat="42.6603441965" lon="0.3746247198">
        <ele>1670.91</ele>
        <time>2022-07-09T12:30:32Z</time>
      </trkpt>
      <trkpt lat="42.6603597030" lon="0.3745185211">
        <ele>1668.51</ele>
        <time>2022-07-09T12:30:40Z</time>
      </trkpt>
      <trkpt lat="42.6603693422" lon="0.3744820599">
        <ele>1667.54</ele>
        <time>2022-07-09T12:30:43Z</time>
      </trkpt>
      <trkpt lat="42.6603737008" lon="0.3744087182">
        <ele>1666.58</ele>
        <time>2022-07-09T12:30:59Z</time>
      </trkpt>
      <trkpt lat="42.6603705157" lon="0.3744036891">
        <ele>1665.14</ele>
        <time>2022-07-09T12:31:03Z</time>
      </trkpt>
      <trkpt lat="42.6603895426" lon="0.3743973188">
        <ele>1666.10</ele>
        <time>2022-07-09T12:31:29Z</time>
      </trkpt>
      <trkpt lat="42.6603778917" lon="0.3743950557">
        <ele>1666.10</ele>
        <time>2022-07-09T12:31:45Z</time>
      </trkpt>
      <trkpt lat="42.6604621299" lon="0.3742919583">
        <ele>1665.14</ele>
        <time>2022-07-09T12:32:03Z</time>
      </trkpt>
      <trkpt lat="42.6604700089" lon="0.3741762880">
        <ele>1662.74</ele>
        <time>2022-07-09T12:32:09Z</time>
      </trkpt>
      <trkpt lat="42.6604321226" lon="0.3740781359">
        <ele>1661.30</ele>
        <time>2022-07-09T12:32:14Z</time>
      </trkpt>
      <trkpt lat="42.6604596153" lon="0.3740184568">
        <ele>1660.33</ele>
        <time>2022-07-09T12:32:18Z</time>
      </trkpt>
      <trkpt lat="42.6604744513" lon="0.3739303630">
        <ele>1657.93</ele>
        <time>2022-07-09T12:32:24Z</time>
      </trkpt>
      <trkpt lat="42.6604514848" lon="0.3738853522">
        <ele>1657.45</ele>
        <time>2022-07-09T12:32:27Z</time>
      </trkpt>
      <trkpt lat="42.6604648959" lon="0.3736926522">
        <ele>1653.60</ele>
        <time>2022-07-09T12:32:38Z</time>
      </trkpt>
      <trkpt lat="42.6604443602" lon="0.3736701887">
        <ele>1652.64</ele>
        <time>2022-07-09T12:32:40Z</time>
      </trkpt>
      <trkpt lat="42.6604302786" lon="0.3735899739">
        <ele>1649.76</ele>
        <time>2022-07-09T12:32:49Z</time>
      </trkpt>
      <trkpt lat="42.6604646444" lon="0.3734805901">
        <ele>1646.40</ele>
        <time>2022-07-09T12:32:59Z</time>
      </trkpt>
      <trkpt lat="42.6604855992" lon="0.3734323941">
        <ele>1644.95</ele>
        <time>2022-07-09T12:33:03Z</time>
      </trkpt>
      <trkpt lat="42.6605338790" lon="0.3733033128">
        <ele>1642.07</ele>
        <time>2022-07-09T12:33:14Z</time>
      </trkpt>
      <trkpt lat="42.6605450269" lon="0.3732967749">
        <ele>1642.07</ele>
        <time>2022-07-09T12:33:15Z</time>
      </trkpt>
      <trkpt lat="42.6605764590" lon="0.3732483275">
        <ele>1641.11</ele>
        <time>2022-07-09T12:33:19Z</time>
      </trkpt>
      <trkpt lat="42.6606040355" lon="0.3730880655">
        <ele>1637.74</ele>
        <time>2022-07-09T12:33:33Z</time>
      </trkpt>
      <trkpt lat="42.6606635470" lon="0.3729996365">
        <ele>1634.86</ele>
        <time>2022-07-09T12:33:43Z</time>
      </trkpt>
      <trkpt lat="42.6607622020" lon="0.3728586528">
        <ele>1631.49</ele>
        <time>2022-07-09T12:33:54Z</time>
      </trkpt>
      <trkpt lat="42.6608059555" lon="0.3727444075">
        <ele>1628.61</ele>
        <time>2022-07-09T12:34:07Z</time>
      </trkpt>
      <trkpt lat="42.6608487871" lon="0.3726072796">
        <ele>1626.21</ele>
        <time>2022-07-09T12:34:19Z</time>
      </trkpt>
      <trkpt lat="42.6608306821" lon="0.3723481111">
        <ele>1622.84</ele>
        <time>2022-07-09T12:34:32Z</time>
      </trkpt>
      <trkpt lat="42.6609019283" lon="0.3720852546">
        <ele>1619.48</ele>
        <time>2022-07-09T12:34:46Z</time>
      </trkpt>
      <trkpt lat="42.6608906966" lon="0.3718971647">
        <ele>1616.59</ele>
        <time>2022-07-09T12:34:56Z</time>
      </trkpt>
      <trkpt lat="42.6608893555" lon="0.3718814068">
        <ele>1616.59</ele>
        <time>2022-07-09T12:34:57Z</time>
      </trkpt>
      <trkpt lat="42.6608987432" lon="0.3716761339">
        <ele>1612.75</ele>
        <time>2022-07-09T12:35:10Z</time>
      </trkpt>
      <trkpt lat="42.6608838234" lon="0.3715534229">
        <ele>1609.38</ele>
        <time>2022-07-09T12:35:19Z</time>
      </trkpt>
      <trkpt lat="42.6608864218" lon="0.3714384232">
        <ele>1606.50</ele>
        <time>2022-07-09T12:35:28Z</time>
      </trkpt>
      <trkpt lat="42.6608862542" lon="0.3712966852">
        <ele>1603.14</ele>
        <time>2022-07-09T12:35:38Z</time>
      </trkpt>
      <trkpt lat="42.6608643774" lon="0.3711407818">
        <ele>1599.77</ele>
        <time>2022-07-09T12:35:47Z</time>
      </trkpt>
      <trkpt lat="42.6607956458" lon="0.3710001335">
        <ele>1596.89</ele>
        <time>2022-07-09T12:35:56Z</time>
      </trkpt>
      <trkpt lat="42.6607989985" lon="0.3709279653">
        <ele>1595.45</ele>
        <time>2022-07-09T12:36:01Z</time>
      </trkpt>
      <trkpt lat="42.6607948076" lon="0.3708666097">
        <ele>1594.48</ele>
        <time>2022-07-09T12:36:05Z</time>
      </trkpt>
      <trkpt lat="42.6607813127" lon="0.3708333336">
        <ele>1593.52</ele>
        <time>2022-07-09T12:36:07Z</time>
      </trkpt>
      <trkpt lat="42.6605782192" lon="0.3709537815">
        <ele>1590.64</ele>
        <time>2022-07-09T12:36:22Z</time>
      </trkpt>
      <trkpt lat="42.6603676658" lon="0.3710448090">
        <ele>1587.75</ele>
        <time>2022-07-09T12:36:36Z</time>
      </trkpt>
      <trkpt lat="42.6602405962" lon="0.3710862156">
        <ele>1587.27</ele>
        <time>2022-07-09T12:36:48Z</time>
      </trkpt>
      <trkpt lat="42.6601768937" lon="0.3710508440">
        <ele>1585.83</ele>
        <time>2022-07-09T12:36:55Z</time>
      </trkpt>
      <trkpt lat="42.6601121016" lon="0.3710706253">
        <ele>1584.87</ele>
        <time>2022-07-09T12:37:07Z</time>
      </trkpt>
      <trkpt lat="42.6601196453" lon="0.3710650094">
        <ele>1584.87</ele>
        <time>2022-07-09T12:37:08Z</time>
      </trkpt>
      <trkpt lat="42.6601696014" lon="0.3708928451">
        <ele>1581.51</ele>
        <time>2022-07-09T12:37:23Z</time>
      </trkpt>
      <trkpt lat="42.6601716969" lon="0.3708811942">
        <ele>1581.51</ele>
        <time>2022-07-09T12:37:24Z</time>
      </trkpt>
      <trkpt lat="42.6601582021" lon="0.3708185814">
        <ele>1580.06</ele>
        <time>2022-07-09T12:37:28Z</time>
      </trkpt>
      <trkpt lat="42.6601162087" lon="0.3707488440">
        <ele>1578.62</ele>
        <time>2022-07-09T12:37:34Z</time>
      </trkpt>
      <trkpt lat="42.6600986067" lon="0.3705149051">
        <ele>1576.22</ele>
        <time>2022-07-09T12:37:48Z</time>
      </trkpt>
      <trkpt lat="42.6600875426" lon="0.3704791982">
        <ele>1574.78</ele>
        <time>2022-07-09T12:37:51Z</time>
      </trkpt>
      <trkpt lat="42.6600382570" lon="0.3705040086">
        <ele>1574.78</ele>
        <time>2022-07-09T12:37:55Z</time>
      </trkpt>
      <trkpt lat="42.6599854510" lon="0.3705039248">
        <ele>1574.30</ele>
        <time>2022-07-09T12:38:04Z</time>
      </trkpt>
      <trkpt lat="42.6599311363" lon="0.3705093730">
        <ele>1573.33</ele>
        <time>2022-07-09T12:38:16Z</time>
      </trkpt>
      <trkpt lat="42.6599339861" lon="0.3704962134">
        <ele>1573.33</ele>
        <time>2022-07-09T12:38:23Z</time>
      </trkpt>
      <trkpt lat="42.6600393467" lon="0.3703705687">
        <ele>1575.26</ele>
        <time>2022-07-09T12:38:39Z</time>
      </trkpt>
      <trkpt lat="42.6600411907" lon="0.3703786992">
        <ele>1573.33</ele>
        <time>2022-07-09T12:38:54Z</time>
      </trkpt>
      <trkpt lat="42.6600308809" lon="0.3703752626">
        <ele>1571.41</ele>
        <time>2022-07-09T12:38:56Z</time>
      </trkpt>
      <trkpt lat="42.6600307971" lon="0.3703755140">
        <ele>1573.82</ele>
        <time>2022-07-09T12:38:58Z</time>
      </trkpt>
      <trkpt lat="42.6600266062" lon="0.3703790344">
        <ele>1574.30</ele>
        <time>2022-07-09T12:39:10Z</time>
      </trkpt>
      <trkpt lat="42.6599960122" lon="0.3703639470">
        <ele>1574.30</ele>
        <time>2022-07-09T12:39:17Z</time>
      </trkpt>
      <trkpt lat="42.6600794122" lon="0.3703704011">
        <ele>1573.33</ele>
        <time>2022-07-09T13:13:37Z</time>
      </trkpt>
      <trkpt lat="42.6600789092" lon="0.3703678027">
        <ele>1573.33</ele>
        <time>2022-07-09T13:13:38Z</time>
      </trkpt>
      <trkpt lat="42.6600884646" lon="0.3704268951">
        <ele>1575.26</ele>
        <time>2022-07-09T13:13:59Z</time>
      </trkpt>
      <trkpt lat="42.6601016242" lon="0.3703530505">
        <ele>1575.74</ele>
        <time>2022-07-09T13:14:13Z</time>
      </trkpt>
      <trkpt lat="42.6600944158" lon="0.3703305870">
        <ele>1575.74</ele>
        <time>2022-07-09T13:14:35Z</time>
      </trkpt>
      <trkpt lat="42.6600882132" lon="0.3703430761">
        <ele>1575.74</ele>
        <time>2022-07-09T13:14:58Z</time>
      </trkpt>
      <trkpt lat="42.6600815076" lon="0.3703359514">
        <ele>1575.74</ele>
        <time>2022-07-09T13:15:22Z</time>
      </trkpt>
      <trkpt lat="42.6601227466" lon="0.3703784477">
        <ele>1576.22</ele>
        <time>2022-07-09T13:15:36Z</time>
      </trkpt>
      <trkpt lat="42.6601304580" lon="0.3703724965">
        <ele>1576.22</ele>
        <time>2022-07-09T13:15:37Z</time>
      </trkpt>
      <trkpt lat="42.6603171229" lon="0.3702642024">
        <ele>1576.22</ele>
        <time>2022-07-09T13:15:57Z</time>
      </trkpt>
      <trkpt lat="42.6604246628" lon="0.3701583389">
        <ele>1577.66</ele>
        <time>2022-07-09T13:16:09Z</time>
      </trkpt>
      <trkpt lat="42.6604769658" lon="0.3700101469">
        <ele>1578.62</ele>
        <time>2022-07-09T13:16:20Z</time>
      </trkpt>
      <trkpt lat="42.6604200527" lon="0.3698962368">
        <ele>1577.66</ele>
        <time>2022-07-09T13:16:28Z</time>
      </trkpt>
      <trkpt lat="42.6602925640" lon="0.3696622141">
        <ele>1577.18</ele>
        <time>2022-07-09T13:16:43Z</time>
      </trkpt>
      <trkpt lat="42.6602996886" lon="0.3693576995">
        <ele>1576.22</ele>
        <time>2022-07-09T13:17:01Z</time>
      </trkpt>
      <trkpt lat="42.6603291091" lon="0.3691721242">
        <ele>1576.22</ele>
        <time>2022-07-09T13:17:13Z</time>
      </trkpt>
      <trkpt lat="42.6603571046" lon="0.3690204117">
        <ele>1575.74</ele>
        <time>2022-07-09T13:17:23Z</time>
      </trkpt>
      <trkpt lat="42.6604014449" lon="0.3689213376">
        <ele>1575.74</ele>
        <time>2022-07-09T13:17:29Z</time>
      </trkpt>
      <trkpt lat="42.6604039595" lon="0.3688526899">
        <ele>1575.26</ele>
        <time>2022-07-09T13:17:32Z</time>
      </trkpt>
      <trkpt lat="42.6605078112" lon="0.3686306532">
        <ele>1572.85</ele>
        <time>2022-07-09T13:17:46Z</time>
      </trkpt>
      <trkpt lat="42.6605859306" lon="0.3684257157">
        <ele>1571.41</ele>
        <time>2022-07-09T13:18:01Z</time>
      </trkpt>
      <trkpt lat="42.6606933028" lon="0.3681832273">
        <ele>1570.45</ele>
        <time>2022-07-09T13:18:14Z</time>
      </trkpt>
      <trkpt lat="42.6607074682" lon="0.3680087160">
        <ele>1569.97</ele>
        <time>2022-07-09T13:18:28Z</time>
      </trkpt>
      <trkpt lat="42.6606812328" lon="0.3678648826">
        <ele>1569.49</ele>
        <time>2022-07-09T13:18:35Z</time>
      </trkpt>
      <trkpt lat="42.6606325340" lon="0.3677824885">
        <ele>1569.49</ele>
        <time>2022-07-09T13:18:40Z</time>
      </trkpt>
      <trkpt lat="42.6604033727" lon="0.3676120006">
        <ele>1568.05</ele>
        <time>2022-07-09T13:18:57Z</time>
      </trkpt>
      <trkpt lat="42.6603318751" lon="0.3675748687">
        <ele>1567.09</ele>
        <time>2022-07-09T13:19:03Z</time>
      </trkpt>
      <trkpt lat="42.6602634788" lon="0.3675487172">
        <ele>1566.61</ele>
        <time>2022-07-09T13:19:09Z</time>
      </trkpt>
      <trkpt lat="42.6601171307" lon="0.3674922232">
        <ele>1564.68</ele>
        <time>2022-07-09T13:19:21Z</time>
      </trkpt>
      <trkpt lat="42.6599325612" lon="0.3674015310">
        <ele>1564.20</ele>
        <time>2022-07-09T13:19:36Z</time>
      </trkpt>
      <trkpt lat="42.6598994527" lon="0.3673848510">
        <ele>1564.20</ele>
        <time>2022-07-09T13:19:39Z</time>
      </trkpt>
      <trkpt lat="42.6598321460" lon="0.3673233278">
        <ele>1562.76</ele>
        <time>2022-07-09T13:19:46Z</time>
      </trkpt>
      <trkpt lat="42.6596887317" lon="0.3672659956">
        <ele>1561.80</ele>
        <time>2022-07-09T13:20:00Z</time>
      </trkpt>
      <trkpt lat="42.6597486623" lon="0.3671219107">
        <ele>1560.84</ele>
        <time>2022-07-09T13:20:15Z</time>
      </trkpt>
      <trkpt lat="42.6597549487" lon="0.3671211563">
        <ele>1560.84</ele>
        <time>2022-07-09T13:20:20Z</time>
      </trkpt>
      <trkpt lat="42.6597124524" lon="0.3671961743">
        <ele>1562.28</ele>
        <time>2022-07-09T13:20:27Z</time>
      </trkpt>
      <trkpt lat="42.6596865524" lon="0.3672538418">
        <ele>1562.28</ele>
        <time>2022-07-09T13:20:31Z</time>
      </trkpt>
      <trkpt lat="42.6595232729" lon="0.3672558535">
        <ele>1560.84</ele>
        <time>2022-07-09T13:20:45Z</time>
      </trkpt>
      <trkpt lat="42.6595704630" lon="0.3673378285">
        <ele>1561.80</ele>
        <time>2022-07-09T13:20:59Z</time>
      </trkpt>
      <trkpt lat="42.6595821977" lon="0.3672820888">
        <ele>1561.80</ele>
        <time>2022-07-09T13:21:03Z</time>
      </trkpt>
      <trkpt lat="42.6594190020" lon="0.3671749681">
        <ele>1560.36</ele>
        <time>2022-07-09T13:21:15Z</time>
      </trkpt>
      <trkpt lat="42.6594041660" lon="0.3671700228">
        <ele>1560.36</ele>
        <time>2022-07-09T13:21:16Z</time>
      </trkpt>
      <trkpt lat="42.6591366995" lon="0.3670400195">
        <ele>1558.92</ele>
        <time>2022-07-09T13:21:35Z</time>
      </trkpt>
      <trkpt lat="42.6589180157" lon="0.3668292146">
        <ele>1557.47</ele>
        <time>2022-07-09T13:21:53Z</time>
      </trkpt>
      <trkpt lat="42.6588890981" lon="0.3668251913">
        <ele>1557.47</ele>
        <time>2022-07-09T13:21:55Z</time>
      </trkpt>
      <trkpt lat="42.6587595977" lon="0.3668145463">
        <ele>1556.51</ele>
        <time>2022-07-09T13:22:04Z</time>
      </trkpt>
      <trkpt lat="42.6585710887" lon="0.3667349182">
        <ele>1556.03</ele>
        <time>2022-07-09T13:22:18Z</time>
      </trkpt>
      <trkpt lat="42.6584715117" lon="0.3667032346">
        <ele>1555.55</ele>
        <time>2022-07-09T13:22:24Z</time>
      </trkpt>
      <trkpt lat="42.6584216394" lon="0.3666971158">
        <ele>1555.55</ele>
        <time>2022-07-09T13:22:28Z</time>
      </trkpt>
      <trkpt lat="42.6582507323" lon="0.3666454833">
        <ele>1555.07</ele>
        <time>2022-07-09T13:22:40Z</time>
      </trkpt>
      <trkpt lat="42.6580535900" lon="0.3665965330">
        <ele>1553.63</ele>
        <time>2022-07-09T13:22:55Z</time>
      </trkpt>
      <trkpt lat="42.6580036338" lon="0.3666048311">
        <ele>1553.63</ele>
        <time>2022-07-09T13:22:58Z</time>
      </trkpt>
      <trkpt lat="42.6577682700" lon="0.3665326629">
        <ele>1553.15</ele>
        <time>2022-07-09T13:23:14Z</time>
      </trkpt>
      <trkpt lat="42.6575859636" lon="0.3664253745">
        <ele>1552.19</ele>
        <time>2022-07-09T13:23:27Z</time>
      </trkpt>
      <trkpt lat="42.6573957782" lon="0.3663131408">
        <ele>1551.71</ele>
        <time>2022-07-09T13:23:41Z</time>
      </trkpt>
      <trkpt lat="42.6572200097" lon="0.3662206884">
        <ele>1551.22</ele>
        <time>2022-07-09T13:23:55Z</time>
      </trkpt>
      <trkpt lat="42.6571866497" lon="0.3661997337">
        <ele>1551.22</ele>
        <time>2022-07-09T13:23:57Z</time>
      </trkpt>
      <trkpt lat="42.6571616717" lon="0.3661844786">
        <ele>1551.22</ele>
        <time>2022-07-09T13:23:59Z</time>
      </trkpt>
      <trkpt lat="42.6571014058" lon="0.3661860712">
        <ele>1550.74</ele>
        <time>2022-07-09T13:24:03Z</time>
      </trkpt>
      <trkpt lat="42.6568831410" lon="0.3660711553">
        <ele>1550.74</ele>
        <time>2022-07-09T13:24:19Z</time>
      </trkpt>
      <trkpt lat="42.6567004155" lon="0.3660106380">
        <ele>1550.74</ele>
        <time>2022-07-09T13:24:33Z</time>
      </trkpt>
      <trkpt lat="42.6564939693" lon="0.3658664692">
        <ele>1548.34</ele>
        <time>2022-07-09T13:24:49Z</time>
      </trkpt>
      <trkpt lat="42.6563163567" lon="0.3657108173">
        <ele>1546.42</ele>
        <time>2022-07-09T13:25:05Z</time>
      </trkpt>
      <trkpt lat="42.6562803984" lon="0.3656846657">
        <ele>1545.94</ele>
        <time>2022-07-09T13:25:08Z</time>
      </trkpt>
      <trkpt lat="42.6562312804" lon="0.3656245675">
        <ele>1545.46</ele>
        <time>2022-07-09T13:25:13Z</time>
      </trkpt>
      <trkpt lat="42.6560431067" lon="0.3654322866">
        <ele>1544.98</ele>
        <time>2022-07-09T13:25:29Z</time>
      </trkpt>
      <trkpt lat="42.6558733732" lon="0.3653072286">
        <ele>1543.53</ele>
        <time>2022-07-09T13:25:42Z</time>
      </trkpt>
      <trkpt lat="42.6557509135" lon="0.3651265148">
        <ele>1543.05</ele>
        <time>2022-07-09T13:25:56Z</time>
      </trkpt>
      <trkpt lat="42.6556005422" lon="0.3649292048">
        <ele>1542.57</ele>
        <time>2022-07-09T13:26:10Z</time>
      </trkpt>
      <trkpt lat="42.6555655058" lon="0.3648820147">
        <ele>1542.57</ele>
        <time>2022-07-09T13:26:13Z</time>
      </trkpt>
      <trkpt lat="42.6554423757" lon="0.3647631593">
        <ele>1541.61</ele>
        <time>2022-07-09T13:26:23Z</time>
      </trkpt>
      <trkpt lat="42.6553000510" lon="0.3645799309">
        <ele>1540.65</ele>
        <time>2022-07-09T13:26:38Z</time>
      </trkpt>
      <trkpt lat="42.6552316546" lon="0.3644966148">
        <ele>1540.65</ele>
        <time>2022-07-09T13:26:44Z</time>
      </trkpt>
      <trkpt lat="42.6550837979" lon="0.3642446548">
        <ele>1539.69</ele>
        <time>2022-07-09T13:27:00Z</time>
      </trkpt>
      <trkpt lat="42.6548754238" lon="0.3640475124">
        <ele>1538.73</ele>
        <time>2022-07-09T13:27:16Z</time>
      </trkpt>
      <trkpt lat="42.6547343563" lon="0.3639074508">
        <ele>1537.77</ele>
        <time>2022-07-09T13:27:28Z</time>
      </trkpt>
      <trkpt lat="42.6545673050" lon="0.3637270723">
        <ele>1536.80</ele>
        <time>2022-07-09T13:27:43Z</time>
      </trkpt>
      <trkpt lat="42.6544071268" lon="0.3634511400">
        <ele>1536.32</ele>
        <time>2022-07-09T13:28:02Z</time>
      </trkpt>
      <trkpt lat="42.6543163508" lon="0.3632160276">
        <ele>1536.32</ele>
        <time>2022-07-09T13:28:18Z</time>
      </trkpt>
      <trkpt lat="42.6541581005" lon="0.3630362358">
        <ele>1535.84</ele>
        <time>2022-07-09T13:28:33Z</time>
      </trkpt>
      <trkpt lat="42.6540543325" lon="0.3629459627">
        <ele>1535.84</ele>
        <time>2022-07-09T13:28:42Z</time>
      </trkpt>
      <trkpt lat="42.6539459545" lon="0.3628019616">
        <ele>1535.84</ele>
        <time>2022-07-09T13:28:53Z</time>
      </trkpt>
      <trkpt lat="42.6537942421" lon="0.3626268636">
        <ele>1535.84</ele>
        <time>2022-07-09T13:29:07Z</time>
      </trkpt>
      <trkpt lat="42.6536133606" lon="0.3624919150">
        <ele>1535.36</ele>
        <time>2022-07-09T13:29:21Z</time>
      </trkpt>
      <trkpt lat="42.6534658391" lon="0.3623096924">
        <ele>1535.36</ele>
        <time>2022-07-09T13:29:35Z</time>
      </trkpt>
      <trkpt lat="42.6533731353" lon="0.3621310741">
        <ele>1536.32</ele>
        <time>2022-07-09T13:29:47Z</time>
      </trkpt>
      <trkpt lat="42.6533148810" lon="0.3620314971">
        <ele>1536.80</ele>
        <time>2022-07-09T13:29:54Z</time>
      </trkpt>
      <trkpt lat="42.6532924175" lon="0.3619919345">
        <ele>1536.80</ele>
        <time>2022-07-09T13:29:57Z</time>
      </trkpt>
      <trkpt lat="42.6532487478" lon="0.3619270585">
        <ele>1536.80</ele>
        <time>2022-07-09T13:30:02Z</time>
      </trkpt>
      <trkpt lat="42.6532181539" lon="0.3618677147">
        <ele>1536.80</ele>
        <time>2022-07-09T13:30:06Z</time>
      </trkpt>
      <trkpt lat="42.6531527750" lon="0.3617546428">
        <ele>1535.36</ele>
        <time>2022-07-09T13:30:13Z</time>
      </trkpt>
      <trkpt lat="42.6531418785" lon="0.3617422376">
        <ele>1535.36</ele>
        <time>2022-07-09T13:30:14Z</time>
      </trkpt>
      <trkpt lat="42.6530733146" lon="0.3616930358">
        <ele>1535.36</ele>
        <time>2022-07-09T13:30:18Z</time>
      </trkpt>
      <trkpt lat="42.6529748272" lon="0.3615916986">
        <ele>1534.40</ele>
        <time>2022-07-09T13:30:26Z</time>
      </trkpt>
      <trkpt lat="42.6529487595" lon="0.3615720849">
        <ele>1534.40</ele>
        <time>2022-07-09T13:30:28Z</time>
      </trkpt>
      <trkpt lat="42.6527157426" lon="0.3613839950">
        <ele>1533.44</ele>
        <time>2022-07-09T13:30:45Z</time>
      </trkpt>
      <trkpt lat="42.6527004037" lon="0.3613549937">
        <ele>1533.44</ele>
        <time>2022-07-09T13:30:47Z</time>
      </trkpt>
      <trkpt lat="42.6526284870" lon="0.3612474538">
        <ele>1532.48</ele>
        <time>2022-07-09T13:30:56Z</time>
      </trkpt>
      <trkpt lat="42.6526193507" lon="0.3611866012">
        <ele>1532.00</ele>
        <time>2022-07-09T13:30:59Z</time>
      </trkpt>
      <trkpt lat="42.6525838953" lon="0.3610994294">
        <ele>1532.00</ele>
        <time>2022-07-09T13:31:04Z</time>
      </trkpt>
      <trkpt lat="42.6525524631" lon="0.3608857747">
        <ele>1531.52</ele>
        <time>2022-07-09T13:31:20Z</time>
      </trkpt>
      <trkpt lat="42.6525774412" lon="0.3608227428">
        <ele>1531.52</ele>
        <time>2022-07-09T13:31:34Z</time>
      </trkpt>
      <trkpt lat="42.6526185125" lon="0.3606736287">
        <ele>1532.96</ele>
        <time>2022-07-09T13:31:43Z</time>
      </trkpt>
      <trkpt lat="42.6527022477" lon="0.3604841977">
        <ele>1532.96</ele>
        <time>2022-07-09T13:31:57Z</time>
      </trkpt>
      <trkpt lat="42.6527133118" lon="0.3604231775">
        <ele>1533.92</ele>
        <time>2022-07-09T13:32:01Z</time>
      </trkpt>
      <trkpt lat="42.6527231187" lon="0.3602686990">
        <ele>1535.36</ele>
        <time>2022-07-09T13:32:12Z</time>
      </trkpt>
      <trkpt lat="42.6526829693" lon="0.3600171581">
        <ele>1538.25</ele>
        <time>2022-07-09T13:32:26Z</time>
      </trkpt>
      <trkpt lat="42.6526764315" lon="0.3600006457">
        <ele>1538.25</ele>
        <time>2022-07-09T13:32:27Z</time>
      </trkpt>
      <trkpt lat="42.6526641101" lon="0.3598069400">
        <ele>1539.69</ele>
        <time>2022-07-09T13:32:41Z</time>
      </trkpt>
      <trkpt lat="42.6526615117" lon="0.3597969655">
        <ele>1539.69</ele>
        <time>2022-07-09T13:32:42Z</time>
      </trkpt>
      <trkpt lat="42.6526524592" lon="0.3595408145">
        <ele>1541.61</ele>
        <time>2022-07-09T13:32:56Z</time>
      </trkpt>
      <trkpt lat="42.6526538003" lon="0.3593516350">
        <ele>1543.05</ele>
        <time>2022-07-09T13:33:09Z</time>
      </trkpt>
      <trkpt lat="42.6526346058" lon="0.3592769522">
        <ele>1543.53</ele>
        <time>2022-07-09T13:33:15Z</time>
      </trkpt>
      <trkpt lat="42.6525751781" lon="0.3590363916">
        <ele>1544.98</ele>
        <time>2022-07-09T13:33:29Z</time>
      </trkpt>
      <trkpt lat="42.6525535528" lon="0.3589164466">
        <ele>1545.46</ele>
        <time>2022-07-09T13:33:36Z</time>
      </trkpt>
      <trkpt lat="42.6525099669" lon="0.3586525004">
        <ele>1547.38</ele>
        <time>2022-07-09T13:33:51Z</time>
      </trkpt>
      <trkpt lat="42.6525295805" lon="0.3584410250">
        <ele>1548.82</ele>
        <time>2022-07-09T13:34:03Z</time>
      </trkpt>
      <trkpt lat="42.6525218692" lon="0.3583944216">
        <ele>1548.82</ele>
        <time>2022-07-09T13:34:06Z</time>
      </trkpt>
      <trkpt lat="42.6525134873" lon="0.3583066631">
        <ele>1549.30</ele>
        <time>2022-07-09T13:34:12Z</time>
      </trkpt>
      <trkpt lat="42.6524728350" lon="0.3580827825">
        <ele>1551.22</ele>
        <time>2022-07-09T13:34:27Z</time>
      </trkpt>
      <trkpt lat="42.6524691470" lon="0.3579575568">
        <ele>1552.19</ele>
        <time>2022-07-09T13:34:36Z</time>
      </trkpt>
      <trkpt lat="42.6524631958" lon="0.3577554692">
        <ele>1554.11</ele>
        <time>2022-07-09T13:34:49Z</time>
      </trkpt>
      <trkpt lat="42.6524620224" lon="0.3577247076">
        <ele>1554.59</ele>
        <time>2022-07-09T13:34:51Z</time>
      </trkpt>
      <trkpt lat="42.6524587534" lon="0.3576228675">
        <ele>1555.07</ele>
        <time>2022-07-09T13:34:57Z</time>
      </trkpt>
      <trkpt lat="42.6524646208" lon="0.3575767670">
        <ele>1555.55</ele>
        <time>2022-07-09T13:35:00Z</time>
      </trkpt>
      <trkpt lat="42.6524668839" lon="0.3573985677">
        <ele>1556.99</ele>
        <time>2022-07-09T13:35:11Z</time>
      </trkpt>
      <trkpt lat="42.6524676383" lon="0.3573711589">
        <ele>1556.99</ele>
        <time>2022-07-09T13:35:13Z</time>
      </trkpt>
      <trkpt lat="42.6524906885" lon="0.3571699932">
        <ele>1559.40</ele>
        <time>2022-07-09T13:35:28Z</time>
      </trkpt>
      <trkpt lat="42.6525083743" lon="0.3570243157">
        <ele>1560.36</ele>
        <time>2022-07-09T13:35:38Z</time>
      </trkpt>
      <trkpt lat="42.6525136549" lon="0.3568684123">
        <ele>1562.28</ele>
        <time>2022-07-09T13:35:49Z</time>
      </trkpt>
      <trkpt lat="42.6524991542" lon="0.3566664923">
        <ele>1564.20</ele>
        <time>2022-07-09T13:36:03Z</time>
      </trkpt>
      <trkpt lat="42.6524670515" lon="0.3564190585">
        <ele>1565.64</ele>
        <time>2022-07-09T13:36:19Z</time>
      </trkpt>
      <trkpt lat="42.6523852441" lon="0.3561756480">
        <ele>1567.57</ele>
        <time>2022-07-09T13:36:34Z</time>
      </trkpt>
      <trkpt lat="42.6523788739" lon="0.3560313117">
        <ele>1568.53</ele>
        <time>2022-07-09T13:36:51Z</time>
      </trkpt>
      <trkpt lat="42.6523817237" lon="0.3560329881">
        <ele>1567.09</ele>
        <time>2022-07-09T13:36:53Z</time>
      </trkpt>
      <trkpt lat="42.6523591764" lon="0.3560087644">
        <ele>1567.09</ele>
        <time>2022-07-09T13:37:26Z</time>
      </trkpt>
      <trkpt lat="42.6523678098" lon="0.3560116980">
        <ele>1567.09</ele>
        <time>2022-07-09T13:38:00Z</time>
      </trkpt>
      <trkpt lat="42.6523606852" lon="0.3560505062">
        <ele>1567.57</ele>
        <time>2022-07-09T13:38:45Z</time>
      </trkpt>
      <trkpt lat="42.6523639541" lon="0.3560513444">
        <ele>1568.53</ele>
        <time>2022-07-09T13:38:47Z</time>
      </trkpt>
      <trkpt lat="42.6523887645" lon="0.3560115304">
        <ele>1568.53</ele>
        <time>2022-07-09T13:39:07Z</time>
      </trkpt>
      <trkpt lat="42.6524186879" lon="0.3559432179">
        <ele>1568.53</ele>
        <time>2022-07-09T13:39:13Z</time>
      </trkpt>
      <trkpt lat="42.6524456777" lon="0.3558211774">
        <ele>1569.49</ele>
        <time>2022-07-09T13:39:25Z</time>
      </trkpt>
      <trkpt lat="42.6524481084" lon="0.3557934333">
        <ele>1569.49</ele>
        <time>2022-07-09T13:39:27Z</time>
      </trkpt>
      <trkpt lat="42.6525029261" lon="0.3555712290">
        <ele>1571.89</ele>
        <time>2022-07-09T13:39:44Z</time>
      </trkpt>
      <trkpt lat="42.6525310054" lon="0.3553489409">
        <ele>1573.33</ele>
        <time>2022-07-09T13:39:58Z</time>
      </trkpt>
      <trkpt lat="42.6525016688" lon="0.3551024292">
        <ele>1574.78</ele>
        <time>2022-07-09T13:40:11Z</time>
      </trkpt>
      <trkpt lat="42.6524638664" lon="0.3548493795">
        <ele>1575.74</ele>
        <time>2022-07-09T13:40:25Z</time>
      </trkpt>
      <trkpt lat="42.6524347812" lon="0.3546591941">
        <ele>1577.66</ele>
        <time>2022-07-09T13:40:38Z</time>
      </trkpt>
      <trkpt lat="42.6523728389" lon="0.3545068111">
        <ele>1579.10</ele>
        <time>2022-07-09T13:40:49Z</time>
      </trkpt>
      <trkpt lat="42.6523572486" lon="0.3543059807">
        <ele>1580.54</ele>
        <time>2022-07-09T13:41:02Z</time>
      </trkpt>
      <trkpt lat="42.6523528900" lon="0.3540915716">
        <ele>1582.95</ele>
        <time>2022-07-09T13:41:17Z</time>
      </trkpt>
      <trkpt lat="42.6523539796" lon="0.3540610615">
        <ele>1583.91</ele>
        <time>2022-07-09T13:41:19Z</time>
      </trkpt>
      <trkpt lat="42.6524186041" lon="0.3539104387">
        <ele>1585.83</ele>
        <time>2022-07-09T13:41:31Z</time>
      </trkpt>
      <trkpt lat="42.6524619386" lon="0.3537643421">
        <ele>1586.79</ele>
        <time>2022-07-09T13:41:43Z</time>
      </trkpt>
      <trkpt lat="42.6525101345" lon="0.3536594845">
        <ele>1587.27</ele>
        <time>2022-07-09T13:41:50Z</time>
      </trkpt>
      <trkpt lat="42.6525512058" lon="0.3535104543">
        <ele>1589.20</ele>
        <time>2022-07-09T13:42:00Z</time>
      </trkpt>
      <trkpt lat="42.6525452547" lon="0.3532068618">
        <ele>1591.12</ele>
        <time>2022-07-09T13:42:14Z</time>
      </trkpt>
      <trkpt lat="42.6525061112" lon="0.3529741801">
        <ele>1592.56</ele>
        <time>2022-07-09T13:42:28Z</time>
      </trkpt>
      <trkpt lat="42.6524388883" lon="0.3528016806">
        <ele>1593.52</ele>
        <time>2022-07-09T13:42:42Z</time>
      </trkpt>
      <trkpt lat="42.6524115633" lon="0.3526279237">
        <ele>1595.45</ele>
        <time>2022-07-09T13:42:56Z</time>
      </trkpt>
      <trkpt lat="42.6524124015" lon="0.3524178732">
        <ele>1597.85</ele>
        <time>2022-07-09T13:43:11Z</time>
      </trkpt>
      <trkpt lat="42.6523616072" lon="0.3521958366">
        <ele>1598.81</ele>
        <time>2022-07-09T13:43:24Z</time>
      </trkpt>
      <trkpt lat="42.6523136627" lon="0.3520105127">
        <ele>1599.77</ele>
        <time>2022-07-09T13:43:37Z</time>
      </trkpt>
      <trkpt lat="42.6522216294" lon="0.3517746460">
        <ele>1601.21</ele>
        <time>2022-07-09T13:43:52Z</time>
      </trkpt>
      <trkpt lat="42.6521834917" lon="0.3516210895">
        <ele>1602.66</ele>
        <time>2022-07-09T13:44:03Z</time>
      </trkpt>
      <trkpt lat="42.6521516405" lon="0.3514355980">
        <ele>1605.54</ele>
        <time>2022-07-09T13:44:18Z</time>
      </trkpt>
      <trkpt lat="42.6521822345" lon="0.3511904273">
        <ele>1607.46</ele>
        <time>2022-07-09T13:44:35Z</time>
      </trkpt>
      <trkpt lat="42.6522162650" lon="0.3510069475">
        <ele>1608.42</ele>
        <time>2022-07-09T13:44:47Z</time>
      </trkpt>
      <trkpt lat="42.6522494573" lon="0.3508067038">
        <ele>1609.86</ele>
        <time>2022-07-09T13:45:00Z</time>
      </trkpt>
      <trkpt lat="42.6522867568" lon="0.3505560849">
        <ele>1611.31</ele>
        <time>2022-07-09T13:45:14Z</time>
      </trkpt>
      <trkpt lat="42.6522775367" lon="0.3503787238">
        <ele>1612.75</ele>
        <time>2022-07-09T13:45:26Z</time>
      </trkpt>
      <trkpt lat="42.6522232220" lon="0.3501165379">
        <ele>1614.67</ele>
        <time>2022-07-09T13:45:40Z</time>
      </trkpt>
      <trkpt lat="42.6521823183" lon="0.3500000294">
        <ele>1615.63</ele>
        <time>2022-07-09T13:45:49Z</time>
      </trkpt>
      <trkpt lat="42.6521970704" lon="0.3498974349">
        <ele>1616.59</ele>
        <time>2022-07-09T13:46:06Z</time>
      </trkpt>
      <trkpt lat="42.6522007585" lon="0.3498991951">
        <ele>1615.15</ele>
        <time>2022-07-09T13:46:08Z</time>
      </trkpt>
      <trkpt lat="42.6522176899" lon="0.3499034699">
        <ele>1615.15</ele>
        <time>2022-07-09T13:46:42Z</time>
      </trkpt>
      <trkpt lat="42.6521875989" lon="0.3499126062">
        <ele>1615.15</ele>
        <time>2022-07-09T13:47:09Z</time>
      </trkpt>
      <trkpt lat="42.6521699131" lon="0.3498986084">
        <ele>1614.67</ele>
        <time>2022-07-09T13:47:40Z</time>
      </trkpt>
      <trkpt lat="42.6521328650" lon="0.3499560244">
        <ele>1614.67</ele>
        <time>2022-07-09T13:48:07Z</time>
      </trkpt>
      <trkpt lat="42.6521519758" lon="0.3499891330">
        <ele>1614.67</ele>
        <time>2022-07-09T13:48:43Z</time>
      </trkpt>
      <trkpt lat="42.6521143410" lon="0.3499665018">
        <ele>1616.11</ele>
        <time>2022-07-09T13:49:23Z</time>
      </trkpt>
      <trkpt lat="42.6520734373" lon="0.3499646578">
        <ele>1617.07</ele>
        <time>2022-07-09T13:50:00Z</time>
      </trkpt>
      <trkpt lat="42.6521000080" lon="0.3499737103">
        <ele>1618.52</ele>
        <time>2022-07-09T13:50:24Z</time>
      </trkpt>
      <trkpt lat="42.6520821545" lon="0.3499956708">
        <ele>1618.52</ele>
        <time>2022-07-09T13:50:46Z</time>
      </trkpt>
      <trkpt lat="42.6520726830" lon="0.3498661704">
        <ele>1619.96</ele>
        <time>2022-07-09T13:50:57Z</time>
      </trkpt>
      <trkpt lat="42.6521522272" lon="0.3495746478">
        <ele>1621.40</ele>
        <time>2022-07-09T13:51:12Z</time>
      </trkpt>
      <trkpt lat="42.6521152630" lon="0.3492314089">
        <ele>1623.80</ele>
        <time>2022-07-09T13:51:28Z</time>
      </trkpt>
      <trkpt lat="42.6520994212" lon="0.3491405491">
        <ele>1624.77</ele>
        <time>2022-07-09T13:51:34Z</time>
      </trkpt>
      <trkpt lat="42.6520876866" lon="0.3489683010">
        <ele>1626.21</ele>
        <time>2022-07-09T13:51:44Z</time>
      </trkpt>
      <trkpt lat="42.6520940568" lon="0.3488169238">
        <ele>1627.17</ele>
        <time>2022-07-09T13:51:53Z</time>
      </trkpt>
      <trkpt lat="42.6520632114" lon="0.3485955577">
        <ele>1629.09</ele>
        <time>2022-07-09T13:52:07Z</time>
      </trkpt>
      <trkpt lat="42.6519865170" lon="0.3483843338">
        <ele>1630.53</ele>
        <time>2022-07-09T13:52:21Z</time>
      </trkpt>
      <trkpt lat="42.6519477926" lon="0.3481617942">
        <ele>1632.46</ele>
        <time>2022-07-09T13:52:35Z</time>
      </trkpt>
      <trkpt lat="42.6518967468" lon="0.3479919769">
        <ele>1634.38</ele>
        <time>2022-07-09T13:52:47Z</time>
      </trkpt>
      <trkpt lat="42.6518389117" lon="0.3477909788">
        <ele>1635.82</ele>
        <time>2022-07-09T13:53:01Z</time>
      </trkpt>
      <trkpt lat="42.6517849322" lon="0.3475731332">
        <ele>1637.26</ele>
        <time>2022-07-09T13:53:15Z</time>
      </trkpt>
      <trkpt lat="42.6517043822" lon="0.3473786730">
        <ele>1638.70</ele>
        <time>2022-07-09T13:53:30Z</time>
      </trkpt>
      <trkpt lat="42.6515763067" lon="0.3472267929">
        <ele>1641.11</ele>
        <time>2022-07-09T13:53:43Z</time>
      </trkpt>
      <trkpt lat="42.6514905598" lon="0.3469866514">
        <ele>1643.03</ele>
        <time>2022-07-09T13:54:00Z</time>
      </trkpt>
      <trkpt lat="42.6514860336" lon="0.3469241224">
        <ele>1643.99</ele>
        <time>2022-07-09T13:54:05Z</time>
      </trkpt>
      <trkpt lat="42.6515364926" lon="0.3466823045">
        <ele>1646.40</ele>
        <time>2022-07-09T13:54:22Z</time>
      </trkpt>
      <trkpt lat="42.6516349800" lon="0.3465888463">
        <ele>1647.84</ele>
        <time>2022-07-09T13:54:32Z</time>
      </trkpt>
      <trkpt lat="42.6516852714" lon="0.3465680592">
        <ele>1648.80</ele>
        <time>2022-07-09T13:54:36Z</time>
      </trkpt>
      <trkpt lat="42.6517050527" lon="0.3465611860">
        <ele>1648.80</ele>
        <time>2022-07-09T13:54:38Z</time>
      </trkpt>
      <trkpt lat="42.6518018637" lon="0.3464800492">
        <ele>1649.76</ele>
        <time>2022-07-09T13:54:49Z</time>
      </trkpt>
      <trkpt lat="42.6518627163" lon="0.3462678194">
        <ele>1650.72</ele>
        <time>2022-07-09T13:55:03Z</time>
      </trkpt>
      <trkpt lat="42.6518756244" lon="0.3460300248">
        <ele>1651.20</ele>
        <time>2022-07-09T13:55:16Z</time>
      </trkpt>
      <trkpt lat="42.6518755406" lon="0.3459955752">
        <ele>1651.20</ele>
        <time>2022-07-09T13:55:18Z</time>
      </trkpt>
      <trkpt lat="42.6517807413" lon="0.3456887137">
        <ele>1652.16</ele>
        <time>2022-07-09T13:55:34Z</time>
      </trkpt>
      <trkpt lat="42.6516317111" lon="0.3453740571">
        <ele>1653.12</ele>
        <time>2022-07-09T13:55:50Z</time>
      </trkpt>
      <trkpt lat="42.6515999436" lon="0.3451088537">
        <ele>1654.09</ele>
        <time>2022-07-09T13:56:04Z</time>
      </trkpt>
      <trkpt lat="42.6516633108" lon="0.3449420538">
        <ele>1657.45</ele>
        <time>2022-07-09T13:56:17Z</time>
      </trkpt>
      <trkpt lat="42.6518044621" lon="0.3448682930">
        <ele>1660.33</ele>
        <time>2022-07-09T13:56:31Z</time>
      </trkpt>
      <trkpt lat="42.6518762112" lon="0.3448444046">
        <ele>1661.30</ele>
        <time>2022-07-09T13:56:37Z</time>
      </trkpt>
      <trkpt lat="42.6520305220" lon="0.3447649442">
        <ele>1664.18</ele>
        <time>2022-07-09T13:56:53Z</time>
      </trkpt>
      <trkpt lat="42.6520403288" lon="0.3447570652">
        <ele>1664.18</ele>
        <time>2022-07-09T13:56:54Z</time>
      </trkpt>
      <trkpt lat="42.6521769539" lon="0.3446562309">
        <ele>1666.58</ele>
        <time>2022-07-09T13:57:09Z</time>
      </trkpt>
      <trkpt lat="42.6522340346" lon="0.3445171751">
        <ele>1667.54</ele>
        <time>2022-07-09T13:57:17Z</time>
      </trkpt>
      <trkpt lat="42.6522973180" lon="0.3442945518">
        <ele>1669.95</ele>
        <time>2022-07-09T13:57:32Z</time>
      </trkpt>
      <trkpt lat="42.6523541473" lon="0.3440727666">
        <ele>1672.35</ele>
        <time>2022-07-09T13:57:46Z</time>
      </trkpt>
      <trkpt lat="42.6523851603" lon="0.3438575193">
        <ele>1674.27</ele>
        <time>2022-07-09T13:58:00Z</time>
      </trkpt>
      <trkpt lat="42.6524411514" lon="0.3436928988">
        <ele>1676.20</ele>
        <time>2022-07-09T13:58:13Z</time>
      </trkpt>
      <trkpt lat="42.6524595078" lon="0.3436711896">
        <ele>1676.20</ele>
        <time>2022-07-09T13:58:15Z</time>
      </trkpt>
      <trkpt lat="42.6525035128" lon="0.3436010331">
        <ele>1676.68</ele>
        <time>2022-07-09T13:58:20Z</time>
      </trkpt>
      <trkpt lat="42.6525230426" lon="0.3435292002">
        <ele>1677.16</ele>
        <time>2022-07-09T13:58:25Z</time>
      </trkpt>
      <trkpt lat="42.6526154112" lon="0.3433742188">
        <ele>1679.08</ele>
        <time>2022-07-09T13:58:40Z</time>
      </trkpt>
      <trkpt lat="42.6526444126" lon="0.3431896493">
        <ele>1681.48</ele>
        <time>2022-07-09T13:58:53Z</time>
      </trkpt>
      <trkpt lat="42.6526873279" lon="0.3430919163">
        <ele>1682.44</ele>
        <time>2022-07-09T13:59:01Z</time>
      </trkpt>
      <trkpt lat="42.6527416427" lon="0.3428447340">
        <ele>1685.81</ele>
        <time>2022-07-09T13:59:15Z</time>
      </trkpt>
      <trkpt lat="42.6527607534" lon="0.3427768406">
        <ele>1686.29</ele>
        <time>2022-07-09T13:59:19Z</time>
      </trkpt>
      <trkpt lat="42.6528185885" lon="0.3425273951">
        <ele>1688.69</ele>
        <time>2022-07-09T13:59:34Z</time>
      </trkpt>
      <trkpt lat="42.6527928561" lon="0.3422693163">
        <ele>1689.65</ele>
        <time>2022-07-09T13:59:48Z</time>
      </trkpt>
      <trkpt lat="42.6527622622" lon="0.3421891853">
        <ele>1688.69</ele>
        <time>2022-07-09T13:59:53Z</time>
      </trkpt>
      <trkpt lat="42.6525838953" lon="0.3421493713">
        <ele>1688.69</ele>
        <time>2022-07-09T14:00:06Z</time>
      </trkpt>
      <trkpt lat="42.6524699852" lon="0.3421404865">
        <ele>1688.69</ele>
        <time>2022-07-09T14:00:15Z</time>
      </trkpt>
      <trkpt lat="42.6522391476" lon="0.3419950604">
        <ele>1688.21</ele>
        <time>2022-07-09T14:00:32Z</time>
      </trkpt>
      <trkpt lat="42.6520942245" lon="0.3418038692">
        <ele>1686.29</ele>
        <time>2022-07-09T14:00:47Z</time>
      </trkpt>
      <trkpt lat="42.6519749500" lon="0.3416571021">
        <ele>1684.37</ele>
        <time>2022-07-09T14:01:01Z</time>
      </trkpt>
      <trkpt lat="42.6519676577" lon="0.3415369894">
        <ele>1686.77</ele>
        <time>2022-07-09T14:01:13Z</time>
      </trkpt>
      <trkpt lat="42.6520332880" lon="0.3414014541">
        <ele>1690.14</ele>
        <time>2022-07-09T14:01:27Z</time>
      </trkpt>
      <trkpt lat="42.6521259919" lon="0.3412776534">
        <ele>1693.50</ele>
        <time>2022-07-09T14:01:41Z</time>
      </trkpt>
      <trkpt lat="42.6522245631" lon="0.3411877993">
        <ele>1694.94</ele>
        <time>2022-07-09T14:01:52Z</time>
      </trkpt>
      <trkpt lat="42.6522934623" lon="0.3410557006">
        <ele>1697.83</ele>
        <time>2022-07-09T14:02:07Z</time>
      </trkpt>
      <trkpt lat="42.6523284987" lon="0.3409567103">
        <ele>1700.71</ele>
        <time>2022-07-09T14:02:21Z</time>
      </trkpt>
      <trkpt lat="42.6523692347" lon="0.3408324067">
        <ele>1702.63</ele>
        <time>2022-07-09T14:02:34Z</time>
      </trkpt>
      <trkpt lat="42.6524270698" lon="0.3406825382">
        <ele>1706.00</ele>
        <time>2022-07-09T14:02:49Z</time>
      </trkpt>
      <trkpt lat="42.6524876710" lon="0.3405501042">
        <ele>1707.92</ele>
        <time>2022-07-09T14:03:01Z</time>
      </trkpt>
      <trkpt lat="42.6526001561" lon="0.3403605893">
        <ele>1710.80</ele>
        <time>2022-07-09T14:03:16Z</time>
      </trkpt>
      <trkpt lat="42.6526608411" lon="0.3401958849">
        <ele>1713.69</ele>
        <time>2022-07-09T14:03:31Z</time>
      </trkpt>
      <trkpt lat="42.6527268905" lon="0.3401022591">
        <ele>1715.61</ele>
        <time>2022-07-09T14:03:43Z</time>
      </trkpt>
      <trkpt lat="42.6528096199" lon="0.3400227986">
        <ele>1717.53</ele>
        <time>2022-07-09T14:03:55Z</time>
      </trkpt>
      <trkpt lat="42.6529442333" lon="0.3399513848">
        <ele>1719.94</ele>
        <time>2022-07-09T14:04:08Z</time>
      </trkpt>
      <trkpt lat="42.6529901661" lon="0.3399275802">
        <ele>1720.42</ele>
        <time>2022-07-09T14:04:11Z</time>
      </trkpt>
      <trkpt lat="42.6530867256" lon="0.3398298472">
        <ele>1722.34</ele>
        <time>2022-07-09T14:04:21Z</time>
      </trkpt>
      <trkpt lat="42.6531192474" lon="0.3397755325">
        <ele>1722.34</ele>
        <time>2022-07-09T14:04:25Z</time>
      </trkpt>
      <trkpt lat="42.6531731430" lon="0.3396976646">
        <ele>1722.82</ele>
        <time>2022-07-09T14:04:31Z</time>
      </trkpt>
      <trkpt lat="42.6531838719" lon="0.3396303579">
        <ele>1723.30</ele>
        <time>2022-07-09T14:04:35Z</time>
      </trkpt>
      <trkpt lat="42.6531871408" lon="0.3395576868">
        <ele>1723.78</ele>
        <time>2022-07-09T14:04:39Z</time>
      </trkpt>
      <trkpt lat="42.6532422099" lon="0.3394759633">
        <ele>1725.22</ele>
        <time>2022-07-09T14:04:47Z</time>
      </trkpt>
      <trkpt lat="42.6533244364" lon="0.3393752128">
        <ele>1728.11</ele>
        <time>2022-07-09T14:04:59Z</time>
      </trkpt>
      <trkpt lat="42.6533462293" lon="0.3393256757">
        <ele>1729.55</ele>
        <time>2022-07-09T14:05:04Z</time>
      </trkpt>
      <trkpt lat="42.6533691119" lon="0.3393183835">
        <ele>1729.55</ele>
        <time>2022-07-09T14:05:06Z</time>
      </trkpt>
      <trkpt lat="42.6534088422" lon="0.3392806649">
        <ele>1730.51</ele>
        <time>2022-07-09T14:05:10Z</time>
      </trkpt>
      <trkpt lat="42.6534883864" lon="0.3391312156">
        <ele>1733.39</ele>
        <time>2022-07-09T14:05:24Z</time>
      </trkpt>
      <trkpt lat="42.6534966007" lon="0.3391260188">
        <ele>1733.88</ele>
        <time>2022-07-09T14:05:25Z</time>
      </trkpt>
      <trkpt lat="42.6535572018" lon="0.3390701115">
        <ele>1735.80</ele>
        <time>2022-07-09T14:05:36Z</time>
      </trkpt>
      <trkpt lat="42.6536701899" lon="0.3389965184">
        <ele>1738.20</ele>
        <time>2022-07-09T14:05:50Z</time>
      </trkpt>
      <trkpt lat="42.6537374128" lon="0.3388918284">
        <ele>1740.12</ele>
        <time>2022-07-09T14:06:03Z</time>
      </trkpt>
      <trkpt lat="42.6537623908" lon="0.3387749847">
        <ele>1743.49</ele>
        <time>2022-07-09T14:06:17Z</time>
      </trkpt>
      <trkpt lat="42.6537776459" lon="0.3386281338">
        <ele>1745.41</ele>
        <time>2022-07-09T14:06:27Z</time>
      </trkpt>
      <trkpt lat="42.6537811663" lon="0.3385325801">
        <ele>1746.85</ele>
        <time>2022-07-09T14:06:33Z</time>
      </trkpt>
      <trkpt lat="42.6537900511" lon="0.3385040816">
        <ele>1746.85</ele>
        <time>2022-07-09T14:06:35Z</time>
      </trkpt>
      <trkpt lat="42.6539036259" lon="0.3384280577">
        <ele>1747.81</ele>
        <time>2022-07-09T14:06:49Z</time>
      </trkpt>
      <trkpt lat="42.6539877802" lon="0.3383759223">
        <ele>1751.18</ele>
        <time>2022-07-09T14:07:04Z</time>
      </trkpt>
      <trkpt lat="42.6540678274" lon="0.3383055981">
        <ele>1752.62</ele>
        <time>2022-07-09T14:07:15Z</time>
      </trkpt>
      <trkpt lat="42.6540844236" lon="0.3382706456">
        <ele>1754.06</ele>
        <time>2022-07-09T14:07:19Z</time>
      </trkpt>
      <trkpt lat="42.6541082282" lon="0.3382036742">
        <ele>1755.50</ele>
        <time>2022-07-09T14:07:26Z</time>
      </trkpt>
      <trkpt lat="42.6542468648" lon="0.3381238785">
        <ele>1757.43</ele>
        <time>2022-07-09T14:07:39Z</time>
      </trkpt>
      <trkpt lat="42.6543650497" lon="0.3380417358">
        <ele>1760.79</ele>
        <time>2022-07-09T14:07:53Z</time>
      </trkpt>
      <trkpt lat="42.6544672251" lon="0.3379655443">
        <ele>1763.20</ele>
        <time>2022-07-09T14:08:06Z</time>
      </trkpt>
      <trkpt lat="42.6545545645" lon="0.3379249759">
        <ele>1766.08</ele>
        <time>2022-07-09T14:08:21Z</time>
      </trkpt>
      <trkpt lat="42.6546309236" lon="0.3378450964">
        <ele>1769.44</ele>
        <time>2022-07-09T14:08:34Z</time>
      </trkpt>
      <trkpt lat="42.6547042653" lon="0.3377339523">
        <ele>1771.85</ele>
        <time>2022-07-09T14:08:48Z</time>
      </trkpt>
      <trkpt lat="42.6547255553" lon="0.3376207966">
        <ele>1775.69</ele>
        <time>2022-07-09T14:09:01Z</time>
      </trkpt>
      <trkpt lat="42.6547974721" lon="0.3375067189">
        <ele>1778.10</ele>
        <time>2022-07-09T14:09:16Z</time>
      </trkpt>
      <trkpt lat="42.6548199356" lon="0.3374180384">
        <ele>1780.50</ele>
        <time>2022-07-09T14:09:30Z</time>
      </trkpt>
      <trkpt lat="42.6548833027" lon="0.3373220656">
        <ele>1783.86</ele>
        <time>2022-07-09T14:09:43Z</time>
      </trkpt>
      <trkpt lat="42.6549242064" lon="0.3372240812">
        <ele>1787.23</ele>
        <time>2022-07-09T14:09:57Z</time>
      </trkpt>
      <trkpt lat="42.6549554709" lon="0.3371129371">
        <ele>1790.11</ele>
        <time>2022-07-09T14:10:11Z</time>
      </trkpt>
      <trkpt lat="42.6550273038" lon="0.3370419424">
        <ele>1792.52</ele>
        <time>2022-07-09T14:10:24Z</time>
      </trkpt>
      <trkpt lat="42.6550205145" lon="0.3368986119">
        <ele>1795.88</ele>
        <time>2022-07-09T14:10:38Z</time>
      </trkpt>
      <trkpt lat="42.6549770962" lon="0.3368903976">
        <ele>1795.88</ele>
        <time>2022-07-09T14:10:48Z</time>
      </trkpt>
      <trkpt lat="42.6548981387" lon="0.3368864581">
        <ele>1793.48</ele>
        <time>2022-07-09T14:10:54Z</time>
      </trkpt>
      <trkpt lat="42.6548065245" lon="0.3366965242">
        <ele>1794.44</ele>
        <time>2022-07-09T14:11:07Z</time>
      </trkpt>
      <trkpt lat="42.6548061892" lon="0.3366852086">
        <ele>1794.44</ele>
        <time>2022-07-09T14:11:08Z</time>
      </trkpt>
      <trkpt lat="42.6548199356" lon="0.3366715461">
        <ele>1793.00</ele>
        <time>2022-07-09T14:11:10Z</time>
      </trkpt>
      <trkpt lat="42.6548392139" lon="0.3366034850">
        <ele>1794.44</ele>
        <time>2022-07-09T14:11:15Z</time>
      </trkpt>
      <trkpt lat="42.6549884118" lon="0.3365214262">
        <ele>1797.32</ele>
        <time>2022-07-09T14:11:31Z</time>
      </trkpt>
      <trkpt lat="42.6551136374" lon="0.3364151437">
        <ele>1799.73</ele>
        <time>2022-07-09T14:11:45Z</time>
      </trkpt>
      <trkpt lat="42.6551221032" lon="0.3364070971">
        <ele>1799.73</ele>
        <time>2022-07-09T14:11:46Z</time>
      </trkpt>
      <trkpt lat="42.6552026533" lon="0.3363090288">
        <ele>1802.61</ele>
        <time>2022-07-09T14:11:56Z</time>
      </trkpt>
      <trkpt lat="42.6553061698" lon="0.3362422250">
        <ele>1804.05</ele>
        <time>2022-07-09T14:12:08Z</time>
      </trkpt>
      <trkpt lat="42.6554210857" lon="0.3361230344">
        <ele>1806.94</ele>
        <time>2022-07-09T14:12:22Z</time>
      </trkpt>
      <trkpt lat="42.6555630751" lon="0.3359937016">
        <ele>1808.38</ele>
        <time>2022-07-09T14:12:36Z</time>
      </trkpt>
      <trkpt lat="42.6556592155" lon="0.3358870000">
        <ele>1810.30</ele>
        <time>2022-07-09T14:12:47Z</time>
      </trkpt>
      <trkpt lat="42.6557768974" lon="0.3357683122">
        <ele>1810.78</ele>
        <time>2022-07-09T14:13:00Z</time>
      </trkpt>
      <trkpt lat="42.6558110118" lon="0.3357304260">
        <ele>1811.74</ele>
        <time>2022-07-09T14:13:04Z</time>
      </trkpt>
      <trkpt lat="42.6559008658" lon="0.3356198687">
        <ele>1813.66</ele>
        <time>2022-07-09T14:13:17Z</time>
      </trkpt>
      <trkpt lat="42.6558873709" lon="0.3355959803">
        <ele>1813.66</ele>
        <time>2022-07-09T14:13:20Z</time>
      </trkpt>
      <trkpt lat="42.6557144523" lon="0.3354643844">
        <ele>1815.11</ele>
        <time>2022-07-09T14:13:34Z</time>
      </trkpt>
      <trkpt lat="42.6555640809" lon="0.3353549168">
        <ele>1816.55</ele>
        <time>2022-07-09T14:13:48Z</time>
      </trkpt>
      <trkpt lat="42.6555517595" lon="0.3353476245">
        <ele>1816.55</ele>
        <time>2022-07-09T14:13:49Z</time>
      </trkpt>
      <trkpt lat="42.6554908231" lon="0.3352405876">
        <ele>1817.03</ele>
        <time>2022-07-09T14:13:59Z</time>
      </trkpt>
      <trkpt lat="42.6554545294" lon="0.3350022901">
        <ele>1818.95</ele>
        <time>2022-07-09T14:14:15Z</time>
      </trkpt>
      <trkpt lat="42.6554509252" lon="0.3348641563">
        <ele>1820.39</ele>
        <time>2022-07-09T14:14:25Z</time>
      </trkpt>
      <trkpt lat="42.6554783341" lon="0.3346273676">
        <ele>1823.28</ele>
        <time>2022-07-09T14:14:41Z</time>
      </trkpt>
      <trkpt lat="42.6554896496" lon="0.3344255313">
        <ele>1825.20</ele>
        <time>2022-07-09T14:14:56Z</time>
      </trkpt>
      <trkpt lat="42.6555083413" lon="0.3341828752">
        <ele>1827.60</ele>
        <time>2022-07-09T14:15:11Z</time>
      </trkpt>
      <trkpt lat="42.6555141248" lon="0.3339746688">
        <ele>1828.08</ele>
        <time>2022-07-09T14:15:23Z</time>
      </trkpt>
      <trkpt lat="42.6555152982" lon="0.3339574020">
        <ele>1828.08</ele>
        <time>2022-07-09T14:15:24Z</time>
      </trkpt>
      <trkpt lat="42.6555113588" lon="0.3338524606">
        <ele>1829.53</ele>
        <time>2022-07-09T14:15:30Z</time>
      </trkpt>
      <trkpt lat="42.6555336546" lon="0.3335759416">
        <ele>1830.01</ele>
        <time>2022-07-09T14:15:45Z</time>
      </trkpt>
      <trkpt lat="42.6555181481" lon="0.3333757818">
        <ele>1831.93</ele>
        <time>2022-07-09T14:15:57Z</time>
      </trkpt>
      <trkpt lat="42.6554657612" lon="0.3331299406">
        <ele>1833.37</ele>
        <time>2022-07-09T14:16:12Z</time>
      </trkpt>
      <trkpt lat="42.6554291323" lon="0.3330015298">
        <ele>1835.29</ele>
        <time>2022-07-09T14:16:21Z</time>
      </trkpt>
      <trkpt lat="42.6554172300" lon="0.3329738695">
        <ele>1833.85</ele>
        <time>2022-07-09T14:16:23Z</time>
      </trkpt>
      <trkpt lat="42.6554324012" lon="0.3326646611">
        <ele>1835.77</ele>
        <time>2022-07-09T14:16:40Z</time>
      </trkpt>
      <trkpt lat="42.6554846205" lon="0.3325520921">
        <ele>1834.33</ele>
        <time>2022-07-09T14:16:47Z</time>
      </trkpt>
      <trkpt lat="42.6555781625" lon="0.3323617391">
        <ele>1835.77</ele>
        <time>2022-07-09T14:16:59Z</time>
      </trkpt>
      <trkpt lat="42.6555875503" lon="0.3323480766">
        <ele>1835.77</ele>
        <time>2022-07-09T14:17:00Z</time>
      </trkpt>
      <trkpt lat="42.6556121092" lon="0.3322780039">
        <ele>1833.37</ele>
        <time>2022-07-09T14:17:04Z</time>
      </trkpt>
      <trkpt lat="42.6556713693" lon="0.3321849648">
        <ele>1835.29</ele>
        <time>2022-07-09T14:17:10Z</time>
      </trkpt>
      <trkpt lat="42.6557748020" lon="0.3319086134">
        <ele>1831.93</ele>
        <time>2022-07-09T14:17:26Z</time>
      </trkpt>
      <trkpt lat="42.6558111794" lon="0.3318118863">
        <ele>1830.97</ele>
        <time>2022-07-09T14:17:32Z</time>
      </trkpt>
      <trkpt lat="42.6559508219" lon="0.3316738363">
        <ele>1829.05</ele>
        <time>2022-07-09T14:17:45Z</time>
      </trkpt>
      <trkpt lat="42.6560340542" lon="0.3316069487">
        <ele>1827.60</ele>
        <time>2022-07-09T14:17:52Z</time>
      </trkpt>
      <trkpt lat="42.6562321186" lon="0.3314828966">
        <ele>1824.24</ele>
        <time>2022-07-09T14:18:07Z</time>
      </trkpt>
      <trkpt lat="42.6564555801" lon="0.3313756920">
        <ele>1821.35</ele>
        <time>2022-07-09T14:18:23Z</time>
      </trkpt>
      <trkpt lat="42.6565243956" lon="0.3313146718">
        <ele>1820.39</ele>
        <time>2022-07-09T14:18:29Z</time>
      </trkpt>
      <trkpt lat="42.6566614397" lon="0.3313393146">
        <ele>1819.43</ele>
        <time>2022-07-09T14:18:39Z</time>
      </trkpt>
      <trkpt lat="42.6567838155" lon="0.3314413223">
        <ele>1817.51</ele>
        <time>2022-07-09T14:18:50Z</time>
      </trkpt>
      <trkpt lat="42.6569923572" lon="0.3314220440">
        <ele>1815.11</ele>
        <time>2022-07-09T14:19:05Z</time>
      </trkpt>
      <trkpt lat="42.6571800280" lon="0.3313007578">
        <ele>1813.66</ele>
        <time>2022-07-09T14:19:19Z</time>
      </trkpt>
      <trkpt lat="42.6572040841" lon="0.3312805574">
        <ele>1813.18</ele>
        <time>2022-07-09T14:19:21Z</time>
      </trkpt>
      <trkpt lat="42.6573056728" lon="0.3312430903">
        <ele>1812.22</ele>
        <time>2022-07-09T14:19:27Z</time>
      </trkpt>
      <trkpt lat="42.6573886536" lon="0.3311803099">
        <ele>1810.78</ele>
        <time>2022-07-09T14:19:33Z</time>
      </trkpt>
      <trkpt lat="42.6575071737" lon="0.3310221434">
        <ele>1807.42</ele>
        <time>2022-07-09T14:19:47Z</time>
      </trkpt>
      <trkpt lat="42.6575119514" lon="0.3310074750">
        <ele>1807.42</ele>
        <time>2022-07-09T14:19:48Z</time>
      </trkpt>
      <trkpt lat="42.6576140430" lon="0.3308436088">
        <ele>1803.57</ele>
        <time>2022-07-09T14:20:01Z</time>
      </trkpt>
      <trkpt lat="42.6576510072" lon="0.3307480551">
        <ele>1802.13</ele>
        <time>2022-07-09T14:20:06Z</time>
      </trkpt>
      <trkpt lat="42.6576844510" lon="0.3307224065">
        <ele>1801.17</ele>
        <time>2022-07-09T14:20:09Z</time>
      </trkpt>
      <trkpt lat="42.6577320602" lon="0.3306922317">
        <ele>1800.21</ele>
        <time>2022-07-09T14:20:13Z</time>
      </trkpt>
      <trkpt lat="42.6577590499" lon="0.3305897210">
        <ele>1796.36</ele>
        <time>2022-07-09T14:20:25Z</time>
      </trkpt>
      <trkpt lat="42.6578096766" lon="0.3305458836">
        <ele>1795.40</ele>
        <time>2022-07-09T14:20:29Z</time>
      </trkpt>
      <trkpt lat="42.6578537654" lon="0.3305214085">
        <ele>1794.44</ele>
        <time>2022-07-09T14:20:32Z</time>
      </trkpt>
      <trkpt lat="42.6579050627" lon="0.3304753918">
        <ele>1793.00</ele>
        <time>2022-07-09T14:20:36Z</time>
      </trkpt>
      <trkpt lat="42.6580405980" lon="0.3303841967">
        <ele>1789.15</ele>
        <time>2022-07-09T14:20:49Z</time>
      </trkpt>
      <trkpt lat="42.6581501495" lon="0.3303279541">
        <ele>1786.75</ele>
        <time>2022-07-09T14:21:02Z</time>
      </trkpt>
      <trkpt lat="42.6582653169" lon="0.3302657604">
        <ele>1783.38</ele>
        <time>2022-07-09T14:21:13Z</time>
      </trkpt>
      <trkpt lat="42.6583628822" lon="0.3301784210">
        <ele>1780.50</ele>
        <time>2022-07-09T14:21:22Z</time>
      </trkpt>
      <trkpt lat="42.6584949810" lon="0.3301185742">
        <ele>1777.61</ele>
        <time>2022-07-09T14:21:34Z</time>
      </trkpt>
      <trkpt lat="42.6585122477" lon="0.3300969489">
        <ele>1777.13</ele>
        <time>2022-07-09T14:21:36Z</time>
      </trkpt>
      <trkpt lat="42.6586772036" lon="0.3301074263">
        <ele>1775.69</ele>
        <time>2022-07-09T14:21:48Z</time>
      </trkpt>
      <trkpt lat="42.6587038580" lon="0.3301124554">
        <ele>1775.69</ele>
        <time>2022-07-09T14:21:50Z</time>
      </trkpt>
      <trkpt lat="42.6587478630" lon="0.3301091865">
        <ele>1775.69</ele>
        <time>2022-07-09T14:21:54Z</time>
      </trkpt>
      <trkpt lat="42.6588037703" lon="0.3300156444">
        <ele>1775.69</ele>
        <time>2022-07-09T14:22:00Z</time>
      </trkpt>
      <trkpt lat="42.6588124037" lon="0.3298874851">
        <ele>1775.69</ele>
        <time>2022-07-09T14:22:13Z</time>
      </trkpt>
      <trkpt lat="42.6588317659" lon="0.3298398759">
        <ele>1777.13</ele>
        <time>2022-07-09T14:22:18Z</time>
      </trkpt>
      <trkpt lat="42.6589055266" lon="0.3297223616">
        <ele>1778.58</ele>
        <time>2022-07-09T14:22:30Z</time>
      </trkpt>
      <trkpt lat="42.6589348633" lon="0.3296957072">
        <ele>1779.54</ele>
        <time>2022-07-09T14:22:33Z</time>
      </trkpt>
      <trkpt lat="42.6589521300" lon="0.3296782728">
        <ele>1780.02</ele>
        <time>2022-07-09T14:22:35Z</time>
      </trkpt>
      <trkpt lat="42.6589742582" lon="0.3296683822">
        <ele>1780.50</ele>
        <time>2022-07-09T14:22:37Z</time>
      </trkpt>
      <trkpt lat="42.6590089593" lon="0.3296335135">
        <ele>1780.50</ele>
        <time>2022-07-09T14:22:41Z</time>
      </trkpt>
      <trkpt lat="42.6591315027" lon="0.3295252193">
        <ele>1782.90</ele>
        <time>2022-07-09T14:22:55Z</time>
      </trkpt>
      <trkpt lat="42.6591600012" lon="0.3295110539">
        <ele>1782.90</ele>
        <time>2022-07-09T14:22:58Z</time>
      </trkpt>
      <trkpt lat="42.6592574827" lon="0.3294399753">
        <ele>1785.79</ele>
        <time>2022-07-09T14:23:09Z</time>
      </trkpt>
      <trkpt lat="42.6593636815" lon="0.3293696512">
        <ele>1787.23</ele>
        <time>2022-07-09T14:23:22Z</time>
      </trkpt>
      <trkpt lat="42.6594082732" lon="0.3293297533">
        <ele>1789.63</ele>
        <time>2022-07-09T14:23:34Z</time>
      </trkpt>
      <trkpt lat="42.6594996359" lon="0.3293044399">
        <ele>1792.52</ele>
        <time>2022-07-09T14:23:48Z</time>
      </trkpt>
      <trkpt lat="42.6595759112" lon="0.3291718382">
        <ele>1794.92</ele>
        <time>2022-07-09T14:24:01Z</time>
      </trkpt>
      <trkpt lat="42.6596794277" lon="0.3291558288">
        <ele>1798.28</ele>
        <time>2022-07-09T14:24:15Z</time>
      </trkpt>
      <trkpt lat="42.6597665157" lon="0.3290963173">
        <ele>1801.65</ele>
        <time>2022-07-09T14:24:30Z</time>
      </trkpt>
      <trkpt lat="42.6598102693" lon="0.3291243967">
        <ele>1803.57</ele>
        <time>2022-07-09T14:24:42Z</time>
      </trkpt>
      <trkpt lat="42.6598885562" lon="0.3290708363">
        <ele>1806.94</ele>
        <time>2022-07-09T14:24:54Z</time>
      </trkpt>
      <trkpt lat="42.6599867921" lon="0.3289664816">
        <ele>1809.82</ele>
        <time>2022-07-09T14:25:08Z</time>
      </trkpt>
      <trkpt lat="42.6601017918" lon="0.3289491311">
        <ele>1812.22</ele>
        <time>2022-07-09T14:25:22Z</time>
      </trkpt>
      <trkpt lat="42.6601529215" lon="0.3288871050">
        <ele>1815.11</ele>
        <time>2022-07-09T14:25:35Z</time>
      </trkpt>
      <trkpt lat="42.6602166239" lon="0.3288644738">
        <ele>1817.99</ele>
        <time>2022-07-09T14:25:49Z</time>
      </trkpt>
      <trkpt lat="42.6603011973" lon="0.3287967481">
        <ele>1820.39</ele>
        <time>2022-07-09T14:26:02Z</time>
      </trkpt>
      <trkpt lat="42.6603452861" lon="0.3287243284">
        <ele>1823.28</ele>
        <time>2022-07-09T14:26:14Z</time>
      </trkpt>
      <trkpt lat="42.6603924762" lon="0.3286496457">
        <ele>1826.16</ele>
        <time>2022-07-09T14:26:29Z</time>
      </trkpt>
      <trkpt lat="42.6605168637" lon="0.3285462130">
        <ele>1829.05</ele>
        <time>2022-07-09T14:26:44Z</time>
      </trkpt>
      <trkpt lat="42.6605835836" lon="0.3283898067">
        <ele>1831.93</ele>
        <time>2022-07-09T14:27:01Z</time>
      </trkpt>
      <trkpt lat="42.6606434304" lon="0.3282481525">
        <ele>1835.29</ele>
        <time>2022-07-09T14:27:16Z</time>
      </trkpt>
      <trkpt lat="42.6606361382" lon="0.3280718811">
        <ele>1836.74</ele>
        <time>2022-07-09T14:27:29Z</time>
      </trkpt>
      <trkpt lat="42.6606325340" lon="0.3280589730">
        <ele>1837.22</ele>
        <time>2022-07-09T14:27:30Z</time>
      </trkpt>
      <trkpt lat="42.6605862658" lon="0.3279579710">
        <ele>1840.58</ele>
        <time>2022-07-09T14:27:41Z</time>
      </trkpt>
      <trkpt lat="42.6606106572" lon="0.3279695380">
        <ele>1840.58</ele>
        <time>2022-07-09T14:27:44Z</time>
      </trkpt>
      <trkpt lat="42.6606986672" lon="0.3280571289">
        <ele>1842.50</ele>
        <time>2022-07-09T14:27:56Z</time>
      </trkpt>
      <trkpt lat="42.6607652195" lon="0.3279677778">
        <ele>1844.43</ele>
        <time>2022-07-09T14:28:06Z</time>
      </trkpt>
      <trkpt lat="42.6607010979" lon="0.3277999721">
        <ele>1846.35</ele>
        <time>2022-07-09T14:28:18Z</time>
      </trkpt>
      <trkpt lat="42.6606843341" lon="0.3277364373">
        <ele>1847.31</ele>
        <time>2022-07-09T14:28:25Z</time>
      </trkpt>
      <trkpt lat="42.6606944762" lon="0.3277020715">
        <ele>1847.31</ele>
        <time>2022-07-09T14:28:28Z</time>
      </trkpt>
      <trkpt lat="42.6607110724" lon="0.3276888281">
        <ele>1847.79</ele>
        <time>2022-07-09T14:28:30Z</time>
      </trkpt>
      <trkpt lat="42.6607297640" lon="0.3275173344">
        <ele>1849.71</ele>
        <time>2022-07-09T14:28:44Z</time>
      </trkpt>
      <trkpt lat="42.6607010979" lon="0.3272954654">
        <ele>1851.64</ele>
        <time>2022-07-09T14:28:59Z</time>
      </trkpt>
      <trkpt lat="42.6605620421" lon="0.3271033522">
        <ele>1853.08</ele>
        <time>2022-07-09T14:29:15Z</time>
      </trkpt>
      <trkpt lat="42.6605207194" lon="0.3269709181">
        <ele>1855.00</ele>
        <time>2022-07-09T14:29:25Z</time>
      </trkpt>
      <trkpt lat="42.6605245750" lon="0.3268994205">
        <ele>1856.92</ele>
        <time>2022-07-09T14:29:30Z</time>
      </trkpt>
      <trkpt lat="42.6605291013" lon="0.3266725224">
        <ele>1857.89</ele>
        <time>2022-07-09T14:29:45Z</time>
      </trkpt>
      <trkpt lat="42.6605519839" lon="0.3264272679">
        <ele>1859.33</ele>
        <time>2022-07-09T14:30:01Z</time>
      </trkpt>
      <trkpt lat="42.6605475415" lon="0.3263835143">
        <ele>1857.40</ele>
        <time>2022-07-09T14:30:04Z</time>
      </trkpt>
      <trkpt lat="42.6605503913" lon="0.3263588715">
        <ele>1859.33</ele>
        <time>2022-07-09T14:30:06Z</time>
      </trkpt>
      <trkpt lat="42.6605522353" lon="0.3262728732">
        <ele>1859.81</ele>
        <time>2022-07-09T14:30:12Z</time>
      </trkpt>
      <trkpt lat="42.6605599467" lon="0.3262126911">
        <ele>1860.77</ele>
        <time>2022-07-09T14:30:16Z</time>
      </trkpt>
      <trkpt lat="42.6605780516" lon="0.3259872179">
        <ele>1862.69</ele>
        <time>2022-07-09T14:30:32Z</time>
      </trkpt>
      <trkpt lat="42.6606014371" lon="0.3258850425">
        <ele>1864.13</ele>
        <time>2022-07-09T14:30:39Z</time>
      </trkpt>
      <trkpt lat="42.6606363058" lon="0.3257233556">
        <ele>1865.09</ele>
        <time>2022-07-09T14:30:50Z</time>
      </trkpt>
      <trkpt lat="42.6607932989" lon="0.3255497664">
        <ele>1867.50</ele>
        <time>2022-07-09T14:31:06Z</time>
      </trkpt>
      <trkpt lat="42.6608233899" lon="0.3253277298">
        <ele>1866.54</ele>
        <time>2022-07-09T14:31:19Z</time>
      </trkpt>
      <trkpt lat="42.6608223841" lon="0.3253111336">
        <ele>1867.02</ele>
        <time>2022-07-09T14:31:20Z</time>
      </trkpt>
      <trkpt lat="42.6608248148" lon="0.3252009954">
        <ele>1866.06</ele>
        <time>2022-07-09T14:31:26Z</time>
      </trkpt>
      <trkpt lat="42.6608515531" lon="0.3249627817">
        <ele>1866.54</ele>
        <time>2022-07-09T14:31:39Z</time>
      </trkpt>
      <trkpt lat="42.6608310174" lon="0.3246893641">
        <ele>1867.98</ele>
        <time>2022-07-09T14:31:54Z</time>
      </trkpt>
      <trkpt lat="42.6609220449" lon="0.3245130088">
        <ele>1868.94</ele>
        <time>2022-07-09T14:32:08Z</time>
      </trkpt>
      <trkpt lat="42.6609659661" lon="0.3244412597">
        <ele>1868.94</ele>
        <time>2022-07-09T14:32:13Z</time>
      </trkpt>
      <trkpt lat="42.6609787066" lon="0.3242454585">
        <ele>1869.42</ele>
        <time>2022-07-09T14:32:26Z</time>
      </trkpt>
      <trkpt lat="42.6609811373" lon="0.3241920657">
        <ele>1870.86</ele>
        <time>2022-07-09T14:32:31Z</time>
      </trkpt>
      <trkpt lat="42.6609972306" lon="0.3241546825">
        <ele>1870.86</ele>
        <time>2022-07-09T14:32:34Z</time>
      </trkpt>
      <trkpt lat="42.6610237174" lon="0.3241187241">
        <ele>1870.38</ele>
        <time>2022-07-09T14:32:38Z</time>
      </trkpt>
      <trkpt lat="42.6610267349" lon="0.3240888007">
        <ele>1871.82</ele>
        <time>2022-07-09T14:32:40Z</time>
      </trkpt>
      <trkpt lat="42.6610232145" lon="0.3240579553">
        <ele>1872.30</ele>
        <time>2022-07-09T14:32:42Z</time>
      </trkpt>
      <trkpt lat="42.6610644534" lon="0.3238964360">
        <ele>1875.19</ele>
        <time>2022-07-09T14:32:58Z</time>
      </trkpt>
      <trkpt lat="42.6610901020" lon="0.3238290455">
        <ele>1877.59</ele>
        <time>2022-07-09T14:33:10Z</time>
      </trkpt>
      <trkpt lat="42.6611294970" lon="0.3237868007">
        <ele>1879.51</ele>
        <time>2022-07-09T14:33:21Z</time>
      </trkpt>
      <trkpt lat="42.6611650363" lon="0.3237640020">
        <ele>1880.00</ele>
        <time>2022-07-09T14:33:39Z</time>
      </trkpt>
      <trkpt lat="42.6611720771" lon="0.3237441368">
        <ele>1879.03</ele>
        <time>2022-07-09T14:33:57Z</time>
      </trkpt>
      <trkpt lat="42.6612175908" lon="0.3237546142">
        <ele>1880.48</ele>
        <time>2022-07-09T14:34:09Z</time>
      </trkpt>
      <trkpt lat="42.6612079516" lon="0.3237349167">
        <ele>1881.44</ele>
        <time>2022-07-09T14:34:30Z</time>
      </trkpt>
      <trkpt lat="42.6612228714" lon="0.3237365093">
        <ele>1881.92</ele>
        <time>2022-07-09T14:34:42Z</time>
      </trkpt>
      <trkpt lat="42.6612327620" lon="0.3236882295">
        <ele>1882.88</ele>
        <time>2022-07-09T14:34:57Z</time>
      </trkpt>
      <trkpt lat="42.6611895114" lon="0.3237296361">
        <ele>1883.36</ele>
        <time>2022-07-09T14:35:19Z</time>
      </trkpt>
      <trkpt lat="42.6611807104" lon="0.3236949351">
        <ele>1883.84</ele>
        <time>2022-07-09T14:35:39Z</time>
      </trkpt>
      <trkpt lat="42.6612597518" lon="0.3236386087">
        <ele>1885.76</ele>
        <time>2022-07-09T14:35:58Z</time>
      </trkpt>
      <trkpt lat="42.6613024995" lon="0.3235915862">
        <ele>1885.76</ele>
        <time>2022-07-09T14:36:02Z</time>
      </trkpt>
      <trkpt lat="42.6614542957" lon="0.3234812804">
        <ele>1887.21</ele>
        <time>2022-07-09T14:36:15Z</time>
      </trkpt>
      <trkpt lat="42.6615302358" lon="0.3233607486">
        <ele>1888.17</ele>
        <time>2022-07-09T14:36:25Z</time>
      </trkpt>
      <trkpt lat="42.6616400387" lon="0.3232128080">
        <ele>1890.57</ele>
        <time>2022-07-09T14:36:39Z</time>
      </trkpt>
      <trkpt lat="42.6616673637" lon="0.3231073637">
        <ele>1890.57</ele>
        <time>2022-07-09T14:36:51Z</time>
      </trkpt>
      <trkpt lat="42.6617082674" lon="0.3230288252">
        <ele>1891.53</ele>
        <time>2022-07-09T14:36:59Z</time>
      </trkpt>
      <trkpt lat="42.6617246959" lon="0.3230179287">
        <ele>1891.53</ele>
        <time>2022-07-09T14:37:01Z</time>
      </trkpt>
      <trkpt lat="42.6617807709" lon="0.3229877539">
        <ele>1892.97</ele>
        <time>2022-07-09T14:37:08Z</time>
      </trkpt>
      <trkpt lat="42.6618928369" lon="0.3229753487">
        <ele>1893.93</ele>
        <time>2022-07-09T14:37:21Z</time>
      </trkpt>
      <trkpt lat="42.6619241014" lon="0.3229642007">
        <ele>1894.42</ele>
        <time>2022-07-09T14:37:30Z</time>
      </trkpt>
      <trkpt lat="42.6619671844" lon="0.3228404839">
        <ele>1896.82</ele>
        <time>2022-07-09T14:37:44Z</time>
      </trkpt>
      <trkpt lat="42.6620457228" lon="0.3227575868">
        <ele>1900.18</ele>
        <time>2022-07-09T14:37:55Z</time>
      </trkpt>
      <trkpt lat="42.6620769873" lon="0.3226798866">
        <ele>1903.07</ele>
        <time>2022-07-09T14:38:05Z</time>
      </trkpt>
      <trkpt lat="42.6621264406" lon="0.3225919604">
        <ele>1905.95</ele>
        <time>2022-07-09T14:38:18Z</time>
      </trkpt>
      <trkpt lat="42.6622318011" lon="0.3224993404">
        <ele>1907.87</ele>
        <time>2022-07-09T14:38:31Z</time>
      </trkpt>
      <trkpt lat="42.6623259299" lon="0.3224373981">
        <ele>1910.76</ele>
        <time>2022-07-09T14:38:45Z</time>
      </trkpt>
      <trkpt lat="42.6624369062" lon="0.3223895375">
        <ele>1914.60</ele>
        <time>2022-07-09T14:38:58Z</time>
      </trkpt>
      <trkpt lat="42.6624932326" lon="0.3223052993">
        <ele>1916.53</ele>
        <time>2022-07-09T14:39:11Z</time>
      </trkpt>
      <trkpt lat="42.6625519060" lon="0.3222489730">
        <ele>1919.41</ele>
        <time>2022-07-09T14:39:23Z</time>
      </trkpt>
      <trkpt lat="42.6626850106" lon="0.3220929857">
        <ele>1922.77</ele>
        <time>2022-07-09T14:39:38Z</time>
      </trkpt>
      <trkpt lat="42.6627633814" lon="0.3219828475">
        <ele>1925.66</ele>
        <time>2022-07-09T14:39:52Z</time>
      </trkpt>
      <trkpt lat="42.6628105715" lon="0.3218210768">
        <ele>1928.06</ele>
        <time>2022-07-09T14:40:06Z</time>
      </trkpt>
      <trkpt lat="42.6628819853" lon="0.3216303885">
        <ele>1931.43</ele>
        <time>2022-07-09T14:40:23Z</time>
      </trkpt>
      <trkpt lat="42.6629924588" lon="0.3214788437">
        <ele>1933.35</ele>
        <time>2022-07-09T14:40:36Z</time>
      </trkpt>
      <trkpt lat="42.6630000025" lon="0.3214739822">
        <ele>1933.83</ele>
        <time>2022-07-09T14:40:37Z</time>
      </trkpt>
      <trkpt lat="42.6631333586" lon="0.3214270435">
        <ele>1935.75</ele>
        <time>2022-07-09T14:40:52Z</time>
      </trkpt>
      <trkpt lat="42.6632051915" lon="0.3212516941">
        <ele>1936.23</ele>
        <time>2022-07-09T14:41:04Z</time>
      </trkpt>
      <trkpt lat="42.6633517072" lon="0.3210826311">
        <ele>1937.19</ele>
        <time>2022-07-09T14:41:18Z</time>
      </trkpt>
      <trkpt lat="42.6634731609" lon="0.3209312540">
        <ele>1939.12</ele>
        <time>2022-07-09T14:41:33Z</time>
      </trkpt>
      <trkpt lat="42.6635523699" lon="0.3208022565">
        <ele>1941.52</ele>
        <time>2022-07-09T14:41:46Z</time>
      </trkpt>
      <trkpt lat="42.6636206824" lon="0.3206416592">
        <ele>1943.44</ele>
        <time>2022-07-09T14:41:59Z</time>
      </trkpt>
      <trkpt lat="42.6637107041" lon="0.3204850852">
        <ele>1944.88</ele>
        <time>2022-07-09T14:42:13Z</time>
      </trkpt>
      <trkpt lat="42.6637858897" lon="0.3202726878">
        <ele>1946.33</ele>
        <time>2022-07-09T14:42:27Z</time>
      </trkpt>
      <trkpt lat="42.6638876460" lon="0.3200700972">
        <ele>1947.77</ele>
        <time>2022-07-09T14:42:42Z</time>
      </trkpt>
      <trkpt lat="42.6639767457" lon="0.3199123498">
        <ele>1951.13</ele>
        <time>2022-07-09T14:42:58Z</time>
      </trkpt>
      <trkpt lat="42.6639873069" lon="0.3198623937">
        <ele>1951.13</ele>
        <time>2022-07-09T14:43:01Z</time>
      </trkpt>
      <trkpt lat="42.6640774123" lon="0.3195898142">
        <ele>1953.06</ele>
        <time>2022-07-09T14:43:18Z</time>
      </trkpt>
      <trkpt lat="42.6641530171" lon="0.3194552008">
        <ele>1955.46</ele>
        <time>2022-07-09T14:43:32Z</time>
      </trkpt>
      <trkpt lat="42.6641428750" lon="0.3192464076">
        <ele>1955.94</ele>
        <time>2022-07-09T14:43:43Z</time>
      </trkpt>
      <trkpt lat="42.6641501673" lon="0.3191588167">
        <ele>1957.38</ele>
        <time>2022-07-09T14:43:49Z</time>
      </trkpt>
      <trkpt lat="42.6641977765" lon="0.3190187551">
        <ele>1959.78</ele>
        <time>2022-07-09T14:44:04Z</time>
      </trkpt>
      <trkpt lat="42.6642230898" lon="0.3190185037">
        <ele>1960.27</ele>
        <time>2022-07-09T14:44:06Z</time>
      </trkpt>
      <trkpt lat="42.6643324737" lon="0.3188696411">
        <ele>1962.67</ele>
        <time>2022-07-09T14:44:21Z</time>
      </trkpt>
      <trkpt lat="42.6644100901" lon="0.3187407274">
        <ele>1963.63</ele>
        <time>2022-07-09T14:44:31Z</time>
      </trkpt>
      <trkpt lat="42.6645627245" lon="0.3187207785">
        <ele>1966.03</ele>
        <time>2022-07-09T14:44:47Z</time>
      </trkpt>
      <trkpt lat="42.6646352280" lon="0.3186862450">
        <ele>1966.03</ele>
        <time>2022-07-09T14:44:55Z</time>
      </trkpt>
      <trkpt lat="42.6646939013" lon="0.3186533879">
        <ele>1964.59</ele>
        <time>2022-07-09T14:45:01Z</time>
      </trkpt>
      <trkpt lat="42.6647817437" lon="0.3185974807">
        <ele>1967.48</ele>
        <time>2022-07-09T14:45:11Z</time>
      </trkpt>
      <trkpt lat="42.6647901256" lon="0.3185942955">
        <ele>1967.48</ele>
        <time>2022-07-09T14:45:12Z</time>
      </trkpt>
      <trkpt lat="42.6648627967" lon="0.3185055312">
        <ele>1965.55</ele>
        <time>2022-07-09T14:45:19Z</time>
      </trkpt>
      <trkpt lat="42.6649054606" lon="0.3184896894">
        <ele>1967.48</ele>
        <time>2022-07-09T14:45:23Z</time>
      </trkpt>
      <trkpt lat="42.6650133356" lon="0.3184274957">
        <ele>1966.51</ele>
        <time>2022-07-09T14:45:32Z</time>
      </trkpt>
      <trkpt lat="42.6651010104" lon="0.3183671460">
        <ele>1966.51</ele>
        <time>2022-07-09T14:45:40Z</time>
      </trkpt>
      <trkpt lat="42.6651486196" lon="0.3182978276">
        <ele>1967.96</ele>
        <time>2022-07-09T14:45:46Z</time>
      </trkpt>
      <trkpt lat="42.6651787106" lon="0.3182653058">
        <ele>1968.92</ele>
        <time>2022-07-09T14:45:50Z</time>
      </trkpt>
      <trkpt lat="42.6652610209" lon="0.3181347996">
        <ele>1970.36</ele>
        <time>2022-07-09T14:46:02Z</time>
      </trkpt>
      <trkpt lat="42.6652741805" lon="0.3181338776">
        <ele>1970.84</ele>
        <time>2022-07-09T14:46:04Z</time>
      </trkpt>
      <trkpt lat="42.6652914472" lon="0.3181216400">
        <ele>1970.84</ele>
        <time>2022-07-09T14:46:06Z</time>
      </trkpt>
      <trkpt lat="42.6654494461" lon="0.3179702628">
        <ele>1971.80</ele>
        <time>2022-07-09T14:46:22Z</time>
      </trkpt>
      <trkpt lat="42.6655814610" lon="0.3177916445">
        <ele>1971.80</ele>
        <time>2022-07-09T14:46:37Z</time>
      </trkpt>
      <trkpt lat="42.6655897591" lon="0.3177776467">
        <ele>1971.80</ele>
        <time>2022-07-09T14:46:38Z</time>
      </trkpt>
      <trkpt lat="42.6656061038" lon="0.3177472204">
        <ele>1971.80</ele>
        <time>2022-07-09T14:46:40Z</time>
      </trkpt>
      <trkpt lat="42.6657522842" lon="0.3175095934">
        <ele>1970.36</ele>
        <time>2022-07-09T14:46:58Z</time>
      </trkpt>
      <trkpt lat="42.6658028271" lon="0.3174256068">
        <ele>1971.80</ele>
        <time>2022-07-09T14:47:04Z</time>
      </trkpt>
      <trkpt lat="42.6658918429" lon="0.3172422945">
        <ele>1972.28</ele>
        <time>2022-07-09T14:47:19Z</time>
      </trkpt>
      <trkpt lat="42.6658926811" lon="0.3172324039">
        <ele>1972.28</ele>
        <time>2022-07-09T14:47:20Z</time>
      </trkpt>
      <trkpt lat="42.6659221016" lon="0.3171313182">
        <ele>1973.24</ele>
        <time>2022-07-09T14:47:27Z</time>
      </trkpt>
      <trkpt lat="42.6659622509" lon="0.3170217667">
        <ele>1973.72</ele>
        <time>2022-07-09T14:47:34Z</time>
      </trkpt>
      <trkpt lat="42.6659949403" lon="0.3168180026">
        <ele>1975.65</ele>
        <time>2022-07-09T14:47:49Z</time>
      </trkpt>
      <trkpt lat="42.6660453994" lon="0.3166330978">
        <ele>1978.53</ele>
        <time>2022-07-09T14:48:04Z</time>
      </trkpt>
      <trkpt lat="42.6660964452" lon="0.3164897673">
        <ele>1979.97</ele>
        <time>2022-07-09T14:48:16Z</time>
      </trkpt>
      <trkpt lat="42.6661112811" lon="0.3164179344">
        <ele>1979.97</ele>
        <time>2022-07-09T14:48:20Z</time>
      </trkpt>
      <trkpt lat="42.6661462337" lon="0.3163489513">
        <ele>1979.97</ele>
        <time>2022-07-09T14:48:24Z</time>
      </trkpt>
      <trkpt lat="42.6662068348" lon="0.3161108214">
        <ele>1979.01</ele>
        <time>2022-07-09T14:48:39Z</time>
      </trkpt>
      <trkpt lat="42.6662223414" lon="0.3160802275">
        <ele>1978.05</ele>
        <time>2022-07-09T14:48:42Z</time>
      </trkpt>
      <trkpt lat="42.6662239339" lon="0.3160229791">
        <ele>1978.05</ele>
        <time>2022-07-09T14:48:46Z</time>
      </trkpt>
      <trkpt lat="42.6662493311" lon="0.3159177024">
        <ele>1979.49</ele>
        <time>2022-07-09T14:48:57Z</time>
      </trkpt>
      <trkpt lat="42.6663367543" lon="0.3158893716">
        <ele>1981.41</ele>
        <time>2022-07-09T14:49:11Z</time>
      </trkpt>
      <trkpt lat="42.6663966011" lon="0.3158125933">
        <ele>1983.82</ele>
        <time>2022-07-09T14:49:23Z</time>
      </trkpt>
      <trkpt lat="42.6664668415" lon="0.3157479689">
        <ele>1985.26</ele>
        <time>2022-07-09T14:49:37Z</time>
      </trkpt>
      <trkpt lat="42.6664937474" lon="0.3157149442">
        <ele>1986.70</ele>
        <time>2022-07-09T14:49:42Z</time>
      </trkpt>
      <trkpt lat="42.6665034704" lon="0.3156907205">
        <ele>1986.70</ele>
        <time>2022-07-09T14:49:44Z</time>
      </trkpt>
      <trkpt lat="42.6665076613" lon="0.3156245872">
        <ele>1988.14</ele>
        <time>2022-07-09T14:49:58Z</time>
      </trkpt>
      <trkpt lat="42.6665012073" lon="0.3156322986">
        <ele>1988.14</ele>
        <time>2022-07-09T14:50:07Z</time>
      </trkpt>
      <trkpt lat="42.6665654965" lon="0.3155149519">
        <ele>1988.62</ele>
        <time>2022-07-09T14:50:19Z</time>
      </trkpt>
      <trkpt lat="42.6665639877" lon="0.3154105972">
        <ele>1991.03</ele>
        <time>2022-07-09T14:50:30Z</time>
      </trkpt>
      <trkpt lat="42.6666333061" lon="0.3152676020">
        <ele>1993.91</ele>
        <time>2022-07-09T14:50:44Z</time>
      </trkpt>
      <trkpt lat="42.6666685101" lon="0.3151348326">
        <ele>1995.83</ele>
        <time>2022-07-09T14:50:57Z</time>
      </trkpt>
      <trkpt lat="42.6666866988" lon="0.3150303941">
        <ele>1997.76</ele>
        <time>2022-07-09T14:51:07Z</time>
      </trkpt>
      <trkpt lat="42.6666759700" lon="0.3148976248">
        <ele>2001.12</ele>
        <time>2022-07-09T14:51:19Z</time>
      </trkpt>
      <trkpt lat="42.6667076536" lon="0.3147589881">
        <ele>2004.01</ele>
        <time>2022-07-09T14:51:34Z</time>
      </trkpt>
      <trkpt lat="42.6667254232" lon="0.3146687150">
        <ele>2007.37</ele>
        <time>2022-07-09T14:51:47Z</time>
      </trkpt>
      <trkpt lat="42.6667270157" lon="0.3145144042">
        <ele>2009.77</ele>
        <time>2022-07-09T14:52:02Z</time>
      </trkpt>
      <trkpt lat="42.6667227410" lon="0.3144745063">
        <ele>2011.70</ele>
        <time>2022-07-09T14:52:17Z</time>
      </trkpt>
      <trkpt lat="42.6666962542" lon="0.3144642804">
        <ele>2008.81</ele>
        <time>2022-07-09T14:52:30Z</time>
      </trkpt>
      <trkpt lat="42.6667011995" lon="0.3144431580">
        <ele>2009.77</ele>
        <time>2022-07-09T14:52:37Z</time>
      </trkpt>
      <trkpt lat="42.6667000260" lon="0.3144398890">
        <ele>2008.81</ele>
        <time>2022-07-09T14:52:41Z</time>
      </trkpt>
      <trkpt lat="42.6666983496" lon="0.3144377936">
        <ele>2009.77</ele>
        <time>2022-07-09T14:52:45Z</time>
      </trkpt>
      <trkpt lat="42.6667260099" lon="0.3144381288">
        <ele>2011.22</ele>
        <time>2022-07-09T14:53:10Z</time>
      </trkpt>
      <trkpt lat="42.6667286921" lon="0.3142823093">
        <ele>2012.66</ele>
        <time>2022-07-09T14:53:22Z</time>
      </trkpt>
      <trkpt lat="42.6667651534" lon="0.3142011724">
        <ele>2015.06</ele>
        <time>2022-07-09T14:53:34Z</time>
      </trkpt>
      <trkpt lat="42.6668286044" lon="0.3141180240">
        <ele>2016.50</ele>
        <time>2022-07-09T14:53:45Z</time>
      </trkpt>
      <trkpt lat="42.6668521576" lon="0.3141047806">
        <ele>2016.98</ele>
        <time>2022-07-09T14:53:48Z</time>
      </trkpt>
      <trkpt lat="42.6668958273" lon="0.3140611108">
        <ele>2017.46</ele>
        <time>2022-07-09T14:53:52Z</time>
      </trkpt>
      <trkpt lat="42.6669839211" lon="0.3139967378">
        <ele>2019.39</ele>
        <time>2022-07-09T14:54:05Z</time>
      </trkpt>
      <trkpt lat="42.6670135930" lon="0.3140093107">
        <ele>2021.79</ele>
        <time>2022-07-09T14:54:10Z</time>
      </trkpt>
      <trkpt lat="42.6670327876" lon="0.3140073828">
        <ele>2021.31</ele>
        <time>2022-07-09T14:54:12Z</time>
      </trkpt>
      <trkpt lat="42.6670638844" lon="0.3139937203">
        <ele>2022.75</ele>
        <time>2022-07-09T14:54:16Z</time>
      </trkpt>
      <trkpt lat="42.6671111584" lon="0.3140016831">
        <ele>2024.67</ele>
        <time>2022-07-09T14:54:21Z</time>
      </trkpt>
      <trkpt lat="42.6671802253" lon="0.3139394894">
        <ele>2025.15</ele>
        <time>2022-07-09T14:54:33Z</time>
      </trkpt>
      <trkpt lat="42.6671983302" lon="0.3139096498">
        <ele>2026.60</ele>
        <time>2022-07-09T14:54:37Z</time>
      </trkpt>
      <trkpt lat="42.6671968214" lon="0.3138227295">
        <ele>2029.00</ele>
        <time>2022-07-09T14:54:47Z</time>
      </trkpt>
      <trkpt lat="42.6672652178" lon="0.3137665708">
        <ele>2031.40</ele>
        <time>2022-07-09T14:54:55Z</time>
      </trkpt>
      <trkpt lat="42.6673031878" lon="0.3137134295">
        <ele>2031.40</ele>
        <time>2022-07-09T14:55:00Z</time>
      </trkpt>
      <trkpt lat="42.6673292555" lon="0.3136596177">
        <ele>2030.44</ele>
        <time>2022-07-09T14:55:05Z</time>
      </trkpt>
      <trkpt lat="42.6673659682" lon="0.3135986812">
        <ele>2031.88</ele>
        <time>2022-07-09T14:55:11Z</time>
      </trkpt>
      <trkpt lat="42.6673845761" lon="0.3135836776">
        <ele>2032.84</ele>
        <time>2022-07-09T14:55:13Z</time>
      </trkpt>
      <trkpt lat="42.6674436685" lon="0.3135086596">
        <ele>2031.88</ele>
        <time>2022-07-09T14:55:21Z</time>
      </trkpt>
      <trkpt lat="42.6674895175" lon="0.3133530915">
        <ele>2034.29</ele>
        <time>2022-07-09T14:55:33Z</time>
      </trkpt>
      <trkpt lat="42.6675530523" lon="0.3132480662">
        <ele>2035.73</ele>
        <time>2022-07-09T14:55:43Z</time>
      </trkpt>
      <trkpt lat="42.6676150784" lon="0.3131500818">
        <ele>2038.13</ele>
        <time>2022-07-09T14:55:55Z</time>
      </trkpt>
      <trkpt lat="42.6677417289" lon="0.3131050710">
        <ele>2041.50</ele>
        <time>2022-07-09T14:56:11Z</time>
      </trkpt>
      <trkpt lat="42.6678204350" lon="0.3130210843">
        <ele>2044.38</ele>
        <time>2022-07-09T14:56:26Z</time>
      </trkpt>
      <trkpt lat="42.6678876579" lon="0.3129698709">
        <ele>2047.75</ele>
        <time>2022-07-09T14:56:39Z</time>
      </trkpt>
      <trkpt lat="42.6679231133" lon="0.3129203338">
        <ele>2048.71</ele>
        <time>2022-07-09T14:56:46Z</time>
      </trkpt>
      <trkpt lat="42.6679590717" lon="0.3129022289">
        <ele>2050.63</ele>
        <time>2022-07-09T14:56:52Z</time>
      </trkpt>
      <trkpt lat="42.6679781824" lon="0.3128935117">
        <ele>2051.59</ele>
        <time>2022-07-09T14:56:54Z</time>
      </trkpt>
      <trkpt lat="42.6679912582" lon="0.3128694557">
        <ele>2050.63</ele>
        <time>2022-07-09T14:56:56Z</time>
      </trkpt>
      <trkpt lat="42.6680338383" lon="0.3126631770">
        <ele>2050.63</ele>
        <time>2022-07-09T14:57:11Z</time>
      </trkpt>
      <trkpt lat="42.6680503506" lon="0.3125983849">
        <ele>2052.07</ele>
        <time>2022-07-09T14:57:15Z</time>
      </trkpt>
      <trkpt lat="42.6680444833" lon="0.3124599159">
        <ele>2050.63</ele>
        <time>2022-07-09T14:57:24Z</time>
      </trkpt>
      <trkpt lat="42.6680344250" lon="0.3124027513">
        <ele>2052.07</ele>
        <time>2022-07-09T14:57:28Z</time>
      </trkpt>
      <trkpt lat="42.6678699721" lon="0.3121752664">
        <ele>2050.63</ele>
        <time>2022-07-09T14:57:46Z</time>
      </trkpt>
      <trkpt lat="42.6678305771" lon="0.3120799642">
        <ele>2052.07</ele>
        <time>2022-07-09T14:57:53Z</time>
      </trkpt>
      <trkpt lat="42.6678135619" lon="0.3120542318">
        <ele>2050.63</ele>
        <time>2022-07-09T14:57:55Z</time>
      </trkpt>
      <trkpt lat="42.6677698083" lon="0.3120139986">
        <ele>2052.07</ele>
        <time>2022-07-09T14:58:00Z</time>
      </trkpt>
      <trkpt lat="42.6677439082" lon="0.3119875956">
        <ele>2053.51</ele>
        <time>2022-07-09T14:58:04Z</time>
      </trkpt>
      <trkpt lat="42.6676964667" lon="0.3119172715">
        <ele>2054.96</ele>
        <time>2022-07-09T14:58:15Z</time>
      </trkpt>
      <trkpt lat="42.6676822174" lon="0.3118468635">
        <ele>2058.32</ele>
        <time>2022-07-09T14:58:23Z</time>
      </trkpt>
      <trkpt lat="42.6676532999" lon="0.3117993381">
        <ele>2059.76</ele>
        <time>2022-07-09T14:58:29Z</time>
      </trkpt>
      <trkpt lat="42.6675726660" lon="0.3117161896">
        <ele>2062.17</ele>
        <time>2022-07-09T14:58:44Z</time>
      </trkpt>
      <trkpt lat="42.6675616857" lon="0.3116946481">
        <ele>2063.13</ele>
        <time>2022-07-09T14:58:46Z</time>
      </trkpt>
      <trkpt lat="42.6675579976" lon="0.3116793092">
        <ele>2063.61</ele>
        <time>2022-07-09T14:58:47Z</time>
      </trkpt>
      <trkpt lat="42.6674481947" lon="0.3116692510">
        <ele>2066.01</ele>
        <time>2022-07-09T14:59:02Z</time>
      </trkpt>
      <trkpt lat="42.6674022619" lon="0.3116418421">
        <ele>2066.97</ele>
        <time>2022-07-09T14:59:09Z</time>
      </trkpt>
      <trkpt lat="42.6673264056" lon="0.3115495574">
        <ele>2069.38</ele>
        <time>2022-07-09T14:59:22Z</time>
      </trkpt>
      <trkpt lat="42.6673044451" lon="0.3114905488">
        <ele>2070.82</ele>
        <time>2022-07-09T14:59:28Z</time>
      </trkpt>
      <trkpt lat="42.6673390623" lon="0.3114008624">
        <ele>2074.18</ele>
        <time>2022-07-09T14:59:42Z</time>
      </trkpt>
      <trkpt lat="42.6672876813" lon="0.3113154508">
        <ele>2076.59</ele>
        <time>2022-07-09T14:59:57Z</time>
      </trkpt>
      <trkpt lat="42.6672847476" lon="0.3113063984">
        <ele>2077.07</ele>
        <time>2022-07-09T15:00:10Z</time>
      </trkpt>
      <trkpt lat="42.6672778744" lon="0.3113022912">
        <ele>2076.10</ele>
        <time>2022-07-09T15:00:28Z</time>
      </trkpt>
      <trkpt lat="42.6672824845" lon="0.3113253415">
        <ele>2073.70</ele>
        <time>2022-07-09T15:00:54Z</time>
      </trkpt>
      <trkpt lat="42.6672824845" lon="0.3113177978">
        <ele>2079.95</ele>
        <time>2022-07-09T15:00:55Z</time>
      </trkpt>
      <trkpt lat="42.6672819816" lon="0.3113095835">
        <ele>2077.07</ele>
        <time>2022-07-09T15:00:56Z</time>
      </trkpt>
      <trkpt lat="42.6672813110" lon="0.3113090806">
        <ele>2081.39</ele>
        <time>2022-07-09T15:00:58Z</time>
      </trkpt>
      <trkpt lat="42.6672776230" lon="0.3113141097">
        <ele>2078.03</ele>
        <time>2022-07-09T15:00:59Z</time>
      </trkpt>
      <trkpt lat="42.6672760304" lon="0.3113079071">
        <ele>2077.55</ele>
        <time>2022-07-09T15:01:01Z</time>
      </trkpt>
      <trkpt lat="42.6672884356" lon="0.3113063145">
        <ele>2077.55</ele>
        <time>2022-07-09T15:01:23Z</time>
      </trkpt>
      <trkpt lat="42.6672684867" lon="0.3113046382">
        <ele>2077.55</ele>
        <time>2022-07-09T15:01:39Z</time>
      </trkpt>
      <trkpt lat="42.6671869308" lon="0.3112514969">
        <ele>2080.43</ele>
        <time>2022-07-09T15:01:53Z</time>
      </trkpt>
      <trkpt lat="42.6671869308" lon="0.3111894708">
        <ele>2083.79</ele>
        <time>2022-07-09T15:02:06Z</time>
      </trkpt>
      <trkpt lat="42.6671504695" lon="0.3110977728">
        <ele>2086.20</ele>
        <time>2022-07-09T15:02:19Z</time>
      </trkpt>
      <trkpt lat="42.6670930535" lon="0.3110459726">
        <ele>2088.12</ele>
        <time>2022-07-09T15:02:30Z</time>
      </trkpt>
      <trkpt lat="42.6670427620" lon="0.3109990340">
        <ele>2090.52</ele>
        <time>2022-07-09T15:02:42Z</time>
      </trkpt>
      <trkpt lat="42.6671044528" lon="0.3109621536">
        <ele>2092.45</ele>
        <time>2022-07-09T15:02:55Z</time>
      </trkpt>
      <trkpt lat="42.6670954004" lon="0.3109007142">
        <ele>2095.33</ele>
        <time>2022-07-09T15:03:07Z</time>
      </trkpt>
      <trkpt lat="42.6670732722" lon="0.3108324017">
        <ele>2096.77</ele>
        <time>2022-07-09T15:03:15Z</time>
      </trkpt>
      <trkpt lat="42.6669705100" lon="0.3107235208">
        <ele>2099.18</ele>
        <time>2022-07-09T15:03:29Z</time>
      </trkpt>
      <trkpt lat="42.6669163629" lon="0.3107057512">
        <ele>2100.62</ele>
        <time>2022-07-09T15:03:36Z</time>
      </trkpt>
      <trkpt lat="42.6668298617" lon="0.3106701281">
        <ele>2103.50</ele>
        <time>2022-07-09T15:03:47Z</time>
      </trkpt>
      <trkpt lat="42.6667507365" lon="0.3106547892">
        <ele>2103.98</ele>
        <time>2022-07-09T15:03:58Z</time>
      </trkpt>
      <trkpt lat="42.6667295303" lon="0.3106296435">
        <ele>2105.91</ele>
        <time>2022-07-09T15:04:06Z</time>
      </trkpt>
      <trkpt lat="42.6666122675" lon="0.3106485028">
        <ele>2108.31</ele>
        <time>2022-07-09T15:04:21Z</time>
      </trkpt>
      <trkpt lat="42.6664984412" lon="0.3107034881">
        <ele>2110.23</ele>
        <time>2022-07-09T15:04:35Z</time>
      </trkpt>
      <trkpt lat="42.6664180588" lon="0.3107152227">
        <ele>2112.63</ele>
        <time>2022-07-09T15:04:48Z</time>
      </trkpt>
      <trkpt lat="42.6663509198" lon="0.3107592277">
        <ele>2115.52</ele>
        <time>2022-07-09T15:05:01Z</time>
      </trkpt>
      <trkpt lat="42.6662741415" lon="0.3107925877">
        <ele>2118.40</ele>
        <time>2022-07-09T15:05:15Z</time>
      </trkpt>
      <trkpt lat="42.6662026439" lon="0.3108543623">
        <ele>2120.81</ele>
        <time>2022-07-09T15:05:28Z</time>
      </trkpt>
      <trkpt lat="42.6661358401" lon="0.3108975291">
        <ele>2123.21</ele>
        <time>2022-07-09T15:05:41Z</time>
      </trkpt>
      <trkpt lat="42.6660726406" lon="0.3109534364">
        <ele>2126.09</ele>
        <time>2022-07-09T15:05:54Z</time>
      </trkpt>
      <trkpt lat="42.6660001371" lon="0.3110274486">
        <ele>2129.46</ele>
        <time>2022-07-09T15:06:10Z</time>
      </trkpt>
      <trkpt lat="42.6659636758" lon="0.3110652510">
        <ele>2133.30</ele>
        <time>2022-07-09T15:06:23Z</time>
      </trkpt>
      <trkpt lat="42.6659605745" lon="0.3110715374">
        <ele>2133.30</ele>
        <time>2022-07-09T15:06:24Z</time>
      </trkpt>
      <trkpt lat="42.6659015659" lon="0.3111704439">
        <ele>2136.67</ele>
        <time>2022-07-09T15:06:37Z</time>
      </trkpt>
      <trkpt lat="42.6658265479" lon="0.3112471383">
        <ele>2140.03</ele>
        <time>2022-07-09T15:06:52Z</time>
      </trkpt>
      <trkpt lat="42.6657742448" lon="0.3113286942">
        <ele>2142.44</ele>
        <time>2022-07-09T15:07:07Z</time>
      </trkpt>
      <trkpt lat="42.6657137275" lon="0.3113783989">
        <ele>2145.80</ele>
        <time>2022-07-09T15:07:20Z</time>
      </trkpt>
      <trkpt lat="42.6656620950" lon="0.3114769701">
        <ele>2148.20</ele>
        <time>2022-07-09T15:07:34Z</time>
      </trkpt>
      <trkpt lat="42.6656251308" lon="0.3115110844">
        <ele>2151.09</ele>
        <time>2022-07-09T15:07:48Z</time>
      </trkpt>
      <trkpt lat="42.6655207761" lon="0.3115832526">
        <ele>2153.01</ele>
        <time>2022-07-09T15:08:01Z</time>
      </trkpt>
      <trkpt lat="42.6653837319" lon="0.3116265032">
        <ele>2156.37</ele>
        <time>2022-07-09T15:08:17Z</time>
      </trkpt>
      <trkpt lat="42.6652417425" lon="0.3115918860">
        <ele>2156.86</ele>
        <time>2022-07-09T15:08:31Z</time>
      </trkpt>
      <trkpt lat="42.6651497092" lon="0.3116135113">
        <ele>2157.82</ele>
        <time>2022-07-09T15:08:39Z</time>
      </trkpt>
      <trkpt lat="42.6649959013" lon="0.3115326259">
        <ele>2159.74</ele>
        <time>2022-07-09T15:08:56Z</time>
      </trkpt>
      <trkpt lat="42.6649034489" lon="0.3114916384">
        <ele>2162.14</ele>
        <time>2022-07-09T15:09:09Z</time>
      </trkpt>
      <trkpt lat="42.6647588611" lon="0.3113865294">
        <ele>2165.03</ele>
        <time>2022-07-09T15:09:25Z</time>
      </trkpt>
      <trkpt lat="42.6647050492" lon="0.3113116790">
        <ele>2166.95</ele>
        <time>2022-07-09T15:09:35Z</time>
      </trkpt>
      <trkpt lat="42.6646750420" lon="0.3111822624">
        <ele>2168.87</ele>
        <time>2022-07-09T15:09:46Z</time>
      </trkpt>
      <trkpt lat="42.6647278480" lon="0.3110551089">
        <ele>2171.76</ele>
        <time>2022-07-09T15:10:02Z</time>
      </trkpt>
      <trkpt lat="42.6647276804" lon="0.3109908197">
        <ele>2173.68</ele>
        <time>2022-07-09T15:10:17Z</time>
      </trkpt>
      <trkpt lat="42.6647412591" lon="0.3109573759">
        <ele>2174.64</ele>
        <time>2022-07-09T15:10:29Z</time>
      </trkpt>
      <trkpt lat="42.6648039557" lon="0.3108551167">
        <ele>2176.56</ele>
        <time>2022-07-09T15:10:42Z</time>
      </trkpt>
      <trkpt lat="42.6648432668" lon="0.3107412066">
        <ele>2178.97</ele>
        <time>2022-07-09T15:10:55Z</time>
      </trkpt>
      <trkpt lat="42.6648762915" lon="0.3107291367">
        <ele>2179.93</ele>
        <time>2022-07-09T15:10:59Z</time>
      </trkpt>
      <trkpt lat="42.6650251541" lon="0.3107014764">
        <ele>2182.33</ele>
        <time>2022-07-09T15:11:14Z</time>
      </trkpt>
      <trkpt lat="42.6651502121" lon="0.3105601575">
        <ele>2184.25</ele>
        <time>2022-07-09T15:11:27Z</time>
      </trkpt>
      <trkpt lat="42.6652042754" lon="0.3104898334">
        <ele>2181.85</ele>
        <time>2022-07-09T15:11:32Z</time>
      </trkpt>
      <trkpt lat="42.6652475260" lon="0.3103586566">
        <ele>2179.93</ele>
        <time>2022-07-09T15:11:40Z</time>
      </trkpt>
      <trkpt lat="42.6652699057" lon="0.3102439083">
        <ele>2178.97</ele>
        <time>2022-07-09T15:11:46Z</time>
      </trkpt>
      <trkpt lat="42.6653013378" lon="0.3101646155">
        <ele>2179.45</ele>
        <time>2022-07-09T15:11:51Z</time>
      </trkpt>
      <trkpt lat="42.6653238013" lon="0.3100811318">
        <ele>2178.00</ele>
        <time>2022-07-09T15:11:56Z</time>
      </trkpt>
      <trkpt lat="42.6654065307" lon="0.3098753560">
        <ele>2178.97</ele>
        <time>2022-07-09T15:12:09Z</time>
      </trkpt>
      <trkpt lat="42.6654035132" lon="0.3098581731">
        <ele>2178.97</ele>
        <time>2022-07-09T15:12:10Z</time>
      </trkpt>
      <trkpt lat="42.6654167566" lon="0.3097266611">
        <ele>2176.56</ele>
        <time>2022-07-09T15:12:17Z</time>
      </trkpt>
      <trkpt lat="42.6654337719" lon="0.3096767049">
        <ele>2178.48</ele>
        <time>2022-07-09T15:12:20Z</time>
      </trkpt>
      <trkpt lat="42.6654776931" lon="0.3095756192">
        <ele>2177.52</ele>
        <time>2022-07-09T15:12:27Z</time>
      </trkpt>
      <trkpt lat="42.6655334327" lon="0.3093256708">
        <ele>2178.97</ele>
        <time>2022-07-09T15:12:43Z</time>
      </trkpt>
      <trkpt lat="42.6655695587" lon="0.3091196436">
        <ele>2178.00</ele>
        <time>2022-07-09T15:12:56Z</time>
      </trkpt>
      <trkpt lat="42.6655833889" lon="0.3089831863">
        <ele>2179.93</ele>
        <time>2022-07-09T15:13:05Z</time>
      </trkpt>
      <trkpt lat="42.6655885857" lon="0.3087869659">
        <ele>2182.81</ele>
        <time>2022-07-09T15:13:20Z</time>
      </trkpt>
      <trkpt lat="42.6655887533" lon="0.3087615687">
        <ele>2182.81</ele>
        <time>2022-07-09T15:13:22Z</time>
      </trkpt>
      <trkpt lat="42.6656432357" lon="0.3085772507">
        <ele>2183.29</ele>
        <time>2022-07-09T15:13:36Z</time>
      </trkpt>
      <trkpt lat="42.6656680461" lon="0.3085146379">
        <ele>2184.25</ele>
        <time>2022-07-09T15:13:42Z</time>
      </trkpt>
      <trkpt lat="42.6656705607" lon="0.3084865585">
        <ele>2184.25</ele>
        <time>2022-07-09T15:13:44Z</time>
      </trkpt>
      <trkpt lat="42.6656812895" lon="0.3084181622">
        <ele>2185.69</ele>
        <time>2022-07-09T15:13:48Z</time>
      </trkpt>
      <trkpt lat="42.6656850614" lon="0.3083762527">
        <ele>2187.14</ele>
        <time>2022-07-09T15:13:51Z</time>
      </trkpt>
      <trkpt lat="42.6657128055" lon="0.3082929365">
        <ele>2189.54</ele>
        <time>2022-07-09T15:14:00Z</time>
      </trkpt>
      <trkpt lat="42.6657309104" lon="0.3082718141">
        <ele>2187.14</ele>
        <time>2022-07-09T15:14:02Z</time>
      </trkpt>
      <trkpt lat="42.6657368615" lon="0.3082456626">
        <ele>2189.06</ele>
        <time>2022-07-09T15:14:04Z</time>
      </trkpt>
      <trkpt lat="42.6657727361" lon="0.3081413917">
        <ele>2190.50</ele>
        <time>2022-07-09T15:14:12Z</time>
      </trkpt>
      <trkpt lat="42.6658088621" lon="0.3080914356">
        <ele>2191.46</ele>
        <time>2022-07-09T15:14:18Z</time>
      </trkpt>
      <trkpt lat="42.6658279728" lon="0.3080170043">
        <ele>2193.39</ele>
        <time>2022-07-09T15:14:25Z</time>
      </trkpt>
      <trkpt lat="42.6658302359" lon="0.3079883382">
        <ele>2193.87</ele>
        <time>2022-07-09T15:14:27Z</time>
      </trkpt>
      <trkpt lat="42.6659355965" lon="0.3078168444">
        <ele>2194.83</ele>
        <time>2022-07-09T15:14:42Z</time>
      </trkpt>
      <trkpt lat="42.6660182420" lon="0.3076578397">
        <ele>2194.35</ele>
        <time>2022-07-09T15:14:55Z</time>
      </trkpt>
      <trkpt lat="42.6660362631" lon="0.3076471109">
        <ele>2195.79</ele>
        <time>2022-07-09T15:14:57Z</time>
      </trkpt>
      <trkpt lat="42.6661280449" lon="0.3075191192">
        <ele>2197.71</ele>
        <time>2022-07-09T15:15:11Z</time>
      </trkpt>
      <trkpt lat="42.6662067510" lon="0.3073696699">
        <ele>2201.56</ele>
        <time>2022-07-09T15:15:27Z</time>
      </trkpt>
      <trkpt lat="42.6662093494" lon="0.3073576838">
        <ele>2201.56</ele>
        <time>2022-07-09T15:15:28Z</time>
      </trkpt>
      <trkpt lat="42.6662762370" lon="0.3072507307">
        <ele>2202.04</ele>
        <time>2022-07-09T15:15:38Z</time>
      </trkpt>
      <trkpt lat="42.6662947610" lon="0.3072255850">
        <ele>2200.11</ele>
        <time>2022-07-09T15:15:40Z</time>
      </trkpt>
      <trkpt lat="42.6663134526" lon="0.3072018642">
        <ele>2202.52</ele>
        <time>2022-07-09T15:15:42Z</time>
      </trkpt>
      <trkpt lat="42.6663273666" lon="0.3071768861">
        <ele>2201.08</ele>
        <time>2022-07-09T15:15:44Z</time>
      </trkpt>
      <trkpt lat="42.6663336530" lon="0.3071656544">
        <ele>2201.08</ele>
        <time>2022-07-09T15:15:45Z</time>
      </trkpt>
      <trkpt lat="42.6663489081" lon="0.3071485553">
        <ele>2202.52</ele>
        <time>2022-07-09T15:15:47Z</time>
      </trkpt>
      <trkpt lat="42.6664088387" lon="0.3070471343">
        <ele>2204.44</ele>
        <time>2022-07-09T15:15:58Z</time>
      </trkpt>
      <trkpt lat="42.6664601360" lon="0.3069632314">
        <ele>2204.44</ele>
        <time>2022-07-09T15:16:08Z</time>
      </trkpt>
      <trkpt lat="42.6664763130" lon="0.3069209028">
        <ele>2206.84</ele>
        <time>2022-07-09T15:16:12Z</time>
      </trkpt>
      <trkpt lat="42.6664945018" lon="0.3068520036">
        <ele>2206.36</ele>
        <time>2022-07-09T15:16:17Z</time>
      </trkpt>
      <trkpt lat="42.6664920710" lon="0.3068175539">
        <ele>2207.81</ele>
        <time>2022-07-09T15:16:20Z</time>
      </trkpt>
      <trkpt lat="42.6664798334" lon="0.3066919092">
        <ele>2211.17</ele>
        <time>2022-07-09T15:16:31Z</time>
      </trkpt>
      <trkpt lat="42.6664934121" lon="0.3066084255">
        <ele>2214.53</ele>
        <time>2022-07-09T15:16:39Z</time>
      </trkpt>
      <trkpt lat="42.6664980222" lon="0.3064539470">
        <ele>2214.05</ele>
        <time>2022-07-09T15:16:53Z</time>
      </trkpt>
      <trkpt lat="42.6665274426" lon="0.3063474130">
        <ele>2216.94</ele>
        <time>2022-07-09T15:17:03Z</time>
      </trkpt>
      <trkpt lat="42.6665413566" lon="0.3062730655">
        <ele>2215.98</ele>
        <time>2022-07-09T15:17:08Z</time>
      </trkpt>
      <trkpt lat="42.6665676758" lon="0.3062376939">
        <ele>2217.42</ele>
        <time>2022-07-09T15:17:12Z</time>
      </trkpt>
      <trkpt lat="42.6665494870" lon="0.3060164116">
        <ele>2217.90</ele>
        <time>2022-07-09T15:17:27Z</time>
      </trkpt>
      <trkpt lat="42.6666276064" lon="0.3058830556">
        <ele>2220.30</ele>
        <time>2022-07-09T15:17:43Z</time>
      </trkpt>
      <trkpt lat="42.6666278578" lon="0.3057915252">
        <ele>2223.19</ele>
        <time>2022-07-09T15:17:56Z</time>
      </trkpt>
      <trkpt lat="42.6665390097" lon="0.3057550639">
        <ele>2226.55</ele>
        <time>2022-07-09T15:18:08Z</time>
      </trkpt>
      <trkpt lat="42.6664702781" lon="0.3056876734">
        <ele>2230.40</ele>
        <time>2022-07-09T15:18:24Z</time>
      </trkpt>
      <trkpt lat="42.6663899794" lon="0.3056317661">
        <ele>2232.32</ele>
        <time>2022-07-09T15:18:38Z</time>
      </trkpt>
      <trkpt lat="42.6663058251" lon="0.3055762779">
        <ele>2234.72</ele>
        <time>2022-07-09T15:18:53Z</time>
      </trkpt>
      <trkpt lat="42.6662394404" lon="0.3055393975">
        <ele>2236.64</ele>
        <time>2022-07-09T15:19:04Z</time>
      </trkpt>
      <trkpt lat="42.6661595609" lon="0.3055383079">
        <ele>2240.01</ele>
        <time>2022-07-09T15:19:17Z</time>
      </trkpt>
      <trkpt lat="42.6660860516" lon="0.3054779582">
        <ele>2243.37</ele>
        <time>2022-07-09T15:19:32Z</time>
      </trkpt>
      <trkpt lat="42.6660389453" lon="0.3054756951">
        <ele>2244.82</ele>
        <time>2022-07-09T15:19:39Z</time>
      </trkpt>
      <trkpt lat="42.6659839600" lon="0.3054199554">
        <ele>2247.70</ele>
        <time>2022-07-09T15:19:50Z</time>
      </trkpt>
      <trkpt lat="42.6658993028" lon="0.3053570073">
        <ele>2250.10</ele>
        <time>2022-07-09T15:20:03Z</time>
      </trkpt>
      <trkpt lat="42.6658081077" lon="0.3051180393">
        <ele>2251.54</ele>
        <time>2022-07-09T15:20:21Z</time>
      </trkpt>
      <trkpt lat="42.6657261327" lon="0.3048969246">
        <ele>2252.51</ele>
        <time>2022-07-09T15:20:36Z</time>
      </trkpt>
      <trkpt lat="42.6657006517" lon="0.3046872932">
        <ele>2253.95</ele>
        <time>2022-07-09T15:20:51Z</time>
      </trkpt>
      <trkpt lat="42.6657009870" lon="0.3045494948">
        <ele>2252.03</ele>
        <time>2022-07-09T15:20:59Z</time>
      </trkpt>
      <trkpt lat="42.6657211035" lon="0.3044822719">
        <ele>2253.47</ele>
        <time>2022-07-09T15:21:05Z</time>
      </trkpt>
      <trkpt lat="42.6658345107" lon="0.3043079283">
        <ele>2255.87</ele>
        <time>2022-07-09T15:21:22Z</time>
      </trkpt>
      <trkpt lat="42.6659231074" lon="0.3041464929">
        <ele>2257.31</ele>
        <time>2022-07-09T15:21:36Z</time>
      </trkpt>
      <trkpt lat="42.6659402903" lon="0.3040883224">
        <ele>2258.75</ele>
        <time>2022-07-09T15:21:40Z</time>
      </trkpt>
      <trkpt lat="42.6660109498" lon="0.3038492706">
        <ele>2259.72</ele>
        <time>2022-07-09T15:21:57Z</time>
      </trkpt>
      <trkpt lat="42.6660193317" lon="0.3038356919">
        <ele>2259.72</ele>
        <time>2022-07-09T15:21:58Z</time>
      </trkpt>
      <trkpt lat="42.6660609059" lon="0.3037377074">
        <ele>2258.27</ele>
        <time>2022-07-09T15:22:04Z</time>
      </trkpt>
      <trkpt lat="42.6661229320" lon="0.3035113122">
        <ele>2257.31</ele>
        <time>2022-07-09T15:22:18Z</time>
      </trkpt>
      <trkpt lat="42.6661510952" lon="0.3032221366">
        <ele>2256.35</ele>
        <time>2022-07-09T15:22:34Z</time>
      </trkpt>
      <trkpt lat="42.6660969481" lon="0.3029187955">
        <ele>2255.87</ele>
        <time>2022-07-09T15:22:51Z</time>
      </trkpt>
      <trkpt lat="42.6660841238" lon="0.3027396742">
        <ele>2257.31</ele>
        <time>2022-07-09T15:23:03Z</time>
      </trkpt>
      <trkpt lat="42.6660849620" lon="0.3027224075">
        <ele>2257.31</ele>
        <time>2022-07-09T15:23:04Z</time>
      </trkpt>
      <trkpt lat="42.6660672761" lon="0.3024727944">
        <ele>2256.83</ele>
        <time>2022-07-09T15:23:18Z</time>
      </trkpt>
      <trkpt lat="42.6660842076" lon="0.3022061661">
        <ele>2255.87</ele>
        <time>2022-07-09T15:23:34Z</time>
      </trkpt>
      <trkpt lat="42.6661284640" lon="0.3020927589">
        <ele>2254.43</ele>
        <time>2022-07-09T15:23:41Z</time>
      </trkpt>
      <trkpt lat="42.6661752351" lon="0.3018332552">
        <ele>2252.51</ele>
        <time>2022-07-09T15:23:56Z</time>
      </trkpt>
      <trkpt lat="42.6661485806" lon="0.3015604243">
        <ele>2251.06</ele>
        <time>2022-07-09T15:24:11Z</time>
      </trkpt>
      <trkpt lat="42.6661961060" lon="0.3013693169">
        <ele>2252.51</ele>
        <time>2022-07-09T15:24:25Z</time>
      </trkpt>
      <trkpt lat="42.6662147976" lon="0.3012383077">
        <ele>2250.58</ele>
        <time>2022-07-09T15:24:35Z</time>
      </trkpt>
      <trkpt lat="42.6662640832" lon="0.3010197915">
        <ele>2247.22</ele>
        <time>2022-07-09T15:24:49Z</time>
      </trkpt>
      <trkpt lat="42.6662768237" lon="0.3009351343">
        <ele>2244.33</ele>
        <time>2022-07-09T15:24:56Z</time>
      </trkpt>
      <trkpt lat="42.6662752312" lon="0.3009193763">
        <ele>2244.33</ele>
        <time>2022-07-09T15:24:57Z</time>
      </trkpt>
      <trkpt lat="42.6662908215" lon="0.3008392453">
        <ele>2242.89</ele>
        <time>2022-07-09T15:25:03Z</time>
      </trkpt>
      <trkpt lat="42.6663165540" lon="0.3007435240">
        <ele>2240.97</ele>
        <time>2022-07-09T15:25:10Z</time>
      </trkpt>
      <trkpt lat="42.6663843635" lon="0.3006094974">
        <ele>2238.57</ele>
        <time>2022-07-09T15:25:20Z</time>
      </trkpt>
      <trkpt lat="42.6664182264" lon="0.3005642351">
        <ele>2239.53</ele>
        <time>2022-07-09T15:25:25Z</time>
      </trkpt>
      <trkpt lat="42.6664342359" lon="0.3005211521">
        <ele>2239.53</ele>
        <time>2022-07-09T15:25:28Z</time>
      </trkpt>
      <trkpt lat="42.6664494909" lon="0.3004639037">
        <ele>2236.64</ele>
        <time>2022-07-09T15:25:32Z</time>
      </trkpt>
      <trkpt lat="42.6664879639" lon="0.3003676794">
        <ele>2235.68</ele>
        <time>2022-07-09T15:25:39Z</time>
      </trkpt>
      <trkpt lat="42.6665475592" lon="0.3002494108">
        <ele>2234.24</ele>
        <time>2022-07-09T15:25:48Z</time>
      </trkpt>
      <trkpt lat="42.6665919833" lon="0.3002177272">
        <ele>2234.24</ele>
        <time>2022-07-09T15:25:52Z</time>
      </trkpt>
      <trkpt lat="42.6666291989" lon="0.3001173958">
        <ele>2233.28</ele>
        <time>2022-07-09T15:25:59Z</time>
      </trkpt>
      <trkpt lat="42.6666654088" lon="0.3000221774">
        <ele>2232.32</ele>
        <time>2022-07-09T15:26:05Z</time>
      </trkpt>
      <trkpt lat="42.6667370740" lon="0.2998516057">
        <ele>2228.95</ele>
        <time>2022-07-09T15:26:17Z</time>
      </trkpt>
      <trkpt lat="42.6667415164" lon="0.2998254541">
        <ele>2227.99</ele>
        <time>2022-07-09T15:26:19Z</time>
      </trkpt>
      <trkpt lat="42.6667436957" lon="0.2998106182">
        <ele>2227.99</ele>
        <time>2022-07-09T15:26:20Z</time>
      </trkpt>
      <trkpt lat="42.6667602081" lon="0.2997579798">
        <ele>2227.03</ele>
        <time>2022-07-09T15:26:24Z</time>
      </trkpt>
      <trkpt lat="42.6667700149" lon="0.2997206803">
        <ele>2226.07</ele>
        <time>2022-07-09T15:26:27Z</time>
      </trkpt>
      <trkpt lat="42.6668486372" lon="0.2996342629">
        <ele>2224.15</ele>
        <time>2022-07-09T15:26:36Z</time>
      </trkpt>
      <trkpt lat="42.6668694243" lon="0.2996180858">
        <ele>2223.67</ele>
        <time>2022-07-09T15:26:38Z</time>
      </trkpt>
      <trkpt lat="42.6669663191" lon="0.2994745877">
        <ele>2220.30</ele>
        <time>2022-07-09T15:26:49Z</time>
      </trkpt>
      <trkpt lat="42.6669862680" lon="0.2994496934">
        <ele>2220.30</ele>
        <time>2022-07-09T15:26:51Z</time>
      </trkpt>
      <trkpt lat="42.6670274232" lon="0.2994116396">
        <ele>2219.34</ele>
        <time>2022-07-09T15:26:55Z</time>
      </trkpt>
      <trkpt lat="42.6670711767" lon="0.2993320953">
        <ele>2219.34</ele>
        <time>2022-07-09T15:27:01Z</time>
      </trkpt>
      <trkpt lat="42.6670825761" lon="0.2990738489">
        <ele>2217.90</ele>
        <time>2022-07-09T15:27:15Z</time>
      </trkpt>
      <trkpt lat="42.6670210529" lon="0.2988182846">
        <ele>2216.46</ele>
        <time>2022-07-09T15:27:29Z</time>
      </trkpt>
      <trkpt lat="42.6670399960" lon="0.2986325417">
        <ele>2217.42</ele>
        <time>2022-07-09T15:27:40Z</time>
      </trkpt>
      <trkpt lat="42.6670460310" lon="0.2985970862">
        <ele>2215.98</ele>
        <time>2022-07-09T15:27:42Z</time>
      </trkpt>
      <trkpt lat="42.6670772955" lon="0.2982862014">
        <ele>2213.57</ele>
        <time>2022-07-09T15:28:00Z</time>
      </trkpt>
      <trkpt lat="42.6671270840" lon="0.2980933338">
        <ele>2212.61</ele>
        <time>2022-07-09T15:28:14Z</time>
      </trkpt>
      <trkpt lat="42.6671249047" lon="0.2980441321">
        <ele>2212.13</ele>
        <time>2022-07-09T15:28:17Z</time>
      </trkpt>
      <trkpt lat="42.6671208814" lon="0.2979717124">
        <ele>2212.13</ele>
        <time>2022-07-09T15:28:22Z</time>
      </trkpt>
      <trkpt lat="42.6671204623" lon="0.2979253605">
        <ele>2212.13</ele>
        <time>2022-07-09T15:28:26Z</time>
      </trkpt>
      <trkpt lat="42.6671155170" lon="0.2978674415">
        <ele>2213.09</ele>
        <time>2022-07-09T15:28:30Z</time>
      </trkpt>
      <trkpt lat="42.6671058778" lon="0.2978130430">
        <ele>2214.05</ele>
        <time>2022-07-09T15:28:35Z</time>
      </trkpt>
      <trkpt lat="42.6671473682" lon="0.2976019029">
        <ele>2215.50</ele>
        <time>2022-07-09T15:28:49Z</time>
      </trkpt>
      <trkpt lat="42.6671455242" lon="0.2975670341">
        <ele>2215.98</ele>
        <time>2022-07-09T15:28:51Z</time>
      </trkpt>
      <trkpt lat="42.6671990007" lon="0.2973962948">
        <ele>2216.46</ele>
        <time>2022-07-09T15:29:05Z</time>
      </trkpt>
      <trkpt lat="42.6671978272" lon="0.2973059379">
        <ele>2215.50</ele>
        <time>2022-07-09T15:29:20Z</time>
      </trkpt>
      <trkpt lat="42.6672000904" lon="0.2973071113">
        <ele>2215.50</ele>
        <time>2022-07-09T15:29:21Z</time>
      </trkpt>
      <trkpt lat="42.6671549119" lon="0.2973081172">
        <ele>2215.01</ele>
        <time>2022-07-09T15:30:00Z</time>
      </trkpt>
      <trkpt lat="42.6671578456" lon="0.2973039262">
        <ele>2217.90</ele>
        <time>2022-07-09T15:30:14Z</time>
      </trkpt>
      <trkpt lat="42.6671534870" lon="0.2973019984">
        <ele>2216.46</ele>
        <time>2022-07-09T15:30:16Z</time>
      </trkpt>
      <trkpt lat="42.6671668142" lon="0.2973336820">
        <ele>2216.46</ele>
        <time>2022-07-09T15:30:36Z</time>
      </trkpt>
      <trkpt lat="42.6671986654" lon="0.2972280700">
        <ele>2218.38</ele>
        <time>2022-07-09T15:30:45Z</time>
      </trkpt>
      <trkpt lat="42.6672898605" lon="0.2970224619">
        <ele>2220.30</ele>
        <time>2022-07-09T15:31:01Z</time>
      </trkpt>
      <trkpt lat="42.6673668064" lon="0.2968868427">
        <ele>2222.71</ele>
        <time>2022-07-09T15:31:15Z</time>
      </trkpt>
      <trkpt lat="42.6673724223" lon="0.2968711685">
        <ele>2222.71</ele>
        <time>2022-07-09T15:31:16Z</time>
      </trkpt>
      <trkpt lat="42.6673804689" lon="0.2968406584">
        <ele>2224.63</ele>
        <time>2022-07-09T15:31:18Z</time>
      </trkpt>
      <trkpt lat="42.6674103085" lon="0.2967900317">
        <ele>2223.19</ele>
        <time>2022-07-09T15:31:23Z</time>
      </trkpt>
      <trkpt lat="42.6674624439" lon="0.2967114933">
        <ele>2223.19</ele>
        <time>2022-07-09T15:31:31Z</time>
      </trkpt>
      <trkpt lat="42.6674689818" lon="0.2966810670">
        <ele>2225.11</ele>
        <time>2022-07-09T15:31:33Z</time>
      </trkpt>
      <trkpt lat="42.6675172616" lon="0.2965836693">
        <ele>2223.19</ele>
        <time>2022-07-09T15:31:42Z</time>
      </trkpt>
      <trkpt lat="42.6675415691" lon="0.2965646423">
        <ele>2223.19</ele>
        <time>2022-07-09T15:31:45Z</time>
      </trkpt>
      <trkpt lat="42.6675831433" lon="0.2964983415">
        <ele>2225.11</ele>
        <time>2022-07-09T15:31:51Z</time>
      </trkpt>
      <trkpt lat="42.6676024217" lon="0.2964746207">
        <ele>2223.67</ele>
        <time>2022-07-09T15:31:54Z</time>
      </trkpt>
      <trkpt lat="42.6676423196" lon="0.2964399196">
        <ele>2225.11</ele>
        <time>2022-07-09T15:31:59Z</time>
      </trkpt>
      <trkpt lat="42.6676956285" lon="0.2963908017">
        <ele>2226.55</ele>
        <time>2022-07-09T15:32:07Z</time>
      </trkpt>
      <trkpt lat="42.6677051000" lon="0.2963478025">
        <ele>2228.47</ele>
        <time>2022-07-09T15:32:10Z</time>
      </trkpt>
      <trkpt lat="42.6677201036" lon="0.2963021211">
        <ele>2228.95</ele>
        <time>2022-07-09T15:32:14Z</time>
      </trkpt>
      <trkpt lat="42.6677468419" lon="0.2961609699">
        <ele>2231.84</ele>
        <time>2022-07-09T15:32:26Z</time>
      </trkpt>
      <trkpt lat="42.6677268092" lon="0.2960636560">
        <ele>2230.40</ele>
        <time>2022-07-09T15:32:31Z</time>
      </trkpt>
      <trkpt lat="42.6677434053" lon="0.2959125303">
        <ele>2230.88</ele>
        <time>2022-07-09T15:32:40Z</time>
      </trkpt>
      <trkpt lat="42.6677766815" lon="0.2957120351">
        <ele>2230.88</ele>
        <time>2022-07-09T15:32:54Z</time>
      </trkpt>
      <trkpt lat="42.6678101253" lon="0.2955539525">
        <ele>2231.84</ele>
        <time>2022-07-09T15:33:07Z</time>
      </trkpt>
      <trkpt lat="42.6678208541" lon="0.2953398786">
        <ele>2235.68</ele>
        <time>2022-07-09T15:33:21Z</time>
      </trkpt>
      <trkpt lat="42.6678201836" lon="0.2951346058">
        <ele>2237.61</ele>
        <time>2022-07-09T15:33:35Z</time>
      </trkpt>
      <trkpt lat="42.6678340137" lon="0.2949925326">
        <ele>2239.05</ele>
        <time>2022-07-09T15:33:47Z</time>
      </trkpt>
      <trkpt lat="42.6678694692" lon="0.2948599309">
        <ele>2242.41</ele>
        <time>2022-07-09T15:34:00Z</time>
      </trkpt>
      <trkpt lat="42.6678689662" lon="0.2948170993">
        <ele>2243.85</ele>
        <time>2022-07-09T15:34:04Z</time>
      </trkpt>
      <trkpt lat="42.6678505260" lon="0.2947486192">
        <ele>2242.41</ele>
        <time>2022-07-09T15:34:09Z</time>
      </trkpt>
      <trkpt lat="42.6678490173" lon="0.2947171032">
        <ele>2244.33</ele>
        <time>2022-07-09T15:34:11Z</time>
      </trkpt>
      <trkpt lat="42.6678496879" lon="0.2946727630">
        <ele>2245.30</ele>
        <time>2022-07-09T15:34:14Z</time>
      </trkpt>
      <trkpt lat="42.6678691339" lon="0.2945420053">
        <ele>2245.30</ele>
        <time>2022-07-09T15:34:24Z</time>
      </trkpt>
      <trkpt lat="42.6679176651" lon="0.2943494730">
        <ele>2247.22</ele>
        <time>2022-07-09T15:34:39Z</time>
      </trkpt>
      <trkpt lat="42.6679602452" lon="0.2941482235">
        <ele>2249.62</ele>
        <time>2022-07-09T15:34:55Z</time>
      </trkpt>
      <trkpt lat="42.6679972932" lon="0.2939229179">
        <ele>2248.66</ele>
        <time>2022-07-09T15:35:08Z</time>
      </trkpt>
      <trkpt lat="42.6680096146" lon="0.2938332316">
        <ele>2250.58</ele>
        <time>2022-07-09T15:35:14Z</time>
      </trkpt>
      <trkpt lat="42.6680764183" lon="0.2936180681">
        <ele>2252.03</ele>
        <time>2022-07-09T15:35:31Z</time>
      </trkpt>
      <trkpt lat="42.6681246143" lon="0.2934498433">
        <ele>2254.43</ele>
        <time>2022-07-09T15:35:43Z</time>
      </trkpt>
      <trkpt lat="42.6681728102" lon="0.2933055069">
        <ele>2255.87</ele>
        <time>2022-07-09T15:35:54Z</time>
      </trkpt>
      <trkpt lat="42.6681991294" lon="0.2932476718">
        <ele>2255.87</ele>
        <time>2022-07-09T15:35:59Z</time>
      </trkpt>
      <trkpt lat="42.6682168152" lon="0.2932120487">
        <ele>2253.95</ele>
        <time>2022-07-09T15:36:02Z</time>
      </trkpt>
      <trkpt lat="42.6682500076" lon="0.2929860726">
        <ele>2254.91</ele>
        <time>2022-07-09T15:36:16Z</time>
      </trkpt>
      <trkpt lat="42.6682629157" lon="0.2929234598">
        <ele>2256.35</ele>
        <time>2022-07-09T15:36:22Z</time>
      </trkpt>
      <trkpt lat="42.6682837028" lon="0.2928114776">
        <ele>2259.24</ele>
        <time>2022-07-09T15:36:32Z</time>
      </trkpt>
      <trkpt lat="42.6682861336" lon="0.2927986532">
        <ele>2259.24</ele>
        <time>2022-07-09T15:36:33Z</time>
      </trkpt>
      <trkpt lat="42.6682854630" lon="0.2925951406">
        <ele>2260.20</ele>
        <time>2022-07-09T15:36:47Z</time>
      </trkpt>
      <trkpt lat="42.6682916656" lon="0.2925383952">
        <ele>2263.08</ele>
        <time>2022-07-09T15:36:52Z</time>
      </trkpt>
      <trkpt lat="42.6683510933" lon="0.2923798095">
        <ele>2262.12</ele>
        <time>2022-07-09T15:37:04Z</time>
      </trkpt>
      <trkpt lat="42.6684164722" lon="0.2922314499">
        <ele>2265.48</ele>
        <time>2022-07-09T15:37:18Z</time>
      </trkpt>
      <trkpt lat="42.6684303023" lon="0.2921800688">
        <ele>2265.48</ele>
        <time>2022-07-09T15:37:22Z</time>
      </trkpt>
      <trkpt lat="42.6684389357" lon="0.2921582758">
        <ele>2264.04</ele>
        <time>2022-07-09T15:37:24Z</time>
      </trkpt>
      <trkpt lat="42.6684645005" lon="0.2921080682">
        <ele>2265.48</ele>
        <time>2022-07-09T15:37:29Z</time>
      </trkpt>
      <trkpt lat="42.6684907358" lon="0.2920425218">
        <ele>2267.89</ele>
        <time>2022-07-09T15:37:35Z</time>
      </trkpt>
      <trkpt lat="42.6685233414" lon="0.2918746322">
        <ele>2269.81</ele>
        <time>2022-07-09T15:37:51Z</time>
      </trkpt>
      <trkpt lat="42.6685635746" lon="0.2918043919">
        <ele>2273.17</ele>
        <time>2022-07-09T15:38:06Z</time>
      </trkpt>
      <trkpt lat="42.6686036400" lon="0.2917120233">
        <ele>2274.62</ele>
        <time>2022-07-09T15:38:18Z</time>
      </trkpt>
      <trkpt lat="42.6686221641" lon="0.2916463092">
        <ele>2274.62</ele>
        <time>2022-07-09T15:38:23Z</time>
      </trkpt>
      <trkpt lat="42.6686460525" lon="0.2916143741">
        <ele>2274.62</ele>
        <time>2022-07-09T15:38:26Z</time>
      </trkpt>
      <trkpt lat="42.6686521713" lon="0.2915401943">
        <ele>2273.17</ele>
        <time>2022-07-09T15:38:36Z</time>
      </trkpt>
      <trkpt lat="42.6686614752" lon="0.2914453112">
        <ele>2276.54</ele>
        <time>2022-07-09T15:38:45Z</time>
      </trkpt>
      <trkpt lat="42.6686587930" lon="0.2914351691">
        <ele>2276.54</ele>
        <time>2022-07-09T15:38:46Z</time>
      </trkpt>
      <trkpt lat="42.6686863694" lon="0.2913214266">
        <ele>2278.94</ele>
        <time>2022-07-09T15:39:01Z</time>
      </trkpt>
      <trkpt lat="42.6686505787" lon="0.2912420500">
        <ele>2279.90</ele>
        <time>2022-07-09T15:39:13Z</time>
      </trkpt>
      <trkpt lat="42.6686129440" lon="0.2911785152">
        <ele>2280.38</ele>
        <time>2022-07-09T15:39:21Z</time>
      </trkpt>
      <trkpt lat="42.6686057355" lon="0.2911258768">
        <ele>2281.83</ele>
        <time>2022-07-09T15:39:28Z</time>
      </trkpt>
      <trkpt lat="42.6686145365" lon="0.2910558041">
        <ele>2284.23</ele>
        <time>2022-07-09T15:39:39Z</time>
      </trkpt>
      <trkpt lat="42.6685839426" lon="0.2910481766">
        <ele>2285.19</ele>
        <time>2022-07-09T15:39:45Z</time>
      </trkpt>
      <trkpt lat="42.6685343217" lon="0.2910231147">
        <ele>2289.04</ele>
        <time>2022-07-09T15:39:56Z</time>
      </trkpt>
      <trkpt lat="42.6684867125" lon="0.2909776848">
        <ele>2291.44</ele>
        <time>2022-07-09T15:40:10Z</time>
      </trkpt>
      <trkpt lat="42.6685410272" lon="0.2909037564">
        <ele>2294.32</ele>
        <time>2022-07-09T15:40:23Z</time>
      </trkpt>
      <trkpt lat="42.6686184760" lon="0.2908470109">
        <ele>2297.21</ele>
        <time>2022-07-09T15:40:38Z</time>
      </trkpt>
      <trkpt lat="42.6686390955" lon="0.2908304986">
        <ele>2299.13</ele>
        <time>2022-07-09T15:40:43Z</time>
      </trkpt>
      <trkpt lat="42.6686283667" lon="0.2907381300">
        <ele>2302.01</ele>
        <time>2022-07-09T15:40:56Z</time>
      </trkpt>
      <trkpt lat="42.6686312165" lon="0.2907052729">
        <ele>2305.86</ele>
        <time>2022-07-09T15:41:00Z</time>
      </trkpt>
      <trkpt lat="42.6686307974" lon="0.2906978130">
        <ele>2305.86</ele>
        <time>2022-07-09T15:41:01Z</time>
      </trkpt>
      <trkpt lat="42.6686234213" lon="0.2906051092">
        <ele>2307.78</ele>
        <time>2022-07-09T15:41:11Z</time>
      </trkpt>
      <trkpt lat="42.6686532609" lon="0.2904658020">
        <ele>2306.34</ele>
        <time>2022-07-09T15:41:26Z</time>
      </trkpt>
      <trkpt lat="42.6686531771" lon="0.2904704958">
        <ele>2306.34</ele>
        <time>2022-07-09T15:41:27Z</time>
      </trkpt>
      <trkpt lat="42.6686508302" lon="0.2904678136">
        <ele>2304.90</ele>
        <time>2022-07-09T15:41:30Z</time>
      </trkpt>
      <trkpt lat="42.6686354913" lon="0.2904537320">
        <ele>2303.46</ele>
        <time>2022-07-09T15:41:32Z</time>
      </trkpt>
      <trkpt lat="42.6685907319" lon="0.2903276682">
        <ele>2304.90</ele>
        <time>2022-07-09T15:41:40Z</time>
      </trkpt>
      <trkpt lat="42.6685861219" lon="0.2902939729">
        <ele>2303.46</ele>
        <time>2022-07-09T15:41:42Z</time>
      </trkpt>
      <trkpt lat="42.6685800031" lon="0.2901689988">
        <ele>2302.01</ele>
        <time>2022-07-09T15:41:50Z</time>
      </trkpt>
      <trkpt lat="42.6685285382" lon="0.2898795716">
        <ele>2299.61</ele>
        <time>2022-07-09T15:42:06Z</time>
      </trkpt>
      <trkpt lat="42.6684864610" lon="0.2896509133">
        <ele>2300.09</ele>
        <time>2022-07-09T15:42:19Z</time>
      </trkpt>
      <trkpt lat="42.6684824377" lon="0.2894471493">
        <ele>2300.09</ele>
        <time>2022-07-09T15:42:32Z</time>
      </trkpt>
      <trkpt lat="42.6684554480" lon="0.2892202511">
        <ele>2300.09</ele>
        <time>2022-07-09T15:42:45Z</time>
      </trkpt>
      <trkpt lat="42.6684530172" lon="0.2892058343">
        <ele>2300.09</ele>
        <time>2022-07-09T15:42:46Z</time>
      </trkpt>
      <trkpt lat="42.6684604771" lon="0.2890912537">
        <ele>2301.53</ele>
        <time>2022-07-09T15:42:54Z</time>
      </trkpt>
      <trkpt lat="42.6684789173" lon="0.2888467535">
        <ele>2303.46</ele>
        <time>2022-07-09T15:43:10Z</time>
      </trkpt>
      <trkpt lat="42.6685069129" lon="0.2887830511">
        <ele>2305.86</ele>
        <time>2022-07-09T15:43:16Z</time>
      </trkpt>
      <trkpt lat="42.6685525943" lon="0.2886626869">
        <ele>2302.01</ele>
        <time>2022-07-09T15:43:25Z</time>
      </trkpt>
      <trkpt lat="42.6685507502" lon="0.2886362001">
        <ele>2301.05</ele>
        <time>2022-07-09T15:43:27Z</time>
      </trkpt>
      <trkpt lat="42.6685331482" lon="0.2886175085">
        <ele>2305.38</ele>
        <time>2022-07-09T15:43:30Z</time>
      </trkpt>
      <trkpt lat="42.6685259398" lon="0.2886242140">
        <ele>2305.38</ele>
        <time>2022-07-09T15:43:31Z</time>
      </trkpt>
      <trkpt lat="42.6685151272" lon="0.2886582445">
        <ele>2303.94</ele>
        <time>2022-07-09T15:43:36Z</time>
      </trkpt>
      <trkpt lat="42.6685081702" lon="0.2886253875">
        <ele>2302.98</ele>
        <time>2022-07-09T15:44:05Z</time>
      </trkpt>
      <trkpt lat="42.6685104333" lon="0.2886140719">
        <ele>2302.98</ele>
        <time>2022-07-09T15:44:06Z</time>
      </trkpt>
      <trkpt lat="42.6685086731" lon="0.2885893453">
        <ele>2302.98</ele>
        <time>2022-07-09T15:44:08Z</time>
      </trkpt>
      <trkpt lat="42.6684791688" lon="0.2885486931">
        <ele>2305.38</ele>
        <time>2022-07-09T15:44:12Z</time>
      </trkpt>
      <trkpt lat="42.6683727186" lon="0.2884833142">
        <ele>2306.34</ele>
        <time>2022-07-09T15:44:24Z</time>
      </trkpt>
      <trkpt lat="42.6683448069" lon="0.2884267364">
        <ele>2306.82</ele>
        <time>2022-07-09T15:44:32Z</time>
      </trkpt>
      <trkpt lat="42.6683497522" lon="0.2883637883">
        <ele>2305.86</ele>
        <time>2022-07-09T15:44:37Z</time>
      </trkpt>
      <trkpt lat="42.6684056595" lon="0.2882869262">
        <ele>2308.74</ele>
        <time>2022-07-09T15:44:47Z</time>
      </trkpt>
      <trkpt lat="42.6684204955" lon="0.2882718388">
        <ele>2309.22</ele>
        <time>2022-07-09T15:44:49Z</time>
      </trkpt>
      <trkpt lat="42.6684368402" lon="0.2882508002">
        <ele>2309.22</ele>
        <time>2022-07-09T15:44:51Z</time>
      </trkpt>
      <trkpt lat="42.6684608124" lon="0.2880061325">
        <ele>2310.19</ele>
        <time>2022-07-09T15:45:08Z</time>
      </trkpt>
      <trkpt lat="42.6684641652" lon="0.2878957428">
        <ele>2311.63</ele>
        <time>2022-07-09T15:45:15Z</time>
      </trkpt>
      <trkpt lat="42.6684313919" lon="0.2878228202">
        <ele>2311.63</ele>
        <time>2022-07-09T15:45:20Z</time>
      </trkpt>
      <trkpt lat="42.6683948468" lon="0.2877917234">
        <ele>2312.59</ele>
        <time>2022-07-09T15:45:24Z</time>
      </trkpt>
      <trkpt lat="42.6682409551" lon="0.2878558449">
        <ele>2314.51</ele>
        <time>2022-07-09T15:45:39Z</time>
      </trkpt>
      <trkpt lat="42.6681896579" lon="0.2879860997">
        <ele>2315.47</ele>
        <time>2022-07-09T15:45:50Z</time>
      </trkpt>
      <trkpt lat="42.6680920925" lon="0.2880982496">
        <ele>2318.84</ele>
        <time>2022-07-09T15:46:04Z</time>
      </trkpt>
      <trkpt lat="42.6679519471" lon="0.2881318610">
        <ele>2320.28</ele>
        <time>2022-07-09T15:46:19Z</time>
      </trkpt>
      <trkpt lat="42.6678891666" lon="0.2881456073">
        <ele>2321.24</ele>
        <time>2022-07-09T15:46:26Z</time>
      </trkpt>
      <trkpt lat="42.6677530445" lon="0.2881446853">
        <ele>2322.68</ele>
        <time>2022-07-09T15:46:40Z</time>
      </trkpt>
      <trkpt lat="42.6676196884" lon="0.2881549112">
        <ele>2324.61</ele>
        <time>2022-07-09T15:46:53Z</time>
      </trkpt>
      <trkpt lat="42.6674677245" lon="0.2881656401">
        <ele>2327.97</ele>
        <time>2022-07-09T15:47:09Z</time>
      </trkpt>
      <trkpt lat="42.6673482824" lon="0.2881534863">
        <ele>2330.37</ele>
        <time>2022-07-09T15:47:23Z</time>
      </trkpt>
      <trkpt lat="42.6673320215" lon="0.2880943101">
        <ele>2330.37</ele>
        <time>2022-07-09T15:47:27Z</time>
      </trkpt>
      <trkpt lat="42.6673169341" lon="0.2878957428">
        <ele>2331.33</ele>
        <time>2022-07-09T15:47:41Z</time>
      </trkpt>
      <trkpt lat="42.6673360448" lon="0.2876471356">
        <ele>2333.26</ele>
        <time>2022-07-09T15:47:58Z</time>
      </trkpt>
      <trkpt lat="42.6672524773" lon="0.2874360792">
        <ele>2335.18</ele>
        <time>2022-07-09T15:48:14Z</time>
      </trkpt>
      <trkpt lat="42.6671840809" lon="0.2872284595">
        <ele>2337.58</ele>
        <time>2022-07-09T15:48:30Z</time>
      </trkpt>
      <trkpt lat="42.6671829913" lon="0.2872166410">
        <ele>2337.58</ele>
        <time>2022-07-09T15:48:31Z</time>
      </trkpt>
      <trkpt lat="42.6671837457" lon="0.2871902380">
        <ele>2338.06</ele>
        <time>2022-07-09T15:48:33Z</time>
      </trkpt>
      <trkpt lat="42.6671800576" lon="0.2871641703">
        <ele>2338.06</ele>
        <time>2022-07-09T15:48:35Z</time>
      </trkpt>
      <trkpt lat="42.6672097296" lon="0.2869835403">
        <ele>2339.99</ele>
        <time>2022-07-09T15:48:50Z</time>
      </trkpt>
      <trkpt lat="42.6672642119" lon="0.2868195064">
        <ele>2342.87</ele>
        <time>2022-07-09T15:49:05Z</time>
      </trkpt>
      <trkpt lat="42.6673331112" lon="0.2867794409">
        <ele>2343.35</ele>
        <time>2022-07-09T15:49:11Z</time>
      </trkpt>
      <trkpt lat="42.6675447542" lon="0.2866315842">
        <ele>2343.83</ele>
        <time>2022-07-09T15:49:30Z</time>
      </trkpt>
      <trkpt lat="42.6676600054" lon="0.2864586655">
        <ele>2345.75</ele>
        <time>2022-07-09T15:49:46Z</time>
      </trkpt>
      <trkpt lat="42.6678068563" lon="0.2863010019">
        <ele>2345.27</ele>
        <time>2022-07-09T15:50:01Z</time>
      </trkpt>
      <trkpt lat="42.6678376179" lon="0.2862766106">
        <ele>2346.72</ele>
        <time>2022-07-09T15:50:04Z</time>
      </trkpt>
      <trkpt lat="42.6679474209" lon="0.2861495409">
        <ele>2346.72</ele>
        <time>2022-07-09T15:50:18Z</time>
      </trkpt>
      <trkpt lat="42.6679501031" lon="0.2861275803">
        <ele>2346.23</ele>
        <time>2022-07-09T15:50:20Z</time>
      </trkpt>
      <trkpt lat="42.6679487620" lon="0.2860968187">
        <ele>2347.68</ele>
        <time>2022-07-09T15:50:22Z</time>
      </trkpt>
      <trkpt lat="42.6679371949" lon="0.2860738523">
        <ele>2349.12</ele>
        <time>2022-07-09T15:50:24Z</time>
      </trkpt>
      <trkpt lat="42.6677896734" lon="0.2859876025">
        <ele>2350.56</ele>
        <time>2022-07-09T15:50:39Z</time>
      </trkpt>
      <trkpt lat="42.6677123923" lon="0.2859891113">
        <ele>2352.48</ele>
        <time>2022-07-09T15:50:46Z</time>
      </trkpt>
      <trkpt lat="42.6675512921" lon="0.2859656420">
        <ele>2353.44</ele>
        <time>2022-07-09T15:51:00Z</time>
      </trkpt>
      <trkpt lat="42.6674820576" lon="0.2859418374">
        <ele>2353.93</ele>
        <time>2022-07-09T15:51:07Z</time>
      </trkpt>
      <trkpt lat="42.6673285011" lon="0.2857660688">
        <ele>2353.93</ele>
        <time>2022-07-09T15:51:23Z</time>
      </trkpt>
      <trkpt lat="42.6672749408" lon="0.2857181244">
        <ele>2353.93</ele>
        <time>2022-07-09T15:51:28Z</time>
      </trkpt>
      <trkpt lat="42.6671093144" lon="0.2855700999">
        <ele>2354.41</ele>
        <time>2022-07-09T15:51:43Z</time>
      </trkpt>
      <trkpt lat="42.6669343840" lon="0.2854572795">
        <ele>2355.37</ele>
        <time>2022-07-09T15:51:59Z</time>
      </trkpt>
      <trkpt lat="42.6667717751" lon="0.2854493167">
        <ele>2357.29</ele>
        <time>2022-07-09T15:52:13Z</time>
      </trkpt>
      <trkpt lat="42.6666998584" lon="0.2853797469">
        <ele>2358.25</ele>
        <time>2022-07-09T15:52:21Z</time>
      </trkpt>
      <trkpt lat="42.6666661631" lon="0.2854414377">
        <ele>2359.21</ele>
        <time>2022-07-09T15:52:26Z</time>
      </trkpt>
      <trkpt lat="42.6666094176" lon="0.2855171263">
        <ele>2357.77</ele>
        <time>2022-07-09T15:52:31Z</time>
      </trkpt>
      <trkpt lat="42.6666038856" lon="0.2855456248">
        <ele>2357.29</ele>
        <time>2022-07-09T15:52:42Z</time>
      </trkpt>
      <trkpt lat="42.6666050591" lon="0.2854821738">
        <ele>2355.85</ele>
        <time>2022-07-09T15:52:46Z</time>
      </trkpt>
      <trkpt lat="42.6666283607" lon="0.2854260150">
        <ele>2357.77</ele>
        <time>2022-07-09T15:52:51Z</time>
      </trkpt>
      <trkpt lat="42.6666666660" lon="0.2852461394">
        <ele>2357.77</ele>
        <time>2022-07-09T15:53:02Z</time>
      </trkpt>
      <trkpt lat="42.6665511634" lon="0.2850720473">
        <ele>2357.77</ele>
        <time>2022-07-09T15:53:14Z</time>
      </trkpt>
      <trkpt lat="42.6665432844" lon="0.2850180678">
        <ele>2357.77</ele>
        <time>2022-07-09T15:53:17Z</time>
      </trkpt>
      <trkpt lat="42.6664908137" lon="0.2847742382">
        <ele>2358.25</ele>
        <time>2022-07-09T15:53:32Z</time>
      </trkpt>
      <trkpt lat="42.6664829347" lon="0.2847197559">
        <ele>2359.21</ele>
        <time>2022-07-09T15:53:37Z</time>
      </trkpt>
      <trkpt lat="42.6665515825" lon="0.2845776826">
        <ele>2362.58</ele>
        <time>2022-07-09T15:53:51Z</time>
      </trkpt>
      <trkpt lat="42.6665913127" lon="0.2844567318">
        <ele>2365.46</ele>
        <time>2022-07-09T15:54:03Z</time>
      </trkpt>
      <trkpt lat="42.6665276941" lon="0.2842869144">
        <ele>2365.94</ele>
        <time>2022-07-09T15:54:17Z</time>
      </trkpt>
      <trkpt lat="42.6665415242" lon="0.2843752597">
        <ele>2365.94</ele>
        <time>2022-07-09T15:54:36Z</time>
      </trkpt>
      <trkpt lat="42.6665206533" lon="0.2844074462">
        <ele>2364.50</ele>
        <time>2022-07-09T15:54:40Z</time>
      </trkpt>
      <trkpt lat="42.6664714515" lon="0.2844322566">
        <ele>2362.58</ele>
        <time>2022-07-09T15:54:45Z</time>
      </trkpt>
      <trkpt lat="42.6664377563" lon="0.2845161594">
        <ele>2361.62</ele>
        <time>2022-07-09T15:54:51Z</time>
      </trkpt>
      <trkpt lat="42.6663332339" lon="0.2845974639">
        <ele>2358.25</ele>
        <time>2022-07-09T15:55:03Z</time>
      </trkpt>
      <trkpt lat="42.6663076691" lon="0.2846097853">
        <ele>2357.77</ele>
        <time>2022-07-09T15:55:05Z</time>
      </trkpt>
      <trkpt lat="42.6661836170" lon="0.2846464142">
        <ele>2355.37</ele>
        <time>2022-07-09T15:55:15Z</time>
      </trkpt>
      <trkpt lat="42.6661465690" lon="0.2846682072">
        <ele>2354.89</ele>
        <time>2022-07-09T15:55:19Z</time>
      </trkpt>
      <trkpt lat="42.6661338285" lon="0.2847408783">
        <ele>2354.89</ele>
        <time>2022-07-09T15:55:23Z</time>
      </trkpt>
      <trkpt lat="42.6661267877" lon="0.2847986296">
        <ele>2354.41</ele>
        <time>2022-07-09T15:55:26Z</time>
      </trkpt>
      <trkpt lat="42.6660634205" lon="0.2849034872">
        <ele>2351.52</ele>
        <time>2022-07-09T15:55:35Z</time>
      </trkpt>
      <trkpt lat="42.6660620794" lon="0.2849832829">
        <ele>2351.04</ele>
        <time>2022-07-09T15:55:40Z</time>
      </trkpt>
      <trkpt lat="42.6660536975" lon="0.2849969454">
        <ele>2350.08</ele>
        <time>2022-07-09T15:55:42Z</time>
      </trkpt>
      <trkpt lat="42.6659505162" lon="0.2850448061">
        <ele>2347.68</ele>
        <time>2022-07-09T15:55:53Z</time>
      </trkpt>
      <trkpt lat="42.6658917591" lon="0.2850983664">
        <ele>2346.72</ele>
        <time>2022-07-09T15:56:00Z</time>
      </trkpt>
      <trkpt lat="42.6658281405" lon="0.2852023859">
        <ele>2343.35</ele>
        <time>2022-07-09T15:56:13Z</time>
      </trkpt>
      <trkpt lat="42.6657886617" lon="0.2852546889">
        <ele>2340.47</ele>
        <time>2022-07-09T15:56:23Z</time>
      </trkpt>
      <trkpt lat="42.6657774299" lon="0.2852602210">
        <ele>2339.99</ele>
        <time>2022-07-09T15:56:25Z</time>
      </trkpt>
      <trkpt lat="42.6656978019" lon="0.2853175532">
        <ele>2337.58</ele>
        <time>2022-07-09T15:56:34Z</time>
      </trkpt>
      <trkpt lat="42.6656591613" lon="0.2853686828">
        <ele>2336.14</ele>
        <time>2022-07-09T15:56:40Z</time>
      </trkpt>
      <trkpt lat="42.6655922737" lon="0.2854661644">
        <ele>2333.26</ele>
        <time>2022-07-09T15:56:50Z</time>
      </trkpt>
      <trkpt lat="42.6655886695" lon="0.2854764741">
        <ele>2333.26</ele>
        <time>2022-07-09T15:56:51Z</time>
      </trkpt>
      <trkpt lat="42.6655541360" lon="0.2855224907">
        <ele>2332.30</ele>
        <time>2022-07-09T15:56:55Z</time>
      </trkpt>
      <trkpt lat="42.6655362826" lon="0.2855683398">
        <ele>2332.30</ele>
        <time>2022-07-09T15:56:58Z</time>
      </trkpt>
      <trkpt lat="42.6655527949" lon="0.2857999317">
        <ele>2330.85</ele>
        <time>2022-07-09T15:57:12Z</time>
      </trkpt>
      <trkpt lat="42.6655688044" lon="0.2859922964">
        <ele>2329.89</ele>
        <time>2022-07-09T15:57:26Z</time>
      </trkpt>
      <trkpt lat="42.6655397192" lon="0.2859829087">
        <ele>2329.89</ele>
        <time>2022-07-09T15:57:37Z</time>
      </trkpt>
      <trkpt lat="42.6655402221" lon="0.2859710902">
        <ele>2329.89</ele>
        <time>2022-07-09T15:57:40Z</time>
      </trkpt>
      <trkpt lat="42.6654819679" lon="0.2858536597">
        <ele>2329.41</ele>
        <time>2022-07-09T15:57:51Z</time>
      </trkpt>
      <trkpt lat="42.6653341111" lon="0.2859285939">
        <ele>2328.93</ele>
        <time>2022-07-09T15:58:05Z</time>
      </trkpt>
      <trkpt lat="42.6653515454" lon="0.2859760355">
        <ele>2328.93</ele>
        <time>2022-07-09T15:58:22Z</time>
      </trkpt>
      <trkpt lat="42.6660453156" lon="0.2874199022">
        <ele>2388.53</ele>
        <time>2022-07-10T06:54:43Z</time>
      </trkpt>
      <trkpt lat="42.6660507638" lon="0.2874225006">
        <ele>2388.53</ele>
        <time>2022-07-10T06:54:44Z</time>
      </trkpt>
      <trkpt lat="42.6660681143" lon="0.2874321397">
        <ele>2344.79</ele>
        <time>2022-07-10T06:54:47Z</time>
      </trkpt>
      <trkpt lat="42.6660712156" lon="0.2874302119">
        <ele>2344.79</ele>
        <time>2022-07-10T06:54:48Z</time>
      </trkpt>
      <trkpt lat="42.6661075931" lon="0.2874011267">
        <ele>2345.75</ele>
        <time>2022-07-10T06:54:54Z</time>
      </trkpt>
      <trkpt lat="42.6662541926" lon="0.2873134520">
        <ele>2345.75</ele>
        <time>2022-07-10T06:55:09Z</time>
      </trkpt>
      <trkpt lat="42.6662707888" lon="0.2873032261">
        <ele>2345.75</ele>
        <time>2022-07-10T06:55:11Z</time>
      </trkpt>
      <trkpt lat="42.6663711201" lon="0.2872696146">
        <ele>2346.72</ele>
        <time>2022-07-10T06:55:24Z</time>
      </trkpt>
      <trkpt lat="42.6664291229" lon="0.2872171439">
        <ele>2347.20</ele>
        <time>2022-07-10T06:55:30Z</time>
      </trkpt>
      <trkpt lat="42.6664576214" lon="0.2871866338">
        <ele>2348.16</ele>
        <time>2022-07-10T06:55:33Z</time>
      </trkpt>
      <trkpt lat="42.6666055620" lon="0.2871980332">
        <ele>2350.08</ele>
        <time>2022-07-10T06:55:48Z</time>
      </trkpt>
      <trkpt lat="42.6667514071" lon="0.2872065827">
        <ele>2350.56</ele>
        <time>2022-07-10T06:56:00Z</time>
      </trkpt>
      <trkpt lat="42.6668205578" lon="0.2870650962">
        <ele>2351.04</ele>
        <time>2022-07-10T06:56:12Z</time>
      </trkpt>
      <trkpt lat="42.6668389142" lon="0.2870609891">
        <ele>2350.08</ele>
        <time>2022-07-10T06:56:14Z</time>
      </trkpt>
      <trkpt lat="42.6669110823" lon="0.2871396113">
        <ele>2349.60</ele>
        <time>2022-07-10T06:56:22Z</time>
      </trkpt>
      <trkpt lat="42.6670068875" lon="0.2872047387">
        <ele>2348.64</ele>
        <time>2022-07-10T06:56:31Z</time>
      </trkpt>
      <trkpt lat="42.6671085600" lon="0.2873649169">
        <ele>2348.16</ele>
        <time>2022-07-10T06:56:45Z</time>
      </trkpt>
      <trkpt lat="42.6671157684" lon="0.2874195669">
        <ele>2348.16</ele>
        <time>2022-07-10T06:56:49Z</time>
      </trkpt>
      <trkpt lat="42.6671697479" lon="0.2875164617">
        <ele>2347.20</ele>
        <time>2022-07-10T06:56:57Z</time>
      </trkpt>
      <trkpt lat="42.6671684068" lon="0.2875434514">
        <ele>2346.72</ele>
        <time>2022-07-10T06:56:59Z</time>
      </trkpt>
      <trkpt lat="42.6672010124" lon="0.2876042202">
        <ele>2345.75</ele>
        <time>2022-07-10T06:57:04Z</time>
      </trkpt>
      <trkpt lat="42.6672181953" lon="0.2876188047">
        <ele>2345.75</ele>
        <time>2022-07-10T06:57:06Z</time>
      </trkpt>
      <trkpt lat="42.6672514714" lon="0.2876939904">
        <ele>2346.23</ele>
        <time>2022-07-10T06:57:11Z</time>
      </trkpt>
      <trkpt lat="42.6672729291" lon="0.2877496462">
        <ele>2346.23</ele>
        <time>2022-07-10T06:57:15Z</time>
      </trkpt>
      <trkpt lat="42.6673100609" lon="0.2878342196">
        <ele>2347.20</ele>
        <time>2022-07-10T06:57:21Z</time>
      </trkpt>
      <trkpt lat="42.6673351228" lon="0.2881105710">
        <ele>2347.20</ele>
        <time>2022-07-10T06:57:36Z</time>
      </trkpt>
      <trkpt lat="42.6673418283" lon="0.2881653886">
        <ele>2345.75</ele>
        <time>2022-07-10T06:57:39Z</time>
      </trkpt>
      <trkpt lat="42.6673834026" lon="0.2882640436">
        <ele>2344.79</ele>
        <time>2022-07-10T06:57:52Z</time>
      </trkpt>
      <trkpt lat="42.6673889346" lon="0.2882623672">
        <ele>2344.79</ele>
        <time>2022-07-10T06:58:22Z</time>
      </trkpt>
      <trkpt lat="42.6673968136" lon="0.2882477827">
        <ele>2344.79</ele>
        <time>2022-07-10T06:58:30Z</time>
      </trkpt>
      <trkpt lat="42.6676139887" lon="0.2882232238">
        <ele>2341.91</ele>
        <time>2022-07-10T06:58:47Z</time>
      </trkpt>
      <trkpt lat="42.6677929424" lon="0.2882349584">
        <ele>2339.51</ele>
        <time>2022-07-10T06:59:04Z</time>
      </trkpt>
      <trkpt lat="42.6677896734" lon="0.2882440947">
        <ele>2339.02</ele>
        <time>2022-07-10T06:59:05Z</time>
      </trkpt>
      <trkpt lat="42.6677625999" lon="0.2883134130">
        <ele>2337.58</ele>
        <time>2022-07-10T06:59:11Z</time>
      </trkpt>
      <trkpt lat="42.6677462552" lon="0.2883851621">
        <ele>2336.14</ele>
        <time>2022-07-10T06:59:16Z</time>
      </trkpt>
      <trkpt lat="42.6677874941" lon="0.2884797938">
        <ele>2333.74</ele>
        <time>2022-07-10T06:59:24Z</time>
      </trkpt>
      <trkpt lat="42.6679328363" lon="0.2884985693">
        <ele>2329.89</ele>
        <time>2022-07-10T06:59:37Z</time>
      </trkpt>
      <trkpt lat="42.6681326609" lon="0.2884472720">
        <ele>2326.53</ele>
        <time>2022-07-10T06:59:52Z</time>
      </trkpt>
      <trkpt lat="42.6681595668" lon="0.2884320170">
        <ele>2325.57</ele>
        <time>2022-07-10T06:59:56Z</time>
      </trkpt>
      <trkpt lat="42.6681737322" lon="0.2884205338">
        <ele>2325.57</ele>
        <time>2022-07-10T06:59:58Z</time>
      </trkpt>
      <trkpt lat="42.6683728024" lon="0.2885059454">
        <ele>2322.20</ele>
        <time>2022-07-10T07:00:15Z</time>
      </trkpt>
      <trkpt lat="42.6685556117" lon="0.2886136528">
        <ele>2319.32</ele>
        <time>2022-07-10T07:00:32Z</time>
      </trkpt>
      <trkpt lat="42.6685240958" lon="0.2886579931">
        <ele>2318.36</ele>
        <time>2022-07-10T07:00:47Z</time>
      </trkpt>
      <trkpt lat="42.6685379259" lon="0.2886934485">
        <ele>2318.36</ele>
        <time>2022-07-10T07:01:09Z</time>
      </trkpt>
      <trkpt lat="42.6685475651" lon="0.2886856534">
        <ele>2318.36</ele>
        <time>2022-07-10T07:01:21Z</time>
      </trkpt>
      <trkpt lat="42.6686102618" lon="0.2886436600">
        <ele>2318.36</ele>
        <time>2022-07-10T07:01:26Z</time>
      </trkpt>
      <trkpt lat="42.6688300353" lon="0.2885569073">
        <ele>2314.99</ele>
        <time>2022-07-10T07:01:43Z</time>
      </trkpt>
      <trkpt lat="42.6689716894" lon="0.2884537261">
        <ele>2312.11</ele>
        <time>2022-07-10T07:01:57Z</time>
      </trkpt>
      <trkpt lat="42.6689978410" lon="0.2884260658">
        <ele>2311.15</ele>
        <time>2022-07-10T07:02:00Z</time>
      </trkpt>
      <trkpt lat="42.6691025309" lon="0.2883558255">
        <ele>2307.78</ele>
        <time>2022-07-10T07:02:10Z</time>
      </trkpt>
      <trkpt lat="42.6691705920" lon="0.2882879321">
        <ele>2303.94</ele>
        <time>2022-07-10T07:02:21Z</time>
      </trkpt>
      <trkpt lat="42.6692065503" lon="0.2882364672">
        <ele>2302.01</ele>
        <time>2022-07-10T07:02:29Z</time>
      </trkpt>
      <trkpt lat="42.6692378148" lon="0.2881943062">
        <ele>2300.57</ele>
        <time>2022-07-10T07:02:34Z</time>
      </trkpt>
      <trkpt lat="42.6692716777" lon="0.2882186137">
        <ele>2299.61</ele>
        <time>2022-07-10T07:02:38Z</time>
      </trkpt>
      <trkpt lat="42.6693620346" lon="0.2882543206">
        <ele>2295.77</ele>
        <time>2022-07-10T07:02:51Z</time>
      </trkpt>
      <trkpt lat="42.6694014296" lon="0.2881881874">
        <ele>2293.84</ele>
        <time>2022-07-10T07:02:59Z</time>
      </trkpt>
      <trkpt lat="42.6694527268" lon="0.2882299293">
        <ele>2290.48</ele>
        <time>2022-07-10T07:03:07Z</time>
      </trkpt>
      <trkpt lat="42.6695200335" lon="0.2881802246">
        <ele>2287.59</ele>
        <time>2022-07-10T07:03:17Z</time>
      </trkpt>
      <trkpt lat="42.6696179342" lon="0.2882432565">
        <ele>2284.23</ele>
        <time>2022-07-10T07:03:28Z</time>
      </trkpt>
      <trkpt lat="42.6697319280" lon="0.2883116528">
        <ele>2280.38</ele>
        <time>2022-07-10T07:03:41Z</time>
      </trkpt>
      <trkpt lat="42.6698140707" lon="0.2883567475">
        <ele>2277.02</ele>
        <time>2022-07-10T07:03:53Z</time>
      </trkpt>
      <trkpt lat="42.6698258892" lon="0.2883176878">
        <ele>2276.06</ele>
        <time>2022-07-10T07:03:58Z</time>
      </trkpt>
      <trkpt lat="42.6698553935" lon="0.2882517222">
        <ele>2272.21</ele>
        <time>2022-07-10T07:04:09Z</time>
      </trkpt>
      <trkpt lat="42.6699301600" lon="0.2883282490">
        <ele>2270.29</ele>
        <time>2022-07-10T07:04:18Z</time>
      </trkpt>
      <trkpt lat="42.6699858159" lon="0.2883326076">
        <ele>2267.89</ele>
        <time>2022-07-10T07:04:27Z</time>
      </trkpt>
      <trkpt lat="42.6700092014" lon="0.2883220464">
        <ele>2267.41</ele>
        <time>2022-07-10T07:04:32Z</time>
      </trkpt>
      <trkpt lat="42.6701721456" lon="0.2884566598">
        <ele>2263.08</ele>
        <time>2022-07-10T07:04:47Z</time>
      </trkpt>
      <trkpt lat="42.6703129616" lon="0.2886470966">
        <ele>2260.68</ele>
        <time>2022-07-10T07:05:02Z</time>
      </trkpt>
      <trkpt lat="42.6703690365" lon="0.2887452487">
        <ele>2258.75</ele>
        <time>2022-07-10T07:05:10Z</time>
      </trkpt>
      <trkpt lat="42.6704438031" lon="0.2887556423">
        <ele>2257.31</ele>
        <time>2022-07-10T07:05:16Z</time>
      </trkpt>
      <trkpt lat="42.6705114450" lon="0.2887807880">
        <ele>2255.39</ele>
        <time>2022-07-10T07:05:22Z</time>
      </trkpt>
      <trkpt lat="42.6706966013" lon="0.2888966259">
        <ele>2252.51</ele>
        <time>2022-07-10T07:05:38Z</time>
      </trkpt>
      <trkpt lat="42.6708416920" lon="0.2889732365">
        <ele>2249.14</ele>
        <time>2022-07-10T07:05:49Z</time>
      </trkpt>
      <trkpt lat="42.6710105874" lon="0.2889695484">
        <ele>2246.26</ele>
        <time>2022-07-10T07:06:02Z</time>
      </trkpt>
      <trkpt lat="42.6710219029" lon="0.2889589034">
        <ele>2246.26</ele>
        <time>2022-07-10T07:06:03Z</time>
      </trkpt>
      <trkpt lat="42.6710607950" lon="0.2889413014">
        <ele>2245.30</ele>
        <time>2022-07-10T07:06:06Z</time>
      </trkpt>
      <trkpt lat="42.6711673290" lon="0.2888571471">
        <ele>2242.41</ele>
        <time>2022-07-10T07:06:15Z</time>
      </trkpt>
      <trkpt lat="42.6712378208" lon="0.2888075262">
        <ele>2240.49</ele>
        <time>2022-07-10T07:06:21Z</time>
      </trkpt>
      <trkpt lat="42.6712908782" lon="0.2887582406">
        <ele>2239.05</ele>
        <time>2022-07-10T07:06:26Z</time>
      </trkpt>
      <trkpt lat="42.6712966617" lon="0.2887128945">
        <ele>2238.57</ele>
        <time>2022-07-10T07:06:29Z</time>
      </trkpt>
      <trkpt lat="42.6711022016" lon="0.2887107991">
        <ele>2236.64</ele>
        <time>2022-07-10T07:06:43Z</time>
      </trkpt>
      <trkpt lat="42.6709808316" lon="0.2886856534">
        <ele>2234.72</ele>
        <time>2022-07-10T07:06:52Z</time>
      </trkpt>
      <trkpt lat="42.6709048916" lon="0.2885350306">
        <ele>2231.84</ele>
        <time>2022-07-10T07:07:04Z</time>
      </trkpt>
      <trkpt lat="42.6708764769" lon="0.2885005809">
        <ele>2230.88</ele>
        <time>2022-07-10T07:07:07Z</time>
      </trkpt>
      <trkpt lat="42.6708727051" lon="0.2884709928">
        <ele>2230.40</ele>
        <time>2022-07-10T07:07:09Z</time>
      </trkpt>
      <trkpt lat="42.6708614733" lon="0.2884388063">
        <ele>2230.40</ele>
        <time>2022-07-10T07:07:11Z</time>
      </trkpt>
      <trkpt lat="42.6708207373" lon="0.2882107347">
        <ele>2226.55</ele>
        <time>2022-07-10T07:07:24Z</time>
      </trkpt>
      <trkpt lat="42.6707763132" lon="0.2881431766">
        <ele>2225.59</ele>
        <time>2022-07-10T07:07:29Z</time>
      </trkpt>
      <trkpt lat="42.6707990281" lon="0.2881024405">
        <ele>2224.63</ele>
        <time>2022-07-10T07:07:32Z</time>
      </trkpt>
      <trkpt lat="42.6708462182" lon="0.2881083079">
        <ele>2223.67</ele>
        <time>2022-07-10T07:07:36Z</time>
      </trkpt>
      <trkpt lat="42.6709519140" lon="0.2881527320">
        <ele>2221.74</ele>
        <time>2022-07-10T07:07:45Z</time>
      </trkpt>
      <trkpt lat="42.6710707694" lon="0.2882096451">
        <ele>2219.34</ele>
        <time>2022-07-10T07:07:55Z</time>
      </trkpt>
      <trkpt lat="42.6711010281" lon="0.2882061247">
        <ele>2218.38</ele>
        <time>2022-07-10T07:07:58Z</time>
      </trkpt>
      <trkpt lat="42.6712475438" lon="0.2881383989">
        <ele>2215.50</ele>
        <time>2022-07-10T07:08:11Z</time>
      </trkpt>
      <trkpt lat="42.6713915449" lon="0.2880063001">
        <ele>2212.13</ele>
        <time>2022-07-10T07:08:23Z</time>
      </trkpt>
      <trkpt lat="42.6715549082" lon="0.2878750395">
        <ele>2208.29</ele>
        <time>2022-07-10T07:08:36Z</time>
      </trkpt>
      <trkpt lat="42.6716879290" lon="0.2878074814">
        <ele>2205.40</ele>
        <time>2022-07-10T07:08:46Z</time>
      </trkpt>
      <trkpt lat="42.6718063653" lon="0.2876804117">
        <ele>2202.04</ele>
        <time>2022-07-10T07:08:57Z</time>
      </trkpt>
      <trkpt lat="42.6719192695" lon="0.2875443734">
        <ele>2199.15</ele>
        <time>2022-07-10T07:09:08Z</time>
      </trkpt>
      <trkpt lat="42.6719631068" lon="0.2875078283">
        <ele>2198.19</ele>
        <time>2022-07-10T07:09:12Z</time>
      </trkpt>
      <trkpt lat="42.6720159128" lon="0.2874709480">
        <ele>2196.27</ele>
        <time>2022-07-10T07:09:17Z</time>
      </trkpt>
      <trkpt lat="42.6721901726" lon="0.2873505000">
        <ele>2192.42</ele>
        <time>2022-07-10T07:09:31Z</time>
      </trkpt>
      <trkpt lat="42.6723527815" lon="0.2872062474">
        <ele>2189.06</ele>
        <time>2022-07-10T07:09:44Z</time>
      </trkpt>
      <trkpt lat="42.6724786777" lon="0.2870970313">
        <ele>2185.69</ele>
        <time>2022-07-10T07:09:56Z</time>
      </trkpt>
      <trkpt lat="42.6726321504" lon="0.2869553771">
        <ele>2182.81</ele>
        <time>2022-07-10T07:10:10Z</time>
      </trkpt>
      <trkpt lat="42.6727569569" lon="0.2868635114">
        <ele>2179.45</ele>
        <time>2022-07-10T07:10:21Z</time>
      </trkpt>
      <trkpt lat="42.6728960127" lon="0.2867086977">
        <ele>2176.08</ele>
        <time>2022-07-10T07:10:35Z</time>
      </trkpt>
      <trkpt lat="42.6729812566" lon="0.2865503635">
        <ele>2173.20</ele>
        <time>2022-07-10T07:10:46Z</time>
      </trkpt>
      <trkpt lat="42.6730096713" lon="0.2865159139">
        <ele>2172.24</ele>
        <time>2022-07-10T07:10:50Z</time>
      </trkpt>
      <trkpt lat="42.6730635669" lon="0.2864207793">
        <ele>2170.31</ele>
        <time>2022-07-10T07:10:57Z</time>
      </trkpt>
      <trkpt lat="42.6730929036" lon="0.2863621898">
        <ele>2169.35</ele>
        <time>2022-07-10T07:11:01Z</time>
      </trkpt>
      <trkpt lat="42.6732431911" lon="0.2861605212">
        <ele>2165.99</ele>
        <time>2022-07-10T07:11:16Z</time>
      </trkpt>
      <trkpt lat="42.6734013576" lon="0.2859913744">
        <ele>2162.14</ele>
        <time>2022-07-10T07:11:32Z</time>
      </trkpt>
      <trkpt lat="42.6735581830" lon="0.2858412545">
        <ele>2158.78</ele>
        <time>2022-07-10T07:11:46Z</time>
      </trkpt>
      <trkpt lat="42.6737286709" lon="0.2857321221">
        <ele>2155.89</ele>
        <time>2022-07-10T07:12:01Z</time>
      </trkpt>
      <trkpt lat="42.6738798805" lon="0.2856819984">
        <ele>2154.93</ele>
        <time>2022-07-10T07:12:13Z</time>
      </trkpt>
      <trkpt lat="42.6739872526" lon="0.2856557630">
        <ele>2153.49</ele>
        <time>2022-07-10T07:12:23Z</time>
      </trkpt>
      <trkpt lat="42.6741089579" lon="0.2856058069">
        <ele>2152.05</ele>
        <time>2022-07-10T07:12:32Z</time>
      </trkpt>
      <trkpt lat="42.6743351016" lon="0.2854525857">
        <ele>2149.65</ele>
        <time>2022-07-10T07:12:47Z</time>
      </trkpt>
      <trkpt lat="42.6744409651" lon="0.2854155377">
        <ele>2149.65</ele>
        <time>2022-07-10T07:12:57Z</time>
      </trkpt>
      <trkpt lat="42.6745345909" lon="0.2851941716">
        <ele>2148.20</ele>
        <time>2022-07-10T07:13:12Z</time>
      </trkpt>
      <trkpt lat="42.6745878160" lon="0.2850922477">
        <ele>2146.28</ele>
        <time>2022-07-10T07:13:21Z</time>
      </trkpt>
      <trkpt lat="42.6746095251" lon="0.2850282099">
        <ele>2146.28</ele>
        <time>2022-07-10T07:13:24Z</time>
      </trkpt>
      <trkpt lat="42.6747132093" lon="0.2848292235">
        <ele>2142.92</ele>
        <time>2022-07-10T07:13:36Z</time>
      </trkpt>
      <trkpt lat="42.6748251915" lon="0.2845553868">
        <ele>2139.55</ele>
        <time>2022-07-10T07:13:52Z</time>
      </trkpt>
      <trkpt lat="42.6749692764" lon="0.2842947096">
        <ele>2136.67</ele>
        <time>2022-07-10T07:14:09Z</time>
      </trkpt>
      <trkpt lat="42.6750263572" lon="0.2840267401">
        <ele>2132.82</ele>
        <time>2022-07-10T07:14:23Z</time>
      </trkpt>
      <trkpt lat="42.6750311349" lon="0.2837389056">
        <ele>2129.94</ele>
        <time>2022-07-10T07:14:38Z</time>
      </trkpt>
      <trkpt lat="42.6750866231" lon="0.2835027035">
        <ele>2126.57</ele>
        <time>2022-07-10T07:14:51Z</time>
      </trkpt>
      <trkpt lat="42.6751711126" lon="0.2832902223">
        <ele>2123.21</ele>
        <time>2022-07-10T07:15:04Z</time>
      </trkpt>
      <trkpt lat="42.6753116772" lon="0.2831040602">
        <ele>2119.84</ele>
        <time>2022-07-10T07:15:18Z</time>
      </trkpt>
      <trkpt lat="42.6754260063" lon="0.2828769945">
        <ele>2116.48</ele>
        <time>2022-07-10T07:15:32Z</time>
      </trkpt>
      <trkpt lat="42.6754566841" lon="0.2825836278">
        <ele>2113.60</ele>
        <time>2022-07-10T07:15:47Z</time>
      </trkpt>
      <trkpt lat="42.6754690055" lon="0.2823015768">
        <ele>2110.23</ele>
        <time>2022-07-10T07:16:01Z</time>
      </trkpt>
      <trkpt lat="42.6755371504" lon="0.2820010018">
        <ele>2107.35</ele>
        <time>2022-07-10T07:16:16Z</time>
      </trkpt>
      <trkpt lat="42.6756353863" lon="0.2817359660">
        <ele>2103.50</ele>
        <time>2022-07-10T07:16:31Z</time>
      </trkpt>
      <trkpt lat="42.6757668145" lon="0.2815240715">
        <ele>2100.62</ele>
        <time>2022-07-10T07:16:45Z</time>
      </trkpt>
      <trkpt lat="42.6759212930" lon="0.2812916413">
        <ele>2097.25</ele>
        <time>2022-07-10T07:17:00Z</time>
      </trkpt>
      <trkpt lat="42.6759776194" lon="0.2810236719">
        <ele>2094.37</ele>
        <time>2022-07-10T07:17:14Z</time>
      </trkpt>
      <trkpt lat="42.6760067884" lon="0.2807940915">
        <ele>2091.49</ele>
        <time>2022-07-10T07:17:26Z</time>
      </trkpt>
      <trkpt lat="42.6760663837" lon="0.2805042453">
        <ele>2088.12</ele>
        <time>2022-07-10T07:17:41Z</time>
      </trkpt>
      <trkpt lat="42.6761689782" lon="0.2802808676">
        <ele>2084.76</ele>
        <time>2022-07-10T07:17:54Z</time>
      </trkpt>
      <trkpt lat="42.6763003226" lon="0.2800871618">
        <ele>2081.87</ele>
        <time>2022-07-10T07:18:08Z</time>
      </trkpt>
      <trkpt lat="42.6764428150" lon="0.2799163386">
        <ele>2078.51</ele>
        <time>2022-07-10T07:18:23Z</time>
      </trkpt>
      <trkpt lat="42.6765142288" lon="0.2798466012">
        <ele>2077.55</ele>
        <time>2022-07-10T07:18:29Z</time>
      </trkpt>
      <trkpt lat="42.6765732374" lon="0.2798056137">
        <ele>2076.59</ele>
        <time>2022-07-10T07:18:34Z</time>
      </trkpt>
      <trkpt lat="42.6767262910" lon="0.2795906179">
        <ele>2073.22</ele>
        <time>2022-07-10T07:18:48Z</time>
      </trkpt>
      <trkpt lat="42.6768568810" lon="0.2794010192">
        <ele>2069.86</ele>
        <time>2022-07-10T07:19:02Z</time>
      </trkpt>
      <trkpt lat="42.6769918296" lon="0.2791399229">
        <ele>2066.97</ele>
        <time>2022-07-10T07:19:17Z</time>
      </trkpt>
      <trkpt lat="42.6770965196" lon="0.2789124381">
        <ele>2064.09</ele>
        <time>2022-07-10T07:19:31Z</time>
      </trkpt>
      <trkpt lat="42.6772245113" lon="0.2786639147">
        <ele>2061.20</ele>
        <time>2022-07-10T07:19:46Z</time>
      </trkpt>
      <trkpt lat="42.6772776525" lon="0.2784193307">
        <ele>2057.84</ele>
        <time>2022-07-10T07:19:59Z</time>
      </trkpt>
      <trkpt lat="42.6773432828" lon="0.2781182528">
        <ele>2054.47</ele>
        <time>2022-07-10T07:20:15Z</time>
      </trkpt>
      <trkpt lat="42.6774239168" lon="0.2780105453">
        <ele>2052.55</ele>
        <time>2022-07-10T07:20:23Z</time>
      </trkpt>
      <trkpt lat="42.6775325462" lon="0.2777245548">
        <ele>2049.67</ele>
        <time>2022-07-10T07:20:40Z</time>
      </trkpt>
      <trkpt lat="42.6774978451" lon="0.2774131671">
        <ele>2047.26</ele>
        <time>2022-07-10T07:20:56Z</time>
      </trkpt>
      <trkpt lat="42.6773603819" lon="0.2771825809">
        <ele>2044.38</ele>
        <time>2022-07-10T07:21:11Z</time>
      </trkpt>
      <trkpt lat="42.6772849448" lon="0.2769721951">
        <ele>2041.02</ele>
        <time>2022-07-10T07:21:24Z</time>
      </trkpt>
      <trkpt lat="42.6772649121" lon="0.2767058183">
        <ele>2037.65</ele>
        <time>2022-07-10T07:21:38Z</time>
      </trkpt>
      <trkpt lat="42.6771863736" lon="0.2764588036">
        <ele>2034.77</ele>
        <time>2022-07-10T07:21:52Z</time>
      </trkpt>
      <trkpt lat="42.6772002876" lon="0.2762796823">
        <ele>2032.36</ele>
        <time>2022-07-10T07:22:02Z</time>
      </trkpt>
      <trkpt lat="42.6772319712" lon="0.2762189973">
        <ele>2031.88</ele>
        <time>2022-07-10T07:22:09Z</time>
      </trkpt>
      <trkpt lat="42.6772243436" lon="0.2761896607">
        <ele>2031.40</ele>
        <time>2022-07-10T07:22:11Z</time>
      </trkpt>
      <trkpt lat="42.6772896387" lon="0.2759425621">
        <ele>2028.04</ele>
        <time>2022-07-10T07:22:26Z</time>
      </trkpt>
      <trkpt lat="42.6773050614" lon="0.2756514587">
        <ele>2025.15</ele>
        <time>2022-07-10T07:22:42Z</time>
      </trkpt>
      <trkpt lat="42.6772313006" lon="0.2753549907">
        <ele>2021.79</ele>
        <time>2022-07-10T07:22:56Z</time>
      </trkpt>
      <trkpt lat="42.6772016287" lon="0.2751061320">
        <ele>2018.91</ele>
        <time>2022-07-10T07:23:10Z</time>
      </trkpt>
      <trkpt lat="42.6772121899" lon="0.2748274338">
        <ele>2015.54</ele>
        <time>2022-07-10T07:23:25Z</time>
      </trkpt>
      <trkpt lat="42.6772635709" lon="0.2747733705">
        <ele>2015.06</ele>
        <time>2022-07-10T07:23:30Z</time>
      </trkpt>
      <trkpt lat="42.6773660816" lon="0.2747624740">
        <ele>2012.66</ele>
        <time>2022-07-10T07:23:39Z</time>
      </trkpt>
      <trkpt lat="42.6775250863" lon="0.2745515853">
        <ele>2009.77</ele>
        <time>2022-07-10T07:23:55Z</time>
      </trkpt>
      <trkpt lat="42.6775536686" lon="0.2744857874">
        <ele>2008.81</ele>
        <time>2022-07-10T07:24:01Z</time>
      </trkpt>
      <trkpt lat="42.6775615476" lon="0.2742391918">
        <ele>2005.93</ele>
        <time>2022-07-10T07:24:15Z</time>
      </trkpt>
      <trkpt lat="42.6775172912" lon="0.2739807777">
        <ele>2003.04</ele>
        <time>2022-07-10T07:24:29Z</time>
      </trkpt>
      <trkpt lat="42.6774402615" lon="0.2737289853">
        <ele>2000.16</ele>
        <time>2022-07-10T07:24:43Z</time>
      </trkpt>
      <trkpt lat="42.6774298679" lon="0.2733947150">
        <ele>1996.80</ele>
        <time>2022-07-10T07:25:00Z</time>
      </trkpt>
      <trkpt lat="42.6775317919" lon="0.2730350476">
        <ele>1993.91</ele>
        <time>2022-07-10T07:25:19Z</time>
      </trkpt>
      <trkpt lat="42.6776237413" lon="0.2727880329">
        <ele>1991.03</ele>
        <time>2022-07-10T07:25:34Z</time>
      </trkpt>
      <trkpt lat="42.6776928920" lon="0.2726012003">
        <ele>1987.66</ele>
        <time>2022-07-10T07:25:47Z</time>
      </trkpt>
      <trkpt lat="42.6777636353" lon="0.2724593785">
        <ele>1986.22</ele>
        <time>2022-07-10T07:25:57Z</time>
      </trkpt>
      <trkpt lat="42.6777879428" lon="0.2722311392">
        <ele>1983.82</ele>
        <time>2022-07-10T07:26:10Z</time>
      </trkpt>
      <trkpt lat="42.6777607016" lon="0.2719609905">
        <ele>1980.93</ele>
        <time>2022-07-10T07:26:26Z</time>
      </trkpt>
      <trkpt lat="42.6776963286" lon="0.2716801967">
        <ele>1979.49</ele>
        <time>2022-07-10T07:26:42Z</time>
      </trkpt>
      <trkpt lat="42.6776368171" lon="0.2713849023">
        <ele>1976.61</ele>
        <time>2022-07-10T07:26:55Z</time>
      </trkpt>
      <trkpt lat="42.6776447799" lon="0.2710679825">
        <ele>1974.20</ele>
        <time>2022-07-10T07:27:10Z</time>
      </trkpt>
      <trkpt lat="42.6777269226" lon="0.2707308624">
        <ele>1972.76</ele>
        <time>2022-07-10T07:27:28Z</time>
      </trkpt>
      <trkpt lat="42.6777177863" lon="0.2704819199">
        <ele>1971.32</ele>
        <time>2022-07-10T07:27:41Z</time>
      </trkpt>
      <trkpt lat="42.6776958257" lon="0.2702126093">
        <ele>1970.36</ele>
        <time>2022-07-10T07:27:56Z</time>
      </trkpt>
      <trkpt lat="42.6776657347" lon="0.2699301392">
        <ele>1968.44</ele>
        <time>2022-07-10T07:28:10Z</time>
      </trkpt>
      <trkpt lat="42.6776904613" lon="0.2697636746">
        <ele>1966.51</ele>
        <time>2022-07-10T07:28:20Z</time>
      </trkpt>
      <trkpt lat="42.6777056325" lon="0.2697349247">
        <ele>1966.03</ele>
        <time>2022-07-10T07:28:22Z</time>
      </trkpt>
      <trkpt lat="42.6777399983" lon="0.2696811967">
        <ele>1965.55</ele>
        <time>2022-07-10T07:28:26Z</time>
      </trkpt>
      <trkpt lat="42.6778360549" lon="0.2695332561">
        <ele>1962.67</ele>
        <time>2022-07-10T07:28:40Z</time>
      </trkpt>
      <trkpt lat="42.6778418384" lon="0.2694615070">
        <ele>1961.23</ele>
        <time>2022-07-10T07:28:46Z</time>
      </trkpt>
      <trkpt lat="42.6777650602" lon="0.2694546338">
        <ele>1959.30</ele>
        <time>2022-07-10T07:28:54Z</time>
      </trkpt>
      <trkpt lat="42.6776882820" lon="0.2694683801">
        <ele>1955.94</ele>
        <time>2022-07-10T07:29:08Z</time>
      </trkpt>
      <trkpt lat="42.6777546667" lon="0.2693409752">
        <ele>1953.54</ele>
        <time>2022-07-10T07:29:21Z</time>
      </trkpt>
      <trkpt lat="42.6777586062" lon="0.2693290729">
        <ele>1952.57</ele>
        <time>2022-07-10T07:29:22Z</time>
      </trkpt>
      <trkpt lat="42.6777494699" lon="0.2692562342">
        <ele>1951.13</ele>
        <time>2022-07-10T07:29:28Z</time>
      </trkpt>
      <trkpt lat="42.6777038723" lon="0.2692669630">
        <ele>1950.65</ele>
        <time>2022-07-10T07:29:32Z</time>
      </trkpt>
      <trkpt lat="42.6776650641" lon="0.2693163324">
        <ele>1949.69</ele>
        <time>2022-07-10T07:29:37Z</time>
      </trkpt>
      <trkpt lat="42.6775980927" lon="0.2694038395">
        <ele>1945.85</ele>
        <time>2022-07-10T07:29:49Z</time>
      </trkpt>
      <trkpt lat="42.6775775570" lon="0.2694083657">
        <ele>1945.36</ele>
        <time>2022-07-10T07:29:51Z</time>
      </trkpt>
      <trkpt lat="42.6775156148" lon="0.2693057712">
        <ele>1942.48</ele>
        <time>2022-07-10T07:30:04Z</time>
      </trkpt>
      <trkpt lat="42.6775421016" lon="0.2692662925">
        <ele>1941.04</ele>
        <time>2022-07-10T07:30:07Z</time>
      </trkpt>
      <trkpt lat="42.6775726117" lon="0.2692252211">
        <ele>1940.08</ele>
        <time>2022-07-10T07:30:11Z</time>
      </trkpt>
      <trkpt lat="42.6775990985" lon="0.2691759355">
        <ele>1938.64</ele>
        <time>2022-07-10T07:30:16Z</time>
      </trkpt>
      <trkpt lat="42.6776550058" lon="0.2690471057">
        <ele>1936.23</ele>
        <time>2022-07-10T07:30:26Z</time>
      </trkpt>
      <trkpt lat="42.6776954066" lon="0.2689155936">
        <ele>1933.83</ele>
        <time>2022-07-10T07:30:36Z</time>
      </trkpt>
      <trkpt lat="42.6775266789" lon="0.2688759472">
        <ele>1930.95</ele>
        <time>2022-07-10T07:30:49Z</time>
      </trkpt>
      <trkpt lat="42.6775030419" lon="0.2688816469">
        <ele>1930.46</ele>
        <time>2022-07-10T07:30:51Z</time>
      </trkpt>
      <trkpt lat="42.6774001960" lon="0.2689481992">
        <ele>1927.58</ele>
        <time>2022-07-10T07:31:01Z</time>
      </trkpt>
      <trkpt lat="42.6773494016" lon="0.2688889392">
        <ele>1926.14</ele>
        <time>2022-07-10T07:31:08Z</time>
      </trkpt>
      <trkpt lat="42.6773568615" lon="0.2688043658">
        <ele>1925.18</ele>
        <time>2022-07-10T07:31:13Z</time>
      </trkpt>
      <trkpt lat="42.6773884613" lon="0.2687516436">
        <ele>1924.70</ele>
        <time>2022-07-10T07:31:17Z</time>
      </trkpt>
      <trkpt lat="42.6774110924" lon="0.2687098179">
        <ele>1923.25</ele>
        <time>2022-07-10T07:31:20Z</time>
      </trkpt>
      <trkpt lat="42.6775103342" lon="0.2685721032">
        <ele>1920.37</ele>
        <time>2022-07-10T07:31:30Z</time>
      </trkpt>
      <trkpt lat="42.6775678340" lon="0.2683936525">
        <ele>1917.49</ele>
        <time>2022-07-10T07:31:40Z</time>
      </trkpt>
      <trkpt lat="42.6776064746" lon="0.2681676764">
        <ele>1914.12</ele>
        <time>2022-07-10T07:31:51Z</time>
      </trkpt>
      <trkpt lat="42.6776091568" lon="0.2681530919">
        <ele>1914.12</ele>
        <time>2022-07-10T07:31:52Z</time>
      </trkpt>
      <trkpt lat="42.6776224840" lon="0.2679331508">
        <ele>1910.28</ele>
        <time>2022-07-10T07:32:04Z</time>
      </trkpt>
      <trkpt lat="42.6776240766" lon="0.2678329032">
        <ele>1909.32</ele>
        <time>2022-07-10T07:32:15Z</time>
      </trkpt>
      <trkpt lat="42.6776287705" lon="0.2678207494">
        <ele>1909.32</ele>
        <time>2022-07-10T07:32:17Z</time>
      </trkpt>
      <trkpt lat="42.6777680777" lon="0.2675961144">
        <ele>1906.43</ele>
        <time>2022-07-10T07:32:33Z</time>
      </trkpt>
      <trkpt lat="42.6777727716" lon="0.2675771713">
        <ele>1905.95</ele>
        <time>2022-07-10T07:32:34Z</time>
      </trkpt>
      <trkpt lat="42.6777930558" lon="0.2674184181">
        <ele>1904.51</ele>
        <time>2022-07-10T07:32:42Z</time>
      </trkpt>
      <trkpt lat="42.6778402459" lon="0.2673247922">
        <ele>1903.07</ele>
        <time>2022-07-10T07:32:48Z</time>
      </trkpt>
      <trkpt lat="42.6780456025" lon="0.2671409771">
        <ele>1900.18</ele>
        <time>2022-07-10T07:33:05Z</time>
      </trkpt>
      <trkpt lat="42.6781658828" lon="0.2669673879">
        <ele>1896.82</ele>
        <time>2022-07-10T07:33:18Z</time>
      </trkpt>
      <trkpt lat="42.6781929564" lon="0.2668376360">
        <ele>1895.38</ele>
        <time>2022-07-10T07:33:26Z</time>
      </trkpt>
      <trkpt lat="42.6782331895" lon="0.2667286713">
        <ele>1893.93</ele>
        <time>2022-07-10T07:33:33Z</time>
      </trkpt>
      <trkpt lat="42.6782859117" lon="0.2666612808">
        <ele>1892.49</ele>
        <time>2022-07-10T07:33:39Z</time>
      </trkpt>
      <trkpt lat="42.6783243846" lon="0.2665987518">
        <ele>1892.01</ele>
        <time>2022-07-10T07:33:43Z</time>
      </trkpt>
      <trkpt lat="42.6784661226" lon="0.2664190438">
        <ele>1888.65</ele>
        <time>2022-07-10T07:33:57Z</time>
      </trkpt>
      <trkpt lat="42.6785929408" lon="0.2662203927">
        <ele>1886.24</ele>
        <time>2022-07-10T07:34:10Z</time>
      </trkpt>
      <trkpt lat="42.6787229441" lon="0.2660851926">
        <ele>1884.80</ele>
        <time>2022-07-10T07:34:21Z</time>
      </trkpt>
      <trkpt lat="42.6787822042" lon="0.2660044748">
        <ele>1883.84</ele>
        <time>2022-07-10T07:34:27Z</time>
      </trkpt>
      <trkpt lat="42.6788051706" lon="0.2658788301">
        <ele>1883.36</ele>
        <time>2022-07-10T07:34:34Z</time>
      </trkpt>
      <trkpt lat="42.6788433921" lon="0.2655646764">
        <ele>1881.44</ele>
        <time>2022-07-10T07:34:49Z</time>
      </trkpt>
      <trkpt lat="42.6788491756" lon="0.2653700486">
        <ele>1879.51</ele>
        <time>2022-07-10T07:34:58Z</time>
      </trkpt>
      <trkpt lat="42.6789090224" lon="0.2652813680">
        <ele>1878.55</ele>
        <time>2022-07-10T07:35:04Z</time>
      </trkpt>
      <trkpt lat="42.6789262053" lon="0.2650632709">
        <ele>1876.63</ele>
        <time>2022-07-10T07:35:19Z</time>
      </trkpt>
      <trkpt lat="42.6787789352" lon="0.2649223711">
        <ele>1873.27</ele>
        <time>2022-07-10T07:35:32Z</time>
      </trkpt>
      <trkpt lat="42.6786532067" lon="0.2647025138">
        <ele>1870.38</ele>
        <time>2022-07-10T07:35:47Z</time>
      </trkpt>
      <trkpt lat="42.6785605028" lon="0.2644958999">
        <ele>1867.50</ele>
        <time>2022-07-10T07:35:59Z</time>
      </trkpt>
      <trkpt lat="42.6783902664" lon="0.2642869391">
        <ele>1864.61</ele>
        <time>2022-07-10T07:36:15Z</time>
      </trkpt>
      <trkpt lat="42.6783237979" lon="0.2641533315">
        <ele>1862.69</ele>
        <time>2022-07-10T07:36:30Z</time>
      </trkpt>
      <trkpt lat="42.6783268992" lon="0.2641558461">
        <ele>1862.69</ele>
        <time>2022-07-10T07:36:39Z</time>
      </trkpt>
      <trkpt lat="42.6783310901" lon="0.2641286887">
        <ele>1861.73</ele>
        <time>2022-07-10T07:36:57Z</time>
      </trkpt>
      <trkpt lat="42.6783340238" lon="0.2641353104">
        <ele>1862.69</ele>
        <time>2022-07-10T07:37:13Z</time>
      </trkpt>
      <trkpt lat="42.6783350296" lon="0.2641206421">
        <ele>1862.69</ele>
        <time>2022-07-10T07:37:15Z</time>
      </trkpt>
      <trkpt lat="42.6783172600" lon="0.2641094942">
        <ele>1862.69</ele>
        <time>2022-07-10T07:37:17Z</time>
      </trkpt>
      <trkpt lat="42.6782508753" lon="0.2639333904">
        <ele>1859.33</ele>
        <time>2022-07-10T07:37:28Z</time>
      </trkpt>
      <trkpt lat="42.6782323513" lon="0.2636537701">
        <ele>1856.44</ele>
        <time>2022-07-10T07:37:44Z</time>
      </trkpt>
      <trkpt lat="42.6783342753" lon="0.2634308115">
        <ele>1853.56</ele>
        <time>2022-07-10T07:37:57Z</time>
      </trkpt>
      <trkpt lat="42.6785037573" lon="0.2632497624">
        <ele>1850.68</ele>
        <time>2022-07-10T07:38:12Z</time>
      </trkpt>
      <trkpt lat="42.6785693038" lon="0.2630105428">
        <ele>1847.79</ele>
        <time>2022-07-10T07:38:27Z</time>
      </trkpt>
      <trkpt lat="42.6786661986" lon="0.2627593372">
        <ele>1845.39</ele>
        <time>2022-07-10T07:38:42Z</time>
      </trkpt>
      <trkpt lat="42.6786718983" lon="0.2627437469">
        <ele>1845.39</ele>
        <time>2022-07-10T07:38:43Z</time>
      </trkpt>
      <trkpt lat="42.6787480060" lon="0.2624886855">
        <ele>1841.54</ele>
        <time>2022-07-10T07:38:58Z</time>
      </trkpt>
      <trkpt lat="42.6787540410" lon="0.2624596003">
        <ele>1841.54</ele>
        <time>2022-07-10T07:39:00Z</time>
      </trkpt>
      <trkpt lat="42.6787739061" lon="0.2622169442">
        <ele>1837.70</ele>
        <time>2022-07-10T07:39:15Z</time>
      </trkpt>
      <trkpt lat="42.6787093654" lon="0.2622063830">
        <ele>1837.22</ele>
        <time>2022-07-10T07:39:19Z</time>
      </trkpt>
      <trkpt lat="42.6785136480" lon="0.2624093089">
        <ele>1833.85</ele>
        <time>2022-07-10T07:39:36Z</time>
      </trkpt>
      <trkpt lat="42.6783059444" lon="0.2625552379">
        <ele>1830.97</ele>
        <time>2022-07-10T07:39:51Z</time>
      </trkpt>
      <trkpt lat="42.6782909408" lon="0.2625565790">
        <ele>1830.97</ele>
        <time>2022-07-10T07:39:52Z</time>
      </trkpt>
      <trkpt lat="42.6781186089" lon="0.2625845745">
        <ele>1828.56</ele>
        <time>2022-07-10T07:40:07Z</time>
      </trkpt>
      <trkpt lat="42.6781255659" lon="0.2623206284">
        <ele>1825.68</ele>
        <time>2022-07-10T07:40:22Z</time>
      </trkpt>
      <trkpt lat="42.6781473588" lon="0.2622684930">
        <ele>1825.20</ele>
        <time>2022-07-10T07:40:25Z</time>
      </trkpt>
      <trkpt lat="42.6781838201" lon="0.2621825784">
        <ele>1823.76</ele>
        <time>2022-07-10T07:40:30Z</time>
      </trkpt>
      <trkpt lat="42.6782792900" lon="0.2620158624">
        <ele>1820.87</ele>
        <time>2022-07-10T07:40:43Z</time>
      </trkpt>
      <trkpt lat="42.6783513743" lon="0.2618918102">
        <ele>1819.43</ele>
        <time>2022-07-10T07:40:51Z</time>
      </trkpt>
      <trkpt lat="42.6783766039" lon="0.2618192229">
        <ele>1818.47</ele>
        <time>2022-07-10T07:40:55Z</time>
      </trkpt>
      <trkpt lat="42.6784097962" lon="0.2616934944">
        <ele>1817.03</ele>
        <time>2022-07-10T07:41:02Z</time>
      </trkpt>
      <trkpt lat="42.6784537174" lon="0.2616136987">
        <ele>1816.07</ele>
        <time>2022-07-10T07:41:07Z</time>
      </trkpt>
      <trkpt lat="42.6785107143" lon="0.2615715377">
        <ele>1815.11</ele>
        <time>2022-07-10T07:41:12Z</time>
      </trkpt>
      <trkpt lat="42.6785750035" lon="0.2614436299">
        <ele>1813.18</ele>
        <time>2022-07-10T07:41:21Z</time>
      </trkpt>
      <trkpt lat="42.6785798650" lon="0.2612818591">
        <ele>1810.78</ele>
        <time>2022-07-10T07:41:30Z</time>
      </trkpt>
      <trkpt lat="42.6785658672" lon="0.2610682044">
        <ele>1808.86</ele>
        <time>2022-07-10T07:41:43Z</time>
      </trkpt>
      <trkpt lat="42.6785351895" lon="0.2609138098">
        <ele>1806.94</ele>
        <time>2022-07-10T07:41:52Z</time>
      </trkpt>
      <trkpt lat="42.6785089541" lon="0.2607979719">
        <ele>1805.49</ele>
        <time>2022-07-10T07:41:59Z</time>
      </trkpt>
      <trkpt lat="42.6784977224" lon="0.2607274801">
        <ele>1804.53</ele>
        <time>2022-07-10T07:42:03Z</time>
      </trkpt>
      <trkpt lat="42.6784869097" lon="0.2604148351">
        <ele>1801.65</ele>
        <time>2022-07-10T07:42:18Z</time>
      </trkpt>
      <trkpt lat="42.6784840599" lon="0.2603224665">
        <ele>1801.17</ele>
        <time>2022-07-10T07:42:22Z</time>
      </trkpt>
      <trkpt lat="42.6785034221" lon="0.2601519786">
        <ele>1800.21</ele>
        <time>2022-07-10T07:42:29Z</time>
      </trkpt>
      <trkpt lat="42.6785710640" lon="0.2598651499">
        <ele>1797.80</ele>
        <time>2022-07-10T07:42:44Z</time>
      </trkpt>
      <trkpt lat="42.6786180027" lon="0.2596189734">
        <ele>1795.40</ele>
        <time>2022-07-10T07:42:58Z</time>
      </trkpt>
      <trkpt lat="42.6785688009" lon="0.2593655046">
        <ele>1793.96</ele>
        <time>2022-07-10T07:43:12Z</time>
      </trkpt>
      <trkpt lat="42.6785545517" lon="0.2591356728">
        <ele>1792.52</ele>
        <time>2022-07-10T07:43:25Z</time>
      </trkpt>
      <trkpt lat="42.6785853133" lon="0.2589340042">
        <ele>1790.11</ele>
        <time>2022-07-10T07:43:38Z</time>
      </trkpt>
      <trkpt lat="42.6786092855" lon="0.2587298211">
        <ele>1788.19</ele>
        <time>2022-07-10T07:43:51Z</time>
      </trkpt>
      <trkpt lat="42.6786374487" lon="0.2584436629">
        <ele>1785.31</ele>
        <time>2022-07-10T07:44:07Z</time>
      </trkpt>
      <trkpt lat="42.6786160748" lon="0.2583374642">
        <ele>1784.34</ele>
        <time>2022-07-10T07:44:13Z</time>
      </trkpt>
      <trkpt lat="42.6785439905" lon="0.2579163574">
        <ele>1781.46</ele>
        <time>2022-07-10T07:44:28Z</time>
      </trkpt>
      <trkpt lat="42.6785492711" lon="0.2578748669">
        <ele>1781.46</ele>
        <time>2022-07-10T07:44:30Z</time>
      </trkpt>
      <trkpt lat="42.6785836369" lon="0.2575153671">
        <ele>1777.61</ele>
        <time>2022-07-10T07:44:47Z</time>
      </trkpt>
      <trkpt lat="42.6785570662" lon="0.2572209109">
        <ele>1774.73</ele>
        <time>2022-07-10T07:45:02Z</time>
      </trkpt>
      <trkpt lat="42.6785457507" lon="0.2571178135">
        <ele>1773.77</ele>
        <time>2022-07-10T07:45:07Z</time>
      </trkpt>
      <trkpt lat="42.6784971356" lon="0.2570174821">
        <ele>1772.33</ele>
        <time>2022-07-10T07:45:13Z</time>
      </trkpt>
      <trkpt lat="42.6784973033" lon="0.2569758240">
        <ele>1771.85</ele>
        <time>2022-07-10T07:45:15Z</time>
      </trkpt>
      <trkpt lat="42.6783968881" lon="0.2566832956">
        <ele>1768.48</ele>
        <time>2022-07-10T07:45:32Z</time>
      </trkpt>
      <trkpt lat="42.6783578284" lon="0.2564311679">
        <ele>1765.60</ele>
        <time>2022-07-10T07:45:46Z</time>
      </trkpt>
      <trkpt lat="42.6783178467" lon="0.2562339418">
        <ele>1763.68</ele>
        <time>2022-07-10T07:45:57Z</time>
      </trkpt>
      <trkpt lat="42.6782807149" lon="0.2559958957">
        <ele>1760.79</ele>
        <time>2022-07-10T07:46:10Z</time>
      </trkpt>
      <trkpt lat="42.6782980654" lon="0.2557812352">
        <ele>1757.91</ele>
        <time>2022-07-10T07:46:23Z</time>
      </trkpt>
      <trkpt lat="42.6782965567" lon="0.2556584403">
        <ele>1756.95</ele>
        <time>2022-07-10T07:46:29Z</time>
      </trkpt>
      <trkpt lat="42.6783267315" lon="0.2555198874">
        <ele>1755.02</ele>
        <time>2022-07-10T07:46:37Z</time>
      </trkpt>
      <trkpt lat="42.6783243846" lon="0.2554650698">
        <ele>1755.02</ele>
        <time>2022-07-10T07:46:40Z</time>
      </trkpt>
      <trkpt lat="42.6783338562" lon="0.2553720307">
        <ele>1754.54</ele>
        <time>2022-07-10T07:46:45Z</time>
      </trkpt>
      <trkpt lat="42.6783409808" lon="0.2553322166">
        <ele>1753.58</ele>
        <time>2022-07-10T07:46:47Z</time>
      </trkpt>
      <trkpt lat="42.6784159150" lon="0.2551138680">
        <ele>1752.14</ele>
        <time>2022-07-10T07:47:01Z</time>
      </trkpt>
      <trkpt lat="42.6784659550" lon="0.2548427135">
        <ele>1750.70</ele>
        <time>2022-07-10T07:47:15Z</time>
      </trkpt>
      <trkpt lat="42.6784700621" lon="0.2544353530">
        <ele>1748.29</ele>
        <time>2022-07-10T07:47:31Z</time>
      </trkpt>
      <trkpt lat="42.6784808747" lon="0.2543044277">
        <ele>1747.81</ele>
        <time>2022-07-10T07:47:37Z</time>
      </trkpt>
      <trkpt lat="42.6785101276" lon="0.2542007435">
        <ele>1746.85</ele>
        <time>2022-07-10T07:47:43Z</time>
      </trkpt>
      <trkpt lat="42.6785535458" lon="0.2540491987">
        <ele>1745.89</ele>
        <time>2022-07-10T07:47:52Z</time>
      </trkpt>
      <trkpt lat="42.6785394643" lon="0.2538136672">
        <ele>1744.45</ele>
        <time>2022-07-10T07:48:07Z</time>
      </trkpt>
      <trkpt lat="42.6785110496" lon="0.2535907086">
        <ele>1742.53</ele>
        <time>2022-07-10T07:48:18Z</time>
      </trkpt>
      <trkpt lat="42.6784649491" lon="0.2532709390">
        <ele>1739.64</ele>
        <time>2022-07-10T07:48:34Z</time>
      </trkpt>
      <trkpt lat="42.6784237940" lon="0.2529868763">
        <ele>1736.76</ele>
        <time>2022-07-10T07:48:49Z</time>
      </trkpt>
      <trkpt lat="42.6783455908" lon="0.2527035680">
        <ele>1734.36</ele>
        <time>2022-07-10T07:49:04Z</time>
      </trkpt>
      <trkpt lat="42.6782471873" lon="0.2524608281">
        <ele>1732.91</ele>
        <time>2022-07-10T07:49:17Z</time>
      </trkpt>
      <trkpt lat="42.6781534776" lon="0.2522128075">
        <ele>1730.03</ele>
        <time>2022-07-10T07:49:33Z</time>
      </trkpt>
      <trkpt lat="42.6780305989" lon="0.2519009169">
        <ele>1727.15</ele>
        <time>2022-07-10T07:49:49Z</time>
      </trkpt>
      <trkpt lat="42.6779174432" lon="0.2516231406">
        <ele>1724.26</ele>
        <time>2022-07-10T07:50:06Z</time>
      </trkpt>
      <trkpt lat="42.6778006833" lon="0.2513754554">
        <ele>1721.86</ele>
        <time>2022-07-10T07:50:22Z</time>
      </trkpt>
      <trkpt lat="42.6777244080" lon="0.2511004452">
        <ele>1718.49</ele>
        <time>2022-07-10T07:50:37Z</time>
      </trkpt>
      <trkpt lat="42.6776975021" lon="0.2508681826">
        <ele>1716.57</ele>
        <time>2022-07-10T07:50:50Z</time>
      </trkpt>
      <trkpt lat="42.6776954904" lon="0.2508526761">
        <ele>1716.09</ele>
        <time>2022-07-10T07:50:51Z</time>
      </trkpt>
      <trkpt lat="42.6776603702" lon="0.2507392690">
        <ele>1715.13</ele>
        <time>2022-07-10T07:50:58Z</time>
      </trkpt>
      <trkpt lat="42.6776392478" lon="0.2503917553">
        <ele>1712.73</ele>
        <time>2022-07-10T07:51:16Z</time>
      </trkpt>
      <trkpt lat="42.6776657347" lon="0.2501094528">
        <ele>1710.80</ele>
        <time>2022-07-10T07:51:32Z</time>
      </trkpt>
      <trkpt lat="42.6776678301" lon="0.2500937786">
        <ele>1710.80</ele>
        <time>2022-07-10T07:51:33Z</time>
      </trkpt>
      <trkpt lat="42.6775455382" lon="0.2498315088">
        <ele>1708.88</ele>
        <time>2022-07-10T07:51:47Z</time>
      </trkpt>
      <trkpt lat="42.6774379984" lon="0.2495792136">
        <ele>1706.48</ele>
        <time>2022-07-10T07:52:02Z</time>
      </trkpt>
      <trkpt lat="42.6773572806" lon="0.2492826618">
        <ele>1704.07</ele>
        <time>2022-07-10T07:52:18Z</time>
      </trkpt>
      <trkpt lat="42.6772366650" lon="0.2490219846">
        <ele>1701.19</ele>
        <time>2022-07-10T07:52:35Z</time>
      </trkpt>
      <trkpt lat="42.6770895626" lon="0.2488990221">
        <ele>1699.27</ele>
        <time>2022-07-10T07:52:48Z</time>
      </trkpt>
      <trkpt lat="42.6769775804" lon="0.2486046497">
        <ele>1697.34</ele>
        <time>2022-07-10T07:53:03Z</time>
      </trkpt>
      <trkpt lat="42.6768776681" lon="0.2482988779">
        <ele>1695.42</ele>
        <time>2022-07-10T07:53:19Z</time>
      </trkpt>
      <trkpt lat="42.6768442243" lon="0.2481946908">
        <ele>1694.94</ele>
        <time>2022-07-10T07:53:25Z</time>
      </trkpt>
      <trkpt lat="42.6768176537" lon="0.2481177449">
        <ele>1694.94</ele>
        <time>2022-07-10T07:53:29Z</time>
      </trkpt>
      <trkpt lat="42.6767591480" lon="0.2478924394">
        <ele>1692.54</ele>
        <time>2022-07-10T07:53:42Z</time>
      </trkpt>
      <trkpt lat="42.6766695455" lon="0.2476456761">
        <ele>1691.10</ele>
        <time>2022-07-10T07:53:57Z</time>
      </trkpt>
      <trkpt lat="42.6765378658" lon="0.2474186942">
        <ele>1688.69</ele>
        <time>2022-07-10T07:54:12Z</time>
      </trkpt>
      <trkpt lat="42.6764641050" lon="0.2472073026">
        <ele>1687.25</ele>
        <time>2022-07-10T07:54:23Z</time>
      </trkpt>
      <trkpt lat="42.6763451658" lon="0.2470106632">
        <ele>1684.85</ele>
        <time>2022-07-10T07:54:37Z</time>
      </trkpt>
      <trkpt lat="42.6762581617" lon="0.2468402591">
        <ele>1682.44</ele>
        <time>2022-07-10T07:54:48Z</time>
      </trkpt>
      <trkpt lat="42.6762058586" lon="0.2467414364">
        <ele>1680.52</ele>
        <time>2022-07-10T07:54:55Z</time>
      </trkpt>
      <trkpt lat="42.6760773640" lon="0.2465417795">
        <ele>1677.64</ele>
        <time>2022-07-10T07:55:10Z</time>
      </trkpt>
      <trkpt lat="42.6760510448" lon="0.2465040609">
        <ele>1677.16</ele>
        <time>2022-07-10T07:55:13Z</time>
      </trkpt>
      <trkpt lat="42.6759730931" lon="0.2464463934">
        <ele>1675.72</ele>
        <time>2022-07-10T07:55:20Z</time>
      </trkpt>
      <trkpt lat="42.6758301817" lon="0.2461765800">
        <ele>1672.83</ele>
        <time>2022-07-10T07:55:35Z</time>
      </trkpt>
      <trkpt lat="42.6756360568" lon="0.2460071817">
        <ele>1670.43</ele>
        <time>2022-07-10T07:55:51Z</time>
      </trkpt>
      <trkpt lat="42.6755853463" lon="0.2460209280">
        <ele>1669.95</ele>
        <time>2022-07-10T07:55:55Z</time>
      </trkpt>
      <trkpt lat="42.6754900441" lon="0.2460557129">
        <ele>1668.99</ele>
        <time>2022-07-10T07:56:02Z</time>
      </trkpt>
      <trkpt lat="42.6752784848" lon="0.2460985444">
        <ele>1666.58</ele>
        <time>2022-07-10T07:56:15Z</time>
      </trkpt>
      <trkpt lat="42.6751607191" lon="0.2460818645">
        <ele>1664.18</ele>
        <time>2022-07-10T07:56:24Z</time>
      </trkpt>
      <trkpt lat="42.6751047280" lon="0.2460283041">
        <ele>1662.74</ele>
        <time>2022-07-10T07:56:30Z</time>
      </trkpt>
      <trkpt lat="42.6750722062" lon="0.2459190041">
        <ele>1661.30</ele>
        <time>2022-07-10T07:56:35Z</time>
      </trkpt>
      <trkpt lat="42.6750653330" lon="0.2458795253">
        <ele>1660.81</ele>
        <time>2022-07-10T07:56:37Z</time>
      </trkpt>
      <trkpt lat="42.6750363316" lon="0.2456170879">
        <ele>1657.45</ele>
        <time>2022-07-10T07:56:52Z</time>
      </trkpt>
      <trkpt lat="42.6750557777" lon="0.2453064546">
        <ele>1655.05</ele>
        <time>2022-07-10T07:57:08Z</time>
      </trkpt>
      <trkpt lat="42.6750531793" lon="0.2452431712">
        <ele>1655.05</ele>
        <time>2022-07-10T07:57:11Z</time>
      </trkpt>
      <trkpt lat="42.6750748884" lon="0.2451803908">
        <ele>1655.05</ele>
        <time>2022-07-10T07:57:15Z</time>
      </trkpt>
      <trkpt lat="42.6750621479" lon="0.2450956497">
        <ele>1655.05</ele>
        <time>2022-07-10T07:57:21Z</time>
      </trkpt>
      <trkpt lat="42.6748588867" lon="0.2449228987">
        <ele>1654.09</ele>
        <time>2022-07-10T07:57:37Z</time>
      </trkpt>
      <trkpt lat="42.6747319847" lon="0.2447638940">
        <ele>1653.12</ele>
        <time>2022-07-10T07:57:50Z</time>
      </trkpt>
      <trkpt lat="42.6745992154" lon="0.2445594594">
        <ele>1649.28</ele>
        <time>2022-07-10T07:58:05Z</time>
      </trkpt>
      <trkpt lat="42.6745229401" lon="0.2443825174">
        <ele>1646.40</ele>
        <time>2022-07-10T07:58:17Z</time>
      </trkpt>
      <trkpt lat="42.6743932720" lon="0.2442219201">
        <ele>1643.99</ele>
        <time>2022-07-10T07:58:30Z</time>
      </trkpt>
      <trkpt lat="42.6743838005" lon="0.2442075033">
        <ele>1643.99</ele>
        <time>2022-07-10T07:58:31Z</time>
      </trkpt>
      <trkpt lat="42.6742885821" lon="0.2441406995">
        <ele>1642.07</ele>
        <time>2022-07-10T07:58:39Z</time>
      </trkpt>
      <trkpt lat="42.6742137317" lon="0.2440936770">
        <ele>1641.59</ele>
        <time>2022-07-10T07:58:45Z</time>
      </trkpt>
      <trkpt lat="42.6741015818" lon="0.2440299746">
        <ele>1640.63</ele>
        <time>2022-07-10T07:58:53Z</time>
      </trkpt>
      <trkpt lat="42.6739409007" lon="0.2439260390">
        <ele>1638.70</ele>
        <time>2022-07-10T07:59:07Z</time>
      </trkpt>
      <trkpt lat="42.6737786271" lon="0.2437728178">
        <ele>1636.78</ele>
        <time>2022-07-10T07:59:21Z</time>
      </trkpt>
      <trkpt lat="42.6735751145" lon="0.2435227018">
        <ele>1633.90</ele>
        <time>2022-07-10T07:59:37Z</time>
      </trkpt>
      <trkpt lat="42.6734065544" lon="0.2434240468">
        <ele>1632.46</ele>
        <time>2022-07-10T07:59:51Z</time>
      </trkpt>
      <trkpt lat="42.6732187159" lon="0.2434539702">
        <ele>1631.49</ele>
        <time>2022-07-10T08:00:05Z</time>
      </trkpt>
      <trkpt lat="42.6731330529" lon="0.2434759308">
        <ele>1631.49</ele>
        <time>2022-07-10T08:00:10Z</time>
      </trkpt>
      <trkpt lat="42.6728690229" lon="0.2435135655">
        <ele>1631.49</ele>
        <time>2022-07-10T08:00:26Z</time>
      </trkpt>
      <trkpt lat="42.6726577990" lon="0.2434700634">
        <ele>1631.01</ele>
        <time>2022-07-10T08:00:41Z</time>
      </trkpt>
      <trkpt lat="42.6725103613" lon="0.2434505336">
        <ele>1632.46</ele>
        <time>2022-07-10T08:00:52Z</time>
      </trkpt>
      <trkpt lat="42.6724242792" lon="0.2433999907">
        <ele>1631.98</ele>
        <time>2022-07-10T08:00:58Z</time>
      </trkpt>
      <trkpt lat="42.6723175775" lon="0.2433250565">
        <ele>1631.01</ele>
        <time>2022-07-10T08:01:06Z</time>
      </trkpt>
      <trkpt lat="42.6721918490" lon="0.2431935444">
        <ele>1631.01</ele>
        <time>2022-07-10T08:01:19Z</time>
      </trkpt>
      <trkpt lat="42.6721221954" lon="0.2431580890">
        <ele>1630.05</ele>
        <time>2022-07-10T08:01:26Z</time>
      </trkpt>
      <trkpt lat="42.6719298307" lon="0.2430702467">
        <ele>1629.57</ele>
        <time>2022-07-10T08:01:41Z</time>
      </trkpt>
      <trkpt lat="42.6717847399" lon="0.2428440191">
        <ele>1629.09</ele>
        <time>2022-07-10T08:01:55Z</time>
      </trkpt>
      <trkpt lat="42.6715876814" lon="0.2426622994">
        <ele>1628.61</ele>
        <time>2022-07-10T08:02:10Z</time>
      </trkpt>
      <trkpt lat="42.6715394855" lon="0.2426351421">
        <ele>1628.61</ele>
        <time>2022-07-10T08:02:14Z</time>
      </trkpt>
      <trkpt lat="42.6713539101" lon="0.2424947452">
        <ele>1627.17</ele>
        <time>2022-07-10T08:02:28Z</time>
      </trkpt>
      <trkpt lat="42.6711499784" lon="0.2421407774">
        <ele>1625.25</ele>
        <time>2022-07-10T08:02:45Z</time>
      </trkpt>
      <trkpt lat="42.6710824203" lon="0.2420481574">
        <ele>1624.28</ele>
        <time>2022-07-10T08:02:54Z</time>
      </trkpt>
      <trkpt lat="42.6710457914" lon="0.2420008834">
        <ele>1623.32</ele>
        <time>2022-07-10T08:02:58Z</time>
      </trkpt>
      <trkpt lat="42.6709794067" lon="0.2417066786">
        <ele>1620.44</ele>
        <time>2022-07-10T08:03:14Z</time>
      </trkpt>
      <trkpt lat="42.6709474716" lon="0.2414227836">
        <ele>1619.48</ele>
        <time>2022-07-10T08:03:29Z</time>
      </trkpt>
      <trkpt lat="42.6708447095" lon="0.2413519565">
        <ele>1619.48</ele>
        <time>2022-07-10T08:03:36Z</time>
      </trkpt>
      <trkpt lat="42.6707478985" lon="0.2413183451">
        <ele>1619.48</ele>
        <time>2022-07-10T08:03:43Z</time>
      </trkpt>
      <trkpt lat="42.6706781611" lon="0.2411916107">
        <ele>1619.48</ele>
        <time>2022-07-10T08:03:53Z</time>
      </trkpt>
      <trkpt lat="42.6707396843" lon="0.2409139182">
        <ele>1616.59</ele>
        <time>2022-07-10T08:04:07Z</time>
      </trkpt>
      <trkpt lat="42.6707959268" lon="0.2407674026">
        <ele>1614.19</ele>
        <time>2022-07-10T08:04:16Z</time>
      </trkpt>
      <trkpt lat="42.6707841083" lon="0.2406928036">
        <ele>1613.71</ele>
        <time>2022-07-10T08:04:20Z</time>
      </trkpt>
      <trkpt lat="42.6706781611" lon="0.2405872755">
        <ele>1612.75</ele>
        <time>2022-07-10T08:04:29Z</time>
      </trkpt>
      <trkpt lat="42.6706188172" lon="0.2405425161">
        <ele>1611.79</ele>
        <time>2022-07-10T08:04:33Z</time>
      </trkpt>
      <trkpt lat="42.6705883071" lon="0.2405277640">
        <ele>1611.79</ele>
        <time>2022-07-10T08:04:35Z</time>
      </trkpt>
      <trkpt lat="42.6704522688" lon="0.2403654065">
        <ele>1609.38</ele>
        <time>2022-07-10T08:04:51Z</time>
      </trkpt>
      <trkpt lat="42.6704459824" lon="0.2403503191">
        <ele>1608.90</ele>
        <time>2022-07-10T08:04:52Z</time>
      </trkpt>
      <trkpt lat="42.6704081800" lon="0.2402556874">
        <ele>1607.46</ele>
        <time>2022-07-10T08:04:57Z</time>
      </trkpt>
      <trkpt lat="42.6703724731" lon="0.2400248498">
        <ele>1605.06</ele>
        <time>2022-07-10T08:05:12Z</time>
      </trkpt>
      <trkpt lat="42.6702948567" lon="0.2398546133">
        <ele>1602.66</ele>
        <time>2022-07-10T08:05:25Z</time>
      </trkpt>
      <trkpt lat="42.6702862233" lon="0.2398373466">
        <ele>1602.17</ele>
        <time>2022-07-10T08:05:26Z</time>
      </trkpt>
      <trkpt lat="42.6701918431" lon="0.2396828681">
        <ele>1600.25</ele>
        <time>2022-07-10T08:05:37Z</time>
      </trkpt>
      <trkpt lat="42.6701677870" lon="0.2396565489">
        <ele>1599.77</ele>
        <time>2022-07-10T08:05:39Z</time>
      </trkpt>
      <trkpt lat="42.6701334212" lon="0.2395784296">
        <ele>1598.81</ele>
        <time>2022-07-10T08:05:43Z</time>
      </trkpt>
      <trkpt lat="42.6701280568" lon="0.2394843847">
        <ele>1597.37</ele>
        <time>2022-07-10T08:05:48Z</time>
      </trkpt>
      <trkpt lat="42.6701292302" lon="0.2393801138">
        <ele>1596.41</ele>
        <time>2022-07-10T08:05:53Z</time>
      </trkpt>
      <trkpt lat="42.6701408811" lon="0.2392834704">
        <ele>1595.45</ele>
        <time>2022-07-10T08:05:58Z</time>
      </trkpt>
      <trkpt lat="42.6702261250" lon="0.2390652895">
        <ele>1592.56</ele>
        <time>2022-07-10T08:06:14Z</time>
      </trkpt>
      <trkpt lat="42.6703222655" lon="0.2388634533">
        <ele>1590.16</ele>
        <time>2022-07-10T08:06:29Z</time>
      </trkpt>
      <trkpt lat="42.6703227684" lon="0.2388189454">
        <ele>1589.20</ele>
        <time>2022-07-10T08:06:32Z</time>
      </trkpt>
      <trkpt lat="42.6703257859" lon="0.2387865074">
        <ele>1589.20</ele>
        <time>2022-07-10T08:06:34Z</time>
      </trkpt>
      <trkpt lat="42.6703561284" lon="0.2386968210">
        <ele>1587.75</ele>
        <time>2022-07-10T08:06:41Z</time>
      </trkpt>
      <trkpt lat="42.6703381073" lon="0.2384855133">
        <ele>1585.35</ele>
        <time>2022-07-10T08:06:56Z</time>
      </trkpt>
      <trkpt lat="42.6703216787" lon="0.2384820767">
        <ele>1585.35</ele>
        <time>2022-07-10T08:06:57Z</time>
      </trkpt>
      <trkpt lat="42.6702271309" lon="0.2384602837">
        <ele>1584.39</ele>
        <time>2022-07-10T08:07:03Z</time>
      </trkpt>
      <trkpt lat="42.6702061761" lon="0.2384732757">
        <ele>1583.91</ele>
        <time>2022-07-10T08:07:05Z</time>
      </trkpt>
      <trkpt lat="42.6701670326" lon="0.2385321166">
        <ele>1583.43</ele>
        <time>2022-07-10T08:07:10Z</time>
      </trkpt>
      <trkpt lat="42.6701225247" lon="0.2387466095">
        <ele>1580.54</ele>
        <time>2022-07-10T08:07:25Z</time>
      </trkpt>
      <trkpt lat="42.6700082794" lon="0.2389896009">
        <ele>1579.10</ele>
        <time>2022-07-10T08:07:37Z</time>
      </trkpt>
      <trkpt lat="42.6699733268" lon="0.2390079573">
        <ele>1579.10</ele>
        <time>2022-07-10T08:07:40Z</time>
      </trkpt>
      <trkpt lat="42.6699327584" lon="0.2389647067">
        <ele>1578.62</ele>
        <time>2022-07-10T08:07:43Z</time>
      </trkpt>
      <trkpt lat="42.6699026674" lon="0.2388535626">
        <ele>1577.18</ele>
        <time>2022-07-10T08:07:49Z</time>
      </trkpt>
      <trkpt lat="42.6699512824" lon="0.2386919595">
        <ele>1574.78</ele>
        <time>2022-07-10T08:08:00Z</time>
      </trkpt>
      <trkpt lat="42.6699925214" lon="0.2384420950">
        <ele>1571.89</ele>
        <time>2022-07-10T08:08:17Z</time>
      </trkpt>
      <trkpt lat="42.6700649410" lon="0.2381530032">
        <ele>1568.53</ele>
        <time>2022-07-10T08:08:31Z</time>
      </trkpt>
      <trkpt lat="42.6700868178" lon="0.2379566152">
        <ele>1567.09</ele>
        <time>2022-07-10T08:08:44Z</time>
      </trkpt>
      <trkpt lat="42.6700805314" lon="0.2377102710">
        <ele>1563.72</ele>
        <time>2022-07-10T08:08:56Z</time>
      </trkpt>
      <trkpt lat="42.6700812019" lon="0.2376564592">
        <ele>1563.24</ele>
        <time>2022-07-10T08:08:59Z</time>
      </trkpt>
      <trkpt lat="42.6700660307" lon="0.2375024837">
        <ele>1561.32</ele>
        <time>2022-07-10T08:09:10Z</time>
      </trkpt>
      <trkpt lat="42.6700615883" lon="0.2372802794">
        <ele>1558.43</ele>
        <time>2022-07-10T08:09:24Z</time>
      </trkpt>
      <trkpt lat="42.6700374484" lon="0.2372456621">
        <ele>1558.43</ele>
        <time>2022-07-10T08:09:26Z</time>
      </trkpt>
      <trkpt lat="42.6699649449" lon="0.2372249588">
        <ele>1557.47</ele>
        <time>2022-07-10T08:09:31Z</time>
      </trkpt>
      <trkpt lat="42.6698811259" lon="0.2374010626">
        <ele>1555.55</ele>
        <time>2022-07-10T08:09:44Z</time>
      </trkpt>
      <trkpt lat="42.6698529627" lon="0.2375134639">
        <ele>1554.11</ele>
        <time>2022-07-10T08:09:53Z</time>
      </trkpt>
      <trkpt lat="42.6698395517" lon="0.2376883943">
        <ele>1551.71</ele>
        <time>2022-07-10T08:10:07Z</time>
      </trkpt>
      <trkpt lat="42.6697738376" lon="0.2378595527">
        <ele>1549.78</ele>
        <time>2022-07-10T08:10:14Z</time>
      </trkpt>
      <trkpt lat="42.6697195228" lon="0.2379614767">
        <ele>1548.34</ele>
        <time>2022-07-10T08:10:21Z</time>
      </trkpt>
      <trkpt lat="42.6696494501" lon="0.2381208166">
        <ele>1546.42</ele>
        <time>2022-07-10T08:10:31Z</time>
      </trkpt>
      <trkpt lat="42.6695528906" lon="0.2383040451">
        <ele>1543.53</ele>
        <time>2022-07-10T08:10:46Z</time>
      </trkpt>
      <trkpt lat="42.6694899425" lon="0.2383838408">
        <ele>1541.13</ele>
        <time>2022-07-10T08:10:55Z</time>
      </trkpt>
      <trkpt lat="42.6694046147" lon="0.2385549992">
        <ele>1539.21</ele>
        <time>2022-07-10T08:11:05Z</time>
      </trkpt>
      <trkpt lat="42.6693197060" lon="0.2386632096">
        <ele>1537.29</ele>
        <time>2022-07-10T08:11:13Z</time>
      </trkpt>
      <trkpt lat="42.6692754496" lon="0.2387801372">
        <ele>1535.84</ele>
        <time>2022-07-10T08:11:19Z</time>
      </trkpt>
      <trkpt lat="42.6692534890" lon="0.2388129942">
        <ele>1535.36</ele>
        <time>2022-07-10T08:11:21Z</time>
      </trkpt>
      <trkpt lat="42.6692280080" lon="0.2388403192">
        <ele>1534.88</ele>
        <time>2022-07-10T08:11:23Z</time>
      </trkpt>
      <trkpt lat="42.6690836716" lon="0.2389775310">
        <ele>1532.00</ele>
        <time>2022-07-10T08:11:37Z</time>
      </trkpt>
      <trkpt lat="42.6690549217" lon="0.2390771080">
        <ele>1531.04</ele>
        <time>2022-07-10T08:11:43Z</time>
      </trkpt>
      <trkpt lat="42.6690353081" lon="0.2391398884">
        <ele>1530.08</ele>
        <time>2022-07-10T08:11:47Z</time>
      </trkpt>
      <trkpt lat="42.6689567696" lon="0.2394034155">
        <ele>1527.19</ele>
        <time>2022-07-10T08:11:59Z</time>
      </trkpt>
      <trkpt lat="42.6689036284" lon="0.2396156453">
        <ele>1525.27</ele>
        <time>2022-07-10T08:12:08Z</time>
      </trkpt>
      <trkpt lat="42.6688149478" lon="0.2396818623">
        <ele>1523.35</ele>
        <time>2022-07-10T08:12:16Z</time>
      </trkpt>
      <trkpt lat="42.6688093320" lon="0.2396545373">
        <ele>1522.39</ele>
        <time>2022-07-10T08:12:20Z</time>
      </trkpt>
      <trkpt lat="42.6688376628" lon="0.2394334227">
        <ele>1519.98</ele>
        <time>2022-07-10T08:12:33Z</time>
      </trkpt>
      <trkpt lat="42.6688485593" lon="0.2394077741">
        <ele>1519.98</ele>
        <time>2022-07-10T08:12:34Z</time>
      </trkpt>
      <trkpt lat="42.6689794846" lon="0.2391452529">
        <ele>1516.62</ele>
        <time>2022-07-10T08:12:49Z</time>
      </trkpt>
      <trkpt lat="42.6690491382" lon="0.2390501183">
        <ele>1515.18</ele>
        <time>2022-07-10T08:12:56Z</time>
      </trkpt>
      <trkpt lat="42.6691202167" lon="0.2388713323">
        <ele>1513.25</ele>
        <time>2022-07-10T08:13:06Z</time>
      </trkpt>
      <trkpt lat="42.6691913791" lon="0.2385759540">
        <ele>1509.89</ele>
        <time>2022-07-10T08:13:21Z</time>
      </trkpt>
      <trkpt lat="42.6692083944" lon="0.2384559251">
        <ele>1508.45</ele>
        <time>2022-07-10T08:13:29Z</time>
      </trkpt>
      <trkpt lat="42.6692041196" lon="0.2381818369">
        <ele>1505.56</ele>
        <time>2022-07-10T08:13:42Z</time>
      </trkpt>
      <trkpt lat="42.6692105737" lon="0.2381428611">
        <ele>1505.08</ele>
        <time>2022-07-10T08:13:44Z</time>
      </trkpt>
      <trkpt lat="42.6691783033" lon="0.2378828544">
        <ele>1501.72</ele>
        <time>2022-07-10T08:14:00Z</time>
      </trkpt>
      <trkpt lat="42.6691225637" lon="0.2375979535">
        <ele>1499.31</ele>
        <time>2022-07-10T08:14:16Z</time>
      </trkpt>
      <trkpt lat="42.6690675784" lon="0.2373761684">
        <ele>1495.95</ele>
        <time>2022-07-10T08:14:29Z</time>
      </trkpt>
      <trkpt lat="42.6690667402" lon="0.2371014096">
        <ele>1493.06</ele>
        <time>2022-07-10T08:14:42Z</time>
      </trkpt>
      <trkpt lat="42.6690198854" lon="0.2368886769">
        <ele>1491.14</ele>
        <time>2022-07-10T08:14:54Z</time>
      </trkpt>
      <trkpt lat="42.6690124255" lon="0.2368725836">
        <ele>1491.14</ele>
        <time>2022-07-10T08:14:55Z</time>
      </trkpt>
      <trkpt lat="42.6689543389" lon="0.2366551571">
        <ele>1488.26</ele>
        <time>2022-07-10T08:15:09Z</time>
      </trkpt>
      <trkpt lat="42.6689113397" lon="0.2364079747">
        <ele>1486.34</ele>
        <time>2022-07-10T08:15:23Z</time>
      </trkpt>
      <trkpt lat="42.6688492298" lon="0.2361839265">
        <ele>1482.49</ele>
        <time>2022-07-10T08:15:38Z</time>
      </trkpt>
      <trkpt lat="42.6688394230" lon="0.2361483872">
        <ele>1482.49</ele>
        <time>2022-07-10T08:15:40Z</time>
      </trkpt>
      <trkpt lat="42.6687633991" lon="0.2359111793">
        <ele>1480.09</ele>
        <time>2022-07-10T08:15:54Z</time>
      </trkpt>
      <trkpt lat="42.6686862856" lon="0.2356904000">
        <ele>1476.72</ele>
        <time>2022-07-10T08:16:08Z</time>
      </trkpt>
      <trkpt lat="42.6686512493" lon="0.2355805133">
        <ele>1475.76</ele>
        <time>2022-07-10T08:16:14Z</time>
      </trkpt>
      <trkpt lat="42.6685902290" lon="0.2352748252">
        <ele>1472.88</ele>
        <time>2022-07-10T08:16:30Z</time>
      </trkpt>
      <trkpt lat="42.6685132831" lon="0.2350858133">
        <ele>1470.95</ele>
        <time>2022-07-10T08:16:43Z</time>
      </trkpt>
      <trkpt lat="42.6684733853" lon="0.2348752599">
        <ele>1468.07</ele>
        <time>2022-07-10T08:16:57Z</time>
      </trkpt>
      <trkpt lat="42.6684673503" lon="0.2347599249">
        <ele>1466.15</ele>
        <time>2022-07-10T08:17:03Z</time>
      </trkpt>
      <trkpt lat="42.6684258599" lon="0.2345213760">
        <ele>1463.26</ele>
        <time>2022-07-10T08:17:19Z</time>
      </trkpt>
      <trkpt lat="42.6683695335" lon="0.2342327032">
        <ele>1460.38</ele>
        <time>2022-07-10T08:17:34Z</time>
      </trkpt>
      <trkpt lat="42.6683526859" lon="0.2340436075">
        <ele>1458.46</ele>
        <time>2022-07-10T08:17:44Z</time>
      </trkpt>
      <trkpt lat="42.6684559509" lon="0.2338127699">
        <ele>1454.61</ele>
        <time>2022-07-10T08:17:58Z</time>
      </trkpt>
      <trkpt lat="42.6684689429" lon="0.2337475587">
        <ele>1454.13</ele>
        <time>2022-07-10T08:18:01Z</time>
      </trkpt>
      <trkpt lat="42.6685597189" lon="0.2335484885">
        <ele>1450.77</ele>
        <time>2022-07-10T08:18:14Z</time>
      </trkpt>
      <trkpt lat="42.6685813442" lon="0.2334497496">
        <ele>1449.81</ele>
        <time>2022-07-10T08:18:19Z</time>
      </trkpt>
      <trkpt lat="42.6686055679" lon="0.2332384419">
        <ele>1448.36</ele>
        <time>2022-07-10T08:18:30Z</time>
      </trkpt>
      <trkpt lat="42.6685851160" lon="0.2331046667">
        <ele>1446.44</ele>
        <time>2022-07-10T08:18:37Z</time>
      </trkpt>
      <trkpt lat="42.6685681846" lon="0.2329816204">
        <ele>1445.48</ele>
        <time>2022-07-10T08:18:43Z</time>
      </trkpt>
      <trkpt lat="42.6684997045" lon="0.2327206079">
        <ele>1441.63</ele>
        <time>2022-07-10T08:18:58Z</time>
      </trkpt>
      <trkpt lat="42.6684583817" lon="0.2325371280">
        <ele>1439.23</ele>
        <time>2022-07-10T08:19:09Z</time>
      </trkpt>
      <trkpt lat="42.6684422884" lon="0.2324316837">
        <ele>1438.27</ele>
        <time>2022-07-10T08:19:15Z</time>
      </trkpt>
      <trkpt lat="42.6684338227" lon="0.2322644647">
        <ele>1435.87</ele>
        <time>2022-07-10T08:19:24Z</time>
      </trkpt>
      <trkpt lat="42.6684452221" lon="0.2321169432">
        <ele>1434.91</ele>
        <time>2022-07-10T08:19:32Z</time>
      </trkpt>
      <trkpt lat="42.6683939248" lon="0.2318265941">
        <ele>1432.02</ele>
        <time>2022-07-10T08:19:48Z</time>
      </trkpt>
      <trkpt lat="42.6683557034" lon="0.2316160407">
        <ele>1430.10</ele>
        <time>2022-07-10T08:19:59Z</time>
      </trkpt>
      <trkpt lat="42.6683365088" lon="0.2313538548">
        <ele>1427.70</ele>
        <time>2022-07-10T08:20:14Z</time>
      </trkpt>
      <trkpt lat="42.6683085132" lon="0.2311010566">
        <ele>1426.25</ele>
        <time>2022-07-10T08:20:27Z</time>
      </trkpt>
      <trkpt lat="42.6682834513" lon="0.2308050077">
        <ele>1425.29</ele>
        <time>2022-07-10T08:20:42Z</time>
      </trkpt>
      <trkpt lat="42.6682555396" lon="0.2306390461">
        <ele>1424.81</ele>
        <time>2022-07-10T08:20:52Z</time>
      </trkpt>
      <trkpt lat="42.6682410389" lon="0.2304867469">
        <ele>1424.81</ele>
        <time>2022-07-10T08:20:59Z</time>
      </trkpt>
      <trkpt lat="42.6681200042" lon="0.2302343678">
        <ele>1423.37</ele>
        <time>2022-07-10T08:21:15Z</time>
      </trkpt>
      <trkpt lat="42.6681003068" lon="0.2299496345">
        <ele>1422.41</ele>
        <time>2022-07-10T08:21:29Z</time>
      </trkpt>
      <trkpt lat="42.6680537872" lon="0.2297418471">
        <ele>1420.97</ele>
        <time>2022-07-10T08:21:39Z</time>
      </trkpt>
      <trkpt lat="42.6680660248" lon="0.2294688486">
        <ele>1418.56</ele>
        <time>2022-07-10T08:21:53Z</time>
      </trkpt>
      <trkpt lat="42.6680573076" lon="0.2291672677">
        <ele>1418.08</ele>
        <time>2022-07-10T08:22:07Z</time>
      </trkpt>
      <trkpt lat="42.6680552121" lon="0.2289801836">
        <ele>1418.08</ele>
        <time>2022-07-10T08:22:17Z</time>
      </trkpt>
      <trkpt lat="42.6680550445" lon="0.2286987193">
        <ele>1418.08</ele>
        <time>2022-07-10T08:22:32Z</time>
      </trkpt>
      <trkpt lat="42.6680390351" lon="0.2284026705">
        <ele>1417.60</ele>
        <time>2022-07-10T08:22:48Z</time>
      </trkpt>
      <trkpt lat="42.6680469140" lon="0.2281917818">
        <ele>1417.60</ele>
        <time>2022-07-10T08:22:58Z</time>
      </trkpt>
      <trkpt lat="42.6680604927" lon="0.2279237285">
        <ele>1414.24</ele>
        <time>2022-07-10T08:23:13Z</time>
      </trkpt>
      <trkpt lat="42.6680635102" lon="0.2278870996">
        <ele>1413.76</ele>
        <time>2022-07-10T08:23:16Z</time>
      </trkpt>
      <trkpt lat="42.6679977961" lon="0.2275520749">
        <ele>1411.35</ele>
        <time>2022-07-10T08:23:30Z</time>
      </trkpt>
      <trkpt lat="42.6679521147" lon="0.2273121011">
        <ele>1408.47</ele>
        <time>2022-07-10T08:23:42Z</time>
      </trkpt>
      <trkpt lat="42.6679108758" lon="0.2270580456">
        <ele>1405.10</ele>
        <time>2022-07-10T08:23:56Z</time>
      </trkpt>
      <trkpt lat="42.6678762585" lon="0.2267928421">
        <ele>1402.22</ele>
        <time>2022-07-10T08:24:10Z</time>
      </trkpt>
      <trkpt lat="42.6678698882" lon="0.2267175727">
        <ele>1400.78</ele>
        <time>2022-07-10T08:24:14Z</time>
      </trkpt>
      <trkpt lat="42.6678656135" lon="0.2264433168">
        <ele>1398.86</ele>
        <time>2022-07-10T08:24:29Z</time>
      </trkpt>
      <trkpt lat="42.6679209340" lon="0.2261396404">
        <ele>1395.49</ele>
        <time>2022-07-10T08:24:45Z</time>
      </trkpt>
      <trkpt lat="42.6679198444" lon="0.2260899357">
        <ele>1395.49</ele>
        <time>2022-07-10T08:24:48Z</time>
      </trkpt>
      <trkpt lat="42.6679769251" lon="0.2259171847">
        <ele>1394.53</ele>
        <time>2022-07-10T08:24:57Z</time>
      </trkpt>
      <trkpt lat="42.6680151466" lon="0.2257642988">
        <ele>1393.57</ele>
        <time>2022-07-10T08:25:05Z</time>
      </trkpt>
      <trkpt lat="42.6680304855" lon="0.2256544959">
        <ele>1393.09</ele>
        <time>2022-07-10T08:25:11Z</time>
      </trkpt>
      <trkpt lat="42.6680609956" lon="0.2254100796">
        <ele>1391.65</ele>
        <time>2022-07-10T08:25:24Z</time>
      </trkpt>
      <trkpt lat="42.6680736523" lon="0.2252175473">
        <ele>1389.72</ele>
        <time>2022-07-10T08:25:35Z</time>
      </trkpt>
      <trkpt lat="42.6680875663" lon="0.2249442134">
        <ele>1387.32</ele>
        <time>2022-07-10T08:25:50Z</time>
      </trkpt>
      <trkpt lat="42.6680880692" lon="0.2247225959">
        <ele>1385.88</ele>
        <time>2022-07-10T08:26:02Z</time>
      </trkpt>
      <trkpt lat="42.6680808607" lon="0.2246617433">
        <ele>1385.40</ele>
        <time>2022-07-10T08:26:05Z</time>
      </trkpt>
      <trkpt lat="42.6680829562" lon="0.2245637588">
        <ele>1384.92</ele>
        <time>2022-07-10T08:26:10Z</time>
      </trkpt>
      <trkpt lat="42.6681053359" lon="0.2242594119">
        <ele>1383.96</ele>
        <time>2022-07-10T08:26:25Z</time>
      </trkpt>
      <trkpt lat="42.6681271289" lon="0.2241612598">
        <ele>1383.47</ele>
        <time>2022-07-10T08:26:30Z</time>
      </trkpt>
      <trkpt lat="42.6682308130" lon="0.2238720004">
        <ele>1382.51</ele>
        <time>2022-07-10T08:26:46Z</time>
      </trkpt>
      <trkpt lat="42.6682194974" lon="0.2235875186">
        <ele>1381.55</ele>
        <time>2022-07-10T08:27:01Z</time>
      </trkpt>
      <trkpt lat="42.6682644244" lon="0.2233209740">
        <ele>1380.11</ele>
        <time>2022-07-10T08:27:15Z</time>
      </trkpt>
      <trkpt lat="42.6682655979" lon="0.2232275996">
        <ele>1379.15</ele>
        <time>2022-07-10T08:27:19Z</time>
      </trkpt>
      <trkpt lat="42.6683436334" lon="0.2229306288">
        <ele>1377.71</ele>
        <time>2022-07-10T08:27:36Z</time>
      </trkpt>
      <trkpt lat="42.6683618221" lon="0.2226942591">
        <ele>1374.82</ele>
        <time>2022-07-10T08:27:49Z</time>
      </trkpt>
      <trkpt lat="42.6684065815" lon="0.2224572189">
        <ele>1372.90</ele>
        <time>2022-07-10T08:28:02Z</time>
      </trkpt>
      <trkpt lat="42.6684323978" lon="0.2221941948">
        <ele>1369.54</ele>
        <time>2022-07-10T08:28:16Z</time>
      </trkpt>
      <trkpt lat="42.6684542745" lon="0.2219555620">
        <ele>1367.13</ele>
        <time>2022-07-10T08:28:29Z</time>
      </trkpt>
      <trkpt lat="42.6684669312" lon="0.2218833100">
        <ele>1366.65</ele>
        <time>2022-07-10T08:28:33Z</time>
      </trkpt>
      <trkpt lat="42.6684882212" lon="0.2215929609">
        <ele>1363.29</ele>
        <time>2022-07-10T08:28:49Z</time>
      </trkpt>
      <trkpt lat="42.6685294602" lon="0.2213637158">
        <ele>1359.92</ele>
        <time>2022-07-10T08:29:02Z</time>
      </trkpt>
      <trkpt lat="42.6685853675" lon="0.2211083192">
        <ele>1357.52</ele>
        <time>2022-07-10T08:29:17Z</time>
      </trkpt>
      <trkpt lat="42.6685929112" lon="0.2208431996">
        <ele>1354.63</ele>
        <time>2022-07-10T08:29:31Z</time>
      </trkpt>
      <trkpt lat="42.6685909834" lon="0.2206023876">
        <ele>1352.23</ele>
        <time>2022-07-10T08:29:43Z</time>
      </trkpt>
      <trkpt lat="42.6686030533" lon="0.2205763198">
        <ele>1351.75</ele>
        <time>2022-07-10T08:29:45Z</time>
      </trkpt>
      <trkpt lat="42.6687276922" lon="0.2203726396">
        <ele>1349.35</ele>
        <time>2022-07-10T08:29:59Z</time>
      </trkpt>
      <trkpt lat="42.6688211504" lon="0.2203060873">
        <ele>1347.43</ele>
        <time>2022-07-10T08:30:08Z</time>
      </trkpt>
      <trkpt lat="42.6690128446" lon="0.2202051692">
        <ele>1344.54</ele>
        <time>2022-07-10T08:30:23Z</time>
      </trkpt>
      <trkpt lat="42.6690286025" lon="0.2201292291">
        <ele>1343.58</ele>
        <time>2022-07-10T08:30:29Z</time>
      </trkpt>
      <trkpt lat="42.6689836755" lon="0.2200647723">
        <ele>1343.10</ele>
        <time>2022-07-10T08:30:33Z</time>
      </trkpt>
      <trkpt lat="42.6687773131" lon="0.2200498525">
        <ele>1340.70</ele>
        <time>2022-07-10T08:30:46Z</time>
      </trkpt>
      <trkpt lat="42.6686698571" lon="0.2201019041">
        <ele>1339.25</ele>
        <time>2022-07-10T08:30:55Z</time>
      </trkpt>
      <trkpt lat="42.6684841141" lon="0.2202113718">
        <ele>1336.37</ele>
        <time>2022-07-10T08:31:09Z</time>
      </trkpt>
      <trkpt lat="42.6684631594" lon="0.2202386968">
        <ele>1335.89</ele>
        <time>2022-07-10T08:31:12Z</time>
      </trkpt>
      <trkpt lat="42.6683734730" lon="0.2203553729">
        <ele>1333.49</ele>
        <time>2022-07-10T08:31:20Z</time>
      </trkpt>
      <trkpt lat="42.6683404483" lon="0.2204358391">
        <ele>1332.52</ele>
        <time>2022-07-10T08:31:25Z</time>
      </trkpt>
      <trkpt lat="42.6681863051" lon="0.2206769027">
        <ele>1330.12</ele>
        <time>2022-07-10T08:31:40Z</time>
      </trkpt>
      <trkpt lat="42.6680908352" lon="0.2209038846">
        <ele>1326.76</ele>
        <time>2022-07-10T08:31:54Z</time>
      </trkpt>
      <trkpt lat="42.6680363528" lon="0.2209672518">
        <ele>1326.28</ele>
        <time>2022-07-10T08:32:00Z</time>
      </trkpt>
      <trkpt lat="42.6679879893" lon="0.2209884580">
        <ele>1325.31</ele>
        <time>2022-07-10T08:32:04Z</time>
      </trkpt>
      <trkpt lat="42.6679741591" lon="0.2208281122">
        <ele>1322.91</ele>
        <time>2022-07-10T08:32:16Z</time>
      </trkpt>
      <trkpt lat="42.6679828763" lon="0.2208167128">
        <ele>1322.91</ele>
        <time>2022-07-10T08:32:17Z</time>
      </trkpt>
      <trkpt lat="42.6680753287" lon="0.2206837758">
        <ele>1320.99</ele>
        <time>2022-07-10T08:32:26Z</time>
      </trkpt>
      <trkpt lat="42.6681269612" lon="0.2205714583">
        <ele>1319.55</ele>
        <time>2022-07-10T08:32:33Z</time>
      </trkpt>
      <trkpt lat="42.6681945194" lon="0.2203264553">
        <ele>1316.18</ele>
        <time>2022-07-10T08:32:47Z</time>
      </trkpt>
      <trkpt lat="42.6682319865" lon="0.2200751659">
        <ele>1313.30</ele>
        <time>2022-07-10T08:33:01Z</time>
      </trkpt>
      <trkpt lat="42.6683187392" lon="0.2198436577">
        <ele>1309.93</ele>
        <time>2022-07-10T08:33:15Z</time>
      </trkpt>
      <trkpt lat="42.6683708746" lon="0.2196630277">
        <ele>1307.53</ele>
        <time>2022-07-10T08:33:27Z</time>
      </trkpt>
      <trkpt lat="42.6684700325" lon="0.2194999158">
        <ele>1305.13</ele>
        <time>2022-07-10T08:33:40Z</time>
      </trkpt>
      <trkpt lat="42.6686469745" lon="0.2193979919">
        <ele>1301.76</ele>
        <time>2022-07-10T08:33:54Z</time>
      </trkpt>
      <trkpt lat="42.6688017044" lon="0.2192756161">
        <ele>1299.84</ele>
        <time>2022-07-10T08:34:07Z</time>
      </trkpt>
      <trkpt lat="42.6688318793" lon="0.2192265820">
        <ele>1298.88</ele>
        <time>2022-07-10T08:34:10Z</time>
      </trkpt>
      <trkpt lat="42.6688973419" lon="0.2191038709">
        <ele>1296.96</ele>
        <time>2022-07-10T08:34:18Z</time>
      </trkpt>
      <trkpt lat="42.6690428518" lon="0.2189669944">
        <ele>1294.07</ele>
        <time>2022-07-10T08:34:33Z</time>
      </trkpt>
      <trkpt lat="42.6692043711" lon="0.2188187186">
        <ele>1291.67</ele>
        <time>2022-07-10T08:34:48Z</time>
      </trkpt>
      <trkpt lat="42.6693820674" lon="0.2186907269">
        <ele>1288.30</ele>
        <time>2022-07-10T08:35:02Z</time>
      </trkpt>
      <trkpt lat="42.6695756055" lon="0.2186153736">
        <ele>1285.42</ele>
        <time>2022-07-10T08:35:15Z</time>
      </trkpt>
      <trkpt lat="42.6697360352" lon="0.2185302135">
        <ele>1283.02</ele>
        <time>2022-07-10T08:35:28Z</time>
      </trkpt>
      <trkpt lat="42.6697484404" lon="0.2184950095">
        <ele>1282.54</ele>
        <time>2022-07-10T08:35:30Z</time>
      </trkpt>
      <trkpt lat="42.6698120590" lon="0.2184459753">
        <ele>1281.57</ele>
        <time>2022-07-10T08:35:35Z</time>
      </trkpt>
      <trkpt lat="42.6700629294" lon="0.2184139565">
        <ele>1278.21</ele>
        <time>2022-07-10T08:35:51Z</time>
      </trkpt>
      <trkpt lat="42.6701180823" lon="0.2184038144">
        <ele>1277.25</ele>
        <time>2022-07-10T08:35:55Z</time>
      </trkpt>
      <trkpt lat="42.6702169050" lon="0.2184170578">
        <ele>1275.81</ele>
        <time>2022-07-10T08:36:01Z</time>
      </trkpt>
      <trkpt lat="42.6704259496" lon="0.2184009645">
        <ele>1271.96</ele>
        <time>2022-07-10T08:36:17Z</time>
      </trkpt>
      <trkpt lat="42.6705991197" lon="0.2183454763">
        <ele>1269.56</ele>
        <time>2022-07-10T08:36:32Z</time>
      </trkpt>
      <trkpt lat="42.6707122754" lon="0.2183243539">
        <ele>1268.12</ele>
        <time>2022-07-10T08:36:40Z</time>
      </trkpt>
      <trkpt lat="42.6707640756" lon="0.2183072548">
        <ele>1267.16</ele>
        <time>2022-07-10T08:36:44Z</time>
      </trkpt>
      <trkpt lat="42.6709012035" lon="0.2181975357">
        <ele>1263.79</ele>
        <time>2022-07-10T08:36:57Z</time>
      </trkpt>
      <trkpt lat="42.6710444503" lon="0.2180521935">
        <ele>1261.39</ele>
        <time>2022-07-10T08:37:11Z</time>
      </trkpt>
      <trkpt lat="42.6712011080" lon="0.2179540414">
        <ele>1258.50</ele>
        <time>2022-07-10T08:37:24Z</time>
      </trkpt>
      <trkpt lat="42.6713965740" lon="0.2179026604">
        <ele>1255.14</ele>
        <time>2022-07-10T08:37:39Z</time>
      </trkpt>
      <trkpt lat="42.6715714205" lon="0.2178301569">
        <ele>1253.22</ele>
        <time>2022-07-10T08:37:53Z</time>
      </trkpt>
      <trkpt lat="42.6717426628" lon="0.2177528758">
        <ele>1249.85</ele>
        <time>2022-07-10T08:38:06Z</time>
      </trkpt>
      <trkpt lat="42.6719390508" lon="0.2176631894">
        <ele>1246.97</ele>
        <time>2022-07-10T08:38:22Z</time>
      </trkpt>
      <trkpt lat="42.6719757635" lon="0.2176509518">
        <ele>1246.49</ele>
        <time>2022-07-10T08:38:25Z</time>
      </trkpt>
      <trkpt lat="42.6720112190" lon="0.2176424861">
        <ele>1246.01</ele>
        <time>2022-07-10T08:38:28Z</time>
      </trkpt>
      <trkpt lat="42.6721973810" lon="0.2175857406">
        <ele>1243.12</ele>
        <time>2022-07-10T08:38:43Z</time>
      </trkpt>
      <trkpt lat="42.6722214371" lon="0.2175762691">
        <ele>1242.64</ele>
        <time>2022-07-10T08:38:45Z</time>
      </trkpt>
      <trkpt lat="42.6722770929" lon="0.2175522968">
        <ele>1241.68</ele>
        <time>2022-07-10T08:38:50Z</time>
      </trkpt>
      <trkpt lat="42.6724492572" lon="0.2175626066">
        <ele>1239.28</ele>
        <time>2022-07-10T08:39:04Z</time>
      </trkpt>
      <trkpt lat="42.6724790968" lon="0.2175286599">
        <ele>1238.32</ele>
        <time>2022-07-10T08:39:07Z</time>
      </trkpt>
      <trkpt lat="42.6725265384" lon="0.2174794581">
        <ele>1237.83</ele>
        <time>2022-07-10T08:39:10Z</time>
      </trkpt>
      <trkpt lat="42.6725654304" lon="0.2174416557">
        <ele>1237.83</ele>
        <time>2022-07-10T08:39:13Z</time>
      </trkpt>
      <trkpt lat="42.6725070085" lon="0.2173342835">
        <ele>1236.39</ele>
        <time>2022-07-10T08:39:24Z</time>
      </trkpt>
      <trkpt lat="42.6723805256" lon="0.2173330262">
        <ele>1234.95</ele>
        <time>2022-07-10T08:39:32Z</time>
      </trkpt>
      <trkpt lat="42.6721976325" lon="0.2172583435">
        <ele>1233.51</ele>
        <time>2022-07-10T08:39:44Z</time>
      </trkpt>
      <trkpt lat="42.6721866522" lon="0.2172518056">
        <ele>1233.51</ele>
        <time>2022-07-10T08:39:45Z</time>
      </trkpt>
      <trkpt lat="42.6721347682" lon="0.2171877678">
        <ele>1232.55</ele>
        <time>2022-07-10T08:39:49Z</time>
      </trkpt>
      <trkpt lat="42.6718771085" lon="0.2171912882">
        <ele>1229.18</ele>
        <time>2022-07-10T08:40:08Z</time>
      </trkpt>
      <trkpt lat="42.6718631107" lon="0.2171976585">
        <ele>1229.18</ele>
        <time>2022-07-10T08:40:09Z</time>
      </trkpt>
      <trkpt lat="42.6717687305" lon="0.2172378916">
        <ele>1228.70</ele>
        <time>2022-07-10T08:40:16Z</time>
      </trkpt>
      <trkpt lat="42.6717046928" lon="0.2172668930">
        <ele>1227.74</ele>
        <time>2022-07-10T08:40:21Z</time>
      </trkpt>
      <trkpt lat="42.6716056187" lon="0.2173161786">
        <ele>1226.78</ele>
        <time>2022-07-10T08:40:29Z</time>
      </trkpt>
      <trkpt lat="42.6715837419" lon="0.2173162624">
        <ele>1226.78</ele>
        <time>2022-07-10T08:40:31Z</time>
      </trkpt>
      <trkpt lat="42.6715414133" lon="0.2172504645">
        <ele>1225.82</ele>
        <time>2022-07-10T08:40:40Z</time>
      </trkpt>
      <trkpt lat="42.6716946345" lon="0.2171048708">
        <ele>1222.93</ele>
        <time>2022-07-10T08:40:57Z</time>
      </trkpt>
      <trkpt lat="42.6717322692" lon="0.2170327026">
        <ele>1221.97</ele>
        <time>2022-07-10T08:41:03Z</time>
      </trkpt>
      <trkpt lat="42.6718698163" lon="0.2168333810">
        <ele>1219.57</ele>
        <time>2022-07-10T08:41:19Z</time>
      </trkpt>
      <trkpt lat="42.6720548887" lon="0.2166764718">
        <ele>1217.17</ele>
        <time>2022-07-10T08:41:35Z</time>
      </trkpt>
      <trkpt lat="42.6721835509" lon="0.2166007832">
        <ele>1215.24</ele>
        <time>2022-07-10T08:41:44Z</time>
      </trkpt>
      <trkpt lat="42.6722502708" lon="0.2165608853">
        <ele>1214.76</ele>
        <time>2022-07-10T08:41:48Z</time>
      </trkpt>
      <trkpt lat="42.6724354271" lon="0.2165156230">
        <ele>1212.36</ele>
        <time>2022-07-10T08:42:05Z</time>
      </trkpt>
      <trkpt lat="42.6725914143" lon="0.2163929120">
        <ele>1209.00</ele>
        <time>2022-07-10T08:42:20Z</time>
      </trkpt>
      <trkpt lat="42.6727729663" lon="0.2161956858">
        <ele>1206.11</ele>
        <time>2022-07-10T08:42:36Z</time>
      </trkpt>
      <trkpt lat="42.6728069130" lon="0.2161899023">
        <ele>1206.11</ele>
        <time>2022-07-10T08:42:39Z</time>
      </trkpt>
      <trkpt lat="42.6729456335" lon="0.2161391918">
        <ele>1202.27</ele>
        <time>2022-07-10T08:42:51Z</time>
      </trkpt>
      <trkpt lat="42.6729485672" lon="0.2161312290">
        <ele>1202.27</ele>
        <time>2022-07-10T08:42:52Z</time>
      </trkpt>
      <trkpt lat="42.6729509141" lon="0.2161236014">
        <ele>1205.15</ele>
        <time>2022-07-10T08:42:53Z</time>
      </trkpt>
      <trkpt lat="42.6730309613" lon="0.2161084302">
        <ele>1203.23</ele>
        <time>2022-07-10T08:43:03Z</time>
      </trkpt>
      <trkpt lat="42.6730349846" lon="0.2161971107">
        <ele>1204.19</ele>
        <time>2022-07-10T08:43:09Z</time>
      </trkpt>
      <trkpt lat="42.6730403490" lon="0.2162183169">
        <ele>1200.82</ele>
        <time>2022-07-10T08:43:12Z</time>
      </trkpt>
      <trkpt lat="42.6730390079" lon="0.2162213344">
        <ele>1204.19</ele>
        <time>2022-07-10T08:43:13Z</time>
      </trkpt>
      <trkpt lat="42.6730372477" lon="0.2161308937">
        <ele>1203.71</ele>
        <time>2022-07-10T08:43:36Z</time>
      </trkpt>
      <trkpt lat="42.6730431989" lon="0.2160894871">
        <ele>1204.67</ele>
        <time>2022-07-10T08:43:38Z</time>
      </trkpt>
      <trkpt lat="42.6730487309" lon="0.2160769980">
        <ele>1202.75</ele>
        <time>2022-07-10T08:43:39Z</time>
      </trkpt>
      <trkpt lat="42.6732398383" lon="0.2158654388">
        <ele>1201.79</ele>
        <time>2022-07-10T08:43:57Z</time>
      </trkpt>
      <trkpt lat="42.6733210590" lon="0.2156163286">
        <ele>1199.86</ele>
        <time>2022-07-10T08:44:13Z</time>
      </trkpt>
      <trkpt lat="42.6733383257" lon="0.2150869276">
        <ele>1199.38</ele>
        <time>2022-07-10T08:44:39Z</time>
      </trkpt>
      <trkpt lat="42.6734027825" lon="0.2147007734">
        <ele>1198.90</ele>
        <time>2022-07-10T08:45:02Z</time>
      </trkpt>
      <trkpt lat="42.6733953226" lon="0.2146363165">
        <ele>1198.90</ele>
        <time>2022-07-10T08:45:06Z</time>
      </trkpt>
      <trkpt lat="42.6731676701" lon="0.2145800740">
        <ele>1199.86</ele>
        <time>2022-07-10T08:45:21Z</time>
      </trkpt>
      <trkpt lat="42.6729231700" lon="0.2146115899">
        <ele>1199.86</ele>
        <time>2022-07-10T08:45:38Z</time>
      </trkpt>
      <trkpt lat="42.6728520915" lon="0.2146186307">
        <ele>1199.86</ele>
        <time>2022-07-10T08:45:52Z</time>
      </trkpt>
      <trkpt lat="42.6728190668" lon="0.2146145236">
        <ele>1198.42</ele>
        <time>2022-07-10T08:46:12Z</time>
      </trkpt>
      <trkpt lat="42.6728131156" lon="0.2146045491">
        <ele>1199.38</ele>
        <time>2022-07-10T08:46:19Z</time>
      </trkpt>
      <trkpt lat="42.6727552805" lon="0.2145838458">
        <ele>1197.94</ele>
        <time>2022-07-10T08:46:26Z</time>
      </trkpt>
      <trkpt lat="42.6727287099" lon="0.2145633940">
        <ele>1197.94</ele>
        <time>2022-07-10T08:46:36Z</time>
      </trkpt>
      <trkpt lat="42.6726809330" lon="0.2145448700">
        <ele>1197.94</ele>
        <time>2022-07-10T08:46:40Z</time>
      </trkpt>
      <trkpt lat="42.6724013966" lon="0.2144585364">
        <ele>1196.02</ele>
        <time>2022-07-10T08:46:59Z</time>
      </trkpt>
      <trkpt lat="42.6721983030" lon="0.2143968455">
        <ele>1194.09</ele>
        <time>2022-07-10T08:47:11Z</time>
      </trkpt>
      <trkpt lat="42.6720078662" lon="0.2144629788">
        <ele>1192.65</ele>
        <time>2022-07-10T08:47:25Z</time>
      </trkpt>
      <trkpt lat="42.6718806289" lon="0.2145053074">
        <ele>1192.17</ele>
        <time>2022-07-10T08:47:43Z</time>
      </trkpt>
      <trkpt lat="42.6718080416" lon="0.2144966740">
        <ele>1191.69</ele>
        <time>2022-07-10T08:47:58Z</time>
      </trkpt>
      <trkpt lat="42.6715474483" lon="0.2144236676">
        <ele>1191.21</ele>
        <time>2022-07-10T08:48:14Z</time>
      </trkpt>
      <trkpt lat="42.6712863520" lon="0.2142952569">
        <ele>1190.73</ele>
        <time>2022-07-10T08:48:30Z</time>
      </trkpt>
      <trkpt lat="42.6710659079" lon="0.2142491564">
        <ele>1189.77</ele>
        <time>2022-07-10T08:48:46Z</time>
      </trkpt>
      <trkpt lat="42.6708048116" lon="0.2142168023">
        <ele>1189.29</ele>
        <time>2022-07-10T08:49:04Z</time>
      </trkpt>
      <trkpt lat="42.6705554500" lon="0.2141569555">
        <ele>1188.33</ele>
        <time>2022-07-10T08:49:21Z</time>
      </trkpt>
      <trkpt lat="42.6702541206" lon="0.2141463105">
        <ele>1186.88</ele>
        <time>2022-07-10T08:49:41Z</time>
      </trkpt>
      <trkpt lat="42.6699947007" lon="0.2141086757">
        <ele>1185.44</ele>
        <time>2022-07-10T08:50:00Z</time>
      </trkpt>
      <trkpt lat="42.6696850732" lon="0.2139614895">
        <ele>1184.00</ele>
        <time>2022-07-10T08:50:20Z</time>
      </trkpt>
      <trkpt lat="42.6694373041" lon="0.2139022294">
        <ele>1182.56</ele>
        <time>2022-07-10T08:50:39Z</time>
      </trkpt>
      <trkpt lat="42.6691932231" lon="0.2138024010">
        <ele>1180.64</ele>
        <time>2022-07-10T08:50:56Z</time>
      </trkpt>
      <trkpt lat="42.6689566858" lon="0.2137081046">
        <ele>1179.19</ele>
        <time>2022-07-10T08:51:14Z</time>
      </trkpt>
      <trkpt lat="42.6687193941" lon="0.2136233635">
        <ele>1177.75</ele>
        <time>2022-07-10T08:51:32Z</time>
      </trkpt>
      <trkpt lat="42.6684354991" lon="0.2135086991">
        <ele>1175.83</ele>
        <time>2022-07-10T08:51:50Z</time>
      </trkpt>
      <trkpt lat="42.6681397017" lon="0.2134045959">
        <ele>1173.91</ele>
        <time>2022-07-10T08:52:09Z</time>
      </trkpt>
      <trkpt lat="42.6678510290" lon="0.2132695634">
        <ele>1171.98</ele>
        <time>2022-07-10T08:52:27Z</time>
      </trkpt>
      <trkpt lat="42.6675328519" lon="0.2131239697">
        <ele>1170.06</ele>
        <time>2022-07-10T08:52:47Z</time>
      </trkpt>
      <trkpt lat="42.6671929657" lon="0.2130025160">
        <ele>1168.14</ele>
        <time>2022-07-10T08:53:08Z</time>
      </trkpt>
      <trkpt lat="42.6669550035" lon="0.2129305154">
        <ele>1166.22</ele>
        <time>2022-07-10T08:53:24Z</time>
      </trkpt>
      <trkpt lat="42.6666935720" lon="0.2127898671">
        <ele>1164.29</ele>
        <time>2022-07-10T08:53:41Z</time>
      </trkpt>
      <trkpt lat="42.6663904823" lon="0.2126520686">
        <ele>1162.37</ele>
        <time>2022-07-10T08:54:00Z</time>
      </trkpt>
      <trkpt lat="42.6660843752" lon="0.2125046309">
        <ele>1160.93</ele>
        <time>2022-07-10T08:54:20Z</time>
      </trkpt>
      <trkpt lat="42.6657651924" lon="0.2123528346">
        <ele>1159.49</ele>
        <time>2022-07-10T08:54:40Z</time>
      </trkpt>
      <trkpt lat="42.6654889248" lon="0.2121964283">
        <ele>1157.56</ele>
        <time>2022-07-10T08:54:58Z</time>
      </trkpt>
      <trkpt lat="42.6652002521" lon="0.2120172232">
        <ele>1156.12</ele>
        <time>2022-07-10T08:55:18Z</time>
      </trkpt>
      <trkpt lat="42.6649478730" lon="0.2117880620">
        <ele>1154.68</ele>
        <time>2022-07-10T08:55:37Z</time>
      </trkpt>
      <trkpt lat="42.6647501439" lon="0.2115940209">
        <ele>1153.24</ele>
        <time>2022-07-10T08:55:53Z</time>
      </trkpt>
      <trkpt lat="42.6645309571" lon="0.2113116346">
        <ele>1151.80</ele>
        <time>2022-07-10T08:56:12Z</time>
      </trkpt>
      <trkpt lat="42.6643046457" lon="0.2110223752">
        <ele>1150.84</ele>
        <time>2022-07-10T08:56:30Z</time>
      </trkpt>
      <trkpt lat="42.6641297992" lon="0.2107938007">
        <ele>1150.35</ele>
        <time>2022-07-10T08:56:46Z</time>
      </trkpt>
      <trkpt lat="42.6641013846" lon="0.2107731812">
        <ele>1148.43</ele>
        <time>2022-07-10T08:56:48Z</time>
      </trkpt>
      <trkpt lat="42.6638959441" lon="0.2105117496">
        <ele>1147.95</ele>
        <time>2022-07-10T08:57:06Z</time>
      </trkpt>
      <trkpt lat="42.6636314113" lon="0.2101991046">
        <ele>1146.03</ele>
        <time>2022-07-10T08:57:26Z</time>
      </trkpt>
      <trkpt lat="42.6633945387" lon="0.2099583764">
        <ele>1145.07</ele>
        <time>2022-07-10T08:57:45Z</time>
      </trkpt>
      <trkpt lat="42.6632000785" lon="0.2098001260">
        <ele>1143.63</ele>
        <time>2022-07-10T08:58:00Z</time>
      </trkpt>
      <trkpt lat="42.6629989129" lon="0.2096752357">
        <ele>1142.66</ele>
        <time>2022-07-10T08:58:15Z</time>
      </trkpt>
      <trkpt lat="42.6628319453" lon="0.2095949370">
        <ele>1141.70</ele>
        <time>2022-07-10T08:58:25Z</time>
      </trkpt>
      <trkpt lat="42.6628195401" lon="0.2096080128">
        <ele>1141.70</ele>
        <time>2022-07-10T08:58:26Z</time>
      </trkpt>
      <trkpt lat="42.6628087275" lon="0.2096208371">
        <ele>1141.70</ele>
        <time>2022-07-10T08:58:27Z</time>
      </trkpt>
      <trkpt lat="42.6627958193" lon="0.2096297219">
        <ele>1141.22</ele>
        <time>2022-07-10T08:58:28Z</time>
      </trkpt>
      <trkpt lat="42.6627784688" lon="0.2096330747">
        <ele>1141.22</ele>
        <time>2022-07-10T08:58:29Z</time>
      </trkpt>
      <trkpt lat="42.6627629623" lon="0.2096396126">
        <ele>1141.22</ele>
        <time>2022-07-10T08:58:30Z</time>
      </trkpt>
      <trkpt lat="42.6627466176" lon="0.2096451446">
        <ele>1141.22</ele>
        <time>2022-07-10T08:58:31Z</time>
      </trkpt>
      <trkpt lat="42.6627311949" lon="0.2096508443">
        <ele>1141.22</ele>
        <time>2022-07-10T08:58:32Z</time>
      </trkpt>
      <trkpt lat="42.6627158560" lon="0.2096481621">
        <ele>1140.74</ele>
        <time>2022-07-10T08:58:33Z</time>
      </trkpt>
      <trkpt lat="42.6627006009" lon="0.2096415404">
        <ele>1140.74</ele>
        <time>2022-07-10T08:58:34Z</time>
      </trkpt>
      <trkpt lat="42.6626866870" lon="0.2096334938">
        <ele>1140.74</ele>
        <time>2022-07-10T08:58:35Z</time>
      </trkpt>
      <trkpt lat="42.6624425221" lon="0.2095293067">
        <ele>1139.30</ele>
        <time>2022-07-10T08:58:52Z</time>
      </trkpt>
      <trkpt lat="42.6621723734" lon="0.2094811108">
        <ele>1138.34</ele>
        <time>2022-07-10T08:59:11Z</time>
      </trkpt>
      <trkpt lat="42.6619022246" lon="0.2094449848">
        <ele>1137.38</ele>
        <time>2022-07-10T08:59:29Z</time>
      </trkpt>
      <trkpt lat="42.6616728120" lon="0.2093499340">
        <ele>1136.42</ele>
        <time>2022-07-10T08:59:47Z</time>
      </trkpt>
      <trkpt lat="42.6614953671" lon="0.2093301527">
        <ele>1135.94</ele>
        <time>2022-07-10T09:00:03Z</time>
      </trkpt>
      <trkpt lat="42.6613707282" lon="0.2093677036">
        <ele>1135.45</ele>
        <time>2022-07-10T09:00:16Z</time>
      </trkpt>
      <trkpt lat="42.6613584068" lon="0.2094173245">
        <ele>1135.45</ele>
        <time>2022-07-10T09:00:33Z</time>
      </trkpt>
      <trkpt lat="42.6614103746" lon="0.2094847988">
        <ele>1134.97</ele>
        <time>2022-07-10T09:00:43Z</time>
      </trkpt>
      <trkpt lat="42.6614244562" lon="0.2095025685">
        <ele>1134.97</ele>
        <time>2022-07-10T09:00:44Z</time>
      </trkpt>
      <trkpt lat="42.6615485083" lon="0.2095780056">
        <ele>1134.97</ele>
        <time>2022-07-10T09:01:06Z</time>
      </trkpt>
      <trkpt lat="42.6615056768" lon="0.2096541133">
        <ele>1134.97</ele>
        <time>2022-07-10T09:01:25Z</time>
      </trkpt>
      <trkpt lat="42.6613570657" lon="0.2095352579">
        <ele>1134.49</ele>
        <time>2022-07-10T09:01:52Z</time>
      </trkpt>
      <trkpt lat="42.6614285633" lon="0.2095395327">
        <ele>1134.01</ele>
        <time>2022-07-10T09:02:16Z</time>
      </trkpt>
      <trkpt lat="42.6614353526" lon="0.2094002254">
        <ele>1134.01</ele>
        <time>2022-07-10T09:02:37Z</time>
      </trkpt>
      <trkpt lat="42.6614041720" lon="0.2093901671">
        <ele>1133.05</ele>
        <time>2022-07-10T09:02:53Z</time>
      </trkpt>
      <trkpt lat="42.6614029147" lon="0.2093623392">
        <ele>1133.05</ele>
        <time>2022-07-10T09:03:28Z</time>
      </trkpt>
      <trkpt lat="42.6613770146" lon="0.2093674522">
        <ele>1133.05</ele>
        <time>2022-07-10T09:04:00Z</time>
      </trkpt>
      <trkpt lat="42.6613816246" lon="0.2093381155">
        <ele>1133.53</ele>
        <time>2022-07-10T09:04:31Z</time>
      </trkpt>
      <trkpt lat="42.6613548025" lon="0.2093145624">
        <ele>1133.53</ele>
        <time>2022-07-10T09:05:08Z</time>
      </trkpt>
      <trkpt lat="42.6613599155" lon="0.2092835493">
        <ele>1134.01</ele>
        <time>2022-07-10T09:05:51Z</time>
      </trkpt>
      <trkpt lat="42.6614428964" lon="0.2093153168">
        <ele>1134.49</ele>
        <time>2022-07-10T09:06:23Z</time>
      </trkpt>
      <trkpt lat="42.6614395436" lon="0.2093547955">
        <ele>1134.49</ele>
        <time>2022-07-10T09:07:00Z</time>
      </trkpt>
      <trkpt lat="42.6613713987" lon="0.2092876565">
        <ele>1134.97</ele>
        <time>2022-07-10T09:07:40Z</time>
      </trkpt>
      <trkpt lat="42.6613635197" lon="0.2093065996">
        <ele>1135.45</ele>
        <time>2022-07-10T09:08:15Z</time>
      </trkpt>
      <trkpt lat="42.6612624340" lon="0.2092000656">
        <ele>1135.45</ele>
        <time>2022-07-10T09:08:50Z</time>
      </trkpt>
      <trkpt lat="42.6612848975" lon="0.2092263848">
        <ele>1136.90</ele>
        <time>2022-07-10T09:09:10Z</time>
      </trkpt>
      <trkpt lat="42.6613452472" lon="0.2093340922">
        <ele>1136.90</ele>
        <time>2022-07-10T09:09:42Z</time>
      </trkpt>
      <trkpt lat="42.6613679621" lon="0.2093801089">
        <ele>1136.90</ele>
        <time>2022-07-10T09:10:17Z</time>
      </trkpt>
      <trkpt lat="42.6614018250" lon="0.2094524447">
        <ele>1136.90</ele>
        <time>2022-07-10T09:10:54Z</time>
      </trkpt>
      <trkpt lat="42.6617146377" lon="0.2094434761">
        <ele>1137.86</ele>
        <time>2022-07-10T10:00:31Z</time>
      </trkpt>
      <trkpt lat="42.6617362630" lon="0.2094419673">
        <ele>1137.86</ele>
        <time>2022-07-10T10:00:32Z</time>
      </trkpt>
      <trkpt lat="42.6619643345" lon="0.2094840445">
        <ele>1137.86</ele>
        <time>2022-07-10T10:00:50Z</time>
      </trkpt>
      <trkpt lat="42.6620978583" lon="0.2095034905">
        <ele>1134.49</ele>
        <time>2022-07-10T10:01:00Z</time>
      </trkpt>
      <trkpt lat="42.6622233354" lon="0.2095327433">
        <ele>1132.57</ele>
        <time>2022-07-10T10:01:10Z</time>
      </trkpt>
      <trkpt lat="42.6624390017" lon="0.2096419595">
        <ele>1129.69</ele>
        <time>2022-07-10T10:01:27Z</time>
      </trkpt>
      <trkpt lat="42.6626385748" lon="0.2096800972">
        <ele>1129.69</ele>
        <time>2022-07-10T10:01:41Z</time>
      </trkpt>
      <trkpt lat="42.6628217194" lon="0.2097413689">
        <ele>1127.76</ele>
        <time>2022-07-10T10:01:55Z</time>
      </trkpt>
      <trkpt lat="42.6629915368" lon="0.2097441349">
        <ele>1126.80</ele>
        <time>2022-07-10T10:02:09Z</time>
      </trkpt>
      <trkpt lat="42.6630037744" lon="0.2097375970">
        <ele>1126.80</ele>
        <time>2022-07-10T10:02:15Z</time>
      </trkpt>
      <trkpt lat="42.6630198676" lon="0.2097150497">
        <ele>1126.80</ele>
        <time>2022-07-10T10:02:17Z</time>
      </trkpt>
      <trkpt lat="42.6631192770" lon="0.2097351663">
        <ele>1126.32</ele>
        <time>2022-07-10T10:02:24Z</time>
      </trkpt>
      <trkpt lat="42.6631926186" lon="0.2097935881">
        <ele>1126.32</ele>
        <time>2022-07-10T10:02:30Z</time>
      </trkpt>
      <trkpt lat="42.6633761823" lon="0.2099006251">
        <ele>1126.80</ele>
        <time>2022-07-10T10:02:44Z</time>
      </trkpt>
      <trkpt lat="42.6635626797" lon="0.2100432012">
        <ele>1125.36</ele>
        <time>2022-07-10T10:02:59Z</time>
      </trkpt>
      <trkpt lat="42.6637088601" lon="0.2101640683">
        <ele>1124.88</ele>
        <time>2022-07-10T10:03:11Z</time>
      </trkpt>
      <trkpt lat="42.6638829522" lon="0.2103296947">
        <ele>1126.80</ele>
        <time>2022-07-10T10:03:26Z</time>
      </trkpt>
      <trkpt lat="42.6639081817" lon="0.2103405911">
        <ele>1126.80</ele>
        <time>2022-07-10T10:03:28Z</time>
      </trkpt>
      <trkpt lat="42.6639443915" lon="0.2103044651">
        <ele>1127.28</ele>
        <time>2022-07-10T10:03:32Z</time>
      </trkpt>
      <trkpt lat="42.6639841218" lon="0.2101863641">
        <ele>1127.76</ele>
        <time>2022-07-10T10:03:40Z</time>
      </trkpt>
      <trkpt lat="42.6639832836" lon="0.2100463025">
        <ele>1128.73</ele>
        <time>2022-07-10T10:03:48Z</time>
      </trkpt>
      <trkpt lat="42.6639088523" lon="0.2097913250">
        <ele>1129.69</ele>
        <time>2022-07-10T10:04:03Z</time>
      </trkpt>
      <trkpt lat="42.6638821140" lon="0.2097101882">
        <ele>1130.65</ele>
        <time>2022-07-10T10:04:07Z</time>
      </trkpt>
      <trkpt lat="42.6637913380" lon="0.2096035704">
        <ele>1131.61</ele>
        <time>2022-07-10T10:04:15Z</time>
      </trkpt>
      <trkpt lat="42.6636445709" lon="0.2094172407">
        <ele>1133.53</ele>
        <time>2022-07-10T10:04:30Z</time>
      </trkpt>
      <trkpt lat="42.6634698082" lon="0.2093711402">
        <ele>1135.45</ele>
        <time>2022-07-10T10:04:45Z</time>
      </trkpt>
      <trkpt lat="42.6634310000" lon="0.2092941944">
        <ele>1135.94</ele>
        <time>2022-07-10T10:04:50Z</time>
      </trkpt>
      <trkpt lat="42.6633811276" lon="0.2091478463">
        <ele>1137.38</ele>
        <time>2022-07-10T10:04:59Z</time>
      </trkpt>
      <trkpt lat="42.6633437444" lon="0.2088689804">
        <ele>1138.34</ele>
        <time>2022-07-10T10:05:16Z</time>
      </trkpt>
      <trkpt lat="42.6632673852" lon="0.2086242288">
        <ele>1139.78</ele>
        <time>2022-07-10T10:05:31Z</time>
      </trkpt>
      <trkpt lat="42.6631484460" lon="0.2084310260">
        <ele>1141.70</ele>
        <time>2022-07-10T10:05:46Z</time>
      </trkpt>
      <trkpt lat="42.6629896928" lon="0.2082893718">
        <ele>1143.14</ele>
        <time>2022-07-10T10:06:02Z</time>
      </trkpt>
      <trkpt lat="42.6629057061" lon="0.2081877831">
        <ele>1145.07</ele>
        <time>2022-07-10T10:06:14Z</time>
      </trkpt>
      <trkpt lat="42.6628113259" lon="0.2080367412">
        <ele>1146.03</ele>
        <time>2022-07-10T10:06:26Z</time>
      </trkpt>
      <trkpt lat="42.6626581885" lon="0.2078841906">
        <ele>1148.43</ele>
        <time>2022-07-10T10:06:42Z</time>
      </trkpt>
      <trkpt lat="42.6625788957" lon="0.2078406885">
        <ele>1149.87</ele>
        <time>2022-07-10T10:06:49Z</time>
      </trkpt>
      <trkpt lat="42.6624597888" lon="0.2077797521">
        <ele>1150.84</ele>
        <time>2022-07-10T10:06:59Z</time>
      </trkpt>
      <trkpt lat="42.6623005327" lon="0.2077135351">
        <ele>1152.28</ele>
        <time>2022-07-10T10:07:15Z</time>
      </trkpt>
      <trkpt lat="42.6622800808" lon="0.2077260241">
        <ele>1152.28</ele>
        <time>2022-07-10T10:07:26Z</time>
      </trkpt>
      <trkpt lat="42.6622514986" lon="0.2077299636">
        <ele>1150.84</ele>
        <time>2022-07-10T10:07:56Z</time>
      </trkpt>
      <trkpt lat="42.6622492354" lon="0.2077012137">
        <ele>1151.32</ele>
        <time>2022-07-10T10:08:38Z</time>
      </trkpt>
      <trkpt lat="42.6622322202" lon="0.2077100147">
        <ele>1151.32</ele>
        <time>2022-07-10T10:09:13Z</time>
      </trkpt>
      <trkpt lat="42.6622395962" lon="0.2076971065">
        <ele>1151.32</ele>
        <time>2022-07-10T10:09:42Z</time>
      </trkpt>
      <trkpt lat="42.6622565277" lon="0.2077427879">
        <ele>1151.80</ele>
        <time>2022-07-10T10:10:19Z</time>
      </trkpt>
      <trkpt lat="42.6622578688" lon="0.2077284548">
        <ele>1151.80</ele>
        <time>2022-07-10T10:10:56Z</time>
      </trkpt>
      <trkpt lat="42.6622391772" lon="0.2077223361">
        <ele>1152.28</ele>
        <time>2022-07-10T10:11:26Z</time>
      </trkpt>
      <trkpt lat="42.6622337289" lon="0.2077299636">
        <ele>1152.28</ele>
        <time>2022-07-10T10:11:42Z</time>
      </trkpt>
      <trkpt lat="42.6622514986" lon="0.2077466436">
        <ele>1150.35</ele>
        <time>2022-07-10T10:11:44Z</time>
      </trkpt>
      <trkpt lat="42.6622547675" lon="0.2077452186">
        <ele>1150.35</ele>
        <time>2022-07-10T10:11:45Z</time>
      </trkpt>
      <trkpt lat="42.6622565277" lon="0.2077382617">
        <ele>1160.45</ele>
        <time>2022-07-10T10:11:46Z</time>
      </trkpt>
      <trkpt lat="42.6622601319" lon="0.2077366691">
        <ele>1153.72</ele>
        <time>2022-07-10T10:11:47Z</time>
      </trkpt>
      <trkpt lat="42.6622610539" lon="0.2077115234">
        <ele>1154.20</ele>
        <time>2022-07-10T10:12:05Z</time>
      </trkpt>
      <trkpt lat="42.6622431166" lon="0.2076724637">
        <ele>1154.20</ele>
        <time>2022-07-10T10:12:15Z</time>
      </trkpt>
      <trkpt lat="42.6621516701" lon="0.2074629162">
        <ele>1156.60</ele>
        <time>2022-07-10T10:12:32Z</time>
      </trkpt>
      <trkpt lat="42.6620794181" lon="0.2072464116">
        <ele>1158.53</ele>
        <time>2022-07-10T10:12:47Z</time>
      </trkpt>
      <trkpt lat="42.6619905699" lon="0.2069903444">
        <ele>1159.97</ele>
        <time>2022-07-10T10:13:03Z</time>
      </trkpt>
      <trkpt lat="42.6618899871" lon="0.2067683078">
        <ele>1161.89</ele>
        <time>2022-07-10T10:13:18Z</time>
      </trkpt>
      <trkpt lat="42.6617514342" lon="0.2065584250">
        <ele>1163.81</ele>
        <time>2022-07-10T10:13:35Z</time>
      </trkpt>
      <trkpt lat="42.6616267115" lon="0.2063498832">
        <ele>1168.14</ele>
        <time>2022-07-10T10:13:51Z</time>
      </trkpt>
      <trkpt lat="42.6615457423" lon="0.2061741147">
        <ele>1168.62</ele>
        <time>2022-07-10T10:14:04Z</time>
      </trkpt>
      <trkpt lat="42.6614246238" lon="0.2059961669">
        <ele>1169.58</ele>
        <time>2022-07-10T10:14:19Z</time>
      </trkpt>
      <trkpt lat="42.6613102946" lon="0.2057729568">
        <ele>1171.50</ele>
        <time>2022-07-10T10:14:34Z</time>
      </trkpt>
      <trkpt lat="42.6612409763" lon="0.2056353260">
        <ele>1172.47</ele>
        <time>2022-07-10T10:14:44Z</time>
      </trkpt>
      <trkpt lat="42.6611202769" lon="0.2053991240">
        <ele>1174.39</ele>
        <time>2022-07-10T10:15:00Z</time>
      </trkpt>
      <trkpt lat="42.6610830612" lon="0.2053127065">
        <ele>1174.87</ele>
        <time>2022-07-10T10:15:06Z</time>
      </trkpt>
      <trkpt lat="42.6610642858" lon="0.2052494232">
        <ele>1175.35</ele>
        <time>2022-07-10T10:15:10Z</time>
      </trkpt>
      <trkpt lat="42.6609905250" lon="0.2050091978">
        <ele>1178.23</ele>
        <time>2022-07-10T10:15:27Z</time>
      </trkpt>
      <trkpt lat="42.6609404851" lon="0.2048697229">
        <ele>1179.67</ele>
        <time>2022-07-10T10:15:37Z</time>
      </trkpt>
      <trkpt lat="42.6608405728" lon="0.2046445850">
        <ele>1181.60</ele>
        <time>2022-07-10T10:15:52Z</time>
      </trkpt>
      <trkpt lat="42.6607466117" lon="0.2044062875">
        <ele>1184.48</ele>
        <time>2022-07-10T10:16:08Z</time>
      </trkpt>
      <trkpt lat="42.6606415026" lon="0.2041942254">
        <ele>1186.88</ele>
        <time>2022-07-10T10:16:24Z</time>
      </trkpt>
      <trkpt lat="42.6606225595" lon="0.2040711790">
        <ele>1187.85</ele>
        <time>2022-07-10T10:16:39Z</time>
      </trkpt>
      <trkpt lat="42.6606276724" lon="0.2040541638">
        <ele>1187.85</ele>
        <time>2022-07-10T10:16:42Z</time>
      </trkpt>
      <trkpt lat="42.6607613638" lon="0.2040558401">
        <ele>1188.81</ele>
        <time>2022-07-10T10:16:54Z</time>
      </trkpt>
      <trkpt lat="42.6608213782" lon="0.2041387372">
        <ele>1188.81</ele>
        <time>2022-07-10T10:17:02Z</time>
      </trkpt>
      <trkpt lat="42.6608465239" lon="0.2041811496">
        <ele>1189.29</ele>
        <time>2022-07-10T10:17:06Z</time>
      </trkpt>
      <trkpt lat="42.6609956380" lon="0.2044019289">
        <ele>1192.17</ele>
        <time>2022-07-10T10:17:24Z</time>
      </trkpt>
      <trkpt lat="42.6611281559" lon="0.2045909408">
        <ele>1193.61</ele>
        <time>2022-07-10T10:17:39Z</time>
      </trkpt>
      <trkpt lat="42.6611553971" lon="0.2046789508">
        <ele>1194.09</ele>
        <time>2022-07-10T10:17:45Z</time>
      </trkpt>
      <trkpt lat="42.6612289902" lon="0.2047769353">
        <ele>1195.06</ele>
        <time>2022-07-10T10:17:53Z</time>
      </trkpt>
      <trkpt lat="42.6613330934" lon="0.2048979700">
        <ele>1196.50</ele>
        <time>2022-07-10T10:18:04Z</time>
      </trkpt>
      <trkpt lat="42.6613502763" lon="0.2049210202">
        <ele>1196.50</ele>
        <time>2022-07-10T10:18:06Z</time>
      </trkpt>
      <trkpt lat="42.6613842230" lon="0.2049618401">
        <ele>1196.98</ele>
        <time>2022-07-10T10:18:10Z</time>
      </trkpt>
      <trkpt lat="42.6615319122" lon="0.2051511873">
        <ele>1198.90</ele>
        <time>2022-07-10T10:18:26Z</time>
      </trkpt>
      <trkpt lat="42.6616539527" lon="0.2053008880">
        <ele>1200.82</ele>
        <time>2022-07-10T10:18:40Z</time>
      </trkpt>
      <trkpt lat="42.6617055014" lon="0.2053479105">
        <ele>1201.30</ele>
        <time>2022-07-10T10:18:45Z</time>
      </trkpt>
      <trkpt lat="42.6618558727" lon="0.2055197395">
        <ele>1203.23</ele>
        <time>2022-07-10T10:19:01Z</time>
      </trkpt>
      <trkpt lat="42.6620100159" lon="0.2056743018">
        <ele>1205.15</ele>
        <time>2022-07-10T10:19:16Z</time>
      </trkpt>
      <trkpt lat="42.6620346587" lon="0.2056742180">
        <ele>1205.15</ele>
        <time>2022-07-10T10:19:18Z</time>
      </trkpt>
      <trkpt lat="42.6620751433" lon="0.2056159638">
        <ele>1206.59</ele>
        <time>2022-07-10T10:19:23Z</time>
      </trkpt>
      <trkpt lat="42.6619428769" lon="0.2054287121">
        <ele>1208.03</ele>
        <time>2022-07-10T10:19:39Z</time>
      </trkpt>
      <trkpt lat="42.6617823634" lon="0.2052301448">
        <ele>1211.40</ele>
        <time>2022-07-10T10:19:57Z</time>
      </trkpt>
      <trkpt lat="42.6617764123" lon="0.2052180748">
        <ele>1211.40</ele>
        <time>2022-07-10T10:19:58Z</time>
      </trkpt>
      <trkpt lat="42.6617044117" lon="0.2049812023">
        <ele>1212.84</ele>
        <time>2022-07-10T10:20:15Z</time>
      </trkpt>
      <trkpt lat="42.6616382785" lon="0.2047056891">
        <ele>1215.72</ele>
        <time>2022-07-10T10:20:33Z</time>
      </trkpt>
      <trkpt lat="42.6616274659" lon="0.2046624385">
        <ele>1216.21</ele>
        <time>2022-07-10T10:20:36Z</time>
      </trkpt>
      <trkpt lat="42.6615995541" lon="0.2044247277">
        <ele>1218.13</ele>
        <time>2022-07-10T10:20:51Z</time>
      </trkpt>
      <trkpt lat="42.6615761686" lon="0.2042159345">
        <ele>1219.57</ele>
        <time>2022-07-10T10:21:04Z</time>
      </trkpt>
      <trkpt lat="42.6615640149" lon="0.2040097397">
        <ele>1221.49</ele>
        <time>2022-07-10T10:21:17Z</time>
      </trkpt>
      <trkpt lat="42.6615557168" lon="0.2037631441">
        <ele>1222.93</ele>
        <time>2022-07-10T10:21:32Z</time>
      </trkpt>
      <trkpt lat="42.6615783479" lon="0.2035321388">
        <ele>1224.38</ele>
        <time>2022-07-10T10:21:46Z</time>
      </trkpt>
      <trkpt lat="42.6616379432" lon="0.2032601461">
        <ele>1226.78</ele>
        <time>2022-07-10T10:22:03Z</time>
      </trkpt>
      <trkpt lat="42.6617109496" lon="0.2030290570">
        <ele>1228.70</ele>
        <time>2022-07-10T10:22:18Z</time>
      </trkpt>
      <trkpt lat="42.6617238577" lon="0.2029307373">
        <ele>1229.66</ele>
        <time>2022-07-10T10:22:24Z</time>
      </trkpt>
      <trkpt lat="42.6616831217" lon="0.2026243787">
        <ele>1231.59</ele>
        <time>2022-07-10T10:22:42Z</time>
      </trkpt>
      <trkpt lat="42.6616322435" lon="0.2024033479">
        <ele>1232.55</ele>
        <time>2022-07-10T10:22:55Z</time>
      </trkpt>
      <trkpt lat="42.6615316607" lon="0.2021761145">
        <ele>1233.99</ele>
        <time>2022-07-10T10:23:10Z</time>
      </trkpt>
      <trkpt lat="42.6614821237" lon="0.2019593585">
        <ele>1235.91</ele>
        <time>2022-07-10T10:23:24Z</time>
      </trkpt>
      <trkpt lat="42.6614987198" lon="0.2017687541">
        <ele>1237.35</ele>
        <time>2022-07-10T10:23:35Z</time>
      </trkpt>
      <trkpt lat="42.6615130529" lon="0.2017284371">
        <ele>1238.32</ele>
        <time>2022-07-10T10:23:38Z</time>
      </trkpt>
      <trkpt lat="42.6615624223" lon="0.2016979270">
        <ele>1238.32</ele>
        <time>2022-07-10T10:23:43Z</time>
      </trkpt>
      <trkpt lat="42.6615854725" lon="0.2017089911">
        <ele>1238.80</ele>
        <time>2022-07-10T10:23:46Z</time>
      </trkpt>
      <trkpt lat="42.6616237778" lon="0.2019653935">
        <ele>1241.20</ele>
        <time>2022-07-10T10:24:04Z</time>
      </trkpt>
      <trkpt lat="42.6617027353" lon="0.2021861728">
        <ele>1242.64</ele>
        <time>2022-07-10T10:24:19Z</time>
      </trkpt>
      <trkpt lat="42.6617973670" lon="0.2023928706">
        <ele>1244.56</ele>
        <time>2022-07-10T10:24:34Z</time>
      </trkpt>
      <trkpt lat="42.6618861314" lon="0.2026279829">
        <ele>1246.01</ele>
        <time>2022-07-10T10:24:50Z</time>
      </trkpt>
      <trkpt lat="42.6619499177" lon="0.2028491814">
        <ele>1247.45</ele>
        <time>2022-07-10T10:25:05Z</time>
      </trkpt>
      <trkpt lat="42.6619810145" lon="0.2030857187">
        <ele>1249.37</ele>
        <time>2022-07-10T10:25:21Z</time>
      </trkpt>
      <trkpt lat="42.6620104350" lon="0.2032921650">
        <ele>1250.33</ele>
        <time>2022-07-10T10:25:35Z</time>
      </trkpt>
      <trkpt lat="42.6620652527" lon="0.2035043109">
        <ele>1252.74</ele>
        <time>2022-07-10T10:25:49Z</time>
      </trkpt>
      <trkpt lat="42.6620864589" lon="0.2035295404">
        <ele>1252.74</ele>
        <time>2022-07-10T10:25:51Z</time>
      </trkpt>
      <trkpt lat="42.6621330623" lon="0.2035401016">
        <ele>1253.70</ele>
        <time>2022-07-10T10:25:56Z</time>
      </trkpt>
      <trkpt lat="42.6621570345" lon="0.2034835238">
        <ele>1254.66</ele>
        <time>2022-07-10T10:26:01Z</time>
      </trkpt>
      <trkpt lat="42.6621660031" lon="0.2031547856">
        <ele>1256.58</ele>
        <time>2022-07-10T10:26:21Z</time>
      </trkpt>
      <trkpt lat="42.6621566154" lon="0.2029133867">
        <ele>1258.02</ele>
        <time>2022-07-10T10:26:36Z</time>
      </trkpt>
      <trkpt lat="42.6621587109" lon="0.2026497759">
        <ele>1259.94</ele>
        <time>2022-07-10T10:26:52Z</time>
      </trkpt>
      <trkpt lat="42.6621504966" lon="0.2024465986">
        <ele>1262.35</ele>
        <time>2022-07-10T10:27:05Z</time>
      </trkpt>
      <trkpt lat="42.6621045638" lon="0.2021821495">
        <ele>1264.27</ele>
        <time>2022-07-10T10:27:22Z</time>
      </trkpt>
      <trkpt lat="42.6620895602" lon="0.2019629627">
        <ele>1265.71</ele>
        <time>2022-07-10T10:27:36Z</time>
      </trkpt>
      <trkpt lat="42.6620968524" lon="0.2017224021">
        <ele>1267.64</ele>
        <time>2022-07-10T10:27:51Z</time>
      </trkpt>
      <trkpt lat="42.6620985288" lon="0.2017084882">
        <ele>1267.64</ele>
        <time>2022-07-10T10:27:52Z</time>
      </trkpt>
      <trkpt lat="42.6621557772" lon="0.2016730327">
        <ele>1268.12</ele>
        <time>2022-07-10T10:27:58Z</time>
      </trkpt>
      <trkpt lat="42.6621841080" lon="0.2016959991">
        <ele>1269.08</ele>
        <time>2022-07-10T10:28:02Z</time>
      </trkpt>
      <trkpt lat="42.6621936634" lon="0.2019128390">
        <ele>1270.52</ele>
        <time>2022-07-10T10:28:18Z</time>
      </trkpt>
      <trkpt lat="42.6622371655" lon="0.2021386474">
        <ele>1271.96</ele>
        <time>2022-07-10T10:28:33Z</time>
      </trkpt>
      <trkpt lat="42.6623069029" lon="0.2023826446">
        <ele>1273.40</ele>
        <time>2022-07-10T10:28:48Z</time>
      </trkpt>
      <trkpt lat="42.6623766404" lon="0.2026195172">
        <ele>1275.33</ele>
        <time>2022-07-10T10:29:04Z</time>
      </trkpt>
      <trkpt lat="42.6623981819" lon="0.2028423082">
        <ele>1276.77</ele>
        <time>2022-07-10T10:29:18Z</time>
      </trkpt>
      <trkpt lat="42.6624205615" lon="0.2031070087">
        <ele>1278.69</ele>
        <time>2022-07-10T10:29:35Z</time>
      </trkpt>
      <trkpt lat="42.6624439470" lon="0.2033209149">
        <ele>1280.13</ele>
        <time>2022-07-10T10:29:48Z</time>
      </trkpt>
      <trkpt lat="42.6624864433" lon="0.2033764869">
        <ele>1280.61</ele>
        <time>2022-07-10T10:29:53Z</time>
      </trkpt>
      <trkpt lat="42.6625084877" lon="0.2033787500">
        <ele>1281.09</ele>
        <time>2022-07-10T10:29:55Z</time>
      </trkpt>
      <trkpt lat="42.6625329629" lon="0.2033567894">
        <ele>1281.57</ele>
        <time>2022-07-10T10:29:58Z</time>
      </trkpt>
      <trkpt lat="42.6625433564" lon="0.2032421250">
        <ele>1283.02</ele>
        <time>2022-07-10T10:30:07Z</time>
      </trkpt>
      <trkpt lat="42.6625523251" lon="0.2029136382">
        <ele>1285.42</ele>
        <time>2022-07-10T10:30:27Z</time>
      </trkpt>
      <trkpt lat="42.6625698432" lon="0.2026687190">
        <ele>1286.86</ele>
        <time>2022-07-10T10:30:42Z</time>
      </trkpt>
      <trkpt lat="42.6625738665" lon="0.2024365403">
        <ele>1288.78</ele>
        <time>2022-07-10T10:30:58Z</time>
      </trkpt>
      <trkpt lat="42.6625835057" lon="0.2021778747">
        <ele>1290.71</ele>
        <time>2022-07-10T10:31:14Z</time>
      </trkpt>
      <trkpt lat="42.6625892054" lon="0.2019487135">
        <ele>1292.15</ele>
        <time>2022-07-10T10:31:29Z</time>
      </trkpt>
      <trkpt lat="42.6626008563" lon="0.2018358931">
        <ele>1293.11</ele>
        <time>2022-07-10T10:31:36Z</time>
      </trkpt>
      <trkpt lat="42.6626075618" lon="0.2015764732">
        <ele>1294.55</ele>
        <time>2022-07-10T10:31:51Z</time>
      </trkpt>
      <trkpt lat="42.6626389939" lon="0.2013245132">
        <ele>1296.48</ele>
        <time>2022-07-10T10:32:07Z</time>
      </trkpt>
      <trkpt lat="42.6626922190" lon="0.2010864671">
        <ele>1297.44</ele>
        <time>2022-07-10T10:32:22Z</time>
      </trkpt>
      <trkpt lat="42.6627111621" lon="0.2008160669">
        <ele>1299.84</ele>
        <time>2022-07-10T10:32:39Z</time>
      </trkpt>
      <trkpt lat="42.6627047919" lon="0.2006417233">
        <ele>1301.28</ele>
        <time>2022-07-10T10:32:50Z</time>
      </trkpt>
      <trkpt lat="42.6627365593" lon="0.2004173398">
        <ele>1303.20</ele>
        <time>2022-07-10T10:33:06Z</time>
      </trkpt>
      <trkpt lat="42.6627523173" lon="0.2003478538">
        <ele>1304.17</ele>
        <time>2022-07-10T10:33:11Z</time>
      </trkpt>
      <trkpt lat="42.6627543289" lon="0.2002132405">
        <ele>1305.13</ele>
        <time>2022-07-10T10:33:19Z</time>
      </trkpt>
      <trkpt lat="42.6627756190" lon="0.1999724284">
        <ele>1306.57</ele>
        <time>2022-07-10T10:33:34Z</time>
      </trkpt>
      <trkpt lat="42.6627893653" lon="0.1999247354">
        <ele>1307.53</ele>
        <time>2022-07-10T10:33:37Z</time>
      </trkpt>
      <trkpt lat="42.6628306881" lon="0.1997200493">
        <ele>1308.49</ele>
        <time>2022-07-10T10:33:50Z</time>
      </trkpt>
      <trkpt lat="42.6628393214" lon="0.1996250823">
        <ele>1309.93</ele>
        <time>2022-07-10T10:33:56Z</time>
      </trkpt>
      <trkpt lat="42.6628380641" lon="0.1994079910">
        <ele>1311.38</ele>
        <time>2022-07-10T10:34:10Z</time>
      </trkpt>
      <trkpt lat="42.6628363039" lon="0.1993904728">
        <ele>1311.86</ele>
        <time>2022-07-10T10:34:11Z</time>
      </trkpt>
      <trkpt lat="42.6628648024" lon="0.1993053965">
        <ele>1312.34</ele>
        <time>2022-07-10T10:34:17Z</time>
      </trkpt>
      <trkpt lat="42.6629518904" lon="0.1993136946">
        <ele>1314.26</ele>
        <time>2022-07-10T10:34:27Z</time>
      </trkpt>
      <trkpt lat="42.6629255712" lon="0.1995260082">
        <ele>1315.70</ele>
        <time>2022-07-10T10:34:40Z</time>
      </trkpt>
      <trkpt lat="42.6629502978" lon="0.1998220570">
        <ele>1317.62</ele>
        <time>2022-07-10T10:34:58Z</time>
      </trkpt>
      <trkpt lat="42.6629594341" lon="0.2000745200">
        <ele>1319.55</ele>
        <time>2022-07-10T10:35:14Z</time>
      </trkpt>
      <trkpt lat="42.6629719231" lon="0.2002671361">
        <ele>1320.99</ele>
        <time>2022-07-10T10:35:26Z</time>
      </trkpt>
      <trkpt lat="42.6629798021" lon="0.2004890051">
        <ele>1322.91</ele>
        <time>2022-07-10T10:35:41Z</time>
      </trkpt>
      <trkpt lat="42.6629953086" lon="0.2005390450">
        <ele>1323.39</ele>
        <time>2022-07-10T10:35:45Z</time>
      </trkpt>
      <trkpt lat="42.6630099770" lon="0.2005618438">
        <ele>1323.39</ele>
        <time>2022-07-10T10:35:47Z</time>
      </trkpt>
      <trkpt lat="42.6630320214" lon="0.2005703934">
        <ele>1323.87</ele>
        <time>2022-07-10T10:35:49Z</time>
      </trkpt>
      <trkpt lat="42.6631049439" lon="0.2004927769">
        <ele>1325.31</ele>
        <time>2022-07-10T10:35:57Z</time>
      </trkpt>
      <trkpt lat="42.6631407347" lon="0.2002196107">
        <ele>1327.24</ele>
        <time>2022-07-10T10:36:13Z</time>
      </trkpt>
      <trkpt lat="42.6631513797" lon="0.2001346182">
        <ele>1327.72</ele>
        <time>2022-07-10T10:36:18Z</time>
      </trkpt>
      <trkpt lat="42.6631494518" lon="0.2000370529">
        <ele>1328.68</ele>
        <time>2022-07-10T10:36:24Z</time>
      </trkpt>
      <trkpt lat="42.6631635334" lon="0.1999049541">
        <ele>1330.12</ele>
        <time>2022-07-10T10:36:33Z</time>
      </trkpt>
      <trkpt lat="42.6631973963" lon="0.1997125894">
        <ele>1331.56</ele>
        <time>2022-07-10T10:36:47Z</time>
      </trkpt>
      <trkpt lat="42.6632416528" lon="0.1995240804">
        <ele>1333.01</ele>
        <time>2022-07-10T10:37:01Z</time>
      </trkpt>
      <trkpt lat="42.6632929500" lon="0.1993385050">
        <ele>1334.93</ele>
        <time>2022-07-10T10:37:14Z</time>
      </trkpt>
      <trkpt lat="42.6633742545" lon="0.1991328131">
        <ele>1336.85</ele>
        <time>2022-07-10T10:37:29Z</time>
      </trkpt>
      <trkpt lat="42.6634967141" lon="0.1989833638">
        <ele>1337.33</ele>
        <time>2022-07-10T10:37:43Z</time>
      </trkpt>
      <trkpt lat="42.6636694651" lon="0.1988260355">
        <ele>1339.73</ele>
        <time>2022-07-10T10:38:00Z</time>
      </trkpt>
      <trkpt lat="42.6637994684" lon="0.1986617502">
        <ele>1340.70</ele>
        <time>2022-07-10T10:38:15Z</time>
      </trkpt>
      <trkpt lat="42.6638882328" lon="0.1984994765">
        <ele>1341.66</ele>
        <time>2022-07-10T10:38:27Z</time>
      </trkpt>
      <trkpt lat="42.6639596466" lon="0.1981908549">
        <ele>1341.66</ele>
        <time>2022-07-10T10:38:44Z</time>
      </trkpt>
      <trkpt lat="42.6639645081" lon="0.1981300022">
        <ele>1342.14</ele>
        <time>2022-07-10T10:38:47Z</time>
      </trkpt>
      <trkpt lat="42.6639352553" lon="0.1978544053">
        <ele>1344.06</ele>
        <time>2022-07-10T10:39:03Z</time>
      </trkpt>
      <trkpt lat="42.6639519352" lon="0.1977082249">
        <ele>1345.02</ele>
        <time>2022-07-10T10:39:13Z</time>
      </trkpt>
      <trkpt lat="42.6639699563" lon="0.1977008488">
        <ele>1345.02</ele>
        <time>2022-07-10T10:39:15Z</time>
      </trkpt>
      <trkpt lat="42.6640691143" lon="0.1975332946">
        <ele>1347.91</ele>
        <time>2022-07-10T10:39:32Z</time>
      </trkpt>
      <trkpt lat="42.6641562860" lon="0.1973497309">
        <ele>1349.35</ele>
        <time>2022-07-10T10:39:47Z</time>
      </trkpt>
      <trkpt lat="42.6642080024" lon="0.1972425263">
        <ele>1350.79</ele>
        <time>2022-07-10T10:39:56Z</time>
      </trkpt>
      <trkpt lat="42.6642265264" lon="0.1972059812">
        <ele>1351.27</ele>
        <time>2022-07-10T10:39:59Z</time>
      </trkpt>
      <trkpt lat="42.6642686874" lon="0.1971380878">
        <ele>1352.23</ele>
        <time>2022-07-10T10:40:05Z</time>
      </trkpt>
      <trkpt lat="42.6643865369" lon="0.1970004570">
        <ele>1353.67</ele>
        <time>2022-07-10T10:40:18Z</time>
      </trkpt>
      <trkpt lat="42.6644517481" lon="0.1968480740">
        <ele>1354.63</ele>
        <time>2022-07-10T10:40:28Z</time>
      </trkpt>
      <trkpt lat="42.6645234134" lon="0.1967312302">
        <ele>1356.08</ele>
        <time>2022-07-10T10:40:38Z</time>
      </trkpt>
      <trkpt lat="42.6646313723" lon="0.1965893246">
        <ele>1358.00</ele>
        <time>2022-07-10T10:40:51Z</time>
      </trkpt>
      <trkpt lat="42.6646918897" lon="0.1964967884">
        <ele>1358.00</ele>
        <time>2022-07-10T10:40:59Z</time>
      </trkpt>
      <trkpt lat="42.6647656504" lon="0.1962922700">
        <ele>1360.40</ele>
        <time>2022-07-10T10:41:13Z</time>
      </trkpt>
      <trkpt lat="42.6647760440" lon="0.1961755101">
        <ele>1360.88</ele>
        <time>2022-07-10T10:41:19Z</time>
      </trkpt>
      <trkpt lat="42.6647385769" lon="0.1958903577">
        <ele>1362.33</ele>
        <time>2022-07-10T10:41:35Z</time>
      </trkpt>
      <trkpt lat="42.6646701805" lon="0.1956765354">
        <ele>1363.77</ele>
        <time>2022-07-10T10:41:49Z</time>
      </trkpt>
      <trkpt lat="42.6645956654" lon="0.1954701729">
        <ele>1365.69</ele>
        <time>2022-07-10T10:42:03Z</time>
      </trkpt>
      <trkpt lat="42.6645248383" lon="0.1953668240">
        <ele>1366.65</ele>
        <time>2022-07-10T10:42:12Z</time>
      </trkpt>
      <trkpt lat="42.6644356549" lon="0.1952334680">
        <ele>1367.61</ele>
        <time>2022-07-10T10:42:26Z</time>
      </trkpt>
      <trkpt lat="42.6644441206" lon="0.1952623017">
        <ele>1368.57</ele>
        <time>2022-07-10T10:42:50Z</time>
      </trkpt>
      <trkpt lat="42.6644628122" lon="0.1952865254">
        <ele>1367.61</ele>
        <time>2022-07-10T10:43:06Z</time>
      </trkpt>
      <trkpt lat="42.6644580346" lon="0.1952984277">
        <ele>1369.05</ele>
        <time>2022-07-10T10:43:39Z</time>
      </trkpt>
      <trkpt lat="42.6644534245" lon="0.1952945720">
        <ele>1369.05</ele>
        <time>2022-07-10T10:43:55Z</time>
      </trkpt>
      <trkpt lat="42.6644569449" lon="0.1952747069">
        <ele>1369.05</ele>
        <time>2022-07-10T10:44:18Z</time>
      </trkpt>
      <trkpt lat="42.6644366607" lon="0.1952149440">
        <ele>1369.05</ele>
        <time>2022-07-10T10:44:28Z</time>
      </trkpt>
      <trkpt lat="42.6644124370" lon="0.1951506548">
        <ele>1370.02</ele>
        <time>2022-07-10T10:44:33Z</time>
      </trkpt>
      <trkpt lat="42.6643848605" lon="0.1948898099">
        <ele>1370.98</ele>
        <time>2022-07-10T10:44:49Z</time>
      </trkpt>
      <trkpt lat="42.6643786579" lon="0.1946442202">
        <ele>1372.90</ele>
        <time>2022-07-10T10:45:04Z</time>
      </trkpt>
      <trkpt lat="42.6643909793" lon="0.1946022268">
        <ele>1373.38</ele>
        <time>2022-07-10T10:45:07Z</time>
      </trkpt>
      <trkpt lat="42.6644453779" lon="0.1943464950">
        <ele>1374.82</ele>
        <time>2022-07-10T10:45:24Z</time>
      </trkpt>
      <trkpt lat="42.6644695178" lon="0.1942951139">
        <ele>1375.30</ele>
        <time>2022-07-10T10:45:28Z</time>
      </trkpt>
      <trkpt lat="42.6645144448" lon="0.1940947026">
        <ele>1376.26</ele>
        <time>2022-07-10T10:45:41Z</time>
      </trkpt>
      <trkpt lat="42.6645387523" lon="0.1939951256">
        <ele>1376.75</ele>
        <time>2022-07-10T10:45:47Z</time>
      </trkpt>
      <trkpt lat="42.6645821705" lon="0.1937480271">
        <ele>1378.19</ele>
        <time>2022-07-10T10:46:02Z</time>
      </trkpt>
      <trkpt lat="42.6646183804" lon="0.1935280021">
        <ele>1378.67</ele>
        <time>2022-07-10T10:46:15Z</time>
      </trkpt>
      <trkpt lat="42.6646182965" lon="0.1932772994">
        <ele>1380.11</ele>
        <time>2022-07-10T10:46:30Z</time>
      </trkpt>
      <trkpt lat="42.6646083221" lon="0.1931943186">
        <ele>1380.59</ele>
        <time>2022-07-10T10:46:35Z</time>
      </trkpt>
      <trkpt lat="42.6646414306" lon="0.1929383352">
        <ele>1381.07</ele>
        <time>2022-07-10T10:46:51Z</time>
      </trkpt>
      <trkpt lat="42.6646386646" lon="0.1929277740">
        <ele>1381.55</ele>
        <time>2022-07-10T10:47:09Z</time>
      </trkpt>
      <trkpt lat="42.6646752097" lon="0.1928706933">
        <ele>1381.55</ele>
        <time>2022-07-10T10:47:29Z</time>
      </trkpt>
      <trkpt lat="42.6646884531" lon="0.1928525884">
        <ele>1382.51</ele>
        <time>2022-07-10T10:48:02Z</time>
      </trkpt>
      <trkpt lat="42.6647278480" lon="0.1928525046">
        <ele>1382.51</ele>
        <time>2022-07-10T10:48:16Z</time>
      </trkpt>
      <trkpt lat="42.6648369804" lon="0.1927091740">
        <ele>1383.47</ele>
        <time>2022-07-10T10:48:31Z</time>
      </trkpt>
      <trkpt lat="42.6649579313" lon="0.1925567910">
        <ele>1384.92</ele>
        <time>2022-07-10T10:48:46Z</time>
      </trkpt>
      <trkpt lat="42.6650456060" lon="0.1924393605">
        <ele>1386.84</ele>
        <time>2022-07-10T10:48:56Z</time>
      </trkpt>
      <trkpt lat="42.6651865896" lon="0.1922328304">
        <ele>1388.28</ele>
        <time>2022-07-10T10:49:13Z</time>
      </trkpt>
      <trkpt lat="42.6653715782" lon="0.1921179984">
        <ele>1389.24</ele>
        <time>2022-07-10T10:49:30Z</time>
      </trkpt>
      <trkpt lat="42.6654978935" lon="0.1920715626">
        <ele>1390.20</ele>
        <time>2022-07-10T10:49:41Z</time>
      </trkpt>
      <trkpt lat="42.6656302437" lon="0.1919328421">
        <ele>1391.17</ele>
        <time>2022-07-10T10:49:54Z</time>
      </trkpt>
      <trkpt lat="42.6656856481" lon="0.1917767711">
        <ele>1391.17</ele>
        <time>2022-07-10T10:50:03Z</time>
      </trkpt>
      <trkpt lat="42.6656468399" lon="0.1915476937">
        <ele>1391.65</ele>
        <time>2022-07-10T10:50:17Z</time>
      </trkpt>
      <trkpt lat="42.6653738413" lon="0.1914557442">
        <ele>1390.20</ele>
        <time>2022-07-10T10:50:33Z</time>
      </trkpt>
      <trkpt lat="42.6651746873" lon="0.1913850848">
        <ele>1390.20</ele>
        <time>2022-07-10T10:50:47Z</time>
      </trkpt>
      <trkpt lat="42.6649700012" lon="0.1913427562">
        <ele>1390.20</ele>
        <time>2022-07-10T10:51:03Z</time>
      </trkpt>
      <trkpt lat="42.6647667401" lon="0.1913124975">
        <ele>1390.68</ele>
        <time>2022-07-10T10:51:18Z</time>
      </trkpt>
      <trkpt lat="42.6645541750" lon="0.1912353002">
        <ele>1390.68</ele>
        <time>2022-07-10T10:51:34Z</time>
      </trkpt>
      <trkpt lat="42.6643809211" lon="0.1910974178">
        <ele>1390.68</ele>
        <time>2022-07-10T10:51:49Z</time>
      </trkpt>
      <trkpt lat="42.6642390154" lon="0.1909415983">
        <ele>1391.17</ele>
        <time>2022-07-10T10:52:05Z</time>
      </trkpt>
      <trkpt lat="42.6641478203" lon="0.1907624770">
        <ele>1391.17</ele>
        <time>2022-07-10T10:52:19Z</time>
      </trkpt>
      <trkpt lat="42.6641401928" lon="0.1907501556">
        <ele>1391.17</ele>
        <time>2022-07-10T10:52:20Z</time>
      </trkpt>
      <trkpt lat="42.6640220080" lon="0.1905390993">
        <ele>1391.17</ele>
        <time>2022-07-10T10:52:35Z</time>
      </trkpt>
      <trkpt lat="42.6639727224" lon="0.1904070005">
        <ele>1391.17</ele>
        <time>2022-07-10T10:52:44Z</time>
      </trkpt>
      <trkpt lat="42.6639288850" lon="0.1901798509">
        <ele>1392.13</ele>
        <time>2022-07-10T10:52:58Z</time>
      </trkpt>
      <trkpt lat="42.6638988778" lon="0.1899306569">
        <ele>1392.61</ele>
        <time>2022-07-10T10:53:12Z</time>
      </trkpt>
      <trkpt lat="42.6638792641" lon="0.1896659564">
        <ele>1392.61</ele>
        <time>2022-07-10T10:53:27Z</time>
      </trkpt>
      <trkpt lat="42.6638834551" lon="0.1893858332">
        <ele>1393.57</ele>
        <time>2022-07-10T10:53:42Z</time>
      </trkpt>
      <trkpt lat="42.6638702955" lon="0.1891510561">
        <ele>1394.53</ele>
        <time>2022-07-10T10:53:56Z</time>
      </trkpt>
      <trkpt lat="42.6638717204" lon="0.1890027802">
        <ele>1395.97</ele>
        <time>2022-07-10T10:54:05Z</time>
      </trkpt>
      <trkpt lat="42.6638785098" lon="0.1889714319">
        <ele>1396.45</ele>
        <time>2022-07-10T10:54:07Z</time>
      </trkpt>
      <trkpt lat="42.6638800185" lon="0.1887862757">
        <ele>1397.41</ele>
        <time>2022-07-10T10:54:18Z</time>
      </trkpt>
      <trkpt lat="42.6638536993" lon="0.1885255147">
        <ele>1399.34</ele>
        <time>2022-07-10T10:54:34Z</time>
      </trkpt>
      <trkpt lat="42.6638495084" lon="0.1884800009">
        <ele>1399.34</ele>
        <time>2022-07-10T10:54:37Z</time>
      </trkpt>
      <trkpt lat="42.6638460718" lon="0.1882723812">
        <ele>1401.74</ele>
        <time>2022-07-10T10:54:51Z</time>
      </trkpt>
      <trkpt lat="42.6638514362" lon="0.1881636679">
        <ele>1402.22</ele>
        <time>2022-07-10T10:54:58Z</time>
      </trkpt>
      <trkpt lat="42.6638791803" lon="0.1879080199">
        <ele>1403.18</ele>
        <time>2022-07-10T10:55:14Z</time>
      </trkpt>
      <trkpt lat="42.6638557948" lon="0.1876965445">
        <ele>1404.62</ele>
        <time>2022-07-10T10:55:27Z</time>
      </trkpt>
      <trkpt lat="42.6638477482" lon="0.1876198500">
        <ele>1405.10</ele>
        <time>2022-07-10T10:55:32Z</time>
      </trkpt>
      <trkpt lat="42.6638659369" lon="0.1873487793">
        <ele>1406.55</ele>
        <time>2022-07-10T10:55:48Z</time>
      </trkpt>
      <trkpt lat="42.6639366802" lon="0.1871368848">
        <ele>1407.03</ele>
        <time>2022-07-10T10:56:04Z</time>
      </trkpt>
      <trkpt lat="42.6639593113" lon="0.1871239766">
        <ele>1407.51</ele>
        <time>2022-07-10T10:56:18Z</time>
      </trkpt>
      <trkpt lat="42.6639746502" lon="0.1870396547">
        <ele>1407.99</ele>
        <time>2022-07-10T10:56:30Z</time>
      </trkpt>
      <trkpt lat="42.6641469821" lon="0.1867738646">
        <ele>1407.99</ele>
        <time>2022-07-10T10:56:49Z</time>
      </trkpt>
      <trkpt lat="42.6643146202" lon="0.1866193023">
        <ele>1408.47</ele>
        <time>2022-07-10T10:57:04Z</time>
      </trkpt>
      <trkpt lat="42.6644803304" lon="0.1865858585">
        <ele>1408.95</ele>
        <time>2022-07-10T10:57:19Z</time>
      </trkpt>
      <trkpt lat="42.6644902211" lon="0.1865890436">
        <ele>1410.39</ele>
        <time>2022-07-10T10:57:35Z</time>
      </trkpt>
      <trkpt lat="42.6644878741" lon="0.1865667477">
        <ele>1410.39</ele>
        <time>2022-07-10T10:58:01Z</time>
      </trkpt>
      <trkpt lat="42.6644976810" lon="0.1865763031">
        <ele>1410.39</ele>
        <time>2022-07-10T10:58:09Z</time>
      </trkpt>
      <trkpt lat="42.6646567695" lon="0.1867137663">
        <ele>1410.87</ele>
        <time>2022-07-10T10:58:25Z</time>
      </trkpt>
      <trkpt lat="42.6647506468" lon="0.1868496370">
        <ele>1412.31</ele>
        <time>2022-07-10T10:58:38Z</time>
      </trkpt>
      <trkpt lat="42.6648353878" lon="0.1869482081">
        <ele>1412.79</ele>
        <time>2022-07-10T10:58:50Z</time>
      </trkpt>
      <trkpt lat="42.6649745274" lon="0.1869982481">
        <ele>1413.28</ele>
        <time>2022-07-10T10:59:03Z</time>
      </trkpt>
      <trkpt lat="42.6651803032" lon="0.1870230585">
        <ele>1414.24</ele>
        <time>2022-07-10T10:59:17Z</time>
      </trkpt>
      <trkpt lat="42.6653227117" lon="0.1870181132">
        <ele>1414.72</ele>
        <time>2022-07-10T10:59:28Z</time>
      </trkpt>
      <trkpt lat="42.6655993145" lon="0.1869958173">
        <ele>1416.16</ele>
        <time>2022-07-10T10:59:46Z</time>
      </trkpt>
      <trkpt lat="42.6657382865" lon="0.1869578473">
        <ele>1415.20</ele>
        <time>2022-07-10T10:59:56Z</time>
      </trkpt>
      <trkpt lat="42.6658254582" lon="0.1867970824">
        <ele>1414.72</ele>
        <time>2022-07-10T11:00:06Z</time>
      </trkpt>
      <trkpt lat="42.6658016536" lon="0.1865084097">
        <ele>1414.24</ele>
        <time>2022-07-10T11:00:21Z</time>
      </trkpt>
      <trkpt lat="42.6656076964" lon="0.1863481477">
        <ele>1415.68</ele>
        <time>2022-07-10T11:00:38Z</time>
      </trkpt>
      <trkpt lat="42.6655618474" lon="0.1863118540">
        <ele>1415.68</ele>
        <time>2022-07-10T11:00:43Z</time>
      </trkpt>
      <trkpt lat="42.6655327622" lon="0.1862978563">
        <ele>1415.68</ele>
        <time>2022-07-10T11:00:46Z</time>
      </trkpt>
      <trkpt lat="42.6653987356" lon="0.1861806773">
        <ele>1416.16</ele>
        <time>2022-07-10T11:00:59Z</time>
      </trkpt>
      <trkpt lat="42.6652705763" lon="0.1860809326">
        <ele>1416.64</ele>
        <time>2022-07-10T11:01:11Z</time>
      </trkpt>
      <trkpt lat="42.6651351247" lon="0.1858041622">
        <ele>1417.60</ele>
        <time>2022-07-10T11:01:29Z</time>
      </trkpt>
      <trkpt lat="42.6650622021" lon="0.1855666190">
        <ele>1418.08</ele>
        <time>2022-07-10T11:01:44Z</time>
      </trkpt>
      <trkpt lat="42.6650389004" lon="0.1853168383">
        <ele>1418.56</ele>
        <time>2022-07-10T11:01:58Z</time>
      </trkpt>
      <trkpt lat="42.6650332846" lon="0.1850926224">
        <ele>1419.04</ele>
        <time>2022-07-10T11:02:11Z</time>
      </trkpt>
      <trkpt lat="42.6650284231" lon="0.1850416604">
        <ele>1419.04</ele>
        <time>2022-07-10T11:02:14Z</time>
      </trkpt>
      <trkpt lat="42.6650109049" lon="0.1849805564">
        <ele>1419.04</ele>
        <time>2022-07-10T11:02:18Z</time>
      </trkpt>
      <trkpt lat="42.6650031935" lon="0.1849323604">
        <ele>1419.04</ele>
        <time>2022-07-10T11:02:21Z</time>
      </trkpt>
      <trkpt lat="42.6649966557" lon="0.1848601084">
        <ele>1419.04</ele>
        <time>2022-07-10T11:02:25Z</time>
      </trkpt>
      <trkpt lat="42.6649641339" lon="0.1846845914">
        <ele>1419.52</ele>
        <time>2022-07-10T11:02:36Z</time>
      </trkpt>
      <trkpt lat="42.6649249904" lon="0.1844331343">
        <ele>1420.49</ele>
        <time>2022-07-10T11:02:52Z</time>
      </trkpt>
      <trkpt lat="42.6649539918" lon="0.1841748878">
        <ele>1420.97</ele>
        <time>2022-07-10T11:03:08Z</time>
      </trkpt>
      <trkpt lat="42.6648628805" lon="0.1840603910">
        <ele>1420.97</ele>
        <time>2022-07-10T11:03:20Z</time>
      </trkpt>
      <trkpt lat="42.6647589449" lon="0.1840717904">
        <ele>1420.97</ele>
        <time>2022-07-10T11:03:28Z</time>
      </trkpt>
      <trkpt lat="42.6645017881" lon="0.1841064915">
        <ele>1422.41</ele>
        <time>2022-07-10T11:03:45Z</time>
      </trkpt>
      <trkpt lat="42.6643452980" lon="0.1842069067">
        <ele>1423.85</ele>
        <time>2022-07-10T11:03:58Z</time>
      </trkpt>
      <trkpt lat="42.6642348245" lon="0.1842246763">
        <ele>1423.85</ele>
        <time>2022-07-10T11:04:07Z</time>
      </trkpt>
      <trkpt lat="42.6641259436" lon="0.1841623150">
        <ele>1425.29</ele>
        <time>2022-07-10T11:04:18Z</time>
      </trkpt>
      <trkpt lat="42.6640355866" lon="0.1839553658">
        <ele>1426.25</ele>
        <time>2022-07-10T11:04:34Z</time>
      </trkpt>
      <trkpt lat="42.6640008856" lon="0.1836801879">
        <ele>1427.70</ele>
        <time>2022-07-10T11:04:52Z</time>
      </trkpt>
      <trkpt lat="42.6639345009" lon="0.1834702212">
        <ele>1428.66</ele>
        <time>2022-07-10T11:05:06Z</time>
      </trkpt>
      <trkpt lat="42.6638604887" lon="0.1832550578">
        <ele>1430.10</ele>
        <time>2022-07-10T11:05:21Z</time>
      </trkpt>
      <trkpt lat="42.6637920085" lon="0.1830604300">
        <ele>1431.54</ele>
        <time>2022-07-10T11:05:35Z</time>
      </trkpt>
      <trkpt lat="42.6637231931" lon="0.1828857511">
        <ele>1432.50</ele>
        <time>2022-07-10T11:05:48Z</time>
      </trkpt>
      <trkpt lat="42.6636413019" lon="0.1826777123">
        <ele>1433.46</ele>
        <time>2022-07-10T11:06:02Z</time>
      </trkpt>
      <trkpt lat="42.6635584049" lon="0.1824672427">
        <ele>1433.94</ele>
        <time>2022-07-10T11:06:16Z</time>
      </trkpt>
      <trkpt lat="42.6634658687" lon="0.1822417695">
        <ele>1435.39</ele>
        <time>2022-07-10T11:06:32Z</time>
      </trkpt>
      <trkpt lat="42.6633789483" lon="0.1820283663">
        <ele>1436.35</ele>
        <time>2022-07-10T11:06:47Z</time>
      </trkpt>
      <trkpt lat="42.6633615140" lon="0.1819901448">
        <ele>1436.83</ele>
        <time>2022-07-10T11:06:50Z</time>
      </trkpt>
      <trkpt lat="42.6632485259" lon="0.1817887276">
        <ele>1438.75</ele>
        <time>2022-07-10T11:07:06Z</time>
      </trkpt>
      <trkpt lat="42.6631293353" lon="0.1816503424">
        <ele>1440.19</ele>
        <time>2022-07-10T11:07:19Z</time>
      </trkpt>
      <trkpt lat="42.6631025970" lon="0.1816057507">
        <ele>1440.67</ele>
        <time>2022-07-10T11:07:23Z</time>
      </trkpt>
      <trkpt lat="42.6629752759" lon="0.1814247854">
        <ele>1442.60</ele>
        <time>2022-07-10T11:07:38Z</time>
      </trkpt>
      <trkpt lat="42.6628589351" lon="0.1813112944">
        <ele>1443.56</ele>
        <time>2022-07-10T11:07:52Z</time>
      </trkpt>
      <trkpt lat="42.6627458632" lon="0.1811697241">
        <ele>1445.00</ele>
        <time>2022-07-10T11:08:06Z</time>
      </trkpt>
      <trkpt lat="42.6627047081" lon="0.1811039262">
        <ele>1445.48</ele>
        <time>2022-07-10T11:08:11Z</time>
      </trkpt>
      <trkpt lat="42.6625348907" lon="0.1809032634">
        <ele>1447.40</ele>
        <time>2022-07-10T11:08:29Z</time>
      </trkpt>
      <trkpt lat="42.6624160353" lon="0.1806988288">
        <ele>1448.84</ele>
        <time>2022-07-10T11:08:45Z</time>
      </trkpt>
      <trkpt lat="42.6623799093" lon="0.1806411613">
        <ele>1449.32</ele>
        <time>2022-07-10T11:08:50Z</time>
      </trkpt>
      <trkpt lat="42.6623326354" lon="0.1805862598">
        <ele>1450.29</ele>
        <time>2022-07-10T11:08:55Z</time>
      </trkpt>
      <trkpt lat="42.6622774825" lon="0.1804817375">
        <ele>1451.25</ele>
        <time>2022-07-10T11:09:04Z</time>
      </trkpt>
      <trkpt lat="42.6621743850" lon="0.1803082321">
        <ele>1452.69</ele>
        <time>2022-07-10T11:09:19Z</time>
      </trkpt>
      <trkpt lat="42.6620804239" lon="0.1800838485">
        <ele>1454.13</ele>
        <time>2022-07-10T11:09:36Z</time>
      </trkpt>
      <trkpt lat="42.6620145421" lon="0.1798697747">
        <ele>1455.57</ele>
        <time>2022-07-10T11:09:51Z</time>
      </trkpt>
      <trkpt lat="42.6618880592" lon="0.1796898153">
        <ele>1457.50</ele>
        <time>2022-07-10T11:10:07Z</time>
      </trkpt>
      <trkpt lat="42.6617549546" lon="0.1795703731">
        <ele>1458.94</ele>
        <time>2022-07-10T11:10:21Z</time>
      </trkpt>
      <trkpt lat="42.6615888253" lon="0.1793849654">
        <ele>1460.86</ele>
        <time>2022-07-10T11:10:40Z</time>
      </trkpt>
      <trkpt lat="42.6615129691" lon="0.1792078558">
        <ele>1462.30</ele>
        <time>2022-07-10T11:10:54Z</time>
      </trkpt>
      <trkpt lat="42.6614889968" lon="0.1791428123">
        <ele>1462.78</ele>
        <time>2022-07-10T11:10:59Z</time>
      </trkpt>
      <trkpt lat="42.6613797806" lon="0.1790079474">
        <ele>1463.74</ele>
        <time>2022-07-10T11:11:12Z</time>
      </trkpt>
      <trkpt lat="42.6612788625" lon="0.1789241284">
        <ele>1465.19</ele>
        <time>2022-07-10T11:11:23Z</time>
      </trkpt>
      <trkpt lat="42.6611056924" lon="0.1788072009">
        <ele>1467.11</ele>
        <time>2022-07-10T11:11:40Z</time>
      </trkpt>
      <trkpt lat="42.6610036008" lon="0.1787695661">
        <ele>1467.59</ele>
        <time>2022-07-10T11:11:49Z</time>
      </trkpt>
      <trkpt lat="42.6609263197" lon="0.1787326857">
        <ele>1468.55</ele>
        <time>2022-07-10T11:12:00Z</time>
      </trkpt>
      <trkpt lat="42.6608285867" lon="0.1786093879">
        <ele>1469.99</ele>
        <time>2022-07-10T11:12:14Z</time>
      </trkpt>
      <trkpt lat="42.6607468631" lon="0.1783877704">
        <ele>1471.92</ele>
        <time>2022-07-10T11:12:30Z</time>
      </trkpt>
      <trkpt lat="42.6607697457" lon="0.1781761274">
        <ele>1473.84</ele>
        <time>2022-07-10T11:12:45Z</time>
      </trkpt>
      <trkpt lat="42.6608504634" lon="0.1779992692">
        <ele>1475.76</ele>
        <time>2022-07-10T11:13:01Z</time>
      </trkpt>
      <trkpt lat="42.6608527265" lon="0.1779931504">
        <ele>1475.76</ele>
        <time>2022-07-10T11:13:02Z</time>
      </trkpt>
      <trkpt lat="42.6608906128" lon="0.1779355668">
        <ele>1476.24</ele>
        <time>2022-07-10T11:13:08Z</time>
      </trkpt>
      <trkpt lat="42.6609477773" lon="0.1778522506">
        <ele>1477.68</ele>
        <time>2022-07-10T11:13:15Z</time>
      </trkpt>
      <trkpt lat="42.6610772777" lon="0.1776752248">
        <ele>1479.13</ele>
        <time>2022-07-10T11:13:30Z</time>
      </trkpt>
      <trkpt lat="42.6611140743" lon="0.1776124444">
        <ele>1480.09</ele>
        <time>2022-07-10T11:13:35Z</time>
      </trkpt>
      <trkpt lat="42.6612476818" lon="0.1773883123">
        <ele>1480.57</ele>
        <time>2022-07-10T11:13:52Z</time>
      </trkpt>
      <trkpt lat="42.6612999011" lon="0.1771480870">
        <ele>1482.01</ele>
        <time>2022-07-10T11:14:08Z</time>
      </trkpt>
      <trkpt lat="42.6613600831" lon="0.1769654453">
        <ele>1483.45</ele>
        <time>2022-07-10T11:14:22Z</time>
      </trkpt>
      <trkpt lat="42.6614322513" lon="0.1767496951">
        <ele>1484.41</ele>
        <time>2022-07-10T11:14:37Z</time>
      </trkpt>
      <trkpt lat="42.6614823751" lon="0.1765450928">
        <ele>1484.89</ele>
        <time>2022-07-10T11:14:49Z</time>
      </trkpt>
      <trkpt lat="42.6615135558" lon="0.1764653809">
        <ele>1485.37</ele>
        <time>2022-07-10T11:14:55Z</time>
      </trkpt>
      <trkpt lat="42.6616174914" lon="0.1762388181">
        <ele>1486.34</ele>
        <time>2022-07-10T11:15:09Z</time>
      </trkpt>
      <trkpt lat="42.6617186610" lon="0.1759881992">
        <ele>1486.34</ele>
        <time>2022-07-10T11:15:24Z</time>
      </trkpt>
      <trkpt lat="42.6617528591" lon="0.1759111695">
        <ele>1486.34</ele>
        <time>2022-07-10T11:15:29Z</time>
      </trkpt>
      <trkpt lat="42.6617730595" lon="0.1758344751">
        <ele>1486.34</ele>
        <time>2022-07-10T11:15:34Z</time>
      </trkpt>
      <trkpt lat="42.6618160587" lon="0.1755923219">
        <ele>1488.26</ele>
        <time>2022-07-10T11:15:51Z</time>
      </trkpt>
      <trkpt lat="42.6618133765" lon="0.1753581315">
        <ele>1489.70</ele>
        <time>2022-07-10T11:16:07Z</time>
      </trkpt>
      <trkpt lat="42.6617632527" lon="0.1751342509">
        <ele>1490.18</ele>
        <time>2022-07-10T11:16:20Z</time>
      </trkpt>
      <trkpt lat="42.6617398672" lon="0.1750542037">
        <ele>1490.18</ele>
        <time>2022-07-10T11:16:25Z</time>
      </trkpt>
      <trkpt lat="42.6617337484" lon="0.1750031579">
        <ele>1490.66</ele>
        <time>2022-07-10T11:16:28Z</time>
      </trkpt>
      <trkpt lat="42.6617027353" lon="0.1749124657">
        <ele>1490.66</ele>
        <time>2022-07-10T11:16:34Z</time>
      </trkpt>
      <trkpt lat="42.6616849657" lon="0.1748354360">
        <ele>1491.62</ele>
        <time>2022-07-10T11:16:39Z</time>
      </trkpt>
      <trkpt lat="42.6616864745" lon="0.1746228710">
        <ele>1494.03</ele>
        <time>2022-07-10T11:16:53Z</time>
      </trkpt>
      <trkpt lat="42.6617925055" lon="0.1744227950">
        <ele>1496.91</ele>
        <time>2022-07-10T11:17:09Z</time>
      </trkpt>
      <trkpt lat="42.6618191600" lon="0.1743345335">
        <ele>1498.35</ele>
        <time>2022-07-10T11:17:17Z</time>
      </trkpt>
      <trkpt lat="42.6618302241" lon="0.1741513889">
        <ele>1500.76</ele>
        <time>2022-07-10T11:17:31Z</time>
      </trkpt>
      <trkpt lat="42.6618504245" lon="0.1740830764">
        <ele>1501.24</ele>
        <time>2022-07-10T11:17:36Z</time>
      </trkpt>
      <trkpt lat="42.6618906576" lon="0.1738878619">
        <ele>1503.64</ele>
        <time>2022-07-10T11:17:51Z</time>
      </trkpt>
      <trkpt lat="42.6619821880" lon="0.1736746263">
        <ele>1504.12</ele>
        <time>2022-07-10T11:18:05Z</time>
      </trkpt>
      <trkpt lat="42.6620846149" lon="0.1734714489">
        <ele>1505.56</ele>
        <time>2022-07-10T11:18:20Z</time>
      </trkpt>
      <trkpt lat="42.6621950883" lon="0.1732486580">
        <ele>1507.48</ele>
        <time>2022-07-10T11:18:37Z</time>
      </trkpt>
      <trkpt lat="42.6623012032" lon="0.1730397809">
        <ele>1508.93</ele>
        <time>2022-07-10T11:18:53Z</time>
      </trkpt>
      <trkpt lat="42.6623771433" lon="0.1728060097">
        <ele>1509.89</ele>
        <time>2022-07-10T11:19:09Z</time>
      </trkpt>
      <trkpt lat="42.6624718588" lon="0.1725754235">
        <ele>1511.81</ele>
        <time>2022-07-10T11:19:26Z</time>
      </trkpt>
      <trkpt lat="42.6625542529" lon="0.1724045165">
        <ele>1513.25</ele>
        <time>2022-07-10T11:19:39Z</time>
      </trkpt>
      <trkpt lat="42.6625587791" lon="0.1723908540">
        <ele>1513.25</ele>
        <time>2022-07-10T11:19:40Z</time>
      </trkpt>
      <trkpt lat="42.6625557616" lon="0.1723645348">
        <ele>1513.73</ele>
        <time>2022-07-10T11:19:42Z</time>
      </trkpt>
      <trkpt lat="42.6625921391" lon="0.1722790394">
        <ele>1514.69</ele>
        <time>2022-07-10T11:19:49Z</time>
      </trkpt>
      <trkpt lat="42.6625970006" lon="0.1722567435">
        <ele>1514.69</ele>
        <time>2022-07-10T11:19:51Z</time>
      </trkpt>
      <trkpt lat="42.6626492199" lon="0.1721840724">
        <ele>1515.18</ele>
        <time>2022-07-10T11:19:57Z</time>
      </trkpt>
      <trkpt lat="42.6627379842" lon="0.1720532309">
        <ele>1516.62</ele>
        <time>2022-07-10T11:20:08Z</time>
      </trkpt>
      <trkpt lat="42.6627530716" lon="0.1720167696">
        <ele>1517.10</ele>
        <time>2022-07-10T11:20:11Z</time>
      </trkpt>
      <trkpt lat="42.6627666503" lon="0.1719972398">
        <ele>1517.10</ele>
        <time>2022-07-10T11:20:13Z</time>
      </trkpt>
      <trkpt lat="42.6628562529" lon="0.1718777977">
        <ele>1518.06</ele>
        <time>2022-07-10T11:20:25Z</time>
      </trkpt>
      <trkpt lat="42.6629778743" lon="0.1717555057">
        <ele>1519.50</ele>
        <time>2022-07-10T11:20:38Z</time>
      </trkpt>
      <trkpt lat="42.6630218793" lon="0.1717255823">
        <ele>1520.46</ele>
        <time>2022-07-10T11:20:49Z</time>
      </trkpt>
      <trkpt lat="42.6630328596" lon="0.1717076451">
        <ele>1520.46</ele>
        <time>2022-07-10T11:20:51Z</time>
      </trkpt>
      <trkpt lat="42.6630772837" lon="0.1716385782">
        <ele>1520.94</ele>
        <time>2022-07-10T11:20:57Z</time>
      </trkpt>
      <trkpt lat="42.6631225459" lon="0.1713996939">
        <ele>1521.42</ele>
        <time>2022-07-10T11:21:11Z</time>
      </trkpt>
      <trkpt lat="42.6631421596" lon="0.1713369135">
        <ele>1521.90</ele>
        <time>2022-07-10T11:21:15Z</time>
      </trkpt>
      <trkpt lat="42.6631533913" lon="0.1712913159">
        <ele>1522.39</ele>
        <time>2022-07-10T11:21:18Z</time>
      </trkpt>
      <trkpt lat="42.6632123161" lon="0.1710996218">
        <ele>1524.31</ele>
        <time>2022-07-10T11:21:32Z</time>
      </trkpt>
      <trkpt lat="42.6632184349" lon="0.1710884739">
        <ele>1524.31</ele>
        <time>2022-07-10T11:21:33Z</time>
      </trkpt>
      <trkpt lat="42.6632757671" lon="0.1710246876">
        <ele>1524.79</ele>
        <time>2022-07-10T11:21:40Z</time>
      </trkpt>
      <trkpt lat="42.6632952131" lon="0.1710116956">
        <ele>1524.79</ele>
        <time>2022-07-10T11:21:42Z</time>
      </trkpt>
      <trkpt lat="42.6634365320" lon="0.1708459016">
        <ele>1526.71</ele>
        <time>2022-07-10T11:21:58Z</time>
      </trkpt>
      <trkpt lat="42.6635496877" lon="0.1706827059">
        <ele>1527.67</ele>
        <time>2022-07-10T11:22:12Z</time>
      </trkpt>
      <trkpt lat="42.6636587363" lon="0.1705213543">
        <ele>1529.11</ele>
        <time>2022-07-10T11:22:27Z</time>
      </trkpt>
      <trkpt lat="42.6637353469" lon="0.1703952067">
        <ele>1531.04</ele>
        <time>2022-07-10T11:22:39Z</time>
      </trkpt>
      <trkpt lat="42.6638403721" lon="0.1702498645">
        <ele>1532.96</ele>
        <time>2022-07-10T11:22:54Z</time>
      </trkpt>
      <trkpt lat="42.6638615783" lon="0.1702413149">
        <ele>1533.92</ele>
        <time>2022-07-10T11:22:56Z</time>
      </trkpt>
      <trkpt lat="42.6639074273" lon="0.1702382974">
        <ele>1534.40</ele>
        <time>2022-07-10T11:23:01Z</time>
      </trkpt>
      <trkpt lat="42.6640919130" lon="0.1703313366">
        <ele>1535.84</ele>
        <time>2022-07-10T11:23:19Z</time>
      </trkpt>
      <trkpt lat="42.6641315594" lon="0.1703009102">
        <ele>1536.32</ele>
        <time>2022-07-10T11:23:23Z</time>
      </trkpt>
      <trkpt lat="42.6642012130" lon="0.1703750901">
        <ele>1536.80</ele>
        <time>2022-07-10T11:23:37Z</time>
      </trkpt>
      <trkpt lat="42.6642083377" lon="0.1704007387">
        <ele>1535.36</ele>
        <time>2022-07-10T11:23:55Z</time>
      </trkpt>
      <trkpt lat="42.6642012969" lon="0.1704004034">
        <ele>1527.67</ele>
        <time>2022-07-10T11:24:01Z</time>
      </trkpt>
      <trkpt lat="42.6642008778" lon="0.1704012416">
        <ele>1533.44</ele>
        <time>2022-07-10T11:24:02Z</time>
      </trkpt>
      <trkpt lat="42.6641987823" lon="0.1704011578">
        <ele>1535.36</ele>
        <time>2022-07-10T11:24:04Z</time>
      </trkpt>
      <trkpt lat="42.6641691942" lon="0.1703817118">
        <ele>1535.36</ele>
        <time>2022-07-10T11:24:38Z</time>
      </trkpt>
      <trkpt lat="42.6641800907" lon="0.1703818794">
        <ele>1535.84</ele>
        <time>2022-07-10T11:25:15Z</time>
      </trkpt>
      <trkpt lat="42.6641862094" lon="0.1704160776">
        <ele>1535.84</ele>
        <time>2022-07-10T11:25:48Z</time>
      </trkpt>
      <trkpt lat="42.6641937532" lon="0.1704167482">
        <ele>1544.50</ele>
        <time>2022-07-10T11:25:52Z</time>
      </trkpt>
      <trkpt lat="42.6641940884" lon="0.1704164967">
        <ele>1536.32</ele>
        <time>2022-07-10T11:25:53Z</time>
      </trkpt>
      <trkpt lat="42.6641981956" lon="0.1704149041">
        <ele>1532.48</ele>
        <time>2022-07-10T11:25:58Z</time>
      </trkpt>
      <trkpt lat="42.6641968545" lon="0.1704128925">
        <ele>1534.88</ele>
        <time>2022-07-10T11:25:59Z</time>
      </trkpt>
      <trkpt lat="42.6641950943" lon="0.1704104617">
        <ele>1535.84</ele>
        <time>2022-07-10T11:26:01Z</time>
      </trkpt>
      <trkpt lat="42.6642040629" lon="0.1704249624">
        <ele>1536.32</ele>
        <time>2022-07-10T11:26:40Z</time>
      </trkpt>
      <trkpt lat="42.6641906518" lon="0.1704158261">
        <ele>1536.80</ele>
        <time>2022-07-10T11:27:16Z</time>
      </trkpt>
      <trkpt lat="42.6641854551" lon="0.1704149880">
        <ele>1538.73</ele>
        <time>2022-07-10T11:27:35Z</time>
      </trkpt>
      <trkpt lat="42.6642100140" lon="0.1704127248">
        <ele>1537.77</ele>
        <time>2022-07-10T11:27:56Z</time>
      </trkpt>
      <trkpt lat="42.6642175578" lon="0.1703703124">
        <ele>1537.77</ele>
        <time>2022-07-10T11:28:24Z</time>
      </trkpt>
      <trkpt lat="42.6641858742" lon="0.1702697296">
        <ele>1537.77</ele>
        <time>2022-07-10T11:28:37Z</time>
      </trkpt>
      <trkpt lat="42.6642045658" lon="0.1701938733">
        <ele>1537.77</ele>
        <time>2022-07-10T11:28:42Z</time>
      </trkpt>
      <trkpt lat="42.6642561983" lon="0.1700700726">
        <ele>1539.69</ele>
        <time>2022-07-10T11:28:51Z</time>
      </trkpt>
      <trkpt lat="42.6643330604" lon="0.1699409075">
        <ele>1540.17</ele>
        <time>2022-07-10T11:29:03Z</time>
      </trkpt>
      <trkpt lat="42.6643774845" lon="0.1698544901">
        <ele>1540.65</ele>
        <time>2022-07-10T11:29:10Z</time>
      </trkpt>
      <trkpt lat="42.6643736288" lon="0.1697520632">
        <ele>1541.13</ele>
        <time>2022-07-10T11:29:16Z</time>
      </trkpt>
      <trkpt lat="42.6643680129" lon="0.1697043702">
        <ele>1541.13</ele>
        <time>2022-07-10T11:29:19Z</time>
      </trkpt>
      <trkpt lat="42.6643057354" lon="0.1695011090">
        <ele>1543.05</ele>
        <time>2022-07-10T11:29:33Z</time>
      </trkpt>
      <trkpt lat="42.6643026341" lon="0.1694433577">
        <ele>1543.05</ele>
        <time>2022-07-10T11:29:37Z</time>
      </trkpt>
      <trkpt lat="42.6643263549" lon="0.1693566889">
        <ele>1543.05</ele>
        <time>2022-07-10T11:29:43Z</time>
      </trkpt>
      <trkpt lat="42.6644075755" lon="0.1691970136">
        <ele>1544.50</ele>
        <time>2022-07-10T11:29:56Z</time>
      </trkpt>
      <trkpt lat="42.6645359024" lon="0.1691106800">
        <ele>1545.94</ele>
        <time>2022-07-10T11:30:09Z</time>
      </trkpt>
      <trkpt lat="42.6646392513" lon="0.1690492406">
        <ele>1547.38</ele>
        <time>2022-07-10T11:30:20Z</time>
      </trkpt>
      <trkpt lat="42.6646949910" lon="0.1688846201">
        <ele>1548.82</ele>
        <time>2022-07-10T11:30:33Z</time>
      </trkpt>
      <trkpt lat="42.6646754611" lon="0.1687214244">
        <ele>1549.30</ele>
        <time>2022-07-10T11:30:43Z</time>
      </trkpt>
      <trkpt lat="42.6646814961" lon="0.1686597336">
        <ele>1549.78</ele>
        <time>2022-07-10T11:30:47Z</time>
      </trkpt>
      <trkpt lat="42.6647726074" lon="0.1684173290">
        <ele>1550.74</ele>
        <time>2022-07-10T11:31:03Z</time>
      </trkpt>
      <trkpt lat="42.6648645569" lon="0.1682406384">
        <ele>1552.19</ele>
        <time>2022-07-10T11:31:17Z</time>
      </trkpt>
      <trkpt lat="42.6649691630" lon="0.1680880040">
        <ele>1553.63</ele>
        <time>2022-07-10T11:31:31Z</time>
      </trkpt>
      <trkpt lat="42.6651188638" lon="0.1679564919">
        <ele>1554.59</ele>
        <time>2022-07-10T11:31:47Z</time>
      </trkpt>
      <trkpt lat="42.6651497092" lon="0.1679222938">
        <ele>1555.07</ele>
        <time>2022-07-10T11:31:51Z</time>
      </trkpt>
      <trkpt lat="42.6652300078" lon="0.1676888578">
        <ele>1556.03</ele>
        <time>2022-07-10T11:32:08Z</time>
      </trkpt>
      <trkpt lat="42.6652301755" lon="0.1674942300">
        <ele>1556.99</ele>
        <time>2022-07-10T11:32:21Z</time>
      </trkpt>
      <trkpt lat="42.6652360428" lon="0.1672804914">
        <ele>1558.43</ele>
        <time>2022-07-10T11:32:35Z</time>
      </trkpt>
      <trkpt lat="42.6652197819" lon="0.1671340596">
        <ele>1559.40</ele>
        <time>2022-07-10T11:32:46Z</time>
      </trkpt>
      <trkpt lat="42.6651594322" lon="0.1669200696">
        <ele>1561.80</ele>
        <time>2022-07-10T11:33:02Z</time>
      </trkpt>
      <trkpt lat="42.6651737653" lon="0.1668256894">
        <ele>1562.28</ele>
        <time>2022-07-10T11:33:08Z</time>
      </trkpt>
      <trkpt lat="42.6652512979" lon="0.1665900741">
        <ele>1563.72</ele>
        <time>2022-07-10T11:33:25Z</time>
      </trkpt>
      <trkpt lat="42.6652676426" lon="0.1665431354">
        <ele>1564.20</ele>
        <time>2022-07-10T11:33:28Z</time>
      </trkpt>
      <trkpt lat="42.6652956381" lon="0.1664138865">
        <ele>1565.64</ele>
        <time>2022-07-10T11:33:37Z</time>
      </trkpt>
      <trkpt lat="42.6653493661" lon="0.1662171632">
        <ele>1566.61</ele>
        <time>2022-07-10T11:33:52Z</time>
      </trkpt>
      <trkpt lat="42.6653644536" lon="0.1661642734">
        <ele>1567.09</ele>
        <time>2022-07-10T11:33:56Z</time>
      </trkpt>
      <trkpt lat="42.6653747633" lon="0.1661370322">
        <ele>1567.09</ele>
        <time>2022-07-10T11:33:58Z</time>
      </trkpt>
      <trkpt lat="42.6654581632" lon="0.1659922767">
        <ele>1568.53</ele>
        <time>2022-07-10T11:34:11Z</time>
      </trkpt>
      <trkpt lat="42.6654854044" lon="0.1659446675">
        <ele>1569.01</ele>
        <time>2022-07-10T11:34:15Z</time>
      </trkpt>
      <trkpt lat="42.6655641943" lon="0.1657855790">
        <ele>1570.45</ele>
        <time>2022-07-10T11:34:28Z</time>
      </trkpt>
      <trkpt lat="42.6655808743" lon="0.1657481119">
        <ele>1570.93</ele>
        <time>2022-07-10T11:34:31Z</time>
      </trkpt>
      <trkpt lat="42.6656569820" lon="0.1656184439">
        <ele>1571.41</ele>
        <time>2022-07-10T11:34:41Z</time>
      </trkpt>
      <trkpt lat="42.6656976342" lon="0.1655442640">
        <ele>1571.41</ele>
        <time>2022-07-10T11:34:47Z</time>
      </trkpt>
      <trkpt lat="42.6657967921" lon="0.1654145122">
        <ele>1573.33</ele>
        <time>2022-07-10T11:35:00Z</time>
      </trkpt>
      <trkpt lat="42.6659263764" lon="0.1652807370">
        <ele>1574.30</ele>
        <time>2022-07-10T11:35:13Z</time>
      </trkpt>
      <trkpt lat="42.6659611613" lon="0.1650658250">
        <ele>1575.74</ele>
        <time>2022-07-10T11:35:27Z</time>
      </trkpt>
      <trkpt lat="42.6659513544" lon="0.1649389230">
        <ele>1576.70</ele>
        <time>2022-07-10T11:35:35Z</time>
      </trkpt>
      <trkpt lat="42.6660058368" lon="0.1647689380">
        <ele>1578.14</ele>
        <time>2022-07-10T11:35:48Z</time>
      </trkpt>
      <trkpt lat="42.6660580561" lon="0.1646455564">
        <ele>1578.62</ele>
        <time>2022-07-10T11:35:57Z</time>
      </trkpt>
      <trkpt lat="42.6660624146" lon="0.1646023896">
        <ele>1579.10</ele>
        <time>2022-07-10T11:36:00Z</time>
      </trkpt>
      <trkpt lat="42.6661411207" lon="0.1644283812">
        <ele>1580.54</ele>
        <time>2022-07-10T11:36:16Z</time>
      </trkpt>
      <trkpt lat="42.6661535259" lon="0.1644034032">
        <ele>1580.54</ele>
        <time>2022-07-10T11:36:18Z</time>
      </trkpt>
      <trkpt lat="42.6662088465" lon="0.1642017346">
        <ele>1581.99</ele>
        <time>2022-07-10T11:36:31Z</time>
      </trkpt>
      <trkpt lat="42.6661750674" lon="0.1639968809">
        <ele>1583.91</ele>
        <time>2022-07-10T11:36:45Z</time>
      </trkpt>
      <trkpt lat="42.6661649253" lon="0.1639113855">
        <ele>1584.39</ele>
        <time>2022-07-10T11:36:51Z</time>
      </trkpt>
      <trkpt lat="42.6662203297" lon="0.1636759378">
        <ele>1586.79</ele>
        <time>2022-07-10T11:37:07Z</time>
      </trkpt>
      <trkpt lat="42.6662462298" lon="0.1635765284">
        <ele>1587.75</ele>
        <time>2022-07-10T11:37:14Z</time>
      </trkpt>
      <trkpt lat="42.6663322281" lon="0.1634017657">
        <ele>1589.68</ele>
        <time>2022-07-10T11:37:28Z</time>
      </trkpt>
      <trkpt lat="42.6664476469" lon="0.1632589381">
        <ele>1592.08</ele>
        <time>2022-07-10T11:37:44Z</time>
      </trkpt>
      <trkpt lat="42.6665602997" lon="0.1631641388">
        <ele>1594.00</ele>
        <time>2022-07-10T11:37:57Z</time>
      </trkpt>
      <trkpt lat="42.6665681787" lon="0.1631564274">
        <ele>1594.00</ele>
        <time>2022-07-10T11:37:58Z</time>
      </trkpt>
      <trkpt lat="42.6665982697" lon="0.1631192118">
        <ele>1594.48</ele>
        <time>2022-07-10T11:38:02Z</time>
      </trkpt>
      <trkpt lat="42.6666719466" lon="0.1630570181">
        <ele>1595.45</ele>
        <time>2022-07-10T11:38:10Z</time>
      </trkpt>
      <trkpt lat="42.6668170374" lon="0.1628693473">
        <ele>1596.41</ele>
        <time>2022-07-10T11:38:25Z</time>
      </trkpt>
      <trkpt lat="42.6668323763" lon="0.1628343947">
        <ele>1596.41</ele>
        <time>2022-07-10T11:38:27Z</time>
      </trkpt>
      <trkpt lat="42.6668127626" lon="0.1626260206">
        <ele>1596.89</ele>
        <time>2022-07-10T11:38:39Z</time>
      </trkpt>
      <trkpt lat="42.6667722780" lon="0.1625499967">
        <ele>1596.89</ele>
        <time>2022-07-10T11:38:44Z</time>
      </trkpt>
      <trkpt lat="42.6667043008" lon="0.1625214145">
        <ele>1597.85</ele>
        <time>2022-07-10T11:38:51Z</time>
      </trkpt>
      <trkpt lat="42.6665227488" lon="0.1625729632">
        <ele>1599.29</ele>
        <time>2022-07-10T11:39:06Z</time>
      </trkpt>
      <trkpt lat="42.6665105950" lon="0.1625753101">
        <ele>1599.29</ele>
        <time>2022-07-10T11:39:07Z</time>
      </trkpt>
      <trkpt lat="42.6662037335" lon="0.1627060678">
        <ele>1599.77</ele>
        <time>2022-07-10T11:39:26Z</time>
      </trkpt>
      <trkpt lat="42.6660327427" lon="0.1628817525">
        <ele>1600.25</ele>
        <time>2022-07-10T11:39:42Z</time>
      </trkpt>
      <trkpt lat="42.6659071818" lon="0.1627473906">
        <ele>1598.33</ele>
        <time>2022-07-10T11:39:58Z</time>
      </trkpt>
      <trkpt lat="42.6658974588" lon="0.1627181377">
        <ele>1598.33</ele>
        <time>2022-07-10T11:40:00Z</time>
      </trkpt>
      <trkpt lat="42.6659449004" lon="0.1624798402">
        <ele>1598.81</ele>
        <time>2022-07-10T11:40:14Z</time>
      </trkpt>
      <trkpt lat="42.6660889015" lon="0.1622386090">
        <ele>1600.25</ele>
        <time>2022-07-10T11:40:30Z</time>
      </trkpt>
      <trkpt lat="42.6662228443" lon="0.1620299835">
        <ele>1601.21</ele>
        <time>2022-07-10T11:40:46Z</time>
      </trkpt>
      <trkpt lat="42.6663765684" lon="0.1618380379">
        <ele>1602.17</ele>
        <time>2022-07-10T11:41:03Z</time>
      </trkpt>
      <trkpt lat="42.6665066555" lon="0.1616832241">
        <ele>1603.14</ele>
        <time>2022-07-10T11:41:18Z</time>
      </trkpt>
      <trkpt lat="42.6666303724" lon="0.1615222078">
        <ele>1604.58</ele>
        <time>2022-07-10T11:41:32Z</time>
      </trkpt>
      <trkpt lat="42.6667456236" lon="0.1613253169">
        <ele>1605.06</ele>
        <time>2022-07-10T11:41:46Z</time>
      </trkpt>
      <trkpt lat="42.6668212283" lon="0.1611674856">
        <ele>1606.98</ele>
        <time>2022-07-10T11:41:58Z</time>
      </trkpt>
      <trkpt lat="42.6669212244" lon="0.1609308645">
        <ele>1608.42</ele>
        <time>2022-07-10T11:42:13Z</time>
      </trkpt>
      <trkpt lat="42.6669341326" lon="0.1609033719">
        <ele>1608.90</ele>
        <time>2022-07-10T11:42:15Z</time>
      </trkpt>
      <trkpt lat="42.6670095697" lon="0.1607111748">
        <ele>1609.38</ele>
        <time>2022-07-10T11:42:29Z</time>
      </trkpt>
      <trkpt lat="42.6670549158" lon="0.1605584566">
        <ele>1610.83</ele>
        <time>2022-07-10T11:42:39Z</time>
      </trkpt>
      <trkpt lat="42.6670881081" lon="0.1603940874">
        <ele>1611.31</ele>
        <time>2022-07-10T11:42:50Z</time>
      </trkpt>
      <trkpt lat="42.6671822369" lon="0.1601610705">
        <ele>1613.23</ele>
        <time>2022-07-10T11:43:06Z</time>
      </trkpt>
      <trkpt lat="42.6672299299" lon="0.1600225177">
        <ele>1614.19</ele>
        <time>2022-07-10T11:43:16Z</time>
      </trkpt>
      <trkpt lat="42.6672530640" lon="0.1599638443">
        <ele>1614.67</ele>
        <time>2022-07-10T11:43:20Z</time>
      </trkpt>
      <trkpt lat="42.6672590990" lon="0.1599346753">
        <ele>1614.67</ele>
        <time>2022-07-10T11:43:22Z</time>
      </trkpt>
      <trkpt lat="42.6673015952" lon="0.1598172449">
        <ele>1615.63</ele>
        <time>2022-07-10T11:43:30Z</time>
      </trkpt>
      <trkpt lat="42.6673774514" lon="0.1596654486">
        <ele>1616.59</ele>
        <time>2022-07-10T11:43:41Z</time>
      </trkpt>
      <trkpt lat="42.6674229652" lon="0.1595564000">
        <ele>1617.56</ele>
        <time>2022-07-10T11:43:49Z</time>
      </trkpt>
      <trkpt lat="42.6674970612" lon="0.1593626942">
        <ele>1618.52</ele>
        <time>2022-07-10T11:44:03Z</time>
      </trkpt>
      <trkpt lat="42.6675586682" lon="0.1592167653">
        <ele>1619.96</ele>
        <time>2022-07-10T11:44:14Z</time>
      </trkpt>
      <trkpt lat="42.6675771922" lon="0.1591715030">
        <ele>1620.44</ele>
        <time>2022-07-10T11:44:17Z</time>
      </trkpt>
      <trkpt lat="42.6675876696" lon="0.1591431722">
        <ele>1620.44</ele>
        <time>2022-07-10T11:44:19Z</time>
      </trkpt>
      <trkpt lat="42.6676232927" lon="0.1590934675">
        <ele>1620.92</ele>
        <time>2022-07-10T11:44:24Z</time>
      </trkpt>
      <trkpt lat="42.6676537190" lon="0.1590233110">
        <ele>1621.40</ele>
        <time>2022-07-10T11:44:29Z</time>
      </trkpt>
      <trkpt lat="42.6677836385" lon="0.1588317007">
        <ele>1622.84</ele>
        <time>2022-07-10T11:44:45Z</time>
      </trkpt>
      <trkpt lat="42.6679427270" lon="0.1587227359">
        <ele>1623.32</ele>
        <time>2022-07-10T11:45:00Z</time>
      </trkpt>
      <trkpt lat="42.6679579820" lon="0.1587039605">
        <ele>1623.32</ele>
        <time>2022-07-10T11:45:02Z</time>
      </trkpt>
      <trkpt lat="42.6681084372" lon="0.1586323790">
        <ele>1624.28</ele>
        <time>2022-07-10T11:45:17Z</time>
      </trkpt>
      <trkpt lat="42.6681828685" lon="0.1586080715">
        <ele>1624.77</ele>
        <time>2022-07-10T11:45:24Z</time>
      </trkpt>
      <trkpt lat="42.6683559548" lon="0.1585600432">
        <ele>1625.73</ele>
        <time>2022-07-10T11:45:39Z</time>
      </trkpt>
      <trkpt lat="42.6685312204" lon="0.1584789064">
        <ele>1626.69</ele>
        <time>2022-07-10T11:45:54Z</time>
      </trkpt>
      <trkpt lat="42.6685717888" lon="0.1584229991">
        <ele>1626.69</ele>
        <time>2022-07-10T11:45:59Z</time>
      </trkpt>
      <trkpt lat="42.6685655024" lon="0.1583357435">
        <ele>1626.69</ele>
        <time>2022-07-10T11:46:04Z</time>
      </trkpt>
      <trkpt lat="42.6684750617" lon="0.1580738928">
        <ele>1626.69</ele>
        <time>2022-07-10T11:46:19Z</time>
      </trkpt>
      <trkpt lat="42.6684537716" lon="0.1579889841">
        <ele>1626.69</ele>
        <time>2022-07-10T11:46:23Z</time>
      </trkpt>
      <trkpt lat="42.6684852876" lon="0.1578605734">
        <ele>1626.69</ele>
        <time>2022-07-10T11:46:29Z</time>
      </trkpt>
      <trkpt lat="42.6685259398" lon="0.1577918418">
        <ele>1626.69</ele>
        <time>2022-07-10T11:46:33Z</time>
      </trkpt>
      <trkpt lat="42.6686056517" lon="0.1576370280">
        <ele>1626.69</ele>
        <time>2022-07-10T11:46:43Z</time>
      </trkpt>
      <trkpt lat="42.6686294563" lon="0.1576118823">
        <ele>1626.69</ele>
        <time>2022-07-10T11:46:45Z</time>
      </trkpt>
      <trkpt lat="42.6687639020" lon="0.1573999878">
        <ele>1627.17</ele>
        <time>2022-07-10T11:47:01Z</time>
      </trkpt>
      <trkpt lat="42.6687867008" lon="0.1573268138">
        <ele>1627.17</ele>
        <time>2022-07-10T11:47:05Z</time>
      </trkpt>
      <trkpt lat="42.6688964199" lon="0.1570761949">
        <ele>1627.65</ele>
        <time>2022-07-10T11:47:22Z</time>
      </trkpt>
      <trkpt lat="42.6689189672" lon="0.1570276637">
        <ele>1628.13</ele>
        <time>2022-07-10T11:47:26Z</time>
      </trkpt>
      <trkpt lat="42.6689560153" lon="0.1569754444">
        <ele>1628.13</ele>
        <time>2022-07-10T11:47:30Z</time>
      </trkpt>
      <trkpt lat="42.6690731104" lon="0.1567373984">
        <ele>1628.61</ele>
        <time>2022-07-10T11:47:46Z</time>
      </trkpt>
      <trkpt lat="42.6690995973" lon="0.1566958241">
        <ele>1628.61</ele>
        <time>2022-07-10T11:47:49Z</time>
      </trkpt>
      <trkpt lat="42.6691341307" lon="0.1566296071">
        <ele>1628.61</ele>
        <time>2022-07-10T11:47:54Z</time>
      </trkpt>
      <trkpt lat="42.6691637188" lon="0.1565457880">
        <ele>1628.61</ele>
        <time>2022-07-10T11:47:59Z</time>
      </trkpt>
      <trkpt lat="42.6691928040" lon="0.1564276870">
        <ele>1628.61</ele>
        <time>2022-07-10T11:48:06Z</time>
      </trkpt>
      <trkpt lat="42.6692720130" lon="0.1561965141">
        <ele>1629.57</ele>
        <time>2022-07-10T11:48:21Z</time>
      </trkpt>
      <trkpt lat="42.6693971548" lon="0.1559717953">
        <ele>1630.05</ele>
        <time>2022-07-10T11:48:37Z</time>
      </trkpt>
      <trkpt lat="42.6694145054" lon="0.1559411176">
        <ele>1630.05</ele>
        <time>2022-07-10T11:48:39Z</time>
      </trkpt>
      <trkpt lat="42.6695511304" lon="0.1557272114">
        <ele>1630.05</ele>
        <time>2022-07-10T11:48:55Z</time>
      </trkpt>
      <trkpt lat="42.6696759369" lon="0.1555220224">
        <ele>1630.53</ele>
        <time>2022-07-10T11:49:10Z</time>
      </trkpt>
      <trkpt lat="42.6698057726" lon="0.1553189289">
        <ele>1630.53</ele>
        <time>2022-07-10T11:49:25Z</time>
      </trkpt>
      <trkpt lat="42.6698962133" lon="0.1551937032">
        <ele>1631.01</ele>
        <time>2022-07-10T11:49:35Z</time>
      </trkpt>
      <trkpt lat="42.6699734107" lon="0.1550690643">
        <ele>1631.01</ele>
        <time>2022-07-10T11:49:44Z</time>
      </trkpt>
      <trkpt lat="42.6701330021" lon="0.1548730116">
        <ele>1631.49</ele>
        <time>2022-07-10T11:50:00Z</time>
      </trkpt>
      <trkpt lat="42.6702759136" lon="0.1547192875">
        <ele>1631.01</ele>
        <time>2022-07-10T11:50:14Z</time>
      </trkpt>
      <trkpt lat="42.6703852974" lon="0.1546385698">
        <ele>1631.49</ele>
        <time>2022-07-10T11:50:23Z</time>
      </trkpt>
      <trkpt lat="42.6705186535" lon="0.1544922218">
        <ele>1631.98</ele>
        <time>2022-07-10T11:50:37Z</time>
      </trkpt>
      <trkpt lat="42.6705837809" lon="0.1544188801">
        <ele>1631.98</ele>
        <time>2022-07-10T11:50:44Z</time>
      </trkpt>
      <trkpt lat="42.6707322244" lon="0.1542419381">
        <ele>1632.46</ele>
        <time>2022-07-10T11:50:59Z</time>
      </trkpt>
      <trkpt lat="42.6707747206" lon="0.1541813370">
        <ele>1632.46</ele>
        <time>2022-07-10T11:51:04Z</time>
      </trkpt>
      <trkpt lat="42.6708943304" lon="0.1540425327">
        <ele>1633.42</ele>
        <time>2022-07-10T11:51:19Z</time>
      </trkpt>
      <trkpt lat="42.6709542610" lon="0.1539651677">
        <ele>1633.90</ele>
        <time>2022-07-10T11:51:27Z</time>
      </trkpt>
      <trkpt lat="42.6709952485" lon="0.1539279521">
        <ele>1633.90</ele>
        <time>2022-07-10T11:51:31Z</time>
      </trkpt>
      <trkpt lat="42.6710886229" lon="0.1537947636">
        <ele>1634.38</ele>
        <time>2022-07-10T11:51:41Z</time>
      </trkpt>
      <trkpt lat="42.6712461188" lon="0.1535851322">
        <ele>1635.34</ele>
        <time>2022-07-10T11:51:58Z</time>
      </trkpt>
      <trkpt lat="42.6713722665" lon="0.1533931866">
        <ele>1635.34</ele>
        <time>2022-07-10T11:52:14Z</time>
      </trkpt>
      <trkpt lat="42.6713928021" lon="0.1533739083">
        <ele>1635.82</ele>
        <time>2022-07-10T11:52:16Z</time>
      </trkpt>
      <trkpt lat="42.6714388188" lon="0.1533173304">
        <ele>1635.82</ele>
        <time>2022-07-10T11:52:21Z</time>
      </trkpt>
      <trkpt lat="42.6715265773" lon="0.1531523746">
        <ele>1636.78</ele>
        <time>2022-07-10T11:52:34Z</time>
      </trkpt>
      <trkpt lat="42.6715375576" lon="0.1531289052">
        <ele>1636.78</ele>
        <time>2022-07-10T11:52:36Z</time>
      </trkpt>
      <trkpt lat="42.6715799700" lon="0.1531007420">
        <ele>1636.78</ele>
        <time>2022-07-10T11:52:40Z</time>
      </trkpt>
      <trkpt lat="42.6716066245" lon="0.1530699804">
        <ele>1637.26</ele>
        <time>2022-07-10T11:52:43Z</time>
      </trkpt>
      <trkpt lat="42.6716354582" lon="0.1530235447">
        <ele>1637.26</ele>
        <time>2022-07-10T11:52:47Z</time>
      </trkpt>
      <trkpt lat="42.6716677286" lon="0.1529989019">
        <ele>1637.74</ele>
        <time>2022-07-10T11:52:51Z</time>
      </trkpt>
      <trkpt lat="42.6716912817" lon="0.1529629435">
        <ele>1637.74</ele>
        <time>2022-07-10T11:52:55Z</time>
      </trkpt>
      <trkpt lat="42.6718100533" lon="0.1528683119">
        <ele>1638.70</ele>
        <time>2022-07-10T11:53:08Z</time>
      </trkpt>
      <trkpt lat="42.6719467621" lon="0.1527471934">
        <ele>1639.67</ele>
        <time>2022-07-10T11:53:21Z</time>
      </trkpt>
      <trkpt lat="42.6720302459" lon="0.1526782941">
        <ele>1639.67</ele>
        <time>2022-07-10T11:53:29Z</time>
      </trkpt>
      <trkpt lat="42.6721870713" lon="0.1526812278">
        <ele>1640.63</ele>
        <time>2022-07-10T11:53:44Z</time>
      </trkpt>
      <trkpt lat="42.6723692939" lon="0.1527029369">
        <ele>1641.11</ele>
        <time>2022-07-10T11:53:58Z</time>
      </trkpt>
      <trkpt lat="42.6725756563" lon="0.1526544057">
        <ele>1641.59</ele>
        <time>2022-07-10T11:54:15Z</time>
      </trkpt>
      <trkpt lat="42.6727308054" lon="0.1526078861">
        <ele>1642.55</ele>
        <time>2022-07-10T11:54:29Z</time>
      </trkpt>
      <trkpt lat="42.6728829369" lon="0.1525712572">
        <ele>1643.51</ele>
        <time>2022-07-10T11:54:43Z</time>
      </trkpt>
      <trkpt lat="42.6730416063" lon="0.1525544934">
        <ele>1643.99</ele>
        <time>2022-07-10T11:54:58Z</time>
      </trkpt>
      <trkpt lat="42.6731984317" lon="0.1524690818">
        <ele>1644.47</ele>
        <time>2022-07-10T11:55:14Z</time>
      </trkpt>
      <trkpt lat="42.6731949113" lon="0.1523608714">
        <ele>1644.95</ele>
        <time>2022-07-10T11:55:28Z</time>
      </trkpt>
      <trkpt lat="42.6731877029" lon="0.1523194648">
        <ele>1644.95</ele>
        <time>2022-07-10T11:55:41Z</time>
      </trkpt>
      <trkpt lat="42.6731918938" lon="0.1522778068">
        <ele>1644.95</ele>
        <time>2022-07-10T11:55:44Z</time>
      </trkpt>
      <trkpt lat="42.6731534209" lon="0.1520533394">
        <ele>1645.43</ele>
        <time>2022-07-10T11:55:58Z</time>
      </trkpt>
      <trkpt lat="42.6731316280" lon="0.1518191490">
        <ele>1647.36</ele>
        <time>2022-07-10T11:56:13Z</time>
      </trkpt>
      <trkpt lat="42.6730636507" lon="0.1515734755">
        <ele>1648.32</ele>
        <time>2022-07-10T11:56:28Z</time>
      </trkpt>
      <trkpt lat="42.6730226632" lon="0.1513736509">
        <ele>1649.76</ele>
        <time>2022-07-10T11:56:40Z</time>
      </trkpt>
      <trkpt lat="42.6730427798" lon="0.1512328349">
        <ele>1650.72</ele>
        <time>2022-07-10T11:56:49Z</time>
      </trkpt>
      <trkpt lat="42.6730742957" lon="0.1511869859">
        <ele>1651.20</ele>
        <time>2022-07-10T11:56:53Z</time>
      </trkpt>
      <trkpt lat="42.6730874553" lon="0.1511628460">
        <ele>1651.20</ele>
        <time>2022-07-10T11:56:55Z</time>
      </trkpt>
      <trkpt lat="42.6731908042" lon="0.1509637758">
        <ele>1652.64</ele>
        <time>2022-07-10T11:57:10Z</time>
      </trkpt>
      <trkpt lat="42.6732314564" lon="0.1508741733">
        <ele>1653.60</ele>
        <time>2022-07-10T11:57:17Z</time>
      </trkpt>
      <trkpt lat="42.6732956618" lon="0.1506995782">
        <ele>1654.57</ele>
        <time>2022-07-10T11:57:30Z</time>
      </trkpt>
      <trkpt lat="42.6733063906" lon="0.1506728400">
        <ele>1654.57</ele>
        <time>2022-07-10T11:57:32Z</time>
      </trkpt>
      <trkpt lat="42.6733690873" lon="0.1505054533">
        <ele>1656.01</ele>
        <time>2022-07-10T11:57:45Z</time>
      </trkpt>
      <trkpt lat="42.6733783074" lon="0.1504787151">
        <ele>1656.49</ele>
        <time>2022-07-10T11:57:47Z</time>
      </trkpt>
      <trkpt lat="42.6734342147" lon="0.1503708400">
        <ele>1656.97</ele>
        <time>2022-07-10T11:57:56Z</time>
      </trkpt>
      <trkpt lat="42.6735290140" lon="0.1502097398">
        <ele>1658.89</ele>
        <time>2022-07-10T11:58:11Z</time>
      </trkpt>
      <trkpt lat="42.6736285910" lon="0.1499891281">
        <ele>1660.33</ele>
        <time>2022-07-10T11:58:26Z</time>
      </trkpt>
      <trkpt lat="42.6736356318" lon="0.1499755494">
        <ele>1660.33</ele>
        <time>2022-07-10T11:58:27Z</time>
      </trkpt>
      <trkpt lat="42.6736546587" lon="0.1498474739">
        <ele>1660.33</ele>
        <time>2022-07-10T11:58:35Z</time>
      </trkpt>
      <trkpt lat="42.6736659743" lon="0.1497854479">
        <ele>1660.33</ele>
        <time>2022-07-10T11:58:39Z</time>
      </trkpt>
      <trkpt lat="42.6737431716" lon="0.1495500840">
        <ele>1661.30</ele>
        <time>2022-07-10T11:58:56Z</time>
      </trkpt>
      <trkpt lat="42.6737532299" lon="0.1495182328">
        <ele>1661.30</ele>
        <time>2022-07-10T11:58:58Z</time>
      </trkpt>
      <trkpt lat="42.6737886854" lon="0.1494516805">
        <ele>1661.78</ele>
        <time>2022-07-10T11:59:03Z</time>
      </trkpt>
      <trkpt lat="42.6738539804" lon="0.1493750699">
        <ele>1662.26</ele>
        <time>2022-07-10T11:59:10Z</time>
      </trkpt>
      <trkpt lat="42.6739810500" lon="0.1492586453">
        <ele>1663.70</ele>
        <time>2022-07-10T11:59:24Z</time>
      </trkpt>
      <trkpt lat="42.6740846504" lon="0.1492089406">
        <ele>1664.18</ele>
        <time>2022-07-10T11:59:37Z</time>
      </trkpt>
      <trkpt lat="42.6740766037" lon="0.1491934340">
        <ele>1666.10</ele>
        <time>2022-07-10T11:59:49Z</time>
      </trkpt>
      <trkpt lat="42.6740406454" lon="0.1491832081">
        <ele>1664.18</ele>
        <time>2022-07-10T12:00:09Z</time>
      </trkpt>
      <trkpt lat="42.6740078721" lon="0.1491776761">
        <ele>1664.18</ele>
        <time>2022-07-10T12:00:30Z</time>
      </trkpt>
      <trkpt lat="42.6740093809" lon="0.1491616666">
        <ele>1665.62</ele>
        <time>2022-07-10T12:00:53Z</time>
      </trkpt>
      <trkpt lat="42.6740144100" lon="0.1491415501">
        <ele>1665.62</ele>
        <time>2022-07-10T12:01:11Z</time>
      </trkpt>
      <trkpt lat="42.6741717383" lon="0.1490278076">
        <ele>1666.10</ele>
        <time>2022-07-10T12:01:26Z</time>
      </trkpt>
      <trkpt lat="42.6742558926" lon="0.1489220280">
        <ele>1667.06</ele>
        <time>2022-07-10T12:01:38Z</time>
      </trkpt>
      <trkpt lat="42.6743579004" lon="0.1488514524">
        <ele>1668.99</ele>
        <time>2022-07-10T12:01:51Z</time>
      </trkpt>
      <trkpt lat="42.6743724849" lon="0.1488352753">
        <ele>1668.99</ele>
        <time>2022-07-10T12:01:53Z</time>
      </trkpt>
      <trkpt lat="42.6744868979" lon="0.1487386320">
        <ele>1670.91</ele>
        <time>2022-07-10T12:02:07Z</time>
      </trkpt>
      <trkpt lat="42.6745369378" lon="0.1487319265">
        <ele>1671.39</ele>
        <time>2022-07-10T12:02:21Z</time>
      </trkpt>
      <trkpt lat="42.6746842079" lon="0.1486626081">
        <ele>1674.75</ele>
        <time>2022-07-10T12:02:38Z</time>
      </trkpt>
      <trkpt lat="42.6747700386" lon="0.1486317627">
        <ele>1674.75</ele>
        <time>2022-07-10T12:02:46Z</time>
      </trkpt>
      <trkpt lat="42.6748270355" lon="0.1485934574">
        <ele>1675.23</ele>
        <time>2022-07-10T12:02:52Z</time>
      </trkpt>
      <trkpt lat="42.6749936678" lon="0.1485079620">
        <ele>1676.68</ele>
        <time>2022-07-10T12:03:08Z</time>
      </trkpt>
      <trkpt lat="42.6751219109" lon="0.1484450139">
        <ele>1678.12</ele>
        <time>2022-07-10T12:03:21Z</time>
      </trkpt>
      <trkpt lat="42.6752742101" lon="0.1483425032">
        <ele>1680.04</ele>
        <time>2022-07-10T12:03:36Z</time>
      </trkpt>
      <trkpt lat="42.6754094940" lon="0.1482423395">
        <ele>1681.00</ele>
        <time>2022-07-10T12:03:49Z</time>
      </trkpt>
      <trkpt lat="42.6754329633" lon="0.1482132543">
        <ele>1681.48</ele>
        <time>2022-07-10T12:03:52Z</time>
      </trkpt>
      <trkpt lat="42.6754497271" lon="0.1481954008">
        <ele>1681.48</ele>
        <time>2022-07-10T12:03:54Z</time>
      </trkpt>
      <trkpt lat="42.6755741984" lon="0.1480966620">
        <ele>1682.44</ele>
        <time>2022-07-10T12:04:07Z</time>
      </trkpt>
      <trkpt lat="42.6757025253" lon="0.1480146870">
        <ele>1684.37</ele>
        <time>2022-07-10T12:04:20Z</time>
      </trkpt>
      <trkpt lat="42.6758494601" lon="0.1478488930">
        <ele>1685.81</ele>
        <time>2022-07-10T12:04:36Z</time>
      </trkpt>
      <trkpt lat="42.6759865880" lon="0.1477265172">
        <ele>1686.77</ele>
        <time>2022-07-10T12:04:51Z</time>
      </trkpt>
      <trkpt lat="42.6761122327" lon="0.1476173010">
        <ele>1688.21</ele>
        <time>2022-07-10T12:05:04Z</time>
      </trkpt>
      <trkpt lat="42.6762155816" lon="0.1475270279">
        <ele>1689.65</ele>
        <time>2022-07-10T12:05:17Z</time>
      </trkpt>
      <trkpt lat="42.6762745902" lon="0.1474970207">
        <ele>1689.65</ele>
        <time>2022-07-10T12:05:23Z</time>
      </trkpt>
      <trkpt lat="42.6764133107" lon="0.1473985333">
        <ele>1692.06</ele>
        <time>2022-07-10T12:05:38Z</time>
      </trkpt>
      <trkpt lat="42.6765480917" lon="0.1473144628">
        <ele>1693.50</ele>
        <time>2022-07-10T12:05:51Z</time>
      </trkpt>
      <trkpt lat="42.6766591519" lon="0.1472370140">
        <ele>1694.46</ele>
        <time>2022-07-10T12:06:02Z</time>
      </trkpt>
      <trkpt lat="42.6767661050" lon="0.1471402869">
        <ele>1695.42</ele>
        <time>2022-07-10T12:06:15Z</time>
      </trkpt>
      <trkpt lat="42.6768686995" lon="0.1470428053">
        <ele>1696.86</ele>
        <time>2022-07-10T12:06:27Z</time>
      </trkpt>
      <trkpt lat="42.6769733895" lon="0.1469379477">
        <ele>1697.83</ele>
        <time>2022-07-10T12:06:40Z</time>
      </trkpt>
      <trkpt lat="42.6770463958" lon="0.1468649413">
        <ele>1698.79</ele>
        <time>2022-07-10T12:06:53Z</time>
      </trkpt>
      <trkpt lat="42.6770556159" lon="0.1468323357">
        <ele>1698.79</ele>
        <time>2022-07-10T12:07:08Z</time>
      </trkpt>
      <trkpt lat="42.6770644169" lon="0.1467833016">
        <ele>1698.79</ele>
        <time>2022-07-10T12:07:11Z</time>
      </trkpt>
      <trkpt lat="42.6771543548" lon="0.1466148254">
        <ele>1699.75</ele>
        <time>2022-07-10T12:07:24Z</time>
      </trkpt>
      <trkpt lat="42.6772235055" lon="0.1464056969">
        <ele>1702.15</ele>
        <time>2022-07-10T12:07:40Z</time>
      </trkpt>
      <trkpt lat="42.6772701088" lon="0.1462543197">
        <ele>1704.55</ele>
        <time>2022-07-10T12:07:53Z</time>
      </trkpt>
      <trkpt lat="42.6773157064" lon="0.1460696664">
        <ele>1706.96</ele>
        <time>2022-07-10T12:08:07Z</time>
      </trkpt>
      <trkpt lat="42.6773727871" lon="0.1459938940">
        <ele>1708.40</ele>
        <time>2022-07-10T12:08:17Z</time>
      </trkpt>
      <trkpt lat="42.6774449553" lon="0.1459056325">
        <ele>1710.32</ele>
        <time>2022-07-10T12:08:28Z</time>
      </trkpt>
      <trkpt lat="42.6775302831" lon="0.1457873639">
        <ele>1712.25</ele>
        <time>2022-07-10T12:08:42Z</time>
      </trkpt>
      <trkpt lat="42.6775576919" lon="0.1457422692">
        <ele>1713.21</ele>
        <time>2022-07-10T12:08:47Z</time>
      </trkpt>
      <trkpt lat="42.6775751263" lon="0.1457274333">
        <ele>1713.21</ele>
        <time>2022-07-10T12:08:49Z</time>
      </trkpt>
      <trkpt lat="42.6776529942" lon="0.1455826778">
        <ele>1716.57</ele>
        <time>2022-07-10T12:09:04Z</time>
      </trkpt>
      <trkpt lat="42.6777756214" lon="0.1454859506">
        <ele>1718.97</ele>
        <time>2022-07-10T12:09:20Z</time>
      </trkpt>
      <trkpt lat="42.6778711751" lon="0.1453805901">
        <ele>1721.38</ele>
        <time>2022-07-10T12:09:35Z</time>
      </trkpt>
      <trkpt lat="42.6779508032" lon="0.1452626567">
        <ele>1724.26</ele>
        <time>2022-07-10T12:09:49Z</time>
      </trkpt>
      <trkpt lat="42.6780166849" lon="0.1451881416">
        <ele>1725.70</ele>
        <time>2022-07-10T12:09:59Z</time>
      </trkpt>
      <trkpt lat="42.6781223807" lon="0.1450436376">
        <ele>1728.59</ele>
        <time>2022-07-10T12:10:16Z</time>
      </trkpt>
      <trkpt lat="42.6782052778" lon="0.1449287217">
        <ele>1730.99</ele>
        <time>2022-07-10T12:10:29Z</time>
      </trkpt>
      <trkpt lat="42.6782918628" lon="0.1447956171">
        <ele>1732.91</ele>
        <time>2022-07-10T12:10:44Z</time>
      </trkpt>
      <trkpt lat="42.6783780288" lon="0.1447019074">
        <ele>1735.32</ele>
        <time>2022-07-10T12:10:57Z</time>
      </trkpt>
      <trkpt lat="42.6784024201" lon="0.1446840540">
        <ele>1735.80</ele>
        <time>2022-07-10T12:11:00Z</time>
      </trkpt>
      <trkpt lat="42.6784934476" lon="0.1445306651">
        <ele>1738.68</ele>
        <time>2022-07-10T12:11:16Z</time>
      </trkpt>
      <trkpt lat="42.6785729919" lon="0.1444109716">
        <ele>1740.60</ele>
        <time>2022-07-10T12:11:29Z</time>
      </trkpt>
      <trkpt lat="42.6786402985" lon="0.1442757715">
        <ele>1742.53</ele>
        <time>2022-07-10T12:11:43Z</time>
      </trkpt>
      <trkpt lat="42.6787276380" lon="0.1441225503">
        <ele>1745.41</ele>
        <time>2022-07-10T12:11:59Z</time>
      </trkpt>
      <trkpt lat="42.6788106188" lon="0.1439927146">
        <ele>1747.33</ele>
        <time>2022-07-10T12:12:14Z</time>
      </trkpt>
      <trkpt lat="42.6788962819" lon="0.1438819058">
        <ele>1749.26</ele>
        <time>2022-07-10T12:12:27Z</time>
      </trkpt>
      <trkpt lat="42.6789044123" lon="0.1438726857">
        <ele>1749.74</ele>
        <time>2022-07-10T12:12:28Z</time>
      </trkpt>
      <trkpt lat="42.6789917517" lon="0.1437528245">
        <ele>1751.66</ele>
        <time>2022-07-10T12:12:41Z</time>
      </trkpt>
      <trkpt lat="42.6790811867" lon="0.1436378248">
        <ele>1753.58</ele>
        <time>2022-07-10T12:12:54Z</time>
      </trkpt>
      <trkpt lat="42.6791209169" lon="0.1435871143">
        <ele>1754.54</ele>
        <time>2022-07-10T12:13:00Z</time>
      </trkpt>
      <trkpt lat="42.6792070828" lon="0.1434799936">
        <ele>1756.95</ele>
        <time>2022-07-10T12:13:14Z</time>
      </trkpt>
      <trkpt lat="42.6792893093" lon="0.1433633175">
        <ele>1758.39</ele>
        <time>2022-07-10T12:13:28Z</time>
      </trkpt>
      <trkpt lat="42.6793234237" lon="0.1433253475">
        <ele>1759.83</ele>
        <time>2022-07-10T12:13:33Z</time>
      </trkpt>
      <trkpt lat="42.6794068236" lon="0.1432230044">
        <ele>1761.75</ele>
        <time>2022-07-10T12:13:46Z</time>
      </trkpt>
      <trkpt lat="42.6794779021" lon="0.1431074180">
        <ele>1763.68</ele>
        <time>2022-07-10T12:13:57Z</time>
      </trkpt>
      <trkpt lat="42.6795477234" lon="0.1429709606">
        <ele>1766.08</ele>
        <time>2022-07-10T12:14:11Z</time>
      </trkpt>
      <trkpt lat="42.6796105877" lon="0.1428189967">
        <ele>1768.48</ele>
        <time>2022-07-10T12:14:25Z</time>
      </trkpt>
      <trkpt lat="42.6796980109" lon="0.1426776778">
        <ele>1770.89</ele>
        <time>2022-07-10T12:14:41Z</time>
      </trkpt>
      <trkpt lat="42.6797670778" lon="0.1426022407">
        <ele>1773.29</ele>
        <time>2022-07-10T12:14:53Z</time>
      </trkpt>
      <trkpt lat="42.6798326243" lon="0.1425243728">
        <ele>1774.73</ele>
        <time>2022-07-10T12:15:03Z</time>
      </trkpt>
      <trkpt lat="42.6798608713" lon="0.1424883306">
        <ele>1775.69</ele>
        <time>2022-07-10T12:15:07Z</time>
      </trkpt>
      <trkpt lat="42.6799164433" lon="0.1423021685">
        <ele>1778.58</ele>
        <time>2022-07-10T12:15:21Z</time>
      </trkpt>
      <trkpt lat="42.6799627952" lon="0.1421646215">
        <ele>1780.02</ele>
        <time>2022-07-10T12:15:32Z</time>
      </trkpt>
      <trkpt lat="42.6800262462" lon="0.1419921219">
        <ele>1782.42</ele>
        <time>2022-07-10T12:15:46Z</time>
      </trkpt>
      <trkpt lat="42.6800822373" lon="0.1418387331">
        <ele>1784.34</ele>
        <time>2022-07-10T12:15:59Z</time>
      </trkpt>
      <trkpt lat="42.6801188663" lon="0.1416876912">
        <ele>1786.75</ele>
        <time>2022-07-10T12:16:12Z</time>
      </trkpt>
      <trkpt lat="42.6801669784" lon="0.1415266749">
        <ele>1788.19</ele>
        <time>2022-07-10T12:16:25Z</time>
      </trkpt>
      <trkpt lat="42.6802577544" lon="0.1414152794">
        <ele>1790.59</ele>
        <time>2022-07-10T12:16:41Z</time>
      </trkpt>
      <trkpt lat="42.6802927069" lon="0.1413925644">
        <ele>1791.55</ele>
        <time>2022-07-10T12:16:46Z</time>
      </trkpt>
      <trkpt lat="42.6803523023" lon="0.1413603779">
        <ele>1793.96</ele>
        <time>2022-07-10T12:16:55Z</time>
      </trkpt>
      <trkpt lat="42.6804508734" lon="0.1412974298">
        <ele>1795.40</ele>
        <time>2022-07-10T12:17:07Z</time>
      </trkpt>
      <trkpt lat="42.6805479359" lon="0.1412236691">
        <ele>1797.32</ele>
        <time>2022-07-10T12:17:19Z</time>
      </trkpt>
      <trkpt lat="42.6806407236" lon="0.1411661692">
        <ele>1799.24</ele>
        <time>2022-07-10T12:17:31Z</time>
      </trkpt>
      <trkpt lat="42.6807537954" lon="0.1411130279">
        <ele>1802.13</ele>
        <time>2022-07-10T12:17:45Z</time>
      </trkpt>
      <trkpt lat="42.6808427274" lon="0.1410846971">
        <ele>1804.05</ele>
        <time>2022-07-10T12:17:58Z</time>
      </trkpt>
      <trkpt lat="42.6809599902" lon="0.1410297956">
        <ele>1806.45</ele>
        <time>2022-07-10T12:18:12Z</time>
      </trkpt>
      <trkpt lat="42.6810345054" lon="0.1409963518">
        <ele>1808.38</ele>
        <time>2022-07-10T12:18:22Z</time>
      </trkpt>
      <trkpt lat="42.6810913347" lon="0.1409850363">
        <ele>1809.34</ele>
        <time>2022-07-10T12:18:29Z</time>
      </trkpt>
      <trkpt lat="42.6811792608" lon="0.1409442164">
        <ele>1811.26</ele>
        <time>2022-07-10T12:18:39Z</time>
      </trkpt>
      <trkpt lat="42.6812394429" lon="0.1409127004">
        <ele>1812.70</ele>
        <time>2022-07-10T12:18:46Z</time>
      </trkpt>
      <trkpt lat="42.6813475695" lon="0.1407931745">
        <ele>1815.59</ele>
        <time>2022-07-10T12:19:01Z</time>
      </trkpt>
      <trkpt lat="42.6814244315" lon="0.1406678651">
        <ele>1817.51</ele>
        <time>2022-07-10T12:19:14Z</time>
      </trkpt>
      <trkpt lat="42.6814583782" lon="0.1406236086">
        <ele>1817.99</ele>
        <time>2022-07-10T12:19:19Z</time>
      </trkpt>
      <trkpt lat="42.6814732142" lon="0.1406045817">
        <ele>1818.95</ele>
        <time>2022-07-10T12:19:21Z</time>
      </trkpt>
      <trkpt lat="42.6815566979" lon="0.1405825373">
        <ele>1819.91</ele>
        <time>2022-07-10T12:19:36Z</time>
      </trkpt>
      <trkpt lat="42.6815328095" lon="0.1405811962">
        <ele>1818.47</ele>
        <time>2022-07-10T12:19:47Z</time>
      </trkpt>
      <trkpt lat="42.6815323904" lon="0.1405812800">
        <ele>1818.47</ele>
        <time>2022-07-10T12:19:48Z</time>
      </trkpt>
      <trkpt lat="42.6815547701" lon="0.1405510213">
        <ele>1818.95</ele>
        <time>2022-07-10T12:20:24Z</time>
      </trkpt>
      <trkpt lat="42.6815198176" lon="0.1405571401">
        <ele>1818.95</ele>
        <time>2022-07-10T12:20:59Z</time>
      </trkpt>
      <trkpt lat="42.6815286186" lon="0.1405737363">
        <ele>1820.87</ele>
        <time>2022-07-10T12:21:40Z</time>
      </trkpt>
      <trkpt lat="42.6815406047" lon="0.1405646838">
        <ele>1821.84</ele>
        <time>2022-07-10T12:22:03Z</time>
      </trkpt>
      <trkpt lat="42.6815271936" lon="0.1405506022">
        <ele>1821.84</ele>
        <time>2022-07-10T12:22:19Z</time>
      </trkpt>
      <trkpt lat="42.6814156305" lon="0.1403952856">
        <ele>1821.84</ele>
        <time>2022-07-10T12:22:34Z</time>
      </trkpt>
      <trkpt lat="42.6813831087" lon="0.1402794477">
        <ele>1824.24</ele>
        <time>2022-07-10T12:22:48Z</time>
      </trkpt>
      <trkpt lat="42.6812834479" lon="0.1401154138">
        <ele>1827.12</ele>
        <time>2022-07-10T12:23:04Z</time>
      </trkpt>
      <trkpt lat="42.6811729744" lon="0.1399440039">
        <ele>1828.56</ele>
        <time>2022-07-10T12:23:19Z</time>
      </trkpt>
      <trkpt lat="42.6810832042" lon="0.1397923753">
        <ele>1830.49</ele>
        <time>2022-07-10T12:23:33Z</time>
      </trkpt>
      <trkpt lat="42.6810171548" lon="0.1395793073">
        <ele>1831.45</ele>
        <time>2022-07-10T12:23:48Z</time>
      </trkpt>
      <trkpt lat="42.6809485909" lon="0.1393796504">
        <ele>1832.89</ele>
        <time>2022-07-10T12:24:03Z</time>
      </trkpt>
      <trkpt lat="42.6809289772" lon="0.1392281894">
        <ele>1833.85</ele>
        <time>2022-07-10T12:24:13Z</time>
      </trkpt>
      <trkpt lat="42.6809293963" lon="0.1391443703">
        <ele>1834.33</ele>
        <time>2022-07-10T12:24:18Z</time>
      </trkpt>
      <trkpt lat="42.6809310727" lon="0.1390436199">
        <ele>1834.81</ele>
        <time>2022-07-10T12:24:24Z</time>
      </trkpt>
      <trkpt lat="42.6809748262" lon="0.1389025524">
        <ele>1836.26</ele>
        <time>2022-07-10T12:24:34Z</time>
      </trkpt>
      <trkpt lat="42.6810088567" lon="0.1388206612">
        <ele>1837.22</ele>
        <time>2022-07-10T12:24:40Z</time>
      </trkpt>
      <trkpt lat="42.6811018959" lon="0.1386733912">
        <ele>1837.22</ele>
        <time>2022-07-10T12:24:52Z</time>
      </trkpt>
      <trkpt lat="42.6811789256" lon="0.1385091059">
        <ele>1839.14</ele>
        <time>2022-07-10T12:25:06Z</time>
      </trkpt>
      <trkpt lat="42.6813172270" lon="0.1383613329">
        <ele>1840.58</ele>
        <time>2022-07-10T12:25:22Z</time>
      </trkpt>
      <trkpt lat="42.6814669278" lon="0.1382449083">
        <ele>1842.50</ele>
        <time>2022-07-10T12:25:37Z</time>
      </trkpt>
      <trkpt lat="42.6815871242" lon="0.1381525397">
        <ele>1842.98</ele>
        <time>2022-07-10T12:25:49Z</time>
      </trkpt>
      <trkpt lat="42.6816504914" lon="0.1380772702">
        <ele>1843.47</ele>
        <time>2022-07-10T12:25:56Z</time>
      </trkpt>
      <trkpt lat="42.6817658264" lon="0.1378831454">
        <ele>1844.43</ele>
        <time>2022-07-10T12:26:10Z</time>
      </trkpt>
      <trkpt lat="42.6817998569" lon="0.1377671398">
        <ele>1845.87</ele>
        <time>2022-07-10T12:26:17Z</time>
      </trkpt>
      <trkpt lat="42.6819014456" lon="0.1375517249">
        <ele>1846.83</ele>
        <time>2022-07-10T12:26:31Z</time>
      </trkpt>
      <trkpt lat="42.6819238253" lon="0.1374811493">
        <ele>1846.83</ele>
        <time>2022-07-10T12:26:35Z</time>
      </trkpt>
      <trkpt lat="42.6819549222" lon="0.1373560075">
        <ele>1846.83</ele>
        <time>2022-07-10T12:26:42Z</time>
      </trkpt>
      <trkpt lat="42.6819866896" lon="0.1370482240">
        <ele>1848.27</ele>
        <time>2022-07-10T12:27:00Z</time>
      </trkpt>
      <trkpt lat="42.6820136793" lon="0.1369701885">
        <ele>1848.27</ele>
        <time>2022-07-10T12:27:05Z</time>
      </trkpt>
      <trkpt lat="42.6821479574" lon="0.1367572043">
        <ele>1849.23</ele>
        <time>2022-07-10T12:27:21Z</time>
      </trkpt>
      <trkpt lat="42.6822087262" lon="0.1366592199">
        <ele>1849.71</ele>
        <time>2022-07-10T12:27:29Z</time>
      </trkpt>
      <trkpt lat="42.6822208799" lon="0.1366293803">
        <ele>1849.71</ele>
        <time>2022-07-10T12:27:31Z</time>
      </trkpt>
      <trkpt lat="42.6823037770" lon="0.1363831200">
        <ele>1851.64</ele>
        <time>2022-07-10T12:27:47Z</time>
      </trkpt>
      <trkpt lat="42.6823291741" lon="0.1363048330">
        <ele>1851.64</ele>
        <time>2022-07-10T12:27:52Z</time>
      </trkpt>
      <trkpt lat="42.6824155916" lon="0.1360525377">
        <ele>1853.08</ele>
        <time>2022-07-10T12:28:09Z</time>
      </trkpt>
      <trkpt lat="42.6824379712" lon="0.1359983906">
        <ele>1853.56</ele>
        <time>2022-07-10T12:28:13Z</time>
      </trkpt>
      <trkpt lat="42.6824668050" lon="0.1358095463">
        <ele>1855.96</ele>
        <time>2022-07-10T12:28:26Z</time>
      </trkpt>
      <trkpt lat="42.6824609376" lon="0.1357524656">
        <ele>1856.44</ele>
        <time>2022-07-10T12:28:30Z</time>
      </trkpt>
      <trkpt lat="42.6824255660" lon="0.1357013360">
        <ele>1857.40</ele>
        <time>2022-07-10T12:28:34Z</time>
      </trkpt>
      <trkpt lat="42.6824230514" lon="0.1356758550">
        <ele>1857.40</ele>
        <time>2022-07-10T12:28:36Z</time>
      </trkpt>
      <trkpt lat="42.6824072935" lon="0.1355091389">
        <ele>1858.85</ele>
        <time>2022-07-10T12:28:47Z</time>
      </trkpt>
      <trkpt lat="42.6824223809" lon="0.1354359649">
        <ele>1859.33</ele>
        <time>2022-07-10T12:28:52Z</time>
      </trkpt>
      <trkpt lat="42.6824347023" lon="0.1353717595">
        <ele>1859.81</ele>
        <time>2022-07-10T12:28:56Z</time>
      </trkpt>
      <trkpt lat="42.6824554056" lon="0.1352457795">
        <ele>1860.29</ele>
        <time>2022-07-10T12:29:04Z</time>
      </trkpt>
      <trkpt lat="42.6824672241" lon="0.1351817418">
        <ele>1861.25</ele>
        <time>2022-07-10T12:29:08Z</time>
      </trkpt>
      <trkpt lat="42.6824710798" lon="0.1351466216">
        <ele>1861.25</ele>
        <time>2022-07-10T12:29:10Z</time>
      </trkpt>
      <trkpt lat="42.6825160906" lon="0.1349476352">
        <ele>1863.17</ele>
        <time>2022-07-10T12:29:24Z</time>
      </trkpt>
      <trkpt lat="42.6825460140" lon="0.1347640716">
        <ele>1865.09</ele>
        <time>2022-07-10T12:29:37Z</time>
      </trkpt>
      <trkpt lat="42.6825579163" lon="0.1346901432">
        <ele>1865.09</ele>
        <time>2022-07-10T12:29:42Z</time>
      </trkpt>
      <trkpt lat="42.6825618558" lon="0.1346125267">
        <ele>1866.06</ele>
        <time>2022-07-10T12:29:47Z</time>
      </trkpt>
      <trkpt lat="42.6825859118" lon="0.1343847904">
        <ele>1867.98</ele>
        <time>2022-07-10T12:30:02Z</time>
      </trkpt>
      <trkpt lat="42.6825906057" lon="0.1343415398">
        <ele>1867.98</ele>
        <time>2022-07-10T12:30:05Z</time>
      </trkpt>
      <trkpt lat="42.6825885102" lon="0.1341053378">
        <ele>1870.38</ele>
        <time>2022-07-10T12:30:20Z</time>
      </trkpt>
      <trkpt lat="42.6825342793" lon="0.1338682137">
        <ele>1872.30</ele>
        <time>2022-07-10T12:30:35Z</time>
      </trkpt>
      <trkpt lat="42.6825052779" lon="0.1336897630">
        <ele>1872.79</ele>
        <time>2022-07-10T12:30:45Z</time>
      </trkpt>
      <trkpt lat="42.6825092174" lon="0.1334409043">
        <ele>1873.75</ele>
        <time>2022-07-10T12:31:00Z</time>
      </trkpt>
      <trkpt lat="42.6824684814" lon="0.1332285069">
        <ele>1874.23</ele>
        <time>2022-07-10T12:31:13Z</time>
      </trkpt>
      <trkpt lat="42.6824183576" lon="0.1329611242">
        <ele>1875.19</ele>
        <time>2022-07-10T12:31:29Z</time>
      </trkpt>
      <trkpt lat="42.6824158430" lon="0.1329453662">
        <ele>1875.19</ele>
        <time>2022-07-10T12:31:30Z</time>
      </trkpt>
      <trkpt lat="42.6824091375" lon="0.1327716932">
        <ele>1876.15</ele>
        <time>2022-07-10T12:31:41Z</time>
      </trkpt>
      <trkpt lat="42.6824517176" lon="0.1325652469">
        <ele>1877.59</ele>
        <time>2022-07-10T12:31:55Z</time>
      </trkpt>
      <trkpt lat="42.6824771985" lon="0.1324194856">
        <ele>1878.55</ele>
        <time>2022-07-10T12:32:05Z</time>
      </trkpt>
      <trkpt lat="42.6825001650" lon="0.1323727984">
        <ele>1879.03</ele>
        <time>2022-07-10T12:32:09Z</time>
      </trkpt>
      <trkpt lat="42.6825787034" lon="0.1322022267">
        <ele>1880.48</ele>
        <time>2022-07-10T12:32:23Z</time>
      </trkpt>
      <trkpt lat="42.6826129016" lon="0.1321263704">
        <ele>1880.96</ele>
        <time>2022-07-10T12:32:29Z</time>
      </trkpt>
      <trkpt lat="42.6826469321" lon="0.1320542861">
        <ele>1881.92</ele>
        <time>2022-07-10T12:32:35Z</time>
      </trkpt>
      <trkpt lat="42.6826584991" lon="0.1320070960">
        <ele>1882.40</ele>
        <time>2022-07-10T12:32:38Z</time>
      </trkpt>
      <trkpt lat="42.6826634444" lon="0.1319574751">
        <ele>1882.88</ele>
        <time>2022-07-10T12:32:41Z</time>
      </trkpt>
      <trkpt lat="42.6826761011" lon="0.1319159847">
        <ele>1883.36</ele>
        <time>2022-07-10T12:32:44Z</time>
      </trkpt>
      <trkpt lat="42.6827299967" lon="0.1317783538">
        <ele>1884.80</ele>
        <time>2022-07-10T12:32:55Z</time>
      </trkpt>
      <trkpt lat="42.6827714033" lon="0.1317060180">
        <ele>1886.24</ele>
        <time>2022-07-10T12:33:02Z</time>
      </trkpt>
      <trkpt lat="42.6827893406" lon="0.1316512004">
        <ele>1886.24</ele>
        <time>2022-07-10T12:33:06Z</time>
      </trkpt>
      <trkpt lat="42.6828514505" lon="0.1314622723">
        <ele>1888.17</ele>
        <time>2022-07-10T12:33:20Z</time>
      </trkpt>
      <trkpt lat="42.6828536298" lon="0.1314478554">
        <ele>1888.17</ele>
        <time>2022-07-10T12:33:21Z</time>
      </trkpt>
      <trkpt lat="42.6828627661" lon="0.1313102245">
        <ele>1888.65</ele>
        <time>2022-07-10T12:33:31Z</time>
      </trkpt>
      <trkpt lat="42.6829183381" lon="0.1311003417">
        <ele>1890.57</ele>
        <time>2022-07-10T12:33:47Z</time>
      </trkpt>
      <trkpt lat="42.6829195116" lon="0.1310826559">
        <ele>1890.57</ele>
        <time>2022-07-10T12:33:48Z</time>
      </trkpt>
      <trkpt lat="42.6829283964" lon="0.1310536545">
        <ele>1890.57</ele>
        <time>2022-07-10T12:33:50Z</time>
      </trkpt>
      <trkpt lat="42.6829604153" lon="0.1309387386">
        <ele>1891.53</ele>
        <time>2022-07-10T12:33:58Z</time>
      </trkpt>
      <trkpt lat="42.6830148976" lon="0.1307608746">
        <ele>1892.01</ele>
        <time>2022-07-10T12:34:10Z</time>
      </trkpt>
      <trkpt lat="42.6830412168" lon="0.1306193043">
        <ele>1892.49</ele>
        <time>2022-07-10T12:34:19Z</time>
      </trkpt>
      <trkpt lat="42.6830384508" lon="0.1303719543">
        <ele>1893.45</ele>
        <time>2022-07-10T12:34:34Z</time>
      </trkpt>
      <trkpt lat="42.6830115449" lon="0.1301043201">
        <ele>1894.42</ele>
        <time>2022-07-10T12:34:49Z</time>
      </trkpt>
      <trkpt lat="42.6829779334" lon="0.1298526116">
        <ele>1894.90</ele>
        <time>2022-07-10T12:35:05Z</time>
      </trkpt>
      <trkpt lat="42.6829454117" lon="0.1296426449">
        <ele>1895.38</ele>
        <time>2022-07-10T12:35:21Z</time>
      </trkpt>
      <trkpt lat="42.6829185057" lon="0.1296307426">
        <ele>1895.38</ele>
        <time>2022-07-10T12:35:31Z</time>
      </trkpt>
      <trkpt lat="42.6827921905" lon="0.1296304073">
        <ele>1894.42</ele>
        <time>2022-07-10T12:35:40Z</time>
      </trkpt>
      <trkpt lat="42.6827188488" lon="0.1296408847">
        <ele>1893.93</ele>
        <time>2022-07-10T12:35:55Z</time>
      </trkpt>
      <trkpt lat="42.6826915238" lon="0.1296348497">
        <ele>1893.93</ele>
        <time>2022-07-10T12:35:58Z</time>
      </trkpt>
      <trkpt lat="42.6826129016" lon="0.1296348497">
        <ele>1891.05</ele>
        <time>2022-07-10T12:36:07Z</time>
      </trkpt>
      <trkpt lat="42.6825858280" lon="0.1295920182">
        <ele>1889.61</ele>
        <time>2022-07-10T12:36:12Z</time>
      </trkpt>
      <trkpt lat="42.6824616082" lon="0.1296371967">
        <ele>1890.09</ele>
        <time>2022-07-10T12:36:28Z</time>
      </trkpt>
      <trkpt lat="42.6824791264" lon="0.1295318361">
        <ele>1892.01</ele>
        <time>2022-07-10T12:36:40Z</time>
      </trkpt>
      <trkpt lat="42.6825197786" lon="0.1294988114">
        <ele>1892.49</ele>
        <time>2022-07-10T12:36:45Z</time>
      </trkpt>
      <trkpt lat="42.6824877597" lon="0.1294124778">
        <ele>1893.93</ele>
        <time>2022-07-10T12:36:57Z</time>
      </trkpt>
      <trkpt lat="42.6825168449" lon="0.1292907726">
        <ele>1894.42</ele>
        <time>2022-07-10T12:37:11Z</time>
      </trkpt>
      <trkpt lat="42.6824622788" lon="0.1291483641">
        <ele>1896.34</ele>
        <time>2022-07-10T12:37:24Z</time>
      </trkpt>
      <trkpt lat="42.6824503765" lon="0.1291104779">
        <ele>1898.26</ele>
        <time>2022-07-10T12:37:31Z</time>
      </trkpt>
      <trkpt lat="42.6823725086" lon="0.1290320233">
        <ele>1898.74</ele>
        <time>2022-07-10T12:37:41Z</time>
      </trkpt>
      <trkpt lat="42.6824288350" lon="0.1288484596">
        <ele>1899.70</ele>
        <time>2022-07-10T12:37:55Z</time>
      </trkpt>
      <trkpt lat="42.6824382227" lon="0.1287884451">
        <ele>1900.66</ele>
        <time>2022-07-10T12:38:02Z</time>
      </trkpt>
      <trkpt lat="42.6824631169" lon="0.1287589408">
        <ele>1900.66</ele>
        <time>2022-07-10T12:38:05Z</time>
      </trkpt>
      <trkpt lat="42.6824961416" lon="0.1286602858">
        <ele>1901.63</ele>
        <time>2022-07-10T12:38:18Z</time>
      </trkpt>
      <trkpt lat="42.6824963093" lon="0.1286601182">
        <ele>1901.14</ele>
        <time>2022-07-10T12:38:38Z</time>
      </trkpt>
      <trkpt lat="42.6825039368" lon="0.1285781432">
        <ele>1899.70</ele>
        <time>2022-07-10T12:38:49Z</time>
      </trkpt>
      <trkpt lat="42.6825631130" lon="0.1286096592">
        <ele>1898.26</ele>
        <time>2022-07-10T12:39:01Z</time>
      </trkpt>
      <trkpt lat="42.6825659629" lon="0.1285973378">
        <ele>1898.74</ele>
        <time>2022-07-10T12:39:10Z</time>
      </trkpt>
      <trkpt lat="42.6825141627" lon="0.1286847610">
        <ele>1862.69</ele>
        <time>2022-07-10T13:16:41Z</time>
      </trkpt>
      <trkpt lat="42.6825118158" lon="0.1286790613">
        <ele>1862.69</ele>
        <time>2022-07-10T13:16:42Z</time>
      </trkpt>
      <trkpt lat="42.6824745163" lon="0.1286057197">
        <ele>1865.09</ele>
        <time>2022-07-10T13:16:55Z</time>
      </trkpt>
      <trkpt lat="42.6824094728" lon="0.1285628043">
        <ele>1867.02</ele>
        <time>2022-07-10T13:17:07Z</time>
      </trkpt>
      <trkpt lat="42.6823743526" lon="0.1285789814">
        <ele>1867.50</ele>
        <time>2022-07-10T13:17:12Z</time>
      </trkpt>
      <trkpt lat="42.6823206246" lon="0.1286716014">
        <ele>1869.42</ele>
        <time>2022-07-10T13:17:27Z</time>
      </trkpt>
      <trkpt lat="42.6822681539" lon="0.1287083142">
        <ele>1870.86</ele>
        <time>2022-07-10T13:17:34Z</time>
      </trkpt>
      <trkpt lat="42.6821572613" lon="0.1286814082">
        <ele>1871.34</ele>
        <time>2022-07-10T13:17:48Z</time>
      </trkpt>
      <trkpt lat="42.6821625419" lon="0.1286230702">
        <ele>1871.34</ele>
        <time>2022-07-10T13:18:01Z</time>
      </trkpt>
      <trkpt lat="42.6821464486" lon="0.1285826694">
        <ele>1871.82</ele>
        <time>2022-07-10T13:18:05Z</time>
      </trkpt>
      <trkpt lat="42.6821114123" lon="0.1285156142">
        <ele>1872.79</ele>
        <time>2022-07-10T13:18:13Z</time>
      </trkpt>
      <trkpt lat="42.6821220573" lon="0.1284779795">
        <ele>1873.27</ele>
        <time>2022-07-10T13:18:17Z</time>
      </trkpt>
      <trkpt lat="42.6821462810" lon="0.1284021232">
        <ele>1873.27</ele>
        <time>2022-07-10T13:18:22Z</time>
      </trkpt>
      <trkpt lat="42.6821648888" lon="0.1283789892">
        <ele>1875.19</ele>
        <time>2022-07-10T13:18:28Z</time>
      </trkpt>
      <trkpt lat="42.6821463648" lon="0.1283299550">
        <ele>1880.48</ele>
        <time>2022-07-10T13:18:33Z</time>
      </trkpt>
      <trkpt lat="42.6821442693" lon="0.1282937452">
        <ele>1883.36</ele>
        <time>2022-07-10T13:18:36Z</time>
      </trkpt>
      <trkpt lat="42.6821403299" lon="0.1282686833">
        <ele>1885.28</ele>
        <time>2022-07-10T13:18:38Z</time>
      </trkpt>
      <trkpt lat="42.6821373124" lon="0.1282569487">
        <ele>1885.76</ele>
        <time>2022-07-10T13:18:39Z</time>
      </trkpt>
      <trkpt lat="42.6821307745" lon="0.1281889714">
        <ele>1890.09</ele>
        <time>2022-07-10T13:18:44Z</time>
      </trkpt>
      <trkpt lat="42.6821259968" lon="0.1281788293">
        <ele>1891.05</ele>
        <time>2022-07-10T13:18:45Z</time>
      </trkpt>
      <trkpt lat="42.6820874400" lon="0.1281361654">
        <ele>1894.90</ele>
        <time>2022-07-10T13:18:51Z</time>
      </trkpt>
      <trkpt lat="42.6820856798" lon="0.1280681882">
        <ele>1898.26</ele>
        <time>2022-07-10T13:18:57Z</time>
      </trkpt>
      <trkpt lat="42.6820518170" lon="0.1280108560">
        <ele>1900.66</ele>
        <time>2022-07-10T13:19:02Z</time>
      </trkpt>
      <trkpt lat="42.6819959935" lon="0.1277832035">
        <ele>1903.55</ele>
        <time>2022-07-10T13:19:12Z</time>
      </trkpt>
      <trkpt lat="42.6819662377" lon="0.1276578940">
        <ele>1906.91</ele>
        <time>2022-07-10T13:19:18Z</time>
      </trkpt>
      <trkpt lat="42.6819426008" lon="0.1275609154">
        <ele>1910.28</ele>
        <time>2022-07-10T13:19:23Z</time>
      </trkpt>
      <trkpt lat="42.6819406729" lon="0.1274427306">
        <ele>1914.60</ele>
        <time>2022-07-10T13:19:29Z</time>
      </trkpt>
      <trkpt lat="42.6819239091" lon="0.1273215283">
        <ele>1917.97</ele>
        <time>2022-07-10T13:19:36Z</time>
      </trkpt>
      <trkpt lat="42.6819116715" lon="0.1272198558">
        <ele>1920.85</ele>
        <time>2022-07-10T13:19:42Z</time>
      </trkpt>
      <trkpt lat="42.6818897109" lon="0.1271004137">
        <ele>1924.70</ele>
        <time>2022-07-10T13:19:50Z</time>
      </trkpt>
      <trkpt lat="42.6818864420" lon="0.1270856615">
        <ele>1924.70</ele>
        <time>2022-07-10T13:19:51Z</time>
      </trkpt>
      <trkpt lat="42.6818683371" lon="0.1270115655">
        <ele>1927.10</ele>
        <time>2022-07-10T13:19:56Z</time>
      </trkpt>
      <trkpt lat="42.6818553451" lon="0.1269506291">
        <ele>1928.06</ele>
        <time>2022-07-10T13:20:00Z</time>
      </trkpt>
      <trkpt lat="42.6818363182" lon="0.1267984975">
        <ele>1930.95</ele>
        <time>2022-07-10T13:20:10Z</time>
      </trkpt>
      <trkpt lat="42.6818833407" lon="0.1266605314">
        <ele>1934.31</ele>
        <time>2022-07-10T13:20:20Z</time>
      </trkpt>
      <trkpt lat="42.6819394995" lon="0.1265298575">
        <ele>1938.16</ele>
        <time>2022-07-10T13:20:30Z</time>
      </trkpt>
      <trkpt lat="42.6819263399" lon="0.1263033785">
        <ele>1939.12</ele>
        <time>2022-07-10T13:20:45Z</time>
      </trkpt>
      <trkpt lat="42.6819112524" lon="0.1261768118">
        <ele>1939.60</ele>
        <time>2022-07-10T13:20:54Z</time>
      </trkpt>
      <trkpt lat="42.6819320396" lon="0.1260744687">
        <ele>1940.56</ele>
        <time>2022-07-10T13:21:04Z</time>
      </trkpt>
      <trkpt lat="42.6819511503" lon="0.1259482373">
        <ele>1941.04</ele>
        <time>2022-07-10T13:21:17Z</time>
      </trkpt>
      <trkpt lat="42.6819749549" lon="0.1258502528">
        <ele>1943.92</ele>
        <time>2022-07-10T13:21:30Z</time>
      </trkpt>
      <trkpt lat="42.6819522399" lon="0.1257648412">
        <ele>1946.33</ele>
        <time>2022-07-10T13:21:43Z</time>
      </trkpt>
      <trkpt lat="42.6819496416" lon="0.1256630849">
        <ele>1948.73</ele>
        <time>2022-07-10T13:21:56Z</time>
      </trkpt>
      <trkpt lat="42.6818923093" lon="0.1256300602">
        <ele>1951.61</ele>
        <time>2022-07-10T13:22:09Z</time>
      </trkpt>
      <trkpt lat="42.6818050537" lon="0.1256007235">
        <ele>1953.54</ele>
        <time>2022-07-10T13:22:23Z</time>
      </trkpt>
      <trkpt lat="42.6817224082" lon="0.1255769189">
        <ele>1956.42</ele>
        <time>2022-07-10T13:22:37Z</time>
      </trkpt>
      <trkpt lat="42.6816772297" lon="0.1254427247">
        <ele>1959.78</ele>
        <time>2022-07-10T13:22:52Z</time>
      </trkpt>
      <trkpt lat="42.6816444565" lon="0.1253459137">
        <ele>1962.19</ele>
        <time>2022-07-10T13:23:05Z</time>
      </trkpt>
      <trkpt lat="42.6816431154" lon="0.1252756733">
        <ele>1964.59</ele>
        <time>2022-07-10T13:23:14Z</time>
      </trkpt>
      <trkpt lat="42.6816520840" lon="0.1252299082">
        <ele>1965.07</ele>
        <time>2022-07-10T13:23:19Z</time>
      </trkpt>
      <trkpt lat="42.6816011220" lon="0.1251325943">
        <ele>1967.96</ele>
        <time>2022-07-10T13:23:32Z</time>
      </trkpt>
      <trkpt lat="42.6815122738" lon="0.1250826381">
        <ele>1969.88</ele>
        <time>2022-07-10T13:23:44Z</time>
      </trkpt>
      <trkpt lat="42.6814881340" lon="0.1249714941">
        <ele>1972.28</ele>
        <time>2022-07-10T13:23:57Z</time>
      </trkpt>
      <trkpt lat="42.6814737171" lon="0.1247194503">
        <ele>1974.20</ele>
        <time>2022-07-10T13:24:13Z</time>
      </trkpt>
      <trkpt lat="42.6814471465" lon="0.1246595196">
        <ele>1975.17</ele>
        <time>2022-07-10T13:24:19Z</time>
      </trkpt>
      <trkpt lat="42.6813574601" lon="0.1246066298">
        <ele>1976.61</ele>
        <time>2022-07-10T13:24:29Z</time>
      </trkpt>
      <trkpt lat="42.6812077593" lon="0.1246458571">
        <ele>1978.53</ele>
        <time>2022-07-10T13:24:43Z</time>
      </trkpt>
      <trkpt lat="42.6810786780" lon="0.1246337034">
        <ele>1981.41</ele>
        <time>2022-07-10T13:24:58Z</time>
      </trkpt>
      <trkpt lat="42.6810693741" lon="0.1246236451">
        <ele>1981.41</ele>
        <time>2022-07-10T13:25:00Z</time>
      </trkpt>
      <trkpt lat="42.6810411271" lon="0.1245017722">
        <ele>1983.82</ele>
        <time>2022-07-10T13:25:14Z</time>
      </trkpt>
      <trkpt lat="42.6809793524" lon="0.1244359743">
        <ele>1984.78</ele>
        <time>2022-07-10T13:25:25Z</time>
      </trkpt>
      <trkpt lat="42.6808982994" lon="0.1243892033">
        <ele>1987.18</ele>
        <time>2022-07-10T13:25:39Z</time>
      </trkpt>
      <trkpt lat="42.6808651071" lon="0.1243240759">
        <ele>1988.62</ele>
        <time>2022-07-10T13:25:46Z</time>
      </trkpt>
      <trkpt lat="42.6807776839" lon="0.1242393348">
        <ele>1991.03</ele>
        <time>2022-07-10T13:25:59Z</time>
      </trkpt>
      <trkpt lat="42.6806659531" lon="0.1241421048">
        <ele>1993.91</ele>
        <time>2022-07-10T13:26:14Z</time>
      </trkpt>
      <trkpt lat="42.6806392986" lon="0.1240177173">
        <ele>1996.80</ele>
        <time>2022-07-10T13:26:27Z</time>
      </trkpt>
      <trkpt lat="42.6806424838" lon="0.1240086649">
        <ele>1996.80</ele>
        <time>2022-07-10T13:26:28Z</time>
      </trkpt>
      <trkpt lat="42.6805662084" lon="0.1239213254">
        <ele>1999.68</ele>
        <time>2022-07-10T13:26:42Z</time>
      </trkpt>
      <trkpt lat="42.6804792043" lon="0.1238480676">
        <ele>2002.08</ele>
        <time>2022-07-10T13:26:55Z</time>
      </trkpt>
      <trkpt lat="42.6805060264" lon="0.1237364206">
        <ele>2004.49</ele>
        <time>2022-07-10T13:27:07Z</time>
      </trkpt>
      <trkpt lat="42.6805036794" lon="0.1236164756">
        <ele>2007.37</ele>
        <time>2022-07-10T13:27:21Z</time>
      </trkpt>
      <trkpt lat="42.6804485265" lon="0.1235538628">
        <ele>2010.25</ele>
        <time>2022-07-10T13:27:31Z</time>
      </trkpt>
      <trkpt lat="42.6804046892" lon="0.1234802697">
        <ele>2013.62</ele>
        <time>2022-07-10T13:27:44Z</time>
      </trkpt>
      <trkpt lat="42.6803790405" lon="0.1234132145">
        <ele>2015.06</ele>
        <time>2022-07-10T13:27:57Z</time>
      </trkpt>
      <trkpt lat="42.6803587563" lon="0.1233249530">
        <ele>2017.46</ele>
        <time>2022-07-10T13:28:09Z</time>
      </trkpt>
      <trkpt lat="42.6802599337" lon="0.1233432256">
        <ele>2020.35</ele>
        <time>2022-07-10T13:28:23Z</time>
      </trkpt>
      <trkpt lat="42.6802414935" lon="0.1232787687">
        <ele>2022.75</ele>
        <time>2022-07-10T13:28:36Z</time>
      </trkpt>
      <trkpt lat="42.6801978238" lon="0.1232459955">
        <ele>2025.15</ele>
        <time>2022-07-10T13:28:50Z</time>
      </trkpt>
      <trkpt lat="42.6802254841" lon="0.1231563091">
        <ele>2027.56</ele>
        <time>2022-07-10T13:29:03Z</time>
      </trkpt>
      <trkpt lat="42.6801953092" lon="0.1230760105">
        <ele>2030.92</ele>
        <time>2022-07-10T13:29:18Z</time>
      </trkpt>
      <trkpt lat="42.6801132504" lon="0.1231356896">
        <ele>2033.81</ele>
        <time>2022-07-10T13:29:32Z</time>
      </trkpt>
      <trkpt lat="42.6800531521" lon="0.1231428143">
        <ele>2036.21</ele>
        <time>2022-07-10T13:29:45Z</time>
      </trkpt>
      <trkpt lat="42.6799935568" lon="0.1232279744">
        <ele>2039.09</ele>
        <time>2022-07-10T13:29:59Z</time>
      </trkpt>
      <trkpt lat="42.6799653098" lon="0.1233090274">
        <ele>2042.46</ele>
        <time>2022-07-10T13:30:11Z</time>
      </trkpt>
      <trkpt lat="42.6799239870" lon="0.1233304013">
        <ele>2044.38</ele>
        <time>2022-07-10T13:30:24Z</time>
      </trkpt>
      <trkpt lat="42.6798686665" lon="0.1233671140">
        <ele>2046.78</ele>
        <time>2022-07-10T13:30:38Z</time>
      </trkpt>
      <trkpt lat="42.6798622962" lon="0.1233689580">
        <ele>2048.71</ele>
        <time>2022-07-10T13:30:49Z</time>
      </trkpt>
      <trkpt lat="42.6798881125" lon="0.1233131345">
        <ele>2050.63</ele>
        <time>2022-07-10T13:31:00Z</time>
      </trkpt>
      <trkpt lat="42.6798421796" lon="0.1233241986">
        <ele>2053.03</ele>
        <time>2022-07-10T13:31:11Z</time>
      </trkpt>
      <trkpt lat="42.6797874458" lon="0.1233451534">
        <ele>2055.44</ele>
        <time>2022-07-10T13:31:26Z</time>
      </trkpt>
      <trkpt lat="42.6797460392" lon="0.1233943552">
        <ele>2058.32</ele>
        <time>2022-07-10T13:31:38Z</time>
      </trkpt>
      <trkpt lat="42.6796854381" lon="0.1234277152">
        <ele>2060.72</ele>
        <time>2022-07-10T13:31:52Z</time>
      </trkpt>
      <trkpt lat="42.6796547603" lon="0.1235137973">
        <ele>2063.61</ele>
        <time>2022-07-10T13:32:04Z</time>
      </trkpt>
      <trkpt lat="42.6796320453" lon="0.1235850435">
        <ele>2066.49</ele>
        <time>2022-07-10T13:32:15Z</time>
      </trkpt>
      <trkpt lat="42.6796061452" lon="0.1236422081">
        <ele>2069.38</ele>
        <time>2022-07-10T13:32:30Z</time>
      </trkpt>
      <trkpt lat="42.6795629784" lon="0.1236954331">
        <ele>2073.22</ele>
        <time>2022-07-10T13:32:44Z</time>
      </trkpt>
      <trkpt lat="42.6795068197" lon="0.1236407831">
        <ele>2076.59</ele>
        <time>2022-07-10T13:32:58Z</time>
      </trkpt>
      <trkpt lat="42.6794986054" lon="0.1235111151">
        <ele>2078.99</ele>
        <time>2022-07-10T13:33:12Z</time>
      </trkpt>
      <trkpt lat="42.6794795785" lon="0.1233948581">
        <ele>2081.87</ele>
        <time>2022-07-10T13:33:26Z</time>
      </trkpt>
      <trkpt lat="42.6794657484" lon="0.1233423874">
        <ele>2083.31</ele>
        <time>2022-07-10T13:33:31Z</time>
      </trkpt>
      <trkpt lat="42.6794630662" lon="0.1233285572">
        <ele>2083.31</ele>
        <time>2022-07-10T13:33:32Z</time>
      </trkpt>
      <trkpt lat="42.6794553548" lon="0.1232764218">
        <ele>2083.79</ele>
        <time>2022-07-10T13:33:37Z</time>
      </trkpt>
      <trkpt lat="42.6794570312" lon="0.1231287327">
        <ele>2086.20</ele>
        <time>2022-07-10T13:33:51Z</time>
      </trkpt>
      <trkpt lat="42.6793567836" lon="0.1229512040">
        <ele>2087.64</ele>
        <time>2022-07-10T13:34:07Z</time>
      </trkpt>
      <trkpt lat="42.6792530995" lon="0.1229489408">
        <ele>2086.20</ele>
        <time>2022-07-10T13:34:16Z</time>
      </trkpt>
      <trkpt lat="42.6792301331" lon="0.1229387987">
        <ele>2085.72</ele>
        <time>2022-07-10T13:34:18Z</time>
      </trkpt>
      <trkpt lat="42.6791129541" lon="0.1228838135">
        <ele>2085.24</ele>
        <time>2022-07-10T13:34:28Z</time>
      </trkpt>
      <trkpt lat="42.6789966971" lon="0.1228186861">
        <ele>2084.28</ele>
        <time>2022-07-10T13:34:38Z</time>
      </trkpt>
      <trkpt lat="42.6788162347" lon="0.1228652894">
        <ele>2085.72</ele>
        <time>2022-07-10T13:34:53Z</time>
      </trkpt>
      <trkpt lat="42.6786293183" lon="0.1228683069">
        <ele>2086.20</ele>
        <time>2022-07-10T13:35:08Z</time>
      </trkpt>
      <trkpt lat="42.6784973033" lon="0.1229044329">
        <ele>2087.16</ele>
        <time>2022-07-10T13:35:20Z</time>
      </trkpt>
      <trkpt lat="42.6783835609" lon="0.1230261382">
        <ele>2089.08</ele>
        <time>2022-07-10T13:35:33Z</time>
      </trkpt>
      <trkpt lat="42.6782974787" lon="0.1231085323">
        <ele>2090.04</ele>
        <time>2022-07-10T13:35:43Z</time>
      </trkpt>
      <trkpt lat="42.6781688165" lon="0.1232760027">
        <ele>2092.45</ele>
        <time>2022-07-10T13:36:00Z</time>
      </trkpt>
      <trkpt lat="42.6780800521" lon="0.1233929303">
        <ele>2094.85</ele>
        <time>2022-07-10T13:36:14Z</time>
      </trkpt>
      <trkpt lat="42.6779907010" lon="0.1234338339">
        <ele>2096.29</ele>
        <time>2022-07-10T13:36:25Z</time>
      </trkpt>
      <trkpt lat="42.6779662259" lon="0.1234291401">
        <ele>2097.25</ele>
        <time>2022-07-10T13:36:27Z</time>
      </trkpt>
      <trkpt lat="42.6779186167" lon="0.1234286372">
        <ele>2097.25</ele>
        <time>2022-07-10T13:36:31Z</time>
      </trkpt>
      <trkpt lat="42.6778931357" lon="0.1234046649">
        <ele>2097.73</ele>
        <time>2022-07-10T13:36:34Z</time>
      </trkpt>
      <trkpt lat="42.6778492983" lon="0.1234153938">
        <ele>2097.73</ele>
        <time>2022-07-10T13:36:38Z</time>
      </trkpt>
      <trkpt lat="42.6776856836" lon="0.1234625839">
        <ele>2098.21</ele>
        <time>2022-07-10T13:36:53Z</time>
      </trkpt>
      <trkpt lat="42.6776070613" lon="0.1234777551">
        <ele>2100.14</ele>
        <time>2022-07-10T13:37:03Z</time>
      </trkpt>
      <trkpt lat="42.6775342226" lon="0.1235527731">
        <ele>2101.58</ele>
        <time>2022-07-10T13:37:15Z</time>
      </trkpt>
      <trkpt lat="42.6775038801" lon="0.1236208342">
        <ele>2103.02</ele>
        <time>2022-07-10T13:37:22Z</time>
      </trkpt>
      <trkpt lat="42.6774440333" lon="0.1236904878">
        <ele>2104.46</ele>
        <time>2022-07-10T13:37:30Z</time>
      </trkpt>
      <trkpt lat="42.6773670036" lon="0.1236808486">
        <ele>2106.87</ele>
        <time>2022-07-10T13:37:43Z</time>
      </trkpt>
      <trkpt lat="42.6773598790" lon="0.1237025578">
        <ele>2107.35</ele>
        <time>2022-07-10T13:37:45Z</time>
      </trkpt>
      <trkpt lat="42.6772359107" lon="0.1238213293">
        <ele>2109.75</ele>
        <time>2022-07-10T13:38:01Z</time>
      </trkpt>
      <trkpt lat="42.6771498285" lon="0.1238773204">
        <ele>2112.15</ele>
        <time>2022-07-10T13:38:15Z</time>
      </trkpt>
      <trkpt lat="42.6770593040" lon="0.1239069086">
        <ele>2114.56</ele>
        <time>2022-07-10T13:38:29Z</time>
      </trkpt>
      <trkpt lat="42.6769420411" lon="0.1239043102">
        <ele>2117.44</ele>
        <time>2022-07-10T13:38:44Z</time>
      </trkpt>
      <trkpt lat="42.6769236848" lon="0.1238976046">
        <ele>2117.92</ele>
        <time>2022-07-10T13:38:47Z</time>
      </trkpt>
      <trkpt lat="42.6769113634" lon="0.1238671783">
        <ele>2118.88</ele>
        <time>2022-07-10T13:38:50Z</time>
      </trkpt>
      <trkpt lat="42.6768398657" lon="0.1238105167">
        <ele>2120.32</ele>
        <time>2022-07-10T13:39:00Z</time>
      </trkpt>
      <trkpt lat="42.6767231897" lon="0.1236931700">
        <ele>2122.25</ele>
        <time>2022-07-10T13:39:15Z</time>
      </trkpt>
      <trkpt lat="42.6767092757" lon="0.1236640848">
        <ele>2123.21</ele>
        <time>2022-07-10T13:39:18Z</time>
      </trkpt>
      <trkpt lat="42.6766703837" lon="0.1234600693">
        <ele>2126.57</ele>
        <time>2022-07-10T13:39:35Z</time>
      </trkpt>
      <trkpt lat="42.6766497642" lon="0.1233799383">
        <ele>2126.57</ele>
        <time>2022-07-10T13:39:41Z</time>
      </trkpt>
      <trkpt lat="42.6765373629" lon="0.1232715603">
        <ele>2128.98</ele>
        <time>2022-07-10T13:39:55Z</time>
      </trkpt>
      <trkpt lat="42.6764848083" lon="0.1232192572">
        <ele>2130.90</ele>
        <time>2022-07-10T13:40:03Z</time>
      </trkpt>
      <trkpt lat="42.6763434056" lon="0.1233117934">
        <ele>2133.78</ele>
        <time>2022-07-10T13:40:18Z</time>
      </trkpt>
      <trkpt lat="42.6761944592" lon="0.1233893260">
        <ele>2135.71</ele>
        <time>2022-07-10T13:40:33Z</time>
      </trkpt>
      <trkpt lat="42.6760051120" lon="0.1234305650">
        <ele>2138.59</ele>
        <time>2022-07-10T13:40:50Z</time>
      </trkpt>
      <trkpt lat="42.6759741828" lon="0.1234324928">
        <ele>2139.07</ele>
        <time>2022-07-10T13:40:53Z</time>
      </trkpt>
      <trkpt lat="42.6759514678" lon="0.1234528609">
        <ele>2139.07</ele>
        <time>2022-07-10T13:40:56Z</time>
      </trkpt>
      <trkpt lat="42.6758745220" lon="0.1234433893">
        <ele>2140.51</ele>
        <time>2022-07-10T13:41:09Z</time>
      </trkpt>
      <trkpt lat="42.6758487057" lon="0.1234223507">
        <ele>2140.99</ele>
        <time>2022-07-10T13:41:12Z</time>
      </trkpt>
      <trkpt lat="42.6758078858" lon="0.1234491728">
        <ele>2141.95</ele>
        <time>2022-07-10T13:41:27Z</time>
      </trkpt>
      <trkpt lat="42.6757919602" lon="0.1234855503">
        <ele>2143.40</ele>
        <time>2022-07-10T13:41:52Z</time>
      </trkpt>
      <trkpt lat="42.6757975761" lon="0.1234690379">
        <ele>2141.47</ele>
        <time>2022-07-10T13:42:16Z</time>
      </trkpt>
      <trkpt lat="42.6757955644" lon="0.1234723907">
        <ele>2142.92</ele>
        <time>2022-07-10T13:42:22Z</time>
      </trkpt>
      <trkpt lat="42.6758119930" lon="0.1234929264">
        <ele>2141.47</ele>
        <time>2022-07-10T13:42:37Z</time>
      </trkpt>
      <trkpt lat="42.6757994201" lon="0.1234897412">
        <ele>2141.47</ele>
        <time>2022-07-10T13:42:54Z</time>
      </trkpt>
      <trkpt lat="42.6758008450" lon="0.1234826166">
        <ele>2144.36</ele>
        <time>2022-07-10T13:43:13Z</time>
      </trkpt>
      <trkpt lat="42.6758185308" lon="0.1234508492">
        <ele>2140.51</ele>
        <time>2022-07-10T13:43:30Z</time>
      </trkpt>
      <trkpt lat="42.6758209616" lon="0.1234542858">
        <ele>2144.84</ele>
        <time>2022-07-10T13:43:31Z</time>
      </trkpt>
      <trkpt lat="42.6758088078" lon="0.1234178245">
        <ele>2142.44</ele>
        <time>2022-07-10T13:43:43Z</time>
      </trkpt>
      <trkpt lat="42.6758033596" lon="0.1233804412">
        <ele>2144.36</ele>
        <time>2022-07-10T13:43:46Z</time>
      </trkpt>
      <trkpt lat="42.6757960673" lon="0.1233587321">
        <ele>2142.44</ele>
        <time>2022-07-10T13:43:48Z</time>
      </trkpt>
      <trkpt lat="42.6757653058" lon="0.1233091112">
        <ele>2138.59</ele>
        <time>2022-07-10T13:43:54Z</time>
      </trkpt>
      <trkpt lat="42.6757553313" lon="0.1233092789">
        <ele>2138.59</ele>
        <time>2022-07-10T13:43:55Z</time>
      </trkpt>
      <trkpt lat="42.6756949816" lon="0.1231920999">
        <ele>2134.74</ele>
        <time>2022-07-10T13:44:08Z</time>
      </trkpt>
      <trkpt lat="42.6756922994" lon="0.1231817901">
        <ele>2134.74</ele>
        <time>2022-07-10T13:44:09Z</time>
      </trkpt>
      <trkpt lat="42.6756680757" lon="0.1231320854">
        <ele>2132.82</ele>
        <time>2022-07-10T13:44:18Z</time>
      </trkpt>
      <trkpt lat="42.6756751165" lon="0.1230833866">
        <ele>2132.82</ele>
        <time>2022-07-10T13:44:22Z</time>
      </trkpt>
      <trkpt lat="42.6756284293" lon="0.1230030879">
        <ele>2129.46</ele>
        <time>2022-07-10T13:44:32Z</time>
      </trkpt>
      <trkpt lat="42.6755911298" lon="0.1229713205">
        <ele>2128.98</ele>
        <time>2022-07-10T13:44:43Z</time>
      </trkpt>
      <trkpt lat="42.6755700912" lon="0.1228838135">
        <ele>2125.13</ele>
        <time>2022-07-10T13:44:54Z</time>
      </trkpt>
      <trkpt lat="42.6755294390" lon="0.1228682231">
        <ele>2122.73</ele>
        <time>2022-07-10T13:45:06Z</time>
      </trkpt>
      <trkpt lat="42.6754856016" lon="0.1227892656">
        <ele>2119.84</ele>
        <time>2022-07-10T13:45:16Z</time>
      </trkpt>
      <trkpt lat="42.6754519064" lon="0.1226916164">
        <ele>2116.48</ele>
        <time>2022-07-10T13:45:27Z</time>
      </trkpt>
      <trkpt lat="42.6754348073" lon="0.1225544047">
        <ele>2113.60</ele>
        <time>2022-07-10T13:45:41Z</time>
      </trkpt>
      <trkpt lat="42.6754337177" lon="0.1225259900">
        <ele>2113.12</ele>
        <time>2022-07-10T13:45:44Z</time>
      </trkpt>
      <trkpt lat="42.6754266769" lon="0.1223513950">
        <ele>2109.27</ele>
        <time>2022-07-10T13:45:59Z</time>
      </trkpt>
      <trkpt lat="42.6754279342" lon="0.1223432645">
        <ele>2109.27</ele>
        <time>2022-07-10T13:46:00Z</time>
      </trkpt>
      <trkpt lat="42.6754031237" lon="0.1222711802">
        <ele>2107.35</ele>
        <time>2022-07-10T13:46:06Z</time>
      </trkpt>
      <trkpt lat="42.6753493957" lon="0.1221664902">
        <ele>2104.94</ele>
        <time>2022-07-10T13:46:18Z</time>
      </trkpt>
      <trkpt lat="42.6753509883" lon="0.1221545879">
        <ele>2104.46</ele>
        <time>2022-07-10T13:46:19Z</time>
      </trkpt>
      <trkpt lat="42.6753474679" lon="0.1219667494">
        <ele>2100.62</ele>
        <time>2022-07-10T13:46:33Z</time>
      </trkpt>
      <trkpt lat="42.6753528323" lon="0.1218488999">
        <ele>2098.70</ele>
        <time>2022-07-10T13:46:43Z</time>
      </trkpt>
      <trkpt lat="42.6753351465" lon="0.1217743848">
        <ele>2097.25</ele>
        <time>2022-07-10T13:46:49Z</time>
      </trkpt>
      <trkpt lat="42.6753668301" lon="0.1216541044">
        <ele>2095.33</ele>
        <time>2022-07-10T13:46:58Z</time>
      </trkpt>
      <trkpt lat="42.6753605437" lon="0.1216068305">
        <ele>2094.85</ele>
        <time>2022-07-10T13:47:02Z</time>
      </trkpt>
      <trkpt lat="42.6753649861" lon="0.1214764919">
        <ele>2091.97</ele>
        <time>2022-07-10T13:47:14Z</time>
      </trkpt>
      <trkpt lat="42.6754136849" lon="0.1213203371">
        <ele>2088.12</ele>
        <time>2022-07-10T13:47:28Z</time>
      </trkpt>
      <trkpt lat="42.6754204743" lon="0.1213091891">
        <ele>2088.12</ele>
        <time>2022-07-10T13:47:29Z</time>
      </trkpt>
      <trkpt lat="42.6754348911" lon="0.1211566385">
        <ele>2085.72</ele>
        <time>2022-07-10T13:47:42Z</time>
      </trkpt>
      <trkpt lat="42.6754677482" lon="0.1210402139">
        <ele>2082.83</ele>
        <time>2022-07-10T13:47:52Z</time>
      </trkpt>
      <trkpt lat="42.6754795667" lon="0.1210157387">
        <ele>2083.31</ele>
        <time>2022-07-10T13:47:54Z</time>
      </trkpt>
      <trkpt lat="42.6754990965" lon="0.1208999008">
        <ele>2081.39</ele>
        <time>2022-07-10T13:48:05Z</time>
      </trkpt>
      <trkpt lat="42.6754820812" lon="0.1207743399">
        <ele>2078.51</ele>
        <time>2022-07-10T13:48:17Z</time>
      </trkpt>
      <trkpt lat="42.6754811592" lon="0.1206779480">
        <ele>2075.62</ele>
        <time>2022-07-10T13:48:26Z</time>
      </trkpt>
      <trkpt lat="42.6755079813" lon="0.1204595994">
        <ele>2072.26</ele>
        <time>2022-07-10T13:48:43Z</time>
      </trkpt>
      <trkpt lat="42.6755327918" lon="0.1202433463">
        <ele>2069.38</ele>
        <time>2022-07-10T13:48:59Z</time>
      </trkpt>
      <trkpt lat="42.6755382400" lon="0.1200907957">
        <ele>2066.49</ele>
        <time>2022-07-10T13:49:12Z</time>
      </trkpt>
      <trkpt lat="42.6755476277" lon="0.1200534962">
        <ele>2065.05</ele>
        <time>2022-07-10T13:49:15Z</time>
      </trkpt>
      <trkpt lat="42.6755421795" lon="0.1198532525">
        <ele>2062.17</ele>
        <time>2022-07-10T13:49:29Z</time>
      </trkpt>
      <trkpt lat="42.6755172014" lon="0.1196250971">
        <ele>2060.24</ele>
        <time>2022-07-10T13:49:43Z</time>
      </trkpt>
      <trkpt lat="42.6755227335" lon="0.1195506658">
        <ele>2060.24</ele>
        <time>2022-07-10T13:49:47Z</time>
      </trkpt>
      <trkpt lat="42.6755400840" lon="0.1194157172">
        <ele>2060.24</ele>
        <time>2022-07-10T13:49:55Z</time>
      </trkpt>
      <trkpt lat="42.6755624637" lon="0.1193243545">
        <ele>2061.20</ele>
        <time>2022-07-10T13:50:00Z</time>
      </trkpt>
      <trkpt lat="42.6756617893" lon="0.1190687064">
        <ele>2061.68</ele>
        <time>2022-07-10T13:50:15Z</time>
      </trkpt>
      <trkpt lat="42.6756657287" lon="0.1190535352">
        <ele>2061.68</ele>
        <time>2022-07-10T13:50:16Z</time>
      </trkpt>
      <trkpt lat="42.6757433452" lon="0.1188944466">
        <ele>2062.65</ele>
        <time>2022-07-10T13:50:27Z</time>
      </trkpt>
      <trkpt lat="42.6758107357" lon="0.1187716518">
        <ele>2062.65</ele>
        <time>2022-07-10T13:50:36Z</time>
      </trkpt>
      <trkpt lat="42.6758637093" lon="0.1186897606">
        <ele>2063.13</ele>
        <time>2022-07-10T13:50:42Z</time>
      </trkpt>
      <trkpt lat="42.6759817265" lon="0.1184722502">
        <ele>2063.13</ele>
        <time>2022-07-10T13:50:57Z</time>
      </trkpt>
      <trkpt lat="42.6760626119" lon="0.1183293387">
        <ele>2064.57</ele>
        <time>2022-07-10T13:51:08Z</time>
      </trkpt>
      <trkpt lat="42.6761231292" lon="0.1181975752">
        <ele>2065.53</ele>
        <time>2022-07-10T13:51:17Z</time>
      </trkpt>
      <trkpt lat="42.6762118936" lon="0.1180419233">
        <ele>2066.97</ele>
        <time>2022-07-10T13:51:30Z</time>
      </trkpt>
      <trkpt lat="42.6762933657" lon="0.1179845072">
        <ele>2066.97</ele>
        <time>2022-07-10T13:51:39Z</time>
      </trkpt>
      <trkpt lat="42.6763901766" lon="0.1179915480">
        <ele>2068.89</ele>
        <time>2022-07-10T13:51:49Z</time>
      </trkpt>
      <trkpt lat="42.6764250454" lon="0.1179985050">
        <ele>2069.86</ele>
        <time>2022-07-10T13:52:04Z</time>
      </trkpt>
      <trkpt lat="42.6764247939" lon="0.1179935597">
        <ele>2069.86</ele>
        <time>2022-07-10T13:52:05Z</time>
      </trkpt>
      <trkpt lat="42.6764459163" lon="0.1179669891">
        <ele>2069.86</ele>
        <time>2022-07-10T13:52:09Z</time>
      </trkpt>
      <trkpt lat="42.6764560584" lon="0.1179239899">
        <ele>2069.86</ele>
        <time>2022-07-10T13:52:12Z</time>
      </trkpt>
      <trkpt lat="42.6764787734" lon="0.1177928131">
        <ele>2069.86</ele>
        <time>2022-07-10T13:52:20Z</time>
      </trkpt>
      <trkpt lat="42.6764933579" lon="0.1174448803">
        <ele>2070.34</ele>
        <time>2022-07-10T13:52:37Z</time>
      </trkpt>
      <trkpt lat="42.6765761711" lon="0.1172276214">
        <ele>2070.82</ele>
        <time>2022-07-10T13:52:51Z</time>
      </trkpt>
      <trkpt lat="42.6766568888" lon="0.1171437185">
        <ele>2071.30</ele>
        <time>2022-07-10T13:52:59Z</time>
      </trkpt>
      <trkpt lat="42.6766929310" lon="0.1170360949">
        <ele>2071.78</ele>
        <time>2022-07-10T13:53:05Z</time>
      </trkpt>
      <trkpt lat="42.6767379418" lon="0.1169419661">
        <ele>2071.78</ele>
        <time>2022-07-10T13:53:11Z</time>
      </trkpt>
      <trkpt lat="42.6768536959" lon="0.1167045068">
        <ele>2072.74</ele>
        <time>2022-07-10T13:53:26Z</time>
      </trkpt>
      <trkpt lat="42.6769458130" lon="0.1164949592">
        <ele>2073.22</ele>
        <time>2022-07-10T13:53:39Z</time>
      </trkpt>
      <trkpt lat="42.6769817714" lon="0.1164461765">
        <ele>2073.22</ele>
        <time>2022-07-10T13:53:43Z</time>
      </trkpt>
      <trkpt lat="42.6770580467" lon="0.1162052806">
        <ele>2074.18</ele>
        <time>2022-07-10T13:53:58Z</time>
      </trkpt>
      <trkpt lat="42.6771256886" lon="0.1159304380">
        <ele>2075.14</ele>
        <time>2022-07-10T13:54:12Z</time>
      </trkpt>
      <trkpt lat="42.6772175543" lon="0.1156400889">
        <ele>2074.18</ele>
        <time>2022-07-10T13:54:27Z</time>
      </trkpt>
      <trkpt lat="42.6773160417" lon="0.1153822616">
        <ele>2074.18</ele>
        <time>2022-07-10T13:54:42Z</time>
      </trkpt>
      <trkpt lat="42.6773676742" lon="0.1152453013">
        <ele>2073.70</ele>
        <time>2022-07-10T13:54:50Z</time>
      </trkpt>
      <trkpt lat="42.6775203925" lon="0.1149578858">
        <ele>2072.26</ele>
        <time>2022-07-10T13:55:08Z</time>
      </trkpt>
      <trkpt lat="42.6776175387" lon="0.1146962866">
        <ele>2072.26</ele>
        <time>2022-07-10T13:55:23Z</time>
      </trkpt>
      <trkpt lat="42.6776448637" lon="0.1145895850">
        <ele>2073.70</ele>
        <time>2022-07-10T13:55:29Z</time>
      </trkpt>
      <trkpt lat="42.6777530741" lon="0.1142995711">
        <ele>2073.70</ele>
        <time>2022-07-10T13:55:46Z</time>
      </trkpt>
      <trkpt lat="42.6777560916" lon="0.1142820530">
        <ele>2073.70</ele>
        <time>2022-07-10T13:55:47Z</time>
      </trkpt>
      <trkpt lat="42.6778240688" lon="0.1141614374">
        <ele>2073.70</ele>
        <time>2022-07-10T13:55:55Z</time>
      </trkpt>
      <trkpt lat="42.6779575087" lon="0.1138789672">
        <ele>2072.26</ele>
        <time>2022-07-10T13:56:12Z</time>
      </trkpt>
      <trkpt lat="42.6780068781" lon="0.1138287596">
        <ele>2072.26</ele>
        <time>2022-07-10T13:56:16Z</time>
      </trkpt>
      <trkpt lat="42.6780383941" lon="0.1137674041">
        <ele>2072.26</ele>
        <time>2022-07-10T13:56:20Z</time>
      </trkpt>
      <trkpt lat="42.6780579239" lon="0.1137389056">
        <ele>2072.26</ele>
        <time>2022-07-10T13:56:22Z</time>
      </trkpt>
      <trkpt lat="42.6781177707" lon="0.1136638038">
        <ele>2073.70</ele>
        <time>2022-07-10T13:56:28Z</time>
      </trkpt>
      <trkpt lat="42.6782507077" lon="0.1134672482">
        <ele>2072.26</ele>
        <time>2022-07-10T13:56:42Z</time>
      </trkpt>
      <trkpt lat="42.6782888453" lon="0.1134183817">
        <ele>2073.22</ele>
        <time>2022-07-10T13:56:46Z</time>
      </trkpt>
      <trkpt lat="42.6783489436" lon="0.1133500692">
        <ele>2074.18</ele>
        <time>2022-07-10T13:56:52Z</time>
      </trkpt>
      <trkpt lat="42.6784424018" lon="0.1132354047">
        <ele>2073.22</ele>
        <time>2022-07-10T13:57:01Z</time>
      </trkpt>
      <trkpt lat="42.6784580760" lon="0.1132090855">
        <ele>2074.18</ele>
        <time>2022-07-10T13:57:03Z</time>
      </trkpt>
      <trkpt lat="42.6785625983" lon="0.1130484045">
        <ele>2074.18</ele>
        <time>2022-07-10T13:57:15Z</time>
      </trkpt>
      <trkpt lat="42.6785884984" lon="0.1130084228">
        <ele>2075.14</ele>
        <time>2022-07-10T13:57:18Z</time>
      </trkpt>
      <trkpt lat="42.6786257979" lon="0.1129433792">
        <ele>2073.70</ele>
        <time>2022-07-10T13:57:23Z</time>
      </trkpt>
      <trkpt lat="42.6786596607" lon="0.1128480770">
        <ele>2076.10</ele>
        <time>2022-07-10T13:57:29Z</time>
      </trkpt>
      <trkpt lat="42.6786884945" lon="0.1127855480">
        <ele>2074.66</ele>
        <time>2022-07-10T13:57:33Z</time>
      </trkpt>
      <trkpt lat="42.6788365189" lon="0.1125609130">
        <ele>2074.66</ele>
        <time>2022-07-10T13:57:50Z</time>
      </trkpt>
      <trkpt lat="42.6788537018" lon="0.1125321630">
        <ele>2076.59</ele>
        <time>2022-07-10T13:57:52Z</time>
      </trkpt>
      <trkpt lat="42.6788766682" lon="0.1124840509">
        <ele>2075.14</ele>
        <time>2022-07-10T13:57:55Z</time>
      </trkpt>
      <trkpt lat="42.6789081842" lon="0.1124120504">
        <ele>2076.59</ele>
        <time>2022-07-10T13:58:00Z</time>
      </trkpt>
      <trkpt lat="42.6789858006" lon="0.1122952905">
        <ele>2077.55</ele>
        <time>2022-07-10T13:58:09Z</time>
      </trkpt>
      <trkpt lat="42.6790063363" lon="0.1122277323">
        <ele>2076.59</ele>
        <time>2022-07-10T13:58:13Z</time>
      </trkpt>
      <trkpt lat="42.6790575497" lon="0.1120639499">
        <ele>2078.03</ele>
        <time>2022-07-10T13:58:23Z</time>
      </trkpt>
      <trkpt lat="42.6791093498" lon="0.1119826455">
        <ele>2078.51</ele>
        <time>2022-07-10T13:58:29Z</time>
      </trkpt>
      <trkpt lat="42.6791514270" lon="0.1118910313">
        <ele>2078.51</ele>
        <time>2022-07-10T13:58:35Z</time>
      </trkpt>
      <trkpt lat="42.6792144589" lon="0.1117985789">
        <ele>2078.99</ele>
        <time>2022-07-10T13:58:42Z</time>
      </trkpt>
      <trkpt lat="42.6793908142" lon="0.1115981676">
        <ele>2077.07</ele>
        <time>2022-07-10T13:58:58Z</time>
      </trkpt>
      <trkpt lat="42.6795760542" lon="0.1114565972">
        <ele>2078.99</ele>
        <time>2022-07-10T13:59:14Z</time>
      </trkpt>
      <trkpt lat="42.6797076501" lon="0.1112860255">
        <ele>2080.43</ele>
        <time>2022-07-10T13:59:29Z</time>
      </trkpt>
      <trkpt lat="42.6798060536" lon="0.1110666711">
        <ele>2082.35</ele>
        <time>2022-07-10T13:59:45Z</time>
      </trkpt>
      <trkpt lat="42.6798457000" lon="0.1109806728">
        <ele>2082.83</ele>
        <time>2022-07-10T13:59:51Z</time>
      </trkpt>
      <trkpt lat="42.6798735280" lon="0.1108921599">
        <ele>2083.79</ele>
        <time>2022-07-10T13:59:57Z</time>
      </trkpt>
      <trkpt lat="42.6799467020" lon="0.1107268687">
        <ele>2084.28</ele>
        <time>2022-07-10T14:00:08Z</time>
      </trkpt>
      <trkpt lat="42.6800390705" lon="0.1106048282">
        <ele>2085.24</ele>
        <time>2022-07-10T14:00:19Z</time>
      </trkpt>
      <trkpt lat="42.6800710056" lon="0.1104775071">
        <ele>2085.72</ele>
        <time>2022-07-10T14:00:26Z</time>
      </trkpt>
      <trkpt lat="42.6801419165" lon="0.1103493478">
        <ele>2087.16</ele>
        <time>2022-07-10T14:00:36Z</time>
      </trkpt>
      <trkpt lat="42.6802170184" lon="0.1102167461">
        <ele>2088.60</ele>
        <time>2022-07-10T14:00:46Z</time>
      </trkpt>
      <trkpt lat="42.6803039387" lon="0.1100739185">
        <ele>2089.08</ele>
        <time>2022-07-10T14:00:57Z</time>
      </trkpt>
      <trkpt lat="42.6803988218" lon="0.1099355333">
        <ele>2089.56</ele>
        <time>2022-07-10T14:01:08Z</time>
      </trkpt>
      <trkpt lat="42.6804455929" lon="0.1098439191">
        <ele>2090.52</ele>
        <time>2022-07-10T14:01:14Z</time>
      </trkpt>
      <trkpt lat="42.6805585809" lon="0.1096579246">
        <ele>2092.45</ele>
        <time>2022-07-10T14:01:29Z</time>
      </trkpt>
      <trkpt lat="42.6806465071" lon="0.1095290110">
        <ele>2094.37</ele>
        <time>2022-07-10T14:01:42Z</time>
      </trkpt>
      <trkpt lat="42.6806999836" lon="0.1094655599">
        <ele>2096.29</ele>
        <time>2022-07-10T14:01:49Z</time>
      </trkpt>
      <trkpt lat="42.6808009017" lon="0.1093392447">
        <ele>2097.25</ele>
        <time>2022-07-10T14:02:02Z</time>
      </trkpt>
      <trkpt lat="42.6808184199" lon="0.1093334612">
        <ele>2098.21</ele>
        <time>2022-07-10T14:02:04Z</time>
      </trkpt>
      <trkpt lat="42.6808774285" lon="0.1093046274">
        <ele>2099.66</ele>
        <time>2022-07-10T14:02:10Z</time>
      </trkpt>
      <trkpt lat="42.6809525304" lon="0.1091730315">
        <ele>2094.85</ele>
        <time>2022-07-10T14:02:21Z</time>
      </trkpt>
      <trkpt lat="42.6809483394" lon="0.1091474667">
        <ele>2098.70</ele>
        <time>2022-07-10T14:02:23Z</time>
      </trkpt>
      <trkpt lat="42.6809521951" lon="0.1091350615">
        <ele>2098.70</ele>
        <time>2022-07-10T14:02:24Z</time>
      </trkpt>
      <trkpt lat="42.6809945237" lon="0.1090734545">
        <ele>2096.77</ele>
        <time>2022-07-10T14:02:30Z</time>
      </trkpt>
      <trkpt lat="42.6810366008" lon="0.1089850254">
        <ele>2093.89</ele>
        <time>2022-07-10T14:02:36Z</time>
      </trkpt>
      <trkpt lat="42.6810447313" lon="0.1089560241">
        <ele>2092.93</ele>
        <time>2022-07-10T14:02:38Z</time>
      </trkpt>
      <trkpt lat="42.6811101101" lon="0.1087192353">
        <ele>2090.52</ele>
        <time>2022-07-10T14:02:53Z</time>
      </trkpt>
      <trkpt lat="42.6811650116" lon="0.1084964443">
        <ele>2087.64</ele>
        <time>2022-07-10T14:03:08Z</time>
      </trkpt>
      <trkpt lat="42.6811852120" lon="0.1083255373">
        <ele>2086.68</ele>
        <time>2022-07-10T14:03:24Z</time>
      </trkpt>
      <trkpt lat="42.6811662689" lon="0.1083132159">
        <ele>2086.68</ele>
        <time>2022-07-10T14:03:48Z</time>
      </trkpt>
      <trkpt lat="42.6811690349" lon="0.1083548740">
        <ele>2086.68</ele>
        <time>2022-07-10T14:04:16Z</time>
      </trkpt>
      <trkpt lat="42.6812080108" lon="0.1083345059">
        <ele>2086.68</ele>
        <time>2022-07-10T14:04:42Z</time>
      </trkpt>
      <trkpt lat="42.6812080946" lon="0.1083368529">
        <ele>2086.68</ele>
        <time>2022-07-10T14:04:45Z</time>
      </trkpt>
      <trkpt lat="42.6812344976" lon="0.1083241124">
        <ele>2086.68</ele>
        <time>2022-07-10T14:04:48Z</time>
      </trkpt>
      <trkpt lat="42.6812482439" lon="0.1083000563">
        <ele>2086.68</ele>
        <time>2022-07-10T14:04:50Z</time>
      </trkpt>
      <trkpt lat="42.6812480763" lon="0.1082636788">
        <ele>2085.24</ele>
        <time>2022-07-10T14:04:53Z</time>
      </trkpt>
      <trkpt lat="42.6812379342" lon="0.1081401296">
        <ele>2084.28</ele>
        <time>2022-07-10T14:05:03Z</time>
      </trkpt>
      <trkpt lat="42.6812359225" lon="0.1081094518">
        <ele>2083.31</ele>
        <time>2022-07-10T14:05:05Z</time>
      </trkpt>
      <trkpt lat="42.6812239364" lon="0.1080197655">
        <ele>2079.95</ele>
        <time>2022-07-10T14:05:12Z</time>
      </trkpt>
      <trkpt lat="42.6811914146" lon="0.1078288257">
        <ele>2076.10</ele>
        <time>2022-07-10T14:05:28Z</time>
      </trkpt>
      <trkpt lat="42.6811857149" lon="0.1077446714">
        <ele>2074.66</ele>
        <time>2022-07-10T14:05:35Z</time>
      </trkpt>
      <trkpt lat="42.6811948512" lon="0.1076823939">
        <ele>2072.74</ele>
        <time>2022-07-10T14:05:40Z</time>
      </trkpt>
      <trkpt lat="42.6812110282" lon="0.1076035202">
        <ele>2071.78</ele>
        <time>2022-07-10T14:05:46Z</time>
      </trkpt>
      <trkpt lat="42.6812923327" lon="0.1074432582">
        <ele>2067.93</ele>
        <time>2022-07-10T14:06:00Z</time>
      </trkpt>
      <trkpt lat="42.6813746430" lon="0.1073805615">
        <ele>2065.05</ele>
        <time>2022-07-10T14:06:11Z</time>
      </trkpt>
      <trkpt lat="42.6814398542" lon="0.1072922163">
        <ele>2061.20</ele>
        <time>2022-07-10T14:06:23Z</time>
      </trkpt>
      <trkpt lat="42.6814401895" lon="0.1072125882">
        <ele>2059.76</ele>
        <time>2022-07-10T14:06:33Z</time>
      </trkpt>
      <trkpt lat="42.6814479847" lon="0.1071529929">
        <ele>2056.88</ele>
        <time>2022-07-10T14:06:43Z</time>
      </trkpt>
      <trkpt lat="42.6814688556" lon="0.1071462035">
        <ele>2055.44</ele>
        <time>2022-07-10T14:06:55Z</time>
      </trkpt>
      <trkpt lat="42.6814580429" lon="0.1071363129">
        <ele>2055.44</ele>
        <time>2022-07-10T14:07:07Z</time>
      </trkpt>
      <trkpt lat="42.6814258564" lon="0.1071546692">
        <ele>2055.44</ele>
        <time>2022-07-10T14:07:38Z</time>
      </trkpt>
      <trkpt lat="42.6814311370" lon="0.1071377378">
        <ele>2051.11</ele>
        <time>2022-07-10T14:07:57Z</time>
      </trkpt>
      <trkpt lat="42.6814358309" lon="0.1071426831">
        <ele>2059.28</ele>
        <time>2022-07-10T14:07:58Z</time>
      </trkpt>
      <trkpt lat="42.6814381778" lon="0.1071410906">
        <ele>2055.92</ele>
        <time>2022-07-10T14:07:59Z</time>
      </trkpt>
      <trkpt lat="42.6814313047" lon="0.1071231533">
        <ele>2056.40</ele>
        <time>2022-07-10T14:08:14Z</time>
      </trkpt>
      <trkpt lat="42.6814437937" lon="0.1070742030">
        <ele>2056.40</ele>
        <time>2022-07-10T14:08:27Z</time>
      </trkpt>
      <trkpt lat="42.6813903172" lon="0.1069877855">
        <ele>2053.03</ele>
        <time>2022-07-10T14:08:41Z</time>
      </trkpt>
      <trkpt lat="42.6813662611" lon="0.1068782341">
        <ele>2050.15</ele>
        <time>2022-07-10T14:08:53Z</time>
      </trkpt>
      <trkpt lat="42.6813718770" lon="0.1067107636">
        <ele>2048.23</ele>
        <time>2022-07-10T14:09:06Z</time>
      </trkpt>
      <trkpt lat="42.6813761517" lon="0.1066934131">
        <ele>2048.23</ele>
        <time>2022-07-10T14:09:07Z</time>
      </trkpt>
      <trkpt lat="42.6814037282" lon="0.1066010445">
        <ele>2047.26</ele>
        <time>2022-07-10T14:09:15Z</time>
      </trkpt>
      <trkpt lat="42.6814687718" lon="0.1064916607">
        <ele>2047.75</ele>
        <time>2022-07-10T14:09:30Z</time>
      </trkpt>
      <trkpt lat="42.6814812608" lon="0.1064541936">
        <ele>2047.75</ele>
        <time>2022-07-10T14:09:37Z</time>
      </trkpt>
      <trkpt lat="42.6814814284" lon="0.1064161398">
        <ele>2047.26</ele>
        <time>2022-07-10T14:09:40Z</time>
      </trkpt>
      <trkpt lat="42.6814480685" lon="0.1062653493">
        <ele>2045.82</ele>
        <time>2022-07-10T14:09:51Z</time>
      </trkpt>
      <trkpt lat="42.6814639941" lon="0.1061071828">
        <ele>2043.90</ele>
        <time>2022-07-10T14:10:03Z</time>
      </trkpt>
      <trkpt lat="42.6815406047" lon="0.1059093699">
        <ele>2043.42</ele>
        <time>2022-07-10T14:10:18Z</time>
      </trkpt>
      <trkpt lat="42.6815565303" lon="0.1058888342">
        <ele>2043.42</ele>
        <time>2022-07-10T14:10:20Z</time>
      </trkpt>
      <trkpt lat="42.6816140302" lon="0.1057572383">
        <ele>2041.98</ele>
        <time>2022-07-10T14:10:33Z</time>
      </trkpt>
      <trkpt lat="42.6816887967" lon="0.1055805478">
        <ele>2040.05</ele>
        <time>2022-07-10T14:10:47Z</time>
      </trkpt>
      <trkpt lat="42.6817241684" lon="0.1053231396">
        <ele>2037.17</ele>
        <time>2022-07-10T14:11:03Z</time>
      </trkpt>
      <trkpt lat="42.6817512419" lon="0.1051880233">
        <ele>2034.29</ele>
        <time>2022-07-10T14:11:17Z</time>
      </trkpt>
      <trkpt lat="42.6817633118" lon="0.1051979978">
        <ele>2033.81</ele>
        <time>2022-07-10T14:11:33Z</time>
      </trkpt>
      <trkpt lat="42.6817530859" lon="0.1051829103">
        <ele>2033.81</ele>
        <time>2022-07-10T14:12:09Z</time>
      </trkpt>
      <trkpt lat="42.6817549299" lon="0.1051945612">
        <ele>2035.25</ele>
        <time>2022-07-10T14:12:25Z</time>
      </trkpt>
      <trkpt lat="42.6817736216" lon="0.1051750313">
        <ele>2035.25</ele>
        <time>2022-07-10T14:12:42Z</time>
      </trkpt>
      <trkpt lat="42.6817756332" lon="0.1051094010">
        <ele>2035.25</ele>
        <time>2022-07-10T14:12:47Z</time>
      </trkpt>
      <trkpt lat="42.6817553490" lon="0.1050188765">
        <ele>2035.25</ele>
        <time>2022-07-10T14:12:54Z</time>
      </trkpt>
      <trkpt lat="42.6817590371" lon="0.1049664896">
        <ele>2033.33</ele>
        <time>2022-07-10T14:12:58Z</time>
      </trkpt>
      <trkpt lat="42.6818410959" lon="0.1047680061">
        <ele>2032.84</ele>
        <time>2022-07-10T14:13:13Z</time>
      </trkpt>
      <trkpt lat="42.6818865258" lon="0.1046652440">
        <ele>2031.88</ele>
        <time>2022-07-10T14:13:21Z</time>
      </trkpt>
      <trkpt lat="42.6819776371" lon="0.1044382621">
        <ele>2029.00</ele>
        <time>2022-07-10T14:13:39Z</time>
      </trkpt>
      <trkpt lat="42.6820180379" lon="0.1042955182">
        <ele>2026.12</ele>
        <time>2022-07-10T14:13:53Z</time>
      </trkpt>
      <trkpt lat="42.6820658986" lon="0.1042074244">
        <ele>2022.27</ele>
        <time>2022-07-10T14:14:03Z</time>
      </trkpt>
      <trkpt lat="42.6821366418" lon="0.1039857231">
        <ele>2020.83</ele>
        <time>2022-07-10T14:14:17Z</time>
      </trkpt>
      <trkpt lat="42.6821678225" lon="0.1038967073">
        <ele>2020.83</ele>
        <time>2022-07-10T14:14:22Z</time>
      </trkpt>
      <trkpt lat="42.6821848378" lon="0.1037991419">
        <ele>2020.35</ele>
        <time>2022-07-10T14:14:28Z</time>
      </trkpt>
      <trkpt lat="42.6822159346" lon="0.1035629399">
        <ele>2018.91</ele>
        <time>2022-07-10T14:14:43Z</time>
      </trkpt>
      <trkpt lat="42.6822902821" lon="0.1034161728">
        <ele>2018.43</ele>
        <time>2022-07-10T14:14:58Z</time>
      </trkpt>
      <trkpt lat="42.6823006757" lon="0.1033984032">
        <ele>2017.94</ele>
        <time>2022-07-10T14:15:00Z</time>
      </trkpt>
      <trkpt lat="42.6823182777" lon="0.1033320185">
        <ele>2016.98</ele>
        <time>2022-07-10T14:15:05Z</time>
      </trkpt>
      <trkpt lat="42.6823370531" lon="0.1031552441">
        <ele>2015.06</ele>
        <time>2022-07-10T14:15:18Z</time>
      </trkpt>
      <trkpt lat="42.6823554095" lon="0.1030332036">
        <ele>2013.62</ele>
        <time>2022-07-10T14:15:29Z</time>
      </trkpt>
      <trkpt lat="42.6823582593" lon="0.1028083172">
        <ele>2012.18</ele>
        <time>2022-07-10T14:15:44Z</time>
      </trkpt>
      <trkpt lat="42.6823500451" lon="0.1025707740">
        <ele>2010.73</ele>
        <time>2022-07-10T14:15:57Z</time>
      </trkpt>
      <trkpt lat="42.6823513024" lon="0.1022759825">
        <ele>2009.29</ele>
        <time>2022-07-10T14:16:14Z</time>
      </trkpt>
      <trkpt lat="42.6823023520" lon="0.1020850427">
        <ele>2005.93</ele>
        <time>2022-07-10T14:16:25Z</time>
      </trkpt>
      <trkpt lat="42.6822879352" lon="0.1020353381">
        <ele>2004.49</ele>
        <time>2022-07-10T14:16:29Z</time>
      </trkpt>
      <trkpt lat="42.6822872646" lon="0.1019321568">
        <ele>2003.52</ele>
        <time>2022-07-10T14:16:36Z</time>
      </trkpt>
      <trkpt lat="42.6823014300" lon="0.1018379442">
        <ele>2000.16</ele>
        <time>2022-07-10T14:16:45Z</time>
      </trkpt>
      <trkpt lat="42.6823008433" lon="0.1017144788">
        <ele>1997.76</ele>
        <time>2022-07-10T14:16:55Z</time>
      </trkpt>
      <trkpt lat="42.6823686529" lon="0.1016796939">
        <ele>1999.68</ele>
        <time>2022-07-10T14:17:07Z</time>
      </trkpt>
      <trkpt lat="42.6824066229" lon="0.1016573142">
        <ele>2001.60</ele>
        <time>2022-07-10T14:17:13Z</time>
      </trkpt>
      <trkpt lat="42.6825578324" lon="0.1016660314">
        <ele>2002.56</ele>
        <time>2022-07-10T14:17:26Z</time>
      </trkpt>
      <trkpt lat="42.6826584153" lon="0.1017361879">
        <ele>2005.45</ele>
        <time>2022-07-10T14:17:37Z</time>
      </trkpt>
      <trkpt lat="42.6827269793" lon="0.1017658599">
        <ele>2007.37</ele>
        <time>2022-07-10T14:17:44Z</time>
      </trkpt>
      <trkpt lat="42.6827438269" lon="0.1017794386">
        <ele>2008.33</ele>
        <time>2022-07-10T14:17:46Z</time>
      </trkpt>
      <trkpt lat="42.6828322560" lon="0.1019038260">
        <ele>2009.77</ele>
        <time>2022-07-10T14:18:02Z</time>
      </trkpt>
      <trkpt lat="42.6828227006" lon="0.1018589828">
        <ele>2007.37</ele>
        <time>2022-07-10T14:18:13Z</time>
      </trkpt>
      <trkpt lat="42.6828441583" lon="0.1018538699">
        <ele>2007.85</ele>
        <time>2022-07-10T14:18:39Z</time>
      </trkpt>
      <trkpt lat="42.6828408055" lon="0.1018637605">
        <ele>2009.29</ele>
        <time>2022-07-10T14:18:42Z</time>
      </trkpt>
      <trkpt lat="42.6828326751" lon="0.1018729806">
        <ele>2009.29</ele>
        <time>2022-07-10T14:18:55Z</time>
      </trkpt>
      <trkpt lat="42.6827602554" lon="0.1016163267">
        <ele>2007.85</ele>
        <time>2022-07-10T14:19:10Z</time>
      </trkpt>
      <trkpt lat="42.6827562321" lon="0.1015919354">
        <ele>2007.85</ele>
        <time>2022-07-10T14:19:11Z</time>
      </trkpt>
      <trkpt lat="42.6827199385" lon="0.1013268996">
        <ele>2006.89</ele>
        <time>2022-07-10T14:19:25Z</time>
      </trkpt>
      <trkpt lat="42.6826949604" lon="0.1010817289">
        <ele>2004.49</ele>
        <time>2022-07-10T14:19:38Z</time>
      </trkpt>
      <trkpt lat="42.6826678030" lon="0.1008534897">
        <ele>2001.60</ele>
        <time>2022-07-10T14:19:50Z</time>
      </trkpt>
      <trkpt lat="42.6826046873" lon="0.1005802397">
        <ele>1999.20</ele>
        <time>2022-07-10T14:20:05Z</time>
      </trkpt>
      <trkpt lat="42.6825930364" lon="0.1002763957">
        <ele>1997.76</ele>
        <time>2022-07-10T14:20:22Z</time>
      </trkpt>
      <trkpt lat="42.6826082077" lon="0.1000058278">
        <ele>1995.35</ele>
        <time>2022-07-10T14:20:37Z</time>
      </trkpt>
      <trkpt lat="42.6826763526" lon="0.0997376069">
        <ele>1993.91</ele>
        <time>2022-07-10T14:20:52Z</time>
      </trkpt>
      <trkpt lat="42.6827123109" lon="0.0996808615">
        <ele>1993.43</ele>
        <time>2022-07-10T14:20:58Z</time>
      </trkpt>
      <trkpt lat="42.6826997381" lon="0.0997144729">
        <ele>1993.43</ele>
        <time>2022-07-10T14:21:10Z</time>
      </trkpt>
      <trkpt lat="42.6826867461" lon="0.0996982958">
        <ele>1992.47</ele>
        <time>2022-07-10T14:21:28Z</time>
      </trkpt>
      <trkpt lat="42.6826802082" lon="0.0996837951">
        <ele>1988.62</ele>
        <time>2022-07-10T14:21:49Z</time>
      </trkpt>
      <trkpt lat="42.6826840639" lon="0.0996874832">
        <ele>1993.43</ele>
        <time>2022-07-10T14:21:50Z</time>
      </trkpt>
      <trkpt lat="42.6826855727" lon="0.0996897463">
        <ele>1996.80</ele>
        <time>2022-07-10T14:21:51Z</time>
      </trkpt>
      <trkpt lat="42.6826843154" lon="0.0996959489">
        <ele>1994.87</ele>
        <time>2022-07-10T14:21:52Z</time>
      </trkpt>
      <trkpt lat="42.6826849021" lon="0.0997013971">
        <ele>1993.43</ele>
        <time>2022-07-10T14:21:54Z</time>
      </trkpt>
      <trkpt lat="42.6826951280" lon="0.0997009780">
        <ele>1994.87</ele>
        <time>2022-07-10T14:22:07Z</time>
      </trkpt>
      <trkpt lat="42.6827734150" lon="0.0995501038">
        <ele>1994.39</ele>
        <time>2022-07-10T14:22:17Z</time>
      </trkpt>
      <trkpt lat="42.6828092057" lon="0.0994376186">
        <ele>1995.83</ele>
        <time>2022-07-10T14:22:24Z</time>
      </trkpt>
      <trkpt lat="42.6828348543" lon="0.0993610919">
        <ele>1994.39</ele>
        <time>2022-07-10T14:22:28Z</time>
      </trkpt>
      <trkpt lat="42.6829537936" lon="0.0991445873">
        <ele>1993.43</ele>
        <time>2022-07-10T14:22:42Z</time>
      </trkpt>
      <trkpt lat="42.6830438990" lon="0.0989528932">
        <ele>1993.91</ele>
        <time>2022-07-10T14:22:54Z</time>
      </trkpt>
      <trkpt lat="42.6830494311" lon="0.0989373028">
        <ele>1993.91</ele>
        <time>2022-07-10T14:22:55Z</time>
      </trkpt>
      <trkpt lat="42.6831587311" lon="0.0987355504">
        <ele>1994.87</ele>
        <time>2022-07-10T14:23:08Z</time>
      </trkpt>
      <trkpt lat="42.6831820328" lon="0.0986530725">
        <ele>1994.87</ele>
        <time>2022-07-10T14:23:13Z</time>
      </trkpt>
      <trkpt lat="42.6832878124" lon="0.0983756315">
        <ele>1995.35</ele>
        <time>2022-07-10T14:23:31Z</time>
      </trkpt>
      <trkpt lat="42.6833153050" lon="0.0983326323">
        <ele>1996.80</ele>
        <time>2022-07-10T14:23:34Z</time>
      </trkpt>
      <trkpt lat="42.6833417919" lon="0.0982869510">
        <ele>1995.35</ele>
        <time>2022-07-10T14:23:37Z</time>
      </trkpt>
      <trkpt lat="42.6833529398" lon="0.0982727855">
        <ele>1995.35</ele>
        <time>2022-07-10T14:23:38Z</time>
      </trkpt>
      <trkpt lat="42.6833762415" lon="0.0981567800">
        <ele>1992.95</ele>
        <time>2022-07-10T14:23:45Z</time>
      </trkpt>
      <trkpt lat="42.6833813544" lon="0.0981267728">
        <ele>1993.91</ele>
        <time>2022-07-10T14:23:47Z</time>
      </trkpt>
      <trkpt lat="42.6833816059" lon="0.0980849471">
        <ele>1993.91</ele>
        <time>2022-07-10T14:23:49Z</time>
      </trkpt>
      <trkpt lat="42.6834393572" lon="0.0978569593">
        <ele>1994.87</ele>
        <time>2022-07-10T14:24:03Z</time>
      </trkpt>
      <trkpt lat="42.6835582126" lon="0.0976142194">
        <ele>1995.35</ele>
        <time>2022-07-10T14:24:19Z</time>
      </trkpt>
      <trkpt lat="42.6836155448" lon="0.0975102000">
        <ele>1995.35</ele>
        <time>2022-07-10T14:24:27Z</time>
      </trkpt>
      <trkpt lat="42.6836189814" lon="0.0974452402">
        <ele>1995.35</ele>
        <time>2022-07-10T14:24:31Z</time>
      </trkpt>
      <trkpt lat="42.6836258546" lon="0.0974158198">
        <ele>1994.39</ele>
        <time>2022-07-10T14:24:33Z</time>
      </trkpt>
      <trkpt lat="42.6837654132" lon="0.0971547235">
        <ele>1992.47</ele>
        <time>2022-07-10T14:24:50Z</time>
      </trkpt>
      <trkpt lat="42.6837864518" lon="0.0970483571">
        <ele>1992.47</ele>
        <time>2022-07-10T14:24:56Z</time>
      </trkpt>
      <trkpt lat="42.6838460471" lon="0.0967916194">
        <ele>1991.03</ele>
        <time>2022-07-10T14:25:11Z</time>
      </trkpt>
      <trkpt lat="42.6838700194" lon="0.0967558287">
        <ele>1991.03</ele>
        <time>2022-07-10T14:25:14Z</time>
      </trkpt>
      <trkpt lat="42.6838866156" lon="0.0967303477">
        <ele>1992.47</ele>
        <time>2022-07-10T14:25:16Z</time>
      </trkpt>
      <trkpt lat="42.6840162836" lon="0.0965508074">
        <ele>1992.95</ele>
        <time>2022-07-10T14:25:30Z</time>
      </trkpt>
      <trkpt lat="42.6841519028" lon="0.0963565148">
        <ele>1993.43</ele>
        <time>2022-07-10T14:25:45Z</time>
      </trkpt>
      <trkpt lat="42.6842572633" lon="0.0961678382">
        <ele>1993.43</ele>
        <time>2022-07-10T14:25:58Z</time>
      </trkpt>
      <trkpt lat="42.6843895297" lon="0.0960041396">
        <ele>1993.91</ele>
        <time>2022-07-10T14:26:12Z</time>
      </trkpt>
      <trkpt lat="42.6845178567" lon="0.0958598033">
        <ele>1994.87</ele>
        <time>2022-07-10T14:26:25Z</time>
      </trkpt>
      <trkpt lat="42.6846682280" lon="0.0957450550">
        <ele>1995.83</ele>
        <time>2022-07-10T14:26:39Z</time>
      </trkpt>
      <trkpt lat="42.6848315075" lon="0.0955721363">
        <ele>1996.80</ele>
        <time>2022-07-10T14:26:55Z</time>
      </trkpt>
      <trkpt lat="42.6850339305" lon="0.0955077633">
        <ele>1999.20</ele>
        <time>2022-07-10T14:27:11Z</time>
      </trkpt>
      <trkpt lat="42.6850972138" lon="0.0955018960">
        <ele>1997.76</ele>
        <time>2022-07-10T14:27:16Z</time>
      </trkpt>
      <trkpt lat="42.6852571405" lon="0.0955496728">
        <ele>1995.83</ele>
        <time>2022-07-10T14:27:32Z</time>
      </trkpt>
      <trkpt lat="42.6853154786" lon="0.0955646764">
        <ele>1992.47</ele>
        <time>2022-07-10T14:27:42Z</time>
      </trkpt>
      <trkpt lat="42.6853310689" lon="0.0955800153">
        <ele>1991.99</ele>
        <time>2022-07-10T14:27:44Z</time>
      </trkpt>
      <trkpt lat="42.6853490062" lon="0.0955743995">
        <ele>1991.51</ele>
        <time>2022-07-10T14:27:46Z</time>
      </trkpt>
      <trkpt lat="42.6853637584" lon="0.0955150556">
        <ele>1989.59</ele>
        <time>2022-07-10T14:27:50Z</time>
      </trkpt>
      <trkpt lat="42.6853614952" lon="0.0954598188">
        <ele>1988.14</ele>
        <time>2022-07-10T14:27:54Z</time>
      </trkpt>
      <trkpt lat="42.6854068413" lon="0.0952723157">
        <ele>1985.26</ele>
        <time>2022-07-10T14:28:07Z</time>
      </trkpt>
      <trkpt lat="42.6854082663" lon="0.0952483434">
        <ele>1984.30</ele>
        <time>2022-07-10T14:28:09Z</time>
      </trkpt>
      <trkpt lat="42.6854287181" lon="0.0951963756">
        <ele>1982.86</ele>
        <time>2022-07-10T14:28:16Z</time>
      </trkpt>
      <trkpt lat="42.6854906604" lon="0.0951011572">
        <ele>1979.01</ele>
        <time>2022-07-10T14:28:28Z</time>
      </trkpt>
      <trkpt lat="42.6855111122" lon="0.0951172505">
        <ele>1978.05</ele>
        <time>2022-07-10T14:28:31Z</time>
      </trkpt>
      <trkpt lat="42.6855619065" lon="0.0952454936">
        <ele>1975.17</ele>
        <time>2022-07-10T14:28:42Z</time>
      </trkpt>
      <trkpt lat="42.6855901536" lon="0.0953242835">
        <ele>1973.72</ele>
        <time>2022-07-10T14:28:49Z</time>
      </trkpt>
      <trkpt lat="42.6856687758" lon="0.0954636745">
        <ele>1970.36</ele>
        <time>2022-07-10T14:29:01Z</time>
      </trkpt>
      <trkpt lat="42.6857368369" lon="0.0956070889">
        <ele>1966.99</ele>
        <time>2022-07-10T14:29:12Z</time>
      </trkpt>
      <trkpt lat="42.6858074963" lon="0.0956238527">
        <ele>1966.03</ele>
        <time>2022-07-10T14:29:20Z</time>
      </trkpt>
      <trkpt lat="42.6858674269" lon="0.0954653509">
        <ele>1962.67</ele>
        <time>2022-07-10T14:29:32Z</time>
      </trkpt>
      <trkpt lat="42.6859043911" lon="0.0953205116">
        <ele>1959.78</ele>
        <time>2022-07-10T14:29:42Z</time>
      </trkpt>
      <trkpt lat="42.6859323867" lon="0.0952449907">
        <ele>1957.86</ele>
        <time>2022-07-10T14:29:48Z</time>
      </trkpt>
      <trkpt lat="42.6859300397" lon="0.0952186715">
        <ele>1956.90</ele>
        <time>2022-07-10T14:29:50Z</time>
      </trkpt>
      <trkpt lat="42.6859350689" lon="0.0951072760">
        <ele>1955.46</ele>
        <time>2022-07-10T14:29:59Z</time>
      </trkpt>
      <trkpt lat="42.6859607175" lon="0.0950551406">
        <ele>1954.02</ele>
        <time>2022-07-10T14:30:05Z</time>
      </trkpt>
      <trkpt lat="42.6860384177" lon="0.0948631950">
        <ele>1951.13</ele>
        <time>2022-07-10T14:30:19Z</time>
      </trkpt>
      <trkpt lat="42.6860668324" lon="0.0948111434">
        <ele>1950.17</ele>
        <time>2022-07-10T14:30:23Z</time>
      </trkpt>
      <trkpt lat="42.6861331332" lon="0.0946889352">
        <ele>1946.81</ele>
        <time>2022-07-10T14:30:34Z</time>
      </trkpt>
      <trkpt lat="42.6861814130" lon="0.0946465228">
        <ele>1945.85</ele>
        <time>2022-07-10T14:30:40Z</time>
      </trkpt>
      <trkpt lat="42.6862080675" lon="0.0945752766">
        <ele>1944.88</ele>
        <time>2022-07-10T14:30:46Z</time>
      </trkpt>
      <trkpt lat="42.6862743683" lon="0.0944979955">
        <ele>1943.44</ele>
        <time>2022-07-10T14:30:53Z</time>
      </trkpt>
      <trkpt lat="42.6863044593" lon="0.0943623763">
        <ele>1941.52</ele>
        <time>2022-07-10T14:31:02Z</time>
      </trkpt>
      <trkpt lat="42.6863638032" lon="0.0942044612">
        <ele>1937.67</ele>
        <time>2022-07-10T14:31:13Z</time>
      </trkpt>
      <trkpt lat="42.6864149328" lon="0.0941132661">
        <ele>1937.19</ele>
        <time>2022-07-10T14:31:20Z</time>
      </trkpt>
      <trkpt lat="42.6865237299" lon="0.0938737113">
        <ele>1937.19</ele>
        <time>2022-07-10T14:31:35Z</time>
      </trkpt>
      <trkpt lat="42.6865452714" lon="0.0938277785">
        <ele>1937.19</ele>
        <time>2022-07-10T14:31:38Z</time>
      </trkpt>
      <trkpt lat="42.6865829062" lon="0.0937855337">
        <ele>1937.19</ele>
        <time>2022-07-10T14:31:42Z</time>
      </trkpt>
      <trkpt lat="42.6866903622" lon="0.0937261060">
        <ele>1936.71</ele>
        <time>2022-07-10T14:31:50Z</time>
      </trkpt>
      <trkpt lat="42.6868171804" lon="0.0934630819">
        <ele>1936.23</ele>
        <time>2022-07-10T14:32:09Z</time>
      </trkpt>
      <trkpt lat="42.6868613530" lon="0.0932941027">
        <ele>1937.67</ele>
        <time>2022-07-10T14:32:21Z</time>
      </trkpt>
      <trkpt lat="42.6869322639" lon="0.0931045040">
        <ele>1938.64</ele>
        <time>2022-07-10T14:32:34Z</time>
      </trkpt>
      <trkpt lat="42.6871190127" lon="0.0930775143">
        <ele>1938.16</ele>
        <time>2022-07-10T14:32:49Z</time>
      </trkpt>
      <trkpt lat="42.6872437354" lon="0.0931423064">
        <ele>1936.71</ele>
        <time>2022-07-10T14:33:02Z</time>
      </trkpt>
      <trkpt lat="42.6873590704" lon="0.0932213478">
        <ele>1935.75</ele>
        <time>2022-07-10T14:33:14Z</time>
      </trkpt>
      <trkpt lat="42.6874570549" lon="0.0932771713">
        <ele>1934.79</ele>
        <time>2022-07-10T14:33:24Z</time>
      </trkpt>
      <trkpt lat="42.6876360923" lon="0.0933892373">
        <ele>1932.39</ele>
        <time>2022-07-10T14:33:41Z</time>
      </trkpt>
      <trkpt lat="42.6877391059" lon="0.0934551191">
        <ele>1931.43</ele>
        <time>2022-07-10T14:33:55Z</time>
      </trkpt>
      <trkpt lat="42.6878566202" lon="0.0935150497">
        <ele>1929.02</ele>
        <time>2022-07-10T14:34:08Z</time>
      </trkpt>
      <trkpt lat="42.6880205702" lon="0.0936223380">
        <ele>1927.10</ele>
        <time>2022-07-10T14:34:23Z</time>
      </trkpt>
      <trkpt lat="42.6882198080" lon="0.0936995354">
        <ele>1925.18</ele>
        <time>2022-07-10T14:34:39Z</time>
      </trkpt>
      <trkpt lat="42.6883644797" lon="0.0937990285">
        <ele>1922.77</ele>
        <time>2022-07-10T14:34:54Z</time>
      </trkpt>
      <trkpt lat="42.6884290203" lon="0.0938344840">
        <ele>1921.81</ele>
        <time>2022-07-10T14:35:01Z</time>
      </trkpt>
      <trkpt lat="42.6885548327" lon="0.0939609669">
        <ele>1919.89</ele>
        <time>2022-07-10T14:35:17Z</time>
      </trkpt>
      <trkpt lat="42.6886180323" lon="0.0940164551">
        <ele>1917.49</ele>
        <time>2022-07-10T14:35:24Z</time>
      </trkpt>
      <trkpt lat="42.6887080539" lon="0.0941151101">
        <ele>1915.08</ele>
        <time>2022-07-10T14:35:37Z</time>
      </trkpt>
      <trkpt lat="42.6887623686" lon="0.0941136014">
        <ele>1912.20</ele>
        <time>2022-07-10T14:35:45Z</time>
      </trkpt>
      <trkpt lat="42.6887694933" lon="0.0941179600">
        <ele>1911.72</ele>
        <time>2022-07-10T14:35:46Z</time>
      </trkpt>
      <trkpt lat="42.6888127439" lon="0.0942011084">
        <ele>1909.80</ele>
        <time>2022-07-10T14:36:01Z</time>
      </trkpt>
      <trkpt lat="42.6888320222" lon="0.0941880327">
        <ele>1909.32</ele>
        <time>2022-07-10T14:36:18Z</time>
      </trkpt>
      <trkpt lat="42.6888470259" lon="0.0942459516">
        <ele>1910.76</ele>
        <time>2022-07-10T14:36:42Z</time>
      </trkpt>
      <trkpt lat="42.6888725068" lon="0.0943591911">
        <ele>1908.35</ele>
        <time>2022-07-10T14:36:58Z</time>
      </trkpt>
      <trkpt lat="42.6889484469" lon="0.0944854226">
        <ele>1907.39</ele>
        <time>2022-07-10T14:37:10Z</time>
      </trkpt>
      <trkpt lat="42.6890152507" lon="0.0945211295">
        <ele>1903.55</ele>
        <time>2022-07-10T14:37:26Z</time>
      </trkpt>
      <trkpt lat="42.6890405640" lon="0.0944323651">
        <ele>1900.18</ele>
        <time>2022-07-10T14:37:39Z</time>
      </trkpt>
      <trkpt lat="42.6890375465" lon="0.0943560060">
        <ele>1898.26</ele>
        <time>2022-07-10T14:37:47Z</time>
      </trkpt>
      <trkpt lat="42.6890103053" lon="0.0942194648">
        <ele>1895.38</ele>
        <time>2022-07-10T14:38:00Z</time>
      </trkpt>
      <trkpt lat="42.6890068687" lon="0.0941019505">
        <ele>1892.01</ele>
        <time>2022-07-10T14:38:11Z</time>
      </trkpt>
      <trkpt lat="42.6890183520" lon="0.0939590391">
        <ele>1888.65</ele>
        <time>2022-07-10T14:38:22Z</time>
      </trkpt>
      <trkpt lat="42.6890061982" lon="0.0937954243">
        <ele>1886.24</ele>
        <time>2022-07-10T14:38:35Z</time>
      </trkpt>
      <trkpt lat="42.6889939606" lon="0.0937012117">
        <ele>1883.84</ele>
        <time>2022-07-10T14:38:43Z</time>
      </trkpt>
      <trkpt lat="42.6889907755" lon="0.0936701987">
        <ele>1882.88</ele>
        <time>2022-07-10T14:38:45Z</time>
      </trkpt>
      <trkpt lat="42.6890075393" lon="0.0935448054">
        <ele>1879.51</ele>
        <time>2022-07-10T14:38:56Z</time>
      </trkpt>
      <trkpt lat="42.6890317630" lon="0.0934890658">
        <ele>1878.07</ele>
        <time>2022-07-10T14:39:01Z</time>
      </trkpt>
      <trkpt lat="42.6890252251" lon="0.0934103597">
        <ele>1875.19</ele>
        <time>2022-07-10T14:39:11Z</time>
      </trkpt>
      <trkpt lat="42.6890274044" lon="0.0933049992">
        <ele>1872.79</ele>
        <time>2022-07-10T14:39:20Z</time>
      </trkpt>
      <trkpt lat="42.6890387200" lon="0.0931998063">
        <ele>1870.38</ele>
        <time>2022-07-10T14:39:32Z</time>
      </trkpt>
      <trkpt lat="42.6890682243" lon="0.0931454916">
        <ele>1867.02</ele>
        <time>2022-07-10T14:39:40Z</time>
      </trkpt>
      <trkpt lat="42.6891456731" lon="0.0930903386">
        <ele>1864.61</ele>
        <time>2022-07-10T14:39:51Z</time>
      </trkpt>
      <trkpt lat="42.6892116386" lon="0.0930977985">
        <ele>1862.21</ele>
        <time>2022-07-10T14:40:04Z</time>
      </trkpt>
      <trkpt lat="42.6892673783" lon="0.0930968765">
        <ele>1858.85</ele>
        <time>2022-07-10T14:40:15Z</time>
      </trkpt>
      <trkpt lat="42.6893171668" lon="0.0931946095">
        <ele>1857.89</ele>
        <time>2022-07-10T14:40:27Z</time>
      </trkpt>
      <trkpt lat="42.6894206833" lon="0.0933226850">
        <ele>1855.48</ele>
        <time>2022-07-10T14:40:42Z</time>
      </trkpt>
      <trkpt lat="42.6894692145" lon="0.0932577252">
        <ele>1851.64</ele>
        <time>2022-07-10T14:40:57Z</time>
      </trkpt>
      <trkpt lat="42.6894714776" lon="0.0931942742">
        <ele>1850.19</ele>
        <time>2022-07-10T14:41:04Z</time>
      </trkpt>
      <trkpt lat="42.6894878224" lon="0.0931314938">
        <ele>1846.83</ele>
        <time>2022-07-10T14:41:13Z</time>
      </trkpt>
      <trkpt lat="42.6894875709" lon="0.0931190047">
        <ele>1845.87</ele>
        <time>2022-07-10T14:41:15Z</time>
      </trkpt>
      <trkpt lat="42.6895463280" lon="0.0930670369">
        <ele>1842.98</ele>
        <time>2022-07-10T14:41:28Z</time>
      </trkpt>
      <trkpt lat="42.6895736530" lon="0.0929947011">
        <ele>1840.58</ele>
        <time>2022-07-10T14:41:40Z</time>
      </trkpt>
      <trkpt lat="42.6895715576" lon="0.0928901788">
        <ele>1837.22</ele>
        <time>2022-07-10T14:41:50Z</time>
      </trkpt>
      <trkpt lat="42.6895847172" lon="0.0927869976">
        <ele>1833.85</ele>
        <time>2022-07-10T14:42:00Z</time>
      </trkpt>
      <trkpt lat="42.6895774249" lon="0.0926745124">
        <ele>1830.97</ele>
        <time>2022-07-10T14:42:10Z</time>
      </trkpt>
      <trkpt lat="42.6895232778" lon="0.0925485324">
        <ele>1828.56</ele>
        <time>2022-07-10T14:42:21Z</time>
      </trkpt>
      <trkpt lat="42.6895153988" lon="0.0924554933">
        <ele>1825.20</ele>
        <time>2022-07-10T14:42:32Z</time>
      </trkpt>
      <trkpt lat="42.6894859783" lon="0.0923694950">
        <ele>1823.76</ele>
        <time>2022-07-10T14:42:46Z</time>
      </trkpt>
      <trkpt lat="42.6894769259" lon="0.0923044514">
        <ele>1820.39</ele>
        <time>2022-07-10T14:42:58Z</time>
      </trkpt>
      <trkpt lat="42.6894668676" lon="0.0922119152">
        <ele>1818.47</ele>
        <time>2022-07-10T14:43:10Z</time>
      </trkpt>
      <trkpt lat="42.6894553006" lon="0.0921643060">
        <ele>1815.11</ele>
        <time>2022-07-10T14:43:21Z</time>
      </trkpt>
      <trkpt lat="42.6894471701" lon="0.0921070576">
        <ele>1811.74</ele>
        <time>2022-07-10T14:43:32Z</time>
      </trkpt>
      <trkpt lat="42.6894205157" lon="0.0920330454">
        <ele>1809.34</ele>
        <time>2022-07-10T14:43:40Z</time>
      </trkpt>
      <trkpt lat="42.6893572323" lon="0.0919401739">
        <ele>1806.45</ele>
        <time>2022-07-10T14:43:51Z</time>
      </trkpt>
      <trkpt lat="42.6893440727" lon="0.0919064786">
        <ele>1805.49</ele>
        <time>2022-07-10T14:43:56Z</time>
      </trkpt>
      <trkpt lat="42.6892833039" lon="0.0917493179">
        <ele>1801.65</ele>
        <time>2022-07-10T14:44:09Z</time>
      </trkpt>
      <trkpt lat="42.6892103814" lon="0.0916597992">
        <ele>1797.80</ele>
        <time>2022-07-10T14:44:22Z</time>
      </trkpt>
      <trkpt lat="42.6891596708" lon="0.0915446319">
        <ele>1794.44</ele>
        <time>2022-07-10T14:44:36Z</time>
      </trkpt>
      <trkpt lat="42.6891046017" lon="0.0914484914">
        <ele>1791.07</ele>
        <time>2022-07-10T14:44:48Z</time>
      </trkpt>
      <trkpt lat="42.6890372951" lon="0.0913643371">
        <ele>1787.71</ele>
        <time>2022-07-10T14:45:02Z</time>
      </trkpt>
      <trkpt lat="42.6889930386" lon="0.0913267024">
        <ele>1786.75</ele>
        <time>2022-07-10T14:45:10Z</time>
      </trkpt>
      <trkpt lat="42.6889209542" lon="0.0912426319">
        <ele>1782.90</ele>
        <time>2022-07-10T14:45:23Z</time>
      </trkpt>
      <trkpt lat="42.6888743509" lon="0.0911680330">
        <ele>1780.02</ele>
        <time>2022-07-10T14:45:35Z</time>
      </trkpt>
      <trkpt lat="42.6888740156" lon="0.0910989661">
        <ele>1778.10</ele>
        <time>2022-07-10T14:45:48Z</time>
      </trkpt>
      <trkpt lat="42.6888566650" lon="0.0911029056">
        <ele>1776.65</ele>
        <time>2022-07-10T14:45:51Z</time>
      </trkpt>
      <trkpt lat="42.6888203714" lon="0.0910349283">
        <ele>1774.73</ele>
        <time>2022-07-10T14:46:03Z</time>
      </trkpt>
      <trkpt lat="42.6887290087" lon="0.0910453219">
        <ele>1771.37</ele>
        <time>2022-07-10T14:46:15Z</time>
      </trkpt>
      <trkpt lat="42.6886747777" lon="0.0909791887">
        <ele>1769.44</ele>
        <time>2022-07-10T14:46:28Z</time>
      </trkpt>
      <trkpt lat="42.6886172779" lon="0.0908845570">
        <ele>1766.08</ele>
        <time>2022-07-10T14:46:40Z</time>
      </trkpt>
      <trkpt lat="42.6885985024" lon="0.0907920208">
        <ele>1763.20</ele>
        <time>2022-07-10T14:46:50Z</time>
      </trkpt>
      <trkpt lat="42.6885850914" lon="0.0907218643">
        <ele>1759.83</ele>
        <time>2022-07-10T14:47:02Z</time>
      </trkpt>
      <trkpt lat="42.6885456964" lon="0.0906470977">
        <ele>1757.43</ele>
        <time>2022-07-10T14:47:16Z</time>
      </trkpt>
      <trkpt lat="42.6885285135" lon="0.0905727502">
        <ele>1754.06</ele>
        <time>2022-07-10T14:47:26Z</time>
      </trkpt>
      <trkpt lat="42.6884714328" lon="0.0904901884">
        <ele>1751.18</ele>
        <time>2022-07-10T14:47:38Z</time>
      </trkpt>
      <trkpt lat="42.6883999351" lon="0.0904216245">
        <ele>1748.78</ele>
        <time>2022-07-10T14:47:51Z</time>
      </trkpt>
      <trkpt lat="42.6883804053" lon="0.0903403200">
        <ele>1745.41</ele>
        <time>2022-07-10T14:48:00Z</time>
      </trkpt>
      <trkpt lat="42.6884000190" lon="0.0902852509">
        <ele>1743.01</ele>
        <time>2022-07-10T14:48:13Z</time>
      </trkpt>
      <trkpt lat="42.6884005219" lon="0.0902344566">
        <ele>1740.60</ele>
        <time>2022-07-10T14:48:20Z</time>
      </trkpt>
      <trkpt lat="42.6883608755" lon="0.0901103206">
        <ele>1738.20</ele>
        <time>2022-07-10T14:48:34Z</time>
      </trkpt>
      <trkpt lat="42.6883266773" lon="0.0900137611">
        <ele>1734.84</ele>
        <time>2022-07-10T14:48:45Z</time>
      </trkpt>
      <trkpt lat="42.6882652380" lon="0.0899089035">
        <ele>1731.47</ele>
        <time>2022-07-10T14:48:56Z</time>
      </trkpt>
      <trkpt lat="42.6881939080" lon="0.0898186304">
        <ele>1728.59</ele>
        <time>2022-07-10T14:49:07Z</time>
      </trkpt>
      <trkpt lat="42.6880977675" lon="0.0897614658">
        <ele>1725.22</ele>
        <time>2022-07-10T14:49:20Z</time>
      </trkpt>
      <trkpt lat="42.6880529243" lon="0.0896979310">
        <ele>1722.34</ele>
        <time>2022-07-10T14:49:30Z</time>
      </trkpt>
      <trkpt lat="42.6880183909" lon="0.0896764733">
        <ele>1720.90</ele>
        <time>2022-07-10T14:49:35Z</time>
      </trkpt>
      <trkpt lat="42.6879574545" lon="0.0895790756">
        <ele>1718.01</ele>
        <time>2022-07-10T14:49:48Z</time>
      </trkpt>
      <trkpt lat="42.6879151259" lon="0.0894814264">
        <ele>1714.65</ele>
        <time>2022-07-10T14:50:01Z</time>
      </trkpt>
      <trkpt lat="42.6878647506" lon="0.0894003734">
        <ele>1712.25</ele>
        <time>2022-07-10T14:50:11Z</time>
      </trkpt>
      <trkpt lat="42.6877460629" lon="0.0892963540">
        <ele>1708.88</ele>
        <time>2022-07-10T14:50:24Z</time>
      </trkpt>
      <trkpt lat="42.6876726374" lon="0.0892085955">
        <ele>1706.96</ele>
        <time>2022-07-10T14:50:37Z</time>
      </trkpt>
      <trkpt lat="42.6875625830" lon="0.0891324878">
        <ele>1704.55</ele>
        <time>2022-07-10T14:50:52Z</time>
      </trkpt>
      <trkpt lat="42.6874762494" lon="0.0890065916">
        <ele>1701.19</ele>
        <time>2022-07-10T14:51:09Z</time>
      </trkpt>
      <trkpt lat="42.6873904187" lon="0.0889210124">
        <ele>1699.27</ele>
        <time>2022-07-10T14:51:21Z</time>
      </trkpt>
      <trkpt lat="42.6873778459" lon="0.0888872333">
        <ele>1698.31</ele>
        <time>2022-07-10T14:51:23Z</time>
      </trkpt>
      <trkpt lat="42.6872695517" lon="0.0887058489">
        <ele>1695.90</ele>
        <time>2022-07-10T14:51:38Z</time>
      </trkpt>
      <trkpt lat="42.6872641034" lon="0.0886946172">
        <ele>1695.42</ele>
        <time>2022-07-10T14:51:39Z</time>
      </trkpt>
      <trkpt lat="42.6872013230" lon="0.0886350218">
        <ele>1694.46</ele>
        <time>2022-07-10T14:51:47Z</time>
      </trkpt>
      <trkpt lat="42.6870734151" lon="0.0884864945">
        <ele>1691.58</ele>
        <time>2022-07-10T14:52:02Z</time>
      </trkpt>
      <trkpt lat="42.6869026758" lon="0.0884034298">
        <ele>1691.10</ele>
        <time>2022-07-10T14:52:18Z</time>
      </trkpt>
      <trkpt lat="42.6867800485" lon="0.0883792900">
        <ele>1688.69</ele>
        <time>2022-07-10T14:52:32Z</time>
      </trkpt>
      <trkpt lat="42.6867724210" lon="0.0883704890">
        <ele>1688.69</ele>
        <time>2022-07-10T14:52:33Z</time>
      </trkpt>
      <trkpt lat="42.6866880152" lon="0.0882364623">
        <ele>1686.29</ele>
        <time>2022-07-10T14:52:47Z</time>
      </trkpt>
      <trkpt lat="42.6866566669" lon="0.0881517213">
        <ele>1683.41</ele>
        <time>2022-07-10T14:52:58Z</time>
      </trkpt>
      <trkpt lat="42.6866172720" lon="0.0880280882">
        <ele>1681.96</ele>
        <time>2022-07-10T14:53:11Z</time>
      </trkpt>
      <trkpt lat="42.6866331976" lon="0.0880333688">
        <ele>1683.41</ele>
        <time>2022-07-10T14:53:13Z</time>
      </trkpt>
      <trkpt lat="42.6866350416" lon="0.0880198739">
        <ele>1681.48</ele>
        <time>2022-07-10T14:53:15Z</time>
      </trkpt>
      <trkpt lat="42.6866459381" lon="0.0879693311">
        <ele>1679.08</ele>
        <time>2022-07-10T14:53:26Z</time>
      </trkpt>
      <trkpt lat="42.6866988279" lon="0.0879052933">
        <ele>1676.68</ele>
        <time>2022-07-10T14:53:39Z</time>
      </trkpt>
      <trkpt lat="42.6867256500" lon="0.0878781360">
        <ele>1676.20</ele>
        <time>2022-07-10T14:53:50Z</time>
      </trkpt>
      <trkpt lat="42.6867389772" lon="0.0878815725">
        <ele>1674.75</ele>
        <time>2022-07-10T14:53:53Z</time>
      </trkpt>
      <trkpt lat="42.6867696550" lon="0.0878524873">
        <ele>1671.87</ele>
        <time>2022-07-10T14:54:00Z</time>
      </trkpt>
      <trkpt lat="42.6867988240" lon="0.0877339672">
        <ele>1668.99</ele>
        <time>2022-07-10T14:54:16Z</time>
      </trkpt>
      <trkpt lat="42.6868134085" lon="0.0876327977">
        <ele>1667.06</ele>
        <time>2022-07-10T14:54:29Z</time>
      </trkpt>
      <trkpt lat="42.6868152525" lon="0.0876211468">
        <ele>1666.58</ele>
        <time>2022-07-10T14:54:30Z</time>
      </trkpt>
      <trkpt lat="42.6867704093" lon="0.0875046384">
        <ele>1663.22</ele>
        <time>2022-07-10T14:54:45Z</time>
      </trkpt>
      <trkpt lat="42.6868564915" lon="0.0874614716">
        <ele>1659.85</ele>
        <time>2022-07-10T14:55:00Z</time>
      </trkpt>
      <trkpt lat="42.6868528873" lon="0.0873640738">
        <ele>1657.45</ele>
        <time>2022-07-10T14:55:14Z</time>
      </trkpt>
      <trkpt lat="42.6868488640" lon="0.0873198174">
        <ele>1656.49</ele>
        <time>2022-07-10T14:55:20Z</time>
      </trkpt>
      <trkpt lat="42.6868752670" lon="0.0872596353">
        <ele>1653.12</ele>
        <time>2022-07-10T14:55:32Z</time>
      </trkpt>
      <trkpt lat="42.6869219542" lon="0.0872181449">
        <ele>1651.68</ele>
        <time>2022-07-10T14:55:40Z</time>
      </trkpt>
      <trkpt lat="42.6869819686" lon="0.0871740561">
        <ele>1649.28</ele>
        <time>2022-07-10T14:55:53Z</time>
      </trkpt>
      <trkpt lat="42.6869647019" lon="0.0870968588">
        <ele>1646.40</ele>
        <time>2022-07-10T14:56:03Z</time>
      </trkpt>
      <trkpt lat="42.6869346946" lon="0.0869975332">
        <ele>1643.99</ele>
        <time>2022-07-10T14:56:15Z</time>
      </trkpt>
      <trkpt lat="42.6869630255" lon="0.0869780872">
        <ele>1644.47</ele>
        <time>2022-07-10T14:56:19Z</time>
      </trkpt>
      <trkpt lat="42.6869900990" lon="0.0869721361">
        <ele>1643.51</ele>
        <time>2022-07-10T14:56:24Z</time>
      </trkpt>
      <trkpt lat="42.6870017499" lon="0.0869599823">
        <ele>1641.59</ele>
        <time>2022-07-10T14:56:26Z</time>
      </trkpt>
      <trkpt lat="42.6870195195" lon="0.0869149715">
        <ele>1641.11</ele>
        <time>2022-07-10T14:56:34Z</time>
      </trkpt>
      <trkpt lat="42.6869909372" lon="0.0868635904">
        <ele>1639.67</ele>
        <time>2022-07-10T14:56:40Z</time>
      </trkpt>
      <trkpt lat="42.6869709045" lon="0.0867905840">
        <ele>1636.78</ele>
        <time>2022-07-10T14:56:53Z</time>
      </trkpt>
      <trkpt lat="42.6870386302" lon="0.0867268816">
        <ele>1634.86</ele>
        <time>2022-07-10T14:57:08Z</time>
      </trkpt>
      <trkpt lat="42.6870651171" lon="0.0867153984">
        <ele>1632.94</ele>
        <time>2022-07-10T14:57:13Z</time>
      </trkpt>
      <trkpt lat="42.6870911848" lon="0.0867133867">
        <ele>1632.94</ele>
        <time>2022-07-10T14:57:16Z</time>
      </trkpt>
      <trkpt lat="42.6872063521" lon="0.0867143925">
        <ele>1630.05</ele>
        <time>2022-07-10T14:57:30Z</time>
      </trkpt>
      <trkpt lat="42.6872387063" lon="0.0866182521">
        <ele>1628.61</ele>
        <time>2022-07-10T14:57:41Z</time>
      </trkpt>
      <trkpt lat="42.6872316655" lon="0.0865979679">
        <ele>1628.61</ele>
        <time>2022-07-10T14:57:43Z</time>
      </trkpt>
      <trkpt lat="42.6871720701" lon="0.0865075272">
        <ele>1625.73</ele>
        <time>2022-07-10T14:57:54Z</time>
      </trkpt>
      <trkpt lat="42.6871880796" lon="0.0862881728">
        <ele>1623.32</ele>
        <time>2022-07-10T14:58:11Z</time>
      </trkpt>
      <trkpt lat="42.6871656161" lon="0.0862222910">
        <ele>1622.36</ele>
        <time>2022-07-10T14:58:17Z</time>
      </trkpt>
      <trkpt lat="42.6871185098" lon="0.0860730931">
        <ele>1618.52</ele>
        <time>2022-07-10T14:58:29Z</time>
      </trkpt>
      <trkpt lat="42.6870941184" lon="0.0859813113">
        <ele>1616.59</ele>
        <time>2022-07-10T14:58:36Z</time>
      </trkpt>
      <trkpt lat="42.6869820524" lon="0.0857876893">
        <ele>1613.23</ele>
        <time>2022-07-10T14:58:53Z</time>
      </trkpt>
      <trkpt lat="42.6868870854" lon="0.0856314506">
        <ele>1610.83</ele>
        <time>2022-07-10T14:59:08Z</time>
      </trkpt>
      <trkpt lat="42.6868033502" lon="0.0853923988">
        <ele>1607.46</ele>
        <time>2022-07-10T14:59:28Z</time>
      </trkpt>
      <trkpt lat="42.6867639553" lon="0.0852046441">
        <ele>1606.02</ele>
        <time>2022-07-10T14:59:43Z</time>
      </trkpt>
      <trkpt lat="42.6867306791" lon="0.0849784166">
        <ele>1604.10</ele>
        <time>2022-07-10T15:00:01Z</time>
      </trkpt>
      <trkpt lat="42.6867276616" lon="0.0848220941">
        <ele>1603.14</ele>
        <time>2022-07-10T15:00:12Z</time>
      </trkpt>
      <trkpt lat="42.6867238898" lon="0.0847532786">
        <ele>1602.66</ele>
        <time>2022-07-10T15:00:17Z</time>
      </trkpt>
      <trkpt lat="42.6867712475" lon="0.0845463295">
        <ele>1601.21</ele>
        <time>2022-07-10T15:00:34Z</time>
      </trkpt>
      <trkpt lat="42.6867948845" lon="0.0845361035">
        <ele>1600.73</ele>
        <time>2022-07-10T15:00:45Z</time>
      </trkpt>
      <trkpt lat="42.6867579203" lon="0.0845032465">
        <ele>1600.25</ele>
        <time>2022-07-10T15:00:57Z</time>
      </trkpt>
      <trkpt lat="42.6867324393" lon="0.0844761729">
        <ele>1599.77</ele>
        <time>2022-07-10T15:01:24Z</time>
      </trkpt>
      <trkpt lat="42.6867184415" lon="0.0844663661">
        <ele>1599.29</ele>
        <time>2022-07-10T15:01:53Z</time>
      </trkpt>
      <trkpt lat="42.6867263205" lon="0.0844892487">
        <ele>1599.29</ele>
        <time>2022-07-10T15:02:15Z</time>
      </trkpt>
      <trkpt lat="42.6867253147" lon="0.0844806153">
        <ele>1597.37</ele>
        <time>2022-07-10T15:02:30Z</time>
      </trkpt>
      <trkpt lat="42.6867299248" lon="0.0844818726">
        <ele>1599.77</ele>
        <time>2022-07-10T15:02:32Z</time>
      </trkpt>
      <trkpt lat="42.6867391448" lon="0.0844784360">
        <ele>1600.73</ele>
        <time>2022-07-10T15:02:48Z</time>
      </trkpt>
      <trkpt lat="42.6867412403" lon="0.0845037494">
        <ele>1600.25</ele>
        <time>2022-07-10T15:03:13Z</time>
      </trkpt>
      <trkpt lat="42.6867549028" lon="0.0844896678">
        <ele>1600.25</ele>
        <time>2022-07-10T15:03:36Z</time>
      </trkpt>
      <trkpt lat="42.6863662340" lon="0.0839155074">
        <ele>1454.61</ele>
        <time>2022-07-11T05:22:47Z</time>
      </trkpt>
      <trkpt lat="42.6863688324" lon="0.0838666409">
        <ele>1456.05</ele>
        <time>2022-07-11T05:22:57Z</time>
      </trkpt>
      <trkpt lat="42.6863894518" lon="0.0836922135">
        <ele>1456.05</ele>
        <time>2022-07-11T05:23:14Z</time>
      </trkpt>
      <trkpt lat="42.6863824110" lon="0.0836638827">
        <ele>1454.61</ele>
        <time>2022-07-11T05:23:16Z</time>
      </trkpt>
      <trkpt lat="42.6862875279" lon="0.0835214742">
        <ele>1453.17</ele>
        <time>2022-07-11T05:23:31Z</time>
      </trkpt>
      <trkpt lat="42.6862141024" lon="0.0834389124">
        <ele>1451.73</ele>
        <time>2022-07-11T05:23:40Z</time>
      </trkpt>
      <trkpt lat="42.6861575246" lon="0.0833547581">
        <ele>1450.77</ele>
        <time>2022-07-11T05:23:51Z</time>
      </trkpt>
      <trkpt lat="42.6859843545" lon="0.0833528303">
        <ele>1448.84</ele>
        <time>2022-07-11T05:24:06Z</time>
      </trkpt>
      <trkpt lat="42.6859540120" lon="0.0833369885">
        <ele>1452.69</ele>
        <time>2022-07-11T05:24:09Z</time>
      </trkpt>
      <trkpt lat="42.6859420259" lon="0.0833294448">
        <ele>1457.02</ele>
        <time>2022-07-11T05:24:10Z</time>
      </trkpt>
      <trkpt lat="42.6859318838" lon="0.0833244156">
        <ele>1462.78</ele>
        <time>2022-07-11T05:24:11Z</time>
      </trkpt>
      <trkpt lat="42.6859224122" lon="0.0833179615">
        <ele>1467.59</ele>
        <time>2022-07-11T05:24:12Z</time>
      </trkpt>
      <trkpt lat="42.6859127730" lon="0.0833117589">
        <ele>1470.47</ele>
        <time>2022-07-11T05:24:13Z</time>
      </trkpt>
      <trkpt lat="42.6859018765" lon="0.0833079033">
        <ele>1474.80</ele>
        <time>2022-07-11T05:24:14Z</time>
      </trkpt>
      <trkpt lat="42.6858904772" lon="0.0833054725">
        <ele>1478.65</ele>
        <time>2022-07-11T05:24:15Z</time>
      </trkpt>
      <trkpt lat="42.6858779043" lon="0.0833014492">
        <ele>1482.49</ele>
        <time>2022-07-11T05:24:16Z</time>
      </trkpt>
      <trkpt lat="42.6858651638" lon="0.0832963362">
        <ele>1486.34</ele>
        <time>2022-07-11T05:24:17Z</time>
      </trkpt>
      <trkpt lat="42.6858532615" lon="0.0832892954">
        <ele>1489.70</ele>
        <time>2022-07-11T05:24:18Z</time>
      </trkpt>
      <trkpt lat="42.6858411916" lon="0.0832827576">
        <ele>1493.06</ele>
        <time>2022-07-11T05:24:19Z</time>
      </trkpt>
      <trkpt lat="42.6858270261" lon="0.0832798239">
        <ele>1496.43</ele>
        <time>2022-07-11T05:24:20Z</time>
      </trkpt>
      <trkpt lat="42.6858147047" lon="0.0832827576">
        <ele>1499.79</ele>
        <time>2022-07-11T05:24:21Z</time>
      </trkpt>
      <trkpt lat="42.6858048141" lon="0.0832867809">
        <ele>1502.68</ele>
        <time>2022-07-11T05:24:22Z</time>
      </trkpt>
      <trkpt lat="42.6857805904" lon="0.0832850207">
        <ele>1508.45</ele>
        <time>2022-07-11T05:24:24Z</time>
      </trkpt>
      <trkpt lat="42.6857548580" lon="0.0832865294">
        <ele>1513.73</ele>
        <time>2022-07-11T05:24:26Z</time>
      </trkpt>
      <trkpt lat="42.6857297122" lon="0.0832822546">
        <ele>1521.42</ele>
        <time>2022-07-11T05:24:28Z</time>
      </trkpt>
      <trkpt lat="42.6856999565" lon="0.0832747109">
        <ele>1523.83</ele>
        <time>2022-07-11T05:24:30Z</time>
      </trkpt>
      <trkpt lat="42.6856779121" lon="0.0832608808">
        <ele>1527.67</ele>
        <time>2022-07-11T05:24:32Z</time>
      </trkpt>
      <trkpt lat="42.6856536046" lon="0.0832468830">
        <ele>1531.52</ele>
        <time>2022-07-11T05:24:34Z</time>
      </trkpt>
      <trkpt lat="42.6856408641" lon="0.0832416024">
        <ele>1533.44</ele>
        <time>2022-07-11T05:24:35Z</time>
      </trkpt>
      <trkpt lat="42.6856007986" lon="0.0832385011">
        <ele>1539.21</ele>
        <time>2022-07-11T05:24:38Z</time>
      </trkpt>
      <trkpt lat="42.6855881419" lon="0.0832379982">
        <ele>1541.13</ele>
        <time>2022-07-11T05:24:39Z</time>
      </trkpt>
      <trkpt lat="42.6855599787" lon="0.0832322985">
        <ele>1544.50</ele>
        <time>2022-07-11T05:24:41Z</time>
      </trkpt>
      <trkpt lat="42.6855370123" lon="0.0832231622">
        <ele>1547.38</ele>
        <time>2022-07-11T05:24:43Z</time>
      </trkpt>
      <trkpt lat="42.6855010539" lon="0.0831689313">
        <ele>1553.63</ele>
        <time>2022-07-11T05:24:47Z</time>
      </trkpt>
      <trkpt lat="42.6854792610" lon="0.0831250101">
        <ele>1557.47</ele>
        <time>2022-07-11T05:24:50Z</time>
      </trkpt>
      <trkpt lat="42.6854746509" lon="0.0831140298">
        <ele>1557.47</ele>
        <time>2022-07-11T05:24:51Z</time>
      </trkpt>
      <trkpt lat="42.6854578871" lon="0.0830762275">
        <ele>1560.84</ele>
        <time>2022-07-11T05:24:54Z</time>
      </trkpt>
      <trkpt lat="42.6854492538" lon="0.0830523390">
        <ele>1564.20</ele>
        <time>2022-07-11T05:24:56Z</time>
      </trkpt>
      <trkpt lat="42.6854436379" lon="0.0830421969">
        <ele>1564.20</ele>
        <time>2022-07-11T05:24:57Z</time>
      </trkpt>
      <trkpt lat="42.6854289696" lon="0.0830188114">
        <ele>1567.09</ele>
        <time>2022-07-11T05:24:59Z</time>
      </trkpt>
      <trkpt lat="42.6854060031" lon="0.0829644129">
        <ele>1570.45</ele>
        <time>2022-07-11T05:25:03Z</time>
      </trkpt>
      <trkpt lat="42.6853882335" lon="0.0828772411">
        <ele>1574.30</ele>
        <time>2022-07-11T05:25:08Z</time>
      </trkpt>
      <trkpt lat="42.6853913348" lon="0.0828473177">
        <ele>1575.26</ele>
        <time>2022-07-11T05:25:10Z</time>
      </trkpt>
      <trkpt lat="42.6854270417" lon="0.0827277917">
        <ele>1579.58</ele>
        <time>2022-07-11T05:25:17Z</time>
      </trkpt>
      <trkpt lat="42.6854301430" lon="0.0827117823">
        <ele>1580.06</ele>
        <time>2022-07-11T05:25:18Z</time>
      </trkpt>
      <trkpt lat="42.6854411233" lon="0.0826306455">
        <ele>1583.43</ele>
        <time>2022-07-11T05:25:24Z</time>
      </trkpt>
      <trkpt lat="42.6854113676" lon="0.0825122930">
        <ele>1586.79</ele>
        <time>2022-07-11T05:25:34Z</time>
      </trkpt>
      <trkpt lat="42.6853819471" lon="0.0825491734">
        <ele>1589.20</ele>
        <time>2022-07-11T05:25:43Z</time>
      </trkpt>
      <trkpt lat="42.6853743196" lon="0.0825816114">
        <ele>1590.16</ele>
        <time>2022-07-11T05:25:45Z</time>
      </trkpt>
      <trkpt lat="42.6853336673" lon="0.0827324018">
        <ele>1591.60</ele>
        <time>2022-07-11T05:25:54Z</time>
      </trkpt>
      <trkpt lat="42.6852826215" lon="0.0828555319">
        <ele>1591.12</ele>
        <time>2022-07-11T05:26:02Z</time>
      </trkpt>
      <trkpt lat="42.6852641813" lon="0.0829577912">
        <ele>1591.60</ele>
        <time>2022-07-11T05:26:07Z</time>
      </trkpt>
      <trkpt lat="42.6851184200" lon="0.0831172988">
        <ele>1589.20</ele>
        <time>2022-07-11T05:26:21Z</time>
      </trkpt>
      <trkpt lat="42.6850910112" lon="0.0831860304">
        <ele>1588.24</ele>
        <time>2022-07-11T05:26:26Z</time>
      </trkpt>
      <trkpt lat="42.6850092877" lon="0.0833347254">
        <ele>1587.75</ele>
        <time>2022-07-11T05:26:37Z</time>
      </trkpt>
      <trkpt lat="42.6849416457" lon="0.0833852682">
        <ele>1587.27</ele>
        <time>2022-07-11T05:26:43Z</time>
      </trkpt>
      <trkpt lat="42.6848144922" lon="0.0835408363">
        <ele>1586.31</ele>
        <time>2022-07-11T05:26:59Z</time>
      </trkpt>
      <trkpt lat="42.6848767698" lon="0.0836154353">
        <ele>1585.83</ele>
        <time>2022-07-11T05:27:13Z</time>
      </trkpt>
      <trkpt lat="42.6848842297" lon="0.0836317800">
        <ele>1585.83</ele>
        <time>2022-07-11T05:27:37Z</time>
      </trkpt>
      <trkpt lat="42.6849189308" lon="0.0836213026">
        <ele>1585.83</ele>
        <time>2022-07-11T05:27:55Z</time>
      </trkpt>
      <trkpt lat="42.6848656218" lon="0.0836263318">
        <ele>1583.91</ele>
        <time>2022-07-11T05:28:12Z</time>
      </trkpt>
      <trkpt lat="42.6847906038" lon="0.0837470312">
        <ele>1581.51</ele>
        <time>2022-07-11T05:28:25Z</time>
      </trkpt>
      <trkpt lat="42.6847462635" lon="0.0838267431">
        <ele>1578.62</ele>
        <time>2022-07-11T05:28:40Z</time>
      </trkpt>
      <trkpt lat="42.6847092994" lon="0.0838844944">
        <ele>1576.22</ele>
        <time>2022-07-11T05:28:52Z</time>
      </trkpt>
      <trkpt lat="42.6846647076" lon="0.0839050300">
        <ele>1573.33</ele>
        <time>2022-07-11T05:29:03Z</time>
      </trkpt>
      <trkpt lat="42.6846227981" lon="0.0838852488">
        <ele>1569.97</ele>
        <time>2022-07-11T05:29:13Z</time>
      </trkpt>
      <trkpt lat="42.6846056990" lon="0.0838984922">
        <ele>1568.53</ele>
        <time>2022-07-11T05:29:16Z</time>
      </trkpt>
      <trkpt lat="42.6845487859" lon="0.0838963129">
        <ele>1565.64</ele>
        <time>2022-07-11T05:29:28Z</time>
      </trkpt>
      <trkpt lat="42.6845159288" lon="0.0838350412">
        <ele>1562.28</ele>
        <time>2022-07-11T05:29:38Z</time>
      </trkpt>
      <trkpt lat="42.6844656374" lon="0.0837492943">
        <ele>1558.92</ele>
        <time>2022-07-11T05:29:50Z</time>
      </trkpt>
      <trkpt lat="42.6844352949" lon="0.0836591888">
        <ele>1555.55</ele>
        <time>2022-07-11T05:30:01Z</time>
      </trkpt>
      <trkpt lat="42.6843714248" lon="0.0836115796">
        <ele>1552.19</ele>
        <time>2022-07-11T05:30:12Z</time>
      </trkpt>
      <trkpt lat="42.6842850912" lon="0.0837410800">
        <ele>1550.26</ele>
        <time>2022-07-11T05:30:25Z</time>
      </trkpt>
      <trkpt lat="42.6842588559" lon="0.0837242324">
        <ele>1549.30</ele>
        <time>2022-07-11T05:30:39Z</time>
      </trkpt>
      <trkpt lat="42.6842482947" lon="0.0837207120">
        <ele>1548.34</ele>
        <time>2022-07-11T05:31:17Z</time>
      </trkpt>
      <trkpt lat="42.6842234842" lon="0.0838479493">
        <ele>1547.86</ele>
        <time>2022-07-11T05:31:35Z</time>
      </trkpt>
      <trkpt lat="42.6841630507" lon="0.0838272460">
        <ele>1545.94</ele>
        <time>2022-07-11T05:31:50Z</time>
      </trkpt>
      <trkpt lat="42.6840975881" lon="0.0837575924">
        <ele>1542.57</ele>
        <time>2022-07-11T05:31:59Z</time>
      </trkpt>
      <trkpt lat="42.6840279344" lon="0.0838686526">
        <ele>1538.73</ele>
        <time>2022-07-11T05:32:13Z</time>
      </trkpt>
      <trkpt lat="42.6839182992" lon="0.0840034336">
        <ele>1536.32</ele>
        <time>2022-07-11T05:32:28Z</time>
      </trkpt>
      <trkpt lat="42.6839092467" lon="0.0839844067">
        <ele>1536.32</ele>
        <time>2022-07-11T05:32:41Z</time>
      </trkpt>
      <trkpt lat="42.6838183869" lon="0.0839881785">
        <ele>1533.44</ele>
        <time>2022-07-11T05:32:52Z</time>
      </trkpt>
      <trkpt lat="42.6836846117" lon="0.0841509551">
        <ele>1530.56</ele>
        <time>2022-07-11T05:33:09Z</time>
      </trkpt>
      <trkpt lat="42.6836419478" lon="0.0842522923">
        <ele>1527.67</ele>
        <time>2022-07-11T05:33:22Z</time>
      </trkpt>
      <trkpt lat="42.6835812628" lon="0.0843004882">
        <ele>1525.27</ele>
        <time>2022-07-11T05:33:36Z</time>
      </trkpt>
      <trkpt lat="42.6835792512" lon="0.0842089579">
        <ele>1523.35</ele>
        <time>2022-07-11T05:33:46Z</time>
      </trkpt>
      <trkpt lat="42.6835712884" lon="0.0840642862">
        <ele>1520.46</ele>
        <time>2022-07-11T05:34:01Z</time>
      </trkpt>
      <trkpt lat="42.6836147066" lon="0.0838928763">
        <ele>1518.54</ele>
        <time>2022-07-11T05:34:17Z</time>
      </trkpt>
      <trkpt lat="42.6836850308" lon="0.0837546587">
        <ele>1516.14</ele>
        <time>2022-07-11T05:34:33Z</time>
      </trkpt>
      <trkpt lat="42.6836632378" lon="0.0836332887">
        <ele>1512.77</ele>
        <time>2022-07-11T05:34:49Z</time>
      </trkpt>
      <trkpt lat="42.6836737990" lon="0.0834321231">
        <ele>1509.89</ele>
        <time>2022-07-11T05:35:06Z</time>
      </trkpt>
      <trkpt lat="42.6836908143" lon="0.0832479727">
        <ele>1506.52</ele>
        <time>2022-07-11T05:35:20Z</time>
      </trkpt>
      <trkpt lat="42.6836830191" lon="0.0831025466">
        <ele>1503.16</ele>
        <time>2022-07-11T05:35:33Z</time>
      </trkpt>
      <trkpt lat="42.6835941710" lon="0.0830757245">
        <ele>1499.79</ele>
        <time>2022-07-11T05:35:48Z</time>
      </trkpt>
      <trkpt lat="42.6834971085" lon="0.0831268542">
        <ele>1496.43</ele>
        <time>2022-07-11T05:36:03Z</time>
      </trkpt>
      <trkpt lat="42.6834634133" lon="0.0831747986">
        <ele>1493.06</ele>
        <time>2022-07-11T05:36:16Z</time>
      </trkpt>
      <trkpt lat="42.6834291313" lon="0.0833181292">
        <ele>1490.66</ele>
        <time>2022-07-11T05:36:29Z</time>
      </trkpt>
      <trkpt lat="42.6833919156" lon="0.0833709352">
        <ele>1487.78</ele>
        <time>2022-07-11T05:36:41Z</time>
      </trkpt>
      <trkpt lat="42.6833215076" lon="0.0834229868">
        <ele>1484.41</ele>
        <time>2022-07-11T05:36:56Z</time>
      </trkpt>
      <trkpt lat="42.6832530275" lon="0.0834863540">
        <ele>1481.05</ele>
        <time>2022-07-11T05:37:11Z</time>
      </trkpt>
      <trkpt lat="42.6831794344" lon="0.0834541675">
        <ele>1478.16</ele>
        <time>2022-07-11T05:37:22Z</time>
      </trkpt>
      <trkpt lat="42.6830608305" lon="0.0834939815">
        <ele>1474.32</ele>
        <time>2022-07-11T05:37:35Z</time>
      </trkpt>
      <trkpt lat="42.6829923503" lon="0.0835492183">
        <ele>1471.44</ele>
        <time>2022-07-11T05:37:45Z</time>
      </trkpt>
      <trkpt lat="42.6829628460" lon="0.0835565105">
        <ele>1468.07</ele>
        <time>2022-07-11T05:37:58Z</time>
      </trkpt>
      <trkpt lat="42.6829068549" lon="0.0835978333">
        <ele>1464.71</ele>
        <time>2022-07-11T05:38:10Z</time>
      </trkpt>
      <trkpt lat="42.6827706490" lon="0.0836595241">
        <ele>1461.34</ele>
        <time>2022-07-11T05:38:25Z</time>
      </trkpt>
      <trkpt lat="42.6826950442" lon="0.0837950595">
        <ele>1457.98</ele>
        <time>2022-07-11T05:38:42Z</time>
      </trkpt>
      <trkpt lat="42.6826015022" lon="0.0839473587">
        <ele>1455.09</ele>
        <time>2022-07-11T05:38:56Z</time>
      </trkpt>
      <trkpt lat="42.6825070381" lon="0.0841006637">
        <ele>1451.25</ele>
        <time>2022-07-11T05:39:12Z</time>
      </trkpt>
      <trkpt lat="42.6824297570" lon="0.0841122307">
        <ele>1447.88</ele>
        <time>2022-07-11T05:39:24Z</time>
      </trkpt>
      <trkpt lat="42.6823495422" lon="0.0841795374">
        <ele>1445.00</ele>
        <time>2022-07-11T05:39:37Z</time>
      </trkpt>
      <trkpt lat="42.6822596882" lon="0.0842729956">
        <ele>1441.15</ele>
        <time>2022-07-11T05:39:52Z</time>
      </trkpt>
      <trkpt lat="42.6821689960" lon="0.0843237899">
        <ele>1438.27</ele>
        <time>2022-07-11T05:40:06Z</time>
      </trkpt>
      <trkpt lat="42.6821007673" lon="0.0843315851">
        <ele>1434.91</ele>
        <time>2022-07-11T05:40:18Z</time>
      </trkpt>
      <trkpt lat="42.6821753662" lon="0.0842102990">
        <ele>1432.02</ele>
        <time>2022-07-11T05:40:33Z</time>
      </trkpt>
      <trkpt lat="42.6821447723" lon="0.0841876678">
        <ele>1428.66</ele>
        <time>2022-07-11T05:40:44Z</time>
      </trkpt>
      <trkpt lat="42.6819990110" lon="0.0842833053">
        <ele>1425.29</ele>
        <time>2022-07-11T05:41:00Z</time>
      </trkpt>
      <trkpt lat="42.6818888728" lon="0.0843412243">
        <ele>1421.93</ele>
        <time>2022-07-11T05:41:11Z</time>
      </trkpt>
      <trkpt lat="42.6818006951" lon="0.0844273064">
        <ele>1419.04</ele>
        <time>2022-07-11T05:41:23Z</time>
      </trkpt>
      <trkpt lat="42.6817084104" lon="0.0844545476">
        <ele>1415.68</ele>
        <time>2022-07-11T05:41:35Z</time>
      </trkpt>
      <trkpt lat="42.6816426124" lon="0.0844929367">
        <ele>1411.83</ele>
        <time>2022-07-11T05:41:50Z</time>
      </trkpt>
      <trkpt lat="42.6815889683" lon="0.0845371094">
        <ele>1408.95</ele>
        <time>2022-07-11T05:42:01Z</time>
      </trkpt>
      <trkpt lat="42.6814699452" lon="0.0846220180">
        <ele>1405.58</ele>
        <time>2022-07-11T05:42:16Z</time>
      </trkpt>
      <trkpt lat="42.6814559475" lon="0.0847635046">
        <ele>1402.70</ele>
        <time>2022-07-11T05:42:30Z</time>
      </trkpt>
      <trkpt lat="42.6813633274" lon="0.0848637521">
        <ele>1399.34</ele>
        <time>2022-07-11T05:42:43Z</time>
      </trkpt>
      <trkpt lat="42.6813029777" lon="0.0849376805">
        <ele>1395.49</ele>
        <time>2022-07-11T05:42:56Z</time>
      </trkpt>
      <trkpt lat="42.6812122017" lon="0.0850029755">
        <ele>1392.13</ele>
        <time>2022-07-11T05:43:09Z</time>
      </trkpt>
      <trkpt lat="42.6811640896" lon="0.0850494113">
        <ele>1388.76</ele>
        <time>2022-07-11T05:43:20Z</time>
      </trkpt>
      <trkpt lat="42.6810734812" lon="0.0850520097">
        <ele>1385.88</ele>
        <time>2022-07-11T05:43:32Z</time>
      </trkpt>
      <trkpt lat="42.6809499320" lon="0.0850613136">
        <ele>1382.51</ele>
        <time>2022-07-11T05:43:44Z</time>
      </trkpt>
      <trkpt lat="42.6808637660" lon="0.0852002017">
        <ele>1382.03</ele>
        <time>2022-07-11T05:43:59Z</time>
      </trkpt>
      <trkpt lat="42.6807288174" lon="0.0852463860">
        <ele>1378.67</ele>
        <time>2022-07-11T05:44:13Z</time>
      </trkpt>
      <trkpt lat="42.6806610916" lon="0.0853025448">
        <ele>1375.78</ele>
        <time>2022-07-11T05:44:29Z</time>
      </trkpt>
      <trkpt lat="42.6805998199" lon="0.0853094179">
        <ele>1372.90</ele>
        <time>2022-07-11T05:44:44Z</time>
      </trkpt>
      <trkpt lat="42.6805442479" lon="0.0853332225">
        <ele>1370.50</ele>
        <time>2022-07-11T05:44:53Z</time>
      </trkpt>
      <trkpt lat="42.6804534718" lon="0.0854255911">
        <ele>1367.13</ele>
        <time>2022-07-11T05:45:08Z</time>
      </trkpt>
      <trkpt lat="42.6803792920" lon="0.0854455400">
        <ele>1363.77</ele>
        <time>2022-07-11T05:45:23Z</time>
      </trkpt>
      <trkpt lat="42.6803404838" lon="0.0855070632">
        <ele>1360.88</ele>
        <time>2022-07-11T05:45:36Z</time>
      </trkpt>
      <trkpt lat="42.6802517194" lon="0.0855323765">
        <ele>1357.52</ele>
        <time>2022-07-11T05:45:50Z</time>
      </trkpt>
      <trkpt lat="42.6801561657" lon="0.0855816621">
        <ele>1354.63</ele>
        <time>2022-07-11T05:46:05Z</time>
      </trkpt>
      <trkpt lat="42.6800989173" lon="0.0855604559">
        <ele>1351.75</ele>
        <time>2022-07-11T05:46:19Z</time>
      </trkpt>
      <trkpt lat="42.6799933054" lon="0.0855768844">
        <ele>1348.39</ele>
        <time>2022-07-11T05:46:33Z</time>
      </trkpt>
      <trkpt lat="42.6798897050" lon="0.0856563449">
        <ele>1345.02</ele>
        <time>2022-07-11T05:46:50Z</time>
      </trkpt>
      <trkpt lat="42.6797900442" lon="0.0857182033">
        <ele>1341.66</ele>
        <time>2022-07-11T05:47:06Z</time>
      </trkpt>
      <trkpt lat="42.6797128469" lon="0.0858026091">
        <ele>1338.77</ele>
        <time>2022-07-11T05:47:20Z</time>
      </trkpt>
      <trkpt lat="42.6796861086" lon="0.0857935566">
        <ele>1335.41</ele>
        <time>2022-07-11T05:47:35Z</time>
      </trkpt>
      <trkpt lat="42.6796027087" lon="0.0857403316">
        <ele>1332.52</ele>
        <time>2022-07-11T05:47:49Z</time>
      </trkpt>
      <trkpt lat="42.6795146149" lon="0.0857828278">
        <ele>1330.60</ele>
        <time>2022-07-11T05:48:06Z</time>
      </trkpt>
      <trkpt lat="42.6794276945" lon="0.0858020224">
        <ele>1327.24</ele>
        <time>2022-07-11T05:48:18Z</time>
      </trkpt>
      <trkpt lat="42.6793570351" lon="0.0858865120">
        <ele>1323.87</ele>
        <time>2022-07-11T05:48:33Z</time>
      </trkpt>
      <trkpt lat="42.6792413648" lon="0.0859285891">
        <ele>1320.51</ele>
        <time>2022-07-11T05:48:49Z</time>
      </trkpt>
      <trkpt lat="42.6791831944" lon="0.0859561656">
        <ele>1318.10</ele>
        <time>2022-07-11T05:49:03Z</time>
      </trkpt>
      <trkpt lat="42.6791566238" lon="0.0859445147">
        <ele>1317.14</ele>
        <time>2022-07-11T05:49:07Z</time>
      </trkpt>
      <trkpt lat="42.6790660992" lon="0.0859832391">
        <ele>1315.22</ele>
        <time>2022-07-11T05:49:16Z</time>
      </trkpt>
      <trkpt lat="42.6789531112" lon="0.0859899446">
        <ele>1312.82</ele>
        <time>2022-07-11T05:49:31Z</time>
      </trkpt>
      <trkpt lat="42.6788634248" lon="0.0859014317">
        <ele>1309.45</ele>
        <time>2022-07-11T05:49:46Z</time>
      </trkpt>
      <trkpt lat="42.6787498500" lon="0.0858213007">
        <ele>1306.57</ele>
        <time>2022-07-11T05:50:00Z</time>
      </trkpt>
      <trkpt lat="42.6785815414" lon="0.0856859330">
        <ele>1303.20</ele>
        <time>2022-07-11T05:50:18Z</time>
      </trkpt>
      <trkpt lat="42.6784659550" lon="0.0856192969">
        <ele>1301.76</ele>
        <time>2022-07-11T05:50:32Z</time>
      </trkpt>
      <trkpt lat="42.6784407254" lon="0.0856621284">
        <ele>1301.28</ele>
        <time>2022-07-11T05:50:43Z</time>
      </trkpt>
      <trkpt lat="42.6784184296" lon="0.0856292713">
        <ele>1301.28</ele>
        <time>2022-07-11T05:50:46Z</time>
      </trkpt>
      <trkpt lat="42.6783947088" lon="0.0854800735">
        <ele>1300.80</ele>
        <time>2022-07-11T05:51:00Z</time>
      </trkpt>
      <trkpt lat="42.6783947088" lon="0.0854898803">
        <ele>1300.80</ele>
        <time>2022-07-11T05:51:13Z</time>
      </trkpt>
      <trkpt lat="42.6783605944" lon="0.0856460351">
        <ele>1300.80</ele>
        <time>2022-07-11T05:51:28Z</time>
      </trkpt>
      <trkpt lat="42.6784277335" lon="0.0857496355">
        <ele>1300.32</ele>
        <time>2022-07-11T05:51:41Z</time>
      </trkpt>
      <trkpt lat="42.6784333494" lon="0.0857060496">
        <ele>1297.92</ele>
        <time>2022-07-11T06:33:24Z</time>
      </trkpt>
      <trkpt lat="42.6784257218" lon="0.0856978353">
        <ele>1297.92</ele>
        <time>2022-07-11T06:33:25Z</time>
      </trkpt>
      <trkpt lat="42.6783629414" lon="0.0856102444">
        <ele>1298.40</ele>
        <time>2022-07-11T06:33:38Z</time>
      </trkpt>
      <trkpt lat="42.6783564873" lon="0.0856010243">
        <ele>1298.40</ele>
        <time>2022-07-11T06:33:39Z</time>
      </trkpt>
      <trkpt lat="42.6783321798" lon="0.0855789799">
        <ele>1296.96</ele>
        <time>2022-07-11T06:33:43Z</time>
      </trkpt>
      <trkpt lat="42.6782546472" lon="0.0856095739">
        <ele>1294.07</ele>
        <time>2022-07-11T06:33:55Z</time>
      </trkpt>
      <trkpt lat="42.6781288348" lon="0.0856045447">
        <ele>1291.19</ele>
        <time>2022-07-11T06:34:05Z</time>
      </trkpt>
      <trkpt lat="42.6780767832" lon="0.0855856854">
        <ele>1289.27</ele>
        <time>2022-07-11T06:34:10Z</time>
      </trkpt>
      <trkpt lat="42.6779794693" lon="0.0855506491">
        <ele>1286.86</ele>
        <time>2022-07-11T06:34:17Z</time>
      </trkpt>
      <trkpt lat="42.6779263280" lon="0.0855397526">
        <ele>1286.38</ele>
        <time>2022-07-11T06:34:21Z</time>
      </trkpt>
      <trkpt lat="42.6778899506" lon="0.0854917243">
        <ele>1284.94</ele>
        <time>2022-07-11T06:34:25Z</time>
      </trkpt>
      <trkpt lat="42.6777378190" lon="0.0855641440">
        <ele>1283.02</ele>
        <time>2022-07-11T06:34:39Z</time>
      </trkpt>
      <trkpt lat="42.6777293533" lon="0.0855721906">
        <ele>1282.54</ele>
        <time>2022-07-11T06:34:40Z</time>
      </trkpt>
      <trkpt lat="42.6777083986" lon="0.0856031198">
        <ele>1282.54</ele>
        <time>2022-07-11T06:34:43Z</time>
      </trkpt>
      <trkpt lat="42.6775534172" lon="0.0857587717">
        <ele>1281.57</ele>
        <time>2022-07-11T06:34:58Z</time>
      </trkpt>
      <trkpt lat="42.6774778962" lon="0.0858348794">
        <ele>1281.09</ele>
        <time>2022-07-11T06:35:08Z</time>
      </trkpt>
      <trkpt lat="42.6772505790" lon="0.0860724226">
        <ele>1279.17</ele>
        <time>2022-07-11T06:35:27Z</time>
      </trkpt>
      <trkpt lat="42.6770261116" lon="0.0862636138">
        <ele>1278.69</ele>
        <time>2022-07-11T06:35:46Z</time>
      </trkpt>
      <trkpt lat="42.6768951025" lon="0.0863994844">
        <ele>1278.69</ele>
        <time>2022-07-11T06:35:59Z</time>
      </trkpt>
      <trkpt lat="42.6767178252" lon="0.0865263026">
        <ele>1277.73</ele>
        <time>2022-07-11T06:36:14Z</time>
      </trkpt>
      <trkpt lat="42.6765762549" lon="0.0866661128">
        <ele>1277.25</ele>
        <time>2022-07-11T06:36:28Z</time>
      </trkpt>
      <trkpt lat="42.6763784420" lon="0.0867930148">
        <ele>1276.29</ele>
        <time>2022-07-11T06:36:43Z</time>
      </trkpt>
      <trkpt lat="42.6763652824" lon="0.0868010614">
        <ele>1276.77</ele>
        <time>2022-07-11T06:36:44Z</time>
      </trkpt>
      <trkpt lat="42.6762818824" lon="0.0867931824">
        <ele>1276.77</ele>
        <time>2022-07-11T06:36:58Z</time>
      </trkpt>
      <trkpt lat="42.6761823893" lon="0.0867760833">
        <ele>1276.29</ele>
        <time>2022-07-11T06:37:16Z</time>
      </trkpt>
      <trkpt lat="42.6761144958" lon="0.0865496881">
        <ele>1276.29</ele>
        <time>2022-07-11T06:37:31Z</time>
      </trkpt>
      <trkpt lat="42.6761042699" lon="0.0863357820">
        <ele>1276.29</ele>
        <time>2022-07-11T06:37:42Z</time>
      </trkpt>
      <trkpt lat="42.6761182677" lon="0.0860894378">
        <ele>1276.29</ele>
        <time>2022-07-11T06:37:54Z</time>
      </trkpt>
      <trkpt lat="42.6761533879" lon="0.0860434212">
        <ele>1276.29</ele>
        <time>2022-07-11T06:37:58Z</time>
      </trkpt>
      <trkpt lat="42.6761384681" lon="0.0858377293">
        <ele>1276.29</ele>
        <time>2022-07-11T06:38:12Z</time>
      </trkpt>
      <trkpt lat="42.6761105563" lon="0.0857508089">
        <ele>1276.29</ele>
        <time>2022-07-11T06:38:35Z</time>
      </trkpt>
      <trkpt lat="42.6761080418" lon="0.0857781339">
        <ele>1275.81</ele>
        <time>2022-07-11T06:39:01Z</time>
      </trkpt>
      <trkpt lat="42.6760801300" lon="0.0857567601">
        <ele>1275.81</ele>
        <time>2022-07-11T06:39:16Z</time>
      </trkpt>
      <trkpt lat="42.6761727501" lon="0.0855549239">
        <ele>1275.81</ele>
        <time>2022-07-11T06:39:32Z</time>
      </trkpt>
      <trkpt lat="42.6761791203" lon="0.0855104160">
        <ele>1277.25</ele>
        <time>2022-07-11T06:39:35Z</time>
      </trkpt>
      <trkpt lat="42.6761756837" lon="0.0854436960">
        <ele>1277.25</ele>
        <time>2022-07-11T06:39:39Z</time>
      </trkpt>
      <trkpt lat="42.6761574950" lon="0.0852555223">
        <ele>1277.25</ele>
        <time>2022-07-11T06:39:53Z</time>
      </trkpt>
      <trkpt lat="42.6760914456" lon="0.0851954240">
        <ele>1277.73</ele>
        <time>2022-07-11T06:40:09Z</time>
      </trkpt>
      <trkpt lat="42.6759959757" lon="0.0852465536">
        <ele>1277.73</ele>
        <time>2022-07-11T06:40:14Z</time>
      </trkpt>
      <trkpt lat="42.6757752802" lon="0.0854102522">
        <ele>1277.73</ele>
        <time>2022-07-11T06:40:32Z</time>
      </trkpt>
      <trkpt lat="42.6756319497" lon="0.0855153613">
        <ele>1277.73</ele>
        <time>2022-07-11T06:40:45Z</time>
      </trkpt>
      <trkpt lat="42.6754426863" lon="0.0856441073">
        <ele>1277.73</ele>
        <time>2022-07-11T06:41:04Z</time>
      </trkpt>
      <trkpt lat="42.6753236633" lon="0.0856563449">
        <ele>1277.73</ele>
        <time>2022-07-11T06:41:13Z</time>
      </trkpt>
      <trkpt lat="42.6752898004" lon="0.0856483821">
        <ele>1277.73</ele>
        <time>2022-07-11T06:41:16Z</time>
      </trkpt>
      <trkpt lat="42.6751080807" lon="0.0856959913">
        <ele>1276.29</ele>
        <time>2022-07-11T06:41:32Z</time>
      </trkpt>
      <trkpt lat="42.6750350744" lon="0.0857292674">
        <ele>1275.81</ele>
        <time>2022-07-11T06:41:38Z</time>
      </trkpt>
      <trkpt lat="42.6749642473" lon="0.0858279224">
        <ele>1275.33</ele>
        <time>2022-07-11T06:41:45Z</time>
      </trkpt>
      <trkpt lat="42.6747575495" lon="0.0860596821">
        <ele>1274.85</ele>
        <time>2022-07-11T06:42:01Z</time>
      </trkpt>
      <trkpt lat="42.6746570505" lon="0.0864337664">
        <ele>1273.88</ele>
        <time>2022-07-11T06:42:19Z</time>
      </trkpt>
      <trkpt lat="42.6745992154" lon="0.0867155660">
        <ele>1272.92</ele>
        <time>2022-07-11T06:42:34Z</time>
      </trkpt>
      <trkpt lat="42.6744885743" lon="0.0869403686">
        <ele>1272.44</ele>
        <time>2022-07-11T06:42:48Z</time>
      </trkpt>
      <trkpt lat="42.6744459104" lon="0.0869925879">
        <ele>1272.44</ele>
        <time>2022-07-11T06:42:52Z</time>
      </trkpt>
      <trkpt lat="42.6744049229" lon="0.0870592240">
        <ele>1271.96</ele>
        <time>2022-07-11T06:42:57Z</time>
      </trkpt>
      <trkpt lat="42.6742382068" lon="0.0872359984">
        <ele>1271.48</ele>
        <time>2022-07-11T06:43:14Z</time>
      </trkpt>
      <trkpt lat="42.6740898471" lon="0.0873530097">
        <ele>1271.00</ele>
        <time>2022-07-11T06:43:28Z</time>
      </trkpt>
      <trkpt lat="42.6740455907" lon="0.0873742998">
        <ele>1271.00</ele>
        <time>2022-07-11T06:43:31Z</time>
      </trkpt>
      <trkpt lat="42.6738965604" lon="0.0875001960">
        <ele>1270.52</ele>
        <time>2022-07-11T06:43:45Z</time>
      </trkpt>
      <trkpt lat="42.6737497095" lon="0.0876386650">
        <ele>1270.04</ele>
        <time>2022-07-11T06:43:57Z</time>
      </trkpt>
      <trkpt lat="42.6736078877" lon="0.0876738690">
        <ele>1270.04</ele>
        <time>2022-07-11T06:44:10Z</time>
      </trkpt>
      <trkpt lat="42.6734733582" lon="0.0877042115">
        <ele>1270.04</ele>
        <time>2022-07-11T06:44:22Z</time>
      </trkpt>
      <trkpt lat="42.6733492222" lon="0.0877278484">
        <ele>1269.08</ele>
        <time>2022-07-11T06:44:31Z</time>
      </trkpt>
      <trkpt lat="42.6732233260" lon="0.0877476297">
        <ele>1267.16</ele>
        <time>2022-07-11T06:44:45Z</time>
      </trkpt>
      <trkpt lat="42.6730999444" lon="0.0877073128">
        <ele>1267.16</ele>
        <time>2022-07-11T06:45:03Z</time>
      </trkpt>
      <trkpt lat="42.6730934903" lon="0.0877443608">
        <ele>1267.16</ele>
        <time>2022-07-11T06:45:33Z</time>
      </trkpt>
      <trkpt lat="42.6730643213" lon="0.0878157746">
        <ele>1268.60</ele>
        <time>2022-07-11T06:45:41Z</time>
      </trkpt>
      <trkpt lat="42.6730524190" lon="0.0878217258">
        <ele>1268.60</ele>
        <time>2022-07-11T06:45:42Z</time>
      </trkpt>
      <trkpt lat="42.6730171312" lon="0.0878789742">
        <ele>1268.60</ele>
        <time>2022-07-11T06:45:46Z</time>
      </trkpt>
      <trkpt lat="42.6729033049" lon="0.0880203769">
        <ele>1268.60</ele>
        <time>2022-07-11T06:46:01Z</time>
      </trkpt>
      <trkpt lat="42.6727473177" lon="0.0881061237">
        <ele>1267.16</ele>
        <time>2022-07-11T06:46:14Z</time>
      </trkpt>
      <trkpt lat="42.6725517679" lon="0.0881621987">
        <ele>1266.67</ele>
        <time>2022-07-11T06:46:30Z</time>
      </trkpt>
      <trkpt lat="42.6723975409" lon="0.0883024279">
        <ele>1265.23</ele>
        <time>2022-07-11T06:46:44Z</time>
      </trkpt>
      <trkpt lat="42.6722662803" lon="0.0884096324">
        <ele>1264.27</ele>
        <time>2022-07-11T06:46:56Z</time>
      </trkpt>
      <trkpt lat="42.6721470896" lon="0.0885101315">
        <ele>1264.27</ele>
        <time>2022-07-11T06:47:08Z</time>
      </trkpt>
      <trkpt lat="42.6720781066" lon="0.0885928608">
        <ele>1264.27</ele>
        <time>2022-07-11T06:47:22Z</time>
      </trkpt>
      <trkpt lat="42.6719068643" lon="0.0887304917">
        <ele>1263.31</ele>
        <time>2022-07-11T06:47:37Z</time>
      </trkpt>
      <trkpt lat="42.6718015876" lon="0.0888154004">
        <ele>1263.31</ele>
        <time>2022-07-11T06:47:47Z</time>
      </trkpt>
      <trkpt lat="42.6717760228" lon="0.0888541248">
        <ele>1263.31</ele>
        <time>2022-07-11T06:47:50Z</time>
      </trkpt>
      <trkpt lat="42.6716826484" lon="0.0890312344">
        <ele>1262.83</ele>
        <time>2022-07-11T06:48:05Z</time>
      </trkpt>
      <trkpt lat="42.6716689020" lon="0.0890429690">
        <ele>1262.83</ele>
        <time>2022-07-11T06:48:06Z</time>
      </trkpt>
      <trkpt lat="42.6715247333" lon="0.0891656801">
        <ele>1262.35</ele>
        <time>2022-07-11T06:48:23Z</time>
      </trkpt>
      <trkpt lat="42.6714668144" lon="0.0892183185">
        <ele>1262.35</ele>
        <time>2022-07-11T06:48:29Z</time>
      </trkpt>
      <trkpt lat="42.6714153495" lon="0.0892692804">
        <ele>1262.35</ele>
        <time>2022-07-11T06:48:33Z</time>
      </trkpt>
      <trkpt lat="42.6711538341" lon="0.0895074103">
        <ele>1262.35</ele>
        <time>2022-07-11T06:48:52Z</time>
      </trkpt>
      <trkpt lat="42.6709948294" lon="0.0896829274">
        <ele>1261.39</ele>
        <time>2022-07-11T06:49:07Z</time>
      </trkpt>
      <trkpt lat="42.6708944980" lon="0.0898233242">
        <ele>1261.39</ele>
        <time>2022-07-11T06:49:21Z</time>
      </trkpt>
      <trkpt lat="42.6707538497" lon="0.0899283495">
        <ele>1260.91</ele>
        <time>2022-07-11T06:49:34Z</time>
      </trkpt>
      <trkpt lat="42.6706116088" lon="0.0900212210">
        <ele>1260.91</ele>
        <time>2022-07-11T06:49:48Z</time>
      </trkpt>
      <trkpt lat="42.6705327351" lon="0.0900912099">
        <ele>1260.91</ele>
        <time>2022-07-11T06:49:55Z</time>
      </trkpt>
      <trkpt lat="42.6704425458" lon="0.0901336223">
        <ele>1260.91</ele>
        <time>2022-07-11T06:50:02Z</time>
      </trkpt>
      <trkpt lat="42.6703519374" lon="0.0902342051">
        <ele>1260.43</ele>
        <time>2022-07-11T06:50:11Z</time>
      </trkpt>
      <trkpt lat="42.6702497620" lon="0.0903107319">
        <ele>1260.43</ele>
        <time>2022-07-11T06:50:18Z</time>
      </trkpt>
      <trkpt lat="42.6700915117" lon="0.0904440880">
        <ele>1259.94</ele>
        <time>2022-07-11T06:50:32Z</time>
      </trkpt>
      <trkpt lat="42.6699056849" lon="0.0904775318">
        <ele>1259.94</ele>
        <time>2022-07-11T06:50:45Z</time>
      </trkpt>
      <trkpt lat="42.6698797848" lon="0.0904715806">
        <ele>1259.46</ele>
        <time>2022-07-11T06:50:47Z</time>
      </trkpt>
      <trkpt lat="42.6696962211" lon="0.0904667191">
        <ele>1258.98</ele>
        <time>2022-07-11T06:51:02Z</time>
      </trkpt>
      <trkpt lat="42.6695411559" lon="0.0905402284">
        <ele>1258.50</ele>
        <time>2022-07-11T06:51:15Z</time>
      </trkpt>
      <trkpt lat="42.6694150083" lon="0.0905968901">
        <ele>1258.02</ele>
        <time>2022-07-11T06:51:26Z</time>
      </trkpt>
      <trkpt lat="42.6692672353" lon="0.0907693896">
        <ele>1257.54</ele>
        <time>2022-07-11T06:51:41Z</time>
      </trkpt>
      <trkpt lat="42.6691101585" lon="0.0908972137">
        <ele>1257.54</ele>
        <time>2022-07-11T06:51:55Z</time>
      </trkpt>
      <trkpt lat="42.6689234097" lon="0.0910696294">
        <ele>1257.54</ele>
        <time>2022-07-11T06:52:10Z</time>
      </trkpt>
      <trkpt lat="42.6688169595" lon="0.0911799353">
        <ele>1257.54</ele>
        <time>2022-07-11T06:52:22Z</time>
      </trkpt>
      <trkpt lat="42.6686873753" lon="0.0913977809">
        <ele>1257.06</ele>
        <time>2022-07-11T06:52:37Z</time>
      </trkpt>
      <trkpt lat="42.6685644127" lon="0.0915297121">
        <ele>1257.06</ele>
        <time>2022-07-11T06:52:50Z</time>
      </trkpt>
      <trkpt lat="42.6684886403" lon="0.0917030498">
        <ele>1257.06</ele>
        <time>2022-07-11T06:53:03Z</time>
      </trkpt>
      <trkpt lat="42.6683821063" lon="0.0918521639">
        <ele>1257.06</ele>
        <time>2022-07-11T06:53:16Z</time>
      </trkpt>
      <trkpt lat="42.6683936734" lon="0.0919010304">
        <ele>1256.10</ele>
        <time>2022-07-11T06:53:19Z</time>
      </trkpt>
      <trkpt lat="42.6683767419" lon="0.0920722727">
        <ele>1256.10</ele>
        <time>2022-07-11T06:53:30Z</time>
      </trkpt>
      <trkpt lat="42.6683085971" lon="0.0921721011">
        <ele>1256.10</ele>
        <time>2022-07-11T06:53:39Z</time>
      </trkpt>
      <trkpt lat="42.6682655141" lon="0.0923561677">
        <ele>1256.10</ele>
        <time>2022-07-11T06:53:53Z</time>
      </trkpt>
      <trkpt lat="42.6682256162" lon="0.0925848261">
        <ele>1256.10</ele>
        <time>2022-07-11T06:54:09Z</time>
      </trkpt>
      <trkpt lat="42.6681655180" lon="0.0927296653">
        <ele>1255.14</ele>
        <time>2022-07-11T06:54:23Z</time>
      </trkpt>
      <trkpt lat="42.6681477483" lon="0.0927845668">
        <ele>1254.66</ele>
        <time>2022-07-11T06:54:27Z</time>
      </trkpt>
      <trkpt lat="42.6680201758" lon="0.0930195954">
        <ele>1254.66</ele>
        <time>2022-07-11T06:54:42Z</time>
      </trkpt>
      <trkpt lat="42.6679671183" lon="0.0930898357">
        <ele>1254.66</ele>
        <time>2022-07-11T06:54:47Z</time>
      </trkpt>
      <trkpt lat="42.6678998116" lon="0.0932478346">
        <ele>1254.66</ele>
        <time>2022-07-11T06:54:59Z</time>
      </trkpt>
      <trkpt lat="42.6678722352" lon="0.0932978746">
        <ele>1254.66</ele>
        <time>2022-07-11T06:55:03Z</time>
      </trkpt>
      <trkpt lat="42.6677941158" lon="0.0934964418">
        <ele>1254.18</ele>
        <time>2022-07-11T06:55:16Z</time>
      </trkpt>
      <trkpt lat="42.6677751727" lon="0.0935795065">
        <ele>1253.70</ele>
        <time>2022-07-11T06:55:21Z</time>
      </trkpt>
      <trkpt lat="42.6677382085" lon="0.0937403552">
        <ele>1253.70</ele>
        <time>2022-07-11T06:55:30Z</time>
      </trkpt>
      <trkpt lat="42.6676660404" lon="0.0938634854">
        <ele>1253.70</ele>
        <time>2022-07-11T06:55:39Z</time>
      </trkpt>
      <trkpt lat="42.6676534675" lon="0.0939054787">
        <ele>1253.70</ele>
        <time>2022-07-11T06:55:42Z</time>
      </trkpt>
      <trkpt lat="42.6675692294" lon="0.0940119289">
        <ele>1253.70</ele>
        <time>2022-07-11T06:55:55Z</time>
      </trkpt>
      <trkpt lat="42.6675405633" lon="0.0940268487">
        <ele>1255.14</ele>
        <time>2022-07-11T06:55:58Z</time>
      </trkpt>
      <trkpt lat="42.6675028447" lon="0.0940834265">
        <ele>1255.14</ele>
        <time>2022-07-11T06:56:04Z</time>
      </trkpt>
      <trkpt lat="42.6673972327" lon="0.0942533277">
        <ele>1253.22</ele>
        <time>2022-07-11T06:56:19Z</time>
      </trkpt>
      <trkpt lat="42.6673784573" lon="0.0942769647">
        <ele>1253.22</ele>
        <time>2022-07-11T06:56:21Z</time>
      </trkpt>
      <trkpt lat="42.6673574187" lon="0.0943083130">
        <ele>1253.22</ele>
        <time>2022-07-11T06:56:24Z</time>
      </trkpt>
      <trkpt lat="42.6672912017" lon="0.0944879372">
        <ele>1253.22</ele>
        <time>2022-07-11T06:56:37Z</time>
      </trkpt>
      <trkpt lat="42.6672161836" lon="0.0946599338">
        <ele>1254.18</ele>
        <time>2022-07-11T06:56:52Z</time>
      </trkpt>
      <trkpt lat="42.6671489608" lon="0.0947519671">
        <ele>1254.18</ele>
        <time>2022-07-11T06:57:01Z</time>
      </trkpt>
      <trkpt lat="42.6670960709" lon="0.0948196091">
        <ele>1252.74</ele>
        <time>2022-07-11T06:57:07Z</time>
      </trkpt>
      <trkpt lat="42.6670212205" lon="0.0949465949">
        <ele>1252.74</ele>
        <time>2022-07-11T06:57:18Z</time>
      </trkpt>
      <trkpt lat="42.6668972522" lon="0.0951092038">
        <ele>1251.77</ele>
        <time>2022-07-11T06:57:32Z</time>
      </trkpt>
      <trkpt lat="42.6667415164" lon="0.0952365249">
        <ele>1251.77</ele>
        <time>2022-07-11T06:57:47Z</time>
      </trkpt>
      <trkpt lat="42.6666695997" lon="0.0953421369">
        <ele>1251.77</ele>
        <time>2022-07-11T06:57:55Z</time>
      </trkpt>
      <trkpt lat="42.6666315459" lon="0.0954043306">
        <ele>1251.77</ele>
        <time>2022-07-11T06:58:00Z</time>
      </trkpt>
      <trkpt lat="42.6665769797" lon="0.0954435579">
        <ele>1251.77</ele>
        <time>2022-07-11T06:58:05Z</time>
      </trkpt>
      <trkpt lat="42.6665499900" lon="0.0955181569">
        <ele>1251.29</ele>
        <time>2022-07-11T06:58:10Z</time>
      </trkpt>
      <trkpt lat="42.6664031390" lon="0.0957266148">
        <ele>1249.85</ele>
        <time>2022-07-11T06:58:26Z</time>
      </trkpt>
      <trkpt lat="42.6662922464" lon="0.0959293731">
        <ele>1249.37</ele>
        <time>2022-07-11T06:58:41Z</time>
      </trkpt>
      <trkpt lat="42.6662101038" lon="0.0961017888">
        <ele>1249.37</ele>
        <time>2022-07-11T06:58:54Z</time>
      </trkpt>
      <trkpt lat="42.6660895720" lon="0.0962714385">
        <ele>1249.37</ele>
        <time>2022-07-11T06:59:07Z</time>
      </trkpt>
      <trkpt lat="42.6660150569" lon="0.0965061318">
        <ele>1249.37</ele>
        <time>2022-07-11T06:59:20Z</time>
      </trkpt>
      <trkpt lat="42.6659643464" lon="0.0965546630">
        <ele>1249.37</ele>
        <time>2022-07-11T06:59:26Z</time>
      </trkpt>
      <trkpt lat="42.6659400389" lon="0.0966192037">
        <ele>1249.37</ele>
        <time>2022-07-11T06:59:30Z</time>
      </trkpt>
      <trkpt lat="42.6658195909" lon="0.0969193596">
        <ele>1248.89</ele>
        <time>2022-07-11T06:59:48Z</time>
      </trkpt>
      <trkpt lat="42.6657098718" lon="0.0970958825">
        <ele>1248.89</ele>
        <time>2022-07-11T07:00:03Z</time>
      </trkpt>
      <trkpt lat="42.6657174155" lon="0.0972227845">
        <ele>1248.89</ele>
        <time>2022-07-11T07:00:12Z</time>
      </trkpt>
      <trkpt lat="42.6656390447" lon="0.0974796060">
        <ele>1248.41</ele>
        <time>2022-07-11T07:00:28Z</time>
      </trkpt>
      <trkpt lat="42.6655282360" lon="0.0976669416">
        <ele>1248.41</ele>
        <time>2022-07-11T07:00:43Z</time>
      </trkpt>
      <trkpt lat="42.6653998252" lon="0.0978695322">
        <ele>1247.45</ele>
        <time>2022-07-11T07:00:58Z</time>
      </trkpt>
      <trkpt lat="42.6653850731" lon="0.0979450531">
        <ele>1248.89</ele>
        <time>2022-07-11T07:01:08Z</time>
      </trkpt>
      <trkpt lat="42.6653719973" lon="0.0979772396">
        <ele>1248.89</ele>
        <time>2022-07-11T07:01:11Z</time>
      </trkpt>
      <trkpt lat="42.6653756853" lon="0.0980748888">
        <ele>1249.37</ele>
        <time>2022-07-11T07:01:15Z</time>
      </trkpt>
      <trkpt lat="42.6653538924" lon="0.0982226618">
        <ele>1249.37</ele>
        <time>2022-07-11T07:01:28Z</time>
      </trkpt>
      <trkpt lat="42.6653412357" lon="0.0982639007">
        <ele>1247.93</ele>
        <time>2022-07-11T07:01:34Z</time>
      </trkpt>
      <trkpt lat="42.6652640384" lon="0.0983916409">
        <ele>1247.45</ele>
        <time>2022-07-11T07:01:47Z</time>
      </trkpt>
      <trkpt lat="42.6652422454" lon="0.0984087400">
        <ele>1247.45</ele>
        <time>2022-07-11T07:02:02Z</time>
      </trkpt>
      <trkpt lat="42.6652017608" lon="0.0983890425">
        <ele>1247.45</ele>
        <time>2022-07-11T07:02:17Z</time>
      </trkpt>
      <trkpt lat="42.6651570853" lon="0.0984224025">
        <ele>1248.41</ele>
        <time>2022-07-11T07:02:24Z</time>
      </trkpt>
      <trkpt lat="42.6650964841" lon="0.0985630509">
        <ele>1248.89</ele>
        <time>2022-07-11T07:02:34Z</time>
      </trkpt>
      <trkpt lat="42.6650684047" lon="0.0987839140">
        <ele>1248.89</ele>
        <time>2022-07-11T07:02:48Z</time>
      </trkpt>
      <trkpt lat="42.6650983281" lon="0.0988662243">
        <ele>1247.45</ele>
        <time>2022-07-11T07:02:52Z</time>
      </trkpt>
      <trkpt lat="42.6650874317" lon="0.0991362054">
        <ele>1246.01</ele>
        <time>2022-07-11T07:03:06Z</time>
      </trkpt>
      <trkpt lat="42.6650080550" lon="0.0993075315">
        <ele>1246.01</ele>
        <time>2022-07-11T07:03:21Z</time>
      </trkpt>
      <trkpt lat="42.6648827456" lon="0.0995062664">
        <ele>1246.01</ele>
        <time>2022-07-11T07:03:38Z</time>
      </trkpt>
      <trkpt lat="42.6648028661" lon="0.0997572206">
        <ele>1245.53</ele>
        <time>2022-07-11T07:03:53Z</time>
      </trkpt>
      <trkpt lat="42.6646606252" lon="0.0999962725">
        <ele>1244.56</ele>
        <time>2022-07-11T07:04:10Z</time>
      </trkpt>
      <trkpt lat="42.6646191347" lon="0.1000570413">
        <ele>1244.56</ele>
        <time>2022-07-11T07:04:15Z</time>
      </trkpt>
      <trkpt lat="42.6644865330" lon="0.1002183091">
        <ele>1244.56</ele>
        <time>2022-07-11T07:04:27Z</time>
      </trkpt>
      <trkpt lat="42.6644440368" lon="0.1003003679">
        <ele>1244.56</ele>
        <time>2022-07-11T07:04:32Z</time>
      </trkpt>
      <trkpt lat="42.6644208189" lon="0.1003703568">
        <ele>1244.08</ele>
        <time>2022-07-11T07:04:37Z</time>
      </trkpt>
      <trkpt lat="42.6643214934" lon="0.1005290262">
        <ele>1243.60</ele>
        <time>2022-07-11T07:04:51Z</time>
      </trkpt>
      <trkpt lat="42.6641832758" lon="0.1007587742">
        <ele>1243.60</ele>
        <time>2022-07-11T07:05:07Z</time>
      </trkpt>
      <trkpt lat="42.6641428750" lon="0.1007771306">
        <ele>1243.60</ele>
        <time>2022-07-11T07:05:12Z</time>
      </trkpt>
      <trkpt lat="42.6639785059" lon="0.1007674914">
        <ele>1243.12</ele>
        <time>2022-07-11T07:05:28Z</time>
      </trkpt>
      <trkpt lat="42.6637796033" lon="0.1007488836">
        <ele>1243.12</ele>
        <time>2022-07-11T07:05:43Z</time>
      </trkpt>
      <trkpt lat="42.6636281423" lon="0.1007697545">
        <ele>1242.64</ele>
        <time>2022-07-11T07:05:56Z</time>
      </trkpt>
      <trkpt lat="42.6635725703" lon="0.1008057129">
        <ele>1242.64</ele>
        <time>2022-07-11T07:06:01Z</time>
      </trkpt>
      <trkpt lat="42.6634162478" lon="0.1007912122">
        <ele>1242.64</ele>
        <time>2022-07-11T07:06:12Z</time>
      </trkpt>
      <trkpt lat="42.6632477716" lon="0.1007089019">
        <ele>1242.16</ele>
        <time>2022-07-11T07:06:26Z</time>
      </trkpt>
      <trkpt lat="42.6632108074" lon="0.1006922219">
        <ele>1242.16</ele>
        <time>2022-07-11T07:06:29Z</time>
      </trkpt>
      <trkpt lat="42.6630158443" lon="0.1005924772">
        <ele>1242.16</ele>
        <time>2022-07-11T07:06:45Z</time>
      </trkpt>
      <trkpt lat="42.6629554946" lon="0.1005001087">
        <ele>1242.16</ele>
        <time>2022-07-11T07:06:57Z</time>
      </trkpt>
      <trkpt lat="42.6628895290" lon="0.1004851889">
        <ele>1243.60</ele>
        <time>2022-07-11T07:07:07Z</time>
      </trkpt>
      <trkpt lat="42.6627123356" lon="0.1005128492">
        <ele>1246.49</ele>
        <time>2022-07-11T07:07:26Z</time>
      </trkpt>
      <trkpt lat="42.6625431888" lon="0.1005456224">
        <ele>1246.97</ele>
        <time>2022-07-11T07:07:40Z</time>
      </trkpt>
      <trkpt lat="42.6625019498" lon="0.1006156951">
        <ele>1246.97</ele>
        <time>2022-07-11T07:07:53Z</time>
      </trkpt>
      <trkpt lat="42.6624634769" lon="0.1007056329">
        <ele>1247.45</ele>
        <time>2022-07-11T07:08:03Z</time>
      </trkpt>
      <trkpt lat="42.6623916440" lon="0.1008235663">
        <ele>1248.89</ele>
        <time>2022-07-11T07:08:17Z</time>
      </trkpt>
      <trkpt lat="42.6623858605" lon="0.1008616202">
        <ele>1246.97</ele>
        <time>2022-07-11T07:08:20Z</time>
      </trkpt>
      <trkpt lat="42.6623314619" lon="0.1009775419">
        <ele>1245.04</ele>
        <time>2022-07-11T07:08:32Z</time>
      </trkpt>
      <trkpt lat="42.6622594614" lon="0.1010211278">
        <ele>1248.41</ele>
        <time>2022-07-11T07:08:46Z</time>
      </trkpt>
      <trkpt lat="42.6622203179" lon="0.1011905260">
        <ele>1248.89</ele>
        <time>2022-07-11T07:09:00Z</time>
      </trkpt>
      <trkpt lat="42.6622149535" lon="0.1014374569">
        <ele>1249.37</ele>
        <time>2022-07-11T07:09:15Z</time>
      </trkpt>
      <trkpt lat="42.6621671766" lon="0.1014970522">
        <ele>1250.33</ele>
        <time>2022-07-11T07:09:28Z</time>
      </trkpt>
      <trkpt lat="42.6620367542" lon="0.1016020775">
        <ele>1251.77</ele>
        <time>2022-07-11T07:09:42Z</time>
      </trkpt>
      <trkpt lat="42.6619696990" lon="0.1017268840">
        <ele>1250.33</ele>
        <time>2022-07-11T07:09:55Z</time>
      </trkpt>
      <trkpt lat="42.6619122829" lon="0.1019322407">
        <ele>1246.97</ele>
        <time>2022-07-11T07:10:09Z</time>
      </trkpt>
      <trkpt lat="42.6618770789" lon="0.1021251082">
        <ele>1246.01</ele>
        <time>2022-07-11T07:10:23Z</time>
      </trkpt>
      <trkpt lat="42.6618244406" lon="0.1023592986">
        <ele>1246.01</ele>
        <time>2022-07-11T07:10:38Z</time>
      </trkpt>
      <trkpt lat="42.6618619915" lon="0.1025659125">
        <ele>1246.97</ele>
        <time>2022-07-11T07:10:53Z</time>
      </trkpt>
      <trkpt lat="42.6618635841" lon="0.1026345603">
        <ele>1246.97</ele>
        <time>2022-07-11T07:11:13Z</time>
      </trkpt>
      <trkpt lat="42.6619153842" lon="0.1026570238">
        <ele>1246.97</ele>
        <time>2022-07-11T07:11:45Z</time>
      </trkpt>
      <trkpt lat="42.6618925016" lon="0.1026792359">
        <ele>1246.97</ele>
        <time>2022-07-11T07:12:00Z</time>
      </trkpt>
      <trkpt lat="42.6619012188" lon="0.1026687585">
        <ele>1245.53</ele>
        <time>2022-07-11T07:12:05Z</time>
      </trkpt>
      <trkpt lat="42.6619146299" lon="0.1026797388">
        <ele>1245.53</ele>
        <time>2022-07-11T07:12:21Z</time>
      </trkpt>
      <trkpt lat="42.6619032305" lon="0.1027065609">
        <ele>1246.97</ele>
        <time>2022-07-11T07:12:29Z</time>
      </trkpt>
      <trkpt lat="42.6619029790" lon="0.1027193014">
        <ele>1246.97</ele>
        <time>2022-07-11T07:12:39Z</time>
      </trkpt>
      <trkpt lat="42.6618993748" lon="0.1027534995">
        <ele>1247.45</ele>
        <time>2022-07-11T07:15:39Z</time>
      </trkpt>
      <trkpt lat="42.6618992910" lon="0.1027467940">
        <ele>1247.45</ele>
        <time>2022-07-11T07:15:40Z</time>
      </trkpt>
      <trkpt lat="42.6619215030" lon="0.1026691776">
        <ele>1248.41</ele>
        <time>2022-07-11T07:16:03Z</time>
      </trkpt>
      <trkpt lat="42.6619303878" lon="0.1026789006">
        <ele>1246.97</ele>
        <time>2022-07-11T07:16:06Z</time>
      </trkpt>
      <trkpt lat="42.6619072538" lon="0.1026976760">
        <ele>1247.45</ele>
        <time>2022-07-11T07:16:21Z</time>
      </trkpt>
      <trkpt lat="42.6618715469" lon="0.1026597898">
        <ele>1248.89</ele>
        <time>2022-07-11T07:16:45Z</time>
      </trkpt>
      <trkpt lat="42.6618150529" lon="0.1027256716">
        <ele>1251.77</ele>
        <time>2022-07-11T07:17:00Z</time>
      </trkpt>
      <trkpt lat="42.6617398672" lon="0.1027441956">
        <ele>1254.66</ele>
        <time>2022-07-11T07:17:14Z</time>
      </trkpt>
      <trkpt lat="42.6616513543" lon="0.1027265098">
        <ele>1257.54</ele>
        <time>2022-07-11T07:17:30Z</time>
      </trkpt>
      <trkpt lat="42.6616084389" lon="0.1026746258">
        <ele>1260.91</ele>
        <time>2022-07-11T07:17:44Z</time>
      </trkpt>
      <trkpt lat="42.6616098639" lon="0.1026243344">
        <ele>1263.79</ele>
        <time>2022-07-11T07:17:58Z</time>
      </trkpt>
      <trkpt lat="42.6616910007" lon="0.1025439519">
        <ele>1266.19</ele>
        <time>2022-07-11T07:18:14Z</time>
      </trkpt>
      <trkpt lat="42.6617351733" lon="0.1024598815">
        <ele>1268.60</ele>
        <time>2022-07-11T07:18:29Z</time>
      </trkpt>
      <trkpt lat="42.6617469918" lon="0.1024010405">
        <ele>1270.52</ele>
        <time>2022-07-11T07:18:36Z</time>
      </trkpt>
      <trkpt lat="42.6617557928" lon="0.1022665948">
        <ele>1271.96</ele>
        <time>2022-07-11T07:18:50Z</time>
      </trkpt>
      <trkpt lat="42.6617110334" lon="0.1021423750">
        <ele>1274.85</ele>
        <time>2022-07-11T07:19:05Z</time>
      </trkpt>
      <trkpt lat="42.6617143862" lon="0.1020444743">
        <ele>1278.21</ele>
        <time>2022-07-11T07:19:19Z</time>
      </trkpt>
      <trkpt lat="42.6618044917" lon="0.1019189972">
        <ele>1280.13</ele>
        <time>2022-07-11T07:19:32Z</time>
      </trkpt>
      <trkpt lat="42.6618428808" lon="0.1018065959">
        <ele>1282.54</ele>
        <time>2022-07-11T07:19:46Z</time>
      </trkpt>
      <trkpt lat="42.6618852094" lon="0.1016496029">
        <ele>1283.98</ele>
        <time>2022-07-11T07:19:59Z</time>
      </trkpt>
      <trkpt lat="42.6618777495" lon="0.1015452482">
        <ele>1285.90</ele>
        <time>2022-07-11T07:20:11Z</time>
      </trkpt>
      <trkpt lat="42.6618583873" lon="0.1014370378">
        <ele>1288.30</ele>
        <time>2022-07-11T07:20:25Z</time>
      </trkpt>
      <trkpt lat="42.6618972793" lon="0.1012896001">
        <ele>1291.67</ele>
        <time>2022-07-11T07:20:42Z</time>
      </trkpt>
      <trkpt lat="42.6619081758" lon="0.1011916157">
        <ele>1294.55</ele>
        <time>2022-07-11T07:20:57Z</time>
      </trkpt>
      <trkpt lat="42.6618510950" lon="0.1010792144">
        <ele>1296.96</ele>
        <time>2022-07-11T07:21:13Z</time>
      </trkpt>
      <trkpt lat="42.6618126221" lon="0.1010939665">
        <ele>1299.36</ele>
        <time>2022-07-11T07:21:31Z</time>
      </trkpt>
      <trkpt lat="42.6617560443" lon="0.1011278294">
        <ele>1302.72</ele>
        <time>2022-07-11T07:21:45Z</time>
      </trkpt>
      <trkpt lat="42.6617733110" lon="0.1010264922">
        <ele>1306.09</ele>
        <time>2022-07-11T07:22:03Z</time>
      </trkpt>
      <trkpt lat="42.6617368497" lon="0.1009108219">
        <ele>1308.49</ele>
        <time>2022-07-11T07:22:19Z</time>
      </trkpt>
      <trkpt lat="42.6617023163" lon="0.1008746959">
        <ele>1308.49</ele>
        <time>2022-07-11T07:22:36Z</time>
      </trkpt>
      <trkpt lat="42.6616996340" lon="0.1008723490">
        <ele>1307.05</ele>
        <time>2022-07-11T07:22:38Z</time>
      </trkpt>
      <trkpt lat="42.6617255341" lon="0.1008891128">
        <ele>1306.57</ele>
        <time>2022-07-11T07:23:05Z</time>
      </trkpt>
      <trkpt lat="42.6616784278" lon="0.1009074692">
        <ele>1307.05</ele>
        <time>2022-07-11T07:23:28Z</time>
      </trkpt>
      <trkpt lat="42.6616582274" lon="0.1008751150">
        <ele>1308.49</ele>
        <time>2022-07-11T07:24:01Z</time>
      </trkpt>
      <trkpt lat="42.6617024839" lon="0.1008774620">
        <ele>1309.45</ele>
        <time>2022-07-11T07:24:18Z</time>
      </trkpt>
      <trkpt lat="42.6616957784" lon="0.1009288430">
        <ele>1310.41</ele>
        <time>2022-07-11T07:24:44Z</time>
      </trkpt>
      <trkpt lat="42.6617593970" lon="0.1008080598">
        <ele>1313.78</ele>
        <time>2022-07-11T07:24:58Z</time>
      </trkpt>
      <trkpt lat="42.6617883146" lon="0.1006545033">
        <ele>1316.66</ele>
        <time>2022-07-11T07:25:17Z</time>
      </trkpt>
      <trkpt lat="42.6618408691" lon="0.1004818361">
        <ele>1319.55</ele>
        <time>2022-07-11T07:25:31Z</time>
      </trkpt>
      <trkpt lat="42.6618529391" lon="0.1003435347">
        <ele>1322.43</ele>
        <time>2022-07-11T07:25:47Z</time>
      </trkpt>
      <trkpt lat="42.6618394442" lon="0.1002176385">
        <ele>1325.31</ele>
        <time>2022-07-11T07:26:02Z</time>
      </trkpt>
      <trkpt lat="42.6618001331" lon="0.1001191512">
        <ele>1328.68</ele>
        <time>2022-07-11T07:26:19Z</time>
      </trkpt>
      <trkpt lat="42.6617018133" lon="0.0999819394">
        <ele>1331.08</ele>
        <time>2022-07-11T07:26:36Z</time>
      </trkpt>
      <trkpt lat="42.6617130451" lon="0.0998998806">
        <ele>1334.45</ele>
        <time>2022-07-11T07:26:49Z</time>
      </trkpt>
      <trkpt lat="42.6617136318" lon="0.0997951068">
        <ele>1337.81</ele>
        <time>2022-07-11T07:27:03Z</time>
      </trkpt>
      <trkpt lat="42.6616504323" lon="0.0996647682">
        <ele>1341.18</ele>
        <time>2022-07-11T07:27:20Z</time>
      </trkpt>
      <trkpt lat="42.6616345067" lon="0.0994872395">
        <ele>1344.06</ele>
        <time>2022-07-11T07:27:38Z</time>
      </trkpt>
      <trkpt lat="42.6616579760" lon="0.0993418135">
        <ele>1346.46</ele>
        <time>2022-07-11T07:27:53Z</time>
      </trkpt>
      <trkpt lat="42.6616188325" lon="0.0992129836">
        <ele>1348.87</ele>
        <time>2022-07-11T07:28:08Z</time>
      </trkpt>
      <trkpt lat="42.6615740731" lon="0.0991384685">
        <ele>1350.79</ele>
        <time>2022-07-11T07:28:18Z</time>
      </trkpt>
      <trkpt lat="42.6615121309" lon="0.0989952218">
        <ele>1354.15</ele>
        <time>2022-07-11T07:28:33Z</time>
      </trkpt>
      <trkpt lat="42.6614909247" lon="0.0988745224">
        <ele>1356.56</ele>
        <time>2022-07-11T07:28:48Z</time>
      </trkpt>
      <trkpt lat="42.6613928564" lon="0.0986928865">
        <ele>1359.92</ele>
        <time>2022-07-11T07:29:05Z</time>
      </trkpt>
      <trkpt lat="42.6612898428" lon="0.0985461194">
        <ele>1363.29</ele>
        <time>2022-07-11T07:29:22Z</time>
      </trkpt>
      <trkpt lat="42.6612912677" lon="0.0984569360">
        <ele>1365.69</ele>
        <time>2022-07-11T07:29:37Z</time>
      </trkpt>
      <trkpt lat="42.6612136513" lon="0.0983997714">
        <ele>1369.05</ele>
        <time>2022-07-11T07:29:55Z</time>
      </trkpt>
      <trkpt lat="42.6611819677" lon="0.0983074028">
        <ele>1371.94</ele>
        <time>2022-07-11T07:30:11Z</time>
      </trkpt>
      <trkpt lat="42.6611721609" lon="0.0982098375">
        <ele>1374.82</ele>
        <time>2022-07-11T07:30:26Z</time>
      </trkpt>
      <trkpt lat="42.6612260565" lon="0.0980846118">
        <ele>1377.71</ele>
        <time>2022-07-11T07:30:42Z</time>
      </trkpt>
      <trkpt lat="42.6612776052" lon="0.0980217475">
        <ele>1379.63</ele>
        <time>2022-07-11T07:30:56Z</time>
      </trkpt>
      <trkpt lat="42.6612822991" lon="0.0979266968">
        <ele>1382.51</ele>
        <time>2022-07-11T07:31:11Z</time>
      </trkpt>
      <trkpt lat="42.6612408087" lon="0.0978518464">
        <ele>1384.92</ele>
        <time>2022-07-11T07:31:24Z</time>
      </trkpt>
      <trkpt lat="42.6612799522" lon="0.0977169815">
        <ele>1388.28</ele>
        <time>2022-07-11T07:31:42Z</time>
      </trkpt>
      <trkpt lat="42.6613558084" lon="0.0976201706">
        <ele>1390.68</ele>
        <time>2022-07-11T07:31:57Z</time>
      </trkpt>
      <trkpt lat="42.6613276452" lon="0.0975140557">
        <ele>1393.57</ele>
        <time>2022-07-11T07:32:12Z</time>
      </trkpt>
      <trkpt lat="42.6612905972" lon="0.0974157359">
        <ele>1396.45</ele>
        <time>2022-07-11T07:32:26Z</time>
      </trkpt>
      <trkpt lat="42.6612843946" lon="0.0973136444">
        <ele>1398.37</ele>
        <time>2022-07-11T07:32:41Z</time>
      </trkpt>
      <trkpt lat="42.6613120548" lon="0.0971935317">
        <ele>1400.78</ele>
        <time>2022-07-11T07:32:57Z</time>
      </trkpt>
      <trkpt lat="42.6613953710" lon="0.0970492791">
        <ele>1403.18</ele>
        <time>2022-07-11T07:33:11Z</time>
      </trkpt>
      <trkpt lat="42.6614539605" lon="0.0968800485">
        <ele>1403.66</ele>
        <time>2022-07-11T07:33:25Z</time>
      </trkpt>
      <trkpt lat="42.6614804473" lon="0.0967880990">
        <ele>1406.07</ele>
        <time>2022-07-11T07:33:39Z</time>
      </trkpt>
      <trkpt lat="42.6615027431" lon="0.0966591854">
        <ele>1407.03</ele>
        <time>2022-07-11T07:33:51Z</time>
      </trkpt>
      <trkpt lat="42.6614691317" lon="0.0965691637">
        <ele>1409.43</ele>
        <time>2022-07-11T07:34:06Z</time>
      </trkpt>
      <trkpt lat="42.6614676230" lon="0.0964377355">
        <ele>1411.83</ele>
        <time>2022-07-11T07:34:22Z</time>
      </trkpt>
      <trkpt lat="42.6614297368" lon="0.0962785631">
        <ele>1414.72</ele>
        <time>2022-07-11T07:34:37Z</time>
      </trkpt>
      <trkpt lat="42.6614377834" lon="0.0961474702">
        <ele>1416.64</ele>
        <time>2022-07-11T07:34:51Z</time>
      </trkpt>
      <trkpt lat="42.6614064351" lon="0.0960671715">
        <ele>1419.52</ele>
        <time>2022-07-11T07:35:05Z</time>
      </trkpt>
      <trkpt lat="42.6613650285" lon="0.0959175546">
        <ele>1421.45</ele>
        <time>2022-07-11T07:35:19Z</time>
      </trkpt>
      <trkpt lat="42.6613470912" lon="0.0957901496">
        <ele>1423.37</ele>
        <time>2022-07-11T07:35:31Z</time>
      </trkpt>
      <trkpt lat="42.6612674631" lon="0.0957085099">
        <ele>1424.81</ele>
        <time>2022-07-11T07:35:43Z</time>
      </trkpt>
      <trkpt lat="42.6612237096" lon="0.0956650078">
        <ele>1427.70</ele>
        <time>2022-07-11T07:35:58Z</time>
      </trkpt>
      <trkpt lat="42.6611563191" lon="0.0956422929">
        <ele>1430.10</ele>
        <time>2022-07-11T07:36:13Z</time>
      </trkpt>
      <trkpt lat="42.6611041836" lon="0.0956318993">
        <ele>1433.94</ele>
        <time>2022-07-11T07:36:29Z</time>
      </trkpt>
      <trkpt lat="42.6611166727" lon="0.0955927558">
        <ele>1435.87</ele>
        <time>2022-07-11T07:36:43Z</time>
      </trkpt>
      <trkpt lat="42.6610432472" lon="0.0955641735">
        <ele>1438.75</ele>
        <time>2022-07-11T07:36:59Z</time>
      </trkpt>
      <trkpt lat="42.6609792933" lon="0.0955352560">
        <ele>1442.11</ele>
        <time>2022-07-11T07:37:15Z</time>
      </trkpt>
      <trkpt lat="42.6609236374" lon="0.0954858866">
        <ele>1444.52</ele>
        <time>2022-07-11T07:37:30Z</time>
      </trkpt>
      <trkpt lat="42.6608872600" lon="0.0954133831">
        <ele>1445.96</ele>
        <time>2022-07-11T07:37:46Z</time>
      </trkpt>
      <trkpt lat="42.6608658861" lon="0.0953100342">
        <ele>1449.32</ele>
        <time>2022-07-11T07:38:01Z</time>
      </trkpt>
      <trkpt lat="42.6607592683" lon="0.0952008180">
        <ele>1452.21</ele>
        <time>2022-07-11T07:38:18Z</time>
      </trkpt>
      <trkpt lat="42.6606991701" lon="0.0951423123">
        <ele>1454.13</ele>
        <time>2022-07-11T07:38:30Z</time>
      </trkpt>
      <trkpt lat="42.6606725994" lon="0.0950284023">
        <ele>1455.57</ele>
        <time>2022-07-11T07:38:44Z</time>
      </trkpt>
      <trkpt lat="42.6606470346" lon="0.0948947109">
        <ele>1456.05</ele>
        <time>2022-07-11T07:38:56Z</time>
      </trkpt>
      <trkpt lat="42.6605923846" lon="0.0947703235">
        <ele>1458.46</ele>
        <time>2022-07-11T07:39:11Z</time>
      </trkpt>
      <trkpt lat="42.6605697535" lon="0.0946616940">
        <ele>1459.42</ele>
        <time>2022-07-11T07:39:24Z</time>
      </trkpt>
      <trkpt lat="42.6605829131" lon="0.0945489574">
        <ele>1461.82</ele>
        <time>2022-07-11T07:39:38Z</time>
      </trkpt>
      <trkpt lat="42.6605832484" lon="0.0944579300">
        <ele>1464.23</ele>
        <time>2022-07-11T07:39:52Z</time>
      </trkpt>
      <trkpt lat="42.6606855076" lon="0.0943711773">
        <ele>1462.30</ele>
        <time>2022-07-11T07:40:06Z</time>
      </trkpt>
      <trkpt lat="42.6607012656" lon="0.0943250768">
        <ele>1461.82</ele>
        <time>2022-07-11T07:40:10Z</time>
      </trkpt>
      <trkpt lat="42.6607035287" lon="0.0941775553">
        <ele>1463.26</ele>
        <time>2022-07-11T07:40:21Z</time>
      </trkpt>
      <trkpt lat="42.6606941409" lon="0.0940715242">
        <ele>1463.26</ele>
        <time>2022-07-11T07:40:31Z</time>
      </trkpt>
      <trkpt lat="42.6606492978" lon="0.0939493161">
        <ele>1463.26</ele>
        <time>2022-07-11T07:40:45Z</time>
      </trkpt>
      <trkpt lat="42.6605996769" lon="0.0938127749">
        <ele>1464.71</ele>
        <time>2022-07-11T07:40:58Z</time>
      </trkpt>
      <trkpt lat="42.6605449431" lon="0.0936858729">
        <ele>1465.19</ele>
        <time>2022-07-11T07:41:10Z</time>
      </trkpt>
      <trkpt lat="42.6604264230" lon="0.0935906544">
        <ele>1468.07</ele>
        <time>2022-07-11T07:41:24Z</time>
      </trkpt>
      <trkpt lat="42.6603831723" lon="0.0934583042">
        <ele>1468.07</ele>
        <time>2022-07-11T07:41:36Z</time>
      </trkpt>
      <trkpt lat="42.6602818351" lon="0.0933412928">
        <ele>1470.47</ele>
        <time>2022-07-11T07:41:50Z</time>
      </trkpt>
      <trkpt lat="42.6602072362" lon="0.0932219345">
        <ele>1471.92</ele>
        <time>2022-07-11T07:42:04Z</time>
      </trkpt>
      <trkpt lat="42.6601772290" lon="0.0931686256">
        <ele>1474.32</ele>
        <time>2022-07-11T07:42:18Z</time>
      </trkpt>
      <trkpt lat="42.6602296997" lon="0.0930720661">
        <ele>1473.84</ele>
        <time>2022-07-11T07:42:30Z</time>
      </trkpt>
      <trkpt lat="42.6602462959" lon="0.0929616764">
        <ele>1473.36</ele>
        <time>2022-07-11T07:42:42Z</time>
      </trkpt>
      <trkpt lat="42.6602466311" lon="0.0929498579">
        <ele>1474.32</ele>
        <time>2022-07-11T07:42:44Z</time>
      </trkpt>
      <trkpt lat="42.6602252573" lon="0.0928965490">
        <ele>1475.28</ele>
        <time>2022-07-11T07:42:55Z</time>
      </trkpt>
      <trkpt lat="42.6602700166" lon="0.0928746723">
        <ele>1476.24</ele>
        <time>2022-07-11T07:43:07Z</time>
      </trkpt>
      <trkpt lat="42.6602908038" lon="0.0928522926">
        <ele>1479.13</ele>
        <time>2022-07-11T07:43:20Z</time>
      </trkpt>
      <trkpt lat="42.6602838468" lon="0.0928170048">
        <ele>1481.53</ele>
        <time>2022-07-11T07:43:35Z</time>
      </trkpt>
      <trkpt lat="42.6602659095" lon="0.0927928649">
        <ele>1482.97</ele>
        <time>2022-07-11T07:43:47Z</time>
      </trkpt>
      <trkpt lat="42.6602493133" lon="0.0927484408">
        <ele>1485.37</ele>
        <time>2022-07-11T07:44:02Z</time>
      </trkpt>
      <trkpt lat="42.6603332162" lon="0.0927180145">
        <ele>1487.78</ele>
        <time>2022-07-11T07:44:17Z</time>
      </trkpt>
      <trkpt lat="42.6604239922" lon="0.0925559085">
        <ele>1489.22</ele>
        <time>2022-07-11T07:44:34Z</time>
      </trkpt>
      <trkpt lat="42.6603887882" lon="0.0923823193">
        <ele>1492.10</ele>
        <time>2022-07-11T07:44:52Z</time>
      </trkpt>
      <trkpt lat="42.6604286861" lon="0.0923369732">
        <ele>1492.10</ele>
        <time>2022-07-11T07:45:08Z</time>
      </trkpt>
      <trkpt lat="42.6605410036" lon="0.0922221411">
        <ele>1493.55</ele>
        <time>2022-07-11T07:45:21Z</time>
      </trkpt>
      <trkpt lat="42.6605963241" lon="0.0921052136">
        <ele>1495.95</ele>
        <time>2022-07-11T07:45:39Z</time>
      </trkpt>
      <trkpt lat="42.6605884451" lon="0.0920461211">
        <ele>1497.87</ele>
        <time>2022-07-11T07:45:54Z</time>
      </trkpt>
      <trkpt lat="42.6606031973" lon="0.0919204764">
        <ele>1500.27</ele>
        <time>2022-07-11T07:46:12Z</time>
      </trkpt>
      <trkpt lat="42.6606163569" lon="0.0918458775">
        <ele>1503.64</ele>
        <time>2022-07-11T07:46:30Z</time>
      </trkpt>
      <trkpt lat="42.6606197096" lon="0.0917579513">
        <ele>1507.00</ele>
        <time>2022-07-11T07:46:46Z</time>
      </trkpt>
      <trkpt lat="42.6606494654" lon="0.0916607212">
        <ele>1509.89</ele>
        <time>2022-07-11T07:47:05Z</time>
      </trkpt>
      <trkpt lat="42.6606353838" lon="0.0916310493">
        <ele>1513.25</ele>
        <time>2022-07-11T07:47:20Z</time>
      </trkpt>
      <trkpt lat="42.6606612839" lon="0.0915573724">
        <ele>1515.66</ele>
        <time>2022-07-11T07:47:36Z</time>
      </trkpt>
      <trkpt lat="42.6606643852" lon="0.0914637465">
        <ele>1518.54</ele>
        <time>2022-07-11T07:47:52Z</time>
      </trkpt>
      <trkpt lat="42.6606263313" lon="0.0914228428">
        <ele>1520.46</ele>
        <time>2022-07-11T07:47:59Z</time>
      </trkpt>
      <trkpt lat="42.6606802270" lon="0.0913365930">
        <ele>1524.31</ele>
        <time>2022-07-11T07:48:18Z</time>
      </trkpt>
      <trkpt lat="42.6606865134" lon="0.0913024787">
        <ele>1527.19</ele>
        <time>2022-07-11T07:48:36Z</time>
      </trkpt>
      <trkpt lat="42.6607311890" lon="0.0912368484">
        <ele>1530.08</ele>
        <time>2022-07-11T07:48:51Z</time>
      </trkpt>
      <trkpt lat="42.6608078834" lon="0.0912134629">
        <ele>1532.00</ele>
        <time>2022-07-11T07:49:08Z</time>
      </trkpt>
      <trkpt lat="42.6609145012" lon="0.0911611598">
        <ele>1535.84</ele>
        <time>2022-07-11T07:49:24Z</time>
      </trkpt>
      <trkpt lat="42.6609469391" lon="0.0911055040">
        <ele>1538.25</ele>
        <time>2022-07-11T07:49:40Z</time>
      </trkpt>
      <trkpt lat="42.6609697379" lon="0.0909978803">
        <ele>1540.17</ele>
        <time>2022-07-11T07:49:55Z</time>
      </trkpt>
      <trkpt lat="42.6609601825" lon="0.0909310766">
        <ele>1544.01</ele>
        <time>2022-07-11T07:50:11Z</time>
      </trkpt>
      <trkpt lat="42.6609593444" lon="0.0908756722">
        <ele>1545.94</ele>
        <time>2022-07-11T07:50:29Z</time>
      </trkpt>
      <trkpt lat="42.6609608531" lon="0.0908159092">
        <ele>1547.86</ele>
        <time>2022-07-11T07:50:54Z</time>
      </trkpt>
      <trkpt lat="42.6610279921" lon="0.0908158254">
        <ele>1551.22</ele>
        <time>2022-07-11T07:51:11Z</time>
      </trkpt>
      <trkpt lat="42.6610908564" lon="0.0907729100">
        <ele>1554.11</ele>
        <time>2022-07-11T07:51:27Z</time>
      </trkpt>
      <trkpt lat="42.6611446682" lon="0.0906994846">
        <ele>1556.51</ele>
        <time>2022-07-11T07:51:41Z</time>
      </trkpt>
      <trkpt lat="42.6611644495" lon="0.0906816311">
        <ele>1557.95</ele>
        <time>2022-07-11T07:51:46Z</time>
      </trkpt>
      <trkpt lat="42.6611634437" lon="0.0905981474">
        <ele>1559.40</ele>
        <time>2022-07-11T07:51:59Z</time>
      </trkpt>
      <trkpt lat="42.6611828059" lon="0.0905790366">
        <ele>1562.28</ele>
        <time>2022-07-11T07:52:09Z</time>
      </trkpt>
      <trkpt lat="42.6611931995" lon="0.0905258115">
        <ele>1564.20</ele>
        <time>2022-07-11T07:52:23Z</time>
      </trkpt>
      <trkpt lat="42.6611900982" lon="0.0904284138">
        <ele>1566.61</ele>
        <time>2022-07-11T07:52:39Z</time>
      </trkpt>
      <trkpt lat="42.6611514576" lon="0.0903885998">
        <ele>1569.01</ele>
        <time>2022-07-11T07:52:50Z</time>
      </trkpt>
      <trkpt lat="42.6611380465" lon="0.0903680641">
        <ele>1570.93</ele>
        <time>2022-07-11T07:53:07Z</time>
      </trkpt>
      <trkpt lat="42.6611587498" lon="0.0903112348">
        <ele>1573.33</ele>
        <time>2022-07-11T07:53:17Z</time>
      </trkpt>
      <trkpt lat="42.6611944567" lon="0.0902298465">
        <ele>1576.22</ele>
        <time>2022-07-11T07:53:34Z</time>
      </trkpt>
      <trkpt lat="42.6612520404" lon="0.0901124999">
        <ele>1578.14</ele>
        <time>2022-07-11T07:53:50Z</time>
      </trkpt>
      <trkpt lat="42.6612930279" lon="0.0900356378">
        <ele>1581.03</ele>
        <time>2022-07-11T07:54:06Z</time>
      </trkpt>
      <trkpt lat="42.6613103785" lon="0.0899516512">
        <ele>1584.39</ele>
        <time>2022-07-11T07:54:22Z</time>
      </trkpt>
      <trkpt lat="42.6613161620" lon="0.0899347197">
        <ele>1585.83</ele>
        <time>2022-07-11T07:54:32Z</time>
      </trkpt>
      <trkpt lat="42.6613120548" lon="0.0898930617">
        <ele>1587.27</ele>
        <time>2022-07-11T07:54:45Z</time>
      </trkpt>
      <trkpt lat="42.6613303274" lon="0.0898432732">
        <ele>1590.16</ele>
        <time>2022-07-11T07:55:01Z</time>
      </trkpt>
      <trkpt lat="42.6613335963" lon="0.0898124278">
        <ele>1592.08</ele>
        <time>2022-07-11T07:55:17Z</time>
      </trkpt>
      <trkpt lat="42.6613439061" lon="0.0898129307">
        <ele>1592.08</ele>
        <time>2022-07-11T07:55:27Z</time>
      </trkpt>
      <trkpt lat="42.6613437384" lon="0.0898027886">
        <ele>1593.04</ele>
        <time>2022-07-11T07:55:30Z</time>
      </trkpt>
      <trkpt lat="42.6613644417" lon="0.0897902157">
        <ele>1594.96</ele>
        <time>2022-07-11T07:55:35Z</time>
      </trkpt>
      <trkpt lat="42.6613961253" lon="0.0897284411">
        <ele>1596.41</ele>
        <time>2022-07-11T07:55:48Z</time>
      </trkpt>
      <trkpt lat="42.6614058483" lon="0.0896735396">
        <ele>1598.81</ele>
        <time>2022-07-11T07:56:02Z</time>
      </trkpt>
      <trkpt lat="42.6614706405" lon="0.0896271877">
        <ele>1600.73</ele>
        <time>2022-07-11T07:56:16Z</time>
      </trkpt>
      <trkpt lat="42.6615008153" lon="0.0895909779">
        <ele>1602.66</ele>
        <time>2022-07-11T07:56:29Z</time>
      </trkpt>
      <trkpt lat="42.6615466643" lon="0.0895105954">
        <ele>1604.58</ele>
        <time>2022-07-11T07:56:42Z</time>
      </trkpt>
      <trkpt lat="42.6615761686" lon="0.0894385949">
        <ele>1606.98</ele>
        <time>2022-07-11T07:56:54Z</time>
      </trkpt>
      <trkpt lat="42.6616183296" lon="0.0893838611">
        <ele>1609.86</ele>
        <time>2022-07-11T07:57:07Z</time>
      </trkpt>
      <trkpt lat="42.6616424695" lon="0.0893070828">
        <ele>1611.31</ele>
        <time>2022-07-11T07:57:21Z</time>
      </trkpt>
      <trkpt lat="42.6616807748" lon="0.0893153809">
        <ele>1611.31</ele>
        <time>2022-07-11T07:57:47Z</time>
      </trkpt>
      <trkpt lat="42.6616868936" lon="0.0892671850">
        <ele>1613.23</ele>
        <time>2022-07-11T07:58:06Z</time>
      </trkpt>
      <trkpt lat="42.6616846304" lon="0.0892017223">
        <ele>1616.11</ele>
        <time>2022-07-11T07:58:22Z</time>
      </trkpt>
      <trkpt lat="42.6616976224" lon="0.0891677756">
        <ele>1618.04</ele>
        <time>2022-07-11T07:58:34Z</time>
      </trkpt>
      <trkpt lat="42.6617471594" lon="0.0891103595">
        <ele>1621.40</ele>
        <time>2022-07-11T07:58:49Z</time>
      </trkpt>
      <trkpt lat="42.6617808547" lon="0.0890710484">
        <ele>1623.32</ele>
        <time>2022-07-11T07:59:03Z</time>
      </trkpt>
      <trkpt lat="42.6618074253" lon="0.0890068430">
        <ele>1625.25</ele>
        <time>2022-07-11T07:59:19Z</time>
      </trkpt>
      <trkpt lat="42.6618581358" lon="0.0889973715">
        <ele>1625.73</ele>
        <time>2022-07-11T07:59:41Z</time>
      </trkpt>
      <trkpt lat="42.6618679427" lon="0.0889814459">
        <ele>1627.65</ele>
        <time>2022-07-11T08:00:03Z</time>
      </trkpt>
      <trkpt lat="42.6618543640" lon="0.0889157318">
        <ele>1630.05</ele>
        <time>2022-07-11T08:00:22Z</time>
      </trkpt>
      <trkpt lat="42.6618353371" lon="0.0889003091">
        <ele>1631.98</ele>
        <time>2022-07-11T08:00:40Z</time>
      </trkpt>
      <trkpt lat="42.6618470717" lon="0.0888692960">
        <ele>1633.90</ele>
        <time>2022-07-11T08:00:57Z</time>
      </trkpt>
      <trkpt lat="42.6618249435" lon="0.0888480898">
        <ele>1635.34</ele>
        <time>2022-07-11T08:01:18Z</time>
      </trkpt>
      <trkpt lat="42.6618739776" lon="0.0888544600">
        <ele>1637.26</ele>
        <time>2022-07-11T08:01:36Z</time>
      </trkpt>
      <trkpt lat="42.6619184017" lon="0.0888179988">
        <ele>1639.19</ele>
        <time>2022-07-11T08:01:54Z</time>
      </trkpt>
      <trkpt lat="42.6619505882" lon="0.0886896718">
        <ele>1641.59</ele>
        <time>2022-07-11T08:02:10Z</time>
      </trkpt>
      <trkpt lat="42.6619795058" lon="0.0885318406">
        <ele>1643.99</ele>
        <time>2022-07-11T08:02:28Z</time>
      </trkpt>
      <trkpt lat="42.6620183140" lon="0.0884453394">
        <ele>1646.40</ele>
        <time>2022-07-11T08:02:44Z</time>
      </trkpt>
      <trkpt lat="42.6620441303" lon="0.0883433316">
        <ele>1648.32</ele>
        <time>2022-07-11T08:03:00Z</time>
      </trkpt>
      <trkpt lat="42.6620801724" lon="0.0882310141">
        <ele>1650.24</ele>
        <time>2022-07-11T08:03:14Z</time>
      </trkpt>
      <trkpt lat="42.6620952599" lon="0.0881684013">
        <ele>1653.12</ele>
        <time>2022-07-11T08:03:28Z</time>
      </trkpt>
      <trkpt lat="42.6621030550" lon="0.0881255697">
        <ele>1655.05</ele>
        <time>2022-07-11T08:03:45Z</time>
      </trkpt>
      <trkpt lat="42.6620711200" lon="0.0881361309">
        <ele>1655.53</ele>
        <time>2022-07-11T08:04:03Z</time>
      </trkpt>
      <trkpt lat="42.6620476507" lon="0.0881467760">
        <ele>1655.53</ele>
        <time>2022-07-11T08:04:18Z</time>
      </trkpt>
      <trkpt lat="42.6620479859" lon="0.0881277490">
        <ele>1656.49</ele>
        <time>2022-07-11T08:04:34Z</time>
      </trkpt>
      <trkpt lat="42.6620553620" lon="0.0880992506">
        <ele>1658.41</ele>
        <time>2022-07-11T08:04:47Z</time>
      </trkpt>
      <trkpt lat="42.6620511711" lon="0.0880728476">
        <ele>1659.85</ele>
        <time>2022-07-11T08:05:01Z</time>
      </trkpt>
      <trkpt lat="42.6620401908" lon="0.0880349614">
        <ele>1661.78</ele>
        <time>2022-07-11T08:05:19Z</time>
      </trkpt>
      <trkpt lat="42.6620349940" lon="0.0879897829">
        <ele>1663.22</ele>
        <time>2022-07-11T08:05:33Z</time>
      </trkpt>
      <trkpt lat="42.6620415319" lon="0.0879457779">
        <ele>1665.62</ele>
        <time>2022-07-11T08:05:51Z</time>
      </trkpt>
      <trkpt lat="42.6621388458" lon="0.0878675748">
        <ele>1667.54</ele>
        <time>2022-07-11T08:06:04Z</time>
      </trkpt>
      <trkpt lat="42.6622230839" lon="0.0878742803">
        <ele>1669.47</ele>
        <time>2022-07-11T08:06:19Z</time>
      </trkpt>
      <trkpt lat="42.6622095052" lon="0.0879114959">
        <ele>1671.39</ele>
        <time>2022-07-11T08:06:33Z</time>
      </trkpt>
      <trkpt lat="42.6621915679" lon="0.0878158584">
        <ele>1673.79</ele>
        <time>2022-07-11T08:06:47Z</time>
      </trkpt>
      <trkpt lat="42.6621772349" lon="0.0877793971">
        <ele>1675.72</ele>
        <time>2022-07-11T08:07:05Z</time>
      </trkpt>
      <trkpt lat="42.6621761452" lon="0.0877493899">
        <ele>1677.16</ele>
        <time>2022-07-11T08:07:24Z</time>
      </trkpt>
      <trkpt lat="42.6622773986" lon="0.0877376553">
        <ele>1679.56</ele>
        <time>2022-07-11T08:07:40Z</time>
      </trkpt>
      <trkpt lat="42.6623322163" lon="0.0877515692">
        <ele>1681.96</ele>
        <time>2022-07-11T08:07:55Z</time>
      </trkpt>
      <trkpt lat="42.6623242535" lon="0.0877059717">
        <ele>1684.85</ele>
        <time>2022-07-11T08:08:10Z</time>
      </trkpt>
      <trkpt lat="42.6623329706" lon="0.0876507349">
        <ele>1686.77</ele>
        <time>2022-07-11T08:08:26Z</time>
      </trkpt>
      <trkpt lat="42.6623699348" lon="0.0875850208">
        <ele>1688.69</ele>
        <time>2022-07-11T08:08:41Z</time>
      </trkpt>
      <trkpt lat="42.6623720303" lon="0.0875030458">
        <ele>1691.10</ele>
        <time>2022-07-11T08:08:55Z</time>
      </trkpt>
      <trkpt lat="42.6623629779" lon="0.0873877946">
        <ele>1694.94</ele>
        <time>2022-07-11T08:09:14Z</time>
      </trkpt>
      <trkpt lat="42.6623639837" lon="0.0873463042">
        <ele>1696.38</ele>
        <time>2022-07-11T08:09:30Z</time>
      </trkpt>
      <trkpt lat="42.6624110062" lon="0.0872980244">
        <ele>1697.34</ele>
        <time>2022-07-11T08:09:46Z</time>
      </trkpt>
      <trkpt lat="42.6625403389" lon="0.0873417780">
        <ele>1696.38</ele>
        <time>2022-07-11T08:10:03Z</time>
      </trkpt>
      <trkpt lat="42.6625431050" lon="0.0874123536">
        <ele>1696.86</ele>
        <time>2022-07-11T08:10:34Z</time>
      </trkpt>
      <trkpt lat="42.6625417639" lon="0.0874077436">
        <ele>1697.83</ele>
        <time>2022-07-11T08:10:37Z</time>
      </trkpt>
      <trkpt lat="42.6625471283" lon="0.0874138623">
        <ele>1698.31</ele>
        <time>2022-07-11T08:11:00Z</time>
      </trkpt>
      <trkpt lat="42.6625004411" lon="0.0873614755">
        <ele>1698.31</ele>
        <time>2022-07-11T08:11:25Z</time>
      </trkpt>
      <trkpt lat="42.6625609584" lon="0.0873536803">
        <ele>1698.79</ele>
        <time>2022-07-11T08:11:50Z</time>
      </trkpt>
      <trkpt lat="42.6626291033" lon="0.0873361621">
        <ele>1700.71</ele>
        <time>2022-07-11T08:12:06Z</time>
      </trkpt>
      <trkpt lat="42.6626602001" lon="0.0872924086">
        <ele>1702.63</ele>
        <time>2022-07-11T08:12:21Z</time>
      </trkpt>
      <trkpt lat="42.6626862679" lon="0.0872901455">
        <ele>1705.04</ele>
        <time>2022-07-11T08:12:35Z</time>
      </trkpt>
      <trkpt lat="42.6627239026" lon="0.0872320589">
        <ele>1707.44</ele>
        <time>2022-07-11T08:12:50Z</time>
      </trkpt>
      <trkpt lat="42.6627315301" lon="0.0871571247">
        <ele>1710.80</ele>
        <time>2022-07-11T08:13:06Z</time>
      </trkpt>
      <trkpt lat="42.6627373975" lon="0.0871202443">
        <ele>1712.25</ele>
        <time>2022-07-11T08:13:19Z</time>
      </trkpt>
      <trkpt lat="42.6627333742" lon="0.0870849565">
        <ele>1714.17</ele>
        <time>2022-07-11T08:13:33Z</time>
      </trkpt>
      <trkpt lat="42.6627311110" lon="0.0870794244">
        <ele>1716.57</ele>
        <time>2022-07-11T08:13:51Z</time>
      </trkpt>
      <trkpt lat="42.6627588551" lon="0.0870690309">
        <ele>1718.49</ele>
        <time>2022-07-11T08:14:11Z</time>
      </trkpt>
      <trkpt lat="42.6627594419" lon="0.0870552845">
        <ele>1720.90</ele>
        <time>2022-07-11T08:14:31Z</time>
      </trkpt>
      <trkpt lat="42.6627760381" lon="0.0870587211">
        <ele>1722.34</ele>
        <time>2022-07-11T08:14:46Z</time>
      </trkpt>
      <trkpt lat="42.6627995912" lon="0.0870619901">
        <ele>1724.74</ele>
        <time>2022-07-11T08:15:00Z</time>
      </trkpt>
      <trkpt lat="42.6628332864" lon="0.0870282110">
        <ele>1726.67</ele>
        <time>2022-07-11T08:15:15Z</time>
      </trkpt>
      <trkpt lat="42.6628570911" lon="0.0869576354">
        <ele>1729.07</ele>
        <time>2022-07-11T08:15:31Z</time>
      </trkpt>
      <trkpt lat="42.6628772914" lon="0.0869170669">
        <ele>1731.95</ele>
        <time>2022-07-11T08:15:47Z</time>
      </trkpt>
      <trkpt lat="42.6629223023" lon="0.0868881494">
        <ele>1733.88</ele>
        <time>2022-07-11T08:16:03Z</time>
      </trkpt>
      <trkpt lat="42.6629458554" lon="0.0868473295">
        <ele>1735.80</ele>
        <time>2022-07-11T08:16:19Z</time>
      </trkpt>
      <trkpt lat="42.6629792992" lon="0.0867810287">
        <ele>1738.20</ele>
        <time>2022-07-11T08:16:34Z</time>
      </trkpt>
      <trkpt lat="42.6630341168" lon="0.0867057592">
        <ele>1740.12</ele>
        <time>2022-07-11T08:16:48Z</time>
      </trkpt>
      <trkpt lat="42.6630918682" lon="0.0865553878">
        <ele>1742.53</ele>
        <time>2022-07-11T08:17:03Z</time>
      </trkpt>
      <trkpt lat="42.6631102245" lon="0.0864197686">
        <ele>1744.45</ele>
        <time>2022-07-11T08:17:18Z</time>
      </trkpt>
      <trkpt lat="42.6631149184" lon="0.0862845685">
        <ele>1746.37</ele>
        <time>2022-07-11T08:17:31Z</time>
      </trkpt>
      <trkpt lat="42.6631265692" lon="0.0861461833">
        <ele>1747.81</ele>
        <time>2022-07-11T08:17:42Z</time>
      </trkpt>
      <trkpt lat="42.6631843206" lon="0.0859725941">
        <ele>1748.29</ele>
        <time>2022-07-11T08:17:57Z</time>
      </trkpt>
      <trkpt lat="42.6631969772" lon="0.0859332830">
        <ele>1746.85</ele>
        <time>2022-07-11T08:18:01Z</time>
      </trkpt>
      <trkpt lat="42.6632305887" lon="0.0858646352">
        <ele>1746.37</ele>
        <time>2022-07-11T08:18:07Z</time>
      </trkpt>
      <trkpt lat="42.6633209456" lon="0.0857054628">
        <ele>1744.93</ele>
        <time>2022-07-11T08:18:22Z</time>
      </trkpt>
      <trkpt lat="42.6633258071" lon="0.0856961589">
        <ele>1744.93</ele>
        <time>2022-07-11T08:18:23Z</time>
      </trkpt>
      <trkpt lat="42.6633626036" lon="0.0856343843">
        <ele>1746.37</ele>
        <time>2022-07-11T08:18:31Z</time>
      </trkpt>
      <trkpt lat="42.6634154096" lon="0.0855040457">
        <ele>1747.81</ele>
        <time>2022-07-11T08:18:45Z</time>
      </trkpt>
      <trkpt lat="42.6634681318" lon="0.0853941590">
        <ele>1749.26</ele>
        <time>2022-07-11T08:18:57Z</time>
      </trkpt>
      <trkpt lat="42.6635652781" lon="0.0852907263">
        <ele>1749.26</ele>
        <time>2022-07-11T08:19:11Z</time>
      </trkpt>
      <trkpt lat="42.6636115462" lon="0.0852441229">
        <ele>1749.74</ele>
        <time>2022-07-11T08:19:23Z</time>
      </trkpt>
      <trkpt lat="42.6636842173" lon="0.0852174684">
        <ele>1750.22</ele>
        <time>2022-07-11T08:19:36Z</time>
      </trkpt>
      <trkpt lat="42.6637447346" lon="0.0851950888">
        <ele>1752.62</ele>
        <time>2022-07-11T08:19:48Z</time>
      </trkpt>
      <trkpt lat="42.6638042461" lon="0.0851603877">
        <ele>1755.02</ele>
        <time>2022-07-11T08:20:02Z</time>
      </trkpt>
      <trkpt lat="42.6638389472" lon="0.0850678515">
        <ele>1757.91</ele>
        <time>2022-07-11T08:20:16Z</time>
      </trkpt>
      <trkpt lat="42.6638865564" lon="0.0849988684">
        <ele>1759.83</ele>
        <time>2022-07-11T08:20:31Z</time>
      </trkpt>
      <trkpt lat="42.6639418770" lon="0.0849429611">
        <ele>1762.23</ele>
        <time>2022-07-11T08:20:45Z</time>
      </trkpt>
      <trkpt lat="42.6640172303" lon="0.0848492514">
        <ele>1764.16</ele>
        <time>2022-07-11T08:21:00Z</time>
      </trkpt>
      <trkpt lat="42.6640488300" lon="0.0847379398">
        <ele>1767.52</ele>
        <time>2022-07-11T08:21:16Z</time>
      </trkpt>
      <trkpt lat="42.6641082577" lon="0.0846480858">
        <ele>1770.89</ele>
        <time>2022-07-11T08:21:33Z</time>
      </trkpt>
      <trkpt lat="42.6641544420" lon="0.0845239498">
        <ele>1771.85</ele>
        <time>2022-07-11T08:21:49Z</time>
      </trkpt>
      <trkpt lat="42.6641914062" lon="0.0844252948">
        <ele>1773.29</ele>
        <time>2022-07-11T08:22:04Z</time>
      </trkpt>
      <trkpt lat="42.6641887240" lon="0.0844257139">
        <ele>1774.73</ele>
        <time>2022-07-11T08:22:21Z</time>
      </trkpt>
      <trkpt lat="42.6641969383" lon="0.0844411366">
        <ele>1771.85</ele>
        <time>2022-07-11T08:22:32Z</time>
      </trkpt>
      <trkpt lat="42.6641937532" lon="0.0844492670">
        <ele>1773.29</ele>
        <time>2022-07-11T08:23:05Z</time>
      </trkpt>
      <trkpt lat="42.6641923282" lon="0.0844453275">
        <ele>1773.29</ele>
        <time>2022-07-11T08:23:27Z</time>
      </trkpt>
      <trkpt lat="42.6641852874" lon="0.0844388735">
        <ele>1773.77</ele>
        <time>2022-07-11T08:24:02Z</time>
      </trkpt>
      <trkpt lat="42.6641659252" lon="0.0844443217">
        <ele>1774.25</ele>
        <time>2022-07-11T08:24:34Z</time>
      </trkpt>
      <trkpt lat="42.6641597226" lon="0.0844249595">
        <ele>1774.73</ele>
        <time>2022-07-11T08:25:08Z</time>
      </trkpt>
      <trkpt lat="42.6641815156" lon="0.0844454952">
        <ele>1775.21</ele>
        <time>2022-07-11T08:25:44Z</time>
      </trkpt>
      <trkpt lat="42.6641834434" lon="0.0844527874">
        <ele>1775.69</ele>
        <time>2022-07-11T08:26:15Z</time>
      </trkpt>
      <trkpt lat="42.6641908195" lon="0.0844589062">
        <ele>1776.17</ele>
        <time>2022-07-11T08:26:54Z</time>
      </trkpt>
      <trkpt lat="42.6641868800" lon="0.0844342634">
        <ele>1776.17</ele>
        <time>2022-07-11T08:27:23Z</time>
      </trkpt>
      <trkpt lat="42.6642039791" lon="0.0844509434">
        <ele>1776.65</ele>
        <time>2022-07-11T08:27:54Z</time>
      </trkpt>
      <trkpt lat="42.6641849522" lon="0.0844832975">
        <ele>1777.13</ele>
        <time>2022-07-11T08:28:25Z</time>
      </trkpt>
      <trkpt lat="42.6641951781" lon="0.0844564755">
        <ele>1777.61</ele>
        <time>2022-07-11T08:28:59Z</time>
      </trkpt>
      <trkpt lat="42.6641969383" lon="0.0844527874">
        <ele>1779.06</ele>
        <time>2022-07-11T08:29:02Z</time>
      </trkpt>
      <trkpt lat="42.6642100140" lon="0.0844257977">
        <ele>1778.10</ele>
        <time>2022-07-11T08:29:20Z</time>
      </trkpt>
      <trkpt lat="42.6642184798" lon="0.0844309945">
        <ele>1778.10</ele>
        <time>2022-07-11T08:29:41Z</time>
      </trkpt>
      <trkpt lat="42.6642496604" lon="0.0844127219">
        <ele>1778.10</ele>
        <time>2022-07-11T08:30:00Z</time>
      </trkpt>
      <trkpt lat="42.6642520074" lon="0.0843952037">
        <ele>1779.54</ele>
        <time>2022-07-11T08:30:03Z</time>
      </trkpt>
      <trkpt lat="42.6642926596" lon="0.0843378715">
        <ele>1780.98</ele>
        <time>2022-07-11T08:30:15Z</time>
      </trkpt>
      <trkpt lat="42.6643481478" lon="0.0841988996">
        <ele>1782.42</ele>
        <time>2022-07-11T08:30:30Z</time>
      </trkpt>
      <trkpt lat="42.6644258481" lon="0.0841270667">
        <ele>1783.86</ele>
        <time>2022-07-11T08:30:44Z</time>
      </trkpt>
      <trkpt lat="42.6644642372" lon="0.0840326026">
        <ele>1785.79</ele>
        <time>2022-07-11T08:30:58Z</time>
      </trkpt>
      <trkpt lat="42.6644925680" lon="0.0839636195">
        <ele>1787.71</ele>
        <time>2022-07-11T08:31:11Z</time>
      </trkpt>
      <trkpt lat="42.6645150315" lon="0.0839202851">
        <ele>1790.59</ele>
        <time>2022-07-11T08:31:28Z</time>
      </trkpt>
      <trkpt lat="42.6645744592" lon="0.0838984083">
        <ele>1791.55</ele>
        <time>2022-07-11T08:31:40Z</time>
      </trkpt>
      <trkpt lat="42.6646063942" lon="0.0838860869">
        <ele>1792.52</ele>
        <time>2022-07-11T08:31:59Z</time>
      </trkpt>
      <trkpt lat="42.6646444481" lon="0.0838366337">
        <ele>1794.44</ele>
        <time>2022-07-11T08:32:12Z</time>
      </trkpt>
      <trkpt lat="42.6646778081" lon="0.0837573409">
        <ele>1796.84</ele>
        <time>2022-07-11T08:32:26Z</time>
      </trkpt>
      <trkpt lat="42.6647015288" lon="0.0837197062">
        <ele>1798.76</ele>
        <time>2022-07-11T08:32:39Z</time>
      </trkpt>
      <trkpt lat="42.6647351403" lon="0.0836412515">
        <ele>1801.65</ele>
        <time>2022-07-11T08:32:54Z</time>
      </trkpt>
      <trkpt lat="42.6647345535" lon="0.0836374797">
        <ele>1802.61</ele>
        <time>2022-07-11T08:33:07Z</time>
      </trkpt>
      <trkpt lat="42.6647431869" lon="0.0836096518">
        <ele>1804.53</ele>
        <time>2022-07-11T08:33:24Z</time>
      </trkpt>
      <trkpt lat="42.6647553407" lon="0.0836259127">
        <ele>1806.45</ele>
        <time>2022-07-11T08:33:38Z</time>
      </trkpt>
      <trkpt lat="42.6647750381" lon="0.0836270023">
        <ele>1807.90</ele>
        <time>2022-07-11T08:33:50Z</time>
      </trkpt>
      <trkpt lat="42.6648176182" lon="0.0835595280">
        <ele>1809.34</ele>
        <time>2022-07-11T08:34:04Z</time>
      </trkpt>
      <trkpt lat="42.6648400817" lon="0.0835384056">
        <ele>1810.78</ele>
        <time>2022-07-11T08:34:19Z</time>
      </trkpt>
      <trkpt lat="42.6648746151" lon="0.0835116673">
        <ele>1812.70</ele>
        <time>2022-07-11T08:34:36Z</time>
      </trkpt>
      <trkpt lat="42.6649066340" lon="0.0834638905">
        <ele>1814.63</ele>
        <time>2022-07-11T08:34:53Z</time>
      </trkpt>
      <trkpt lat="42.6649373956" lon="0.0834306143">
        <ele>1816.55</ele>
        <time>2022-07-11T08:35:08Z</time>
      </trkpt>
      <trkpt lat="42.6649507228" lon="0.0833656546">
        <ele>1818.47</ele>
        <time>2022-07-11T08:35:23Z</time>
      </trkpt>
      <trkpt lat="42.6649734378" lon="0.0833490584">
        <ele>1819.43</ele>
        <time>2022-07-11T08:35:38Z</time>
      </trkpt>
      <trkpt lat="42.6650439296" lon="0.0833065622">
        <ele>1820.87</ele>
        <time>2022-07-11T08:35:52Z</time>
      </trkpt>
      <trkpt lat="42.6651038602" lon="0.0833068136">
        <ele>1821.35</ele>
        <time>2022-07-11T08:36:05Z</time>
      </trkpt>
      <trkpt lat="42.6651817281" lon="0.0832873676">
        <ele>1820.39</ele>
        <time>2022-07-11T08:36:17Z</time>
      </trkpt>
      <trkpt lat="42.6652049460" lon="0.0832680054">
        <ele>1821.84</ele>
        <time>2022-07-11T08:36:21Z</time>
      </trkpt>
      <trkpt lat="42.6652760245" lon="0.0832276884">
        <ele>1823.28</ele>
        <time>2022-07-11T08:36:33Z</time>
      </trkpt>
      <trkpt lat="42.6653402299" lon="0.0831530895">
        <ele>1824.24</ele>
        <time>2022-07-11T08:36:46Z</time>
      </trkpt>
      <trkpt lat="42.6653577480" lon="0.0831461325">
        <ele>1826.16</ele>
        <time>2022-07-11T08:37:02Z</time>
      </trkpt>
      <trkpt lat="42.6653710753" lon="0.0831515808">
        <ele>1827.12</ele>
        <time>2022-07-11T08:37:12Z</time>
      </trkpt>
      <trkpt lat="42.6654283237" lon="0.0832359865">
        <ele>1827.60</ele>
        <time>2022-07-11T08:37:24Z</time>
      </trkpt>
      <trkpt lat="42.6654734183" lon="0.0833358988">
        <ele>1827.60</ele>
        <time>2022-07-11T08:37:39Z</time>
      </trkpt>
      <trkpt lat="42.6654739212" lon="0.0833509862">
        <ele>1826.16</ele>
        <time>2022-07-11T08:37:42Z</time>
      </trkpt>
      <trkpt lat="42.6655383781" lon="0.0833749585">
        <ele>1824.72</ele>
        <time>2022-07-11T08:37:55Z</time>
      </trkpt>
      <trkpt lat="42.6655303314" lon="0.0833863579">
        <ele>1823.28</ele>
        <time>2022-07-11T08:38:06Z</time>
      </trkpt>
      <trkpt lat="42.6656212751" lon="0.0834478810">
        <ele>1822.80</ele>
        <time>2022-07-11T08:38:20Z</time>
      </trkpt>
      <trkpt lat="42.6657567266" lon="0.0835726876">
        <ele>1822.32</ele>
        <time>2022-07-11T08:38:38Z</time>
      </trkpt>
      <trkpt lat="42.6658388693" lon="0.0836378150">
        <ele>1822.80</ele>
        <time>2022-07-11T08:38:50Z</time>
      </trkpt>
      <trkpt lat="42.6658454072" lon="0.0836460292">
        <ele>1822.80</ele>
        <time>2022-07-11T08:38:51Z</time>
      </trkpt>
      <trkpt lat="42.6659479178" lon="0.0837192871">
        <ele>1824.24</ele>
        <time>2022-07-11T08:39:05Z</time>
      </trkpt>
      <trkpt lat="42.6660026517" lon="0.0837425049">
        <ele>1822.80</ele>
        <time>2022-07-11T08:39:12Z</time>
      </trkpt>
      <trkpt lat="42.6660539489" lon="0.0837696623">
        <ele>1822.80</ele>
        <time>2022-07-11T08:39:24Z</time>
      </trkpt>
      <trkpt lat="42.6661648415" lon="0.0838140026">
        <ele>1822.32</ele>
        <time>2022-07-11T08:39:39Z</time>
      </trkpt>
      <trkpt lat="42.6662638318" lon="0.0838573370">
        <ele>1825.68</ele>
        <time>2022-07-11T08:39:52Z</time>
      </trkpt>
      <trkpt lat="42.6663003769" lon="0.0838616118">
        <ele>1826.16</ele>
        <time>2022-07-11T08:39:56Z</time>
      </trkpt>
      <trkpt lat="42.6663887221" lon="0.0838640425">
        <ele>1828.08</ele>
        <time>2022-07-11T08:40:09Z</time>
      </trkpt>
      <trkpt lat="42.6664549392" lon="0.0838383939">
        <ele>1830.01</ele>
        <time>2022-07-11T08:40:21Z</time>
      </trkpt>
      <trkpt lat="42.6664982736" lon="0.0837974064">
        <ele>1832.89</ele>
        <time>2022-07-11T08:40:34Z</time>
      </trkpt>
      <trkpt lat="42.6665030513" lon="0.0837351289">
        <ele>1835.29</ele>
        <time>2022-07-11T08:40:49Z</time>
      </trkpt>
      <trkpt lat="42.6664570346" lon="0.0837157667">
        <ele>1838.18</ele>
        <time>2022-07-11T08:41:04Z</time>
      </trkpt>
      <trkpt lat="42.6664651651" lon="0.0836482085">
        <ele>1841.06</ele>
        <time>2022-07-11T08:41:21Z</time>
      </trkpt>
      <trkpt lat="42.6664939150" lon="0.0835744478">
        <ele>1843.95</ele>
        <time>2022-07-11T08:41:38Z</time>
      </trkpt>
      <trkpt lat="42.6665252633" lon="0.0834483840">
        <ele>1846.35</ele>
        <time>2022-07-11T08:41:52Z</time>
      </trkpt>
      <trkpt lat="42.6665385906" lon="0.0833608769">
        <ele>1849.23</ele>
        <time>2022-07-11T08:42:04Z</time>
      </trkpt>
      <trkpt lat="42.6665706933" lon="0.0832353160">
        <ele>1852.12</ele>
        <time>2022-07-11T08:42:21Z</time>
      </trkpt>
      <trkpt lat="42.6665704418" lon="0.0832167082">
        <ele>1853.08</ele>
        <time>2022-07-11T08:42:40Z</time>
      </trkpt>
      <trkpt lat="42.6664850302" lon="0.0832232460">
        <ele>1855.96</ele>
        <time>2022-07-11T08:42:55Z</time>
      </trkpt>
      <trkpt lat="42.6664018817" lon="0.0832464639">
        <ele>1858.85</ele>
        <time>2022-07-11T08:43:11Z</time>
      </trkpt>
      <trkpt lat="42.6663637441" lon="0.0832750462">
        <ele>1861.25</ele>
        <time>2022-07-11T08:43:31Z</time>
      </trkpt>
      <trkpt lat="42.6663356647" lon="0.0832559355">
        <ele>1864.61</ele>
        <time>2022-07-11T08:43:46Z</time>
      </trkpt>
      <trkpt lat="42.6662963536" lon="0.0832666643">
        <ele>1867.02</ele>
        <time>2022-07-11T08:44:00Z</time>
      </trkpt>
      <trkpt lat="42.6662452240" lon="0.0832627248">
        <ele>1868.94</ele>
        <time>2022-07-11T08:44:13Z</time>
      </trkpt>
      <trkpt lat="42.6662614010" lon="0.0832208991">
        <ele>1872.30</ele>
        <time>2022-07-11T08:44:27Z</time>
      </trkpt>
      <trkpt lat="42.6662600599" lon="0.0831667520">
        <ele>1874.23</ele>
        <time>2022-07-11T08:44:41Z</time>
      </trkpt>
      <trkpt lat="42.6662360039" lon="0.0831483118">
        <ele>1877.59</ele>
        <time>2022-07-11T08:44:55Z</time>
      </trkpt>
      <trkpt lat="42.6661589742" lon="0.0831555203">
        <ele>1879.51</ele>
        <time>2022-07-11T08:45:09Z</time>
      </trkpt>
      <trkpt lat="42.6661763247" lon="0.0831072405">
        <ele>1882.40</ele>
        <time>2022-07-11T08:45:23Z</time>
      </trkpt>
      <trkpt lat="42.6662043203" lon="0.0830419455">
        <ele>1884.32</ele>
        <time>2022-07-11T08:45:36Z</time>
      </trkpt>
      <trkpt lat="42.6662266999" lon="0.0829499122">
        <ele>1887.69</ele>
        <time>2022-07-11T08:45:52Z</time>
      </trkpt>
      <trkpt lat="42.6662143786" lon="0.0828995369">
        <ele>1890.09</ele>
        <time>2022-07-11T08:46:08Z</time>
      </trkpt>
      <trkpt lat="42.6662292983" lon="0.0828278717">
        <ele>1892.97</ele>
        <time>2022-07-11T08:46:22Z</time>
      </trkpt>
      <trkpt lat="42.6662424579" lon="0.0827947631">
        <ele>1894.42</ele>
        <time>2022-07-11T08:46:38Z</time>
      </trkpt>
      <trkpt lat="42.6662412845" lon="0.0828127004">
        <ele>1894.90</ele>
        <time>2022-07-11T08:47:09Z</time>
      </trkpt>
      <trkpt lat="42.6662572101" lon="0.0827829447">
        <ele>1894.90</ele>
        <time>2022-07-11T08:47:39Z</time>
      </trkpt>
      <trkpt lat="42.6662682742" lon="0.0826916657">
        <ele>1897.30</ele>
        <time>2022-07-11T08:47:52Z</time>
      </trkpt>
      <trkpt lat="42.6662965212" lon="0.0825603213">
        <ele>1899.22</ele>
        <time>2022-07-11T08:48:07Z</time>
      </trkpt>
      <trkpt lat="42.6663448848" lon="0.0824459922">
        <ele>1900.66</ele>
        <time>2022-07-11T08:48:21Z</time>
      </trkpt>
      <trkpt lat="42.6663365029" lon="0.0823815353">
        <ele>1903.55</ele>
        <time>2022-07-11T08:48:35Z</time>
      </trkpt>
      <trkpt lat="42.6663422864" lon="0.0823255442">
        <ele>1905.47</ele>
        <time>2022-07-11T08:48:50Z</time>
      </trkpt>
      <trkpt lat="42.6663406938" lon="0.0822600815">
        <ele>1908.35</ele>
        <time>2022-07-11T08:49:05Z</time>
      </trkpt>
      <trkpt lat="42.6663637441" lon="0.0821846444">
        <ele>1910.76</ele>
        <time>2022-07-11T08:49:21Z</time>
      </trkpt>
      <trkpt lat="42.6663761493" lon="0.0820768531">
        <ele>1913.64</ele>
        <time>2022-07-11T08:49:35Z</time>
      </trkpt>
      <trkpt lat="42.6663132012" lon="0.0820795354">
        <ele>1916.04</ele>
        <time>2022-07-11T08:49:48Z</time>
      </trkpt>
      <trkpt lat="42.6662489120" lon="0.0820892584">
        <ele>1918.45</ele>
        <time>2022-07-11T08:50:04Z</time>
      </trkpt>
      <trkpt lat="42.6661747321" lon="0.0821321737">
        <ele>1921.81</ele>
        <time>2022-07-11T08:50:20Z</time>
      </trkpt>
      <trkpt lat="42.6661845390" lon="0.0820748415">
        <ele>1923.74</ele>
        <time>2022-07-11T08:50:33Z</time>
      </trkpt>
      <trkpt lat="42.6661990397" lon="0.0819906872">
        <ele>1927.10</ele>
        <time>2022-07-11T08:50:47Z</time>
      </trkpt>
      <trkpt lat="42.6662045717" lon="0.0819148310">
        <ele>1929.50</ele>
        <time>2022-07-11T08:51:00Z</time>
      </trkpt>
      <trkpt lat="42.6662106905" lon="0.0819007494">
        <ele>1929.98</ele>
        <time>2022-07-11T08:51:02Z</time>
      </trkpt>
      <trkpt lat="42.6662147976" lon="0.0818659645">
        <ele>1930.46</ele>
        <time>2022-07-11T08:51:05Z</time>
      </trkpt>
      <trkpt lat="42.6662427094" lon="0.0817274954">
        <ele>1932.39</ele>
        <time>2022-07-11T08:51:19Z</time>
      </trkpt>
      <trkpt lat="42.6662432961" lon="0.0816187821">
        <ele>1934.79</ele>
        <time>2022-07-11T08:51:36Z</time>
      </trkpt>
      <trkpt lat="42.6661970280" lon="0.0816156808">
        <ele>1937.19</ele>
        <time>2022-07-11T08:51:50Z</time>
      </trkpt>
      <trkpt lat="42.6661483292" lon="0.0816497114">
        <ele>1939.60</ele>
        <time>2022-07-11T08:52:04Z</time>
      </trkpt>
      <trkpt lat="42.6661487482" lon="0.0816068798">
        <ele>1942.48</ele>
        <time>2022-07-11T08:52:20Z</time>
      </trkpt>
      <trkpt lat="42.6660712156" lon="0.0816585124">
        <ele>1945.85</ele>
        <time>2022-07-11T08:52:35Z</time>
      </trkpt>
      <trkpt lat="42.6660001371" lon="0.0817106478">
        <ele>1948.73</ele>
        <time>2022-07-11T08:52:51Z</time>
      </trkpt>
      <trkpt lat="42.6659544557" lon="0.0817544851">
        <ele>1950.65</ele>
        <time>2022-07-11T08:53:06Z</time>
      </trkpt>
      <trkpt lat="42.6659594849" lon="0.0817764457">
        <ele>1950.65</ele>
        <time>2022-07-11T08:53:20Z</time>
      </trkpt>
      <trkpt lat="42.6659520250" lon="0.0817756914">
        <ele>1949.21</ele>
        <time>2022-07-11T08:53:27Z</time>
      </trkpt>
      <trkpt lat="42.6659535337" lon="0.0817789603">
        <ele>1950.65</ele>
        <time>2022-07-11T08:53:29Z</time>
      </trkpt>
      <trkpt lat="42.6659570541" lon="0.0818072911">
        <ele>1951.13</ele>
        <time>2022-07-11T08:54:12Z</time>
      </trkpt>
      <trkpt lat="42.6659526117" lon="0.0818119850">
        <ele>1950.65</ele>
        <time>2022-07-11T08:54:49Z</time>
      </trkpt>
      <trkpt lat="42.6659557130" lon="0.0818098895">
        <ele>1952.09</ele>
        <time>2022-07-11T08:55:07Z</time>
      </trkpt>
      <trkpt lat="42.6659619156" lon="0.0817974843">
        <ele>1952.09</ele>
        <time>2022-07-11T08:55:12Z</time>
      </trkpt>
      <trkpt lat="42.6659605745" lon="0.0817816425">
        <ele>1953.54</ele>
        <time>2022-07-11T08:55:32Z</time>
      </trkpt>
      <trkpt lat="42.6659832057" lon="0.0817679800">
        <ele>1954.02</ele>
        <time>2022-07-11T08:55:47Z</time>
      </trkpt>
      <trkpt lat="42.6659849659" lon="0.0816938002">
        <ele>1954.50</ele>
        <time>2022-07-11T08:55:56Z</time>
      </trkpt>
      <trkpt lat="42.6659552939" lon="0.0816265773">
        <ele>1956.42</ele>
        <time>2022-07-11T08:56:08Z</time>
      </trkpt>
      <trkpt lat="42.6659595687" lon="0.0815606117">
        <ele>1957.86</ele>
        <time>2022-07-11T08:56:15Z</time>
      </trkpt>
      <trkpt lat="42.6659648493" lon="0.0814112462">
        <ele>1960.27</ele>
        <time>2022-07-11T08:56:31Z</time>
      </trkpt>
      <trkpt lat="42.6659637596" lon="0.0813509803">
        <ele>1961.23</ele>
        <time>2022-07-11T08:56:46Z</time>
      </trkpt>
      <trkpt lat="42.6660041604" lon="0.0812515710">
        <ele>1963.63</ele>
        <time>2022-07-11T08:57:01Z</time>
      </trkpt>
      <trkpt lat="42.6660092734" lon="0.0811902154">
        <ele>1966.03</ele>
        <time>2022-07-11T08:57:14Z</time>
      </trkpt>
      <trkpt lat="42.6660510153" lon="0.0810752995">
        <ele>1967.96</ele>
        <time>2022-07-11T08:57:29Z</time>
      </trkpt>
      <trkpt lat="42.6660640072" lon="0.0809792429">
        <ele>1970.36</ele>
        <time>2022-07-11T08:57:44Z</time>
      </trkpt>
      <trkpt lat="42.6660422981" lon="0.0809137803">
        <ele>1972.76</ele>
        <time>2022-07-11T08:57:58Z</time>
      </trkpt>
      <trkpt lat="42.6659622509" lon="0.0809084997">
        <ele>1975.65</ele>
        <time>2022-07-11T08:58:13Z</time>
      </trkpt>
      <trkpt lat="42.6658968721" lon="0.0809315499">
        <ele>1977.57</ele>
        <time>2022-07-11T08:58:29Z</time>
      </trkpt>
      <trkpt lat="42.6659022365" lon="0.0809056498">
        <ele>1979.97</ele>
        <time>2022-07-11T08:58:41Z</time>
      </trkpt>
      <trkpt lat="42.6659278013" lon="0.0808293745">
        <ele>1982.86</ele>
        <time>2022-07-11T08:58:56Z</time>
      </trkpt>
      <trkpt lat="42.6659420505" lon="0.0807647500">
        <ele>1984.78</ele>
        <time>2022-07-11T08:59:08Z</time>
      </trkpt>
      <trkpt lat="42.6658874843" lon="0.0807471480">
        <ele>1987.66</ele>
        <time>2022-07-11T08:59:22Z</time>
      </trkpt>
      <trkpt lat="42.6658257935" lon="0.0807312224">
        <ele>1989.59</ele>
        <time>2022-07-11T08:59:34Z</time>
      </trkpt>
      <trkpt lat="42.6658344269" lon="0.0806964375">
        <ele>1991.99</ele>
        <time>2022-07-11T08:59:48Z</time>
      </trkpt>
      <trkpt lat="42.6658635121" lon="0.0806370098">
        <ele>1993.43</ele>
        <time>2022-07-11T08:59:55Z</time>
      </trkpt>
      <trkpt lat="42.6658959500" lon="0.0805759057">
        <ele>1994.87</ele>
        <time>2022-07-11T09:00:05Z</time>
      </trkpt>
      <trkpt lat="42.6658681221" lon="0.0805375166">
        <ele>1996.80</ele>
        <time>2022-07-11T09:00:19Z</time>
      </trkpt>
      <trkpt lat="42.6658475026" lon="0.0805199146">
        <ele>1998.72</ele>
        <time>2022-07-11T09:00:34Z</time>
      </trkpt>
      <trkpt lat="42.6658814494" lon="0.0804073457">
        <ele>2002.08</ele>
        <time>2022-07-11T09:00:51Z</time>
      </trkpt>
      <trkpt lat="42.6658257097" lon="0.0804177392">
        <ele>2004.01</ele>
        <time>2022-07-11T09:01:06Z</time>
      </trkpt>
      <trkpt lat="42.6657453272" lon="0.0804053340">
        <ele>2006.89</ele>
        <time>2022-07-11T09:01:21Z</time>
      </trkpt>
      <trkpt lat="42.6656953711" lon="0.0803597365">
        <ele>2010.25</ele>
        <time>2022-07-11T09:01:35Z</time>
      </trkpt>
      <trkpt lat="42.6657234505" lon="0.0803241134">
        <ele>2012.18</ele>
        <time>2022-07-11T09:01:50Z</time>
      </trkpt>
      <trkpt lat="42.6657422259" lon="0.0802563038">
        <ele>2014.58</ele>
        <time>2022-07-11T09:02:05Z</time>
      </trkpt>
      <trkpt lat="42.6657448243" lon="0.0801662821">
        <ele>2017.46</ele>
        <time>2022-07-11T09:02:20Z</time>
      </trkpt>
      <trkpt lat="42.6656880789" lon="0.0801640190">
        <ele>2019.87</ele>
        <time>2022-07-11T09:02:34Z</time>
      </trkpt>
      <trkpt lat="42.6657100394" lon="0.0800852291">
        <ele>2022.75</ele>
        <time>2022-07-11T09:02:50Z</time>
      </trkpt>
      <trkpt lat="42.6657600794" lon="0.0800039247">
        <ele>2023.71</ele>
        <time>2022-07-11T09:03:04Z</time>
      </trkpt>
      <trkpt lat="42.6657725684" lon="0.0799633563">
        <ele>2025.64</ele>
        <time>2022-07-11T09:03:20Z</time>
      </trkpt>
      <trkpt lat="42.6657746639" lon="0.0799372885">
        <ele>2027.08</ele>
        <time>2022-07-11T09:03:35Z</time>
      </trkpt>
      <trkpt lat="42.6657120511" lon="0.0799477659">
        <ele>2029.00</ele>
        <time>2022-07-11T09:03:51Z</time>
      </trkpt>
      <trkpt lat="42.6656686328" lon="0.0799653679">
        <ele>2029.48</ele>
        <time>2022-07-11T09:04:07Z</time>
      </trkpt>
      <trkpt lat="42.6656225324" lon="0.0799872447">
        <ele>2032.36</ele>
        <time>2022-07-11T09:04:21Z</time>
      </trkpt>
      <trkpt lat="42.6655855682" lon="0.0800345186">
        <ele>2034.29</ele>
        <time>2022-07-11T09:04:38Z</time>
      </trkpt>
      <trkpt lat="42.6655740011" lon="0.0800377876">
        <ele>2035.25</ele>
        <time>2022-07-11T09:05:02Z</time>
      </trkpt>
      <trkpt lat="42.6655863225" lon="0.0800064392">
        <ele>2036.69</ele>
        <time>2022-07-11T09:05:25Z</time>
      </trkpt>
      <trkpt lat="42.6655862387" lon="0.0799364503">
        <ele>2038.61</ele>
        <time>2022-07-11T09:05:39Z</time>
      </trkpt>
      <trkpt lat="42.6655526273" lon="0.0799009949">
        <ele>2041.02</ele>
        <time>2022-07-11T09:05:51Z</time>
      </trkpt>
      <trkpt lat="42.6655657869" lon="0.0798535533">
        <ele>2042.46</ele>
        <time>2022-07-11T09:06:04Z</time>
      </trkpt>
      <trkpt lat="42.6655724924" lon="0.0798030104">
        <ele>2044.86</ele>
        <time>2022-07-11T09:06:18Z</time>
      </trkpt>
      <trkpt lat="42.6655627694" lon="0.0797370449">
        <ele>2047.75</ele>
        <time>2022-07-11T09:06:33Z</time>
      </trkpt>
      <trkpt lat="42.6655207761" lon="0.0797046907">
        <ele>2050.15</ele>
        <time>2022-07-11T09:06:46Z</time>
      </trkpt>
      <trkpt lat="42.6654854044" lon="0.0796676427">
        <ele>2053.03</ele>
        <time>2022-07-11T09:07:01Z</time>
      </trkpt>
      <trkpt lat="42.6654955465" lon="0.0796155911">
        <ele>2054.96</ele>
        <time>2022-07-11T09:07:15Z</time>
      </trkpt>
      <trkpt lat="42.6654537208" lon="0.0795816444">
        <ele>2057.36</ele>
        <time>2022-07-11T09:07:29Z</time>
      </trkpt>
      <trkpt lat="42.6654421538" lon="0.0795359630">
        <ele>2060.24</ele>
        <time>2022-07-11T09:07:46Z</time>
      </trkpt>
      <trkpt lat="42.6654932834" lon="0.0794554967">
        <ele>2063.61</ele>
        <time>2022-07-11T09:08:00Z</time>
      </trkpt>
      <trkpt lat="42.6654582471" lon="0.0794142578">
        <ele>2066.49</ele>
        <time>2022-07-11T09:08:15Z</time>
      </trkpt>
      <trkpt lat="42.6654245518" lon="0.0794002600">
        <ele>2068.41</ele>
        <time>2022-07-11T09:08:28Z</time>
      </trkpt>
      <trkpt lat="42.6653613523" lon="0.0793620385">
        <ele>2070.34</ele>
        <time>2022-07-11T09:08:42Z</time>
      </trkpt>
      <trkpt lat="42.6653317641" lon="0.0793140102">
        <ele>2073.70</ele>
        <time>2022-07-11T09:08:55Z</time>
      </trkpt>
      <trkpt lat="42.6652963925" lon="0.0792933069">
        <ele>2076.10</ele>
        <time>2022-07-11T09:09:10Z</time>
      </trkpt>
      <trkpt lat="42.6652443409" lon="0.0792654790">
        <ele>2078.99</ele>
        <time>2022-07-11T09:09:25Z</time>
      </trkpt>
      <trkpt lat="42.6652743481" lon="0.0792356394">
        <ele>2080.43</ele>
        <time>2022-07-11T09:09:38Z</time>
      </trkpt>
      <trkpt lat="42.6652994938" lon="0.0791782234">
        <ele>2083.79</ele>
        <time>2022-07-11T09:09:52Z</time>
      </trkpt>
      <trkpt lat="42.6653035171" lon="0.0791299436">
        <ele>2086.20</ele>
        <time>2022-07-11T09:10:06Z</time>
      </trkpt>
      <trkpt lat="42.6652964763" lon="0.0790757965">
        <ele>2089.56</ele>
        <time>2022-07-11T09:10:22Z</time>
      </trkpt>
      <trkpt lat="42.6652667206" lon="0.0790477172">
        <ele>2091.49</ele>
        <time>2022-07-11T09:10:37Z</time>
      </trkpt>
      <trkpt lat="42.6651725080" lon="0.0790862739">
        <ele>2092.45</ele>
        <time>2022-07-11T09:10:50Z</time>
      </trkpt>
      <trkpt lat="42.6651476137" lon="0.0790827535">
        <ele>2093.89</ele>
        <time>2022-07-11T09:11:02Z</time>
      </trkpt>
      <trkpt lat="42.6651239768" lon="0.0790606253">
        <ele>2094.37</ele>
        <time>2022-07-11T09:11:20Z</time>
      </trkpt>
      <trkpt lat="42.6650968194" lon="0.0790618826">
        <ele>2095.33</ele>
        <time>2022-07-11T09:11:28Z</time>
      </trkpt>
      <trkpt lat="42.6650870964" lon="0.0790607929">
        <ele>2095.33</ele>
        <time>2022-07-11T09:11:44Z</time>
      </trkpt>
      <trkpt lat="42.6650689077" lon="0.0790590327">
        <ele>2097.25</ele>
        <time>2022-07-11T09:11:57Z</time>
      </trkpt>
      <trkpt lat="42.6650852524" lon="0.0790608767">
        <ele>2099.18</ele>
        <time>2022-07-11T09:12:11Z</time>
      </trkpt>
      <trkpt lat="42.6650307700" lon="0.0790641457">
        <ele>2101.10</ele>
        <time>2022-07-11T09:12:24Z</time>
      </trkpt>
      <trkpt lat="42.6650158502" lon="0.0790343899">
        <ele>2102.54</ele>
        <time>2022-07-11T09:12:37Z</time>
      </trkpt>
      <trkpt lat="42.6650383975" lon="0.0789943244">
        <ele>2104.94</ele>
        <time>2022-07-11T09:12:54Z</time>
      </trkpt>
      <trkpt lat="42.6650560834" lon="0.0789912231">
        <ele>2106.39</ele>
        <time>2022-07-11T09:13:10Z</time>
      </trkpt>
      <trkpt lat="42.6650699973" lon="0.0789421890">
        <ele>2108.31</ele>
        <time>2022-07-11T09:13:26Z</time>
      </trkpt>
      <trkpt lat="42.6650601067" lon="0.0789172109">
        <ele>2109.27</ele>
        <time>2022-07-11T09:13:42Z</time>
      </trkpt>
      <trkpt lat="42.6650336199" lon="0.0788652431">
        <ele>2111.19</ele>
        <time>2022-07-11T09:13:54Z</time>
      </trkpt>
      <trkpt lat="42.6650177781" lon="0.0788401812">
        <ele>2113.60</ele>
        <time>2022-07-11T09:14:11Z</time>
      </trkpt>
      <trkpt lat="42.6649782993" lon="0.0788057316">
        <ele>2115.52</ele>
        <time>2022-07-11T09:14:27Z</time>
      </trkpt>
      <trkpt lat="42.6649204642" lon="0.0787886325">
        <ele>2116.96</ele>
        <time>2022-07-11T09:14:43Z</time>
      </trkpt>
      <trkpt lat="42.6648779679" lon="0.0788147841">
        <ele>2117.92</ele>
        <time>2022-07-11T09:14:59Z</time>
      </trkpt>
      <trkpt lat="42.6648105774" lon="0.0787307136">
        <ele>2119.84</ele>
        <time>2022-07-11T09:15:15Z</time>
      </trkpt>
      <trkpt lat="42.6647229865" lon="0.0787051488">
        <ele>2122.25</ele>
        <time>2022-07-11T09:15:31Z</time>
      </trkpt>
      <trkpt lat="42.6646441128" lon="0.0786927436">
        <ele>2125.13</ele>
        <time>2022-07-11T09:15:45Z</time>
      </trkpt>
      <trkpt lat="42.6645878702" lon="0.0786935817">
        <ele>2127.53</ele>
        <time>2022-07-11T09:15:58Z</time>
      </trkpt>
      <trkpt lat="42.6645177137" lon="0.0786805060">
        <ele>2129.94</ele>
        <time>2022-07-11T09:16:14Z</time>
      </trkpt>
      <trkpt lat="42.6644243393" lon="0.0786245987">
        <ele>2132.34</ele>
        <time>2022-07-11T09:16:30Z</time>
      </trkpt>
      <trkpt lat="42.6643655822" lon="0.0785950944">
        <ele>2134.74</ele>
        <time>2022-07-11T09:16:47Z</time>
      </trkpt>
      <trkpt lat="42.6643089205" lon="0.0785712060">
        <ele>2136.19</ele>
        <time>2022-07-11T09:16:59Z</time>
      </trkpt>
      <trkpt lat="42.6642973535" lon="0.0785810128">
        <ele>2137.63</ele>
        <time>2022-07-11T09:17:16Z</time>
      </trkpt>
      <trkpt lat="42.6642878819" lon="0.0785544422">
        <ele>2140.03</ele>
        <time>2022-07-11T09:17:29Z</time>
      </trkpt>
      <trkpt lat="42.6642516721" lon="0.0785208307">
        <ele>2141.95</ele>
        <time>2022-07-11T09:17:43Z</time>
      </trkpt>
      <trkpt lat="42.6642152108" lon="0.0784778316">
        <ele>2144.36</ele>
        <time>2022-07-11T09:17:56Z</time>
      </trkpt>
      <trkpt lat="42.6641319785" lon="0.0784251094">
        <ele>2146.76</ele>
        <time>2022-07-11T09:18:10Z</time>
      </trkpt>
      <trkpt lat="42.6640303899" lon="0.0784330722">
        <ele>2149.65</ele>
        <time>2022-07-11T09:18:24Z</time>
      </trkpt>
      <trkpt lat="42.6639260352" lon="0.0783718843">
        <ele>2151.57</ele>
        <time>2022-07-11T09:18:43Z</time>
      </trkpt>
      <trkpt lat="42.6638167351" lon="0.0783250295">
        <ele>2153.97</ele>
        <time>2022-07-11T09:18:59Z</time>
      </trkpt>
      <trkpt lat="42.6637661085" lon="0.0783329085">
        <ele>2155.89</ele>
        <time>2022-07-11T09:19:14Z</time>
      </trkpt>
      <trkpt lat="42.6637630071" lon="0.0783420447">
        <ele>2158.78</ele>
        <time>2022-07-11T09:19:32Z</time>
      </trkpt>
      <trkpt lat="42.6636857260" lon="0.0783308130">
        <ele>2160.70</ele>
        <time>2022-07-11T09:19:46Z</time>
      </trkpt>
      <trkpt lat="42.6635873225" lon="0.0782949384">
        <ele>2162.62</ele>
        <time>2022-07-11T09:20:00Z</time>
      </trkpt>
      <trkpt lat="42.6635428984" lon="0.0782944355">
        <ele>2165.03</ele>
        <time>2022-07-11T09:20:16Z</time>
      </trkpt>
      <trkpt lat="42.6635243744" lon="0.0782860536">
        <ele>2167.91</ele>
        <time>2022-07-11T09:20:32Z</time>
      </trkpt>
      <trkpt lat="42.6634895056" lon="0.0782462396">
        <ele>2170.31</ele>
        <time>2022-07-11T09:20:47Z</time>
      </trkpt>
      <trkpt lat="42.6634706464" lon="0.0782447308">
        <ele>2172.72</ele>
        <time>2022-07-11T09:21:01Z</time>
      </trkpt>
      <trkpt lat="42.6634003222" lon="0.0782448146">
        <ele>2175.12</ele>
        <time>2022-07-11T09:21:15Z</time>
      </trkpt>
      <trkpt lat="42.6633396372" lon="0.0782068446">
        <ele>2177.52</ele>
        <time>2022-07-11T09:21:29Z</time>
      </trkpt>
      <trkpt lat="42.6633121446" lon="0.0782044977">
        <ele>2179.93</ele>
        <time>2022-07-11T09:21:44Z</time>
      </trkpt>
      <trkpt lat="42.6632831432" lon="0.0781829562">
        <ele>2181.37</ele>
        <time>2022-07-11T09:22:02Z</time>
      </trkpt>
      <trkpt lat="42.6632414013" lon="0.0781877339">
        <ele>2183.77</ele>
        <time>2022-07-11T09:22:15Z</time>
      </trkpt>
      <trkpt lat="42.6631745975" lon="0.0781980436">
        <ele>2186.18</ele>
        <time>2022-07-11T09:22:29Z</time>
      </trkpt>
      <trkpt lat="42.6631109789" lon="0.0782582257">
        <ele>2188.10</ele>
        <time>2022-07-11T09:22:45Z</time>
      </trkpt>
      <trkpt lat="42.6630459353" lon="0.0782568008">
        <ele>2190.98</ele>
        <time>2022-07-11T09:23:01Z</time>
      </trkpt>
      <trkpt lat="42.6630432531" lon="0.0782484189">
        <ele>2193.39</ele>
        <time>2022-07-11T09:23:14Z</time>
      </trkpt>
      <trkpt lat="42.6629971527" lon="0.0782233570">
        <ele>2195.79</ele>
        <time>2022-07-11T09:23:29Z</time>
      </trkpt>
      <trkpt lat="42.6629718393" lon="0.0782094430">
        <ele>2198.19</ele>
        <time>2022-07-11T09:23:43Z</time>
      </trkpt>
      <trkpt lat="42.6629713364" lon="0.0782282185">
        <ele>2200.11</ele>
        <time>2022-07-11T09:23:58Z</time>
      </trkpt>
      <trkpt lat="42.6629785448" lon="0.0782340020">
        <ele>2201.08</ele>
        <time>2022-07-11T09:24:21Z</time>
      </trkpt>
      <trkpt lat="42.6629947219" lon="0.0781977922">
        <ele>2202.04</ele>
        <time>2022-07-11T09:24:51Z</time>
      </trkpt>
      <trkpt lat="42.6629764494" lon="0.0781774241">
        <ele>2203.00</ele>
        <time>2022-07-11T09:25:11Z</time>
      </trkpt>
      <trkpt lat="42.6629203744" lon="0.0781491771">
        <ele>2205.40</ele>
        <time>2022-07-11T09:25:29Z</time>
      </trkpt>
      <trkpt lat="42.6628679875" lon="0.0780844688">
        <ele>2206.36</ele>
        <time>2022-07-11T09:25:54Z</time>
      </trkpt>
      <trkpt lat="42.6628689934" lon="0.0780769251">
        <ele>2208.77</ele>
        <time>2022-07-11T09:26:10Z</time>
      </trkpt>
      <trkpt lat="42.6627881918" lon="0.0780521985">
        <ele>2211.17</ele>
        <time>2022-07-11T09:26:24Z</time>
      </trkpt>
      <trkpt lat="42.6627404150" lon="0.0780477561">
        <ele>2213.09</ele>
        <time>2022-07-11T09:26:38Z</time>
      </trkpt>
      <trkpt lat="42.6626979187" lon="0.0780325010">
        <ele>2215.01</ele>
        <time>2022-07-11T09:26:53Z</time>
      </trkpt>
      <trkpt lat="42.6627432648" lon="0.0780137256">
        <ele>2217.42</ele>
        <time>2022-07-11T09:27:07Z</time>
      </trkpt>
      <trkpt lat="42.6627775468" lon="0.0779517833">
        <ele>2219.34</ele>
        <time>2022-07-11T09:27:18Z</time>
      </trkpt>
      <trkpt lat="42.6628058776" lon="0.0779220276">
        <ele>2220.78</ele>
        <time>2022-07-11T09:27:33Z</time>
      </trkpt>
      <trkpt lat="42.6628452726" lon="0.0779035874">
        <ele>2222.71</ele>
        <time>2022-07-11T09:27:49Z</time>
      </trkpt>
      <trkpt lat="42.6628155168" lon="0.0778732449">
        <ele>2224.15</ele>
        <time>2022-07-11T09:28:01Z</time>
      </trkpt>
      <trkpt lat="42.6628462784" lon="0.0778423157">
        <ele>2225.11</ele>
        <time>2022-07-11T09:28:19Z</time>
      </trkpt>
      <trkpt lat="42.6628313586" lon="0.0778232887">
        <ele>2226.55</ele>
        <time>2022-07-11T09:28:34Z</time>
      </trkpt>
      <trkpt lat="42.6628152654" lon="0.0777889229">
        <ele>2229.43</ele>
        <time>2022-07-11T09:28:47Z</time>
      </trkpt>
      <trkpt lat="42.6627570111" lon="0.0777268969">
        <ele>2230.88</ele>
        <time>2022-07-11T09:29:03Z</time>
      </trkpt>
      <trkpt lat="42.6627629623" lon="0.0777312554">
        <ele>2232.32</ele>
        <time>2022-07-11T09:29:21Z</time>
      </trkpt>
      <trkpt lat="42.6627066359" lon="0.0777175929">
        <ele>2233.76</ele>
        <time>2022-07-11T09:29:33Z</time>
      </trkpt>
      <trkpt lat="42.6626762934" lon="0.0776820537">
        <ele>2235.68</ele>
        <time>2022-07-11T09:29:48Z</time>
      </trkpt>
      <trkpt lat="42.6625792310" lon="0.0776521303">
        <ele>2238.09</ele>
        <time>2022-07-11T09:30:03Z</time>
      </trkpt>
      <trkpt lat="42.6625633892" lon="0.0776384678">
        <ele>2238.57</ele>
        <time>2022-07-11T09:30:20Z</time>
      </trkpt>
      <trkpt lat="42.6625754591" lon="0.0776761025">
        <ele>2238.09</ele>
        <time>2022-07-11T09:30:35Z</time>
      </trkpt>
      <trkpt lat="42.6625788957" lon="0.0776945427">
        <ele>2237.61</ele>
        <time>2022-07-11T09:30:55Z</time>
      </trkpt>
      <trkpt lat="42.6626033708" lon="0.0776894297">
        <ele>2238.09</ele>
        <time>2022-07-11T09:31:24Z</time>
      </trkpt>
      <trkpt lat="42.6626034547" lon="0.0776613504">
        <ele>2238.09</ele>
        <time>2022-07-11T09:31:49Z</time>
      </trkpt>
      <trkpt lat="42.6625977550" lon="0.0776620209">
        <ele>2239.53</ele>
        <time>2022-07-11T09:32:05Z</time>
      </trkpt>
      <trkpt lat="42.6625788119" lon="0.0776659604">
        <ele>2239.53</ele>
        <time>2022-07-11T09:32:27Z</time>
      </trkpt>
      <trkpt lat="42.6625263412" lon="0.0776503701">
        <ele>2240.01</ele>
        <time>2022-07-11T09:32:42Z</time>
      </trkpt>
      <trkpt lat="42.6625661552" lon="0.0776540581">
        <ele>2240.01</ele>
        <time>2022-07-11T09:32:58Z</time>
      </trkpt>
      <trkpt lat="42.6625684183" lon="0.0776305888">
        <ele>2242.41</ele>
        <time>2022-07-11T09:33:10Z</time>
      </trkpt>
      <trkpt lat="42.6625255030" lon="0.0776036829">
        <ele>2242.89</ele>
        <time>2022-07-11T09:33:25Z</time>
      </trkpt>
      <trkpt lat="42.6624695119" lon="0.0775916968">
        <ele>2243.37</ele>
        <time>2022-07-11T09:33:40Z</time>
      </trkpt>
      <trkpt lat="42.6623901352" lon="0.0776558183">
        <ele>2244.82</ele>
        <time>2022-07-11T09:33:54Z</time>
      </trkpt>
      <trkpt lat="42.6623278577" lon="0.0777288247">
        <ele>2248.18</ele>
        <time>2022-07-11T09:34:09Z</time>
      </trkpt>
      <trkpt lat="42.6622989401" lon="0.0777517073">
        <ele>2249.62</ele>
        <time>2022-07-11T09:34:27Z</time>
      </trkpt>
      <trkpt lat="42.6622704417" lon="0.0777141564">
        <ele>2251.54</ele>
        <time>2022-07-11T09:34:41Z</time>
      </trkpt>
      <trkpt lat="42.6622613892" lon="0.0776750967">
        <ele>2252.99</ele>
        <time>2022-07-11T09:34:57Z</time>
      </trkpt>
      <trkpt lat="42.6622486487" lon="0.0776497833">
        <ele>2254.91</ele>
        <time>2022-07-11T09:35:14Z</time>
      </trkpt>
      <trkpt lat="42.6622665022" lon="0.0776137412">
        <ele>2257.79</ele>
        <time>2022-07-11T09:35:30Z</time>
      </trkpt>
      <trkpt lat="42.6621517539" lon="0.0775633659">
        <ele>2260.20</ele>
        <time>2022-07-11T09:35:45Z</time>
      </trkpt>
      <trkpt lat="42.6620580442" lon="0.0775580015">
        <ele>2262.12</ele>
        <time>2022-07-11T09:36:00Z</time>
      </trkpt>
      <trkpt lat="42.6620068308" lon="0.0775601808">
        <ele>2264.52</ele>
        <time>2022-07-11T09:36:11Z</time>
      </trkpt>
      <trkpt lat="42.6619250234" lon="0.0775862485">
        <ele>2266.45</ele>
        <time>2022-07-11T09:36:25Z</time>
      </trkpt>
      <trkpt lat="42.6619606465" lon="0.0775884278">
        <ele>2268.85</ele>
        <time>2022-07-11T09:36:40Z</time>
      </trkpt>
      <trkpt lat="42.6619987842" lon="0.0775388908">
        <ele>2271.25</ele>
        <time>2022-07-11T09:36:53Z</time>
      </trkpt>
      <trkpt lat="42.6620194037" lon="0.0774762779">
        <ele>2273.66</ele>
        <time>2022-07-11T09:37:08Z</time>
      </trkpt>
      <trkpt lat="42.6620373409" lon="0.0774424151">
        <ele>2275.58</ele>
        <time>2022-07-11T09:37:20Z</time>
      </trkpt>
      <trkpt lat="42.6620669290" lon="0.0773958117">
        <ele>2277.98</ele>
        <time>2022-07-11T09:37:35Z</time>
      </trkpt>
      <trkpt lat="42.6620785799" lon="0.0773461908">
        <ele>2280.38</ele>
        <time>2022-07-11T09:37:49Z</time>
      </trkpt>
      <trkpt lat="42.6620853692" lon="0.0773018505">
        <ele>2281.35</ele>
        <time>2022-07-11T09:38:08Z</time>
      </trkpt>
      <trkpt lat="42.6621246804" lon="0.0772381481">
        <ele>2283.75</ele>
        <time>2022-07-11T09:38:22Z</time>
      </trkpt>
      <trkpt lat="42.6621284522" lon="0.0771762896">
        <ele>2286.15</ele>
        <time>2022-07-11T09:38:38Z</time>
      </trkpt>
      <trkpt lat="42.6621496584" lon="0.0771019422">
        <ele>2289.04</ele>
        <time>2022-07-11T09:38:51Z</time>
      </trkpt>
      <trkpt lat="42.6620367542" lon="0.0770695042">
        <ele>2291.44</ele>
        <time>2022-07-11T09:39:07Z</time>
      </trkpt>
      <trkpt lat="42.6619639155" lon="0.0770848431">
        <ele>2292.40</ele>
        <time>2022-07-11T09:39:20Z</time>
      </trkpt>
      <trkpt lat="42.6619061641" lon="0.0770842563">
        <ele>2294.80</ele>
        <time>2022-07-11T09:39:33Z</time>
      </trkpt>
      <trkpt lat="42.6618945971" lon="0.0770804007">
        <ele>2296.73</ele>
        <time>2022-07-11T09:39:46Z</time>
      </trkpt>
      <trkpt lat="42.6619655080" lon="0.0770243257">
        <ele>2299.61</ele>
        <time>2022-07-11T09:40:01Z</time>
      </trkpt>
      <trkpt lat="42.6620033942" lon="0.0769514032">
        <ele>2301.53</ele>
        <time>2022-07-11T09:40:14Z</time>
      </trkpt>
      <trkpt lat="42.6619955990" lon="0.0768799894">
        <ele>2303.46</ele>
        <time>2022-07-11T09:40:28Z</time>
      </trkpt>
      <trkpt lat="42.6619342435" lon="0.0768460426">
        <ele>2305.86</ele>
        <time>2022-07-11T09:40:44Z</time>
      </trkpt>
      <trkpt lat="42.6619422063" lon="0.0768700987">
        <ele>2306.34</ele>
        <time>2022-07-11T09:41:10Z</time>
      </trkpt>
      <trkpt lat="42.6619609818" lon="0.0768477190">
        <ele>2307.30</ele>
        <time>2022-07-11T09:41:26Z</time>
      </trkpt>
      <trkpt lat="42.6619860437" lon="0.0767872855">
        <ele>2310.67</ele>
        <time>2022-07-11T09:41:42Z</time>
      </trkpt>
      <trkpt lat="42.6619304717" lon="0.0767473038">
        <ele>2312.59</ele>
        <time>2022-07-11T09:41:56Z</time>
      </trkpt>
      <trkpt lat="42.6618822757" lon="0.0767044723">
        <ele>2315.47</ele>
        <time>2022-07-11T09:42:13Z</time>
      </trkpt>
      <trkpt lat="42.6618554536" lon="0.0766856968">
        <ele>2317.88</ele>
        <time>2022-07-11T09:42:30Z</time>
      </trkpt>
      <trkpt lat="42.6618303917" lon="0.0766665023">
        <ele>2320.28</ele>
        <time>2022-07-11T09:42:46Z</time>
      </trkpt>
      <trkpt lat="42.6618836168" lon="0.0766453799">
        <ele>2322.68</ele>
        <time>2022-07-11T09:43:01Z</time>
      </trkpt>
      <trkpt lat="42.6618654281" lon="0.0766352378">
        <ele>2323.16</ele>
        <time>2022-07-11T09:43:15Z</time>
      </trkpt>
      <trkpt lat="42.6618493348" lon="0.0766286999">
        <ele>2325.09</ele>
        <time>2022-07-11T09:43:34Z</time>
      </trkpt>
      <trkpt lat="42.6618592255" lon="0.0766186416">
        <ele>2326.53</ele>
        <time>2022-07-11T09:43:46Z</time>
      </trkpt>
      <trkpt lat="42.6618194114" lon="0.0765903946">
        <ele>2329.41</ele>
        <time>2022-07-11T09:44:00Z</time>
      </trkpt>
      <trkpt lat="42.6618322358" lon="0.0765262730">
        <ele>2332.30</ele>
        <time>2022-07-11T09:44:13Z</time>
      </trkpt>
      <trkpt lat="42.6618277095" lon="0.0764467288">
        <ele>2333.74</ele>
        <time>2022-07-11T09:44:26Z</time>
      </trkpt>
      <trkpt lat="42.6618241053" lon="0.0763781648">
        <ele>2336.14</ele>
        <time>2022-07-11T09:44:41Z</time>
      </trkpt>
      <trkpt lat="42.6617742330" lon="0.0763448887">
        <ele>2339.02</ele>
        <time>2022-07-11T09:44:57Z</time>
      </trkpt>
      <trkpt lat="42.6616936829" lon="0.0763774943">
        <ele>2341.43</ele>
        <time>2022-07-11T09:45:11Z</time>
      </trkpt>
      <trkpt lat="42.6616473310" lon="0.0764244329">
        <ele>2343.83</ele>
        <time>2022-07-11T09:45:24Z</time>
      </trkpt>
      <trkpt lat="42.6616369374" lon="0.0764075015">
        <ele>2346.23</ele>
        <time>2022-07-11T09:45:40Z</time>
      </trkpt>
      <trkpt lat="42.6616213471" lon="0.0763968565">
        <ele>2346.72</ele>
        <time>2022-07-11T09:45:58Z</time>
      </trkpt>
      <trkpt lat="42.6616050024" lon="0.0764219183">
        <ele>2348.64</ele>
        <time>2022-07-11T09:46:12Z</time>
      </trkpt>
      <trkpt lat="42.6615423895" lon="0.0765257701">
        <ele>2348.64</ele>
        <time>2022-07-11T09:46:29Z</time>
      </trkpt>
      <trkpt lat="42.6615365222" lon="0.0765779056">
        <ele>2347.20</ele>
        <time>2022-07-11T09:46:33Z</time>
      </trkpt>
      <trkpt lat="42.6615143102" lon="0.0766225811">
        <ele>2347.20</ele>
        <time>2022-07-11T09:46:37Z</time>
      </trkpt>
      <trkpt lat="42.6614507753" lon="0.0767970923">
        <ele>2346.72</ele>
        <time>2022-07-11T09:46:52Z</time>
      </trkpt>
      <trkpt lat="42.6614081115" lon="0.0769082364">
        <ele>2344.31</ele>
        <time>2022-07-11T09:47:06Z</time>
      </trkpt>
      <trkpt lat="42.6613889169" lon="0.0770331267">
        <ele>2341.91</ele>
        <time>2022-07-11T09:47:21Z</time>
      </trkpt>
      <trkpt lat="42.6613844745" lon="0.0770413410">
        <ele>2341.91</ele>
        <time>2022-07-11T09:47:23Z</time>
      </trkpt>
      <trkpt lat="42.6612752583" lon="0.0771844201">
        <ele>2341.43</ele>
        <time>2022-07-11T09:47:39Z</time>
      </trkpt>
      <trkpt lat="42.6612231229" lon="0.0772886071">
        <ele>2340.95</ele>
        <time>2022-07-11T09:47:49Z</time>
      </trkpt>
      <trkpt lat="42.6611598395" lon="0.0773156807">
        <ele>2342.87</ele>
        <time>2022-07-11T09:48:03Z</time>
      </trkpt>
      <trkpt lat="42.6611741725" lon="0.0772773754">
        <ele>2344.79</ele>
        <time>2022-07-11T09:48:18Z</time>
      </trkpt>
      <trkpt lat="42.6612206921" lon="0.0772228092">
        <ele>2347.68</ele>
        <time>2022-07-11T09:48:33Z</time>
      </trkpt>
      <trkpt lat="42.6612277329" lon="0.0771819055">
        <ele>2350.08</ele>
        <time>2022-07-11T09:48:47Z</time>
      </trkpt>
      <trkpt lat="42.6612410601" lon="0.0771676563">
        <ele>2350.56</ele>
        <time>2022-07-11T09:49:02Z</time>
      </trkpt>
      <trkpt lat="42.6612587459" lon="0.0770850107">
        <ele>2352.00</ele>
        <time>2022-07-11T09:49:19Z</time>
      </trkpt>
      <trkpt lat="42.6612481847" lon="0.0770438556">
        <ele>2353.93</ele>
        <time>2022-07-11T09:49:31Z</time>
      </trkpt>
      <trkpt lat="42.6612288225" lon="0.0770225655">
        <ele>2355.37</ele>
        <time>2022-07-11T09:49:45Z</time>
      </trkpt>
      <trkpt lat="42.6612365339" lon="0.0769791473">
        <ele>2357.77</ele>
        <time>2022-07-11T09:50:00Z</time>
      </trkpt>
      <trkpt lat="42.6611704007" lon="0.0769851822">
        <ele>2358.73</ele>
        <time>2022-07-11T09:50:13Z</time>
      </trkpt>
      <trkpt lat="42.6611445006" lon="0.0769716874">
        <ele>2361.62</ele>
        <time>2022-07-11T09:50:27Z</time>
      </trkpt>
      <trkpt lat="42.6611001603" lon="0.0769845955">
        <ele>2364.02</ele>
        <time>2022-07-11T09:50:42Z</time>
      </trkpt>
      <trkpt lat="42.6610133238" lon="0.0769828353">
        <ele>2365.94</ele>
        <time>2022-07-11T09:50:58Z</time>
      </trkpt>
      <trkpt lat="42.6609662175" lon="0.0769705977">
        <ele>2368.83</ele>
        <time>2022-07-11T09:51:12Z</time>
      </trkpt>
      <trkpt lat="42.6609098073" lon="0.0769817457">
        <ele>2371.71</ele>
        <time>2022-07-11T09:51:26Z</time>
      </trkpt>
      <trkpt lat="42.6608419139" lon="0.0770079810">
        <ele>2373.63</ele>
        <time>2022-07-11T09:51:41Z</time>
      </trkpt>
      <trkpt lat="42.6607591007" lon="0.0770349707">
        <ele>2376.52</ele>
        <time>2022-07-11T09:51:57Z</time>
      </trkpt>
      <trkpt lat="42.6607155148" lon="0.0770522375">
        <ele>2378.92</ele>
        <time>2022-07-11T09:52:12Z</time>
      </trkpt>
      <trkpt lat="42.6607710868" lon="0.0770230684">
        <ele>2380.84</ele>
        <time>2022-07-11T09:52:26Z</time>
      </trkpt>
      <trkpt lat="42.6607598551" lon="0.0769855175">
        <ele>2382.28</ele>
        <time>2022-07-11T09:52:41Z</time>
      </trkpt>
      <trkpt lat="42.6606531534" lon="0.0769971684">
        <ele>2385.17</ele>
        <time>2022-07-11T09:52:55Z</time>
      </trkpt>
      <trkpt lat="42.6606233139" lon="0.0769942347">
        <ele>2386.61</ele>
        <time>2022-07-11T09:53:09Z</time>
      </trkpt>
      <trkpt lat="42.6606448554" lon="0.0769283529">
        <ele>2389.49</ele>
        <time>2022-07-11T09:53:24Z</time>
      </trkpt>
      <trkpt lat="42.6605772134" lon="0.0769218151">
        <ele>2391.42</ele>
        <time>2022-07-11T09:53:38Z</time>
      </trkpt>
      <trkpt lat="42.6605169475" lon="0.0769401714">
        <ele>2392.86</ele>
        <time>2022-07-11T09:53:55Z</time>
      </trkpt>
      <trkpt lat="42.6604851801" lon="0.0769124273">
        <ele>2395.74</ele>
        <time>2022-07-11T09:54:12Z</time>
      </trkpt>
      <trkpt lat="42.6605327055" lon="0.0768347271">
        <ele>2398.15</ele>
        <time>2022-07-11T09:54:28Z</time>
      </trkpt>
      <trkpt lat="42.6604286022" lon="0.0768571906">
        <ele>2401.03</ele>
        <time>2022-07-11T09:54:39Z</time>
      </trkpt>
      <trkpt lat="42.6603688393" lon="0.0768572744">
        <ele>2403.43</ele>
        <time>2022-07-11T09:54:47Z</time>
      </trkpt>
      <trkpt lat="42.6603177097" lon="0.0768714398">
        <ele>2403.43</ele>
        <time>2022-07-11T09:55:00Z</time>
      </trkpt>
      <trkpt lat="42.6603687555" lon="0.0767942425">
        <ele>2405.84</ele>
        <time>2022-07-11T09:55:13Z</time>
      </trkpt>
      <trkpt lat="42.6603369880" lon="0.0767716113">
        <ele>2406.80</ele>
        <time>2022-07-11T09:55:30Z</time>
      </trkpt>
      <trkpt lat="42.6603308693" lon="0.0767579488">
        <ele>2407.28</ele>
        <time>2022-07-11T09:55:56Z</time>
      </trkpt>
      <trkpt lat="42.6602618024" lon="0.0767743774">
        <ele>2409.68</ele>
        <time>2022-07-11T09:56:12Z</time>
      </trkpt>
      <trkpt lat="42.6603049692" lon="0.0767773110">
        <ele>2411.12</ele>
        <time>2022-07-11T09:56:30Z</time>
      </trkpt>
      <trkpt lat="42.6603169553" lon="0.0767591223">
        <ele>2411.60</ele>
        <time>2022-07-11T09:56:32Z</time>
      </trkpt>
      <trkpt lat="42.6603850164" lon="0.0766473915">
        <ele>2413.53</ele>
        <time>2022-07-11T09:56:45Z</time>
      </trkpt>
      <trkpt lat="42.6604244113" lon="0.0765548553">
        <ele>2416.41</ele>
        <time>2022-07-11T09:56:58Z</time>
      </trkpt>
      <trkpt lat="42.6604801510" lon="0.0764747243">
        <ele>2418.33</ele>
        <time>2022-07-11T09:57:13Z</time>
      </trkpt>
      <trkpt lat="42.6605409198" lon="0.0763803441">
        <ele>2420.74</ele>
        <time>2022-07-11T09:57:28Z</time>
      </trkpt>
      <trkpt lat="42.6604352240" lon="0.0763595570">
        <ele>2423.62</ele>
        <time>2022-07-11T09:57:43Z</time>
      </trkpt>
      <trkpt lat="42.6603407599" lon="0.0763333216">
        <ele>2426.02</ele>
        <time>2022-07-11T09:57:59Z</time>
      </trkpt>
      <trkpt lat="42.6602716092" lon="0.0763238501">
        <ele>2428.43</ele>
        <time>2022-07-11T09:58:16Z</time>
      </trkpt>
      <trkpt lat="42.6602166239" lon="0.0763018057">
        <ele>2430.35</ele>
        <time>2022-07-11T09:58:29Z</time>
      </trkpt>
      <trkpt lat="42.6601918135" lon="0.0762764923">
        <ele>2433.23</ele>
        <time>2022-07-11T09:58:44Z</time>
      </trkpt>
      <trkpt lat="42.6602378301" lon="0.0762524363">
        <ele>2433.23</ele>
        <time>2022-07-11T09:58:50Z</time>
      </trkpt>
      <trkpt lat="42.6603946555" lon="0.0761555415">
        <ele>2433.71</ele>
        <time>2022-07-11T09:59:08Z</time>
      </trkpt>
      <trkpt lat="42.6604782231" lon="0.0760658551">
        <ele>2435.64</ele>
        <time>2022-07-11T09:59:21Z</time>
      </trkpt>
      <trkpt lat="42.6604915503" lon="0.0760572217">
        <ele>2436.60</ele>
        <time>2022-07-11T09:59:35Z</time>
      </trkpt>
      <trkpt lat="42.6604592800" lon="0.0760373566">
        <ele>2436.60</ele>
        <time>2022-07-11T09:59:53Z</time>
      </trkpt>
      <trkpt lat="42.6604661532" lon="0.0760455709">
        <ele>2435.16</ele>
        <time>2022-07-11T09:59:59Z</time>
      </trkpt>
      <trkpt lat="42.6604976691" lon="0.0760956109">
        <ele>2435.16</ele>
        <time>2022-07-11T10:00:27Z</time>
      </trkpt>
      <trkpt lat="42.6604831684" lon="0.0760948565">
        <ele>2435.64</ele>
        <time>2022-07-11T10:00:53Z</time>
      </trkpt>
      <trkpt lat="42.6604788937" lon="0.0760883186">
        <ele>2438.52</ele>
        <time>2022-07-11T10:01:16Z</time>
      </trkpt>
      <trkpt lat="42.6604789775" lon="0.0760833733">
        <ele>2437.08</ele>
        <time>2022-07-11T10:01:17Z</time>
      </trkpt>
      <trkpt lat="42.6604762115" lon="0.0760683697">
        <ele>2436.60</ele>
        <time>2022-07-11T10:01:20Z</time>
      </trkpt>
      <trkpt lat="42.6604640577" lon="0.0760576408">
        <ele>2436.12</ele>
        <time>2022-07-11T10:29:58Z</time>
      </trkpt>
      <trkpt lat="42.6604640577" lon="0.0760537852">
        <ele>2436.60</ele>
        <time>2022-07-11T10:29:59Z</time>
      </trkpt>
      <trkpt lat="42.6604994293" lon="0.0760242809">
        <ele>2439.96</ele>
        <time>2022-07-11T10:30:05Z</time>
      </trkpt>
      <trkpt lat="42.6605562586" lon="0.0759790186">
        <ele>2442.85</ele>
        <time>2022-07-11T10:30:13Z</time>
      </trkpt>
      <trkpt lat="42.6605757885" lon="0.0759646855">
        <ele>2444.77</ele>
        <time>2022-07-11T10:30:15Z</time>
      </trkpt>
      <trkpt lat="42.6606405806" lon="0.0758942775">
        <ele>2448.13</ele>
        <time>2022-07-11T10:30:25Z</time>
      </trkpt>
      <trkpt lat="42.6606692467" lon="0.0758557208">
        <ele>2450.06</ele>
        <time>2022-07-11T10:30:34Z</time>
      </trkpt>
      <trkpt lat="42.6607397385" lon="0.0757939462">
        <ele>2453.42</ele>
        <time>2022-07-11T10:30:46Z</time>
      </trkpt>
      <trkpt lat="42.6607525628" lon="0.0757762603">
        <ele>2453.90</ele>
        <time>2022-07-11T10:30:48Z</time>
      </trkpt>
      <trkpt lat="42.6608758606" lon="0.0756835565">
        <ele>2456.79</ele>
        <time>2022-07-11T10:31:04Z</time>
      </trkpt>
      <trkpt lat="42.6610088814" lon="0.0755116437">
        <ele>2458.23</ele>
        <time>2022-07-11T10:31:22Z</time>
      </trkpt>
      <trkpt lat="42.6611440815" lon="0.0753778685">
        <ele>2459.19</ele>
        <time>2022-07-11T10:31:38Z</time>
      </trkpt>
      <trkpt lat="42.6612251345" lon="0.0753052812">
        <ele>2461.59</ele>
        <time>2022-07-11T10:31:52Z</time>
      </trkpt>
      <trkpt lat="42.6613080315" lon="0.0752119068">
        <ele>2463.04</ele>
        <time>2022-07-11T10:32:06Z</time>
      </trkpt>
      <trkpt lat="42.6613968797" lon="0.0750368927">
        <ele>2464.00</ele>
        <time>2022-07-11T10:32:20Z</time>
      </trkpt>
      <trkpt lat="42.6614898350" lon="0.0748809893">
        <ele>2464.00</ele>
        <time>2022-07-11T10:32:35Z</time>
      </trkpt>
      <trkpt lat="42.6615491789" lon="0.0748147722">
        <ele>2466.88</ele>
        <time>2022-07-11T10:32:47Z</time>
      </trkpt>
      <trkpt lat="42.6616393682" lon="0.0747434422">
        <ele>2468.80</ele>
        <time>2022-07-11T10:33:02Z</time>
      </trkpt>
      <trkpt lat="42.6617317367" lon="0.0746815000">
        <ele>2471.21</ele>
        <time>2022-07-11T10:33:15Z</time>
      </trkpt>
      <trkpt lat="42.6617802680" lon="0.0746328011">
        <ele>2473.13</ele>
        <time>2022-07-11T10:33:23Z</time>
      </trkpt>
      <trkpt lat="42.6617993787" lon="0.0746192224">
        <ele>2473.13</ele>
        <time>2022-07-11T10:33:25Z</time>
      </trkpt>
      <trkpt lat="42.6619122829" lon="0.0745043904">
        <ele>2475.53</ele>
        <time>2022-07-11T10:33:41Z</time>
      </trkpt>
      <trkpt lat="42.6619909052" lon="0.0744241755">
        <ele>2477.94</ele>
        <time>2022-07-11T10:33:54Z</time>
      </trkpt>
      <trkpt lat="42.6620529313" lon="0.0743360817">
        <ele>2479.38</ele>
        <time>2022-07-11T10:34:06Z</time>
      </trkpt>
      <trkpt lat="42.6621214952" lon="0.0742426235">
        <ele>2480.34</ele>
        <time>2022-07-11T10:34:18Z</time>
      </trkpt>
      <trkpt lat="42.6621413603" lon="0.0741881412">
        <ele>2478.90</ele>
        <time>2022-07-11T10:34:24Z</time>
      </trkpt>
      <trkpt lat="42.6621643268" lon="0.0740960240">
        <ele>2477.45</ele>
        <time>2022-07-11T10:34:37Z</time>
      </trkpt>
      <trkpt lat="42.6621748880" lon="0.0740627479">
        <ele>2476.01</ele>
        <time>2022-07-11T10:34:40Z</time>
      </trkpt>
      <trkpt lat="42.6622055657" lon="0.0739964470">
        <ele>2476.49</ele>
        <time>2022-07-11T10:34:47Z</time>
      </trkpt>
      <trkpt lat="42.6622558571" lon="0.0739412941">
        <ele>2475.53</ele>
        <time>2022-07-11T10:34:55Z</time>
      </trkpt>
      <trkpt lat="42.6623359881" lon="0.0738377776">
        <ele>2475.05</ele>
        <time>2022-07-11T10:35:09Z</time>
      </trkpt>
      <trkpt lat="42.6623816695" lon="0.0737322494">
        <ele>2472.17</ele>
        <time>2022-07-11T10:35:21Z</time>
      </trkpt>
      <trkpt lat="42.6624268480" lon="0.0736625120">
        <ele>2471.69</ele>
        <time>2022-07-11T10:35:34Z</time>
      </trkpt>
      <trkpt lat="42.6625151932" lon="0.0735784415">
        <ele>2470.73</ele>
        <time>2022-07-11T10:35:46Z</time>
      </trkpt>
      <trkpt lat="42.6626300253" lon="0.0735072792">
        <ele>2470.73</ele>
        <time>2022-07-11T10:36:01Z</time>
      </trkpt>
      <trkpt lat="42.6627282612" lon="0.0734303333">
        <ele>2470.73</ele>
        <time>2022-07-11T10:36:14Z</time>
      </trkpt>
      <trkpt lat="42.6627534069" lon="0.0733946264">
        <ele>2472.65</ele>
        <time>2022-07-11T10:36:20Z</time>
      </trkpt>
      <trkpt lat="42.6628001779" lon="0.0733465143">
        <ele>2473.13</ele>
        <time>2022-07-11T10:36:34Z</time>
      </trkpt>
      <trkpt lat="42.6628267486" lon="0.0733253919">
        <ele>2473.13</ele>
        <time>2022-07-11T10:36:38Z</time>
      </trkpt>
      <trkpt lat="42.6629687380" lon="0.0731566641">
        <ele>2473.13</ele>
        <time>2022-07-11T10:36:54Z</time>
      </trkpt>
      <trkpt lat="42.6629974041" lon="0.0730821490">
        <ele>2471.69</ele>
        <time>2022-07-11T10:37:01Z</time>
      </trkpt>
      <trkpt lat="42.6629929617" lon="0.0730354618">
        <ele>2470.24</ele>
        <time>2022-07-11T10:37:07Z</time>
      </trkpt>
      <trkpt lat="42.6630034391" lon="0.0730126631">
        <ele>2469.28</ele>
        <time>2022-07-11T10:37:09Z</time>
      </trkpt>
      <trkpt lat="42.6630922873" lon="0.0727755390">
        <ele>2467.36</ele>
        <time>2022-07-11T10:37:25Z</time>
      </trkpt>
      <trkpt lat="42.6631073747" lon="0.0726488046">
        <ele>2464.00</ele>
        <time>2022-07-11T10:37:38Z</time>
      </trkpt>
      <trkpt lat="42.6631423272" lon="0.0725245010">
        <ele>2460.63</ele>
        <time>2022-07-11T10:37:51Z</time>
      </trkpt>
      <trkpt lat="42.6631968934" lon="0.0723818410">
        <ele>2461.11</ele>
        <time>2022-07-11T10:38:03Z</time>
      </trkpt>
      <trkpt lat="42.6632242184" lon="0.0722239260">
        <ele>2457.75</ele>
        <time>2022-07-11T10:38:15Z</time>
      </trkpt>
      <trkpt lat="42.6632421557" lon="0.0721290428">
        <ele>2456.79</ele>
        <time>2022-07-11T10:38:22Z</time>
      </trkpt>
      <trkpt lat="42.6632651221" lon="0.0720767397">
        <ele>2455.82</ele>
        <time>2022-07-11T10:38:26Z</time>
      </trkpt>
      <trkpt lat="42.6632704027" lon="0.0719705410">
        <ele>2453.42</ele>
        <time>2022-07-11T10:38:35Z</time>
      </trkpt>
      <trkpt lat="42.6633500308" lon="0.0717290584">
        <ele>2451.50</ele>
        <time>2022-07-11T10:38:51Z</time>
      </trkpt>
      <trkpt lat="42.6634201035" lon="0.0715220254">
        <ele>2451.02</ele>
        <time>2022-07-11T10:39:06Z</time>
      </trkpt>
      <trkpt lat="42.6634680480" lon="0.0713258889">
        <ele>2452.46</ele>
        <time>2022-07-11T10:39:20Z</time>
      </trkpt>
      <trkpt lat="42.6635347679" lon="0.0711052772">
        <ele>2452.94</ele>
        <time>2022-07-11T10:39:35Z</time>
      </trkpt>
      <trkpt lat="42.6635373663" lon="0.0710916985">
        <ele>2452.94</ele>
        <time>2022-07-11T10:39:36Z</time>
      </trkpt>
      <trkpt lat="42.6635739114" lon="0.0708667282">
        <ele>2453.90</ele>
        <time>2022-07-11T10:39:51Z</time>
      </trkpt>
      <trkpt lat="42.6635983028" lon="0.0706472900">
        <ele>2455.34</ele>
        <time>2022-07-11T10:40:06Z</time>
      </trkpt>
      <trkpt lat="42.6636581495" lon="0.0704923086">
        <ele>2457.27</ele>
        <time>2022-07-11T10:40:20Z</time>
      </trkpt>
      <trkpt lat="42.6636815351" lon="0.0703804940">
        <ele>2458.71</ele>
        <time>2022-07-11T10:40:31Z</time>
      </trkpt>
      <trkpt lat="42.6637288090" lon="0.0702166278">
        <ele>2461.11</ele>
        <time>2022-07-11T10:40:47Z</time>
      </trkpt>
      <trkpt lat="42.6638007257" lon="0.0701044779">
        <ele>2464.00</ele>
        <time>2022-07-11T10:41:02Z</time>
      </trkpt>
      <trkpt lat="42.6638905797" lon="0.0699714571">
        <ele>2465.92</ele>
        <time>2022-07-11T10:41:17Z</time>
      </trkpt>
      <trkpt lat="42.6639406197" lon="0.0698453095">
        <ele>2466.88</ele>
        <time>2022-07-11T10:41:27Z</time>
      </trkpt>
      <trkpt lat="42.6640261151" lon="0.0696369354">
        <ele>2468.32</ele>
        <time>2022-07-11T10:41:43Z</time>
      </trkpt>
      <trkpt lat="42.6640710421" lon="0.0695653539">
        <ele>2468.32</ele>
        <time>2022-07-11T10:41:50Z</time>
      </trkpt>
      <trkpt lat="42.6640812680" lon="0.0695217680">
        <ele>2468.32</ele>
        <time>2022-07-11T10:41:53Z</time>
      </trkpt>
      <trkpt lat="42.6641085930" lon="0.0694141444">
        <ele>2469.28</ele>
        <time>2022-07-11T10:42:03Z</time>
      </trkpt>
      <trkpt lat="42.6641254406" lon="0.0693863165">
        <ele>2470.24</ele>
        <time>2022-07-11T10:42:06Z</time>
      </trkpt>
      <trkpt lat="42.6641611475" lon="0.0692631863">
        <ele>2471.21</ele>
        <time>2022-07-11T10:42:18Z</time>
      </trkpt>
      <trkpt lat="42.6642074157" lon="0.0690743420">
        <ele>2472.65</ele>
        <time>2022-07-11T10:42:32Z</time>
      </trkpt>
      <trkpt lat="42.6642570365" lon="0.0689107273">
        <ele>2473.61</ele>
        <time>2022-07-11T10:42:45Z</time>
      </trkpt>
      <trkpt lat="42.6642668433" lon="0.0688683148">
        <ele>2474.09</ele>
        <time>2022-07-11T10:42:48Z</time>
      </trkpt>
      <trkpt lat="42.6642825175" lon="0.0687921233">
        <ele>2474.57</ele>
        <time>2022-07-11T10:42:53Z</time>
      </trkpt>
      <trkpt lat="42.6643315516" lon="0.0686391536">
        <ele>2475.05</ele>
        <time>2022-07-11T10:43:05Z</time>
      </trkpt>
      <trkpt lat="42.6643539313" lon="0.0684664026">
        <ele>2475.53</ele>
        <time>2022-07-11T10:43:18Z</time>
      </trkpt>
      <trkpt lat="42.6644260157" lon="0.0682865269">
        <ele>2477.45</ele>
        <time>2022-07-11T10:43:35Z</time>
      </trkpt>
      <trkpt lat="42.6644815877" lon="0.0681084115">
        <ele>2480.34</ele>
        <time>2022-07-11T10:43:50Z</time>
      </trkpt>
      <trkpt lat="42.6645173784" lon="0.0680169649">
        <ele>2481.78</ele>
        <time>2022-07-11T10:44:00Z</time>
      </trkpt>
      <trkpt lat="42.6645216532" lon="0.0679655001">
        <ele>2482.26</ele>
        <time>2022-07-11T10:44:04Z</time>
      </trkpt>
      <trkpt lat="42.6645285264" lon="0.0679383427">
        <ele>2482.26</ele>
        <time>2022-07-11T10:44:06Z</time>
      </trkpt>
      <trkpt lat="42.6645457093" lon="0.0678922422">
        <ele>2482.74</ele>
        <time>2022-07-11T10:44:10Z</time>
      </trkpt>
      <trkpt lat="42.6646101661" lon="0.0677538570">
        <ele>2484.18</ele>
        <time>2022-07-11T10:44:24Z</time>
      </trkpt>
      <trkpt lat="42.6646694262" lon="0.0676112808">
        <ele>2486.11</ele>
        <time>2022-07-11T10:44:38Z</time>
      </trkpt>
      <trkpt lat="42.6647125930" lon="0.0674490072">
        <ele>2488.03</ele>
        <time>2022-07-11T10:44:54Z</time>
      </trkpt>
      <trkpt lat="42.6647686679" lon="0.0673017371">
        <ele>2490.43</ele>
        <time>2022-07-11T10:45:09Z</time>
      </trkpt>
      <trkpt lat="42.6648025308" lon="0.0671743322">
        <ele>2493.80</ele>
        <time>2022-07-11T10:45:22Z</time>
      </trkpt>
      <trkpt lat="42.6648399141" lon="0.0670423172">
        <ele>2495.24</ele>
        <time>2022-07-11T10:45:38Z</time>
      </trkpt>
      <trkpt lat="42.6648756210" lon="0.0669211987">
        <ele>2498.60</ele>
        <time>2022-07-11T10:45:53Z</time>
      </trkpt>
      <trkpt lat="42.6648566779" lon="0.0667994097">
        <ele>2501.01</ele>
        <time>2022-07-11T10:46:08Z</time>
      </trkpt>
      <trkpt lat="42.6648781355" lon="0.0666774530">
        <ele>2503.89</ele>
        <time>2022-07-11T10:46:24Z</time>
      </trkpt>
      <trkpt lat="42.6648607850" lon="0.0665420853">
        <ele>2506.29</ele>
        <time>2022-07-11T10:46:38Z</time>
      </trkpt>
      <trkpt lat="42.6648771297" lon="0.0664146803">
        <ele>2508.70</ele>
        <time>2022-07-11T10:46:52Z</time>
      </trkpt>
      <trkpt lat="42.6649219729" lon="0.0662133470">
        <ele>2511.10</ele>
        <time>2022-07-11T10:47:09Z</time>
      </trkpt>
      <trkpt lat="42.6649191231" lon="0.0661429390">
        <ele>2512.06</ele>
        <time>2022-07-11T10:47:15Z</time>
      </trkpt>
      <trkpt lat="42.6648954861" lon="0.0659756362">
        <ele>2514.95</ele>
        <time>2022-07-11T10:47:32Z</time>
      </trkpt>
      <trkpt lat="42.6649355516" lon="0.0658880454">
        <ele>2517.83</ele>
        <time>2022-07-11T10:47:45Z</time>
      </trkpt>
      <trkpt lat="42.6649601944" lon="0.0658044778">
        <ele>2520.71</ele>
        <time>2022-07-11T10:47:59Z</time>
      </trkpt>
      <trkpt lat="42.6649807300" lon="0.0657217484">
        <ele>2521.68</ele>
        <time>2022-07-11T10:48:12Z</time>
      </trkpt>
      <trkpt lat="42.6650355477" lon="0.0656421203">
        <ele>2524.56</ele>
        <time>2022-07-11T10:48:27Z</time>
      </trkpt>
      <trkpt lat="42.6650808100" lon="0.0655649230">
        <ele>2526.48</ele>
        <time>2022-07-11T10:48:38Z</time>
      </trkpt>
      <trkpt lat="42.6651242282" lon="0.0654872227">
        <ele>2528.40</ele>
        <time>2022-07-11T10:48:51Z</time>
      </trkpt>
      <trkpt lat="42.6650834922" lon="0.0653801020">
        <ele>2531.29</ele>
        <time>2022-07-11T10:49:05Z</time>
      </trkpt>
      <trkpt lat="42.6649904530" lon="0.0652952772">
        <ele>2532.73</ele>
        <time>2022-07-11T10:49:19Z</time>
      </trkpt>
      <trkpt lat="42.6648831647" lon="0.0651888270">
        <ele>2536.58</ele>
        <time>2022-07-11T10:49:34Z</time>
      </trkpt>
      <trkpt lat="42.6647576876" lon="0.0650998112">
        <ele>2537.54</ele>
        <time>2022-07-11T10:49:47Z</time>
      </trkpt>
      <trkpt lat="42.6647082344" lon="0.0650645234">
        <ele>2537.54</ele>
        <time>2022-07-11T10:49:52Z</time>
      </trkpt>
      <trkpt lat="42.6646695938" lon="0.0650319178">
        <ele>2538.02</ele>
        <time>2022-07-11T10:49:57Z</time>
      </trkpt>
      <trkpt lat="42.6645638142" lon="0.0649257191">
        <ele>2540.42</ele>
        <time>2022-07-11T10:50:13Z</time>
      </trkpt>
      <trkpt lat="42.6644949149" lon="0.0648372900">
        <ele>2543.31</ele>
        <time>2022-07-11T10:50:28Z</time>
      </trkpt>
      <trkpt lat="42.6644317992" lon="0.0647580810">
        <ele>2544.75</ele>
        <time>2022-07-11T10:50:43Z</time>
      </trkpt>
      <trkpt lat="42.6643086690" lon="0.0646998268">
        <ele>2547.15</ele>
        <time>2022-07-11T10:50:58Z</time>
      </trkpt>
      <trkpt lat="42.6642126124" lon="0.0646447577">
        <ele>2549.55</ele>
        <time>2022-07-11T10:51:13Z</time>
      </trkpt>
      <trkpt lat="42.6641681045" lon="0.0646297541">
        <ele>2550.51</ele>
        <time>2022-07-11T10:51:19Z</time>
      </trkpt>
      <trkpt lat="42.6640736405" lon="0.0646186899">
        <ele>2551.48</ele>
        <time>2022-07-11T10:51:31Z</time>
      </trkpt>
      <trkpt lat="42.6640465669" lon="0.0645192806">
        <ele>2552.92</ele>
        <time>2022-07-11T10:51:45Z</time>
      </trkpt>
      <trkpt lat="42.6640658453" lon="0.0644148421">
        <ele>2555.80</ele>
        <time>2022-07-11T10:51:59Z</time>
      </trkpt>
      <trkpt lat="42.6640689466" lon="0.0643711723">
        <ele>2555.80</ele>
        <time>2022-07-11T10:52:04Z</time>
      </trkpt>
      <trkpt lat="42.6640607323" lon="0.0643228088">
        <ele>2555.80</ele>
        <time>2022-07-11T10:52:08Z</time>
      </trkpt>
      <trkpt lat="42.6640483271" lon="0.0641881954">
        <ele>2557.24</ele>
        <time>2022-07-11T10:52:20Z</time>
      </trkpt>
      <trkpt lat="42.6640290488" lon="0.0640516542">
        <ele>2558.69</ele>
        <time>2022-07-11T10:52:35Z</time>
      </trkpt>
      <trkpt lat="42.6640140451" lon="0.0639167894">
        <ele>2559.17</ele>
        <time>2022-07-11T10:52:48Z</time>
      </trkpt>
      <trkpt lat="42.6640404481" lon="0.0638726167">
        <ele>2560.61</ele>
        <time>2022-07-11T10:52:54Z</time>
      </trkpt>
      <trkpt lat="42.6640522666" lon="0.0637368299">
        <ele>2562.05</ele>
        <time>2022-07-11T10:53:07Z</time>
      </trkpt>
      <trkpt lat="42.6640859619" lon="0.0635935832">
        <ele>2563.97</ele>
        <time>2022-07-11T10:53:21Z</time>
      </trkpt>
      <trkpt lat="42.6640841179" lon="0.0634870492">
        <ele>2565.90</ele>
        <time>2022-07-11T10:53:34Z</time>
      </trkpt>
      <trkpt lat="42.6640924998" lon="0.0633754861">
        <ele>2566.86</ele>
        <time>2022-07-11T10:53:48Z</time>
      </trkpt>
      <trkpt lat="42.6640756521" lon="0.0632837880">
        <ele>2566.38</ele>
        <time>2022-07-11T10:54:00Z</time>
      </trkpt>
      <trkpt lat="42.6640366763" lon="0.0631670281">
        <ele>2565.90</ele>
        <time>2022-07-11T10:54:14Z</time>
      </trkpt>
      <trkpt lat="42.6640050765" lon="0.0630515255">
        <ele>2565.90</ele>
        <time>2022-07-11T10:54:28Z</time>
      </trkpt>
      <trkpt lat="42.6639726385" lon="0.0630115438">
        <ele>2565.42</ele>
        <time>2022-07-11T10:54:42Z</time>
      </trkpt>
      <trkpt lat="42.6639792603" lon="0.0629277248">
        <ele>2564.93</ele>
        <time>2022-07-11T10:54:49Z</time>
      </trkpt>
      <trkpt lat="42.6639443915" lon="0.0627804548">
        <ele>2564.45</ele>
        <time>2022-07-11T10:55:03Z</time>
      </trkpt>
      <trkpt lat="42.6639480796" lon="0.0627068616">
        <ele>2565.42</ele>
        <time>2022-07-11T10:55:11Z</time>
      </trkpt>
      <trkpt lat="42.6639155578" lon="0.0626411475">
        <ele>2565.90</ele>
        <time>2022-07-11T10:55:24Z</time>
      </trkpt>
      <trkpt lat="42.6639150549" lon="0.0626373757">
        <ele>2565.90</ele>
        <time>2022-07-11T10:55:26Z</time>
      </trkpt>
      <trkpt lat="42.6638595667" lon="0.0624892674">
        <ele>2564.45</ele>
        <time>2022-07-11T10:55:42Z</time>
      </trkpt>
      <trkpt lat="42.6638500951" lon="0.0624360424">
        <ele>2564.45</ele>
        <time>2022-07-11T10:55:52Z</time>
      </trkpt>
      <trkpt lat="42.6638329122" lon="0.0623639580">
        <ele>2565.90</ele>
        <time>2022-07-11T10:56:02Z</time>
      </trkpt>
      <trkpt lat="42.6637903322" lon="0.0622566696">
        <ele>2567.82</ele>
        <time>2022-07-11T10:56:14Z</time>
      </trkpt>
      <trkpt lat="42.6637599058" lon="0.0621723477">
        <ele>2568.30</ele>
        <time>2022-07-11T10:56:27Z</time>
      </trkpt>
      <trkpt lat="42.6637597382" lon="0.0621021073">
        <ele>2569.26</ele>
        <time>2022-07-11T10:56:42Z</time>
      </trkpt>
      <trkpt lat="42.6636931859" lon="0.0620025303">
        <ele>2570.70</ele>
        <time>2022-07-11T10:56:55Z</time>
      </trkpt>
      <trkpt lat="42.6636918448" lon="0.0619118381">
        <ele>2571.18</ele>
        <time>2022-07-11T10:57:08Z</time>
      </trkpt>
      <trkpt lat="42.6636435650" lon="0.0618612953">
        <ele>2572.63</ele>
        <time>2022-07-11T10:57:20Z</time>
      </trkpt>
      <trkpt lat="42.6636127196" lon="0.0618704315">
        <ele>2571.18</ele>
        <time>2022-07-11T10:57:25Z</time>
      </trkpt>
      <trkpt lat="42.6635631826" lon="0.0618627202">
        <ele>2567.82</ele>
        <time>2022-07-11T10:57:35Z</time>
      </trkpt>
      <trkpt lat="42.6635541301" lon="0.0618628878">
        <ele>2567.82</ele>
        <time>2022-07-11T10:57:36Z</time>
      </trkpt>
      <trkpt lat="42.6634913497" lon="0.0618594512">
        <ele>2567.34</ele>
        <time>2022-07-11T10:57:42Z</time>
      </trkpt>
      <trkpt lat="42.6634725742" lon="0.0618559308">
        <ele>2566.86</ele>
        <time>2022-07-11T10:57:44Z</time>
      </trkpt>
      <trkpt lat="42.6634284016" lon="0.0618198048">
        <ele>2566.86</ele>
        <time>2022-07-11T10:57:50Z</time>
      </trkpt>
      <trkpt lat="42.6633298304" lon="0.0617773924">
        <ele>2570.22</ele>
        <time>2022-07-11T10:58:03Z</time>
      </trkpt>
      <trkpt lat="42.6633092109" lon="0.0617606286">
        <ele>2569.26</ele>
        <time>2022-07-11T10:58:09Z</time>
      </trkpt>
      <trkpt lat="42.6632411499" lon="0.0617072359">
        <ele>2568.30</ele>
        <time>2022-07-11T10:58:22Z</time>
      </trkpt>
      <trkpt lat="42.6632316783" lon="0.0617040507">
        <ele>2569.74</ele>
        <time>2022-07-11T10:58:24Z</time>
      </trkpt>
      <trkpt lat="42.6631932892" lon="0.0616398454">
        <ele>2572.63</ele>
        <time>2022-07-11T10:58:39Z</time>
      </trkpt>
      <trkpt lat="42.6631196123" lon="0.0615758076">
        <ele>2574.07</ele>
        <time>2022-07-11T10:58:53Z</time>
      </trkpt>
      <trkpt lat="42.6630990766" lon="0.0615490694">
        <ele>2575.03</ele>
        <time>2022-07-11T10:58:58Z</time>
      </trkpt>
      <trkpt lat="42.6630130783" lon="0.0613965187">
        <ele>2576.95</ele>
        <time>2022-07-11T10:59:14Z</time>
      </trkpt>
      <trkpt lat="42.6630087197" lon="0.0613102689">
        <ele>2579.35</ele>
        <time>2022-07-11T10:59:27Z</time>
      </trkpt>
      <trkpt lat="42.6630290877" lon="0.0612286292">
        <ele>2581.28</ele>
        <time>2022-07-11T10:59:41Z</time>
      </trkpt>
      <trkpt lat="42.6630161796" lon="0.0611143000">
        <ele>2583.20</ele>
        <time>2022-07-11T10:59:53Z</time>
      </trkpt>
      <trkpt lat="42.6629478671" lon="0.0610179082">
        <ele>2585.12</ele>
        <time>2022-07-11T11:00:07Z</time>
      </trkpt>
      <trkpt lat="42.6628940552" lon="0.0609509367">
        <ele>2586.08</ele>
        <time>2022-07-11T11:00:20Z</time>
      </trkpt>
      <trkpt lat="42.6628925465" lon="0.0608609989">
        <ele>2588.97</ele>
        <time>2022-07-11T11:00:33Z</time>
      </trkpt>
      <trkpt lat="42.6629000902" lon="0.0607615057">
        <ele>2591.85</ele>
        <time>2022-07-11T11:00:48Z</time>
      </trkpt>
      <trkpt lat="42.6628822368" lon="0.0606882479">
        <ele>2593.77</ele>
        <time>2022-07-11T11:01:00Z</time>
      </trkpt>
      <trkpt lat="42.6628710050" lon="0.0606284849">
        <ele>2595.22</ele>
        <time>2022-07-11T11:01:16Z</time>
      </trkpt>
      <trkpt lat="42.6628468651" lon="0.0605444983">
        <ele>2597.62</ele>
        <time>2022-07-11T11:01:30Z</time>
      </trkpt>
      <trkpt lat="42.6628204621" lon="0.0604279898">
        <ele>2599.54</ele>
        <time>2022-07-11T11:01:45Z</time>
      </trkpt>
      <trkpt lat="42.6627886109" lon="0.0603199471">
        <ele>2602.91</ele>
        <time>2022-07-11T11:02:02Z</time>
      </trkpt>
      <trkpt lat="42.6627998427" lon="0.0602363795">
        <ele>2606.27</ele>
        <time>2022-07-11T11:02:19Z</time>
      </trkpt>
      <trkpt lat="42.6627932210" lon="0.0601392332">
        <ele>2609.16</ele>
        <time>2022-07-11T11:02:33Z</time>
      </trkpt>
      <trkpt lat="42.6627482101" lon="0.0600260776">
        <ele>2612.04</ele>
        <time>2022-07-11T11:02:48Z</time>
      </trkpt>
      <trkpt lat="42.6627109107" lon="0.0599100720">
        <ele>2613.96</ele>
        <time>2022-07-11T11:03:04Z</time>
      </trkpt>
      <trkpt lat="42.6626747008" lon="0.0599150173">
        <ele>2614.44</ele>
        <time>2022-07-11T11:03:18Z</time>
      </trkpt>
      <trkpt lat="42.6626586914" lon="0.0599213038">
        <ele>2613.00</ele>
        <time>2022-07-11T11:03:21Z</time>
      </trkpt>
      <trkpt lat="42.6626240741" lon="0.0599762890">
        <ele>2613.00</ele>
        <time>2022-07-11T11:03:43Z</time>
      </trkpt>
      <trkpt lat="42.6626265049" lon="0.0599911250">
        <ele>2613.00</ele>
        <time>2022-07-11T11:04:00Z</time>
      </trkpt>
      <trkpt lat="42.6625759620" lon="0.0600322802">
        <ele>2613.00</ele>
        <time>2022-07-11T11:04:23Z</time>
      </trkpt>
      <trkpt lat="42.6625339687" lon="0.0599973276">
        <ele>2613.00</ele>
        <time>2022-07-11T11:04:52Z</time>
      </trkpt>
      <trkpt lat="42.6625706814" lon="0.0600767881">
        <ele>2614.44</ele>
        <time>2022-07-11T11:05:14Z</time>
      </trkpt>
      <trkpt lat="42.6625740342" lon="0.0601299293">
        <ele>2614.92</ele>
        <time>2022-07-11T11:05:38Z</time>
      </trkpt>
      <trkpt lat="42.6625608746" lon="0.0599683262">
        <ele>2615.40</ele>
        <time>2022-07-11T11:06:00Z</time>
      </trkpt>
      <trkpt lat="42.6624410134" lon="0.0600874331">
        <ele>2616.85</ele>
        <time>2022-07-11T11:06:21Z</time>
      </trkpt>
      <trkpt lat="42.6622748841" lon="0.0602414925">
        <ele>2617.33</ele>
        <time>2022-07-11T11:06:38Z</time>
      </trkpt>
      <trkpt lat="42.6622358244" lon="0.0603155047">
        <ele>2617.81</ele>
        <time>2022-07-11T11:06:58Z</time>
      </trkpt>
      <trkpt lat="42.6621956751" lon="0.0602794625">
        <ele>2618.77</ele>
        <time>2022-07-11T11:07:15Z</time>
      </trkpt>
      <trkpt lat="42.6623089984" lon="0.0601311866">
        <ele>2620.21</ele>
        <time>2022-07-11T11:07:32Z</time>
      </trkpt>
      <trkpt lat="42.6623946615" lon="0.0600003451">
        <ele>2622.61</ele>
        <time>2022-07-11T11:07:48Z</time>
      </trkpt>
      <trkpt lat="42.6624406781" lon="0.0598879438">
        <ele>2625.02</ele>
        <time>2022-07-11T11:08:01Z</time>
      </trkpt>
      <trkpt lat="42.6624755468" lon="0.0597985089">
        <ele>2626.46</ele>
        <time>2022-07-11T11:08:15Z</time>
      </trkpt>
      <trkpt lat="42.6624568552" lon="0.0596874487">
        <ele>2629.34</ele>
        <time>2022-07-11T11:08:31Z</time>
      </trkpt>
      <trkpt lat="42.6624337211" lon="0.0596820004">
        <ele>2630.30</ele>
        <time>2022-07-11T11:08:49Z</time>
      </trkpt>
      <trkpt lat="42.6623748802" lon="0.0596226566">
        <ele>2632.71</ele>
        <time>2022-07-11T11:09:06Z</time>
      </trkpt>
      <trkpt lat="42.6623803284" lon="0.0595436990">
        <ele>2635.59</ele>
        <time>2022-07-11T11:09:22Z</time>
      </trkpt>
      <trkpt lat="42.6623053104" lon="0.0595415197">
        <ele>2637.99</ele>
        <time>2022-07-11T11:09:38Z</time>
      </trkpt>
      <trkpt lat="42.6622770634" lon="0.0594548509">
        <ele>2640.40</ele>
        <time>2022-07-11T11:09:52Z</time>
      </trkpt>
      <trkpt lat="42.6621925738" lon="0.0593943335">
        <ele>2642.32</ele>
        <time>2022-07-11T11:10:05Z</time>
      </trkpt>
      <trkpt lat="42.6621028036" lon="0.0593926571">
        <ele>2643.76</ele>
        <time>2022-07-11T11:10:21Z</time>
      </trkpt>
      <trkpt lat="42.6620699465" lon="0.0594387576">
        <ele>2640.88</ele>
        <time>2022-07-11T11:10:35Z</time>
      </trkpt>
      <trkpt lat="42.6620012149" lon="0.0594525039">
        <ele>2638.48</ele>
        <time>2022-07-11T11:10:48Z</time>
      </trkpt>
      <trkpt lat="42.6619741414" lon="0.0594412722">
        <ele>2639.92</ele>
        <time>2022-07-11T11:10:55Z</time>
      </trkpt>
      <trkpt lat="42.6619294658" lon="0.0594075769">
        <ele>2642.32</ele>
        <time>2022-07-11T11:11:09Z</time>
      </trkpt>
      <trkpt lat="42.6619025599" lon="0.0593810063">
        <ele>2645.21</ele>
        <time>2022-07-11T11:11:23Z</time>
      </trkpt>
      <trkpt lat="42.6618395280" lon="0.0593967643">
        <ele>2647.61</ele>
        <time>2022-07-11T11:11:36Z</time>
      </trkpt>
      <trkpt lat="42.6617933437" lon="0.0593729597">
        <ele>2650.97</ele>
        <time>2022-07-11T11:11:50Z</time>
      </trkpt>
      <trkpt lat="42.6617763285" lon="0.0594259333">
        <ele>2652.42</ele>
        <time>2022-07-11T11:12:05Z</time>
      </trkpt>
      <trkpt lat="42.6617174037" lon="0.0594137795">
        <ele>2655.30</ele>
        <time>2022-07-11T11:12:19Z</time>
      </trkpt>
      <trkpt lat="42.6616908330" lon="0.0594015419">
        <ele>2657.22</ele>
        <time>2022-07-11T11:12:32Z</time>
      </trkpt>
      <trkpt lat="42.6616516896" lon="0.0593756419">
        <ele>2659.14</ele>
        <time>2022-07-11T11:12:46Z</time>
      </trkpt>
      <trkpt lat="42.6615832094" lon="0.0594726205">
        <ele>2660.59</ele>
        <time>2022-07-11T11:12:59Z</time>
      </trkpt>
      <trkpt lat="42.6615162380" lon="0.0595056452">
        <ele>2663.95</ele>
        <time>2022-07-11T11:13:15Z</time>
      </trkpt>
      <trkpt lat="42.6614723168" lon="0.0594914798">
        <ele>2667.31</ele>
        <time>2022-07-11T11:13:30Z</time>
      </trkpt>
      <trkpt lat="42.6614768431" lon="0.0594918989">
        <ele>2669.72</ele>
        <time>2022-07-11T11:13:46Z</time>
      </trkpt>
      <trkpt lat="42.6614319161" lon="0.0594556052">
        <ele>2671.16</ele>
        <time>2022-07-11T11:14:04Z</time>
      </trkpt>
      <trkpt lat="42.6613693871" lon="0.0594162103">
        <ele>2674.52</ele>
        <time>2022-07-11T11:14:18Z</time>
      </trkpt>
      <trkpt lat="42.6612982247" lon="0.0594268553">
        <ele>2675.97</ele>
        <time>2022-07-11T11:14:30Z</time>
      </trkpt>
      <trkpt lat="42.6612137351" lon="0.0594551023">
        <ele>2678.85</ele>
        <time>2022-07-11T11:14:44Z</time>
      </trkpt>
      <trkpt lat="42.6611253899" lon="0.0594851933">
        <ele>2681.25</ele>
        <time>2022-07-11T11:14:57Z</time>
      </trkpt>
      <trkpt lat="42.6610293332" lon="0.0595362391">
        <ele>2684.62</ele>
        <time>2022-07-11T11:15:14Z</time>
      </trkpt>
      <trkpt lat="42.6609683130" lon="0.0595703535">
        <ele>2687.02</ele>
        <time>2022-07-11T11:15:29Z</time>
      </trkpt>
      <trkpt lat="42.6609029341" lon="0.0595939904">
        <ele>2689.91</ele>
        <time>2022-07-11T11:15:44Z</time>
      </trkpt>
      <trkpt lat="42.6608615275" lon="0.0596153643">
        <ele>2692.31</ele>
        <time>2022-07-11T11:15:59Z</time>
      </trkpt>
      <trkpt lat="42.6608015969" lon="0.0595798250">
        <ele>2695.67</ele>
        <time>2022-07-11T11:16:15Z</time>
      </trkpt>
      <trkpt lat="42.6607549097" lon="0.0595903862">
        <ele>2698.08</ele>
        <time>2022-07-11T11:16:27Z</time>
      </trkpt>
      <trkpt lat="42.6607469469" lon="0.0595327187">
        <ele>2700.48</ele>
        <time>2022-07-11T11:16:43Z</time>
      </trkpt>
      <trkpt lat="42.6607197057" lon="0.0594981853">
        <ele>2700.96</ele>
        <time>2022-07-11T11:16:56Z</time>
      </trkpt>
      <trkpt lat="42.6607105695" lon="0.0594746321">
        <ele>2701.44</ele>
        <time>2022-07-11T11:17:17Z</time>
      </trkpt>
      <trkpt lat="42.6607245672" lon="0.0595355686">
        <ele>2699.52</ele>
        <time>2022-07-11T11:17:32Z</time>
      </trkpt>
      <trkpt lat="42.6607040316" lon="0.0595290307">
        <ele>2700.00</ele>
        <time>2022-07-11T11:17:45Z</time>
      </trkpt>
      <trkpt lat="42.6606722642" lon="0.0595973432">
        <ele>2699.52</ele>
        <time>2022-07-11T11:18:00Z</time>
      </trkpt>
      <trkpt lat="42.6606606133" lon="0.0596356485">
        <ele>2697.12</ele>
        <time>2022-07-11T11:18:14Z</time>
      </trkpt>
      <trkpt lat="42.6606610324" lon="0.0596848503">
        <ele>2693.75</ele>
        <time>2022-07-11T11:18:30Z</time>
      </trkpt>
      <trkpt lat="42.6606659777" lon="0.0596772227">
        <ele>2695.19</ele>
        <time>2022-07-11T11:18:47Z</time>
      </trkpt>
      <trkpt lat="42.6606509741" lon="0.0596817490">
        <ele>2692.31</ele>
        <time>2022-07-11T11:19:01Z</time>
      </trkpt>
      <trkpt lat="42.6606565900" lon="0.0597161148">
        <ele>2691.35</ele>
        <time>2022-07-11T11:19:16Z</time>
      </trkpt>
      <trkpt lat="42.6606200449" lon="0.0597758777">
        <ele>2688.46</ele>
        <time>2022-07-11T11:19:29Z</time>
      </trkpt>
      <trkpt lat="42.6605521515" lon="0.0598239060">
        <ele>2685.10</ele>
        <time>2022-07-11T11:19:43Z</time>
      </trkpt>
      <trkpt lat="42.6605015248" lon="0.0598333776">
        <ele>2684.14</ele>
        <time>2022-07-11T11:19:50Z</time>
      </trkpt>
      <trkpt lat="42.6604539156" lon="0.0598181225">
        <ele>2684.14</ele>
        <time>2022-07-11T11:20:02Z</time>
      </trkpt>
      <trkpt lat="42.6604198851" lon="0.0598482974">
        <ele>2683.18</ele>
        <time>2022-07-11T11:20:09Z</time>
      </trkpt>
      <trkpt lat="42.6603063103" lon="0.0599540770">
        <ele>2680.29</ele>
        <time>2022-07-11T11:20:23Z</time>
      </trkpt>
      <trkpt lat="42.6602215692" lon="0.0600086432">
        <ele>2679.33</ele>
        <time>2022-07-11T11:20:38Z</time>
      </trkpt>
      <trkpt lat="42.6601833478" lon="0.0601223018">
        <ele>2677.89</ele>
        <time>2022-07-11T11:20:48Z</time>
      </trkpt>
      <trkpt lat="42.6601445395" lon="0.0602182746">
        <ele>2676.93</ele>
        <time>2022-07-11T11:20:58Z</time>
      </trkpt>
      <trkpt lat="42.6601085812" lon="0.0603445899">
        <ele>2675.01</ele>
        <time>2022-07-11T11:21:11Z</time>
      </trkpt>
      <trkpt lat="42.6600811724" lon="0.0604265649">
        <ele>2674.04</ele>
        <time>2022-07-11T11:21:26Z</time>
      </trkpt>
      <trkpt lat="42.6600456331" lon="0.0604629423">
        <ele>2672.12</ele>
        <time>2022-07-11T11:21:38Z</time>
      </trkpt>
      <trkpt lat="42.6599888038" lon="0.0605322607">
        <ele>2670.68</ele>
        <time>2022-07-11T11:21:55Z</time>
      </trkpt>
      <trkpt lat="42.6598796714" lon="0.0605817977">
        <ele>2667.80</ele>
        <time>2022-07-11T11:22:11Z</time>
      </trkpt>
      <trkpt lat="42.6598600578" lon="0.0605919398">
        <ele>2668.28</ele>
        <time>2022-07-11T11:22:13Z</time>
      </trkpt>
      <trkpt lat="42.6597285457" lon="0.0605976395">
        <ele>2668.28</ele>
        <time>2022-07-11T11:22:28Z</time>
      </trkpt>
      <trkpt lat="42.6596184075" lon="0.0605792832">
        <ele>2668.28</ele>
        <time>2022-07-11T11:22:40Z</time>
      </trkpt>
      <trkpt lat="42.6595877297" lon="0.0605854858">
        <ele>2670.20</ele>
        <time>2022-07-11T11:22:45Z</time>
      </trkpt>
      <trkpt lat="42.6595006417" lon="0.0605408102">
        <ele>2668.76</ele>
        <time>2022-07-11T11:22:55Z</time>
      </trkpt>
      <trkpt lat="42.6594792679" lon="0.0605799537">
        <ele>2668.76</ele>
        <time>2022-07-11T11:22:57Z</time>
      </trkpt>
      <trkpt lat="42.6593614183" lon="0.0606254674">
        <ele>2670.20</ele>
        <time>2022-07-11T11:23:10Z</time>
      </trkpt>
      <trkpt lat="42.6592449099" lon="0.0605646148">
        <ele>2671.64</ele>
        <time>2022-07-11T11:23:25Z</time>
      </trkpt>
      <trkpt lat="42.6591768488" lon="0.0605313387">
        <ele>2672.12</ele>
        <time>2022-07-11T11:23:35Z</time>
      </trkpt>
      <trkpt lat="42.6590702310" lon="0.0604804605">
        <ele>2674.52</ele>
        <time>2022-07-11T11:23:49Z</time>
      </trkpt>
      <trkpt lat="42.6589708216" lon="0.0605129823">
        <ele>2675.01</ele>
        <time>2022-07-11T11:24:01Z</time>
      </trkpt>
      <trkpt lat="42.6588577498" lon="0.0605738349">
        <ele>2675.49</ele>
        <time>2022-07-11T11:24:16Z</time>
      </trkpt>
      <trkpt lat="42.6586886868" lon="0.0606017467">
        <ele>2675.97</ele>
        <time>2022-07-11T11:24:33Z</time>
      </trkpt>
      <trkpt lat="42.6585893612" lon="0.0606635213">
        <ele>2675.97</ele>
        <time>2022-07-11T11:24:47Z</time>
      </trkpt>
      <trkpt lat="42.6585746929" lon="0.0606680475">
        <ele>2675.97</ele>
        <time>2022-07-11T11:24:49Z</time>
      </trkpt>
      <trkpt lat="42.6584085636" lon="0.0608259626">
        <ele>2676.45</ele>
        <time>2022-07-11T11:25:05Z</time>
      </trkpt>
      <trkpt lat="42.6583550870" lon="0.0608509406">
        <ele>2675.01</ele>
        <time>2022-07-11T11:25:10Z</time>
      </trkpt>
      <trkpt lat="42.6583270915" lon="0.0608861446">
        <ele>2675.01</ele>
        <time>2022-07-11T11:25:13Z</time>
      </trkpt>
      <trkpt lat="42.6581726968" lon="0.0610156450">
        <ele>2672.60</ele>
        <time>2022-07-11T11:25:29Z</time>
      </trkpt>
      <trkpt lat="42.6581430249" lon="0.0610596500">
        <ele>2671.64</ele>
        <time>2022-07-11T11:25:34Z</time>
      </trkpt>
      <trkpt lat="42.6580317132" lon="0.0610974524">
        <ele>2672.12</ele>
        <time>2022-07-11T11:25:45Z</time>
      </trkpt>
      <trkpt lat="42.6579183061" lon="0.0612132903">
        <ele>2668.76</ele>
        <time>2022-07-11T11:26:00Z</time>
      </trkpt>
      <trkpt lat="42.6577718742" lon="0.0612382684">
        <ele>2667.31</ele>
        <time>2022-07-11T11:26:18Z</time>
      </trkpt>
      <trkpt lat="42.6576683577" lon="0.0613178965">
        <ele>2665.39</ele>
        <time>2022-07-11T11:26:31Z</time>
      </trkpt>
      <trkpt lat="42.6576185692" lon="0.0613474846">
        <ele>2663.95</ele>
        <time>2022-07-11T11:26:37Z</time>
      </trkpt>
      <trkpt lat="42.6574723050" lon="0.0614276156">
        <ele>2662.03</ele>
        <time>2022-07-11T11:26:54Z</time>
      </trkpt>
      <trkpt lat="42.6573583949" lon="0.0615063217">
        <ele>2660.11</ele>
        <time>2022-07-11T11:27:08Z</time>
      </trkpt>
      <trkpt lat="42.6573419664" lon="0.0615117699">
        <ele>2661.55</ele>
        <time>2022-07-11T11:27:10Z</time>
      </trkpt>
      <trkpt lat="42.6572723966" lon="0.0615364965">
        <ele>2660.11</ele>
        <time>2022-07-11T11:27:17Z</time>
      </trkpt>
      <trkpt lat="42.6572179981" lon="0.0616072398">
        <ele>2659.14</ele>
        <time>2022-07-11T11:27:25Z</time>
      </trkpt>
      <trkpt lat="42.6570500247" lon="0.0616183877">
        <ele>2658.66</ele>
        <time>2022-07-11T11:27:41Z</time>
      </trkpt>
      <trkpt lat="42.6569663733" lon="0.0616608001">
        <ele>2658.66</ele>
        <time>2022-07-11T11:27:52Z</time>
      </trkpt>
      <trkpt lat="42.6568797044" lon="0.0616786536">
        <ele>2659.62</ele>
        <time>2022-07-11T11:28:02Z</time>
      </trkpt>
      <trkpt lat="42.6567699015" lon="0.0615743827">
        <ele>2662.03</ele>
        <time>2022-07-11T11:28:15Z</time>
      </trkpt>
      <trkpt lat="42.6567270700" lon="0.0615031365">
        <ele>2662.03</ele>
        <time>2022-07-11T11:28:20Z</time>
      </trkpt>
      <trkpt lat="42.6566775329" lon="0.0614313036">
        <ele>2662.03</ele>
        <time>2022-07-11T11:28:27Z</time>
      </trkpt>
      <trkpt lat="42.6566445082" lon="0.0613555312">
        <ele>2662.51</ele>
        <time>2022-07-11T11:28:33Z</time>
      </trkpt>
      <trkpt lat="42.6566087175" lon="0.0613344926">
        <ele>2662.51</ele>
        <time>2022-07-11T11:28:36Z</time>
      </trkpt>
      <trkpt lat="42.6565608568" lon="0.0612184033">
        <ele>2663.47</ele>
        <time>2022-07-11T11:28:49Z</time>
      </trkpt>
      <trkpt lat="42.6565558277" lon="0.0611324888">
        <ele>2663.47</ele>
        <time>2022-07-11T11:28:55Z</time>
      </trkpt>
      <trkpt lat="42.6565353759" lon="0.0610054191">
        <ele>2664.43</ele>
        <time>2022-07-11T11:29:10Z</time>
      </trkpt>
      <trkpt lat="42.6564904489" lon="0.0608297344">
        <ele>2662.99</ele>
        <time>2022-07-11T11:29:23Z</time>
      </trkpt>
      <trkpt lat="42.6563988347" lon="0.0607628468">
        <ele>2662.51</ele>
        <time>2022-07-11T11:29:33Z</time>
      </trkpt>
      <trkpt lat="42.6563442685" lon="0.0607235357">
        <ele>2660.59</ele>
        <time>2022-07-11T11:29:42Z</time>
      </trkpt>
      <trkpt lat="42.6563193742" lon="0.0607031677">
        <ele>2660.59</ele>
        <time>2022-07-11T11:29:45Z</time>
      </trkpt>
      <trkpt lat="42.6562738605" lon="0.0606811233">
        <ele>2659.62</ele>
        <time>2022-07-11T11:29:49Z</time>
      </trkpt>
      <trkpt lat="42.6561574358" lon="0.0604927819">
        <ele>2659.14</ele>
        <time>2022-07-11T11:30:07Z</time>
      </trkpt>
      <trkpt lat="42.6561569329" lon="0.0604807120">
        <ele>2659.14</ele>
        <time>2022-07-11T11:30:08Z</time>
      </trkpt>
      <trkpt lat="42.6561178733" lon="0.0603227969">
        <ele>2659.14</ele>
        <time>2022-07-11T11:30:21Z</time>
      </trkpt>
      <trkpt lat="42.6560761314" lon="0.0602725893">
        <ele>2659.14</ele>
        <time>2022-07-11T11:30:26Z</time>
      </trkpt>
      <trkpt lat="42.6560476329" lon="0.0602585077">
        <ele>2659.14</ele>
        <time>2022-07-11T11:30:29Z</time>
      </trkpt>
      <trkpt lat="42.6559980121" lon="0.0602418277">
        <ele>2658.18</ele>
        <time>2022-07-11T11:30:36Z</time>
      </trkpt>
      <trkpt lat="42.6559377462" lon="0.0602363795">
        <ele>2658.18</ele>
        <time>2022-07-11T11:30:42Z</time>
      </trkpt>
      <trkpt lat="42.6558442879" lon="0.0601300132">
        <ele>2658.18</ele>
        <time>2022-07-11T11:30:53Z</time>
      </trkpt>
      <trkpt lat="42.6557421125" lon="0.0599162746">
        <ele>2657.70</ele>
        <time>2022-07-11T11:31:11Z</time>
      </trkpt>
      <trkpt lat="42.6557074115" lon="0.0597796496">
        <ele>2659.62</ele>
        <time>2022-07-11T11:31:25Z</time>
      </trkpt>
      <trkpt lat="42.6557024661" lon="0.0597717706">
        <ele>2659.62</ele>
        <time>2022-07-11T11:31:26Z</time>
      </trkpt>
      <trkpt lat="42.6556973532" lon="0.0597625505">
        <ele>2659.62</ele>
        <time>2022-07-11T11:31:27Z</time>
      </trkpt>
      <trkpt lat="42.6556462236" lon="0.0596245844">
        <ele>2661.07</ele>
        <time>2022-07-11T11:31:41Z</time>
      </trkpt>
      <trkpt lat="42.6555904001" lon="0.0594790746">
        <ele>2662.03</ele>
        <time>2022-07-11T11:31:57Z</time>
      </trkpt>
      <trkpt lat="42.6554829441" lon="0.0594022963">
        <ele>2662.03</ele>
        <time>2022-07-11T11:32:10Z</time>
      </trkpt>
      <trkpt lat="42.6553917490" lon="0.0593671761">
        <ele>2664.91</ele>
        <time>2022-07-11T11:32:24Z</time>
      </trkpt>
      <trkpt lat="42.6552801859" lon="0.0592844468">
        <ele>2668.28</ele>
        <time>2022-07-11T11:32:39Z</time>
      </trkpt>
      <trkpt lat="42.6551463269" lon="0.0592178106">
        <ele>2671.16</ele>
        <time>2022-07-11T11:32:54Z</time>
      </trkpt>
      <trkpt lat="42.6550716441" lon="0.0591677707">
        <ele>2672.60</ele>
        <time>2022-07-11T11:33:01Z</time>
      </trkpt>
      <trkpt lat="42.6550558861" lon="0.0591301359">
        <ele>2672.60</ele>
        <time>2022-07-11T11:33:05Z</time>
      </trkpt>
      <trkpt lat="42.6549883280" lon="0.0590331573">
        <ele>2670.68</ele>
        <time>2022-07-11T11:33:16Z</time>
      </trkpt>
      <trkpt lat="42.6549832989" lon="0.0590503402">
        <ele>2669.72</ele>
        <time>2022-07-11T11:33:39Z</time>
      </trkpt>
      <trkpt lat="42.6549667027" lon="0.0590639189">
        <ele>2670.68</ele>
        <time>2022-07-11T11:33:58Z</time>
      </trkpt>
      <trkpt lat="42.6549644396" lon="0.0590671878">
        <ele>2669.72</ele>
        <time>2022-07-11T11:34:01Z</time>
      </trkpt>
      <trkpt lat="42.6549393777" lon="0.0590344146">
        <ele>2670.68</ele>
        <time>2022-07-11T11:34:36Z</time>
      </trkpt>
      <trkpt lat="42.6549445745" lon="0.0590351690">
        <ele>2670.20</ele>
        <time>2022-07-11T11:34:42Z</time>
      </trkpt>
      <trkpt lat="42.6549465023" lon="0.0590314809">
        <ele>2669.72</ele>
        <time>2022-07-11T11:35:21Z</time>
      </trkpt>
      <trkpt lat="42.6549547166" lon="0.0590327382">
        <ele>2669.72</ele>
        <time>2022-07-11T11:35:55Z</time>
      </trkpt>
      <trkpt lat="42.6549569797" lon="0.0590469874">
        <ele>2671.64</ele>
        <time>2022-07-11T11:36:28Z</time>
      </trkpt>
      <trkpt lat="42.6549612544" lon="0.0590509269">
        <ele>2671.64</ele>
        <time>2022-07-11T11:36:29Z</time>
      </trkpt>
      <trkpt lat="42.6549841370" lon="0.0590722170">
        <ele>2670.68</ele>
        <time>2022-07-11T11:36:46Z</time>
      </trkpt>
      <trkpt lat="42.6549963746" lon="0.0590670202">
        <ele>2672.12</ele>
        <time>2022-07-11T11:37:01Z</time>
      </trkpt>
      <trkpt lat="42.6549945306" lon="0.0590614881">
        <ele>2672.12</ele>
        <time>2022-07-11T11:37:19Z</time>
      </trkpt>
      <trkpt lat="42.6549630146" lon="0.0589207560">
        <ele>2672.60</ele>
        <time>2022-07-11T11:37:31Z</time>
      </trkpt>
      <trkpt lat="42.6549430657" lon="0.0588756613">
        <ele>2671.16</ele>
        <time>2022-07-11T11:37:35Z</time>
      </trkpt>
      <trkpt lat="42.6549309958" lon="0.0588247832">
        <ele>2669.72</ele>
        <time>2022-07-11T11:37:39Z</time>
      </trkpt>
      <trkpt lat="42.6549209375" lon="0.0586006511">
        <ele>2668.28</ele>
        <time>2022-07-11T11:37:53Z</time>
      </trkpt>
      <trkpt lat="42.6549289003" lon="0.0583736692">
        <ele>2667.80</ele>
        <time>2022-07-11T11:38:08Z</time>
      </trkpt>
      <trkpt lat="42.6549452450" lon="0.0583165884">
        <ele>2667.80</ele>
        <time>2022-07-11T11:38:13Z</time>
      </trkpt>
      <trkpt lat="42.6549556386" lon="0.0582524668">
        <ele>2667.80</ele>
        <time>2022-07-11T11:38:18Z</time>
      </trkpt>
      <trkpt lat="42.6549818739" lon="0.0581842382">
        <ele>2667.31</ele>
        <time>2022-07-11T11:38:24Z</time>
      </trkpt>
      <trkpt lat="42.6549968775" lon="0.0581290014">
        <ele>2666.83</ele>
        <time>2022-07-11T11:38:29Z</time>
      </trkpt>
      <trkpt lat="42.6550399605" lon="0.0580676459">
        <ele>2666.83</ele>
        <time>2022-07-11T11:38:44Z</time>
      </trkpt>
      <trkpt lat="42.6550490130" lon="0.0580336992">
        <ele>2666.83</ele>
        <time>2022-07-11T11:38:47Z</time>
      </trkpt>
      <trkpt lat="42.6550641842" lon="0.0579716731">
        <ele>2667.31</ele>
        <time>2022-07-11T11:38:51Z</time>
      </trkpt>
      <trkpt lat="42.6551199239" lon="0.0577111635">
        <ele>2666.35</ele>
        <time>2022-07-11T11:39:09Z</time>
      </trkpt>
      <trkpt lat="42.6551236119" lon="0.0575887877">
        <ele>2665.87</ele>
        <time>2022-07-11T11:39:18Z</time>
      </trkpt>
      <trkpt lat="42.6551490091" lon="0.0575254206">
        <ele>2664.91</ele>
        <time>2022-07-11T11:39:24Z</time>
      </trkpt>
      <trkpt lat="42.6551981270" lon="0.0574517436">
        <ele>2666.35</ele>
        <time>2022-07-11T11:39:34Z</time>
      </trkpt>
      <trkpt lat="42.6552114543" lon="0.0574117620">
        <ele>2666.83</ele>
        <time>2022-07-11T11:39:38Z</time>
      </trkpt>
      <trkpt lat="42.6552917529" lon="0.0572685990">
        <ele>2668.28</ele>
        <time>2022-07-11T11:39:55Z</time>
      </trkpt>
      <trkpt lat="42.6553251967" lon="0.0571339019">
        <ele>2669.24</ele>
        <time>2022-07-11T11:40:08Z</time>
      </trkpt>
      <trkpt lat="42.6553902403" lon="0.0570247695">
        <ele>2670.68</ele>
        <time>2022-07-11T11:40:21Z</time>
      </trkpt>
      <trkpt lat="42.6554438844" lon="0.0568957720">
        <ele>2672.60</ele>
        <time>2022-07-11T11:40:34Z</time>
      </trkpt>
      <trkpt lat="42.6555207465" lon="0.0567722227">
        <ele>2674.52</ele>
        <time>2022-07-11T11:40:50Z</time>
      </trkpt>
      <trkpt lat="42.6555754803" lon="0.0566551276">
        <ele>2675.97</ele>
        <time>2022-07-11T11:41:03Z</time>
      </trkpt>
      <trkpt lat="42.6556298789" lon="0.0565536227">
        <ele>2677.89</ele>
        <time>2022-07-11T11:41:14Z</time>
      </trkpt>
      <trkpt lat="42.6556804217" lon="0.0564001501">
        <ele>2680.29</ele>
        <time>2022-07-11T11:41:28Z</time>
      </trkpt>
      <trkpt lat="42.6557078306" lon="0.0562377926">
        <ele>2681.73</ele>
        <time>2022-07-11T11:41:44Z</time>
      </trkpt>
      <trkpt lat="42.6557119377" lon="0.0562207773">
        <ele>2681.73</ele>
        <time>2022-07-11T11:41:46Z</time>
      </trkpt>
      <trkpt lat="42.6557017118" lon="0.0561339408">
        <ele>2682.70</ele>
        <time>2022-07-11T11:42:01Z</time>
      </trkpt>
      <trkpt lat="42.6557055674" lon="0.0561117288">
        <ele>2681.73</ele>
        <time>2022-07-11T11:42:08Z</time>
      </trkpt>
      <trkpt lat="42.6557069924" lon="0.0560722500">
        <ele>2681.73</ele>
        <time>2022-07-11T11:42:12Z</time>
      </trkpt>
      <trkpt lat="42.6557033882" lon="0.0559417438">
        <ele>2681.73</ele>
        <time>2022-07-11T11:42:25Z</time>
      </trkpt>
      <trkpt lat="42.6556967665" lon="0.0558062084">
        <ele>2681.73</ele>
        <time>2022-07-11T11:42:39Z</time>
      </trkpt>
      <trkpt lat="42.6556937490" lon="0.0557971559">
        <ele>2681.73</ele>
        <time>2022-07-11T11:42:40Z</time>
      </trkpt>
      <trkpt lat="42.6556944195" lon="0.0555687491">
        <ele>2681.73</ele>
        <time>2022-07-11T11:42:57Z</time>
      </trkpt>
      <trkpt lat="42.6557035558" lon="0.0554645620">
        <ele>2683.66</ele>
        <time>2022-07-11T11:43:06Z</time>
      </trkpt>
      <trkpt lat="42.6557136979" lon="0.0553166214">
        <ele>2684.62</ele>
        <time>2022-07-11T11:43:19Z</time>
      </trkpt>
      <trkpt lat="42.6557421125" lon="0.0551222451">
        <ele>2686.54</ele>
        <time>2022-07-11T11:43:35Z</time>
      </trkpt>
      <trkpt lat="42.6557426155" lon="0.0550939981">
        <ele>2686.54</ele>
        <time>2022-07-11T11:43:37Z</time>
      </trkpt>
      <trkpt lat="42.6557673421" lon="0.0548963528">
        <ele>2687.50</ele>
        <time>2022-07-11T11:43:52Z</time>
      </trkpt>
      <trkpt lat="42.6557823457" lon="0.0548271183">
        <ele>2687.98</ele>
        <time>2022-07-11T11:43:57Z</time>
      </trkpt>
      <trkpt lat="42.6557987742" lon="0.0546899065">
        <ele>2688.94</ele>
        <time>2022-07-11T11:44:08Z</time>
      </trkpt>
      <trkpt lat="42.6558014564" lon="0.0546269584">
        <ele>2688.94</ele>
        <time>2022-07-11T11:44:12Z</time>
      </trkpt>
      <trkpt lat="42.6558462996" lon="0.0544335041">
        <ele>2688.94</ele>
        <time>2022-07-11T11:44:27Z</time>
      </trkpt>
      <trkpt lat="42.6559230778" lon="0.0542237889">
        <ele>2690.39</ele>
        <time>2022-07-11T11:44:45Z</time>
      </trkpt>
      <trkpt lat="42.6559592877" lon="0.0541171711">
        <ele>2690.87</ele>
        <time>2022-07-11T11:44:55Z</time>
      </trkpt>
      <trkpt lat="42.6560599543" lon="0.0539571606">
        <ele>2692.31</ele>
        <time>2022-07-11T11:45:11Z</time>
      </trkpt>
      <trkpt lat="42.6561648119" lon="0.0537787098">
        <ele>2693.75</ele>
        <time>2022-07-11T11:45:29Z</time>
      </trkpt>
      <trkpt lat="42.6562617905" lon="0.0536463596">
        <ele>2694.71</ele>
        <time>2022-07-11T11:45:45Z</time>
      </trkpt>
      <trkpt lat="42.6562759560" lon="0.0536324456">
        <ele>2695.19</ele>
        <time>2022-07-11T11:45:47Z</time>
      </trkpt>
      <trkpt lat="42.6563851722" lon="0.0534865167">
        <ele>2696.15</ele>
        <time>2022-07-11T11:46:03Z</time>
      </trkpt>
      <trkpt lat="42.6565145887" lon="0.0533498079">
        <ele>2696.15</ele>
        <time>2022-07-11T11:46:19Z</time>
      </trkpt>
      <trkpt lat="42.6565079670" lon="0.0533287693">
        <ele>2696.64</ele>
        <time>2022-07-11T11:46:36Z</time>
      </trkpt>
      <trkpt lat="42.6564960647" lon="0.0533319544">
        <ele>2696.15</ele>
        <time>2022-07-11T11:47:10Z</time>
      </trkpt>
      <trkpt lat="42.6565171871" lon="0.0533461198">
        <ele>2696.15</ele>
        <time>2022-07-11T11:47:25Z</time>
      </trkpt>
      <trkpt lat="42.6565417461" lon="0.0533303618">
        <ele>2695.67</ele>
        <time>2022-07-11T11:47:52Z</time>
      </trkpt>
      <trkpt lat="42.6565523911" lon="0.0532897934">
        <ele>2695.19</ele>
        <time>2022-07-11T11:48:14Z</time>
      </trkpt>
      <trkpt lat="42.6565956417" lon="0.0532505661">
        <ele>2694.71</ele>
        <time>2022-07-11T11:48:20Z</time>
      </trkpt>
      <trkpt lat="42.6567244716" lon="0.0532763824">
        <ele>2694.23</ele>
        <time>2022-07-11T11:48:35Z</time>
      </trkpt>
      <trkpt lat="42.6568413153" lon="0.0532196369">
        <ele>2692.31</ele>
        <time>2022-07-11T11:48:49Z</time>
      </trkpt>
      <trkpt lat="42.6569612604" lon="0.0531846005">
        <ele>2690.39</ele>
        <time>2022-07-11T11:49:03Z</time>
      </trkpt>
      <trkpt lat="42.6570009906" lon="0.0531545933">
        <ele>2690.39</ele>
        <time>2022-07-11T11:49:07Z</time>
      </trkpt>
      <trkpt lat="42.6571322512" lon="0.0530268531">
        <ele>2689.43</ele>
        <time>2022-07-11T11:49:23Z</time>
      </trkpt>
      <trkpt lat="42.6572039165" lon="0.0529929902">
        <ele>2688.46</ele>
        <time>2022-07-11T11:49:33Z</time>
      </trkpt>
      <trkpt lat="42.6572296489" lon="0.0529901404">
        <ele>2688.46</ele>
        <time>2022-07-11T11:49:36Z</time>
      </trkpt>
      <trkpt lat="42.6573709678" lon="0.0529193971">
        <ele>2687.50</ele>
        <time>2022-07-11T11:49:51Z</time>
      </trkpt>
      <trkpt lat="42.6574860513" lon="0.0528324768">
        <ele>2687.50</ele>
        <time>2022-07-11T11:50:04Z</time>
      </trkpt>
      <trkpt lat="42.6575466525" lon="0.0528048165">
        <ele>2685.58</ele>
        <time>2022-07-11T11:50:16Z</time>
      </trkpt>
      <trkpt lat="42.6576355845" lon="0.0526949298">
        <ele>2683.18</ele>
        <time>2022-07-11T11:50:31Z</time>
      </trkpt>
      <trkpt lat="42.6577158831" lon="0.0526134577">
        <ele>2681.25</ele>
        <time>2022-07-11T11:50:41Z</time>
      </trkpt>
      <trkpt lat="42.6577308867" lon="0.0525902398">
        <ele>2681.25</ele>
        <time>2022-07-11T11:50:43Z</time>
      </trkpt>
      <trkpt lat="42.6577705331" lon="0.0525407866">
        <ele>2681.73</ele>
        <time>2022-07-11T11:50:47Z</time>
      </trkpt>
      <trkpt lat="42.6578146219" lon="0.0524671935">
        <ele>2681.73</ele>
        <time>2022-07-11T11:50:53Z</time>
      </trkpt>
      <trkpt lat="42.6579061523" lon="0.0523156486">
        <ele>2681.25</ele>
        <time>2022-07-11T11:51:06Z</time>
      </trkpt>
      <trkpt lat="42.6579499058" lon="0.0523089431">
        <ele>2681.25</ele>
        <time>2022-07-11T11:51:10Z</time>
      </trkpt>
      <trkpt lat="42.6580202300" lon="0.0522630103">
        <ele>2681.25</ele>
        <time>2022-07-11T11:51:18Z</time>
      </trkpt>
      <trkpt lat="42.6580644026" lon="0.0522184186">
        <ele>2681.25</ele>
        <time>2022-07-11T11:51:24Z</time>
      </trkpt>
      <trkpt lat="42.6581374928" lon="0.0520741660">
        <ele>2679.81</ele>
        <time>2022-07-11T11:51:37Z</time>
      </trkpt>
      <trkpt lat="42.6582254190" lon="0.0519260578">
        <ele>2678.85</ele>
        <time>2022-07-11T11:51:49Z</time>
      </trkpt>
      <trkpt lat="42.6583171170" lon="0.0517181028">
        <ele>2677.41</ele>
        <time>2022-07-11T11:52:05Z</time>
      </trkpt>
      <trkpt lat="42.6583416760" lon="0.0516789593">
        <ele>2677.41</ele>
        <time>2022-07-11T11:52:09Z</time>
      </trkpt>
      <trkpt lat="42.6583772991" lon="0.0516357925">
        <ele>2677.41</ele>
        <time>2022-07-11T11:52:13Z</time>
      </trkpt>
      <trkpt lat="42.6584068872" lon="0.0515741855">
        <ele>2677.41</ele>
        <time>2022-07-11T11:52:18Z</time>
      </trkpt>
      <trkpt lat="42.6584151853" lon="0.0515402388">
        <ele>2677.41</ele>
        <time>2022-07-11T11:52:20Z</time>
      </trkpt>
      <trkpt lat="42.6584403310" lon="0.0515037775">
        <ele>2677.41</ele>
        <time>2022-07-11T11:52:23Z</time>
      </trkpt>
      <trkpt lat="42.6584521495" lon="0.0514782127">
        <ele>2677.41</ele>
        <time>2022-07-11T11:52:25Z</time>
      </trkpt>
      <trkpt lat="42.6584629621" lon="0.0514232274">
        <ele>2677.41</ele>
        <time>2022-07-11T11:52:29Z</time>
      </trkpt>
      <trkpt lat="42.6585169416" lon="0.0513524842">
        <ele>2679.33</ele>
        <time>2022-07-11T11:52:38Z</time>
      </trkpt>
      <trkpt lat="42.6585675683" lon="0.0512851775">
        <ele>2678.85</ele>
        <time>2022-07-11T11:52:54Z</time>
      </trkpt>
      <trkpt lat="42.6585730165" lon="0.0512872729">
        <ele>2680.29</ele>
        <time>2022-07-11T11:52:59Z</time>
      </trkpt>
      <trkpt lat="42.6585380640" lon="0.0512569305">
        <ele>2678.85</ele>
        <time>2022-07-11T11:53:08Z</time>
      </trkpt>
      <trkpt lat="42.6585444342" lon="0.0512364786">
        <ele>2678.85</ele>
        <time>2022-07-11T11:53:10Z</time>
      </trkpt>
      <trkpt lat="42.6585598569" lon="0.0512004364">
        <ele>2678.37</ele>
        <time>2022-07-11T11:53:13Z</time>
      </trkpt>
      <trkpt lat="42.6586651336" lon="0.0510085747">
        <ele>2675.49</ele>
        <time>2022-07-11T11:53:28Z</time>
      </trkpt>
      <trkpt lat="42.6586736832" lon="0.0509473868">
        <ele>2675.01</ele>
        <time>2022-07-11T11:53:34Z</time>
      </trkpt>
      <trkpt lat="42.6586870942" lon="0.0508865342">
        <ele>2674.04</ele>
        <time>2022-07-11T11:53:38Z</time>
      </trkpt>
      <trkpt lat="42.6587007567" lon="0.0507825147">
        <ele>2674.04</ele>
        <time>2022-07-11T11:53:44Z</time>
      </trkpt>
      <trkpt lat="42.6587238070" lon="0.0506869610">
        <ele>2673.08</ele>
        <time>2022-07-11T11:53:50Z</time>
      </trkpt>
      <trkpt lat="42.6587674767" lon="0.0505877193">
        <ele>2672.12</ele>
        <time>2022-07-11T11:53:58Z</time>
      </trkpt>
      <trkpt lat="42.6588561572" lon="0.0504134595">
        <ele>2670.20</ele>
        <time>2022-07-11T11:54:12Z</time>
      </trkpt>
      <trkpt lat="42.6589300018" lon="0.0503334962">
        <ele>2667.31</ele>
        <time>2022-07-11T11:54:25Z</time>
      </trkpt>
      <trkpt lat="42.6589920279" lon="0.0502941851">
        <ele>2664.43</ele>
        <time>2022-07-11T11:54:41Z</time>
      </trkpt>
      <trkpt lat="42.6590103004" lon="0.0503033213">
        <ele>2663.95</ele>
        <time>2022-07-11T11:54:43Z</time>
      </trkpt>
      <trkpt lat="42.6590579096" lon="0.0503022317">
        <ele>2663.47</ele>
        <time>2022-07-11T11:54:48Z</time>
      </trkpt>
      <trkpt lat="42.6591159124" lon="0.0502335001">
        <ele>2660.11</ele>
        <time>2022-07-11T11:55:01Z</time>
      </trkpt>
      <trkpt lat="42.6591865718" lon="0.0502102822">
        <ele>2657.70</ele>
        <time>2022-07-11T11:55:13Z</time>
      </trkpt>
      <trkpt lat="42.6592471730" lon="0.0501092803">
        <ele>2654.82</ele>
        <time>2022-07-11T11:55:26Z</time>
      </trkpt>
      <trkpt lat="42.6592545491" lon="0.0500050094">
        <ele>2651.93</ele>
        <time>2022-07-11T11:55:36Z</time>
      </trkpt>
      <trkpt lat="42.6593210176" lon="0.0498524588">
        <ele>2649.05</ele>
        <time>2022-07-11T11:55:52Z</time>
      </trkpt>
      <trkpt lat="42.6593515277" lon="0.0497707352">
        <ele>2646.17</ele>
        <time>2022-07-11T11:56:03Z</time>
      </trkpt>
      <trkpt lat="42.6593076065" lon="0.0496589206">
        <ele>2643.28</ele>
        <time>2022-07-11T11:56:15Z</time>
      </trkpt>
      <trkpt lat="42.6593516953" lon="0.0495615229">
        <ele>2640.40</ele>
        <time>2022-07-11T11:56:27Z</time>
      </trkpt>
      <trkpt lat="42.6594267972" lon="0.0494830683">
        <ele>2638.48</ele>
        <time>2022-07-11T11:56:40Z</time>
      </trkpt>
      <trkpt lat="42.6594546251" lon="0.0493473653">
        <ele>2635.11</ele>
        <time>2022-07-11T11:56:53Z</time>
      </trkpt>
      <trkpt lat="42.6594747417" lon="0.0492852554">
        <ele>2633.67</ele>
        <time>2022-07-11T11:56:59Z</time>
      </trkpt>
      <trkpt lat="42.6594376098" lon="0.0492482074">
        <ele>2633.67</ele>
        <time>2022-07-11T11:57:04Z</time>
      </trkpt>
      <trkpt lat="42.6593951136" lon="0.0491243228">
        <ele>2630.30</ele>
        <time>2022-07-11T11:57:19Z</time>
      </trkpt>
      <trkpt lat="42.6594077703" lon="0.0491055474">
        <ele>2630.30</ele>
        <time>2022-07-11T11:57:21Z</time>
      </trkpt>
      <trkpt lat="42.6594257914" lon="0.0490072276">
        <ele>2627.42</ele>
        <time>2022-07-11T11:57:33Z</time>
      </trkpt>
      <trkpt lat="42.6594634261" lon="0.0489318743">
        <ele>2625.98</ele>
        <time>2022-07-11T11:57:41Z</time>
      </trkpt>
      <trkpt lat="42.6594358496" lon="0.0488208141">
        <ele>2624.06</ele>
        <time>2022-07-11T11:57:53Z</time>
      </trkpt>
      <trkpt lat="42.6594850514" lon="0.0487968419">
        <ele>2621.65</ele>
        <time>2022-07-11T11:58:04Z</time>
      </trkpt>
      <trkpt lat="42.6595094427" lon="0.0487400964">
        <ele>2620.21</ele>
        <time>2022-07-11T11:58:10Z</time>
      </trkpt>
      <trkpt lat="42.6595881488" lon="0.0486566126">
        <ele>2618.29</ele>
        <time>2022-07-11T11:58:24Z</time>
      </trkpt>
      <trkpt lat="42.6596561261" lon="0.0484512560">
        <ele>2616.85</ele>
        <time>2022-07-11T11:58:40Z</time>
      </trkpt>
      <trkpt lat="42.6596950181" lon="0.0483229291">
        <ele>2613.96</ele>
        <time>2022-07-11T11:58:53Z</time>
      </trkpt>
      <trkpt lat="42.6597247738" lon="0.0482968614">
        <ele>2613.96</ele>
        <time>2022-07-11T11:59:00Z</time>
      </trkpt>
      <trkpt lat="42.6597629115" lon="0.0482314825">
        <ele>2615.40</ele>
        <time>2022-07-11T11:59:09Z</time>
      </trkpt>
      <trkpt lat="42.6597787533" lon="0.0481764972">
        <ele>2616.37</ele>
        <time>2022-07-11T11:59:15Z</time>
      </trkpt>
      <trkpt lat="42.6597404480" lon="0.0480383635">
        <ele>2615.88</ele>
        <time>2022-07-11T11:59:28Z</time>
      </trkpt>
      <trkpt lat="42.6596831158" lon="0.0479836296">
        <ele>2613.00</ele>
        <time>2022-07-11T11:59:41Z</time>
      </trkpt>
      <trkpt lat="42.6596702915" lon="0.0479661953">
        <ele>2611.56</ele>
        <time>2022-07-11T11:59:46Z</time>
      </trkpt>
      <trkpt lat="42.6596790925" lon="0.0479299016">
        <ele>2611.08</ele>
        <time>2022-07-11T11:59:50Z</time>
      </trkpt>
      <trkpt lat="42.6596738119" lon="0.0478466693">
        <ele>2609.64</ele>
        <time>2022-07-11T12:00:00Z</time>
      </trkpt>
      <trkpt lat="42.6596580539" lon="0.0477589946">
        <ele>2608.19</ele>
        <time>2022-07-11T12:00:15Z</time>
      </trkpt>
      <trkpt lat="42.6596547849" lon="0.0477562286">
        <ele>2608.19</ele>
        <time>2022-07-11T12:00:28Z</time>
      </trkpt>
      <trkpt lat="42.6596510131" lon="0.0476864912">
        <ele>2607.71</ele>
        <time>2022-07-11T12:00:33Z</time>
      </trkpt>
      <trkpt lat="42.6596727222" lon="0.0474984013">
        <ele>2605.79</ele>
        <time>2022-07-11T12:00:46Z</time>
      </trkpt>
      <trkpt lat="42.6596904919" lon="0.0474662147">
        <ele>2605.31</ele>
        <time>2022-07-11T12:00:49Z</time>
      </trkpt>
      <trkpt lat="42.6596878935" lon="0.0472562481">
        <ele>2604.83</ele>
        <time>2022-07-11T12:01:03Z</time>
      </trkpt>
      <trkpt lat="42.6596955210" lon="0.0470845867">
        <ele>2603.87</ele>
        <time>2022-07-11T12:01:17Z</time>
      </trkpt>
      <trkpt lat="42.6597000472" lon="0.0468252506">
        <ele>2603.39</ele>
        <time>2022-07-11T12:01:34Z</time>
      </trkpt>
      <trkpt lat="42.6597218402" lon="0.0465643220">
        <ele>2601.95</ele>
        <time>2022-07-11T12:01:50Z</time>
      </trkpt>
      <trkpt lat="42.6597201638" lon="0.0464866217">
        <ele>2601.95</ele>
        <time>2022-07-11T12:01:55Z</time>
      </trkpt>
      <trkpt lat="42.6597269531" lon="0.0464237574">
        <ele>2601.95</ele>
        <time>2022-07-11T12:01:59Z</time>
      </trkpt>
      <trkpt lat="42.6597168949" lon="0.0462906528">
        <ele>2601.95</ele>
        <time>2022-07-11T12:02:07Z</time>
      </trkpt>
      <trkpt lat="42.6597358380" lon="0.0460857991">
        <ele>2601.95</ele>
        <time>2022-07-11T12:02:22Z</time>
      </trkpt>
      <trkpt lat="42.6597561222" lon="0.0459764153">
        <ele>2601.95</ele>
        <time>2022-07-11T12:02:30Z</time>
      </trkpt>
      <trkpt lat="42.6597785018" lon="0.0458735693">
        <ele>2601.46</ele>
        <time>2022-07-11T12:02:37Z</time>
      </trkpt>
      <trkpt lat="42.6598272007" lon="0.0456547178">
        <ele>2602.43</ele>
        <time>2022-07-11T12:02:53Z</time>
      </trkpt>
      <trkpt lat="42.6598301344" lon="0.0456441566">
        <ele>2602.43</ele>
        <time>2022-07-11T12:02:54Z</time>
      </trkpt>
      <trkpt lat="42.6598685235" lon="0.0454630237">
        <ele>2602.91</ele>
        <time>2022-07-11T12:03:09Z</time>
      </trkpt>
      <trkpt lat="42.6598676015" lon="0.0454363693">
        <ele>2601.46</ele>
        <time>2022-07-11T12:03:11Z</time>
      </trkpt>
      <trkpt lat="42.6598403603" lon="0.0453505386">
        <ele>2599.06</ele>
        <time>2022-07-11T12:03:21Z</time>
      </trkpt>
      <trkpt lat="42.6598937530" lon="0.0451311842">
        <ele>2596.18</ele>
        <time>2022-07-11T12:03:37Z</time>
      </trkpt>
      <trkpt lat="42.6599921566" lon="0.0449417531">
        <ele>2595.70</ele>
        <time>2022-07-11T12:03:52Z</time>
      </trkpt>
      <trkpt lat="42.6600620616" lon="0.0447903760">
        <ele>2594.25</ele>
        <time>2022-07-11T12:04:07Z</time>
      </trkpt>
      <trkpt lat="42.6600499079" lon="0.0447666552">
        <ele>2593.29</ele>
        <time>2022-07-11T12:04:19Z</time>
      </trkpt>
      <trkpt lat="42.6600424480" lon="0.0447308645">
        <ele>2591.37</ele>
        <time>2022-07-11T12:04:30Z</time>
      </trkpt>
      <trkpt lat="42.6599622332" lon="0.0446923077">
        <ele>2588.97</ele>
        <time>2022-07-11T12:04:44Z</time>
      </trkpt>
      <trkpt lat="42.6599383447" lon="0.0445862766">
        <ele>2586.56</ele>
        <time>2022-07-11T12:04:55Z</time>
      </trkpt>
      <trkpt lat="42.6598905679" lon="0.0444070715">
        <ele>2585.60</ele>
        <time>2022-07-11T12:05:11Z</time>
      </trkpt>
      <trkpt lat="42.6598292962" lon="0.0443007052">
        <ele>2585.60</ele>
        <time>2022-07-11T12:05:22Z</time>
      </trkpt>
      <trkpt lat="42.6598072518" lon="0.0442701112">
        <ele>2584.16</ele>
        <time>2022-07-11T12:05:25Z</time>
      </trkpt>
      <trkpt lat="42.6597784180" lon="0.0442512520">
        <ele>2583.68</ele>
        <time>2022-07-11T12:05:28Z</time>
      </trkpt>
      <trkpt lat="42.6597122010" lon="0.0440784171">
        <ele>2581.76</ele>
        <time>2022-07-11T12:05:40Z</time>
      </trkpt>
      <trkpt lat="42.6596592274" lon="0.0439894013">
        <ele>2580.80</ele>
        <time>2022-07-11T12:05:47Z</time>
      </trkpt>
      <trkpt lat="42.6595635060" lon="0.0437677838">
        <ele>2579.84</ele>
        <time>2022-07-11T12:06:03Z</time>
      </trkpt>
      <trkpt lat="42.6595650986" lon="0.0437524449">
        <ele>2579.84</ele>
        <time>2022-07-11T12:06:04Z</time>
      </trkpt>
      <trkpt lat="42.6595376898" lon="0.0435109623">
        <ele>2579.35</ele>
        <time>2022-07-11T12:06:19Z</time>
      </trkpt>
      <trkpt lat="42.6595347561" lon="0.0434969645">
        <ele>2578.87</ele>
        <time>2022-07-11T12:06:20Z</time>
      </trkpt>
      <trkpt lat="42.6594635099" lon="0.0433663744">
        <ele>2577.91</ele>
        <time>2022-07-11T12:06:31Z</time>
      </trkpt>
      <trkpt lat="42.6594503503" lon="0.0432751793">
        <ele>2576.47</ele>
        <time>2022-07-11T12:06:38Z</time>
      </trkpt>
      <trkpt lat="42.6594563015" lon="0.0432177633">
        <ele>2575.51</ele>
        <time>2022-07-11T12:06:42Z</time>
      </trkpt>
      <trkpt lat="42.6594226900" lon="0.0431406498">
        <ele>2574.55</ele>
        <time>2022-07-11T12:06:49Z</time>
      </trkpt>
      <trkpt lat="42.6593587361" lon="0.0431081280">
        <ele>2571.66</ele>
        <time>2022-07-11T12:06:56Z</time>
      </trkpt>
      <trkpt lat="42.6592636853" lon="0.0430622790">
        <ele>2569.26</ele>
        <time>2022-07-11T12:07:09Z</time>
      </trkpt>
      <trkpt lat="42.6592667866" lon="0.0430257339">
        <ele>2567.82</ele>
        <time>2022-07-11T12:07:14Z</time>
      </trkpt>
      <trkpt lat="42.6592097897" lon="0.0429397356">
        <ele>2564.93</ele>
        <time>2022-07-11T12:07:28Z</time>
      </trkpt>
      <trkpt lat="42.6591916010" lon="0.0429073814">
        <ele>2562.53</ele>
        <time>2022-07-11T12:07:39Z</time>
      </trkpt>
      <trkpt lat="42.6591829676" lon="0.0428800564">
        <ele>2560.13</ele>
        <time>2022-07-11T12:07:49Z</time>
      </trkpt>
      <trkpt lat="42.6591940317" lon="0.0427815691">
        <ele>2559.17</ele>
        <time>2022-07-11T12:08:03Z</time>
      </trkpt>
      <trkpt lat="42.6591428183" lon="0.0427337922">
        <ele>2556.76</ele>
        <time>2022-07-11T12:08:14Z</time>
      </trkpt>
      <trkpt lat="42.6590723265" lon="0.0427163579">
        <ele>2554.36</ele>
        <time>2022-07-11T12:08:32Z</time>
      </trkpt>
      <trkpt lat="42.6590662077" lon="0.0427220576">
        <ele>2554.36</ele>
        <time>2022-07-11T12:08:33Z</time>
      </trkpt>
      <trkpt lat="42.6589832269" lon="0.0427502207">
        <ele>2551.96</ele>
        <time>2022-07-11T12:08:48Z</time>
      </trkpt>
      <trkpt lat="42.6589258108" lon="0.0426262524">
        <ele>2550.03</ele>
        <time>2022-07-11T12:09:01Z</time>
      </trkpt>
      <trkpt lat="42.6589042693" lon="0.0425027031">
        <ele>2548.11</ele>
        <time>2022-07-11T12:09:12Z</time>
      </trkpt>
      <trkpt lat="42.6589057781" lon="0.0424775574">
        <ele>2548.11</ele>
        <time>2022-07-11T12:09:14Z</time>
      </trkpt>
      <trkpt lat="42.6588858292" lon="0.0423844345">
        <ele>2546.67</ele>
        <time>2022-07-11T12:09:27Z</time>
      </trkpt>
      <trkpt lat="42.6587993279" lon="0.0424048863">
        <ele>2545.23</ele>
        <time>2022-07-11T12:09:42Z</time>
      </trkpt>
      <trkpt lat="42.6587735955" lon="0.0424202252">
        <ele>2545.23</ele>
        <time>2022-07-11T12:09:45Z</time>
      </trkpt>
      <trkpt lat="42.6587307639" lon="0.0424599554">
        <ele>2542.82</ele>
        <time>2022-07-11T12:09:58Z</time>
      </trkpt>
      <trkpt lat="42.6587050315" lon="0.0424744561">
        <ele>2541.86</ele>
        <time>2022-07-11T12:10:03Z</time>
      </trkpt>
      <trkpt lat="42.6586393174" lon="0.0424626376">
        <ele>2539.94</ele>
        <time>2022-07-11T12:10:13Z</time>
      </trkpt>
      <trkpt lat="42.6586248167" lon="0.0424519926">
        <ele>2538.98</ele>
        <time>2022-07-11T12:10:16Z</time>
      </trkpt>
      <trkpt lat="42.6585944742" lon="0.0424304511">
        <ele>2538.50</ele>
        <time>2022-07-11T12:10:20Z</time>
      </trkpt>
      <trkpt lat="42.6585496310" lon="0.0424220692">
        <ele>2537.06</ele>
        <time>2022-07-11T12:10:33Z</time>
      </trkpt>
      <trkpt lat="42.6585228927" lon="0.0423984323">
        <ele>2534.17</ele>
        <time>2022-07-11T12:10:48Z</time>
      </trkpt>
      <trkpt lat="42.6584565081" lon="0.0423794053">
        <ele>2532.25</ele>
        <time>2022-07-11T12:11:00Z</time>
      </trkpt>
      <trkpt lat="42.6584581006" lon="0.0423291139">
        <ele>2529.37</ele>
        <time>2022-07-11T12:11:14Z</time>
      </trkpt>
      <trkpt lat="42.6584628783" lon="0.0423053093">
        <ele>2527.92</ele>
        <time>2022-07-11T12:11:27Z</time>
      </trkpt>
      <trkpt lat="42.6584570110" lon="0.0422380865">
        <ele>2526.48</ele>
        <time>2022-07-11T12:11:40Z</time>
      </trkpt>
      <trkpt lat="42.6584296022" lon="0.0421849452">
        <ele>2523.12</ele>
        <time>2022-07-11T12:11:53Z</time>
      </trkpt>
      <trkpt lat="42.6583789755" lon="0.0421512499">
        <ele>2519.75</ele>
        <time>2022-07-11T12:12:03Z</time>
      </trkpt>
      <trkpt lat="42.6583437715" lon="0.0420827698">
        <ele>2517.83</ele>
        <time>2022-07-11T12:12:16Z</time>
      </trkpt>
      <trkpt lat="42.6582894567" lon="0.0420353282">
        <ele>2514.47</ele>
        <time>2022-07-11T12:12:26Z</time>
      </trkpt>
      <trkpt lat="42.6583106630" lon="0.0420097634">
        <ele>2512.54</ele>
        <time>2022-07-11T12:12:40Z</time>
      </trkpt>
      <trkpt lat="42.6583873574" lon="0.0419404451">
        <ele>2509.18</ele>
        <time>2022-07-11T12:12:55Z</time>
      </trkpt>
      <trkpt lat="42.6584284287" lon="0.0418618228">
        <ele>2506.77</ele>
        <time>2022-07-11T12:13:08Z</time>
      </trkpt>
      <trkpt lat="42.6584710088" lon="0.0417622458">
        <ele>2503.89</ele>
        <time>2022-07-11T12:13:19Z</time>
      </trkpt>
      <trkpt lat="42.6584664825" lon="0.0417484157">
        <ele>2503.89</ele>
        <time>2022-07-11T12:13:20Z</time>
      </trkpt>
      <trkpt lat="42.6584565919" lon="0.0416124612">
        <ele>2500.05</ele>
        <time>2022-07-11T12:13:35Z</time>
      </trkpt>
      <trkpt lat="42.6584709249" lon="0.0415871479">
        <ele>2499.57</ele>
        <time>2022-07-11T12:13:38Z</time>
      </trkpt>
      <trkpt lat="42.6585815661" lon="0.0414810330">
        <ele>2497.16</ele>
        <time>2022-07-11T12:13:55Z</time>
      </trkpt>
      <trkpt lat="42.6586411614" lon="0.0413985550">
        <ele>2493.80</ele>
        <time>2022-07-11T12:14:06Z</time>
      </trkpt>
      <trkpt lat="42.6586448494" lon="0.0413893349">
        <ele>2493.80</ele>
        <time>2022-07-11T12:14:07Z</time>
      </trkpt>
      <trkpt lat="42.6586599369" lon="0.0413869042">
        <ele>2493.32</ele>
        <time>2022-07-11T12:14:09Z</time>
      </trkpt>
      <trkpt lat="42.6587283332" lon="0.0413247943">
        <ele>2492.36</ele>
        <time>2022-07-11T12:14:18Z</time>
      </trkpt>
      <trkpt lat="42.6588251442" lon="0.0411992334">
        <ele>2491.87</ele>
        <time>2022-07-11T12:14:32Z</time>
      </trkpt>
      <trkpt lat="42.6589243859" lon="0.0410942081">
        <ele>2491.87</ele>
        <time>2022-07-11T12:14:47Z</time>
      </trkpt>
      <trkpt lat="42.6589512080" lon="0.0410580821">
        <ele>2491.39</ele>
        <time>2022-07-11T12:14:57Z</time>
      </trkpt>
      <trkpt lat="42.6592729893" lon="0.0410995726">
        <ele>2468.80</ele>
        <time>2022-07-11T13:10:10Z</time>
      </trkpt>
      <trkpt lat="42.6592789404" lon="0.0411124807">
        <ele>2468.80</ele>
        <time>2022-07-11T13:10:11Z</time>
      </trkpt>
      <trkpt lat="42.6592702232" lon="0.0412316713">
        <ele>2470.24</ele>
        <time>2022-07-11T13:10:28Z</time>
      </trkpt>
      <trkpt lat="42.6589756832" lon="0.0410349481">
        <ele>2473.13</ele>
        <time>2022-07-11T13:10:45Z</time>
      </trkpt>
      <trkpt lat="42.6589407306" lon="0.0410312600">
        <ele>2474.57</ele>
        <time>2022-07-11T13:11:01Z</time>
      </trkpt>
      <trkpt lat="42.6588570792" lon="0.0410046056">
        <ele>2477.94</ele>
        <time>2022-07-11T13:11:14Z</time>
      </trkpt>
      <trkpt lat="42.6588593423" lon="0.0409714133">
        <ele>2479.38</ele>
        <time>2022-07-11T13:11:19Z</time>
      </trkpt>
      <trkpt lat="42.6588274911" lon="0.0408546533">
        <ele>2482.26</ele>
        <time>2022-07-11T13:11:32Z</time>
      </trkpt>
      <trkpt lat="42.6587696560" lon="0.0407667272">
        <ele>2482.26</ele>
        <time>2022-07-11T13:11:45Z</time>
      </trkpt>
      <trkpt lat="42.6587336138" lon="0.0407081377">
        <ele>2480.34</ele>
        <time>2022-07-11T13:11:55Z</time>
      </trkpt>
      <trkpt lat="42.6587007567" lon="0.0405980833">
        <ele>2480.82</ele>
        <time>2022-07-11T13:12:08Z</time>
      </trkpt>
      <trkpt lat="42.6587009244" lon="0.0405627955">
        <ele>2479.86</ele>
        <time>2022-07-11T13:12:12Z</time>
      </trkpt>
      <trkpt lat="42.6587005053" lon="0.0404600333">
        <ele>2478.90</ele>
        <time>2022-07-11T13:12:25Z</time>
      </trkpt>
      <trkpt lat="42.6586807240" lon="0.0403578579">
        <ele>2476.97</ele>
        <time>2022-07-11T13:12:39Z</time>
      </trkpt>
      <trkpt lat="42.6586716715" lon="0.0402638130">
        <ele>2477.45</ele>
        <time>2022-07-11T13:12:51Z</time>
      </trkpt>
      <trkpt lat="42.6586627867" lon="0.0401494000">
        <ele>2476.01</ele>
        <time>2022-07-11T13:13:03Z</time>
      </trkpt>
      <trkpt lat="42.6586197875" lon="0.0400134455">
        <ele>2474.09</ele>
        <time>2022-07-11T13:13:18Z</time>
      </trkpt>
      <trkpt lat="42.6585839130" lon="0.0398666784">
        <ele>2471.21</ele>
        <time>2022-07-11T13:13:32Z</time>
      </trkpt>
      <trkpt lat="42.6585818175" lon="0.0398302171">
        <ele>2470.73</ele>
        <time>2022-07-11T13:13:35Z</time>
      </trkpt>
      <trkpt lat="42.6585307717" lon="0.0397177320">
        <ele>2468.32</ele>
        <time>2022-07-11T13:13:49Z</time>
      </trkpt>
      <trkpt lat="42.6584819052" lon="0.0396357570">
        <ele>2465.44</ele>
        <time>2022-07-11T13:14:01Z</time>
      </trkpt>
      <trkpt lat="42.6584190410" lon="0.0395105314">
        <ele>2462.55</ele>
        <time>2022-07-11T13:14:16Z</time>
      </trkpt>
      <trkpt lat="42.6583368145" lon="0.0394266285">
        <ele>2459.19</ele>
        <time>2022-07-11T13:14:29Z</time>
      </trkpt>
      <trkpt lat="42.6583074778" lon="0.0393542089">
        <ele>2457.27</ele>
        <time>2022-07-11T13:14:38Z</time>
      </trkpt>
      <trkpt lat="42.6582903787" lon="0.0393191725">
        <ele>2456.31</ele>
        <time>2022-07-11T13:14:41Z</time>
      </trkpt>
      <trkpt lat="42.6582467929" lon="0.0392901711">
        <ele>2455.34</ele>
        <time>2022-07-11T13:14:47Z</time>
      </trkpt>
      <trkpt lat="42.6581395883" lon="0.0392079446">
        <ele>2451.98</ele>
        <time>2022-07-11T13:15:00Z</time>
      </trkpt>
      <trkpt lat="42.6581042167" lon="0.0391956232">
        <ele>2451.50</ele>
        <time>2022-07-11T13:15:04Z</time>
      </trkpt>
      <trkpt lat="42.6580572780" lon="0.0391576532">
        <ele>2451.02</ele>
        <time>2022-07-11T13:15:09Z</time>
      </trkpt>
      <trkpt lat="42.6579965092" lon="0.0390547235">
        <ele>2449.10</ele>
        <time>2022-07-11T13:15:22Z</time>
      </trkpt>
      <trkpt lat="42.6579632331" lon="0.0390543882">
        <ele>2449.10</ele>
        <time>2022-07-11T13:15:25Z</time>
      </trkpt>
      <trkpt lat="42.6579437032" lon="0.0390418153">
        <ele>2449.10</ele>
        <time>2022-07-11T13:15:27Z</time>
      </trkpt>
      <trkpt lat="42.6578936633" lon="0.0390327629">
        <ele>2447.65</ele>
        <time>2022-07-11T13:15:33Z</time>
      </trkpt>
      <trkpt lat="42.6578303799" lon="0.0389658753">
        <ele>2447.65</ele>
        <time>2022-07-11T13:15:40Z</time>
      </trkpt>
      <trkpt lat="42.6577054895" lon="0.0388845708">
        <ele>2446.21</ele>
        <time>2022-07-11T13:15:52Z</time>
      </trkpt>
      <trkpt lat="42.6576298848" lon="0.0388746802">
        <ele>2445.73</ele>
        <time>2022-07-11T13:15:59Z</time>
      </trkpt>
      <trkpt lat="42.6574491709" lon="0.0388248079">
        <ele>2442.37</ele>
        <time>2022-07-11T13:16:16Z</time>
      </trkpt>
      <trkpt lat="42.6574080158" lon="0.0387626980">
        <ele>2440.92</ele>
        <time>2022-07-11T13:16:24Z</time>
      </trkpt>
      <trkpt lat="42.6573534496" lon="0.0386476144">
        <ele>2437.56</ele>
        <time>2022-07-11T13:16:37Z</time>
      </trkpt>
      <trkpt lat="42.6573148090" lon="0.0385333691">
        <ele>2434.68</ele>
        <time>2022-07-11T13:16:50Z</time>
      </trkpt>
      <trkpt lat="42.6573210116" lon="0.0384128373">
        <ele>2432.75</ele>
        <time>2022-07-11T13:17:02Z</time>
      </trkpt>
      <trkpt lat="42.6573254541" lon="0.0383637194">
        <ele>2432.75</ele>
        <time>2022-07-11T13:17:06Z</time>
      </trkpt>
      <trkpt lat="42.6573024876" lon="0.0381843466">
        <ele>2430.35</ele>
        <time>2022-07-11T13:17:19Z</time>
      </trkpt>
      <trkpt lat="42.6572444011" lon="0.0380221568">
        <ele>2426.99</ele>
        <time>2022-07-11T13:17:38Z</time>
      </trkpt>
      <trkpt lat="42.6572500169" lon="0.0379592925">
        <ele>2426.99</ele>
        <time>2022-07-11T13:17:43Z</time>
      </trkpt>
      <trkpt lat="42.6571809500" lon="0.0378616434">
        <ele>2425.06</ele>
        <time>2022-07-11T13:17:56Z</time>
      </trkpt>
      <trkpt lat="42.6570962090" lon="0.0377261918">
        <ele>2421.70</ele>
        <time>2022-07-11T13:18:11Z</time>
      </trkpt>
      <trkpt lat="42.6570418943" lon="0.0375605654">
        <ele>2418.33</ele>
        <time>2022-07-11T13:18:26Z</time>
      </trkpt>
      <trkpt lat="42.6570420619" lon="0.0375474058">
        <ele>2418.33</ele>
        <time>2022-07-11T13:18:27Z</time>
      </trkpt>
      <trkpt lat="42.6570344344" lon="0.0374492537">
        <ele>2416.89</ele>
        <time>2022-07-11T13:18:35Z</time>
      </trkpt>
      <trkpt lat="42.6570149045" lon="0.0373895746">
        <ele>2415.45</ele>
        <time>2022-07-11T13:18:40Z</time>
      </trkpt>
      <trkpt lat="42.6569056045" lon="0.0372930150">
        <ele>2414.49</ele>
        <time>2022-07-11T13:18:51Z</time>
      </trkpt>
      <trkpt lat="42.6567376312" lon="0.0372000597">
        <ele>2414.49</ele>
        <time>2022-07-11T13:19:08Z</time>
      </trkpt>
      <trkpt lat="42.6567259803" lon="0.0371968746">
        <ele>2414.49</ele>
        <time>2022-07-11T13:19:09Z</time>
      </trkpt>
      <trkpt lat="42.6566908602" lon="0.0372089446">
        <ele>2414.49</ele>
        <time>2022-07-11T13:19:12Z</time>
      </trkpt>
      <trkpt lat="42.6566336118" lon="0.0372018199">
        <ele>2414.49</ele>
        <time>2022-07-11T13:19:17Z</time>
      </trkpt>
      <trkpt lat="42.6565923728" lon="0.0371830445">
        <ele>2414.49</ele>
        <time>2022-07-11T13:19:21Z</time>
      </trkpt>
      <trkpt lat="42.6565277483" lon="0.0370635185">
        <ele>2415.93</ele>
        <time>2022-07-11T13:19:32Z</time>
      </trkpt>
      <trkpt lat="42.6564090606" lon="0.0368632749">
        <ele>2415.93</ele>
        <time>2022-07-11T13:19:48Z</time>
      </trkpt>
      <trkpt lat="42.6563585177" lon="0.0367174298">
        <ele>2415.93</ele>
        <time>2022-07-11T13:19:58Z</time>
      </trkpt>
      <trkpt lat="42.6562796440" lon="0.0364214648">
        <ele>2415.93</ele>
        <time>2022-07-11T13:20:17Z</time>
      </trkpt>
      <trkpt lat="42.6562448591" lon="0.0362877734">
        <ele>2414.49</ele>
        <time>2022-07-11T13:20:31Z</time>
      </trkpt>
      <trkpt lat="42.6562222280" lon="0.0362639688">
        <ele>2414.01</ele>
        <time>2022-07-11T13:20:34Z</time>
      </trkpt>
      <trkpt lat="42.6561610401" lon="0.0361441076">
        <ele>2412.09</ele>
        <time>2022-07-11T13:20:49Z</time>
      </trkpt>
      <trkpt lat="42.6561086532" lon="0.0362255797">
        <ele>2408.72</ele>
        <time>2022-07-11T13:21:04Z</time>
      </trkpt>
      <trkpt lat="42.6560850162" lon="0.0363150146">
        <ele>2407.28</ele>
        <time>2022-07-11T13:21:17Z</time>
      </trkpt>
      <trkpt lat="42.6560718566" lon="0.0364256557">
        <ele>2405.84</ele>
        <time>2022-07-11T13:21:31Z</time>
      </trkpt>
      <trkpt lat="42.6560472138" lon="0.0364387315">
        <ele>2403.91</ele>
        <time>2022-07-11T13:21:44Z</time>
      </trkpt>
      <trkpt lat="42.6560139377" lon="0.0363349635">
        <ele>2402.47</ele>
        <time>2022-07-11T13:21:56Z</time>
      </trkpt>
      <trkpt lat="42.6560042985" lon="0.0361333787">
        <ele>2401.03</ele>
        <time>2022-07-11T13:22:10Z</time>
      </trkpt>
      <trkpt lat="42.6560069807" lon="0.0360544212">
        <ele>2400.55</ele>
        <time>2022-07-11T13:22:16Z</time>
      </trkpt>
      <trkpt lat="42.6560078189" lon="0.0358635653">
        <ele>2400.07</ele>
        <time>2022-07-11T13:22:30Z</time>
      </trkpt>
      <trkpt lat="42.6560064778" lon="0.0358205661">
        <ele>2399.59</ele>
        <time>2022-07-11T13:22:33Z</time>
      </trkpt>
      <trkpt lat="42.6559757162" lon="0.0356592145">
        <ele>2397.18</ele>
        <time>2022-07-11T13:22:48Z</time>
      </trkpt>
      <trkpt lat="42.6559653226" lon="0.0354501698">
        <ele>2395.26</ele>
        <time>2022-07-11T13:23:03Z</time>
      </trkpt>
      <trkpt lat="42.6559591200" lon="0.0352264568">
        <ele>2394.78</ele>
        <time>2022-07-11T13:23:18Z</time>
      </trkpt>
      <trkpt lat="42.6559101697" lon="0.0350907538">
        <ele>2392.38</ele>
        <time>2022-07-11T13:23:31Z</time>
      </trkpt>
      <trkpt lat="42.6558499038" lon="0.0349374488">
        <ele>2389.97</ele>
        <time>2022-07-11T13:23:45Z</time>
      </trkpt>
      <trkpt lat="42.6558333077" lon="0.0348895043">
        <ele>2389.01</ele>
        <time>2022-07-11T13:23:58Z</time>
      </trkpt>
      <trkpt lat="42.6557701081" lon="0.0347864069">
        <ele>2387.09</ele>
        <time>2022-07-11T13:24:13Z</time>
      </trkpt>
      <trkpt lat="42.6557322219" lon="0.0346361194">
        <ele>2384.21</ele>
        <time>2022-07-11T13:24:28Z</time>
      </trkpt>
      <trkpt lat="42.6556628197" lon="0.0345236342">
        <ele>2380.84</ele>
        <time>2022-07-11T13:24:41Z</time>
      </trkpt>
      <trkpt lat="42.6555598900" lon="0.0343754422">
        <ele>2377.96</ele>
        <time>2022-07-11T13:24:57Z</time>
      </trkpt>
      <trkpt lat="42.6554971933" lon="0.0343297608">
        <ele>2376.04</ele>
        <time>2022-07-11T13:25:06Z</time>
      </trkpt>
      <trkpt lat="42.6554588042" lon="0.0341661461">
        <ele>2374.11</ele>
        <time>2022-07-11T13:25:21Z</time>
      </trkpt>
      <trkpt lat="42.6553918328" lon="0.0340421777">
        <ele>2371.71</ele>
        <time>2022-07-11T13:25:35Z</time>
      </trkpt>
      <trkpt lat="42.6553404517" lon="0.0339867733">
        <ele>2369.31</ele>
        <time>2022-07-11T13:25:47Z</time>
      </trkpt>
      <trkpt lat="42.6553375181" lon="0.0338926446">
        <ele>2367.86</ele>
        <time>2022-07-11T13:25:54Z</time>
      </trkpt>
      <trkpt lat="42.6552702952" lon="0.0336706918">
        <ele>2364.98</ele>
        <time>2022-07-11T13:26:12Z</time>
      </trkpt>
      <trkpt lat="42.6552374382" lon="0.0335820112">
        <ele>2363.54</ele>
        <time>2022-07-11T13:26:20Z</time>
      </trkpt>
      <trkpt lat="42.6551805250" lon="0.0333937537">
        <ele>2360.17</ele>
        <time>2022-07-11T13:26:36Z</time>
      </trkpt>
      <trkpt lat="42.6550983824" lon="0.0332720485">
        <ele>2356.81</ele>
        <time>2022-07-11T13:26:49Z</time>
      </trkpt>
      <trkpt lat="42.6550587360" lon="0.0332013052">
        <ele>2355.85</ele>
        <time>2022-07-11T13:26:56Z</time>
      </trkpt>
      <trkpt lat="42.6549155731" lon="0.0330548733">
        <ele>2352.96</ele>
        <time>2022-07-11T13:27:12Z</time>
      </trkpt>
      <trkpt lat="42.6548045129" lon="0.0328969583">
        <ele>2349.12</ele>
        <time>2022-07-11T13:27:28Z</time>
      </trkpt>
      <trkpt lat="42.6547061931" lon="0.0326929428">
        <ele>2346.72</ele>
        <time>2022-07-11T13:27:44Z</time>
      </trkpt>
      <trkpt lat="42.6546045206" lon="0.0324585009">
        <ele>2343.83</ele>
        <time>2022-07-11T13:28:01Z</time>
      </trkpt>
      <trkpt lat="42.6545170136" lon="0.0323457643">
        <ele>2342.87</ele>
        <time>2022-07-11T13:28:19Z</time>
      </trkpt>
      <trkpt lat="42.6544953883" lon="0.0323759392">
        <ele>2342.39</ele>
        <time>2022-07-11T13:28:36Z</time>
      </trkpt>
      <trkpt lat="42.6545047760" lon="0.0323936250">
        <ele>2342.39</ele>
        <time>2022-07-11T13:28:59Z</time>
      </trkpt>
      <trkpt lat="42.6545109786" lon="0.0323747657">
        <ele>2342.39</ele>
        <time>2022-07-11T13:29:20Z</time>
      </trkpt>
      <trkpt lat="42.6545046084" lon="0.0323653780">
        <ele>2342.39</ele>
        <time>2022-07-11T13:29:42Z</time>
      </trkpt>
      <trkpt lat="42.6544916164" lon="0.0323663838">
        <ele>2342.39</ele>
        <time>2022-07-11T13:30:04Z</time>
      </trkpt>
      <trkpt lat="42.6545124035" lon="0.0323626958">
        <ele>2342.39</ele>
        <time>2022-07-11T13:30:25Z</time>
      </trkpt>
      <trkpt lat="42.6545135770" lon="0.0323527213">
        <ele>2342.39</ele>
        <time>2022-07-11T13:30:26Z</time>
      </trkpt>
      <trkpt lat="42.6545225456" lon="0.0322498754">
        <ele>2342.39</ele>
        <time>2022-07-11T13:30:33Z</time>
      </trkpt>
      <trkpt lat="42.6546165906" lon="0.0320042856">
        <ele>2339.02</ele>
        <time>2022-07-11T13:30:51Z</time>
      </trkpt>
      <trkpt lat="42.6546615176" lon="0.0317379925">
        <ele>2337.58</ele>
        <time>2022-07-11T13:31:07Z</time>
      </trkpt>
      <trkpt lat="42.6547190174" lon="0.0315079093">
        <ele>2336.14</ele>
        <time>2022-07-11T13:31:23Z</time>
      </trkpt>
      <trkpt lat="42.6547884196" lon="0.0313670095">
        <ele>2333.74</ele>
        <time>2022-07-11T13:31:35Z</time>
      </trkpt>
      <trkpt lat="42.6547947899" lon="0.0312748924">
        <ele>2331.81</ele>
        <time>2022-07-11T13:31:48Z</time>
      </trkpt>
      <trkpt lat="42.6547988970" lon="0.0312681030">
        <ele>2331.81</ele>
        <time>2022-07-11T13:31:49Z</time>
      </trkpt>
      <trkpt lat="42.6548690535" lon="0.0310765766">
        <ele>2328.45</ele>
        <time>2022-07-11T13:32:03Z</time>
      </trkpt>
      <trkpt lat="42.6548760105" lon="0.0310080126">
        <ele>2325.57</ele>
        <time>2022-07-11T13:32:15Z</time>
      </trkpt>
      <trkpt lat="42.6548842248" lon="0.0309950206">
        <ele>2325.57</ele>
        <time>2022-07-11T13:32:16Z</time>
      </trkpt>
      <trkpt lat="42.6549112145" lon="0.0309791788">
        <ele>2325.09</ele>
        <time>2022-07-11T13:32:21Z</time>
      </trkpt>
      <trkpt lat="42.6549842209" lon="0.0310510956">
        <ele>2324.12</ele>
        <time>2022-07-11T13:32:31Z</time>
      </trkpt>
      <trkpt lat="42.6550464984" lon="0.0310368463">
        <ele>2322.20</ele>
        <time>2022-07-11T13:32:44Z</time>
      </trkpt>
      <trkpt lat="42.6550653577" lon="0.0310273748">
        <ele>2319.80</ele>
        <time>2022-07-11T13:32:50Z</time>
      </trkpt>
      <trkpt lat="42.6550812833" lon="0.0310404506">
        <ele>2319.32</ele>
        <time>2022-07-11T13:32:55Z</time>
      </trkpt>
      <trkpt lat="42.6551065966" lon="0.0310476590">
        <ele>2317.88</ele>
        <time>2022-07-11T13:32:59Z</time>
      </trkpt>
      <trkpt lat="42.6551475842" lon="0.0309412088">
        <ele>2315.47</ele>
        <time>2022-07-11T13:33:07Z</time>
      </trkpt>
      <trkpt lat="42.6551771723" lon="0.0308148097">
        <ele>2312.11</ele>
        <time>2022-07-11T13:33:22Z</time>
      </trkpt>
      <trkpt lat="42.6551835425" lon="0.0307523645">
        <ele>2310.19</ele>
        <time>2022-07-11T13:33:38Z</time>
      </trkpt>
      <trkpt lat="42.6551604923" lon="0.0307682902">
        <ele>2309.70</ele>
        <time>2022-07-11T13:34:04Z</time>
      </trkpt>
      <trkpt lat="42.6551754121" lon="0.0307002291">
        <ele>2309.70</ele>
        <time>2022-07-11T13:34:24Z</time>
      </trkpt>
      <trkpt lat="42.6552098617" lon="0.0305931922">
        <ele>2307.78</ele>
        <time>2022-07-11T13:34:36Z</time>
      </trkpt>
      <trkpt lat="42.6552786771" lon="0.0304857362">
        <ele>2304.42</ele>
        <time>2022-07-11T13:34:49Z</time>
      </trkpt>
      <trkpt lat="42.6552480832" lon="0.0303832255">
        <ele>2302.01</ele>
        <time>2022-07-11T13:34:58Z</time>
      </trkpt>
      <trkpt lat="42.6553148031" lon="0.0302763563">
        <ele>2299.61</ele>
        <time>2022-07-11T13:35:13Z</time>
      </trkpt>
      <trkpt lat="42.6553417929" lon="0.0301704090">
        <ele>2297.69</ele>
        <time>2022-07-11T13:35:26Z</time>
      </trkpt>
      <trkpt lat="42.6553231012" lon="0.0301867537">
        <ele>2297.21</ele>
        <time>2022-07-11T13:35:46Z</time>
      </trkpt>
      <trkpt lat="42.6553190779" lon="0.0301973149">
        <ele>2296.73</ele>
        <time>2022-07-11T13:36:14Z</time>
      </trkpt>
      <trkpt lat="42.6553784218" lon="0.0301743485">
        <ele>2295.28</ele>
        <time>2022-07-11T13:36:29Z</time>
      </trkpt>
      <trkpt lat="42.6554078422" lon="0.0300582591">
        <ele>2292.88</ele>
        <time>2022-07-11T13:36:43Z</time>
      </trkpt>
      <trkpt lat="42.6554332394" lon="0.0299629569">
        <ele>2290.00</ele>
        <time>2022-07-11T13:36:55Z</time>
      </trkpt>
      <trkpt lat="42.6554382686" lon="0.0298771262">
        <ele>2287.11</ele>
        <time>2022-07-11T13:37:07Z</time>
      </trkpt>
      <trkpt lat="42.6554313116" lon="0.0297605339">
        <ele>2284.23</ele>
        <time>2022-07-11T13:37:19Z</time>
      </trkpt>
      <trkpt lat="42.6553879771" lon="0.0296347216">
        <ele>2281.35</ele>
        <time>2022-07-11T13:37:31Z</time>
      </trkpt>
      <trkpt lat="42.6552746538" lon="0.0295094959">
        <ele>2278.94</ele>
        <time>2022-07-11T13:37:46Z</time>
      </trkpt>
      <trkpt lat="42.6551671140" lon="0.0293918978">
        <ele>2276.06</ele>
        <time>2022-07-11T13:38:01Z</time>
      </trkpt>
      <trkpt lat="42.6551601570" lon="0.0293774810">
        <ele>2276.06</ele>
        <time>2022-07-11T13:38:02Z</time>
      </trkpt>
      <trkpt lat="42.6550579816" lon="0.0292401854">
        <ele>2274.14</ele>
        <time>2022-07-11T13:38:14Z</time>
      </trkpt>
      <trkpt lat="42.6550036669" lon="0.0291854516">
        <ele>2273.66</ele>
        <time>2022-07-11T13:38:20Z</time>
      </trkpt>
      <trkpt lat="42.6548985578" lon="0.0290266145">
        <ele>2272.69</ele>
        <time>2022-07-11T13:38:35Z</time>
      </trkpt>
      <trkpt lat="42.6548630185" lon="0.0289822742">
        <ele>2271.73</ele>
        <time>2022-07-11T13:38:39Z</time>
      </trkpt>
      <trkpt lat="42.6548208576" lon="0.0289493334">
        <ele>2271.25</ele>
        <time>2022-07-11T13:38:43Z</time>
      </trkpt>
      <trkpt lat="42.6547345240" lon="0.0287282187">
        <ele>2269.81</ele>
        <time>2022-07-11T13:38:58Z</time>
      </trkpt>
      <trkpt lat="42.6546196919" lon="0.0286000594">
        <ele>2267.41</ele>
        <time>2022-07-11T13:39:12Z</time>
      </trkpt>
      <trkpt lat="42.6546191052" lon="0.0285200123">
        <ele>2265.48</ele>
        <time>2022-07-11T13:39:20Z</time>
      </trkpt>
      <trkpt lat="42.6546258945" lon="0.0284727383">
        <ele>2264.04</ele>
        <time>2022-07-11T13:39:26Z</time>
      </trkpt>
      <trkpt lat="42.6547077019" lon="0.0283674616">
        <ele>2260.68</ele>
        <time>2022-07-11T13:39:39Z</time>
      </trkpt>
      <trkpt lat="42.6547201909" lon="0.0282554794">
        <ele>2257.31</ele>
        <time>2022-07-11T13:39:50Z</time>
      </trkpt>
      <trkpt lat="42.6547196042" lon="0.0282416493">
        <ele>2257.31</ele>
        <time>2022-07-11T13:39:51Z</time>
      </trkpt>
      <trkpt lat="42.6547315065" lon="0.0282056071">
        <ele>2256.83</ele>
        <time>2022-07-11T13:39:53Z</time>
      </trkpt>
      <trkpt lat="42.6547812112" lon="0.0281162560">
        <ele>2255.39</ele>
        <time>2022-07-11T13:40:03Z</time>
      </trkpt>
      <trkpt lat="42.6549496874" lon="0.0280859973">
        <ele>2252.51</ele>
        <time>2022-07-11T13:40:19Z</time>
      </trkpt>
      <trkpt lat="42.6551561337" lon="0.0279982388">
        <ele>2251.54</ele>
        <time>2022-07-11T13:40:36Z</time>
      </trkpt>
      <trkpt lat="42.6553256158" lon="0.0279237237">
        <ele>2250.10</ele>
        <time>2022-07-11T13:40:50Z</time>
      </trkpt>
      <trkpt lat="42.6555068325" lon="0.0278799701">
        <ele>2248.18</ele>
        <time>2022-07-11T13:41:05Z</time>
      </trkpt>
      <trkpt lat="42.6555676851" lon="0.0278637093">
        <ele>2247.70</ele>
        <time>2022-07-11T13:41:10Z</time>
      </trkpt>
      <trkpt lat="42.6557617262" lon="0.0277371425">
        <ele>2246.74</ele>
        <time>2022-07-11T13:41:27Z</time>
      </trkpt>
      <trkpt lat="42.6558240876" lon="0.0276222266">
        <ele>2245.78</ele>
        <time>2022-07-11T13:41:40Z</time>
      </trkpt>
      <trkpt lat="42.6558416057" lon="0.0275580212">
        <ele>2244.82</ele>
        <time>2022-07-11T13:41:46Z</time>
      </trkpt>
      <trkpt lat="42.6558097545" lon="0.0274855178">
        <ele>2244.33</ele>
        <time>2022-07-11T13:41:53Z</time>
      </trkpt>
      <trkpt lat="42.6557824295" lon="0.0274167024">
        <ele>2243.85</ele>
        <time>2022-07-11T13:41:58Z</time>
      </trkpt>
      <trkpt lat="42.6557539310" lon="0.0273040496">
        <ele>2242.41</ele>
        <time>2022-07-11T13:42:12Z</time>
      </trkpt>
      <trkpt lat="42.6557529252" lon="0.0271030515">
        <ele>2242.41</ele>
        <time>2022-07-11T13:42:25Z</time>
      </trkpt>
      <trkpt lat="42.6557565294" lon="0.0270478986">
        <ele>2242.41</ele>
        <time>2022-07-11T13:42:29Z</time>
      </trkpt>
      <trkpt lat="42.6558001153" lon="0.0269867107">
        <ele>2241.93</ele>
        <time>2022-07-11T13:42:35Z</time>
      </trkpt>
      <trkpt lat="42.6558359060" lon="0.0267585553">
        <ele>2241.45</ele>
        <time>2022-07-11T13:42:50Z</time>
      </trkpt>
      <trkpt lat="42.6558572799" lon="0.0266668573">
        <ele>2241.45</ele>
        <time>2022-07-11T13:42:56Z</time>
      </trkpt>
      <trkpt lat="42.6559186354" lon="0.0264343433">
        <ele>2241.45</ele>
        <time>2022-07-11T13:43:12Z</time>
      </trkpt>
      <trkpt lat="42.6559482235" lon="0.0263424776">
        <ele>2242.41</ele>
        <time>2022-07-11T13:43:19Z</time>
      </trkpt>
      <trkpt lat="42.6560345571" lon="0.0262101274">
        <ele>2241.45</ele>
        <time>2022-07-11T13:43:30Z</time>
      </trkpt>
      <trkpt lat="42.6560826693" lon="0.0261186808">
        <ele>2241.45</ele>
        <time>2022-07-11T13:43:37Z</time>
      </trkpt>
      <trkpt lat="42.6561781392" lon="0.0259403139">
        <ele>2240.49</ele>
        <time>2022-07-11T13:43:51Z</time>
      </trkpt>
      <trkpt lat="42.6562517323" lon="0.0257908646">
        <ele>2240.01</ele>
        <time>2022-07-11T13:44:03Z</time>
      </trkpt>
      <trkpt lat="42.6563225593" lon="0.0256591011">
        <ele>2239.53</ele>
        <time>2022-07-11T13:44:16Z</time>
      </trkpt>
      <trkpt lat="42.6563992538" lon="0.0255365577">
        <ele>2240.97</ele>
        <time>2022-07-11T13:44:27Z</time>
      </trkpt>
      <trkpt lat="42.6564026903" lon="0.0255201291">
        <ele>2240.97</ele>
        <time>2022-07-11T13:44:28Z</time>
      </trkpt>
      <trkpt lat="42.6564197056" lon="0.0254844222">
        <ele>2240.97</ele>
        <time>2022-07-11T13:44:31Z</time>
      </trkpt>
      <trkpt lat="42.6564350445" lon="0.0253464561">
        <ele>2240.97</ele>
        <time>2022-07-11T13:44:40Z</time>
      </trkpt>
      <trkpt lat="42.6565684006" lon="0.0251524150">
        <ele>2239.53</ele>
        <time>2022-07-11T13:44:56Z</time>
      </trkpt>
      <trkpt lat="42.6565975696" lon="0.0249753892">
        <ele>2239.53</ele>
        <time>2022-07-11T13:45:08Z</time>
      </trkpt>
      <trkpt lat="42.6566430833" lon="0.0247557834">
        <ele>2238.09</ele>
        <time>2022-07-11T13:45:24Z</time>
      </trkpt>
      <trkpt lat="42.6566589251" lon="0.0246591400">
        <ele>2237.13</ele>
        <time>2022-07-11T13:45:40Z</time>
      </trkpt>
      <trkpt lat="42.6566450950" lon="0.0246513449">
        <ele>2236.16</ele>
        <time>2022-07-11T13:46:12Z</time>
      </trkpt>
      <trkpt lat="42.6566489507" lon="0.0246549491">
        <ele>2236.16</ele>
        <time>2022-07-11T13:46:32Z</time>
      </trkpt>
      <trkpt lat="42.6566535607" lon="0.0246548653">
        <ele>2236.16</ele>
        <time>2022-07-11T13:46:56Z</time>
      </trkpt>
      <trkpt lat="42.6566849090" lon="0.0246232655">
        <ele>2236.16</ele>
        <time>2022-07-11T13:47:18Z</time>
      </trkpt>
      <trkpt lat="42.6566921175" lon="0.0245819427">
        <ele>2236.16</ele>
        <time>2022-07-11T13:47:21Z</time>
      </trkpt>
      <trkpt lat="42.6567010023" lon="0.0245495047">
        <ele>2236.16</ele>
        <time>2022-07-11T13:47:23Z</time>
      </trkpt>
      <trkpt lat="42.6567350328" lon="0.0243633427">
        <ele>2235.68</ele>
        <time>2022-07-11T13:47:37Z</time>
      </trkpt>
      <trkpt lat="42.6567634474" lon="0.0241641048">
        <ele>2235.68</ele>
        <time>2022-07-11T13:47:52Z</time>
      </trkpt>
      <trkpt lat="42.6567854080" lon="0.0241350196">
        <ele>2236.64</ele>
        <time>2022-07-11T13:47:58Z</time>
      </trkpt>
      <trkpt lat="42.6568843145" lon="0.0240594149">
        <ele>2239.53</ele>
        <time>2022-07-11T13:48:13Z</time>
      </trkpt>
      <trkpt lat="42.6569199376" lon="0.0239771046">
        <ele>2240.01</ele>
        <time>2022-07-11T13:48:22Z</time>
      </trkpt>
      <trkpt lat="42.6569334324" lon="0.0239378773">
        <ele>2240.01</ele>
        <time>2022-07-11T13:48:25Z</time>
      </trkpt>
      <trkpt lat="42.6569415629" lon="0.0238098856">
        <ele>2238.09</ele>
        <time>2022-07-11T13:48:34Z</time>
      </trkpt>
      <trkpt lat="42.6569708157" lon="0.0236586761">
        <ele>2236.64</ele>
        <time>2022-07-11T13:48:45Z</time>
      </trkpt>
      <trkpt lat="42.6569620986" lon="0.0235653017">
        <ele>2236.16</ele>
        <time>2022-07-11T13:48:51Z</time>
      </trkpt>
      <trkpt lat="42.6569787785" lon="0.0234624557">
        <ele>2235.68</ele>
        <time>2022-07-11T13:48:58Z</time>
      </trkpt>
      <trkpt lat="42.6569999848" lon="0.0233900361">
        <ele>2235.20</ele>
        <time>2022-07-11T13:49:03Z</time>
      </trkpt>
      <trkpt lat="42.6570782717" lon="0.0231643952">
        <ele>2234.24</ele>
        <time>2022-07-11T13:49:20Z</time>
      </trkpt>
      <trkpt lat="42.6570823789" lon="0.0231540855">
        <ele>2234.24</ele>
        <time>2022-07-11T13:49:21Z</time>
      </trkpt>
      <trkpt lat="42.6571778487" lon="0.0230711885">
        <ele>2233.76</ele>
        <time>2022-07-11T13:49:33Z</time>
      </trkpt>
      <trkpt lat="42.6572452392" lon="0.0229623076">
        <ele>2233.76</ele>
        <time>2022-07-11T13:49:47Z</time>
      </trkpt>
      <trkpt lat="42.6573456544" lon="0.0227815937">
        <ele>2233.28</ele>
        <time>2022-07-11T13:50:02Z</time>
      </trkpt>
      <trkpt lat="42.6574135479" lon="0.0226966012">
        <ele>2232.80</ele>
        <time>2022-07-11T13:50:16Z</time>
      </trkpt>
      <trkpt lat="42.6575008873" lon="0.0225700345">
        <ele>2232.32</ele>
        <time>2022-07-11T13:50:29Z</time>
      </trkpt>
      <trkpt lat="42.6574993785" lon="0.0225283764">
        <ele>2232.32</ele>
        <time>2022-07-11T13:50:43Z</time>
      </trkpt>
      <trkpt lat="42.6574796811" lon="0.0225160550">
        <ele>2231.84</ele>
        <time>2022-07-11T13:51:02Z</time>
      </trkpt>
      <trkpt lat="42.6574990433" lon="0.0225593057">
        <ele>2231.84</ele>
        <time>2022-07-11T13:51:25Z</time>
      </trkpt>
      <trkpt lat="42.6574552059" lon="0.0224921666">
        <ele>2229.92</ele>
        <time>2022-07-11T13:51:40Z</time>
      </trkpt>
      <trkpt lat="42.6574367657" lon="0.0224674400">
        <ele>2229.43</ele>
        <time>2022-07-11T13:51:54Z</time>
      </trkpt>
      <trkpt lat="42.6574331615" lon="0.0224654283">
        <ele>2228.47</ele>
        <time>2022-07-11T13:52:14Z</time>
      </trkpt>
      <trkpt lat="42.6574355923" lon="0.0224603154">
        <ele>2228.47</ele>
        <time>2022-07-11T13:52:19Z</time>
      </trkpt>
      <trkpt lat="42.6574084349" lon="0.0223197509">
        <ele>2228.47</ele>
        <time>2022-07-11T13:56:25Z</time>
      </trkpt>
      <trkpt lat="42.6574069262" lon="0.0223427173">
        <ele>2228.47</ele>
        <time>2022-07-11T13:56:26Z</time>
      </trkpt>
      <trkpt lat="42.6574049983" lon="0.0224414561">
        <ele>2228.95</ele>
        <time>2022-07-11T13:57:03Z</time>
      </trkpt>
      <trkpt lat="42.6574088540" lon="0.0224355888">
        <ele>2228.95</ele>
        <time>2022-07-11T13:57:39Z</time>
      </trkpt>
      <trkpt lat="42.6574016456" lon="0.0224471558">
        <ele>2228.47</ele>
        <time>2022-07-11T13:58:10Z</time>
      </trkpt>
      <trkpt lat="42.6574253663" lon="0.0224513467">
        <ele>2228.47</ele>
        <time>2022-07-11T13:58:48Z</time>
      </trkpt>
      <trkpt lat="42.6574128773" lon="0.0224505085">
        <ele>2228.47</ele>
        <time>2022-07-11T13:59:21Z</time>
      </trkpt>
      <trkpt lat="42.6574324910" lon="0.0224376842">
        <ele>2227.99</ele>
        <time>2022-07-11T13:59:54Z</time>
      </trkpt>
      <trkpt lat="42.6574009750" lon="0.0224480778">
        <ele>2228.47</ele>
        <time>2022-07-11T14:00:21Z</time>
      </trkpt>
      <trkpt lat="42.6574131288" lon="0.0224492513">
        <ele>2228.47</ele>
        <time>2022-07-11T14:00:34Z</time>
      </trkpt>
      <trkpt lat="42.6575120352" lon="0.0225655921">
        <ele>2232.32</ele>
        <time>2022-07-11T14:01:30Z</time>
      </trkpt>
      <trkpt lat="42.6575164776" lon="0.0225588027">
        <ele>2232.32</ele>
        <time>2022-07-11T14:01:31Z</time>
      </trkpt>
      <trkpt lat="42.6575892325" lon="0.0225055777">
        <ele>2232.80</ele>
        <time>2022-07-11T14:01:45Z</time>
      </trkpt>
      <trkpt lat="42.6576019730" lon="0.0224982016">
        <ele>2232.80</ele>
        <time>2022-07-11T14:01:47Z</time>
      </trkpt>
      <trkpt lat="42.6577398553" lon="0.0223935954">
        <ele>2233.28</ele>
        <time>2022-07-11T14:02:02Z</time>
      </trkpt>
      <trkpt lat="42.6578693558" lon="0.0223284680">
        <ele>2233.76</ele>
        <time>2022-07-11T14:02:16Z</time>
      </trkpt>
      <trkpt lat="42.6579855289" lon="0.0222365186">
        <ele>2234.72</ele>
        <time>2022-07-11T14:02:30Z</time>
      </trkpt>
      <trkpt lat="42.6581222378" lon="0.0221496820">
        <ele>2234.72</ele>
        <time>2022-07-11T14:02:45Z</time>
      </trkpt>
      <trkpt lat="42.6582643110" lon="0.0220376998">
        <ele>2235.20</ele>
        <time>2022-07-11T14:03:01Z</time>
      </trkpt>
      <trkpt lat="42.6584160235" lon="0.0218323432">
        <ele>2235.20</ele>
        <time>2022-07-11T14:03:18Z</time>
      </trkpt>
      <trkpt lat="42.6585185342" lon="0.0217372924">
        <ele>2235.20</ele>
        <time>2022-07-11T14:03:29Z</time>
      </trkpt>
      <trkpt lat="42.6586730964" lon="0.0216051936">
        <ele>2235.20</ele>
        <time>2022-07-11T14:03:45Z</time>
      </trkpt>
      <trkpt lat="42.6588020939" lon="0.0214457698">
        <ele>2235.68</ele>
        <time>2022-07-11T14:04:00Z</time>
      </trkpt>
      <trkpt lat="42.6589172613" lon="0.0212824903">
        <ele>2235.20</ele>
        <time>2022-07-11T14:04:14Z</time>
      </trkpt>
      <trkpt lat="42.6589976437" lon="0.0211508106">
        <ele>2235.20</ele>
        <time>2022-07-11T14:04:27Z</time>
      </trkpt>
      <trkpt lat="42.6590703148" lon="0.0210865214">
        <ele>2235.20</ele>
        <time>2022-07-11T14:04:35Z</time>
      </trkpt>
      <trkpt lat="42.6591526251" lon="0.0210231543">
        <ele>2235.20</ele>
        <time>2022-07-11T14:04:43Z</time>
      </trkpt>
      <trkpt lat="42.6593032479" lon="0.0208265986">
        <ele>2235.68</ele>
        <time>2022-07-11T14:05:02Z</time>
      </trkpt>
      <trkpt lat="42.6593254600" lon="0.0207948312">
        <ele>2234.24</ele>
        <time>2022-07-11T14:05:05Z</time>
      </trkpt>
      <trkpt lat="42.6594257075" lon="0.0206498243">
        <ele>2232.32</ele>
        <time>2022-07-11T14:05:19Z</time>
      </trkpt>
      <trkpt lat="42.6595337503" lon="0.0204909872">
        <ele>2230.88</ele>
        <time>2022-07-11T14:05:36Z</time>
      </trkpt>
      <trkpt lat="42.6596299745" lon="0.0203022268">
        <ele>2228.47</ele>
        <time>2022-07-11T14:05:52Z</time>
      </trkpt>
      <trkpt lat="42.6597903203" lon="0.0201404560">
        <ele>2227.03</ele>
        <time>2022-07-11T14:06:09Z</time>
      </trkpt>
      <trkpt lat="42.6599245146" lon="0.0199809484">
        <ele>2226.55</ele>
        <time>2022-07-11T14:06:23Z</time>
      </trkpt>
      <trkpt lat="42.6600736286" lon="0.0198227819">
        <ele>2225.11</ele>
        <time>2022-07-11T14:06:38Z</time>
      </trkpt>
      <trkpt lat="42.6601971779" lon="0.0196605083">
        <ele>2224.63</ele>
        <time>2022-07-11T14:06:52Z</time>
      </trkpt>
      <trkpt lat="42.6602732018" lon="0.0195807964">
        <ele>2224.15</ele>
        <time>2022-07-11T14:07:00Z</time>
      </trkpt>
      <trkpt lat="42.6603899617" lon="0.0194011722">
        <ele>2223.19</ele>
        <time>2022-07-11T14:07:15Z</time>
      </trkpt>
      <trkpt lat="42.6604391634" lon="0.0193383079">
        <ele>2222.71</ele>
        <time>2022-07-11T14:07:21Z</time>
      </trkpt>
      <trkpt lat="42.6605305262" lon="0.0191012677">
        <ele>2222.71</ele>
        <time>2022-07-11T14:07:38Z</time>
      </trkpt>
      <trkpt lat="42.6606273372" lon="0.0189298578">
        <ele>2222.71</ele>
        <time>2022-07-11T14:07:52Z</time>
      </trkpt>
      <trkpt lat="42.6607218012" lon="0.0187508203">
        <ele>2222.71</ele>
        <time>2022-07-11T14:08:07Z</time>
      </trkpt>
      <trkpt lat="42.6608704124" lon="0.0186004490">
        <ele>2221.74</ele>
        <time>2022-07-11T14:08:24Z</time>
      </trkpt>
      <trkpt lat="42.6609150041" lon="0.0185188930">
        <ele>2221.74</ele>
        <time>2022-07-11T14:08:30Z</time>
      </trkpt>
      <trkpt lat="42.6610253938" lon="0.0183593854">
        <ele>2220.78</ele>
        <time>2022-07-11T14:08:44Z</time>
      </trkpt>
      <trkpt lat="42.6611283235" lon="0.0181622431">
        <ele>2220.30</ele>
        <time>2022-07-11T14:08:59Z</time>
      </trkpt>
      <trkpt lat="42.6612486877" lon="0.0179505162">
        <ele>2219.34</ele>
        <time>2022-07-11T14:09:16Z</time>
      </trkpt>
      <trkpt lat="42.6613564789" lon="0.0177982170">
        <ele>2217.42</ele>
        <time>2022-07-11T14:09:30Z</time>
      </trkpt>
      <trkpt lat="42.6613724884" lon="0.0177759212">
        <ele>2216.94</ele>
        <time>2022-07-11T14:09:32Z</time>
      </trkpt>
      <trkpt lat="42.6613775175" lon="0.0177502725">
        <ele>2216.94</ele>
        <time>2022-07-11T14:09:34Z</time>
      </trkpt>
      <trkpt lat="42.6613527909" lon="0.0177318323">
        <ele>2215.01</ele>
        <time>2022-07-11T14:09:37Z</time>
      </trkpt>
      <trkpt lat="42.6612636074" lon="0.0177456625">
        <ele>2213.09</ele>
        <time>2022-07-11T14:09:48Z</time>
      </trkpt>
      <trkpt lat="42.6613815408" lon="0.0176180899">
        <ele>2211.17</ele>
        <time>2022-07-11T14:10:04Z</time>
      </trkpt>
      <trkpt lat="42.6614878234" lon="0.0175370369">
        <ele>2210.69</ele>
        <time>2022-07-11T14:10:15Z</time>
      </trkpt>
      <trkpt lat="42.6615298167" lon="0.0174474344">
        <ele>2209.73</ele>
        <time>2022-07-11T14:10:23Z</time>
      </trkpt>
      <trkpt lat="42.6615522802" lon="0.0174525473">
        <ele>2209.73</ele>
        <time>2022-07-11T14:10:26Z</time>
      </trkpt>
      <trkpt lat="42.6616134681" lon="0.0173986517">
        <ele>2209.73</ele>
        <time>2022-07-11T14:10:33Z</time>
      </trkpt>
      <trkpt lat="42.6616562996" lon="0.0173412357">
        <ele>2209.73</ele>
        <time>2022-07-11T14:10:38Z</time>
      </trkpt>
      <trkpt lat="42.6616722252" lon="0.0173241366">
        <ele>2209.73</ele>
        <time>2022-07-11T14:10:40Z</time>
      </trkpt>
      <trkpt lat="42.6617089380" lon="0.0172557402">
        <ele>2210.69</ele>
        <time>2022-07-11T14:10:46Z</time>
      </trkpt>
      <trkpt lat="42.6618503407" lon="0.0171668082">
        <ele>2211.17</ele>
        <time>2022-07-11T14:11:01Z</time>
      </trkpt>
      <trkpt lat="42.6618780848" lon="0.0171446800">
        <ele>2211.17</ele>
        <time>2022-07-11T14:11:04Z</time>
      </trkpt>
      <trkpt lat="42.6619196590" lon="0.0171106495">
        <ele>2211.17</ele>
        <time>2022-07-11T14:11:09Z</time>
      </trkpt>
      <trkpt lat="42.6619546954" lon="0.0170111563">
        <ele>2209.73</ele>
        <time>2022-07-11T14:11:17Z</time>
      </trkpt>
      <trkpt lat="42.6619603112" lon="0.0169994216">
        <ele>2209.73</ele>
        <time>2022-07-11T14:11:18Z</time>
      </trkpt>
      <trkpt lat="42.6620687731" lon="0.0168177858">
        <ele>2209.73</ele>
        <time>2022-07-11T14:11:33Z</time>
      </trkpt>
      <trkpt lat="42.6620918233" lon="0.0167820789">
        <ele>2209.73</ele>
        <time>2022-07-11T14:11:36Z</time>
      </trkpt>
      <trkpt lat="42.6621758938" lon="0.0166203082">
        <ele>2209.25</ele>
        <time>2022-07-11T14:11:51Z</time>
      </trkpt>
      <trkpt lat="42.6622319687" lon="0.0165270176">
        <ele>2207.32</ele>
        <time>2022-07-11T14:12:03Z</time>
      </trkpt>
      <trkpt lat="42.6622844394" lon="0.0164618902">
        <ele>2206.84</ele>
        <time>2022-07-11T14:12:11Z</time>
      </trkpt>
      <trkpt lat="42.6624315418" lon="0.0163461361">
        <ele>2206.84</ele>
        <time>2022-07-11T14:12:27Z</time>
      </trkpt>
      <trkpt lat="42.6625583600" lon="0.0162681844">
        <ele>2206.84</ele>
        <time>2022-07-11T14:12:41Z</time>
      </trkpt>
      <trkpt lat="42.6627053786" lon="0.0161831081">
        <ele>2206.84</ele>
        <time>2022-07-11T14:12:55Z</time>
      </trkpt>
      <trkpt lat="42.6627148502" lon="0.0161791686">
        <ele>2206.84</ele>
        <time>2022-07-11T14:12:56Z</time>
      </trkpt>
      <trkpt lat="42.6627376489" lon="0.0161531847">
        <ele>2206.84</ele>
        <time>2022-07-11T14:12:59Z</time>
      </trkpt>
      <trkpt lat="42.6627718471" lon="0.0161040667">
        <ele>2206.84</ele>
        <time>2022-07-11T14:13:05Z</time>
      </trkpt>
      <trkpt lat="42.6629252359" lon="0.0159953535">
        <ele>2206.84</ele>
        <time>2022-07-11T14:13:20Z</time>
      </trkpt>
      <trkpt lat="42.6629327796" lon="0.0159826130">
        <ele>2206.84</ele>
        <time>2022-07-11T14:13:21Z</time>
      </trkpt>
      <trkpt lat="42.6630011760" lon="0.0158531126">
        <ele>2205.40</ele>
        <time>2022-07-11T14:13:31Z</time>
      </trkpt>
      <trkpt lat="42.6630685665" lon="0.0156887434">
        <ele>2203.96</ele>
        <time>2022-07-11T14:13:44Z</time>
      </trkpt>
      <trkpt lat="42.6631066203" lon="0.0155869033">
        <ele>2203.48</ele>
        <time>2022-07-11T14:13:53Z</time>
      </trkpt>
      <trkpt lat="42.6631697360" lon="0.0155595783">
        <ele>2203.00</ele>
        <time>2022-07-11T14:13:59Z</time>
      </trkpt>
      <trkpt lat="42.6632197760" lon="0.0154310837">
        <ele>2201.56</ele>
        <time>2022-07-11T14:14:11Z</time>
      </trkpt>
      <trkpt lat="42.6632484421" lon="0.0154222827">
        <ele>2200.59</ele>
        <time>2022-07-11T14:14:16Z</time>
      </trkpt>
      <trkpt lat="42.6633274835" lon="0.0153408106">
        <ele>2199.63</ele>
        <time>2022-07-11T14:14:29Z</time>
      </trkpt>
      <trkpt lat="42.6633300819" lon="0.0153315905">
        <ele>2199.63</ele>
        <time>2022-07-11T14:14:30Z</time>
      </trkpt>
      <trkpt lat="42.6633293275" lon="0.0152927823">
        <ele>2199.63</ele>
        <time>2022-07-11T14:14:34Z</time>
      </trkpt>
      <trkpt lat="42.6632765215" lon="0.0152399763">
        <ele>2199.15</ele>
        <time>2022-07-11T14:14:49Z</time>
      </trkpt>
      <trkpt lat="42.6632265653" lon="0.0152351987">
        <ele>2197.71</ele>
        <time>2022-07-11T14:15:02Z</time>
      </trkpt>
      <trkpt lat="42.6632364560" lon="0.0152413175">
        <ele>2198.67</ele>
        <time>2022-07-11T14:15:15Z</time>
      </trkpt>
      <trkpt lat="42.6632775273" lon="0.0152580813">
        <ele>2203.00</ele>
        <time>2022-07-12T05:40:51Z</time>
      </trkpt>
      <trkpt lat="42.6632800419" lon="0.0152588356">
        <ele>2203.00</ele>
        <time>2022-07-12T05:40:52Z</time>
      </trkpt>
      <trkpt lat="42.6632241346" lon="0.0152763538">
        <ele>2203.48</ele>
        <time>2022-07-12T05:41:10Z</time>
      </trkpt>
      <trkpt lat="42.6632115617" lon="0.0152709894">
        <ele>2203.48</ele>
        <time>2022-07-12T05:41:11Z</time>
      </trkpt>
      <trkpt lat="42.6631398126" lon="0.0152318459">
        <ele>2202.52</ele>
        <time>2022-07-12T05:41:17Z</time>
      </trkpt>
      <trkpt lat="42.6630482823" lon="0.0151438359">
        <ele>2200.59</ele>
        <time>2022-07-12T05:41:30Z</time>
      </trkpt>
      <trkpt lat="42.6630032714" lon="0.0151294190">
        <ele>2200.11</ele>
        <time>2022-07-12T05:41:36Z</time>
      </trkpt>
      <trkpt lat="42.6629420836" lon="0.0150987413">
        <ele>2198.19</ele>
        <time>2022-07-12T05:41:42Z</time>
      </trkpt>
      <trkpt lat="42.6628426742" lon="0.0150782894">
        <ele>2197.23</ele>
        <time>2022-07-12T05:41:51Z</time>
      </trkpt>
      <trkpt lat="42.6627098210" lon="0.0149841607">
        <ele>2195.79</ele>
        <time>2022-07-12T05:42:04Z</time>
      </trkpt>
      <trkpt lat="42.6625798177" lon="0.0149242301">
        <ele>2192.90</ele>
        <time>2022-07-12T05:42:17Z</time>
      </trkpt>
      <trkpt lat="42.6624472160" lon="0.0148813985">
        <ele>2189.54</ele>
        <time>2022-07-12T05:42:32Z</time>
      </trkpt>
      <trkpt lat="42.6623931527" lon="0.0148513075">
        <ele>2188.10</ele>
        <time>2022-07-12T05:42:38Z</time>
      </trkpt>
      <trkpt lat="42.6622214075" lon="0.0149101485">
        <ele>2185.69</ele>
        <time>2022-07-12T05:42:52Z</time>
      </trkpt>
      <trkpt lat="42.6621886343" lon="0.0149302650">
        <ele>2186.18</ele>
        <time>2022-07-12T05:42:55Z</time>
      </trkpt>
      <trkpt lat="42.6620685216" lon="0.0150209572">
        <ele>2183.29</ele>
        <time>2022-07-12T05:43:12Z</time>
      </trkpt>
      <trkpt lat="42.6620502491" lon="0.0150098931">
        <ele>2182.33</ele>
        <time>2022-07-12T05:43:25Z</time>
      </trkpt>
      <trkpt lat="42.6620441303" lon="0.0150221307">
        <ele>2183.29</ele>
        <time>2022-07-12T05:43:59Z</time>
      </trkpt>
      <trkpt lat="42.6619997062" lon="0.0150098093">
        <ele>2180.89</ele>
        <time>2022-07-12T05:44:07Z</time>
      </trkpt>
      <trkpt lat="42.6619785838" lon="0.0150165986">
        <ele>2179.93</ele>
        <time>2022-07-12T05:44:09Z</time>
      </trkpt>
      <trkpt lat="42.6618807670" lon="0.0150447618">
        <ele>2177.52</ele>
        <time>2022-07-12T05:44:22Z</time>
      </trkpt>
      <trkpt lat="42.6618374325" lon="0.0151134096">
        <ele>2177.04</ele>
        <time>2022-07-12T05:44:28Z</time>
      </trkpt>
      <trkpt lat="42.6617961098" lon="0.0151608512">
        <ele>2174.16</ele>
        <time>2022-07-12T05:44:41Z</time>
      </trkpt>
      <trkpt lat="42.6617580559" lon="0.0151542295">
        <ele>2172.72</ele>
        <time>2022-07-12T05:44:50Z</time>
      </trkpt>
      <trkpt lat="42.6617396995" lon="0.0151478592">
        <ele>2172.24</ele>
        <time>2022-07-12T05:44:52Z</time>
      </trkpt>
      <trkpt lat="42.6616277173" lon="0.0152465142">
        <ele>2168.87</ele>
        <time>2022-07-12T05:45:06Z</time>
      </trkpt>
      <trkpt lat="42.6614497695" lon="0.0153369550">
        <ele>2167.43</ele>
        <time>2022-07-12T05:45:22Z</time>
      </trkpt>
      <trkpt lat="42.6613570657" lon="0.0154036749">
        <ele>2165.51</ele>
        <time>2022-07-12T05:45:31Z</time>
      </trkpt>
      <trkpt lat="42.6613139827" lon="0.0154798664">
        <ele>2165.51</ele>
        <time>2022-07-12T05:45:37Z</time>
      </trkpt>
      <trkpt lat="42.6612765156" lon="0.0155112986">
        <ele>2164.55</ele>
        <time>2022-07-12T05:45:42Z</time>
      </trkpt>
      <trkpt lat="42.6611613482" lon="0.0155738275">
        <ele>2162.62</ele>
        <time>2022-07-12T05:45:56Z</time>
      </trkpt>
      <trkpt lat="42.6611069497" lon="0.0155588239">
        <ele>2159.74</ele>
        <time>2022-07-12T05:46:11Z</time>
      </trkpt>
      <trkpt lat="42.6609918661" lon="0.0156585686">
        <ele>2156.37</ele>
        <time>2022-07-12T05:46:26Z</time>
      </trkpt>
      <trkpt lat="42.6609514654" lon="0.0157213490">
        <ele>2155.41</ele>
        <time>2022-07-12T05:46:32Z</time>
      </trkpt>
      <trkpt lat="42.6607848331" lon="0.0157902483">
        <ele>2152.53</ele>
        <time>2022-07-12T05:46:48Z</time>
      </trkpt>
      <trkpt lat="42.6607763674" lon="0.0157953613">
        <ele>2152.05</ele>
        <time>2022-07-12T05:46:49Z</time>
      </trkpt>
      <trkpt lat="42.6607107371" lon="0.0158215966">
        <ele>2151.09</ele>
        <time>2022-07-12T05:46:55Z</time>
      </trkpt>
      <trkpt lat="42.6606459450" lon="0.0158464070">
        <ele>2151.09</ele>
        <time>2022-07-12T05:47:01Z</time>
      </trkpt>
      <trkpt lat="42.6604469586" lon="0.0159340817">
        <ele>2149.65</ele>
        <time>2022-07-12T05:47:16Z</time>
      </trkpt>
      <trkpt lat="42.6604384091" lon="0.0159407035">
        <ele>2149.65</ele>
        <time>2022-07-12T05:47:17Z</time>
      </trkpt>
      <trkpt lat="42.6603448670" lon="0.0159497559">
        <ele>2148.68</ele>
        <time>2022-07-12T05:47:28Z</time>
      </trkpt>
      <trkpt lat="42.6602442842" lon="0.0159520190">
        <ele>2147.72</ele>
        <time>2022-07-12T05:47:37Z</time>
      </trkpt>
      <trkpt lat="42.6600760594" lon="0.0160161406">
        <ele>2145.32</ele>
        <time>2022-07-12T05:47:53Z</time>
      </trkpt>
      <trkpt lat="42.6599743869" lon="0.0160503387">
        <ele>2141.95</ele>
        <time>2022-07-12T05:48:05Z</time>
      </trkpt>
      <trkpt lat="42.6598710380" lon="0.0160788372">
        <ele>2139.55</ele>
        <time>2022-07-12T05:48:14Z</time>
      </trkpt>
      <trkpt lat="42.6597968582" lon="0.0160687789">
        <ele>2136.67</ele>
        <time>2022-07-12T05:48:25Z</time>
      </trkpt>
      <trkpt lat="42.6597671025" lon="0.0160075072">
        <ele>2134.74</ele>
        <time>2022-07-12T05:48:32Z</time>
      </trkpt>
      <trkpt lat="42.6597291324" lon="0.0160022266">
        <ele>2133.78</ele>
        <time>2022-07-12T05:48:36Z</time>
      </trkpt>
      <trkpt lat="42.6596826967" lon="0.0159877259">
        <ele>2132.82</ele>
        <time>2022-07-12T05:48:40Z</time>
      </trkpt>
      <trkpt lat="42.6595269609" lon="0.0160861295">
        <ele>2131.86</ele>
        <time>2022-07-12T05:48:54Z</time>
      </trkpt>
      <trkpt lat="42.6593599096" lon="0.0161554478">
        <ele>2131.86</ele>
        <time>2022-07-12T05:49:06Z</time>
      </trkpt>
      <trkpt lat="42.6592993923" lon="0.0161941722">
        <ele>2131.38</ele>
        <time>2022-07-12T05:49:11Z</time>
      </trkpt>
      <trkpt lat="42.6591569837" lon="0.0162103493">
        <ele>2128.02</ele>
        <time>2022-07-12T05:49:23Z</time>
      </trkpt>
      <trkpt lat="42.6590323448" lon="0.0162023026">
        <ele>2124.65</ele>
        <time>2022-07-12T05:49:34Z</time>
      </trkpt>
      <trkpt lat="42.6590020023" lon="0.0161887240">
        <ele>2123.21</ele>
        <time>2022-07-12T05:49:38Z</time>
      </trkpt>
      <trkpt lat="42.6589759346" lon="0.0161664281">
        <ele>2122.25</ele>
        <time>2022-07-12T05:49:41Z</time>
      </trkpt>
      <trkpt lat="42.6589186862" lon="0.0161863770">
        <ele>2119.36</ele>
        <time>2022-07-12T05:49:47Z</time>
      </trkpt>
      <trkpt lat="42.6587866712" lon="0.0162943359">
        <ele>2118.40</ele>
        <time>2022-07-12T05:49:59Z</time>
      </trkpt>
      <trkpt lat="42.6587406546" lon="0.0163164642">
        <ele>2118.88</ele>
        <time>2022-07-12T05:50:03Z</time>
      </trkpt>
      <trkpt lat="42.6586804725" lon="0.0163737964">
        <ele>2119.84</ele>
        <time>2022-07-12T05:50:10Z</time>
      </trkpt>
      <trkpt lat="42.6585164387" lon="0.0165384170">
        <ele>2120.32</ele>
        <time>2022-07-12T05:50:24Z</time>
      </trkpt>
      <trkpt lat="42.6584973279" lon="0.0165577792">
        <ele>2120.32</ele>
        <time>2022-07-12T05:50:26Z</time>
      </trkpt>
      <trkpt lat="42.6583137643" lon="0.0165913906">
        <ele>2118.88</ele>
        <time>2022-07-12T05:50:41Z</time>
      </trkpt>
      <trkpt lat="42.6582965814" lon="0.0165930670">
        <ele>2118.88</ele>
        <time>2022-07-12T05:50:43Z</time>
      </trkpt>
      <trkpt lat="42.6582743693" lon="0.0166209787">
        <ele>2118.40</ele>
        <time>2022-07-12T05:50:46Z</time>
      </trkpt>
      <trkpt lat="42.6581504010" lon="0.0167610403">
        <ele>2117.44</ele>
        <time>2022-07-12T05:51:00Z</time>
      </trkpt>
      <trkpt lat="42.6580827590" lon="0.0167902093">
        <ele>2116.48</ele>
        <time>2022-07-12T05:51:07Z</time>
      </trkpt>
      <trkpt lat="42.6579684298" lon="0.0168252457">
        <ele>2115.04</ele>
        <time>2022-07-12T05:51:19Z</time>
      </trkpt>
      <trkpt lat="42.6578795817" lon="0.0169124175">
        <ele>2113.60</ele>
        <time>2022-07-12T05:51:29Z</time>
      </trkpt>
      <trkpt lat="42.6578235906" lon="0.0169150997">
        <ele>2112.15</ele>
        <time>2022-07-12T05:51:35Z</time>
      </trkpt>
      <trkpt lat="42.6578059047" lon="0.0169072207">
        <ele>2112.15</ele>
        <time>2022-07-12T05:51:37Z</time>
      </trkpt>
      <trkpt lat="42.6577111892" lon="0.0168914627">
        <ele>2109.75</ele>
        <time>2022-07-12T05:51:49Z</time>
      </trkpt>
      <trkpt lat="42.6576175634" lon="0.0168541633">
        <ele>2105.42</ele>
        <time>2022-07-12T05:52:02Z</time>
      </trkpt>
      <trkpt lat="42.6575997937" lon="0.0168746989">
        <ele>2104.94</ele>
        <time>2022-07-12T05:52:05Z</time>
      </trkpt>
      <trkpt lat="42.6575119514" lon="0.0169150159">
        <ele>2102.06</ele>
        <time>2022-07-12T05:52:19Z</time>
      </trkpt>
      <trkpt lat="42.6574471593" lon="0.0169337913">
        <ele>2098.70</ele>
        <time>2022-07-12T05:52:31Z</time>
      </trkpt>
      <trkpt lat="42.6574450638" lon="0.0169365574">
        <ele>2098.70</ele>
        <time>2022-07-12T05:52:32Z</time>
      </trkpt>
      <trkpt lat="42.6573890727" lon="0.0169321988">
        <ele>2095.81</ele>
        <time>2022-07-12T05:52:43Z</time>
      </trkpt>
      <trkpt lat="42.6573065110" lon="0.0169466157">
        <ele>2092.93</ele>
        <time>2022-07-12T05:52:54Z</time>
      </trkpt>
      <trkpt lat="42.6571737416" lon="0.0169641338">
        <ele>2090.04</ele>
        <time>2022-07-12T05:53:05Z</time>
      </trkpt>
      <trkpt lat="42.6570016611" lon="0.0170259923">
        <ele>2087.64</ele>
        <time>2022-07-12T05:53:21Z</time>
      </trkpt>
      <trkpt lat="42.6569527108" lon="0.0171021838">
        <ele>2085.72</ele>
        <time>2022-07-12T05:53:34Z</time>
      </trkpt>
      <trkpt lat="42.6569392160" lon="0.0170862582">
        <ele>2084.28</ele>
        <time>2022-07-12T05:53:36Z</time>
      </trkpt>
      <trkpt lat="42.6568467636" lon="0.0171902776">
        <ele>2081.39</ele>
        <time>2022-07-12T05:53:50Z</time>
      </trkpt>
      <trkpt lat="42.6567579992" lon="0.0172357913">
        <ele>2078.03</ele>
        <time>2022-07-12T05:54:02Z</time>
      </trkpt>
      <trkpt lat="42.6567212865" lon="0.0172388088">
        <ele>2077.07</ele>
        <time>2022-07-12T05:54:13Z</time>
      </trkpt>
      <trkpt lat="42.6566688158" lon="0.0172551535">
        <ele>2074.18</ele>
        <time>2022-07-12T05:54:25Z</time>
      </trkpt>
      <trkpt lat="42.6566294208" lon="0.0172608532">
        <ele>2071.30</ele>
        <time>2022-07-12T05:54:38Z</time>
      </trkpt>
      <trkpt lat="42.6566478610" lon="0.0172364619">
        <ele>2069.86</ele>
        <time>2022-07-12T05:54:50Z</time>
      </trkpt>
      <trkpt lat="42.6565670595" lon="0.0172778685">
        <ele>2067.93</ele>
        <time>2022-07-12T05:55:03Z</time>
      </trkpt>
      <trkpt lat="42.6564937178" lon="0.0172709953">
        <ele>2065.53</ele>
        <time>2022-07-12T05:55:14Z</time>
      </trkpt>
      <trkpt lat="42.6564756967" lon="0.0172373839">
        <ele>2063.61</ele>
        <time>2022-07-12T05:55:25Z</time>
      </trkpt>
      <trkpt lat="42.6564125810" lon="0.0172139145">
        <ele>2060.24</ele>
        <time>2022-07-12T05:55:34Z</time>
      </trkpt>
      <trkpt lat="42.6564076357" lon="0.0172046944">
        <ele>2060.24</ele>
        <time>2022-07-12T05:55:35Z</time>
      </trkpt>
      <trkpt lat="42.6563223079" lon="0.0170891918">
        <ele>2055.92</ele>
        <time>2022-07-12T05:55:46Z</time>
      </trkpt>
      <trkpt lat="42.6563155185" lon="0.0170830730">
        <ele>2055.92</ele>
        <time>2022-07-12T05:55:47Z</time>
      </trkpt>
      <trkpt lat="42.6562712621" lon="0.0170677342">
        <ele>2054.96</ele>
        <time>2022-07-12T05:55:51Z</time>
      </trkpt>
      <trkpt lat="42.6560990140" lon="0.0170396548">
        <ele>2051.59</ele>
        <time>2022-07-12T05:56:05Z</time>
      </trkpt>
      <trkpt lat="42.6560343895" lon="0.0170281716">
        <ele>2050.63</ele>
        <time>2022-07-12T05:56:10Z</time>
      </trkpt>
      <trkpt lat="42.6558741275" lon="0.0169933029">
        <ele>2047.75</ele>
        <time>2022-07-12T05:56:24Z</time>
      </trkpt>
      <trkpt lat="42.6557756402" lon="0.0169512257">
        <ele>2046.30</ele>
        <time>2022-07-12T05:56:32Z</time>
      </trkpt>
      <trkpt lat="42.6556194853" lon="0.0169581827">
        <ele>2044.38</ele>
        <time>2022-07-12T05:56:45Z</time>
      </trkpt>
      <trkpt lat="42.6555645838" lon="0.0169565901">
        <ele>2043.90</ele>
        <time>2022-07-12T05:56:50Z</time>
      </trkpt>
      <trkpt lat="42.6555009652" lon="0.0169617869">
        <ele>2043.90</ele>
        <time>2022-07-12T05:56:56Z</time>
      </trkpt>
      <trkpt lat="42.6554576308" lon="0.0169981644">
        <ele>2043.90</ele>
        <time>2022-07-12T05:57:01Z</time>
      </trkpt>
      <trkpt lat="42.6552560460" lon="0.0169799756">
        <ele>2041.50</ele>
        <time>2022-07-12T05:57:18Z</time>
      </trkpt>
      <trkpt lat="42.6551587321" lon="0.0169342104">
        <ele>2040.05</ele>
        <time>2022-07-12T05:57:25Z</time>
      </trkpt>
      <trkpt lat="42.6548826322" lon="0.0169699173">
        <ele>2036.69</ele>
        <time>2022-07-12T05:57:45Z</time>
      </trkpt>
      <trkpt lat="42.6546502020" lon="0.0169812329">
        <ele>2035.25</ele>
        <time>2022-07-12T05:58:01Z</time>
      </trkpt>
      <trkpt lat="42.6544153411" lon="0.0170466956">
        <ele>2035.25</ele>
        <time>2022-07-12T05:58:17Z</time>
      </trkpt>
      <trkpt lat="42.6542608626" lon="0.0171046145">
        <ele>2036.69</ele>
        <time>2022-07-12T05:58:29Z</time>
      </trkpt>
      <trkpt lat="42.6540094893" lon="0.0172415748">
        <ele>2036.69</ele>
        <time>2022-07-12T05:58:47Z</time>
      </trkpt>
      <trkpt lat="42.6537945773" lon="0.0173119828">
        <ele>2035.25</ele>
        <time>2022-07-12T05:59:01Z</time>
      </trkpt>
      <trkpt lat="42.6535762288" lon="0.0174408965">
        <ele>2035.25</ele>
        <time>2022-07-12T05:59:17Z</time>
      </trkpt>
      <trkpt lat="42.6533731353" lon="0.0176153239">
        <ele>2034.29</ele>
        <time>2022-07-12T05:59:34Z</time>
      </trkpt>
      <trkpt lat="42.6533494145" lon="0.0176338479">
        <ele>2034.29</ele>
        <time>2022-07-12T05:59:36Z</time>
      </trkpt>
      <trkpt lat="42.6532912441" lon="0.0177714787">
        <ele>2033.81</ele>
        <time>2022-07-12T05:59:48Z</time>
      </trkpt>
      <trkpt lat="42.6532477420" lon="0.0178656075">
        <ele>2033.81</ele>
        <time>2022-07-12T06:00:00Z</time>
      </trkpt>
      <trkpt lat="42.6532554533" lon="0.0178954471">
        <ele>2032.36</ele>
        <time>2022-07-12T06:00:03Z</time>
      </trkpt>
      <trkpt lat="42.6532001328" lon="0.0179500133">
        <ele>2029.48</ele>
        <time>2022-07-12T06:00:17Z</time>
      </trkpt>
      <trkpt lat="42.6531661861" lon="0.0179827865">
        <ele>2026.60</ele>
        <time>2022-07-12T06:00:29Z</time>
      </trkpt>
      <trkpt lat="42.6530879829" lon="0.0179547910">
        <ele>2023.23</ele>
        <time>2022-07-12T06:00:43Z</time>
      </trkpt>
      <trkpt lat="42.6530809421" lon="0.0178792700">
        <ele>2021.79</ele>
        <time>2022-07-12T06:00:51Z</time>
      </trkpt>
      <trkpt lat="42.6531127933" lon="0.0178379472">
        <ele>2021.31</ele>
        <time>2022-07-12T06:01:08Z</time>
      </trkpt>
      <trkpt lat="42.6530863903" lon="0.0177954510">
        <ele>2020.83</ele>
        <time>2022-07-12T06:01:37Z</time>
      </trkpt>
      <trkpt lat="42.6531274617" lon="0.0177235343">
        <ele>2020.35</ele>
        <time>2022-07-12T06:01:49Z</time>
      </trkpt>
      <trkpt lat="42.6531927567" lon="0.0175745040">
        <ele>2019.39</ele>
        <time>2022-07-12T06:02:03Z</time>
      </trkpt>
      <trkpt lat="42.6532152202" lon="0.0175116397">
        <ele>2018.43</ele>
        <time>2022-07-12T06:02:09Z</time>
      </trkpt>
      <trkpt lat="42.6532334089" lon="0.0174334366">
        <ele>2017.94</ele>
        <time>2022-07-12T06:02:14Z</time>
      </trkpt>
      <trkpt lat="42.6533303037" lon="0.0171917025">
        <ele>2016.98</ele>
        <time>2022-07-12T06:02:30Z</time>
      </trkpt>
      <trkpt lat="42.6534265280" lon="0.0170105696">
        <ele>2016.50</ele>
        <time>2022-07-12T06:02:46Z</time>
      </trkpt>
      <trkpt lat="42.6534534339" lon="0.0169344619">
        <ele>2016.50</ele>
        <time>2022-07-12T06:02:53Z</time>
      </trkpt>
      <trkpt lat="42.6534710359" lon="0.0168860145">
        <ele>2015.06</ele>
        <time>2022-07-12T06:02:57Z</time>
      </trkpt>
      <trkpt lat="42.6534972712" lon="0.0168619584">
        <ele>2015.54</ele>
        <time>2022-07-12T06:03:00Z</time>
      </trkpt>
      <trkpt lat="42.6535911486" lon="0.0167369843">
        <ele>2014.58</ele>
        <time>2022-07-12T06:03:12Z</time>
      </trkpt>
      <trkpt lat="42.6536145341" lon="0.0166833401">
        <ele>2013.62</ele>
        <time>2022-07-12T06:03:16Z</time>
      </trkpt>
      <trkpt lat="42.6536328066" lon="0.0166580267">
        <ele>2013.14</ele>
        <time>2022-07-12T06:03:18Z</time>
      </trkpt>
      <trkpt lat="42.6537006162" lon="0.0165399257">
        <ele>2012.18</ele>
        <time>2022-07-12T06:03:29Z</time>
      </trkpt>
      <trkpt lat="42.6538254227" lon="0.0164723676">
        <ele>2010.25</ele>
        <time>2022-07-12T06:03:42Z</time>
      </trkpt>
      <trkpt lat="42.6539741177" lon="0.0164359063">
        <ele>2008.81</ele>
        <time>2022-07-12T06:03:58Z</time>
      </trkpt>
      <trkpt lat="42.6540392451" lon="0.0163709465">
        <ele>2005.93</ele>
        <time>2022-07-12T06:04:10Z</time>
      </trkpt>
      <trkpt lat="42.6541099884" lon="0.0162866246">
        <ele>2002.56</ele>
        <time>2022-07-12T06:04:22Z</time>
      </trkpt>
      <trkpt lat="42.6541239023" lon="0.0161815155">
        <ele>2000.16</ele>
        <time>2022-07-12T06:04:35Z</time>
      </trkpt>
      <trkpt lat="42.6540289354" lon="0.0162181444">
        <ele>1996.80</ele>
        <time>2022-07-12T06:04:51Z</time>
      </trkpt>
      <trkpt lat="42.6539279334" lon="0.0161715411">
        <ele>1993.91</ele>
        <time>2022-07-12T06:05:04Z</time>
      </trkpt>
      <trkpt lat="42.6538365707" lon="0.0161444675">
        <ele>1990.55</ele>
        <time>2022-07-12T06:05:17Z</time>
      </trkpt>
      <trkpt lat="42.6537801605" lon="0.0161466468">
        <ele>1989.10</ele>
        <time>2022-07-12T06:05:24Z</time>
      </trkpt>
      <trkpt lat="42.6536536776" lon="0.0161815993">
        <ele>1985.26</ele>
        <time>2022-07-12T06:05:38Z</time>
      </trkpt>
      <trkpt lat="42.6536198147" lon="0.0161728822">
        <ele>1984.78</ele>
        <time>2022-07-12T06:05:41Z</time>
      </trkpt>
      <trkpt lat="42.6535140350" lon="0.0161209982">
        <ele>1983.34</ele>
        <time>2022-07-12T06:05:50Z</time>
      </trkpt>
      <trkpt lat="42.6534308027" lon="0.0161262788">
        <ele>1982.38</ele>
        <time>2022-07-12T06:05:57Z</time>
      </trkpt>
      <trkpt lat="42.6533067506" lon="0.0162256043">
        <ele>1981.41</ele>
        <time>2022-07-12T06:06:09Z</time>
      </trkpt>
      <trkpt lat="42.6532913279" lon="0.0162663404">
        <ele>1980.45</ele>
        <time>2022-07-12T06:06:13Z</time>
      </trkpt>
      <trkpt lat="42.6532156393" lon="0.0163499080">
        <ele>1979.01</ele>
        <time>2022-07-12T06:06:22Z</time>
      </trkpt>
      <trkpt lat="42.6531686168" lon="0.0163684320">
        <ele>1978.53</ele>
        <time>2022-07-12T06:06:27Z</time>
      </trkpt>
      <trkpt lat="42.6531685330" lon="0.0164397620">
        <ele>1978.05</ele>
        <time>2022-07-12T06:06:32Z</time>
      </trkpt>
      <trkpt lat="42.6531200018" lon="0.0165365729">
        <ele>1976.61</ele>
        <time>2022-07-12T06:06:40Z</time>
      </trkpt>
      <trkpt lat="42.6530569699" lon="0.0166835077">
        <ele>1972.76</ele>
        <time>2022-07-12T06:06:53Z</time>
      </trkpt>
      <trkpt lat="42.6530511025" lon="0.0166939013">
        <ele>1972.76</ele>
        <time>2022-07-12T06:06:54Z</time>
      </trkpt>
      <trkpt lat="42.6530529466" lon="0.0168214738">
        <ele>1970.36</ele>
        <time>2022-07-12T06:07:06Z</time>
      </trkpt>
      <trkpt lat="42.6530597359" lon="0.0168463681">
        <ele>1969.88</ele>
        <time>2022-07-12T06:07:08Z</time>
      </trkpt>
      <trkpt lat="42.6531075127" lon="0.0169795565">
        <ele>1967.48</ele>
        <time>2022-07-12T06:07:21Z</time>
      </trkpt>
      <trkpt lat="42.6531159785" lon="0.0170981605">
        <ele>1966.51</ele>
        <time>2022-07-12T06:07:30Z</time>
      </trkpt>
      <trkpt lat="42.6530945208" lon="0.0171881821">
        <ele>1965.07</ele>
        <time>2022-07-12T06:07:37Z</time>
      </trkpt>
      <trkpt lat="42.6530739013" lon="0.0172473583">
        <ele>1964.11</ele>
        <time>2022-07-12T06:07:41Z</time>
      </trkpt>
      <trkpt lat="42.6530278008" lon="0.0174754299">
        <ele>1962.67</ele>
        <time>2022-07-12T06:07:56Z</time>
      </trkpt>
      <trkpt lat="42.6529521961" lon="0.0175657030">
        <ele>1960.75</ele>
        <time>2022-07-12T06:08:07Z</time>
      </trkpt>
      <trkpt lat="42.6529201772" lon="0.0176139828">
        <ele>1960.27</ele>
        <time>2022-07-12T06:08:11Z</time>
      </trkpt>
      <trkpt lat="42.6528988872" lon="0.0176732428">
        <ele>1959.78</ele>
        <time>2022-07-12T06:08:16Z</time>
      </trkpt>
      <trkpt lat="42.6528771780" lon="0.0176855642">
        <ele>1959.30</ele>
        <time>2022-07-12T06:08:18Z</time>
      </trkpt>
      <trkpt lat="42.6527822949" lon="0.0177731551">
        <ele>1958.34</ele>
        <time>2022-07-12T06:08:28Z</time>
      </trkpt>
      <trkpt lat="42.6526125614" lon="0.0178582314">
        <ele>1955.94</ele>
        <time>2022-07-12T06:08:43Z</time>
      </trkpt>
      <trkpt lat="42.6525559835" lon="0.0178537052">
        <ele>1954.50</ele>
        <time>2022-07-12T06:08:49Z</time>
      </trkpt>
      <trkpt lat="42.6525044348" lon="0.0179272145">
        <ele>1953.54</ele>
        <time>2022-07-12T06:08:57Z</time>
      </trkpt>
      <trkpt lat="42.6524755172" lon="0.0179389492">
        <ele>1953.06</ele>
        <time>2022-07-12T06:08:59Z</time>
      </trkpt>
      <trkpt lat="42.6523691509" lon="0.0180014782">
        <ele>1951.61</ele>
        <time>2022-07-12T06:09:13Z</time>
      </trkpt>
      <trkpt lat="42.6522742677" lon="0.0180975348">
        <ele>1950.17</ele>
        <time>2022-07-12T06:09:25Z</time>
      </trkpt>
      <trkpt lat="42.6522058714" lon="0.0181111973">
        <ele>1948.73</ele>
        <time>2022-07-12T06:09:34Z</time>
      </trkpt>
      <trkpt lat="42.6521932147" lon="0.0181400310">
        <ele>1948.73</ele>
        <time>2022-07-12T06:09:37Z</time>
      </trkpt>
      <trkpt lat="42.6520952303" lon="0.0180635042">
        <ele>1945.85</ele>
        <time>2022-07-12T06:09:48Z</time>
      </trkpt>
      <trkpt lat="42.6520529017" lon="0.0180609897">
        <ele>1945.85</ele>
        <time>2022-07-12T06:09:52Z</time>
      </trkpt>
      <trkpt lat="42.6519628800" lon="0.0180636719">
        <ele>1944.88</ele>
        <time>2022-07-12T06:09:59Z</time>
      </trkpt>
      <trkpt lat="42.6518857665" lon="0.0180840399">
        <ele>1943.92</ele>
        <time>2022-07-12T06:10:07Z</time>
      </trkpt>
      <trkpt lat="42.6517950743" lon="0.0181298889">
        <ele>1942.48</ele>
        <time>2022-07-12T06:10:16Z</time>
      </trkpt>
      <trkpt lat="42.6517762989" lon="0.0181401987">
        <ele>1942.48</ele>
        <time>2022-07-12T06:10:18Z</time>
      </trkpt>
      <trkpt lat="42.6517001074" lon="0.0181708764">
        <ele>1941.04</ele>
        <time>2022-07-12T06:10:26Z</time>
      </trkpt>
      <trkpt lat="42.6515870355" lon="0.0181909092">
        <ele>1938.64</ele>
        <time>2022-07-12T06:10:37Z</time>
      </trkpt>
      <trkpt lat="42.6514830161" lon="0.0181649253">
        <ele>1936.23</ele>
        <time>2022-07-12T06:10:50Z</time>
      </trkpt>
      <trkpt lat="42.6513637416" lon="0.0181713793">
        <ele>1933.35</ele>
        <time>2022-07-12T06:11:03Z</time>
      </trkpt>
      <trkpt lat="42.6512573753" lon="0.0181358401">
        <ele>1930.46</ele>
        <time>2022-07-12T06:11:18Z</time>
      </trkpt>
      <trkpt lat="42.6511634141" lon="0.0181359239">
        <ele>1929.02</ele>
        <time>2022-07-12T06:11:27Z</time>
      </trkpt>
      <trkpt lat="42.6511348318" lon="0.0181398634">
        <ele>1928.54</ele>
        <time>2022-07-12T06:11:32Z</time>
      </trkpt>
      <trkpt lat="42.6510685310" lon="0.0182054099">
        <ele>1928.54</ele>
        <time>2022-07-12T06:11:42Z</time>
      </trkpt>
      <trkpt lat="42.6508776750" lon="0.0182698667">
        <ele>1928.06</ele>
        <time>2022-07-12T06:11:57Z</time>
      </trkpt>
      <trkpt lat="42.6508379448" lon="0.0182942580">
        <ele>1928.06</ele>
        <time>2022-07-12T06:12:01Z</time>
      </trkpt>
      <trkpt lat="42.6506599970" lon="0.0184285361">
        <ele>1929.02</ele>
        <time>2022-07-12T06:12:16Z</time>
      </trkpt>
      <trkpt lat="42.6504990645" lon="0.0184507482">
        <ele>1929.02</ele>
        <time>2022-07-12T06:12:30Z</time>
      </trkpt>
      <trkpt lat="42.6503957994" lon="0.0184553582">
        <ele>1928.54</ele>
        <time>2022-07-12T06:12:38Z</time>
      </trkpt>
      <trkpt lat="42.6503004134" lon="0.0184626505">
        <ele>1929.50</ele>
        <time>2022-07-12T06:12:46Z</time>
      </trkpt>
      <trkpt lat="42.6502605155" lon="0.0184791628">
        <ele>1929.50</ele>
        <time>2022-07-12T06:12:50Z</time>
      </trkpt>
      <trkpt lat="42.6502143312" lon="0.0185061526">
        <ele>1929.50</ele>
        <time>2022-07-12T06:12:54Z</time>
      </trkpt>
      <trkpt lat="42.6501668058" lon="0.0185421109">
        <ele>1929.98</ele>
        <time>2022-07-12T06:12:58Z</time>
      </trkpt>
      <trkpt lat="42.6501409896" lon="0.0185475592">
        <ele>1929.98</ele>
        <time>2022-07-12T06:13:00Z</time>
      </trkpt>
      <trkpt lat="42.6501044445" lon="0.0185967609">
        <ele>1930.46</ele>
        <time>2022-07-12T06:13:05Z</time>
      </trkpt>
      <trkpt lat="42.6500787120" lon="0.0186530035">
        <ele>1931.43</ele>
        <time>2022-07-12T06:13:10Z</time>
      </trkpt>
      <trkpt lat="42.6499925461" lon="0.0186856929">
        <ele>1931.43</ele>
        <time>2022-07-12T06:13:17Z</time>
      </trkpt>
      <trkpt lat="42.6498496346" lon="0.0187650695">
        <ele>1931.43</ele>
        <time>2022-07-12T06:13:29Z</time>
      </trkpt>
      <trkpt lat="42.6496872772" lon="0.0188794825">
        <ele>1931.43</ele>
        <time>2022-07-12T06:13:43Z</time>
      </trkpt>
      <trkpt lat="42.6496680826" lon="0.0189551711">
        <ele>1931.43</ele>
        <time>2022-07-12T06:13:49Z</time>
      </trkpt>
      <trkpt lat="42.6496474631" lon="0.0189716835">
        <ele>1929.98</ele>
        <time>2022-07-12T06:13:51Z</time>
      </trkpt>
      <trkpt lat="42.6494799927" lon="0.0189760420">
        <ele>1929.98</ele>
        <time>2022-07-12T06:14:03Z</time>
      </trkpt>
      <trkpt lat="42.6493300404" lon="0.0191621203">
        <ele>1930.95</ele>
        <time>2022-07-12T06:14:17Z</time>
      </trkpt>
      <trkpt lat="42.6492701937" lon="0.0191912055">
        <ele>1930.95</ele>
        <time>2022-07-12T06:14:22Z</time>
      </trkpt>
      <trkpt lat="42.6491810940" lon="0.0191853382">
        <ele>1931.43</ele>
        <time>2022-07-12T06:14:29Z</time>
      </trkpt>
      <trkpt lat="42.6490120310" lon="0.0191835780">
        <ele>1931.91</ele>
        <time>2022-07-12T06:14:42Z</time>
      </trkpt>
      <trkpt lat="42.6489241049" lon="0.0192585122">
        <ele>1932.39</ele>
        <time>2022-07-12T06:14:51Z</time>
      </trkpt>
      <trkpt lat="42.6487670280" lon="0.0192268286">
        <ele>1933.83</ele>
        <time>2022-07-12T06:15:04Z</time>
      </trkpt>
      <trkpt lat="42.6486710552" lon="0.0192217156">
        <ele>1934.31</ele>
        <time>2022-07-12T06:15:12Z</time>
      </trkpt>
      <trkpt lat="42.6484905928" lon="0.0192678161">
        <ele>1934.79</ele>
        <time>2022-07-12T06:15:26Z</time>
      </trkpt>
      <trkpt lat="42.6483932789" lon="0.0192875974">
        <ele>1933.35</ele>
        <time>2022-07-12T06:15:34Z</time>
      </trkpt>
      <trkpt lat="42.6482745074" lon="0.0192029402">
        <ele>1934.31</ele>
        <time>2022-07-12T06:15:47Z</time>
      </trkpt>
      <trkpt lat="42.6482476853" lon="0.0191756990">
        <ele>1934.31</ele>
        <time>2022-07-12T06:15:50Z</time>
      </trkpt>
      <trkpt lat="42.6481311768" lon="0.0190629624">
        <ele>1934.79</ele>
        <time>2022-07-12T06:16:02Z</time>
      </trkpt>
      <trkpt lat="42.6480191946" lon="0.0190301891">
        <ele>1934.79</ele>
        <time>2022-07-12T06:16:13Z</time>
      </trkpt>
      <trkpt lat="42.6479469426" lon="0.0189636368">
        <ele>1934.79</ele>
        <time>2022-07-12T06:16:21Z</time>
      </trkpt>
      <trkpt lat="42.6478452701" lon="0.0189788919">
        <ele>1934.79</ele>
        <time>2022-07-12T06:16:30Z</time>
      </trkpt>
      <trkpt lat="42.6477547456" lon="0.0190400798">
        <ele>1935.27</ele>
        <time>2022-07-12T06:16:38Z</time>
      </trkpt>
      <trkpt lat="42.6476828288" lon="0.0190651417">
        <ele>1934.79</ele>
        <time>2022-07-12T06:16:44Z</time>
      </trkpt>
      <trkpt lat="42.6476105768" lon="0.0189798977">
        <ele>1935.75</ele>
        <time>2022-07-12T06:16:54Z</time>
      </trkpt>
      <trkpt lat="42.6475974172" lon="0.0189824123">
        <ele>1934.79</ele>
        <time>2022-07-12T06:17:08Z</time>
      </trkpt>
      <trkpt lat="42.6475977525" lon="0.0189845916">
        <ele>1934.31</ele>
        <time>2022-07-12T06:17:34Z</time>
      </trkpt>
      <trkpt lat="42.6475751214" lon="0.0189441070">
        <ele>1934.31</ele>
        <time>2022-07-12T06:17:56Z</time>
      </trkpt>
      <trkpt lat="42.6475181244" lon="0.0188860204">
        <ele>1931.91</ele>
        <time>2022-07-12T06:18:07Z</time>
      </trkpt>
      <trkpt lat="42.6474260911" lon="0.0187571067">
        <ele>1928.54</ele>
        <time>2022-07-12T06:18:21Z</time>
      </trkpt>
      <trkpt lat="42.6473064814" lon="0.0186550990">
        <ele>1925.18</ele>
        <time>2022-07-12T06:18:36Z</time>
      </trkpt>
      <trkpt lat="42.6471763942" lon="0.0185849424">
        <ele>1921.81</ele>
        <time>2022-07-12T06:18:50Z</time>
      </trkpt>
      <trkpt lat="42.6471445430" lon="0.0185437035">
        <ele>1918.45</ele>
        <time>2022-07-12T06:19:00Z</time>
      </trkpt>
      <trkpt lat="42.6471550204" lon="0.0185413565">
        <ele>1918.45</ele>
        <time>2022-07-12T06:19:02Z</time>
      </trkpt>
      <trkpt lat="42.6472981833" lon="0.0185594615">
        <ele>1915.08</ele>
        <time>2022-07-12T06:19:17Z</time>
      </trkpt>
      <trkpt lat="42.6474236604" lon="0.0185975991">
        <ele>1911.72</ele>
        <time>2022-07-12T06:19:31Z</time>
      </trkpt>
      <trkpt lat="42.6474207267" lon="0.0185600482">
        <ele>1908.83</ele>
        <time>2022-07-12T06:19:44Z</time>
      </trkpt>
      <trkpt lat="42.6473926473" lon="0.0185022969">
        <ele>1905.95</ele>
        <time>2022-07-12T06:19:59Z</time>
      </trkpt>
      <trkpt lat="42.6473304536" lon="0.0184613094">
        <ele>1905.95</ele>
        <time>2022-07-12T06:20:11Z</time>
      </trkpt>
      <trkpt lat="42.6474098302" lon="0.0184431206">
        <ele>1902.59</ele>
        <time>2022-07-12T06:20:23Z</time>
      </trkpt>
      <trkpt lat="42.6475084852" lon="0.0184382591">
        <ele>1900.66</ele>
        <time>2022-07-12T06:20:34Z</time>
      </trkpt>
      <trkpt lat="42.6474304497" lon="0.0183224212">
        <ele>1897.78</ele>
        <time>2022-07-12T06:20:50Z</time>
      </trkpt>
      <trkpt lat="42.6473227423" lon="0.0182323158">
        <ele>1894.42</ele>
        <time>2022-07-12T06:21:04Z</time>
      </trkpt>
      <trkpt lat="42.6473271847" lon="0.0182071701">
        <ele>1894.42</ele>
        <time>2022-07-12T06:21:06Z</time>
      </trkpt>
      <trkpt lat="42.6473971736" lon="0.0182039849">
        <ele>1892.97</ele>
        <time>2022-07-12T06:21:14Z</time>
      </trkpt>
      <trkpt lat="42.6475316193" lon="0.0182382669">
        <ele>1890.09</ele>
        <time>2022-07-12T06:21:28Z</time>
      </trkpt>
      <trkpt lat="42.6475620456" lon="0.0182385184">
        <ele>1888.65</ele>
        <time>2022-07-12T06:21:35Z</time>
      </trkpt>
      <trkpt lat="42.6475213096" lon="0.0181794260">
        <ele>1887.69</ele>
        <time>2022-07-12T06:21:41Z</time>
      </trkpt>
      <trkpt lat="42.6474266779" lon="0.0180561282">
        <ele>1884.32</ele>
        <time>2022-07-12T06:21:55Z</time>
      </trkpt>
      <trkpt lat="42.6473474689" lon="0.0179472473">
        <ele>1881.44</ele>
        <time>2022-07-12T06:22:10Z</time>
      </trkpt>
      <trkpt lat="42.6473465469" lon="0.0179288909">
        <ele>1880.48</ele>
        <time>2022-07-12T06:22:12Z</time>
      </trkpt>
      <trkpt lat="42.6474125125" lon="0.0179142226">
        <ele>1877.11</ele>
        <time>2022-07-12T06:22:24Z</time>
      </trkpt>
      <trkpt lat="42.6474879496" lon="0.0178755820">
        <ele>1875.19</ele>
        <time>2022-07-12T06:22:34Z</time>
      </trkpt>
      <trkpt lat="42.6475286856" lon="0.0178284757">
        <ele>1873.27</ele>
        <time>2022-07-12T06:22:44Z</time>
      </trkpt>
      <trkpt lat="42.6475125924" lon="0.0178102031">
        <ele>1872.79</ele>
        <time>2022-07-12T06:22:47Z</time>
      </trkpt>
      <trkpt lat="42.6474322099" lon="0.0177972112">
        <ele>1871.82</ele>
        <time>2022-07-12T06:22:59Z</time>
      </trkpt>
      <trkpt lat="42.6474226546" lon="0.0177886616">
        <ele>1871.82</ele>
        <time>2022-07-12T06:23:00Z</time>
      </trkpt>
      <trkpt lat="42.6474028733" lon="0.0177470036">
        <ele>1870.38</ele>
        <time>2022-07-12T06:23:04Z</time>
      </trkpt>
      <trkpt lat="42.6473580301" lon="0.0176800322">
        <ele>1869.90</ele>
        <time>2022-07-12T06:23:09Z</time>
      </trkpt>
      <trkpt lat="42.6472701039" lon="0.0175631884">
        <ele>1866.54</ele>
        <time>2022-07-12T06:23:23Z</time>
      </trkpt>
      <trkpt lat="42.6471823454" lon="0.0175014138">
        <ele>1864.61</ele>
        <time>2022-07-12T06:23:34Z</time>
      </trkpt>
      <trkpt lat="42.6470668428" lon="0.0173690636">
        <ele>1862.21</ele>
        <time>2022-07-12T06:23:47Z</time>
      </trkpt>
      <trkpt lat="42.6469850354" lon="0.0173041038">
        <ele>1860.29</ele>
        <time>2022-07-12T06:23:56Z</time>
      </trkpt>
      <trkpt lat="42.6468546968" lon="0.0172742642">
        <ele>1857.89</ele>
        <time>2022-07-12T06:24:09Z</time>
      </trkpt>
      <trkpt lat="42.6467983704" lon="0.0172246434">
        <ele>1856.44</ele>
        <time>2022-07-12T06:24:16Z</time>
      </trkpt>
      <trkpt lat="42.6467521861" lon="0.0171301793">
        <ele>1855.48</ele>
        <time>2022-07-12T06:24:23Z</time>
      </trkpt>
      <trkpt lat="42.6466569677" lon="0.0170581788">
        <ele>1853.56</ele>
        <time>2022-07-12T06:24:33Z</time>
      </trkpt>
      <trkpt lat="42.6465754118" lon="0.0169565901">
        <ele>1850.68</ele>
        <time>2022-07-12T06:24:44Z</time>
      </trkpt>
      <trkpt lat="42.6464875694" lon="0.0168790575">
        <ele>1848.75</ele>
        <time>2022-07-12T06:24:53Z</time>
      </trkpt>
      <trkpt lat="42.6463959552" lon="0.0168586895">
        <ele>1846.83</ele>
        <time>2022-07-12T06:25:02Z</time>
      </trkpt>
      <trkpt lat="42.6463706419" lon="0.0167555083">
        <ele>1843.95</ele>
        <time>2022-07-12T06:25:14Z</time>
      </trkpt>
      <trkpt lat="42.6463860646" lon="0.0167439412">
        <ele>1843.95</ele>
        <time>2022-07-12T06:25:16Z</time>
      </trkpt>
      <trkpt lat="42.6465319935" lon="0.0166748744">
        <ele>1840.10</ele>
        <time>2022-07-12T06:25:32Z</time>
      </trkpt>
      <trkpt lat="42.6466496754" lon="0.0166326296">
        <ele>1837.70</ele>
        <time>2022-07-12T06:25:44Z</time>
      </trkpt>
      <trkpt lat="42.6466723904" lon="0.0166348089">
        <ele>1836.74</ele>
        <time>2022-07-12T06:25:46Z</time>
      </trkpt>
      <trkpt lat="42.6468568761" lon="0.0166507345">
        <ele>1834.81</ele>
        <time>2022-07-12T06:26:03Z</time>
      </trkpt>
      <trkpt lat="42.6468655095" lon="0.0166509859">
        <ele>1834.81</ele>
        <time>2022-07-12T06:26:04Z</time>
      </trkpt>
      <trkpt lat="42.6470116898" lon="0.0166517403">
        <ele>1831.93</ele>
        <time>2022-07-12T06:26:18Z</time>
      </trkpt>
      <trkpt lat="42.6471299585" lon="0.0166643970">
        <ele>1829.53</ele>
        <time>2022-07-12T06:26:30Z</time>
      </trkpt>
      <trkpt lat="42.6471506618" lon="0.0166747905">
        <ele>1829.05</ele>
        <time>2022-07-12T06:26:32Z</time>
      </trkpt>
      <trkpt lat="42.6472856104" lon="0.0166732818">
        <ele>1826.64</ele>
        <time>2022-07-12T06:26:46Z</time>
      </trkpt>
      <trkpt lat="42.6473160367" lon="0.0166924763">
        <ele>1825.68</ele>
        <time>2022-07-12T06:26:49Z</time>
      </trkpt>
      <trkpt lat="42.6475216448" lon="0.0167081505">
        <ele>1823.76</ele>
        <time>2022-07-12T06:27:06Z</time>
      </trkpt>
      <trkpt lat="42.6476690825" lon="0.0167289376">
        <ele>1819.91</ele>
        <time>2022-07-12T06:27:19Z</time>
      </trkpt>
      <trkpt lat="42.6477070525" lon="0.0167211425">
        <ele>1819.91</ele>
        <time>2022-07-12T06:27:22Z</time>
      </trkpt>
      <trkpt lat="42.6477171108" lon="0.0167245790">
        <ele>1819.43</ele>
        <time>2022-07-12T06:27:23Z</time>
      </trkpt>
      <trkpt lat="42.6478774566" lon="0.0167897064">
        <ele>1816.55</ele>
        <time>2022-07-12T06:27:36Z</time>
      </trkpt>
      <trkpt lat="42.6480036043" lon="0.0169184525">
        <ele>1813.18</ele>
        <time>2022-07-12T06:27:52Z</time>
      </trkpt>
      <trkpt lat="42.6481004991" lon="0.0169040356">
        <ele>1810.30</ele>
        <time>2022-07-12T06:28:04Z</time>
      </trkpt>
      <trkpt lat="42.6481401455" lon="0.0168856792">
        <ele>1808.38</ele>
        <time>2022-07-12T06:28:15Z</time>
      </trkpt>
      <trkpt lat="42.6481541432" lon="0.0168647245">
        <ele>1807.90</ele>
        <time>2022-07-12T06:28:16Z</time>
      </trkpt>
      <trkpt lat="42.6482384652" lon="0.0167622976">
        <ele>1804.53</ele>
        <time>2022-07-12T06:28:30Z</time>
      </trkpt>
      <trkpt lat="42.6482823025" lon="0.0166017842">
        <ele>1801.17</ele>
        <time>2022-07-12T06:28:45Z</time>
      </trkpt>
      <trkpt lat="42.6484294888" lon="0.0165190548">
        <ele>1799.24</ele>
        <time>2022-07-12T06:28:59Z</time>
      </trkpt>
      <trkpt lat="42.6484350208" lon="0.0163946673">
        <ele>1796.84</ele>
        <time>2022-07-12T06:29:13Z</time>
      </trkpt>
      <trkpt lat="42.6483574044" lon="0.0162179768">
        <ele>1793.48</ele>
        <time>2022-07-12T06:29:25Z</time>
      </trkpt>
      <trkpt lat="42.6483670436" lon="0.0161463954">
        <ele>1792.52</ele>
        <time>2022-07-12T06:29:30Z</time>
      </trkpt>
      <trkpt lat="42.6483817119" lon="0.0161049049">
        <ele>1792.03</ele>
        <time>2022-07-12T06:29:33Z</time>
      </trkpt>
      <trkpt lat="42.6484155748" lon="0.0159805175">
        <ele>1788.67</ele>
        <time>2022-07-12T06:29:45Z</time>
      </trkpt>
      <trkpt lat="42.6484611724" lon="0.0159006380">
        <ele>1786.75</ele>
        <time>2022-07-12T06:29:53Z</time>
      </trkpt>
      <trkpt lat="42.6484815404" lon="0.0158247817">
        <ele>1786.27</ele>
        <time>2022-07-12T06:30:05Z</time>
      </trkpt>
      <trkpt lat="42.6485017408" lon="0.0158376060">
        <ele>1785.31</ele>
        <time>2022-07-12T06:30:22Z</time>
      </trkpt>
      <trkpt lat="42.6485569775" lon="0.0158720557">
        <ele>1785.31</ele>
        <time>2022-07-12T06:30:38Z</time>
      </trkpt>
      <trkpt lat="42.6485927682" lon="0.0158859696">
        <ele>1785.31</ele>
        <time>2022-07-12T06:30:44Z</time>
      </trkpt>
      <trkpt lat="42.6487531979" lon="0.0157129671">
        <ele>1782.90</ele>
        <time>2022-07-12T06:31:01Z</time>
      </trkpt>
      <trkpt lat="42.6488418784" lon="0.0156247895">
        <ele>1781.46</ele>
        <time>2022-07-12T06:31:16Z</time>
      </trkpt>
      <trkpt lat="42.6489274576" lon="0.0155428983">
        <ele>1779.54</ele>
        <time>2022-07-12T06:31:26Z</time>
      </trkpt>
      <trkpt lat="42.6489634160" lon="0.0155439880">
        <ele>1779.06</ele>
        <time>2022-07-12T06:31:29Z</time>
      </trkpt>
      <trkpt lat="42.6491422020" lon="0.0156117976">
        <ele>1778.58</ele>
        <time>2022-07-12T06:31:44Z</time>
      </trkpt>
      <trkpt lat="42.6493438706" lon="0.0156790204">
        <ele>1779.54</ele>
        <time>2022-07-12T06:32:00Z</time>
      </trkpt>
      <trkpt lat="42.6493600477" lon="0.0156812835">
        <ele>1779.54</ele>
        <time>2022-07-12T06:32:02Z</time>
      </trkpt>
      <trkpt lat="42.6494143624" lon="0.0157118775">
        <ele>1780.02</ele>
        <time>2022-07-12T06:32:16Z</time>
      </trkpt>
      <trkpt lat="42.6495116763" lon="0.0157387834">
        <ele>1780.98</ele>
        <time>2022-07-12T06:32:28Z</time>
      </trkpt>
      <trkpt lat="42.6495462935" lon="0.0156909227">
        <ele>1779.54</ele>
        <time>2022-07-12T06:32:34Z</time>
      </trkpt>
      <trkpt lat="42.6496216469" lon="0.0156651903">
        <ele>1779.06</ele>
        <time>2022-07-12T06:32:45Z</time>
      </trkpt>
      <trkpt lat="42.6497606188" lon="0.0156635977">
        <ele>1780.98</ele>
        <time>2022-07-12T06:32:57Z</time>
      </trkpt>
      <trkpt lat="42.6498272549" lon="0.0156609993">
        <ele>1780.98</ele>
        <time>2022-07-12T06:33:08Z</time>
      </trkpt>
      <trkpt lat="42.6498367265" lon="0.0156701356">
        <ele>1780.98</ele>
        <time>2022-07-12T06:33:25Z</time>
      </trkpt>
      <trkpt lat="42.6498566754" lon="0.0156244542">
        <ele>1780.98</ele>
        <time>2022-07-12T06:33:30Z</time>
      </trkpt>
      <trkpt lat="42.6499237306" lon="0.0154541340">
        <ele>1780.98</ele>
        <time>2022-07-12T06:33:45Z</time>
      </trkpt>
      <trkpt lat="42.6499489602" lon="0.0154708978">
        <ele>1779.54</ele>
        <time>2022-07-12T06:33:55Z</time>
      </trkpt>
      <trkpt lat="42.6499109063" lon="0.0154587440">
        <ele>1779.06</ele>
        <time>2022-07-12T06:34:10Z</time>
      </trkpt>
      <trkpt lat="42.6499335375" lon="0.0154677965">
        <ele>1778.10</ele>
        <time>2022-07-12T06:34:36Z</time>
      </trkpt>
      <trkpt lat="42.6499420032" lon="0.0154687185">
        <ele>1777.61</ele>
        <time>2022-07-12T06:35:17Z</time>
      </trkpt>
      <trkpt lat="42.6499439310" lon="0.0154649466">
        <ele>1777.61</ele>
        <time>2022-07-12T06:35:40Z</time>
      </trkpt>
      <trkpt lat="42.6499550790" lon="0.0154545531">
        <ele>1777.13</ele>
        <time>2022-07-12T06:36:08Z</time>
      </trkpt>
      <trkpt lat="42.6499452721" lon="0.0154572353">
        <ele>1776.17</ele>
        <time>2022-07-12T06:36:38Z</time>
      </trkpt>
      <trkpt lat="42.6499435119" lon="0.0154572353">
        <ele>1776.17</ele>
        <time>2022-07-12T06:36:39Z</time>
      </trkpt>
      <trkpt lat="42.6499539893" lon="0.0154441595">
        <ele>1775.69</ele>
        <time>2022-07-12T06:37:05Z</time>
      </trkpt>
      <trkpt lat="42.6499205455" lon="0.0154726580">
        <ele>1775.69</ele>
        <time>2022-07-12T06:37:39Z</time>
      </trkpt>
      <trkpt lat="42.6499528997" lon="0.0154647790">
        <ele>1775.69</ele>
        <time>2022-07-12T06:38:21Z</time>
      </trkpt>
      <trkpt lat="42.6499485411" lon="0.0154621806">
        <ele>1775.69</ele>
        <time>2022-07-12T06:39:03Z</time>
      </trkpt>
      <trkpt lat="42.6499468647" lon="0.0154499430">
        <ele>1775.69</ele>
        <time>2022-07-12T06:39:46Z</time>
      </trkpt>
      <trkpt lat="42.6499312744" lon="0.0154727418">
        <ele>1775.69</ele>
        <time>2022-07-12T06:40:26Z</time>
      </trkpt>
      <trkpt lat="42.6499454398" lon="0.0154555589">
        <ele>1776.65</ele>
        <time>2022-07-12T06:41:04Z</time>
      </trkpt>
      <trkpt lat="42.6499430090" lon="0.0154641084">
        <ele>1776.65</ele>
        <time>2022-07-12T06:41:43Z</time>
      </trkpt>
      <trkpt lat="42.6499457750" lon="0.0154729933">
        <ele>1776.65</ele>
        <time>2022-07-12T06:42:13Z</time>
      </trkpt>
      <trkpt lat="42.6499353815" lon="0.0154793635">
        <ele>1776.65</ele>
        <time>2022-07-12T06:42:56Z</time>
      </trkpt>
      <trkpt lat="42.6499389857" lon="0.0154973846">
        <ele>1776.65</ele>
        <time>2022-07-12T06:43:30Z</time>
      </trkpt>
      <trkpt lat="42.6499524806" lon="0.0154709816">
        <ele>1776.65</ele>
        <time>2022-07-12T06:44:03Z</time>
      </trkpt>
      <trkpt lat="42.6499062963" lon="0.0154824648">
        <ele>1776.65</ele>
        <time>2022-07-12T06:44:34Z</time>
      </trkpt>
      <trkpt lat="42.6499155164" lon="0.0154767651">
        <ele>1776.65</ele>
        <time>2022-07-12T06:45:03Z</time>
      </trkpt>
      <trkpt lat="42.6499237306" lon="0.0154828001">
        <ele>1776.65</ele>
        <time>2022-07-12T06:45:24Z</time>
      </trkpt>
      <trkpt lat="42.6499167737" lon="0.0154736638">
        <ele>1776.65</ele>
        <time>2022-07-12T06:45:54Z</time>
      </trkpt>
      <trkpt lat="42.6499269158" lon="0.0154971331">
        <ele>1776.17</ele>
        <time>2022-07-12T06:46:25Z</time>
      </trkpt>
      <trkpt lat="42.6499264129" lon="0.0155146513">
        <ele>1776.17</ele>
        <time>2022-07-12T06:46:58Z</time>
      </trkpt>
      <trkpt lat="42.6498857606" lon="0.0155170821">
        <ele>1777.61</ele>
        <time>2022-07-12T06:47:33Z</time>
      </trkpt>
      <trkpt lat="42.6498969086" lon="0.0155012403">
        <ele>1776.17</ele>
        <time>2022-07-12T06:47:36Z</time>
      </trkpt>
      <trkpt lat="42.6499389857" lon="0.0154825486">
        <ele>1776.17</ele>
        <time>2022-07-12T06:48:18Z</time>
      </trkpt>
      <trkpt lat="42.6499268319" lon="0.0154715683">
        <ele>1776.17</ele>
        <time>2022-07-12T06:48:48Z</time>
      </trkpt>
      <trkpt lat="42.6499256585" lon="0.0154775195">
        <ele>1776.17</ele>
        <time>2022-07-12T06:49:27Z</time>
      </trkpt>
      <trkpt lat="42.6499326993" lon="0.0154928584">
        <ele>1776.17</ele>
        <time>2022-07-12T06:49:57Z</time>
      </trkpt>
      <trkpt lat="42.6499427576" lon="0.0155128911">
        <ele>1776.17</ele>
        <time>2022-07-12T06:50:32Z</time>
      </trkpt>
      <trkpt lat="42.6499523129" lon="0.0155040063">
        <ele>1775.69</ele>
        <time>2022-07-12T06:51:05Z</time>
      </trkpt>
      <trkpt lat="42.6499236468" lon="0.0155119691">
        <ele>1776.65</ele>
        <time>2022-07-12T06:51:35Z</time>
      </trkpt>
      <trkpt lat="42.6499254070" lon="0.0154702272">
        <ele>1776.65</ele>
        <time>2022-07-12T06:51:50Z</time>
      </trkpt>
      <trkpt lat="42.6498995069" lon="0.0154415611">
        <ele>1776.65</ele>
        <time>2022-07-12T06:52:12Z</time>
      </trkpt>
      <trkpt lat="42.6498761214" lon="0.0153999869">
        <ele>1775.69</ele>
        <time>2022-07-12T06:52:25Z</time>
      </trkpt>
      <trkpt lat="42.6498760376" lon="0.0153738353">
        <ele>1777.13</ele>
        <time>2022-07-12T06:52:28Z</time>
      </trkpt>
      <trkpt lat="42.6498509757" lon="0.0153078698">
        <ele>1777.13</ele>
        <time>2022-07-12T06:52:36Z</time>
      </trkpt>
      <trkpt lat="42.6498178672" lon="0.0152487773">
        <ele>1777.13</ele>
        <time>2022-07-12T06:52:41Z</time>
      </trkpt>
      <trkpt lat="42.6497845072" lon="0.0152389705">
        <ele>1776.17</ele>
        <time>2022-07-12T06:52:44Z</time>
      </trkpt>
      <trkpt lat="42.6497152727" lon="0.0151783694">
        <ele>1775.69</ele>
        <time>2022-07-12T06:52:51Z</time>
      </trkpt>
      <trkpt lat="42.6496621314" lon="0.0151916128">
        <ele>1775.21</ele>
        <time>2022-07-12T06:52:56Z</time>
      </trkpt>
      <trkpt lat="42.6495783962" lon="0.0151525531">
        <ele>1774.73</ele>
        <time>2022-07-12T06:53:03Z</time>
      </trkpt>
      <trkpt lat="42.6494847704" lon="0.0151188578">
        <ele>1776.17</ele>
        <time>2022-07-12T06:53:15Z</time>
      </trkpt>
      <trkpt lat="42.6494047232" lon="0.0151324365">
        <ele>1776.65</ele>
        <time>2022-07-12T06:53:25Z</time>
      </trkpt>
      <trkpt lat="42.6493553538" lon="0.0151185226">
        <ele>1777.13</ele>
        <time>2022-07-12T06:53:30Z</time>
      </trkpt>
      <trkpt lat="42.6493127737" lon="0.0151497032">
        <ele>1777.61</ele>
        <time>2022-07-12T06:53:35Z</time>
      </trkpt>
      <trkpt lat="42.6492154598" lon="0.0152020901">
        <ele>1776.17</ele>
        <time>2022-07-12T06:53:50Z</time>
      </trkpt>
      <trkpt lat="42.6492145378" lon="0.0151937082">
        <ele>1776.17</ele>
        <time>2022-07-12T06:53:51Z</time>
      </trkpt>
      <trkpt lat="42.6491881348" lon="0.0151725020">
        <ele>1776.17</ele>
        <time>2022-07-12T06:53:55Z</time>
      </trkpt>
      <trkpt lat="42.6491469797" lon="0.0151339453">
        <ele>1776.17</ele>
        <time>2022-07-12T06:54:02Z</time>
      </trkpt>
      <trkpt lat="42.6490568742" lon="0.0151085481">
        <ele>1774.25</ele>
        <time>2022-07-12T06:54:17Z</time>
      </trkpt>
      <trkpt lat="42.6489858795" lon="0.0150660519">
        <ele>1772.33</ele>
        <time>2022-07-12T06:54:28Z</time>
      </trkpt>
      <trkpt lat="42.6488443930" lon="0.0150028523">
        <ele>1770.41</ele>
        <time>2022-07-12T06:54:43Z</time>
      </trkpt>
      <trkpt lat="42.6488169003" lon="0.0149847474">
        <ele>1769.92</ele>
        <time>2022-07-12T06:54:46Z</time>
      </trkpt>
      <trkpt lat="42.6487443969" lon="0.0148974080">
        <ele>1769.92</ele>
        <time>2022-07-12T06:54:54Z</time>
      </trkpt>
      <trkpt lat="42.6485747471" lon="0.0146690849">
        <ele>1769.92</ele>
        <time>2022-07-12T06:55:10Z</time>
      </trkpt>
      <trkpt lat="42.6484898385" lon="0.0144398399">
        <ele>1768.96</ele>
        <time>2022-07-12T06:55:23Z</time>
      </trkpt>
      <trkpt lat="42.6484095398" lon="0.0142468885">
        <ele>1768.00</ele>
        <time>2022-07-12T06:55:36Z</time>
      </trkpt>
      <trkpt lat="42.6482738368" lon="0.0139325671">
        <ele>1767.04</ele>
        <time>2022-07-12T06:55:53Z</time>
      </trkpt>
      <trkpt lat="42.6481718291" lon="0.0136903301">
        <ele>1766.56</ele>
        <time>2022-07-12T06:56:07Z</time>
      </trkpt>
      <trkpt lat="42.6480801310" lon="0.0134102907">
        <ele>1766.08</ele>
        <time>2022-07-12T06:56:22Z</time>
      </trkpt>
      <trkpt lat="42.6479513012" lon="0.0131264795">
        <ele>1765.12</ele>
        <time>2022-07-12T06:56:38Z</time>
      </trkpt>
      <trkpt lat="42.6478150114" lon="0.0128386449">
        <ele>1764.64</ele>
        <time>2022-07-12T06:56:54Z</time>
      </trkpt>
      <trkpt lat="42.6477218885" lon="0.0125482120">
        <ele>1764.16</ele>
        <time>2022-07-12T06:57:10Z</time>
      </trkpt>
      <trkpt lat="42.6476389915" lon="0.0123524945">
        <ele>1763.20</ele>
        <time>2022-07-12T06:57:22Z</time>
      </trkpt>
      <trkpt lat="42.6474570204" lon="0.0121293683">
        <ele>1762.71</ele>
        <time>2022-07-12T06:57:38Z</time>
      </trkpt>
      <trkpt lat="42.6473100856" lon="0.0119321421">
        <ele>1762.23</ele>
        <time>2022-07-12T06:57:53Z</time>
      </trkpt>
      <trkpt lat="42.6472005341" lon="0.0116158091">
        <ele>1761.75</ele>
        <time>2022-07-12T06:58:11Z</time>
      </trkpt>
      <trkpt lat="42.6470069122" lon="0.0114848837">
        <ele>1761.27</ele>
        <time>2022-07-12T06:58:25Z</time>
      </trkpt>
      <trkpt lat="42.6467992086" lon="0.0113870669">
        <ele>1760.79</ele>
        <time>2022-07-12T06:58:39Z</time>
      </trkpt>
      <trkpt lat="42.6466298942" lon="0.0111869909">
        <ele>1760.79</ele>
        <time>2022-07-12T06:58:54Z</time>
      </trkpt>
      <trkpt lat="42.6466086879" lon="0.0111548044">
        <ele>1760.79</ele>
        <time>2022-07-12T06:58:56Z</time>
      </trkpt>
      <trkpt lat="42.6465206780" lon="0.0108886790">
        <ele>1760.31</ele>
        <time>2022-07-12T06:59:11Z</time>
      </trkpt>
      <trkpt lat="42.6463654451" lon="0.0105749443">
        <ele>1759.83</ele>
        <time>2022-07-12T06:59:30Z</time>
      </trkpt>
      <trkpt lat="42.6462592464" lon="0.0103079807">
        <ele>1759.35</ele>
        <time>2022-07-12T06:59:45Z</time>
      </trkpt>
      <trkpt lat="42.6460807119" lon="0.0101302005">
        <ele>1760.31</ele>
        <time>2022-07-12T07:00:01Z</time>
      </trkpt>
      <trkpt lat="42.6460714079" lon="0.0101157837">
        <ele>1760.31</ele>
        <time>2022-07-12T07:00:02Z</time>
      </trkpt>
      <trkpt lat="42.6458963100" lon="0.0100363232">
        <ele>1760.31</ele>
        <time>2022-07-12T07:00:16Z</time>
      </trkpt>
      <trkpt lat="42.6457234751" lon="0.0099021289">
        <ele>1760.31</ele>
        <time>2022-07-12T07:00:30Z</time>
      </trkpt>
      <trkpt lat="42.6455244049" lon="0.0098197348">
        <ele>1760.31</ele>
        <time>2022-07-12T07:00:46Z</time>
      </trkpt>
      <trkpt lat="42.6453013625" lon="0.0097292103">
        <ele>1759.83</ele>
        <time>2022-07-12T07:01:01Z</time>
      </trkpt>
      <trkpt lat="42.6452769712" lon="0.0097242650">
        <ele>1759.83</ele>
        <time>2022-07-12T07:01:03Z</time>
      </trkpt>
      <trkpt lat="42.6450348180" lon="0.0096239336">
        <ele>1758.87</ele>
        <time>2022-07-12T07:01:20Z</time>
      </trkpt>
      <trkpt lat="42.6448994502" lon="0.0095890649">
        <ele>1757.91</ele>
        <time>2022-07-12T07:01:30Z</time>
      </trkpt>
      <trkpt lat="42.6448036451" lon="0.0095165614">
        <ele>1757.91</ele>
        <time>2022-07-12T07:01:38Z</time>
      </trkpt>
      <trkpt lat="42.6447096001" lon="0.0094305631">
        <ele>1757.91</ele>
        <time>2022-07-12T07:01:46Z</time>
      </trkpt>
      <trkpt lat="42.6446310617" lon="0.0093170721">
        <ele>1757.91</ele>
        <time>2022-07-12T07:01:54Z</time>
      </trkpt>
      <trkpt lat="42.6444788463" lon="0.0091142301">
        <ele>1757.43</ele>
        <time>2022-07-12T07:02:09Z</time>
      </trkpt>
      <trkpt lat="42.6443572249" lon="0.0089145731">
        <ele>1756.95</ele>
        <time>2022-07-12T07:02:22Z</time>
      </trkpt>
      <trkpt lat="42.6442093682" lon="0.0087317638">
        <ele>1756.47</ele>
        <time>2022-07-12T07:02:36Z</time>
      </trkpt>
      <trkpt lat="42.6440483518" lon="0.0085982401">
        <ele>1756.47</ele>
        <time>2022-07-12T07:02:50Z</time>
      </trkpt>
      <trkpt lat="42.6439946238" lon="0.0085491221">
        <ele>1757.91</ele>
        <time>2022-07-12T07:02:55Z</time>
      </trkpt>
      <trkpt lat="42.6438214537" lon="0.0084010977">
        <ele>1758.87</ele>
        <time>2022-07-12T07:03:10Z</time>
      </trkpt>
      <trkpt lat="42.6436402369" lon="0.0082839187">
        <ele>1759.35</ele>
        <time>2022-07-12T07:03:24Z</time>
      </trkpt>
      <trkpt lat="42.6434585173" lon="0.0081292726">
        <ele>1758.87</ele>
        <time>2022-07-12T07:03:40Z</time>
      </trkpt>
      <trkpt lat="42.6432769652" lon="0.0079328008">
        <ele>1758.87</ele>
        <time>2022-07-12T07:03:56Z</time>
      </trkpt>
      <trkpt lat="42.6430950779" lon="0.0077624805">
        <ele>1757.91</ele>
        <time>2022-07-12T07:04:11Z</time>
      </trkpt>
      <trkpt lat="42.6430045534" lon="0.0076216646">
        <ele>1757.43</ele>
        <time>2022-07-12T07:04:21Z</time>
      </trkpt>
      <trkpt lat="42.6427937485" lon="0.0075514242">
        <ele>1757.43</ele>
        <time>2022-07-12T07:04:36Z</time>
      </trkpt>
      <trkpt lat="42.6426891424" lon="0.0073699560">
        <ele>1756.95</ele>
        <time>2022-07-12T07:04:48Z</time>
      </trkpt>
      <trkpt lat="42.6426102687" lon="0.0072844606">
        <ele>1756.95</ele>
        <time>2022-07-12T07:04:55Z</time>
      </trkpt>
      <trkpt lat="42.6424301416" lon="0.0070141442">
        <ele>1756.95</ele>
        <time>2022-07-12T07:05:13Z</time>
      </trkpt>
      <trkpt lat="42.6424053311" lon="0.0069687143">
        <ele>1756.47</ele>
        <time>2022-07-12T07:05:16Z</time>
      </trkpt>
      <trkpt lat="42.6422684547" lon="0.0067210291">
        <ele>1755.02</ele>
        <time>2022-07-12T07:05:32Z</time>
      </trkpt>
      <trkpt lat="42.6420768443" lon="0.0065184385">
        <ele>1754.06</ele>
        <time>2022-07-12T07:05:48Z</time>
      </trkpt>
      <trkpt lat="42.6418818813" lon="0.0063418318">
        <ele>1752.62</ele>
        <time>2022-07-12T07:06:04Z</time>
      </trkpt>
      <trkpt lat="42.6417035982" lon="0.0061658118">
        <ele>1751.18</ele>
        <time>2022-07-12T07:06:19Z</time>
      </trkpt>
      <trkpt lat="42.6415329427" lon="0.0059643108">
        <ele>1750.22</ele>
        <time>2022-07-12T07:06:34Z</time>
      </trkpt>
      <trkpt lat="42.6413923781" lon="0.0056742132">
        <ele>1749.74</ele>
        <time>2022-07-12T07:06:51Z</time>
      </trkpt>
      <trkpt lat="42.6412868500" lon="0.0054355804">
        <ele>1748.29</ele>
        <time>2022-07-12T07:07:05Z</time>
      </trkpt>
      <trkpt lat="42.6412348822" lon="0.0053452235">
        <ele>1748.29</ele>
        <time>2022-07-12T07:07:12Z</time>
      </trkpt>
      <trkpt lat="42.6411828306" lon="0.0052155554">
        <ele>1749.74</ele>
        <time>2022-07-12T07:07:20Z</time>
      </trkpt>
      <trkpt lat="42.6411499735" lon="0.0051118713">
        <ele>1750.22</ele>
        <time>2022-07-12T07:07:26Z</time>
      </trkpt>
      <trkpt lat="42.6410646457" lon="0.0048338436">
        <ele>1751.18</ele>
        <time>2022-07-12T07:07:43Z</time>
      </trkpt>
      <trkpt lat="42.6410439424" lon="0.0047812052">
        <ele>1751.66</ele>
        <time>2022-07-12T07:07:46Z</time>
      </trkpt>
      <trkpt lat="42.6410245802" lon="0.0047636870">
        <ele>1751.66</ele>
        <time>2022-07-12T07:07:48Z</time>
      </trkpt>
      <trkpt lat="42.6409720257" lon="0.0047397986">
        <ele>1752.62</ele>
        <time>2022-07-12T07:07:53Z</time>
      </trkpt>
      <trkpt lat="42.6409353968" lon="0.0046531297">
        <ele>1752.62</ele>
        <time>2022-07-12T07:07:58Z</time>
      </trkpt>
      <trkpt lat="42.6408333890" lon="0.0043730903">
        <ele>1752.62</ele>
        <time>2022-07-12T07:08:14Z</time>
      </trkpt>
      <trkpt lat="42.6406992786" lon="0.0041292608">
        <ele>1752.62</ele>
        <time>2022-07-12T07:08:29Z</time>
      </trkpt>
      <trkpt lat="42.6404733863" lon="0.0039675739">
        <ele>1752.14</ele>
        <time>2022-07-12T07:08:45Z</time>
      </trkpt>
      <trkpt lat="42.6402738132" lon="0.0039286818">
        <ele>1750.70</ele>
        <time>2022-07-12T07:08:58Z</time>
      </trkpt>
      <trkpt lat="42.6401194185" lon="0.0036535040">
        <ele>1749.74</ele>
        <time>2022-07-12T07:09:15Z</time>
      </trkpt>
      <trkpt lat="42.6399635989" lon="0.0034774002">
        <ele>1749.26</ele>
        <time>2022-07-12T07:09:29Z</time>
      </trkpt>
      <trkpt lat="42.6399249583" lon="0.0033949222">
        <ele>1749.26</ele>
        <time>2022-07-12T07:09:34Z</time>
      </trkpt>
      <trkpt lat="42.6397885848" lon="0.0031502545">
        <ele>1747.81</ele>
        <time>2022-07-12T07:09:51Z</time>
      </trkpt>
      <trkpt lat="42.6397738326" lon="0.0031306408">
        <ele>1747.33</ele>
        <time>2022-07-12T07:09:52Z</time>
      </trkpt>
      <trkpt lat="42.6396809611" lon="0.0029909145">
        <ele>1746.37</ele>
        <time>2022-07-12T07:10:02Z</time>
      </trkpt>
      <trkpt lat="42.6395961363" lon="0.0027460791">
        <ele>1745.89</ele>
        <time>2022-07-12T07:10:16Z</time>
      </trkpt>
      <trkpt lat="42.6395367924" lon="0.0024843123">
        <ele>1747.81</ele>
        <time>2022-07-12T07:10:31Z</time>
      </trkpt>
      <trkpt lat="42.6394511294" lon="0.0022481102">
        <ele>1747.81</ele>
        <time>2022-07-12T07:10:45Z</time>
      </trkpt>
      <trkpt lat="42.6394449268" lon="0.0022328552">
        <ele>1747.81</ele>
        <time>2022-07-12T07:10:46Z</time>
      </trkpt>
      <trkpt lat="42.6393393148" lon="0.0020088907">
        <ele>1747.81</ele>
        <time>2022-07-12T07:11:01Z</time>
      </trkpt>
      <trkpt lat="42.6393263228" lon="0.0019731838">
        <ele>1746.37</ele>
        <time>2022-07-12T07:11:03Z</time>
      </trkpt>
      <trkpt lat="42.6393066254" lon="0.0019298494">
        <ele>1746.37</ele>
        <time>2022-07-12T07:11:06Z</time>
      </trkpt>
      <trkpt lat="42.6392341219" lon="0.0018574297">
        <ele>1746.37</ele>
        <time>2022-07-12T07:11:13Z</time>
      </trkpt>
      <trkpt lat="42.6391299348" lon="0.0016789790">
        <ele>1745.89</ele>
        <time>2022-07-12T07:11:26Z</time>
      </trkpt>
      <trkpt lat="42.6390627958" lon="0.0015140232">
        <ele>1744.93</ele>
        <time>2022-07-12T07:11:40Z</time>
      </trkpt>
      <trkpt lat="42.6389924716" lon="0.0014717784">
        <ele>1743.49</ele>
        <time>2022-07-12T07:11:50Z</time>
      </trkpt>
      <trkpt lat="42.6389679965" lon="0.0014741253">
        <ele>1743.49</ele>
        <time>2022-07-12T07:11:52Z</time>
      </trkpt>
      <trkpt lat="42.6388771366" lon="0.0013969280">
        <ele>1743.01</ele>
        <time>2022-07-12T07:12:00Z</time>
      </trkpt>
      <trkpt lat="42.6388498116" lon="0.0012678467">
        <ele>1743.01</ele>
        <time>2022-07-12T07:12:08Z</time>
      </trkpt>
      <trkpt lat="42.6388074830" lon="0.0012388453">
        <ele>1743.01</ele>
        <time>2022-07-12T07:12:12Z</time>
      </trkpt>
      <trkpt lat="42.6387171261" lon="0.0011898950">
        <ele>1741.57</ele>
        <time>2022-07-12T07:12:21Z</time>
      </trkpt>
      <trkpt lat="42.6386922318" lon="0.0011365861">
        <ele>1740.12</ele>
        <time>2022-07-12T07:12:26Z</time>
      </trkpt>
      <trkpt lat="42.6386058982" lon="0.0010055769">
        <ele>1736.76</ele>
        <time>2022-07-12T07:12:39Z</time>
      </trkpt>
      <trkpt lat="42.6385768969" lon="0.0010390207">
        <ele>1735.32</ele>
        <time>2022-07-12T07:12:44Z</time>
      </trkpt>
      <trkpt lat="42.6385644916" lon="0.0010899827">
        <ele>1734.36</ele>
        <time>2022-07-12T07:12:49Z</time>
      </trkpt>
      <trkpt lat="42.6385369152" lon="0.0011352450">
        <ele>1732.43</ele>
        <time>2022-07-12T07:12:56Z</time>
      </trkpt>
      <trkpt lat="42.6385135297" lon="0.0010645855">
        <ele>1730.99</ele>
        <time>2022-07-12T07:13:02Z</time>
      </trkpt>
      <trkpt lat="42.6385114342" lon="0.0009680260">
        <ele>1730.51</ele>
        <time>2022-07-12T07:13:09Z</time>
      </trkpt>
      <trkpt lat="42.6385104284" lon="0.0009032339">
        <ele>1730.51</ele>
        <time>2022-07-12T07:13:15Z</time>
      </trkpt>
      <trkpt lat="42.6385442074" lon="0.0007278007">
        <ele>1733.88</ele>
        <time>2022-07-12T07:13:28Z</time>
      </trkpt>
      <trkpt lat="42.6385416090" lon="0.0007013138">
        <ele>1734.36</ele>
        <time>2022-07-12T07:13:30Z</time>
      </trkpt>
      <trkpt lat="42.6385188941" lon="0.0006768387">
        <ele>1734.84</ele>
        <time>2022-07-12T07:13:33Z</time>
      </trkpt>
      <trkpt lat="42.6384201553" lon="0.0005758367">
        <ele>1735.32</ele>
        <time>2022-07-12T07:13:46Z</time>
      </trkpt>
      <trkpt lat="42.6384218317" lon="0.0006076042">
        <ele>1733.39</ele>
        <time>2022-07-12T07:13:49Z</time>
      </trkpt>
      <trkpt lat="42.6383963507" lon="0.0006273016">
        <ele>1731.95</ele>
        <time>2022-07-12T07:13:54Z</time>
      </trkpt>
      <trkpt lat="42.6383616496" lon="0.0005893316">
        <ele>1731.47</ele>
        <time>2022-07-12T07:13:59Z</time>
      </trkpt>
      <trkpt lat="42.6383008808" lon="0.0003865734">
        <ele>1728.59</ele>
        <time>2022-07-12T07:14:12Z</time>
      </trkpt>
      <trkpt lat="42.6382907387" lon="0.0003433228">
        <ele>1728.11</ele>
        <time>2022-07-12T07:14:15Z</time>
      </trkpt>
      <trkpt lat="42.6382863801" lon="0.0002595875">
        <ele>1728.11</ele>
        <time>2022-07-12T07:14:20Z</time>
      </trkpt>
      <trkpt lat="42.6383002102" lon="0.0001551490">
        <ele>1728.59</ele>
        <time>2022-07-12T07:14:27Z</time>
      </trkpt>
      <trkpt lat="42.6383151300" lon="0.0001248904">
        <ele>1729.55</ele>
        <time>2022-07-12T07:14:29Z</time>
      </trkpt>
      <trkpt lat="42.6383195724" lon="0.0001142453">
        <ele>1729.55</ele>
        <time>2022-07-12T07:14:30Z</time>
      </trkpt>
      <trkpt lat="42.6383220870" lon="0.0000864174">
        <ele>1730.03</ele>
        <time>2022-07-12T07:14:32Z</time>
      </trkpt>
      <trkpt lat="42.6383613981" lon="-0.0001596753">
        <ele>1731.47</ele>
        <time>2022-07-12T07:14:47Z</time>
      </trkpt>
      <trkpt lat="42.6383276191" lon="-0.0002478529">
        <ele>1730.51</ele>
        <time>2022-07-12T07:14:57Z</time>
      </trkpt>
      <trkpt lat="42.6383052394" lon="-0.0001838990">
        <ele>1728.59</ele>
        <time>2022-07-12T07:15:02Z</time>
      </trkpt>
      <trkpt lat="42.6382610667" lon="-0.0000704080">
        <ele>1727.63</ele>
        <time>2022-07-12T07:15:12Z</time>
      </trkpt>
      <trkpt lat="42.6382430457" lon="0.0000146683">
        <ele>1725.22</ele>
        <time>2022-07-12T07:15:21Z</time>
      </trkpt>
      <trkpt lat="42.6382296346" lon="0.0001304224">
        <ele>1722.34</ele>
        <time>2022-07-12T07:15:30Z</time>
      </trkpt>
      <trkpt lat="42.6382345799" lon="0.0001558196">
        <ele>1721.86</ele>
        <time>2022-07-12T07:15:32Z</time>
      </trkpt>
      <trkpt lat="42.6382068358" lon="0.0002164207">
        <ele>1719.94</ele>
        <time>2022-07-12T07:15:41Z</time>
      </trkpt>
      <trkpt lat="42.6381970290" lon="0.0001867488">
        <ele>1718.97</ele>
        <time>2022-07-12T07:15:44Z</time>
      </trkpt>
      <trkpt lat="42.6381676085" lon="0.0001704041">
        <ele>1717.05</ele>
        <time>2022-07-12T07:15:51Z</time>
      </trkpt>
      <trkpt lat="42.6381182391" lon="0.0002621021">
        <ele>1714.17</ele>
        <time>2022-07-12T07:16:04Z</time>
      </trkpt>
      <trkpt lat="42.6381192449" lon="0.0002504513">
        <ele>1713.69</ele>
        <time>2022-07-12T07:16:05Z</time>
      </trkpt>
      <trkpt lat="42.6381070912" lon="0.0001090486">
        <ele>1711.28</ele>
        <time>2022-07-12T07:16:15Z</time>
      </trkpt>
      <trkpt lat="42.6381087676" lon="-0.0001187716">
        <ele>1709.36</ele>
        <time>2022-07-12T07:16:29Z</time>
      </trkpt>
      <trkpt lat="42.6381025650" lon="-0.0002568215">
        <ele>1708.40</ele>
        <time>2022-07-12T07:16:40Z</time>
      </trkpt>
      <trkpt lat="42.6380880643" lon="-0.0003389642">
        <ele>1707.44</ele>
        <time>2022-07-12T07:16:45Z</time>
      </trkpt>
      <trkpt lat="42.6380939316" lon="-0.0005268026">
        <ele>1707.44</ele>
        <time>2022-07-12T07:16:57Z</time>
      </trkpt>
      <trkpt lat="42.6380367670" lon="-0.0007298961">
        <ele>1707.44</ele>
        <time>2022-07-12T07:17:09Z</time>
      </trkpt>
      <trkpt lat="42.6380156446" lon="-0.0007559638">
        <ele>1707.44</ele>
        <time>2022-07-12T07:17:11Z</time>
      </trkpt>
      <trkpt lat="42.6379618328" lon="-0.0008979533">
        <ele>1704.07</ele>
        <time>2022-07-12T07:17:23Z</time>
      </trkpt>
      <trkpt lat="42.6379208453" lon="-0.0009438861">
        <ele>1703.59</ele>
        <time>2022-07-12T07:17:28Z</time>
      </trkpt>
      <trkpt lat="42.6379223540" lon="-0.0009749830">
        <ele>1703.11</ele>
        <time>2022-07-12T07:17:30Z</time>
      </trkpt>
      <trkpt lat="42.6379295625" lon="-0.0010830257">
        <ele>1702.15</ele>
        <time>2022-07-12T07:17:37Z</time>
      </trkpt>
      <trkpt lat="42.6378905028" lon="-0.0012447964">
        <ele>1699.27</ele>
        <time>2022-07-12T07:17:49Z</time>
      </trkpt>
      <trkpt lat="42.6378739905" lon="-0.0013151206">
        <ele>1698.31</ele>
        <time>2022-07-12T07:17:54Z</time>
      </trkpt>
      <trkpt lat="42.6378735714" lon="-0.0013932399">
        <ele>1697.34</ele>
        <time>2022-07-12T07:17:59Z</time>
      </trkpt>
      <trkpt lat="42.6377972960" lon="-0.0015827548">
        <ele>1694.94</ele>
        <time>2022-07-12T07:18:13Z</time>
      </trkpt>
      <trkpt lat="42.6377682947" lon="-0.0017818250">
        <ele>1693.98</ele>
        <time>2022-07-12T07:18:26Z</time>
      </trkpt>
      <trkpt lat="42.6377485972" lon="-0.0019135047">
        <ele>1692.06</ele>
        <time>2022-07-12T07:18:34Z</time>
      </trkpt>
      <trkpt lat="42.6376834698" lon="-0.0020927098">
        <ele>1691.58</ele>
        <time>2022-07-12T07:18:45Z</time>
      </trkpt>
      <trkpt lat="42.6376755908" lon="-0.0023608468">
        <ele>1691.58</ele>
        <time>2022-07-12T07:19:00Z</time>
      </trkpt>
      <trkpt lat="42.6376919355" lon="-0.0023945421">
        <ele>1691.10</ele>
        <time>2022-07-12T07:19:12Z</time>
      </trkpt>
      <trkpt lat="42.6376661193" lon="-0.0025211927">
        <ele>1691.10</ele>
        <time>2022-07-12T07:19:23Z</time>
      </trkpt>
      <trkpt lat="42.6376417279" lon="-0.0025760941">
        <ele>1691.10</ele>
        <time>2022-07-12T07:19:27Z</time>
      </trkpt>
      <trkpt lat="42.6376186777" lon="-0.0026708096">
        <ele>1690.62</ele>
        <time>2022-07-12T07:19:33Z</time>
      </trkpt>
      <trkpt lat="42.6375817973" lon="-0.0028745737">
        <ele>1687.73</ele>
        <time>2022-07-12T07:19:47Z</time>
      </trkpt>
      <trkpt lat="42.6375675481" lon="-0.0029288046">
        <ele>1687.25</ele>
        <time>2022-07-12T07:19:51Z</time>
      </trkpt>
      <trkpt lat="42.6375125628" lon="-0.0029525254">
        <ele>1686.29</ele>
        <time>2022-07-12T07:19:55Z</time>
      </trkpt>
      <trkpt lat="42.6373650413" lon="-0.0031588878">
        <ele>1683.89</ele>
        <time>2022-07-12T07:20:11Z</time>
      </trkpt>
      <trkpt lat="42.6373488642" lon="-0.0031830277">
        <ele>1683.41</ele>
        <time>2022-07-12T07:20:13Z</time>
      </trkpt>
      <trkpt lat="42.6372798812" lon="-0.0034794118">
        <ele>1681.48</ele>
        <time>2022-07-12T07:20:31Z</time>
      </trkpt>
      <trkpt lat="42.6371980738" lon="-0.0037227385">
        <ele>1680.52</ele>
        <time>2022-07-12T07:20:44Z</time>
      </trkpt>
      <trkpt lat="42.6371855009" lon="-0.0039988384">
        <ele>1680.52</ele>
        <time>2022-07-12T07:20:59Z</time>
      </trkpt>
      <trkpt lat="42.6371804718" lon="-0.0040917937">
        <ele>1680.52</ele>
        <time>2022-07-12T07:21:04Z</time>
      </trkpt>
      <trkpt lat="42.6371678151" lon="-0.0042041112">
        <ele>1680.52</ele>
        <time>2022-07-12T07:21:10Z</time>
      </trkpt>
      <trkpt lat="42.6371383108" lon="-0.0045072008">
        <ele>1681.48</ele>
        <time>2022-07-12T07:21:26Z</time>
      </trkpt>
      <trkpt lat="42.6371293422" lon="-0.0048217736">
        <ele>1680.04</ele>
        <time>2022-07-12T07:21:43Z</time>
      </trkpt>
      <trkpt lat="42.6370223053" lon="-0.0051006395">
        <ele>1680.04</ele>
        <time>2022-07-12T07:21:58Z</time>
      </trkpt>
      <trkpt lat="42.6369070541" lon="-0.0053661782">
        <ele>1681.48</ele>
        <time>2022-07-12T07:22:14Z</time>
      </trkpt>
      <trkpt lat="42.6368200500" lon="-0.0057078246">
        <ele>1681.00</ele>
        <time>2022-07-12T07:22:32Z</time>
      </trkpt>
      <trkpt lat="42.6367758773" lon="-0.0059815776">
        <ele>1680.04</ele>
        <time>2022-07-12T07:22:46Z</time>
      </trkpt>
      <trkpt lat="42.6367632207" lon="-0.0062954798">
        <ele>1679.08</ele>
        <time>2022-07-12T07:23:02Z</time>
      </trkpt>
      <trkpt lat="42.6366608776" lon="-0.0065795425">
        <ele>1678.12</ele>
        <time>2022-07-12T07:23:17Z</time>
      </trkpt>
      <trkpt lat="42.6366054732" lon="-0.0068559777">
        <ele>1676.68</ele>
        <time>2022-07-12T07:23:32Z</time>
      </trkpt>
      <trkpt lat="42.6365077402" lon="-0.0071397051">
        <ele>1676.20</ele>
        <time>2022-07-12T07:23:48Z</time>
      </trkpt>
      <trkpt lat="42.6364594605" lon="-0.0074234325">
        <ele>1675.23</ele>
        <time>2022-07-12T07:24:03Z</time>
      </trkpt>
      <trkpt lat="42.6364108454" lon="-0.0077303778">
        <ele>1673.79</ele>
        <time>2022-07-12T07:24:19Z</time>
      </trkpt>
      <trkpt lat="42.6363204885" lon="-0.0079654064">
        <ele>1672.83</ele>
        <time>2022-07-12T07:24:34Z</time>
      </trkpt>
      <trkpt lat="42.6362769026" lon="-0.0081139337">
        <ele>1672.83</ele>
        <time>2022-07-12T07:24:41Z</time>
      </trkpt>
      <trkpt lat="42.6362001244" lon="-0.0083487947">
        <ele>1672.35</ele>
        <time>2022-07-12T07:24:54Z</time>
      </trkpt>
      <trkpt lat="42.6361490786" lon="-0.0084484555">
        <ele>1671.87</ele>
        <time>2022-07-12T07:24:59Z</time>
      </trkpt>
      <trkpt lat="42.6360263675" lon="-0.0087107252">
        <ele>1671.39</ele>
        <time>2022-07-12T07:25:14Z</time>
      </trkpt>
      <trkpt lat="42.6359066740" lon="-0.0089356117">
        <ele>1670.43</ele>
        <time>2022-07-12T07:25:29Z</time>
      </trkpt>
      <trkpt lat="42.6358914189" lon="-0.0089675467">
        <ele>1670.43</ele>
        <time>2022-07-12T07:25:31Z</time>
      </trkpt>
      <trkpt lat="42.6358304825" lon="-0.0092525315">
        <ele>1670.43</ele>
        <time>2022-07-12T07:25:47Z</time>
      </trkpt>
      <trkpt lat="42.6358147245" lon="-0.0093433913">
        <ele>1670.43</ele>
        <time>2022-07-12T07:25:52Z</time>
      </trkpt>
      <trkpt lat="42.6357004791" lon="-0.0096282084">
        <ele>1669.95</ele>
        <time>2022-07-12T07:26:09Z</time>
      </trkpt>
      <trkpt lat="42.6355920173" lon="-0.0098981056">
        <ele>1668.02</ele>
        <time>2022-07-12T07:26:25Z</time>
      </trkpt>
      <trkpt lat="42.6355633512" lon="-0.0099964254">
        <ele>1668.02</ele>
        <time>2022-07-12T07:26:30Z</time>
      </trkpt>
      <trkpt lat="42.6355007384" lon="-0.0101679191">
        <ele>1667.06</ele>
        <time>2022-07-12T07:26:40Z</time>
      </trkpt>
      <trkpt lat="42.6354079507" lon="-0.0103923026">
        <ele>1666.58</ele>
        <time>2022-07-12T07:26:54Z</time>
      </trkpt>
      <trkpt lat="42.6353799552" lon="-0.0104983337">
        <ele>1666.10</ele>
        <time>2022-07-12T07:27:00Z</time>
      </trkpt>
      <trkpt lat="42.6353600901" lon="-0.0105788000">
        <ele>1666.10</ele>
        <time>2022-07-12T07:27:04Z</time>
      </trkpt>
      <trkpt lat="42.6352748461" lon="-0.0108809676">
        <ele>1664.66</ele>
        <time>2022-07-12T07:27:21Z</time>
      </trkpt>
      <trkpt lat="42.6352314278" lon="-0.0110091269">
        <ele>1664.18</ele>
        <time>2022-07-12T07:27:28Z</time>
      </trkpt>
      <trkpt lat="42.6351422444" lon="-0.0113175809">
        <ele>1663.22</ele>
        <time>2022-07-12T07:27:45Z</time>
      </trkpt>
      <trkpt lat="42.6351422444" lon="-0.0115851313">
        <ele>1662.26</ele>
        <time>2022-07-12T07:28:00Z</time>
      </trkpt>
      <trkpt lat="42.6351448428" lon="-0.0118277036">
        <ele>1662.26</ele>
        <time>2022-07-12T07:28:13Z</time>
      </trkpt>
      <trkpt lat="42.6351815555" lon="-0.0120908953">
        <ele>1662.26</ele>
        <time>2022-07-12T07:28:27Z</time>
      </trkpt>
      <trkpt lat="42.6351818070" lon="-0.0121565256">
        <ele>1662.26</ele>
        <time>2022-07-12T07:28:31Z</time>
      </trkpt>
      <trkpt lat="42.6351916976" lon="-0.0122031290">
        <ele>1662.26</ele>
        <time>2022-07-12T07:28:33Z</time>
      </trkpt>
      <trkpt lat="42.6351785380" lon="-0.0122787338">
        <ele>1662.26</ele>
        <time>2022-07-12T07:28:37Z</time>
      </trkpt>
      <trkpt lat="42.6351704076" lon="-0.0123740360">
        <ele>1662.26</ele>
        <time>2022-07-12T07:28:43Z</time>
      </trkpt>
      <trkpt lat="42.6351354551" lon="-0.0125045422">
        <ele>1662.26</ele>
        <time>2022-07-12T07:28:50Z</time>
      </trkpt>
      <trkpt lat="42.6351191103" lon="-0.0125405006">
        <ele>1661.78</ele>
        <time>2022-07-12T07:28:52Z</time>
      </trkpt>
      <trkpt lat="42.6350872591" lon="-0.0127061270">
        <ele>1663.22</ele>
        <time>2022-07-12T07:29:01Z</time>
      </trkpt>
      <trkpt lat="42.6350803021" lon="-0.0127979089">
        <ele>1663.70</ele>
        <time>2022-07-12T07:29:06Z</time>
      </trkpt>
      <trkpt lat="42.6350704953" lon="-0.0129072927">
        <ele>1664.18</ele>
        <time>2022-07-12T07:29:13Z</time>
      </trkpt>
      <trkpt lat="42.6351663843" lon="-0.0131421536">
        <ele>1666.10</ele>
        <time>2022-07-12T07:29:29Z</time>
      </trkpt>
      <trkpt lat="42.6351666357" lon="-0.0131914392">
        <ele>1666.10</ele>
        <time>2022-07-12T07:29:32Z</time>
      </trkpt>
      <trkpt lat="42.6351393107" lon="-0.0132743362">
        <ele>1666.58</ele>
        <time>2022-07-12T07:29:37Z</time>
      </trkpt>
      <trkpt lat="42.6351049449" lon="-0.0133220293">
        <ele>1667.06</ele>
        <time>2022-07-12T07:29:41Z</time>
      </trkpt>
      <trkpt lat="42.6350854989" lon="-0.0134040043">
        <ele>1667.54</ele>
        <time>2022-07-12T07:29:46Z</time>
      </trkpt>
      <trkpt lat="42.6350895222" lon="-0.0134365261">
        <ele>1668.02</ele>
        <time>2022-07-12T07:29:48Z</time>
      </trkpt>
      <trkpt lat="42.6350909472" lon="-0.0134703889">
        <ele>1668.02</ele>
        <time>2022-07-12T07:29:50Z</time>
      </trkpt>
      <trkpt lat="42.6350963116" lon="-0.0135128852">
        <ele>1668.51</ele>
        <time>2022-07-12T07:29:53Z</time>
      </trkpt>
      <trkpt lat="42.6351176016" lon="-0.0135814492">
        <ele>1668.99</ele>
        <time>2022-07-12T07:29:58Z</time>
      </trkpt>
      <trkpt lat="42.6352405641" lon="-0.0137871411">
        <ele>1670.91</ele>
        <time>2022-07-12T07:30:14Z</time>
      </trkpt>
      <trkpt lat="42.6352610160" lon="-0.0138474908">
        <ele>1671.39</ele>
        <time>2022-07-12T07:30:19Z</time>
      </trkpt>
      <trkpt lat="42.6352961361" lon="-0.0141007919">
        <ele>1671.87</ele>
        <time>2022-07-12T07:30:32Z</time>
      </trkpt>
      <trkpt lat="42.6353252213" lon="-0.0143564399">
        <ele>1672.83</ele>
        <time>2022-07-12T07:30:47Z</time>
      </trkpt>
      <trkpt lat="42.6353595871" lon="-0.0145686697">
        <ele>1673.79</ele>
        <time>2022-07-12T07:31:00Z</time>
      </trkpt>
      <trkpt lat="42.6353616826" lon="-0.0147693325">
        <ele>1675.72</ele>
        <time>2022-07-12T07:31:14Z</time>
      </trkpt>
      <trkpt lat="42.6353647001" lon="-0.0147831626">
        <ele>1676.20</ele>
        <time>2022-07-12T07:31:15Z</time>
      </trkpt>
      <trkpt lat="42.6354315039" lon="-0.0149497949">
        <ele>1676.68</ele>
        <time>2022-07-12T07:31:24Z</time>
      </trkpt>
      <trkpt lat="42.6354120579" lon="-0.0152004976">
        <ele>1676.68</ele>
        <time>2022-07-12T07:31:39Z</time>
      </trkpt>
      <trkpt lat="42.6354051847" lon="-0.0152223743">
        <ele>1676.68</ele>
        <time>2022-07-12T07:31:41Z</time>
      </trkpt>
      <trkpt lat="42.6353419013" lon="-0.0154983066">
        <ele>1676.68</ele>
        <time>2022-07-12T07:31:57Z</time>
      </trkpt>
      <trkpt lat="42.6352460124" lon="-0.0157121290">
        <ele>1674.75</ele>
        <time>2022-07-12T07:32:15Z</time>
      </trkpt>
      <trkpt lat="42.6332498621" lon="-0.0163885485">
        <ele>1674.75</ele>
        <time>2022-07-12T07:32:32Z</time>
      </trkpt>
      <trkpt lat="42.6334277261" lon="-0.0160256121">
        <ele>1674.75</ele>
        <time>2022-07-12T07:32:39Z</time>
      </trkpt>
      <trkpt lat="42.6334955357" lon="-0.0160318147">
        <ele>1674.75</ele>
        <time>2022-07-12T07:32:40Z</time>
      </trkpt>
      <trkpt lat="42.6343848556" lon="-0.0165530015">
        <ele>1673.31</ele>
        <time>2022-07-12T07:32:54Z</time>
      </trkpt>
      <trkpt lat="42.6346652303" lon="-0.0167463720">
        <ele>1672.35</ele>
        <time>2022-07-12T07:33:02Z</time>
      </trkpt>
      <trkpt lat="42.6351486146" lon="-0.0170528982">
        <ele>1668.99</ele>
        <time>2022-07-12T07:33:17Z</time>
      </trkpt>
      <trkpt lat="42.6353589166" lon="-0.0173400622">
        <ele>1666.58</ele>
        <time>2022-07-12T07:33:32Z</time>
      </trkpt>
      <trkpt lat="42.6353991497" lon="-0.0173909403">
        <ele>1666.10</ele>
        <time>2022-07-12T07:33:35Z</time>
      </trkpt>
      <trkpt lat="42.6354101300" lon="-0.0174340233">
        <ele>1665.62</ele>
        <time>2022-07-12T07:33:38Z</time>
      </trkpt>
      <trkpt lat="42.6354593318" lon="-0.0175035093">
        <ele>1664.66</ele>
        <time>2022-07-12T07:33:41Z</time>
      </trkpt>
      <trkpt lat="42.6354994811" lon="-0.0178134721">
        <ele>1663.22</ele>
        <time>2022-07-12T07:33:56Z</time>
      </trkpt>
      <trkpt lat="42.6355453301" lon="-0.0181163102">
        <ele>1660.81</ele>
        <time>2022-07-12T07:34:12Z</time>
      </trkpt>
      <trkpt lat="42.6355485152" lon="-0.0183098484">
        <ele>1659.37</ele>
        <time>2022-07-12T07:34:24Z</time>
      </trkpt>
      <trkpt lat="42.6355930232" lon="-0.0186188892">
        <ele>1658.41</ele>
        <time>2022-07-12T07:34:41Z</time>
      </trkpt>
      <trkpt lat="42.6355873235" lon="-0.0186427776">
        <ele>1658.41</ele>
        <time>2022-07-12T07:34:43Z</time>
      </trkpt>
      <trkpt lat="42.6355833001" lon="-0.0187754631">
        <ele>1658.41</ele>
        <time>2022-07-12T07:34:49Z</time>
      </trkpt>
      <trkpt lat="42.6355532929" lon="-0.0189236552">
        <ele>1659.85</ele>
        <time>2022-07-12T07:34:58Z</time>
      </trkpt>
      <trkpt lat="42.6355429832" lon="-0.0190005172">
        <ele>1659.85</ele>
        <time>2022-07-12T07:35:03Z</time>
      </trkpt>
      <trkpt lat="42.6355133113" lon="-0.0191058777">
        <ele>1659.85</ele>
        <time>2022-07-12T07:35:08Z</time>
      </trkpt>
      <trkpt lat="42.6355596632" lon="-0.0192672294">
        <ele>1659.85</ele>
        <time>2022-07-12T07:35:15Z</time>
      </trkpt>
      <trkpt lat="42.6355847251" lon="-0.0193873420">
        <ele>1658.41</ele>
        <time>2022-07-12T07:35:20Z</time>
      </trkpt>
      <trkpt lat="42.6356123015" lon="-0.0195030961">
        <ele>1657.93</ele>
        <time>2022-07-12T07:35:25Z</time>
      </trkpt>
      <trkpt lat="42.6356361900" lon="-0.0195807125">
        <ele>1656.49</ele>
        <time>2022-07-12T07:35:31Z</time>
      </trkpt>
      <trkpt lat="42.6356669515" lon="-0.0196621008">
        <ele>1656.49</ele>
        <time>2022-07-12T07:35:35Z</time>
      </trkpt>
      <trkpt lat="42.6357373595" lon="-0.0197631028">
        <ele>1656.01</ele>
        <time>2022-07-12T07:35:43Z</time>
      </trkpt>
      <trkpt lat="42.6358433906" lon="-0.0200193375">
        <ele>1656.01</ele>
        <time>2022-07-12T07:35:58Z</time>
      </trkpt>
      <trkpt lat="42.6359651797" lon="-0.0202304777">
        <ele>1656.01</ele>
        <time>2022-07-12T07:36:11Z</time>
      </trkpt>
      <trkpt lat="42.6360036526" lon="-0.0204843655">
        <ele>1654.57</ele>
        <time>2022-07-12T07:36:24Z</time>
      </trkpt>
      <trkpt lat="42.6360285468" lon="-0.0205321424">
        <ele>1654.09</ele>
        <time>2022-07-12T07:36:27Z</time>
      </trkpt>
      <trkpt lat="42.6361537725" lon="-0.0206944998">
        <ele>1653.12</ele>
        <time>2022-07-12T07:36:42Z</time>
      </trkpt>
      <trkpt lat="42.6361568738" lon="-0.0208060630">
        <ele>1653.12</ele>
        <time>2022-07-12T07:36:52Z</time>
      </trkpt>
      <trkpt lat="42.6361712907" lon="-0.0208645687">
        <ele>1653.12</ele>
        <time>2022-07-12T07:36:55Z</time>
      </trkpt>
      <trkpt lat="42.6361859590" lon="-0.0209402572">
        <ele>1653.12</ele>
        <time>2022-07-12T07:36:59Z</time>
      </trkpt>
      <trkpt lat="42.6362627372" lon="-0.0211385731">
        <ele>1651.68</ele>
        <time>2022-07-12T07:37:09Z</time>
      </trkpt>
      <trkpt lat="42.6364578679" lon="-0.0213693269">
        <ele>1650.24</ele>
        <time>2022-07-12T07:37:26Z</time>
      </trkpt>
      <trkpt lat="42.6365660783" lon="-0.0215844903">
        <ele>1648.80</ele>
        <time>2022-07-12T07:37:36Z</time>
      </trkpt>
      <trkpt lat="42.6366406772" lon="-0.0219936110">
        <ele>1645.91</ele>
        <time>2022-07-12T07:37:52Z</time>
      </trkpt>
      <trkpt lat="42.6366873644" lon="-0.0221709721">
        <ele>1644.95</ele>
        <time>2022-07-12T07:38:02Z</time>
      </trkpt>
      <trkpt lat="42.6367041282" lon="-0.0225400273">
        <ele>1642.07</ele>
        <time>2022-07-12T07:38:18Z</time>
      </trkpt>
      <trkpt lat="42.6367048826" lon="-0.0225587189">
        <ele>1642.07</ele>
        <time>2022-07-12T07:38:19Z</time>
      </trkpt>
      <trkpt lat="42.6367085706" lon="-0.0226758979">
        <ele>1641.59</ele>
        <time>2022-07-12T07:38:25Z</time>
      </trkpt>
      <trkpt lat="42.6367369015" lon="-0.0229584519">
        <ele>1638.70</ele>
        <time>2022-07-12T07:38:41Z</time>
      </trkpt>
      <trkpt lat="42.6367465407" lon="-0.0229917280">
        <ele>1638.22</ele>
        <time>2022-07-12T07:38:43Z</time>
      </trkpt>
      <trkpt lat="42.6367832534" lon="-0.0232859328">
        <ele>1636.30</ele>
        <time>2022-07-12T07:38:59Z</time>
      </trkpt>
      <trkpt lat="42.6368336286" lon="-0.0235639606">
        <ele>1633.90</ele>
        <time>2022-07-12T07:39:14Z</time>
      </trkpt>
      <trkpt lat="42.6368274260" lon="-0.0238756835">
        <ele>1631.49</ele>
        <time>2022-07-12T07:39:31Z</time>
      </trkpt>
      <trkpt lat="42.6368670724" lon="-0.0240893383">
        <ele>1631.01</ele>
        <time>2022-07-12T07:39:44Z</time>
      </trkpt>
      <trkpt lat="42.6368657313" lon="-0.0243784301">
        <ele>1629.09</ele>
        <time>2022-07-12T07:39:59Z</time>
      </trkpt>
      <trkpt lat="42.6369066350" lon="-0.0246625766">
        <ele>1627.65</ele>
        <time>2022-07-12T07:40:15Z</time>
      </trkpt>
      <trkpt lat="42.6369910408" lon="-0.0248840265">
        <ele>1627.17</ele>
        <time>2022-07-12T07:40:22Z</time>
      </trkpt>
      <trkpt lat="42.6370092295" lon="-0.0251171272">
        <ele>1626.21</ele>
        <time>2022-07-12T07:40:36Z</time>
      </trkpt>
      <trkpt lat="42.6369731035" lon="-0.0252274331">
        <ele>1625.25</ele>
        <time>2022-07-12T07:40:42Z</time>
      </trkpt>
      <trkpt lat="42.6369150169" lon="-0.0252135191">
        <ele>1624.77</ele>
        <time>2022-07-12T07:40:46Z</time>
      </trkpt>
      <trkpt lat="42.6368720178" lon="-0.0250815880">
        <ele>1623.32</ele>
        <time>2022-07-12T07:40:57Z</time>
      </trkpt>
      <trkpt lat="42.6368222293" lon="-0.0249421131">
        <ele>1622.36</ele>
        <time>2022-07-12T07:41:05Z</time>
      </trkpt>
      <trkpt lat="42.6367274299" lon="-0.0248415302">
        <ele>1621.40</ele>
        <time>2022-07-12T07:41:12Z</time>
      </trkpt>
      <trkpt lat="42.6365842670" lon="-0.0245821942">
        <ele>1620.92</ele>
        <time>2022-07-12T07:41:27Z</time>
      </trkpt>
      <trkpt lat="42.6365505718" lon="-0.0244873110">
        <ele>1620.44</ele>
        <time>2022-07-12T07:41:32Z</time>
      </trkpt>
      <trkpt lat="42.6365476381" lon="-0.0244070962">
        <ele>1620.44</ele>
        <time>2022-07-12T07:41:36Z</time>
      </trkpt>
      <trkpt lat="42.6365423575" lon="-0.0241552200">
        <ele>1619.00</ele>
        <time>2022-07-12T07:41:49Z</time>
      </trkpt>
      <trkpt lat="42.6364092529" lon="-0.0239553954">
        <ele>1617.07</ele>
        <time>2022-07-12T07:42:01Z</time>
      </trkpt>
      <trkpt lat="42.6363695227" lon="-0.0239024218">
        <ele>1616.59</ele>
        <time>2022-07-12T07:42:04Z</time>
      </trkpt>
      <trkpt lat="42.6362639945" lon="-0.0238178484">
        <ele>1615.15</ele>
        <time>2022-07-12T07:42:14Z</time>
      </trkpt>
      <trkpt lat="42.6361269504" lon="-0.0237290002">
        <ele>1614.19</ele>
        <time>2022-07-12T07:42:25Z</time>
      </trkpt>
      <trkpt lat="42.6360243559" lon="-0.0236325245">
        <ele>1612.75</ele>
        <time>2022-07-12T07:42:36Z</time>
      </trkpt>
      <trkpt lat="42.6359232701" lon="-0.0235116575">
        <ele>1611.31</ele>
        <time>2022-07-12T07:42:47Z</time>
      </trkpt>
      <trkpt lat="42.6358599868" lon="-0.0234433450">
        <ele>1610.83</ele>
        <time>2022-07-12T07:42:51Z</time>
      </trkpt>
      <trkpt lat="42.6357940212" lon="-0.0233517308">
        <ele>1610.35</ele>
        <time>2022-07-12T07:42:56Z</time>
      </trkpt>
      <trkpt lat="42.6357337553" lon="-0.0232524052">
        <ele>1609.86</ele>
        <time>2022-07-12T07:43:01Z</time>
      </trkpt>
      <trkpt lat="42.6356717292" lon="-0.0231868587">
        <ele>1609.86</ele>
        <time>2022-07-12T07:43:06Z</time>
      </trkpt>
      <trkpt lat="42.6356244553" lon="-0.0231023692">
        <ele>1609.38</ele>
        <time>2022-07-12T07:43:14Z</time>
      </trkpt>
      <trkpt lat="42.6355799474" lon="-0.0230763853">
        <ele>1608.90</ele>
        <time>2022-07-12T07:43:17Z</time>
      </trkpt>
      <trkpt lat="42.6355502754" lon="-0.0230697636">
        <ele>1608.90</ele>
        <time>2022-07-12T07:43:19Z</time>
      </trkpt>
      <trkpt lat="42.6354254689" lon="-0.0231013633">
        <ele>1606.02</ele>
        <time>2022-07-12T07:43:31Z</time>
      </trkpt>
      <trkpt lat="42.6353847329" lon="-0.0232565962">
        <ele>1604.58</ele>
        <time>2022-07-12T07:43:44Z</time>
      </trkpt>
      <trkpt lat="42.6354017481" lon="-0.0233109947">
        <ele>1604.10</ele>
        <time>2022-07-12T07:43:48Z</time>
      </trkpt>
      <trkpt lat="42.6355155744" lon="-0.0235113222">
        <ele>1601.69</ele>
        <time>2022-07-12T07:44:03Z</time>
      </trkpt>
      <trkpt lat="42.6355229504" lon="-0.0235228892">
        <ele>1601.69</ele>
        <time>2022-07-12T07:44:04Z</time>
      </trkpt>
      <trkpt lat="42.6355823781" lon="-0.0235986616">
        <ele>1601.21</ele>
        <time>2022-07-12T07:44:08Z</time>
      </trkpt>
      <trkpt lat="42.6356180012" lon="-0.0237668026">
        <ele>1599.77</ele>
        <time>2022-07-12T07:44:25Z</time>
      </trkpt>
      <trkpt lat="42.6356208511" lon="-0.0237928703">
        <ele>1601.21</ele>
        <time>2022-07-12T07:44:29Z</time>
      </trkpt>
      <trkpt lat="42.6356330886" lon="-0.0238130707">
        <ele>1599.77</ele>
        <time>2022-07-12T07:44:31Z</time>
      </trkpt>
      <trkpt lat="42.6356718130" lon="-0.0239261426">
        <ele>1598.81</ele>
        <time>2022-07-12T07:44:38Z</time>
      </trkpt>
      <trkpt lat="42.6356792729" lon="-0.0239760149">
        <ele>1598.33</ele>
        <time>2022-07-12T07:44:41Z</time>
      </trkpt>
      <trkpt lat="42.6357471664" lon="-0.0242248736">
        <ele>1596.89</ele>
        <time>2022-07-12T07:44:54Z</time>
      </trkpt>
      <trkpt lat="42.6358310692" lon="-0.0244832877">
        <ele>1595.45</ele>
        <time>2022-07-12T07:45:06Z</time>
      </trkpt>
      <trkpt lat="42.6358292252" lon="-0.0246404484">
        <ele>1594.00</ele>
        <time>2022-07-12T07:45:16Z</time>
      </trkpt>
      <trkpt lat="42.6358553767" lon="-0.0248064101">
        <ele>1593.52</ele>
        <time>2022-07-12T07:45:28Z</time>
      </trkpt>
      <trkpt lat="42.6360709593" lon="-0.0246993732">
        <ele>1591.60</ele>
        <time>2022-07-12T07:45:45Z</time>
      </trkpt>
      <trkpt lat="42.6362334006" lon="-0.0249337312">
        <ele>1589.20</ele>
        <time>2022-07-12T07:45:56Z</time>
      </trkpt>
      <trkpt lat="42.6362430397" lon="-0.0251255091">
        <ele>1587.27</ele>
        <time>2022-07-12T07:46:03Z</time>
      </trkpt>
      <trkpt lat="42.6362685207" lon="-0.0252810773">
        <ele>1586.31</ele>
        <time>2022-07-12T07:46:10Z</time>
      </trkpt>
      <trkpt lat="42.6363033056" lon="-0.0253558438">
        <ele>1585.83</ele>
        <time>2022-07-12T07:46:14Z</time>
      </trkpt>
      <trkpt lat="42.6363157947" lon="-0.0254763756">
        <ele>1584.87</ele>
        <time>2022-07-12T07:46:20Z</time>
      </trkpt>
      <trkpt lat="42.6363287866" lon="-0.0256650522">
        <ele>1584.39</ele>
        <time>2022-07-12T07:46:30Z</time>
      </trkpt>
      <trkpt lat="42.6363347378" lon="-0.0257207081">
        <ele>1584.39</ele>
        <time>2022-07-12T07:46:32Z</time>
      </trkpt>
      <trkpt lat="42.6363356598" lon="-0.0259340275">
        <ele>1582.95</ele>
        <time>2022-07-12T07:46:44Z</time>
      </trkpt>
      <trkpt lat="42.6363772340" lon="-0.0261214469">
        <ele>1580.06</ele>
        <time>2022-07-12T07:46:58Z</time>
      </trkpt>
      <trkpt lat="42.6363836881" lon="-0.0261783600">
        <ele>1580.06</ele>
        <time>2022-07-12T07:47:00Z</time>
      </trkpt>
      <trkpt lat="42.6363669243" lon="-0.0262477621">
        <ele>1579.10</ele>
        <time>2022-07-12T07:47:03Z</time>
      </trkpt>
      <trkpt lat="42.6363325585" lon="-0.0263252947">
        <ele>1578.62</ele>
        <time>2022-07-12T07:47:07Z</time>
      </trkpt>
      <trkpt lat="42.6362467278" lon="-0.0264377799">
        <ele>1576.22</ele>
        <time>2022-07-12T07:47:18Z</time>
      </trkpt>
      <trkpt lat="42.6360904053" lon="-0.0265339203">
        <ele>1572.85</ele>
        <time>2022-07-12T07:47:30Z</time>
      </trkpt>
      <trkpt lat="42.6360562909" lon="-0.0267141312">
        <ele>1569.97</ele>
        <time>2022-07-12T07:47:44Z</time>
      </trkpt>
      <trkpt lat="42.6360597275" lon="-0.0267339125">
        <ele>1569.97</ele>
        <time>2022-07-12T07:47:45Z</time>
      </trkpt>
      <trkpt lat="42.6360251941" lon="-0.0268511754">
        <ele>1567.57</ele>
        <time>2022-07-12T07:47:58Z</time>
      </trkpt>
      <trkpt lat="42.6358708832" lon="-0.0268161390">
        <ele>1564.68</ele>
        <time>2022-07-12T07:48:11Z</time>
      </trkpt>
      <trkpt lat="42.6357789338" lon="-0.0268006325">
        <ele>1563.72</ele>
        <time>2022-07-12T07:48:15Z</time>
      </trkpt>
      <trkpt lat="42.6356356032" lon="-0.0267821923">
        <ele>1560.36</ele>
        <time>2022-07-12T07:48:29Z</time>
      </trkpt>
      <trkpt lat="42.6356077753" lon="-0.0268981978">
        <ele>1558.43</ele>
        <time>2022-07-12T07:48:44Z</time>
      </trkpt>
      <trkpt lat="42.6356388722" lon="-0.0270762295">
        <ele>1557.95</ele>
        <time>2022-07-12T07:48:53Z</time>
      </trkpt>
      <trkpt lat="42.6356308255" lon="-0.0271390937">
        <ele>1557.47</ele>
        <time>2022-07-12T07:48:57Z</time>
      </trkpt>
      <trkpt lat="42.6356629282" lon="-0.0273508206">
        <ele>1556.03</ele>
        <time>2022-07-12T07:49:09Z</time>
      </trkpt>
      <trkpt lat="42.6357147284" lon="-0.0275739469">
        <ele>1553.15</ele>
        <time>2022-07-12T07:49:23Z</time>
      </trkpt>
      <trkpt lat="42.6357046701" lon="-0.0277978275">
        <ele>1551.22</ele>
        <time>2022-07-12T07:49:38Z</time>
      </trkpt>
      <trkpt lat="42.6356926002" lon="-0.0278932136">
        <ele>1549.78</ele>
        <time>2022-07-12T07:49:43Z</time>
      </trkpt>
      <trkpt lat="42.6357630081" lon="-0.0281480234">
        <ele>1545.94</ele>
        <time>2022-07-12T07:49:56Z</time>
      </trkpt>
      <trkpt lat="42.6357753295" lon="-0.0281576626">
        <ele>1545.94</ele>
        <time>2022-07-12T07:49:57Z</time>
      </trkpt>
      <trkpt lat="42.6359117031" lon="-0.0283622649">
        <ele>1543.05</ele>
        <time>2022-07-12T07:50:12Z</time>
      </trkpt>
      <trkpt lat="42.6359566301" lon="-0.0285188388">
        <ele>1542.09</ele>
        <time>2022-07-12T07:50:20Z</time>
      </trkpt>
      <trkpt lat="42.6359743159" lon="-0.0286029093">
        <ele>1541.61</ele>
        <time>2022-07-12T07:50:23Z</time>
      </trkpt>
      <trkpt lat="42.6359767467" lon="-0.0286200922">
        <ele>1541.61</ele>
        <time>2022-07-12T07:50:24Z</time>
      </trkpt>
      <trkpt lat="42.6359774172" lon="-0.0286425557">
        <ele>1541.61</ele>
        <time>2022-07-12T07:50:25Z</time>
      </trkpt>
      <trkpt lat="42.6359764952" lon="-0.0286629237">
        <ele>1541.61</ele>
        <time>2022-07-12T07:50:26Z</time>
      </trkpt>
      <trkpt lat="42.6359769981" lon="-0.0286842976">
        <ele>1541.61</ele>
        <time>2022-07-12T07:50:27Z</time>
      </trkpt>
      <trkpt lat="42.6359759923" lon="-0.0287168194">
        <ele>1541.61</ele>
        <time>2022-07-12T07:50:28Z</time>
      </trkpt>
      <trkpt lat="42.6360263675" lon="-0.0288652629">
        <ele>1541.13</ele>
        <time>2022-07-12T07:50:38Z</time>
      </trkpt>
      <trkpt lat="42.6360474061" lon="-0.0288610719">
        <ele>1541.13</ele>
        <time>2022-07-12T07:50:40Z</time>
      </trkpt>
      <trkpt lat="42.6360884774" lon="-0.0288510136">
        <ele>1541.13</ele>
        <time>2022-07-12T07:50:44Z</time>
      </trkpt>
      <trkpt lat="42.6362988632" lon="-0.0288086850">
        <ele>1539.69</ele>
        <time>2022-07-12T07:50:58Z</time>
      </trkpt>
      <trkpt lat="42.6365071535" lon="-0.0287961960">
        <ele>1537.77</ele>
        <time>2022-07-12T07:51:12Z</time>
      </trkpt>
      <trkpt lat="42.6367269270" lon="-0.0286860578">
        <ele>1537.29</ele>
        <time>2022-07-12T07:51:26Z</time>
      </trkpt>
      <trkpt lat="42.6368693355" lon="-0.0285733212">
        <ele>1535.84</ele>
        <time>2022-07-12T07:51:40Z</time>
      </trkpt>
      <trkpt lat="42.6368815731" lon="-0.0285640173">
        <ele>1535.84</ele>
        <time>2022-07-12T07:51:41Z</time>
      </trkpt>
      <trkpt lat="42.6369712595" lon="-0.0285277236">
        <ele>1534.40</ele>
        <time>2022-07-12T07:51:49Z</time>
      </trkpt>
      <trkpt lat="42.6369888615" lon="-0.0285241194">
        <ele>1534.40</ele>
        <time>2022-07-12T07:51:50Z</time>
      </trkpt>
      <trkpt lat="42.6370947249" lon="-0.0284920167">
        <ele>1533.44</ele>
        <time>2022-07-12T07:51:56Z</time>
      </trkpt>
      <trkpt lat="42.6372481976" lon="-0.0283456687">
        <ele>1531.52</ele>
        <time>2022-07-12T07:52:10Z</time>
      </trkpt>
      <trkpt lat="42.6373577490" lon="-0.0283656176">
        <ele>1530.56</ele>
        <time>2022-07-12T07:52:16Z</time>
      </trkpt>
      <trkpt lat="42.6375592500" lon="-0.0284055993">
        <ele>1528.15</ele>
        <time>2022-07-12T07:52:28Z</time>
      </trkpt>
      <trkpt lat="42.6377404667" lon="-0.0284522027">
        <ele>1525.27</ele>
        <time>2022-07-12T07:52:42Z</time>
      </trkpt>
      <trkpt lat="42.6378416363" lon="-0.0285159051">
        <ele>1524.31</ele>
        <time>2022-07-12T07:52:50Z</time>
      </trkpt>
      <trkpt lat="42.6380448975" lon="-0.0286257081">
        <ele>1522.39</ele>
        <time>2022-07-12T07:53:05Z</time>
      </trkpt>
      <trkpt lat="42.6381547004" lon="-0.0287179928">
        <ele>1520.46</ele>
        <time>2022-07-12T07:53:15Z</time>
      </trkpt>
      <trkpt lat="42.6382087637" lon="-0.0287702959">
        <ele>1519.50</ele>
        <time>2022-07-12T07:53:19Z</time>
      </trkpt>
      <trkpt lat="42.6382713765" lon="-0.0288402010">
        <ele>1518.54</ele>
        <time>2022-07-12T07:53:25Z</time>
      </trkpt>
      <trkpt lat="42.6383234281" lon="-0.0289383531">
        <ele>1518.06</ele>
        <time>2022-07-12T07:53:30Z</time>
      </trkpt>
      <trkpt lat="42.6384002902" lon="-0.0290521793">
        <ele>1517.10</ele>
        <time>2022-07-12T07:53:39Z</time>
      </trkpt>
      <trkpt lat="42.6384515874" lon="-0.0291401893">
        <ele>1516.62</ele>
        <time>2022-07-12T07:53:45Z</time>
      </trkpt>
      <trkpt lat="42.6385110151" lon="-0.0292534288">
        <ele>1515.18</ele>
        <time>2022-07-12T07:53:52Z</time>
      </trkpt>
      <trkpt lat="42.6385483984" lon="-0.0294169597">
        <ele>1513.73</ele>
        <time>2022-07-12T07:53:59Z</time>
      </trkpt>
      <trkpt lat="42.6385144517" lon="-0.0294477213">
        <ele>1513.25</ele>
        <time>2022-07-12T07:54:02Z</time>
      </trkpt>
      <trkpt lat="42.6384639088" lon="-0.0294541754">
        <ele>1512.29</ele>
        <time>2022-07-12T07:54:08Z</time>
      </trkpt>
      <trkpt lat="42.6384340692" lon="-0.0294395909">
        <ele>1512.29</ele>
        <time>2022-07-12T07:54:11Z</time>
      </trkpt>
      <trkpt lat="42.6383135375" lon="-0.0293520838">
        <ele>1509.89</ele>
        <time>2022-07-12T07:54:25Z</time>
      </trkpt>
      <trkpt lat="42.6381189097" lon="-0.0293129403">
        <ele>1506.52</ele>
        <time>2022-07-12T07:54:39Z</time>
      </trkpt>
      <trkpt lat="42.6380215120" lon="-0.0292713661">
        <ele>1506.52</ele>
        <time>2022-07-12T07:54:54Z</time>
      </trkpt>
      <trkpt lat="42.6379317418" lon="-0.0292190630">
        <ele>1505.08</ele>
        <time>2022-07-12T07:55:05Z</time>
      </trkpt>
      <trkpt lat="42.6378260460" lon="-0.0291793328">
        <ele>1503.16</ele>
        <time>2022-07-12T07:55:15Z</time>
      </trkpt>
      <trkpt lat="42.6377963740" lon="-0.0291516725">
        <ele>1503.16</ele>
        <time>2022-07-12T07:55:18Z</time>
      </trkpt>
      <trkpt lat="42.6377687138" lon="-0.0291143730">
        <ele>1502.68</ele>
        <time>2022-07-12T07:55:20Z</time>
      </trkpt>
      <trkpt lat="42.6377528720" lon="-0.0291040633">
        <ele>1502.20</ele>
        <time>2022-07-12T07:55:21Z</time>
      </trkpt>
      <trkpt lat="42.6376667898" lon="-0.0290992856">
        <ele>1499.79</ele>
        <time>2022-07-12T07:55:32Z</time>
      </trkpt>
      <trkpt lat="42.6376741659" lon="-0.0291350763">
        <ele>1498.83</ele>
        <time>2022-07-12T07:55:35Z</time>
      </trkpt>
      <trkpt lat="42.6377223618" lon="-0.0292040594">
        <ele>1497.87</ele>
        <time>2022-07-12T07:55:42Z</time>
      </trkpt>
      <trkpt lat="42.6377383713" lon="-0.0292226672">
        <ele>1497.87</ele>
        <time>2022-07-12T07:55:44Z</time>
      </trkpt>
      <trkpt lat="42.6377921831" lon="-0.0292892195">
        <ele>1497.39</ele>
        <time>2022-07-12T07:55:50Z</time>
      </trkpt>
      <trkpt lat="42.6379025728" lon="-0.0294312090">
        <ele>1495.47</ele>
        <time>2022-07-12T07:56:05Z</time>
      </trkpt>
      <trkpt lat="42.6380681153" lon="-0.0296147726">
        <ele>1493.55</ele>
        <time>2022-07-12T07:56:21Z</time>
      </trkpt>
      <trkpt lat="42.6381558739" lon="-0.0297869369">
        <ele>1491.14</ele>
        <time>2022-07-12T07:56:36Z</time>
      </trkpt>
      <trkpt lat="42.6381745655" lon="-0.0298059639">
        <ele>1491.14</ele>
        <time>2022-07-12T07:56:38Z</time>
      </trkpt>
      <trkpt lat="42.6383753959" lon="-0.0300387293">
        <ele>1489.22</ele>
        <time>2022-07-12T07:56:53Z</time>
      </trkpt>
      <trkpt lat="42.6384113543" lon="-0.0301366299">
        <ele>1488.26</ele>
        <time>2022-07-12T07:57:00Z</time>
      </trkpt>
      <trkpt lat="42.6382981986" lon="-0.0300726760">
        <ele>1486.34</ele>
        <time>2022-07-12T07:57:17Z</time>
      </trkpt>
      <trkpt lat="42.6382855419" lon="-0.0300652999">
        <ele>1485.85</ele>
        <time>2022-07-12T07:57:19Z</time>
      </trkpt>
      <trkpt lat="42.6381779183" lon="-0.0300443452">
        <ele>1484.41</ele>
        <time>2022-07-12T07:57:30Z</time>
      </trkpt>
      <trkpt lat="42.6380418800" lon="-0.0300148409">
        <ele>1483.45</ele>
        <time>2022-07-12T07:57:41Z</time>
      </trkpt>
      <trkpt lat="42.6379309874" lon="-0.0299772061">
        <ele>1480.57</ele>
        <time>2022-07-12T07:57:54Z</time>
      </trkpt>
      <trkpt lat="42.6379145589" lon="-0.0300067943">
        <ele>1480.09</ele>
        <time>2022-07-12T07:57:57Z</time>
      </trkpt>
      <trkpt lat="42.6378899161" lon="-0.0300637912">
        <ele>1479.13</ele>
        <time>2022-07-12T07:58:02Z</time>
      </trkpt>
      <trkpt lat="42.6378898323" lon="-0.0300817285">
        <ele>1479.13</ele>
        <time>2022-07-12T07:58:03Z</time>
      </trkpt>
      <trkpt lat="42.6378990524" lon="-0.0301405694">
        <ele>1478.16</ele>
        <time>2022-07-12T07:58:07Z</time>
      </trkpt>
      <trkpt lat="42.6379177440" lon="-0.0301801320">
        <ele>1477.68</ele>
        <time>2022-07-12T07:58:10Z</time>
      </trkpt>
      <trkpt lat="42.6379486732" lon="-0.0302210357">
        <ele>1476.72</ele>
        <time>2022-07-12T07:58:16Z</time>
      </trkpt>
      <trkpt lat="42.6380713843" lon="-0.0303218700">
        <ele>1474.80</ele>
        <time>2022-07-12T07:58:28Z</time>
      </trkpt>
      <trkpt lat="42.6381614059" lon="-0.0305218622">
        <ele>1472.88</ele>
        <time>2022-07-12T07:58:42Z</time>
      </trkpt>
      <trkpt lat="42.6382730529" lon="-0.0306235347">
        <ele>1471.44</ele>
        <time>2022-07-12T07:58:55Z</time>
      </trkpt>
      <trkpt lat="42.6383049879" lon="-0.0306535419">
        <ele>1470.95</ele>
        <time>2022-07-12T07:58:58Z</time>
      </trkpt>
      <trkpt lat="42.6383672655" lon="-0.0306827947">
        <ele>1469.99</ele>
        <time>2022-07-12T07:59:04Z</time>
      </trkpt>
      <trkpt lat="42.6384264417" lon="-0.0306332577">
        <ele>1469.51</ele>
        <time>2022-07-12T07:59:10Z</time>
      </trkpt>
      <trkpt lat="42.6384713687" lon="-0.0306077767">
        <ele>1468.55</ele>
        <time>2022-07-12T07:59:15Z</time>
      </trkpt>
      <trkpt lat="42.6385882962" lon="-0.0305573177">
        <ele>1467.11</ele>
        <time>2022-07-12T07:59:22Z</time>
      </trkpt>
      <trkpt lat="42.6387157012" lon="-0.0304553937">
        <ele>1464.71</ele>
        <time>2022-07-12T07:59:35Z</time>
      </trkpt>
      <trkpt lat="42.6387395896" lon="-0.0304623507">
        <ele>1464.23</ele>
        <time>2022-07-12T07:59:37Z</time>
      </trkpt>
      <trkpt lat="42.6388648152" lon="-0.0305486005">
        <ele>1463.26</ele>
        <time>2022-07-12T07:59:48Z</time>
      </trkpt>
      <trkpt lat="42.6388716884" lon="-0.0305864029">
        <ele>1462.78</ele>
        <time>2022-07-12T07:59:49Z</time>
      </trkpt>
      <trkpt lat="42.6389153581" lon="-0.0306913443">
        <ele>1461.82</ele>
        <time>2022-07-12T07:59:55Z</time>
      </trkpt>
      <trkpt lat="42.6390019432" lon="-0.0308649335">
        <ele>1459.90</ele>
        <time>2022-07-12T08:00:09Z</time>
      </trkpt>
      <trkpt lat="42.6390704233" lon="-0.0310856290">
        <ele>1457.50</ele>
        <time>2022-07-12T08:00:20Z</time>
      </trkpt>
      <trkpt lat="42.6391589362" lon="-0.0310798455">
        <ele>1457.50</ele>
        <time>2022-07-12T08:00:36Z</time>
      </trkpt>
      <trkpt lat="42.6391554158" lon="-0.0310425460">
        <ele>1457.50</ele>
        <time>2022-07-12T08:01:08Z</time>
      </trkpt>
      <trkpt lat="42.6389999315" lon="-0.0311137922">
        <ele>1457.50</ele>
        <time>2022-07-12T08:01:37Z</time>
      </trkpt>
      <trkpt lat="42.6391024422" lon="-0.0311773270">
        <ele>1456.53</ele>
        <time>2022-07-12T08:01:50Z</time>
      </trkpt>
      <trkpt lat="42.6392946392" lon="-0.0313973520">
        <ele>1455.09</ele>
        <time>2022-07-12T08:02:06Z</time>
      </trkpt>
      <trkpt lat="42.6392747741" lon="-0.0315890461">
        <ele>1452.69</ele>
        <time>2022-07-12T08:02:18Z</time>
      </trkpt>
      <trkpt lat="42.6392447669" lon="-0.0315742102">
        <ele>1451.73</ele>
        <time>2022-07-12T08:02:21Z</time>
      </trkpt>
      <trkpt lat="42.6391822379" lon="-0.0315617211">
        <ele>1450.77</ele>
        <time>2022-07-12T08:02:25Z</time>
      </trkpt>
      <trkpt lat="42.6391355507" lon="-0.0316066481">
        <ele>1450.29</ele>
        <time>2022-07-12T08:02:28Z</time>
      </trkpt>
      <trkpt lat="42.6392621174" lon="-0.0318177044">
        <ele>1446.92</ele>
        <time>2022-07-12T08:02:42Z</time>
      </trkpt>
      <trkpt lat="42.6392833237" lon="-0.0318240747">
        <ele>1446.44</ele>
        <time>2022-07-12T08:02:44Z</time>
      </trkpt>
      <trkpt lat="42.6393052004" lon="-0.0318479631">
        <ele>1445.48</ele>
        <time>2022-07-12T08:02:48Z</time>
      </trkpt>
      <trkpt lat="42.6393419970" lon="-0.0318851788">
        <ele>1445.48</ele>
        <time>2022-07-12T08:02:51Z</time>
      </trkpt>
      <trkpt lat="42.6395492814" lon="-0.0320002623">
        <ele>1441.63</ele>
        <time>2022-07-12T08:03:06Z</time>
      </trkpt>
      <trkpt lat="42.6394512970" lon="-0.0321529806">
        <ele>1439.23</ele>
        <time>2022-07-12T08:03:17Z</time>
      </trkpt>
      <trkpt lat="42.6394145843" lon="-0.0321928784">
        <ele>1438.75</ele>
        <time>2022-07-12T08:03:20Z</time>
      </trkpt>
      <trkpt lat="42.6394887641" lon="-0.0323279947">
        <ele>1435.87</ele>
        <time>2022-07-12T08:03:35Z</time>
      </trkpt>
      <trkpt lat="42.6394586731" lon="-0.0326101296">
        <ele>1434.42</ele>
        <time>2022-07-12T08:03:52Z</time>
      </trkpt>
      <trkpt lat="42.6394367125" lon="-0.0327482633">
        <ele>1434.42</ele>
        <time>2022-07-12T08:03:59Z</time>
      </trkpt>
      <trkpt lat="42.6394516323" lon="-0.0328415539">
        <ele>1434.42</ele>
        <time>2022-07-12T08:04:03Z</time>
      </trkpt>
      <trkpt lat="42.6394567452" lon="-0.0331068411">
        <ele>1435.39</ele>
        <time>2022-07-12T08:04:17Z</time>
      </trkpt>
      <trkpt lat="42.6394583378" lon="-0.0332265347">
        <ele>1435.39</ele>
        <time>2022-07-12T08:04:24Z</time>
      </trkpt>
      <trkpt lat="42.6395020075" lon="-0.0334066618">
        <ele>1435.39</ele>
        <time>2022-07-12T08:04:32Z</time>
      </trkpt>
      <trkpt lat="42.6395784505" lon="-0.0334965996">
        <ele>1433.94</ele>
        <time>2022-07-12T08:04:39Z</time>
      </trkpt>
      <trkpt lat="42.6396388840" lon="-0.0335799996">
        <ele>1433.46</ele>
        <time>2022-07-12T08:04:46Z</time>
      </trkpt>
      <trkpt lat="42.6397018321" lon="-0.0337345619">
        <ele>1432.98</ele>
        <time>2022-07-12T08:04:54Z</time>
      </trkpt>
      <trkpt lat="42.6397549734" lon="-0.0338601228">
        <ele>1431.54</ele>
        <time>2022-07-12T08:05:02Z</time>
      </trkpt>
      <trkpt lat="42.6397690549" lon="-0.0339313690">
        <ele>1431.54</ele>
        <time>2022-07-12T08:05:05Z</time>
      </trkpt>
      <trkpt lat="42.6398779359" lon="-0.0342344586">
        <ele>1428.66</ele>
        <time>2022-07-12T08:05:19Z</time>
      </trkpt>
      <trkpt lat="42.6398853119" lon="-0.0342539884">
        <ele>1427.70</ele>
        <time>2022-07-12T08:05:20Z</time>
      </trkpt>
      <trkpt lat="42.6400191709" lon="-0.0344406534">
        <ele>1424.81</ele>
        <time>2022-07-12T08:05:34Z</time>
      </trkpt>
      <trkpt lat="42.6400288101" lon="-0.0344667211">
        <ele>1425.29</ele>
        <time>2022-07-12T08:05:36Z</time>
      </trkpt>
      <trkpt lat="42.6401882339" lon="-0.0346893445">
        <ele>1423.37</ele>
        <time>2022-07-12T08:05:52Z</time>
      </trkpt>
      <trkpt lat="42.6402590610" lon="-0.0347064435">
        <ele>1422.89</ele>
        <time>2022-07-12T08:05:57Z</time>
      </trkpt>
      <trkpt lat="42.6403899025" lon="-0.0347198546">
        <ele>1421.93</ele>
        <time>2022-07-12T08:06:07Z</time>
      </trkpt>
      <trkpt lat="42.6404204965" lon="-0.0347218663">
        <ele>1421.45</ele>
        <time>2022-07-12T08:06:09Z</time>
      </trkpt>
      <trkpt lat="42.6405360829" lon="-0.0347161666">
        <ele>1420.00</ele>
        <time>2022-07-12T08:06:17Z</time>
      </trkpt>
      <trkpt lat="42.6405701973" lon="-0.0347208604">
        <ele>1420.00</ele>
        <time>2022-07-12T08:06:19Z</time>
      </trkpt>
      <trkpt lat="42.6406654157" lon="-0.0347675476">
        <ele>1419.04</ele>
        <time>2022-07-12T08:06:26Z</time>
      </trkpt>
      <trkpt lat="42.6406604704" lon="-0.0350086112">
        <ele>1419.04</ele>
        <time>2022-07-12T08:06:38Z</time>
      </trkpt>
      <trkpt lat="42.6405927446" lon="-0.0353267882">
        <ele>1417.12</ele>
        <time>2022-07-12T08:06:53Z</time>
      </trkpt>
      <trkpt lat="42.6405525953" lon="-0.0354862120">
        <ele>1415.20</ele>
        <time>2022-07-12T08:07:03Z</time>
      </trkpt>
      <trkpt lat="42.6404085942" lon="-0.0353971124">
        <ele>1411.83</ele>
        <time>2022-07-12T08:07:18Z</time>
      </trkpt>
      <trkpt lat="42.6404028106" lon="-0.0354000460">
        <ele>1411.83</ele>
        <time>2022-07-12T08:07:19Z</time>
      </trkpt>
      <trkpt lat="42.6403873041" lon="-0.0354164746">
        <ele>1410.87</ele>
        <time>2022-07-12T08:07:21Z</time>
      </trkpt>
      <trkpt lat="42.6403616555" lon="-0.0354794227">
        <ele>1410.39</ele>
        <time>2022-07-12T08:07:25Z</time>
      </trkpt>
      <trkpt lat="42.6403413713" lon="-0.0355540216">
        <ele>1408.95</ele>
        <time>2022-07-12T08:07:31Z</time>
      </trkpt>
      <trkpt lat="42.6403521840" lon="-0.0355834421">
        <ele>1408.95</ele>
        <time>2022-07-12T08:07:33Z</time>
      </trkpt>
      <trkpt lat="42.6404067501" lon="-0.0356711168">
        <ele>1407.51</ele>
        <time>2022-07-12T08:07:39Z</time>
      </trkpt>
      <trkpt lat="42.6405517571" lon="-0.0358341448">
        <ele>1405.10</ele>
        <time>2022-07-12T08:07:51Z</time>
      </trkpt>
      <trkpt lat="42.6405931637" lon="-0.0360001903">
        <ele>1403.18</ele>
        <time>2022-07-12T08:08:03Z</time>
      </trkpt>
      <trkpt lat="42.6405604742" lon="-0.0360645633">
        <ele>1402.22</ele>
        <time>2022-07-12T08:08:08Z</time>
      </trkpt>
      <trkpt lat="42.6405032258" lon="-0.0360993482">
        <ele>1402.22</ele>
        <time>2022-07-12T08:08:12Z</time>
      </trkpt>
      <trkpt lat="42.6403818559" lon="-0.0361931417">
        <ele>1400.78</ele>
        <time>2022-07-12T08:08:25Z</time>
      </trkpt>
      <trkpt lat="42.6404314768" lon="-0.0362390745">
        <ele>1399.82</ele>
        <time>2022-07-12T08:08:29Z</time>
      </trkpt>
      <trkpt lat="42.6404895633" lon="-0.0362823252">
        <ele>1399.82</ele>
        <time>2022-07-12T08:08:33Z</time>
      </trkpt>
      <trkpt lat="42.6406344865" lon="-0.0363383163">
        <ele>1397.89</ele>
        <time>2022-07-12T08:08:44Z</time>
      </trkpt>
      <trkpt lat="42.6407578681" lon="-0.0365173537">
        <ele>1395.49</ele>
        <time>2022-07-12T08:08:59Z</time>
      </trkpt>
      <trkpt lat="42.6408832613" lon="-0.0367041025">
        <ele>1393.57</ele>
        <time>2022-07-12T08:09:12Z</time>
      </trkpt>
      <trkpt lat="42.6409128495" lon="-0.0367443357">
        <ele>1393.57</ele>
        <time>2022-07-12T08:09:14Z</time>
      </trkpt>
      <trkpt lat="42.6409638114" lon="-0.0368089601">
        <ele>1392.61</ele>
        <time>2022-07-12T08:09:19Z</time>
      </trkpt>
      <trkpt lat="42.6410831697" lon="-0.0369983073">
        <ele>1391.65</ele>
        <time>2022-07-12T08:09:34Z</time>
      </trkpt>
      <trkpt lat="42.6412059646" lon="-0.0371632632">
        <ele>1391.65</ele>
        <time>2022-07-12T08:09:46Z</time>
      </trkpt>
      <trkpt lat="42.6412305236" lon="-0.0372117106">
        <ele>1391.65</ele>
        <time>2022-07-12T08:09:49Z</time>
      </trkpt>
      <trkpt lat="42.6413617004" lon="-0.0374386087">
        <ele>1390.68</ele>
        <time>2022-07-12T08:10:05Z</time>
      </trkpt>
      <trkpt lat="42.6413679868" lon="-0.0375698693">
        <ele>1389.24</ele>
        <time>2022-07-12T08:10:13Z</time>
      </trkpt>
      <trkpt lat="42.6414208766" lon="-0.0376782473">
        <ele>1388.28</ele>
        <time>2022-07-12T08:10:19Z</time>
      </trkpt>
      <trkpt lat="42.6414681505" lon="-0.0378399342">
        <ele>1387.32</ele>
        <time>2022-07-12T08:10:28Z</time>
      </trkpt>
      <trkpt lat="42.6414707489" lon="-0.0378713664">
        <ele>1387.32</ele>
        <time>2022-07-12T08:10:29Z</time>
      </trkpt>
      <trkpt lat="42.6415729243" lon="-0.0380485598">
        <ele>1387.32</ele>
        <time>2022-07-12T08:10:39Z</time>
      </trkpt>
      <trkpt lat="42.6416782849" lon="-0.0382584427">
        <ele>1387.32</ele>
        <time>2022-07-12T08:10:52Z</time>
      </trkpt>
      <trkpt lat="42.6417743415" lon="-0.0383803155">
        <ele>1388.76</ele>
        <time>2022-07-12T08:11:05Z</time>
      </trkpt>
      <trkpt lat="42.6418427378" lon="-0.0383969955">
        <ele>1387.32</ele>
        <time>2022-07-12T08:11:12Z</time>
      </trkpt>
      <trkpt lat="42.6418538019" lon="-0.0384051260">
        <ele>1387.32</ele>
        <time>2022-07-12T08:11:13Z</time>
      </trkpt>
      <trkpt lat="42.6420075260" lon="-0.0384761207">
        <ele>1386.36</ele>
        <time>2022-07-12T08:11:26Z</time>
      </trkpt>
      <trkpt lat="42.6420588233" lon="-0.0385128334">
        <ele>1386.36</ele>
        <time>2022-07-12T08:11:29Z</time>
      </trkpt>
      <trkpt lat="42.6421962865" lon="-0.0386995822">
        <ele>1386.36</ele>
        <time>2022-07-12T08:11:41Z</time>
      </trkpt>
      <trkpt lat="42.6422786806" lon="-0.0390089583">
        <ele>1385.88</ele>
        <time>2022-07-12T08:11:57Z</time>
      </trkpt>
      <trkpt lat="42.6423356775" lon="-0.0392306596">
        <ele>1383.47</ele>
        <time>2022-07-12T08:12:12Z</time>
      </trkpt>
      <trkpt lat="42.6424268726" lon="-0.0394741539">
        <ele>1382.03</ele>
        <time>2022-07-12T08:12:28Z</time>
      </trkpt>
      <trkpt lat="42.6424990408" lon="-0.0396721344">
        <ele>1380.59</ele>
        <time>2022-07-12T08:12:39Z</time>
      </trkpt>
      <trkpt lat="42.6425650902" lon="-0.0397696160">
        <ele>1379.63</ele>
        <time>2022-07-12T08:12:44Z</time>
      </trkpt>
      <trkpt lat="42.6425935049" lon="-0.0398525130">
        <ele>1379.15</ele>
        <time>2022-07-12T08:12:49Z</time>
      </trkpt>
      <trkpt lat="42.6426966861" lon="-0.0400633179">
        <ele>1376.26</ele>
        <time>2022-07-12T08:13:02Z</time>
      </trkpt>
      <trkpt lat="42.6427177247" lon="-0.0401103403">
        <ele>1376.26</ele>
        <time>2022-07-12T08:13:05Z</time>
      </trkpt>
      <trkpt lat="42.6427502465" lon="-0.0401764736">
        <ele>1375.78</ele>
        <time>2022-07-12T08:13:09Z</time>
      </trkpt>
      <trkpt lat="42.6428640727" lon="-0.0403808244">
        <ele>1374.34</ele>
        <time>2022-07-12T08:13:25Z</time>
      </trkpt>
      <trkpt lat="42.6430102531" lon="-0.0406417530">
        <ele>1372.90</ele>
        <time>2022-07-12T08:13:40Z</time>
      </trkpt>
      <trkpt lat="42.6431566011" lon="-0.0408486184">
        <ele>1372.42</ele>
        <time>2022-07-12T08:13:55Z</time>
      </trkpt>
      <trkpt lat="42.6433127560" lon="-0.0410895981">
        <ele>1371.94</ele>
        <time>2022-07-12T08:14:11Z</time>
      </trkpt>
      <trkpt lat="42.6434194576" lon="-0.0412101299">
        <ele>1371.46</ele>
        <time>2022-07-12T08:14:22Z</time>
      </trkpt>
      <trkpt lat="42.6435811445" lon="-0.0413642731">
        <ele>1370.50</ele>
        <time>2022-07-12T08:14:35Z</time>
      </trkpt>
      <trkpt lat="42.6437824778" lon="-0.0414452422">
        <ele>1369.54</ele>
        <time>2022-07-12T08:14:51Z</time>
      </trkpt>
      <trkpt lat="42.6440199371" lon="-0.0415313244">
        <ele>1368.57</ele>
        <time>2022-07-12T08:15:08Z</time>
      </trkpt>
      <trkpt lat="42.6441143174" lon="-0.0415515248">
        <ele>1368.09</ele>
        <time>2022-07-12T08:15:15Z</time>
      </trkpt>
      <trkpt lat="42.6442559715" lon="-0.0415444002">
        <ele>1367.61</ele>
        <time>2022-07-12T08:15:26Z</time>
      </trkpt>
      <trkpt lat="42.6442703884" lon="-0.0415581465">
        <ele>1367.61</ele>
        <time>2022-07-12T08:15:27Z</time>
      </trkpt>
      <trkpt lat="42.6442841347" lon="-0.0415715575">
        <ele>1367.61</ele>
        <time>2022-07-12T08:15:28Z</time>
      </trkpt>
      <trkpt lat="42.6444561314" lon="-0.0417739805">
        <ele>1366.65</ele>
        <time>2022-07-12T08:15:41Z</time>
      </trkpt>
      <trkpt lat="42.6445297245" lon="-0.0418650080">
        <ele>1366.17</ele>
        <time>2022-07-12T08:15:47Z</time>
      </trkpt>
      <trkpt lat="42.6445443928" lon="-0.0418842025">
        <ele>1366.17</ele>
        <time>2022-07-12T08:15:48Z</time>
      </trkpt>
      <trkpt lat="42.6445542835" lon="-0.0419014692">
        <ele>1366.17</ele>
        <time>2022-07-12T08:15:49Z</time>
      </trkpt>
      <trkpt lat="42.6445978694" lon="-0.0419759843">
        <ele>1366.17</ele>
        <time>2022-07-12T08:15:54Z</time>
      </trkpt>
      <trkpt lat="42.6446213387" lon="-0.0420267787">
        <ele>1366.17</ele>
        <time>2022-07-12T08:15:56Z</time>
      </trkpt>
      <trkpt lat="42.6446601469" lon="-0.0420858711">
        <ele>1365.69</ele>
        <time>2022-07-12T08:16:00Z</time>
      </trkpt>
      <trkpt lat="42.6446945965" lon="-0.0421794970">
        <ele>1365.69</ele>
        <time>2022-07-12T08:16:06Z</time>
      </trkpt>
      <trkpt lat="42.6447168924" lon="-0.0422348175">
        <ele>1365.21</ele>
        <time>2022-07-12T08:16:09Z</time>
      </trkpt>
      <trkpt lat="42.6447521802" lon="-0.0422946643">
        <ele>1365.21</ele>
        <time>2022-07-12T08:16:12Z</time>
      </trkpt>
      <trkpt lat="42.6449218299" lon="-0.0424669124">
        <ele>1364.73</ele>
        <time>2022-07-12T08:16:27Z</time>
      </trkpt>
      <trkpt lat="42.6449987758" lon="-0.0425936468">
        <ele>1364.73</ele>
        <time>2022-07-12T08:16:36Z</time>
      </trkpt>
      <trkpt lat="42.6450137794" lon="-0.0426073093">
        <ele>1364.73</ele>
        <time>2022-07-12T08:16:37Z</time>
      </trkpt>
      <trkpt lat="42.6450680941" lon="-0.0426843390">
        <ele>1364.73</ele>
        <time>2022-07-12T08:16:43Z</time>
      </trkpt>
      <trkpt lat="42.6450975146" lon="-0.0427316967">
        <ele>1364.73</ele>
        <time>2022-07-12T08:16:47Z</time>
      </trkpt>
      <trkpt lat="42.6451509073" lon="-0.0428466126">
        <ele>1364.25</ele>
        <time>2022-07-12T08:16:55Z</time>
      </trkpt>
      <trkpt lat="42.6451637316" lon="-0.0430247281">
        <ele>1364.25</ele>
        <time>2022-07-12T08:17:09Z</time>
      </trkpt>
      <trkpt lat="42.6451493148" lon="-0.0430740137">
        <ele>1364.25</ele>
        <time>2022-07-12T08:17:13Z</time>
      </trkpt>
      <trkpt lat="42.6451357361" lon="-0.0433802046">
        <ele>1364.25</ele>
        <time>2022-07-12T08:17:28Z</time>
      </trkpt>
      <trkpt lat="42.6451306231" lon="-0.0434504449">
        <ele>1363.77</ele>
        <time>2022-07-12T08:17:31Z</time>
      </trkpt>
      <trkpt lat="42.6452182140" lon="-0.0437482540">
        <ele>1361.84</ele>
        <time>2022-07-12T08:17:42Z</time>
      </trkpt>
      <trkpt lat="42.6452328824" lon="-0.0439103600">
        <ele>1361.84</ele>
        <time>2022-07-12T08:17:49Z</time>
      </trkpt>
      <trkpt lat="42.6452674158" lon="-0.0439821929">
        <ele>1361.84</ele>
        <time>2022-07-12T08:17:53Z</time>
      </trkpt>
      <trkpt lat="42.6453073137" lon="-0.0442304648">
        <ele>1360.40</ele>
        <time>2022-07-12T08:18:05Z</time>
      </trkpt>
      <trkpt lat="42.6454166975" lon="-0.0444427785">
        <ele>1359.92</ele>
        <time>2022-07-12T08:18:20Z</time>
      </trkpt>
      <trkpt lat="42.6454441901" lon="-0.0444576144">
        <ele>1359.92</ele>
        <time>2022-07-12T08:18:22Z</time>
      </trkpt>
      <trkpt lat="42.6456590183" lon="-0.0446266774">
        <ele>1359.44</ele>
        <time>2022-07-12T08:18:38Z</time>
      </trkpt>
      <trkpt lat="42.6458000019" lon="-0.0447089877">
        <ele>1358.48</ele>
        <time>2022-07-12T08:18:51Z</time>
      </trkpt>
      <trkpt lat="42.6458300930" lon="-0.0447213091">
        <ele>1358.48</ele>
        <time>2022-07-12T08:18:54Z</time>
      </trkpt>
      <trkpt lat="42.6458391454" lon="-0.0447539147">
        <ele>1358.48</ele>
        <time>2022-07-12T08:18:55Z</time>
      </trkpt>
      <trkpt lat="42.6460244693" lon="-0.0448978320">
        <ele>1358.00</ele>
        <time>2022-07-12T08:19:10Z</time>
      </trkpt>
      <trkpt lat="42.6460349467" lon="-0.0449068006">
        <ele>1357.52</ele>
        <time>2022-07-12T08:19:11Z</time>
      </trkpt>
      <trkpt lat="42.6460587513" lon="-0.0449332874">
        <ele>1357.52</ele>
        <time>2022-07-12T08:19:14Z</time>
      </trkpt>
      <trkpt lat="42.6462466735" lon="-0.0450114068">
        <ele>1357.52</ele>
        <time>2022-07-12T08:19:29Z</time>
      </trkpt>
      <trkpt lat="42.6464443188" lon="-0.0451782066">
        <ele>1357.04</ele>
        <time>2022-07-12T08:19:43Z</time>
      </trkpt>
      <trkpt lat="42.6466267090" lon="-0.0454185996">
        <ele>1356.56</ele>
        <time>2022-07-12T08:19:58Z</time>
      </trkpt>
      <trkpt lat="42.6467492525" lon="-0.0456118863">
        <ele>1356.56</ele>
        <time>2022-07-12T08:20:12Z</time>
      </trkpt>
      <trkpt lat="42.6469053235" lon="-0.0458240323">
        <ele>1356.08</ele>
        <time>2022-07-12T08:20:29Z</time>
      </trkpt>
      <trkpt lat="42.6469908189" lon="-0.0459531136">
        <ele>1356.08</ele>
        <time>2022-07-12T08:20:38Z</time>
      </trkpt>
      <trkpt lat="42.6470183115" lon="-0.0460225157">
        <ele>1356.08</ele>
        <time>2022-07-12T08:20:42Z</time>
      </trkpt>
      <trkpt lat="42.6471898053" lon="-0.0463222526">
        <ele>1355.60</ele>
        <time>2022-07-12T08:20:57Z</time>
      </trkpt>
      <trkpt lat="42.6472135261" lon="-0.0464215782">
        <ele>1355.60</ele>
        <time>2022-07-12T08:21:03Z</time>
      </trkpt>
      <trkpt lat="42.6472098380" lon="-0.0464561954">
        <ele>1355.60</ele>
        <time>2022-07-12T08:21:05Z</time>
      </trkpt>
      <trkpt lat="42.6472240034" lon="-0.0465124380">
        <ele>1355.60</ele>
        <time>2022-07-12T08:21:08Z</time>
      </trkpt>
      <trkpt lat="42.6472327206" lon="-0.0465723686">
        <ele>1354.63</ele>
        <time>2022-07-12T08:21:12Z</time>
      </trkpt>
      <trkpt lat="42.6473028772" lon="-0.0468055531">
        <ele>1353.67</ele>
        <time>2022-07-12T08:21:26Z</time>
      </trkpt>
      <trkpt lat="42.6473496482" lon="-0.0469614565">
        <ele>1353.67</ele>
        <time>2022-07-12T08:21:35Z</time>
      </trkpt>
      <trkpt lat="42.6473669987" lon="-0.0470333733">
        <ele>1353.67</ele>
        <time>2022-07-12T08:21:39Z</time>
      </trkpt>
      <trkpt lat="42.6473856904" lon="-0.0471389014">
        <ele>1353.67</ele>
        <time>2022-07-12T08:21:45Z</time>
      </trkpt>
      <trkpt lat="42.6473721955" lon="-0.0472218823">
        <ele>1353.67</ele>
        <time>2022-07-12T08:21:50Z</time>
      </trkpt>
      <trkpt lat="42.6473970897" lon="-0.0472927932">
        <ele>1352.71</ele>
        <time>2022-07-12T08:21:54Z</time>
      </trkpt>
      <trkpt lat="42.6474258397" lon="-0.0474806316">
        <ele>1351.75</ele>
        <time>2022-07-12T08:22:07Z</time>
      </trkpt>
      <trkpt lat="42.6474348083" lon="-0.0475248042">
        <ele>1351.75</ele>
        <time>2022-07-12T08:22:10Z</time>
      </trkpt>
      <trkpt lat="42.6474568527" lon="-0.0476024207">
        <ele>1351.75</ele>
        <time>2022-07-12T08:22:15Z</time>
      </trkpt>
      <trkpt lat="42.6474705990" lon="-0.0476573221">
        <ele>1351.75</ele>
        <time>2022-07-12T08:22:18Z</time>
      </trkpt>
      <trkpt lat="42.6474975888" lon="-0.0477381237">
        <ele>1351.75</ele>
        <time>2022-07-12T08:22:24Z</time>
      </trkpt>
      <trkpt lat="42.6475172024" lon="-0.0478080288">
        <ele>1351.75</ele>
        <time>2022-07-12T08:22:28Z</time>
      </trkpt>
      <trkpt lat="42.6475578547" lon="-0.0479406305">
        <ele>1351.27</ele>
        <time>2022-07-12T08:22:37Z</time>
      </trkpt>
      <trkpt lat="42.6475811563" lon="-0.0479983818">
        <ele>1351.27</ele>
        <time>2022-07-12T08:22:40Z</time>
      </trkpt>
      <trkpt lat="42.6476052962" lon="-0.0481172372">
        <ele>1350.79</ele>
        <time>2022-07-12T08:22:47Z</time>
      </trkpt>
      <trkpt lat="42.6476430148" lon="-0.0483604800">
        <ele>1350.31</ele>
        <time>2022-07-12T08:22:59Z</time>
      </trkpt>
      <trkpt lat="42.6476669032" lon="-0.0484966859">
        <ele>1349.35</ele>
        <time>2022-07-12T08:23:08Z</time>
      </trkpt>
      <trkpt lat="42.6478292607" lon="-0.0488027930">
        <ele>1349.35</ele>
        <time>2022-07-12T08:23:21Z</time>
      </trkpt>
      <trkpt lat="42.6479247306" lon="-0.0489352271">
        <ele>1348.87</ele>
        <time>2022-07-12T08:23:31Z</time>
      </trkpt>
      <trkpt lat="42.6479597669" lon="-0.0489928108">
        <ele>1348.87</ele>
        <time>2022-07-12T08:23:34Z</time>
      </trkpt>
      <trkpt lat="42.6480481960" lon="-0.0490910467">
        <ele>1348.39</ele>
        <time>2022-07-12T08:23:42Z</time>
      </trkpt>
      <trkpt lat="42.6482341904" lon="-0.0493527297">
        <ele>1348.39</ele>
        <time>2022-07-12T08:23:58Z</time>
      </trkpt>
      <trkpt lat="42.6483082026" lon="-0.0495186914">
        <ele>1347.91</ele>
        <time>2022-07-12T08:24:10Z</time>
      </trkpt>
      <trkpt lat="42.6483691391" lon="-0.0496939570">
        <ele>1347.43</ele>
        <time>2022-07-12T08:24:19Z</time>
      </trkpt>
      <trkpt lat="42.6484315004" lon="-0.0498232059">
        <ele>1347.43</ele>
        <time>2022-07-12T08:24:27Z</time>
      </trkpt>
      <trkpt lat="42.6484665368" lon="-0.0499317516">
        <ele>1347.43</ele>
        <time>2022-07-12T08:24:33Z</time>
      </trkpt>
      <trkpt lat="42.6485285629" lon="-0.0500025786">
        <ele>1347.43</ele>
        <time>2022-07-12T08:24:38Z</time>
      </trkpt>
      <trkpt lat="42.6486091129" lon="-0.0502274651">
        <ele>1346.94</ele>
        <time>2022-07-12T08:24:52Z</time>
      </trkpt>
      <trkpt lat="42.6486262958" lon="-0.0502960291">
        <ele>1346.46</ele>
        <time>2022-07-12T08:24:56Z</time>
      </trkpt>
      <trkpt lat="42.6486394554" lon="-0.0503997132">
        <ele>1346.46</ele>
        <time>2022-07-12T08:25:01Z</time>
      </trkpt>
      <trkpt lat="42.6486777607" lon="-0.0505657587">
        <ele>1345.98</ele>
        <time>2022-07-12T08:25:11Z</time>
      </trkpt>
      <trkpt lat="42.6486743242" lon="-0.0505881384">
        <ele>1345.98</ele>
        <time>2022-07-12T08:25:12Z</time>
      </trkpt>
      <trkpt lat="42.6486744080" lon="-0.0506093446">
        <ele>1345.50</ele>
        <time>2022-07-12T08:25:13Z</time>
      </trkpt>
      <trkpt lat="42.6487951912" lon="-0.0508796610">
        <ele>1345.50</ele>
        <time>2022-07-12T08:25:30Z</time>
      </trkpt>
      <trkpt lat="42.6488040760" lon="-0.0510824192">
        <ele>1344.54</ele>
        <time>2022-07-12T08:25:44Z</time>
      </trkpt>
      <trkpt lat="42.6487787627" lon="-0.0512426812">
        <ele>1344.06</ele>
        <time>2022-07-12T08:25:58Z</time>
      </trkpt>
      <trkpt lat="42.6487391163" lon="-0.0515156798">
        <ele>1343.58</ele>
        <time>2022-07-12T08:26:15Z</time>
      </trkpt>
      <trkpt lat="42.6486615837" lon="-0.0518430769">
        <ele>1343.10</ele>
        <time>2022-07-12T08:26:31Z</time>
      </trkpt>
      <trkpt lat="42.6486530341" lon="-0.0521905906">
        <ele>1343.10</ele>
        <time>2022-07-12T08:26:48Z</time>
      </trkpt>
      <trkpt lat="42.6486319955" lon="-0.0524386950">
        <ele>1343.10</ele>
        <time>2022-07-12T08:27:01Z</time>
      </trkpt>
      <trkpt lat="42.6486660261" lon="-0.0528244302">
        <ele>1342.62</ele>
        <time>2022-07-12T08:27:08Z</time>
      </trkpt>
      <trkpt lat="42.6487090252" lon="-0.0530562736">
        <ele>1344.06</ele>
        <time>2022-07-12T08:27:21Z</time>
      </trkpt>
      <trkpt lat="42.6487103663" lon="-0.0530685950">
        <ele>1344.06</ele>
        <time>2022-07-12T08:27:22Z</time>
      </trkpt>
      <trkpt lat="42.6487168204" lon="-0.0531014521">
        <ele>1344.06</ele>
        <time>2022-07-12T08:27:24Z</time>
      </trkpt>
      <trkpt lat="42.6487329137" lon="-0.0531555153">
        <ele>1344.54</ele>
        <time>2022-07-12T08:27:28Z</time>
      </trkpt>
      <trkpt lat="42.6487619150" lon="-0.0533731934">
        <ele>1345.50</ele>
        <time>2022-07-12T08:27:41Z</time>
      </trkpt>
      <trkpt lat="42.6487668604" lon="-0.0534495525">
        <ele>1345.50</ele>
        <time>2022-07-12T08:27:46Z</time>
      </trkpt>
      <trkpt lat="42.6487551257" lon="-0.0536471978">
        <ele>1345.50</ele>
        <time>2022-07-12T08:28:00Z</time>
      </trkpt>
      <trkpt lat="42.6487575565" lon="-0.0539335236">
        <ele>1343.10</ele>
        <time>2022-07-12T08:28:14Z</time>
      </trkpt>
      <trkpt lat="42.6487612445" lon="-0.0539486110">
        <ele>1343.10</ele>
        <time>2022-07-12T08:28:15Z</time>
      </trkpt>
      <trkpt lat="42.6488076802" lon="-0.0542893354">
        <ele>1340.70</ele>
        <time>2022-07-12T08:28:31Z</time>
      </trkpt>
      <trkpt lat="42.6488413755" lon="-0.0544055924">
        <ele>1340.22</ele>
        <time>2022-07-12T08:28:36Z</time>
      </trkpt>
      <trkpt lat="42.6489308104" lon="-0.0546831172">
        <ele>1339.73</ele>
        <time>2022-07-12T08:28:51Z</time>
      </trkpt>
      <trkpt lat="42.6489786711" lon="-0.0549690239">
        <ele>1339.25</ele>
        <time>2022-07-12T08:29:06Z</time>
      </trkpt>
      <trkpt lat="42.6489821076" lon="-0.0549887214">
        <ele>1339.25</ele>
        <time>2022-07-12T08:29:07Z</time>
      </trkpt>
      <trkpt lat="42.6489482448" lon="-0.0552644022">
        <ele>1338.77</ele>
        <time>2022-07-12T08:29:21Z</time>
      </trkpt>
      <trkpt lat="42.6489556208" lon="-0.0553001929">
        <ele>1338.77</ele>
        <time>2022-07-12T08:29:23Z</time>
      </trkpt>
      <trkpt lat="42.6489641704" lon="-0.0553659908">
        <ele>1338.29</ele>
        <time>2022-07-12T08:29:27Z</time>
      </trkpt>
      <trkpt lat="42.6490075886" lon="-0.0555788912">
        <ele>1337.81</ele>
        <time>2022-07-12T08:29:41Z</time>
      </trkpt>
      <trkpt lat="42.6490101032" lon="-0.0558356289">
        <ele>1337.33</ele>
        <time>2022-07-12T08:29:56Z</time>
      </trkpt>
      <trkpt lat="42.6490445528" lon="-0.0560833141">
        <ele>1337.33</ele>
        <time>2022-07-12T08:30:12Z</time>
      </trkpt>
      <trkpt lat="42.6491332334" lon="-0.0563566480">
        <ele>1336.85</ele>
        <time>2022-07-12T08:30:27Z</time>
      </trkpt>
      <trkpt lat="42.6491507515" lon="-0.0566321611">
        <ele>1336.85</ele>
        <time>2022-07-12T08:30:43Z</time>
      </trkpt>
      <trkpt lat="42.6491365023" lon="-0.0568571314">
        <ele>1335.89</ele>
        <time>2022-07-12T08:30:53Z</time>
      </trkpt>
      <trkpt lat="42.6492318884" lon="-0.0571245980">
        <ele>1335.89</ele>
        <time>2022-07-12T08:31:06Z</time>
      </trkpt>
      <trkpt lat="42.6492445450" lon="-0.0571665075">
        <ele>1335.89</ele>
        <time>2022-07-12T08:31:08Z</time>
      </trkpt>
      <trkpt lat="42.6493216585" lon="-0.0573887117">
        <ele>1334.45</ele>
        <time>2022-07-12T08:31:26Z</time>
      </trkpt>
      <trkpt lat="42.6492220815" lon="-0.0576134305">
        <ele>1334.45</ele>
        <time>2022-07-12T08:31:40Z</time>
      </trkpt>
      <trkpt lat="42.6491612289" lon="-0.0576203037">
        <ele>1334.45</ele>
        <time>2022-07-12T08:31:57Z</time>
      </trkpt>
      <trkpt lat="42.6491195709" lon="-0.0576731097">
        <ele>1334.45</ele>
        <time>2022-07-12T08:32:18Z</time>
      </trkpt>
      <trkpt lat="42.6491120271" lon="-0.0576778874">
        <ele>1333.97</ele>
        <time>2022-07-12T08:32:49Z</time>
      </trkpt>
      <trkpt lat="42.6491047349" lon="-0.0576844253">
        <ele>1333.97</ele>
        <time>2022-07-12T08:33:15Z</time>
      </trkpt>
      <trkpt lat="42.6491238456" lon="-0.0576607883">
        <ele>1333.97</ele>
        <time>2022-07-12T08:33:16Z</time>
      </trkpt>
      <trkpt lat="42.6491852012" lon="-0.0576067250">
        <ele>1333.97</ele>
        <time>2022-07-12T08:33:19Z</time>
      </trkpt>
      <trkpt lat="42.6493597962" lon="-0.0576522388">
        <ele>1333.97</ele>
        <time>2022-07-12T08:33:34Z</time>
      </trkpt>
      <trkpt lat="42.6493872050" lon="-0.0576994289">
        <ele>1333.97</ele>
        <time>2022-07-12T08:33:37Z</time>
      </trkpt>
      <trkpt lat="42.6494651567" lon="-0.0578118302">
        <ele>1333.97</ele>
        <time>2022-07-12T08:33:45Z</time>
      </trkpt>
      <trkpt lat="42.6494961698" lon="-0.0578621216">
        <ele>1333.97</ele>
        <time>2022-07-12T08:33:48Z</time>
      </trkpt>
      <trkpt lat="42.6495486405" lon="-0.0579253212">
        <ele>1334.93</ele>
        <time>2022-07-12T08:33:53Z</time>
      </trkpt>
      <trkpt lat="42.6496946532" lon="-0.0579864252">
        <ele>1335.89</ele>
        <time>2022-07-12T08:34:10Z</time>
      </trkpt>
      <trkpt lat="42.6496161986" lon="-0.0579221360">
        <ele>1336.37</ele>
        <time>2022-07-12T08:34:31Z</time>
      </trkpt>
      <trkpt lat="42.6494960021" lon="-0.0581798796">
        <ele>1335.89</ele>
        <time>2022-07-12T08:34:53Z</time>
      </trkpt>
      <trkpt lat="42.6495601237" lon="-0.0582298357">
        <ele>1335.89</ele>
        <time>2022-07-12T08:35:03Z</time>
      </trkpt>
      <trkpt lat="42.6493644062" lon="-0.0582087971">
        <ele>1334.45</ele>
        <time>2022-07-12T08:35:16Z</time>
      </trkpt>
      <trkpt lat="42.6493033860" lon="-0.0580928754">
        <ele>1333.49</ele>
        <time>2022-07-12T08:35:29Z</time>
      </trkpt>
      <trkpt lat="42.6493227482" lon="-0.0581156742">
        <ele>1333.01</ele>
        <time>2022-07-12T08:35:33Z</time>
      </trkpt>
      <trkpt lat="42.6495006960" lon="-0.0581382215">
        <ele>1333.01</ele>
        <time>2022-07-12T08:35:44Z</time>
      </trkpt>
      <trkpt lat="42.6495207287" lon="-0.0582192745">
        <ele>1332.52</ele>
        <time>2022-07-12T08:35:48Z</time>
      </trkpt>
      <trkpt lat="42.6495276019" lon="-0.0583232939">
        <ele>1332.52</ele>
        <time>2022-07-12T08:35:54Z</time>
      </trkpt>
      <trkpt lat="42.6495369896" lon="-0.0584619306">
        <ele>1332.04</ele>
        <time>2022-07-12T08:36:02Z</time>
      </trkpt>
      <trkpt lat="42.6495414320" lon="-0.0586750824">
        <ele>1332.04</ele>
        <time>2022-07-12T08:36:14Z</time>
      </trkpt>
      <trkpt lat="42.6495333016" lon="-0.0587817002">
        <ele>1332.04</ele>
        <time>2022-07-12T08:36:20Z</time>
      </trkpt>
      <trkpt lat="42.6495385822" lon="-0.0588559639">
        <ele>1331.56</ele>
        <time>2022-07-12T08:36:24Z</time>
      </trkpt>
      <trkpt lat="42.6495284401" lon="-0.0591268670">
        <ele>1330.60</ele>
        <time>2022-07-12T08:36:39Z</time>
      </trkpt>
      <trkpt lat="42.6495900471" lon="-0.0593992788">
        <ele>1330.12</ele>
        <time>2022-07-12T08:36:55Z</time>
      </trkpt>
      <trkpt lat="42.6496685855" lon="-0.0596517418">
        <ele>1330.12</ele>
        <time>2022-07-12T08:37:10Z</time>
      </trkpt>
      <trkpt lat="42.6497258339" lon="-0.0598853454">
        <ele>1329.16</ele>
        <time>2022-07-12T08:37:23Z</time>
      </trkpt>
      <trkpt lat="42.6497742813" lon="-0.0599596091">
        <ele>1329.16</ele>
        <time>2022-07-12T08:37:31Z</time>
      </trkpt>
      <trkpt lat="42.6498648897" lon="-0.0599675719">
        <ele>1329.16</ele>
        <time>2022-07-12T08:37:39Z</time>
      </trkpt>
      <trkpt lat="42.6499329507" lon="-0.0599753670">
        <ele>1329.16</ele>
        <time>2022-07-12T08:37:54Z</time>
      </trkpt>
      <trkpt lat="42.6499573421" lon="-0.0599881075">
        <ele>1329.16</ele>
        <time>2022-07-12T08:38:11Z</time>
      </trkpt>
      <trkpt lat="42.6502579171" lon="-0.0599658955">
        <ele>1329.16</ele>
        <time>2022-07-12T08:38:33Z</time>
      </trkpt>
      <trkpt lat="42.6502661314" lon="-0.0599520653">
        <ele>1329.16</ele>
        <time>2022-07-12T08:38:56Z</time>
      </trkpt>
      <trkpt lat="42.6501091383" lon="-0.0601238105">
        <ele>1329.16</ele>
        <time>2022-07-12T08:39:32Z</time>
      </trkpt>
      <trkpt lat="42.6499381475" lon="-0.0606076140">
        <ele>1329.16</ele>
        <time>2022-07-12T08:39:58Z</time>
      </trkpt>
      <trkpt lat="42.6499439310" lon="-0.0605616812">
        <ele>1329.16</ele>
        <time>2022-07-12T08:40:22Z</time>
      </trkpt>
      <trkpt lat="42.6501448452" lon="-0.0602872577">
        <ele>1329.16</ele>
        <time>2022-07-12T08:40:46Z</time>
      </trkpt>
      <trkpt lat="42.6501020137" lon="-0.0602126587">
        <ele>1329.16</ele>
        <time>2022-07-12T08:41:11Z</time>
      </trkpt>
      <trkpt lat="42.6501822285" lon="-0.0601810589">
        <ele>1329.16</ele>
        <time>2022-07-12T08:41:29Z</time>
      </trkpt>
      <trkpt lat="42.6500890218" lon="-0.0601684861">
        <ele>1329.16</ele>
        <time>2022-07-12T08:41:47Z</time>
      </trkpt>
      <trkpt lat="42.6500155963" lon="-0.0601884350">
        <ele>1330.12</ele>
        <time>2022-07-12T08:41:58Z</time>
      </trkpt>
      <trkpt lat="42.6499581803" lon="-0.0600557495">
        <ele>1328.68</ele>
        <time>2022-07-12T08:42:18Z</time>
      </trkpt>
      <trkpt lat="42.6499870978" lon="-0.0600518938">
        <ele>1328.68</ele>
        <time>2022-07-12T08:42:32Z</time>
      </trkpt>
      <trkpt lat="42.6499953959" lon="-0.0600312743">
        <ele>1325.31</ele>
        <time>2022-07-12T09:23:01Z</time>
      </trkpt>
      <trkpt lat="42.6499981619" lon="-0.0600288436">
        <ele>1326.76</ele>
        <time>2022-07-12T09:23:02Z</time>
      </trkpt>
      <trkpt lat="42.6499742735" lon="-0.0600502174">
        <ele>1326.28</ele>
        <time>2022-07-12T09:23:23Z</time>
      </trkpt>
      <trkpt lat="42.6499536540" lon="-0.0600608625">
        <ele>1324.83</ele>
        <time>2022-07-12T09:23:52Z</time>
      </trkpt>
      <trkpt lat="42.6499309391" lon="-0.0599877723">
        <ele>1324.83</ele>
        <time>2022-07-12T09:24:11Z</time>
      </trkpt>
      <trkpt lat="42.6498518139" lon="-0.0598319527">
        <ele>1325.80</ele>
        <time>2022-07-12T09:24:23Z</time>
      </trkpt>
      <trkpt lat="42.6498121675" lon="-0.0597840920">
        <ele>1325.80</ele>
        <time>2022-07-12T09:24:27Z</time>
      </trkpt>
      <trkpt lat="42.6497151051" lon="-0.0596380793">
        <ele>1326.28</ele>
        <time>2022-07-12T09:24:42Z</time>
      </trkpt>
      <trkpt lat="42.6497391611" lon="-0.0596254226">
        <ele>1324.83</ele>
        <time>2022-07-12T09:24:54Z</time>
      </trkpt>
      <trkpt lat="42.6497362275" lon="-0.0596252549">
        <ele>1325.80</ele>
        <time>2022-07-12T09:24:56Z</time>
      </trkpt>
      <trkpt lat="42.6497209724" lon="-0.0596025400">
        <ele>1325.80</ele>
        <time>2022-07-12T09:25:14Z</time>
      </trkpt>
      <trkpt lat="42.6497306116" lon="-0.0595806632">
        <ele>1325.80</ele>
        <time>2022-07-12T09:25:34Z</time>
      </trkpt>
      <trkpt lat="42.6497199666" lon="-0.0595616363">
        <ele>1324.35</ele>
        <time>2022-07-12T09:25:51Z</time>
      </trkpt>
      <trkpt lat="42.6497240737" lon="-0.0595685095">
        <ele>1325.80</ele>
        <time>2022-07-12T09:26:00Z</time>
      </trkpt>
      <trkpt lat="42.6497741137" lon="-0.0595681742">
        <ele>1325.31</ele>
        <time>2022-07-12T09:26:14Z</time>
      </trkpt>
      <trkpt lat="42.6497837529" lon="-0.0595550146">
        <ele>1325.31</ele>
        <time>2022-07-12T09:26:19Z</time>
      </trkpt>
      <trkpt lat="42.6497098245" lon="-0.0595545117">
        <ele>1325.31</ele>
        <time>2022-07-12T09:26:28Z</time>
      </trkpt>
      <trkpt lat="42.6496132649" lon="-0.0593810901">
        <ele>1325.31</ele>
        <time>2022-07-12T09:26:41Z</time>
      </trkpt>
      <trkpt lat="42.6495924778" lon="-0.0593055692">
        <ele>1325.31</ele>
        <time>2022-07-12T09:26:45Z</time>
      </trkpt>
      <trkpt lat="42.6495286077" lon="-0.0590121187">
        <ele>1325.31</ele>
        <time>2022-07-12T09:27:01Z</time>
      </trkpt>
      <trkpt lat="42.6495208964" lon="-0.0587555487">
        <ele>1325.80</ele>
        <time>2022-07-12T09:27:16Z</time>
      </trkpt>
      <trkpt lat="42.6495070662" lon="-0.0584545545">
        <ele>1325.31</ele>
        <time>2022-07-12T09:27:33Z</time>
      </trkpt>
      <trkpt lat="42.6494695991" lon="-0.0581391435">
        <ele>1325.31</ele>
        <time>2022-07-12T09:27:49Z</time>
      </trkpt>
      <trkpt lat="42.6494531706" lon="-0.0578766223">
        <ele>1325.80</ele>
        <time>2022-07-12T09:28:02Z</time>
      </trkpt>
      <trkpt lat="42.6494148653" lon="-0.0577235688">
        <ele>1325.80</ele>
        <time>2022-07-12T09:28:13Z</time>
      </trkpt>
      <trkpt lat="42.6493805833" lon="-0.0576724391">
        <ele>1325.80</ele>
        <time>2022-07-12T09:28:16Z</time>
      </trkpt>
      <trkpt lat="42.6493370812" lon="-0.0576842576">
        <ele>1325.31</ele>
        <time>2022-07-12T09:28:20Z</time>
      </trkpt>
      <trkpt lat="42.6493193116" lon="-0.0576925557">
        <ele>1325.80</ele>
        <time>2022-07-12T09:28:21Z</time>
      </trkpt>
      <trkpt lat="42.6493067387" lon="-0.0576966628">
        <ele>1325.31</ele>
        <time>2022-07-12T09:28:22Z</time>
      </trkpt>
      <trkpt lat="42.6492886338" lon="-0.0577011891">
        <ele>1325.80</ele>
        <time>2022-07-12T09:28:23Z</time>
      </trkpt>
      <trkpt lat="42.6491431240" lon="-0.0577363092">
        <ele>1325.31</ele>
        <time>2022-07-12T09:28:34Z</time>
      </trkpt>
      <trkpt lat="42.6491242647" lon="-0.0577445235">
        <ele>1325.31</ele>
        <time>2022-07-12T09:28:36Z</time>
      </trkpt>
      <trkpt lat="42.6490691118" lon="-0.0575855188">
        <ele>1325.31</ele>
        <time>2022-07-12T09:28:46Z</time>
      </trkpt>
      <trkpt lat="42.6490126178" lon="-0.0574775599">
        <ele>1325.31</ele>
        <time>2022-07-12T09:28:53Z</time>
      </trkpt>
      <trkpt lat="42.6487725601" lon="-0.0573657453">
        <ele>1325.31</ele>
        <time>2022-07-12T09:29:09Z</time>
      </trkpt>
      <trkpt lat="42.6486423053" lon="-0.0571827684">
        <ele>1325.80</ele>
        <time>2022-07-12T09:29:23Z</time>
      </trkpt>
      <trkpt lat="42.6485542115" lon="-0.0569312274">
        <ele>1326.76</ele>
        <time>2022-07-12T09:29:38Z</time>
      </trkpt>
      <trkpt lat="42.6484251302" lon="-0.0566723943">
        <ele>1326.76</ele>
        <time>2022-07-12T09:29:55Z</time>
      </trkpt>
      <trkpt lat="42.6482927799" lon="-0.0563323405">
        <ele>1327.24</ele>
        <time>2022-07-12T09:30:14Z</time>
      </trkpt>
      <trkpt lat="42.6482822187" lon="-0.0560439192">
        <ele>1327.72</ele>
        <time>2022-07-12T09:30:29Z</time>
      </trkpt>
      <trkpt lat="42.6481155027" lon="-0.0559513830">
        <ele>1328.68</ele>
        <time>2022-07-12T09:30:45Z</time>
      </trkpt>
      <trkpt lat="42.6479331963" lon="-0.0559085514">
        <ele>1328.68</ele>
        <time>2022-07-12T09:31:02Z</time>
      </trkpt>
      <trkpt lat="42.6478981599" lon="-0.0559000019">
        <ele>1328.68</ele>
        <time>2022-07-12T09:31:06Z</time>
      </trkpt>
      <trkpt lat="42.6476906240" lon="-0.0559112336">
        <ele>1328.68</ele>
        <time>2022-07-12T09:31:22Z</time>
      </trkpt>
      <trkpt lat="42.6476613712" lon="-0.0559577532">
        <ele>1328.68</ele>
        <time>2022-07-12T09:31:27Z</time>
      </trkpt>
      <trkpt lat="42.6476396620" lon="-0.0560703222">
        <ele>1328.68</ele>
        <time>2022-07-12T09:31:35Z</time>
      </trkpt>
      <trkpt lat="42.6476523187" lon="-0.0562739186">
        <ele>1327.24</ele>
        <time>2022-07-12T09:31:49Z</time>
      </trkpt>
      <trkpt lat="42.6476956531" lon="-0.0565080252">
        <ele>1327.24</ele>
        <time>2022-07-12T09:32:02Z</time>
      </trkpt>
      <trkpt lat="42.6477429271" lon="-0.0568127912">
        <ele>1326.76</ele>
        <time>2022-07-12T09:32:18Z</time>
      </trkpt>
      <trkpt lat="42.6477689110" lon="-0.0570351630">
        <ele>1326.28</ele>
        <time>2022-07-12T09:32:31Z</time>
      </trkpt>
      <trkpt lat="42.6477487106" lon="-0.0573404320">
        <ele>1325.31</ele>
        <time>2022-07-12T09:32:48Z</time>
      </trkpt>
      <trkpt lat="42.6477395743" lon="-0.0576283503">
        <ele>1324.83</ele>
        <time>2022-07-12T09:33:02Z</time>
      </trkpt>
      <trkpt lat="42.6477325335" lon="-0.0578544103">
        <ele>1324.83</ele>
        <time>2022-07-12T09:33:14Z</time>
      </trkpt>
      <trkpt lat="42.6477322821" lon="-0.0579105690">
        <ele>1324.83</ele>
        <time>2022-07-12T09:33:17Z</time>
      </trkpt>
      <trkpt lat="42.6477430947" lon="-0.0580233894">
        <ele>1324.35</ele>
        <time>2022-07-12T09:33:22Z</time>
      </trkpt>
      <trkpt lat="42.6478112396" lon="-0.0583103020">
        <ele>1323.87</ele>
        <time>2022-07-12T09:33:37Z</time>
      </trkpt>
      <trkpt lat="42.6478409115" lon="-0.0586339273">
        <ele>1323.39</ele>
        <time>2022-07-12T09:33:53Z</time>
      </trkpt>
      <trkpt lat="42.6478433423" lon="-0.0589596480">
        <ele>1322.43</ele>
        <time>2022-07-12T09:34:09Z</time>
      </trkpt>
      <trkpt lat="42.6478254050" lon="-0.0592235103">
        <ele>1321.95</ele>
        <time>2022-07-12T09:34:23Z</time>
      </trkpt>
      <trkpt lat="42.6478461083" lon="-0.0594432838">
        <ele>1321.47</ele>
        <time>2022-07-12T09:34:34Z</time>
      </trkpt>
      <trkpt lat="42.6478456054" lon="-0.0596022885">
        <ele>1321.47</ele>
        <time>2022-07-12T09:34:42Z</time>
      </trkpt>
      <trkpt lat="42.6478424203" lon="-0.0597760454">
        <ele>1320.99</ele>
        <time>2022-07-12T09:34:52Z</time>
      </trkpt>
      <trkpt lat="42.6478616986" lon="-0.0600913726">
        <ele>1320.03</ele>
        <time>2022-07-12T09:35:08Z</time>
      </trkpt>
      <trkpt lat="42.6478580106" lon="-0.0601503812">
        <ele>1320.03</ele>
        <time>2022-07-12T09:35:11Z</time>
      </trkpt>
      <trkpt lat="42.6478358824" lon="-0.0602358766">
        <ele>1320.03</ele>
        <time>2022-07-12T09:35:16Z</time>
      </trkpt>
      <trkpt lat="42.6478112396" lon="-0.0605015829">
        <ele>1320.03</ele>
        <time>2022-07-12T09:35:29Z</time>
      </trkpt>
      <trkpt lat="42.6478079706" lon="-0.0605975557">
        <ele>1320.03</ele>
        <time>2022-07-12T09:35:35Z</time>
      </trkpt>
      <trkpt lat="42.6478346251" lon="-0.0607045926">
        <ele>1320.03</ele>
        <time>2022-07-12T09:35:42Z</time>
      </trkpt>
      <trkpt lat="42.6479331963" lon="-0.0608093664">
        <ele>1320.03</ele>
        <time>2022-07-12T09:35:53Z</time>
      </trkpt>
      <trkpt lat="42.6480352040" lon="-0.0608920120">
        <ele>1319.55</ele>
        <time>2022-07-12T09:36:03Z</time>
      </trkpt>
      <trkpt lat="42.6480712462" lon="-0.0609399565">
        <ele>1319.55</ele>
        <time>2022-07-12T09:36:07Z</time>
      </trkpt>
      <trkpt lat="42.6480847411" lon="-0.0609705504">
        <ele>1319.55</ele>
        <time>2022-07-12T09:36:09Z</time>
      </trkpt>
      <trkpt lat="42.6482282393" lon="-0.0611905754">
        <ele>1318.10</ele>
        <time>2022-07-12T09:36:24Z</time>
      </trkpt>
      <trkpt lat="42.6482466795" lon="-0.0612311438">
        <ele>1318.10</ele>
        <time>2022-07-12T09:36:27Z</time>
      </trkpt>
      <trkpt lat="42.6482557319" lon="-0.0613022223">
        <ele>1317.62</ele>
        <time>2022-07-12T09:36:31Z</time>
      </trkpt>
      <trkpt lat="42.6483089570" lon="-0.0614867080">
        <ele>1317.62</ele>
        <time>2022-07-12T09:36:40Z</time>
      </trkpt>
      <trkpt lat="42.6483368687" lon="-0.0616210699">
        <ele>1317.62</ele>
        <time>2022-07-12T09:36:47Z</time>
      </trkpt>
      <trkpt lat="42.6483481005" lon="-0.0616917294">
        <ele>1317.62</ele>
        <time>2022-07-12T09:36:51Z</time>
      </trkpt>
      <trkpt lat="42.6483449992" lon="-0.0617259275">
        <ele>1317.62</ele>
        <time>2022-07-12T09:36:53Z</time>
      </trkpt>
      <trkpt lat="42.6483165007" lon="-0.0620114151">
        <ele>1317.62</ele>
        <time>2022-07-12T09:37:09Z</time>
      </trkpt>
      <trkpt lat="42.6482589170" lon="-0.0622434262">
        <ele>1317.14</ele>
        <time>2022-07-12T09:37:22Z</time>
      </trkpt>
      <trkpt lat="42.6482266467" lon="-0.0623690709">
        <ele>1316.18</ele>
        <time>2022-07-12T09:37:30Z</time>
      </trkpt>
      <trkpt lat="42.6482165046" lon="-0.0625862461">
        <ele>1315.70</ele>
        <time>2022-07-12T09:37:42Z</time>
      </trkpt>
      <trkpt lat="42.6482106373" lon="-0.0626906846">
        <ele>1315.22</ele>
        <time>2022-07-12T09:37:48Z</time>
      </trkpt>
      <trkpt lat="42.6481370442" lon="-0.0629680417">
        <ele>1315.22</ele>
        <time>2022-07-12T09:38:03Z</time>
      </trkpt>
      <trkpt lat="42.6480752695" lon="-0.0632309821">
        <ele>1314.26</ele>
        <time>2022-07-12T09:38:18Z</time>
      </trkpt>
      <trkpt lat="42.6480648760" lon="-0.0632675271">
        <ele>1314.26</ele>
        <time>2022-07-12T09:38:20Z</time>
      </trkpt>
      <trkpt lat="42.6480629481" lon="-0.0633111130">
        <ele>1314.26</ele>
        <time>2022-07-12T09:38:22Z</time>
      </trkpt>
      <trkpt lat="42.6480445918" lon="-0.0636262726">
        <ele>1314.26</ele>
        <time>2022-07-12T09:38:38Z</time>
      </trkpt>
      <trkpt lat="42.6480415743" lon="-0.0637250952">
        <ele>1313.78</ele>
        <time>2022-07-12T09:38:42Z</time>
      </trkpt>
      <trkpt lat="42.6480443403" lon="-0.0637650769">
        <ele>1313.78</ele>
        <time>2022-07-12T09:38:44Z</time>
      </trkpt>
      <trkpt lat="42.6480724197" lon="-0.0639483053">
        <ele>1313.30</ele>
        <time>2022-07-12T09:38:53Z</time>
      </trkpt>
      <trkpt lat="42.6480901055" lon="-0.0640767161">
        <ele>1313.30</ele>
        <time>2022-07-12T09:38:59Z</time>
      </trkpt>
      <trkpt lat="42.6481074560" lon="-0.0643050391">
        <ele>1312.82</ele>
        <time>2022-07-12T09:39:11Z</time>
      </trkpt>
      <trkpt lat="42.6481196098" lon="-0.0645607710">
        <ele>1312.82</ele>
        <time>2022-07-12T09:39:24Z</time>
      </trkpt>
      <trkpt lat="42.6481555682" lon="-0.0647423230">
        <ele>1311.86</ele>
        <time>2022-07-12T09:39:35Z</time>
      </trkpt>
      <trkpt lat="42.6481635310" lon="-0.0647681393">
        <ele>1311.38</ele>
        <time>2022-07-12T09:39:37Z</time>
      </trkpt>
      <trkpt lat="42.6481813844" lon="-0.0648232084">
        <ele>1311.38</ele>
        <time>2022-07-12T09:39:41Z</time>
      </trkpt>
      <trkpt lat="42.6481859107" lon="-0.0648551434">
        <ele>1311.38</ele>
        <time>2022-07-12T09:39:43Z</time>
      </trkpt>
      <trkpt lat="42.6481986511" lon="-0.0648889225">
        <ele>1311.38</ele>
        <time>2022-07-12T09:39:45Z</time>
      </trkpt>
      <trkpt lat="42.6482331846" lon="-0.0650962070">
        <ele>1311.38</ele>
        <time>2022-07-12T09:39:59Z</time>
      </trkpt>
      <trkpt lat="42.6482456736" lon="-0.0651228614">
        <ele>1310.90</ele>
        <time>2022-07-12T09:40:01Z</time>
      </trkpt>
      <trkpt lat="42.6482479367" lon="-0.0651537906">
        <ele>1310.90</ele>
        <time>2022-07-12T09:40:03Z</time>
      </trkpt>
      <trkpt lat="42.6483522076" lon="-0.0654038228">
        <ele>1310.41</ele>
        <time>2022-07-12T09:40:19Z</time>
      </trkpt>
      <trkpt lat="42.6483905129" lon="-0.0654787570">
        <ele>1310.41</ele>
        <time>2022-07-12T09:40:24Z</time>
      </trkpt>
      <trkpt lat="42.6484094560" lon="-0.0655150507">
        <ele>1310.41</ele>
        <time>2022-07-12T09:40:27Z</time>
      </trkpt>
      <trkpt lat="42.6484454144" lon="-0.0656162202">
        <ele>1310.41</ele>
        <time>2022-07-12T09:40:35Z</time>
      </trkpt>
      <trkpt lat="42.6485362742" lon="-0.0658484828">
        <ele>1309.93</ele>
        <time>2022-07-12T09:40:48Z</time>
      </trkpt>
      <trkpt lat="42.6485563908" lon="-0.0659604650">
        <ele>1309.93</ele>
        <time>2022-07-12T09:40:54Z</time>
      </trkpt>
      <trkpt lat="42.6486034133" lon="-0.0660501514">
        <ele>1309.93</ele>
        <time>2022-07-12T09:40:59Z</time>
      </trkpt>
      <trkpt lat="42.6486463286" lon="-0.0661471300">
        <ele>1309.93</ele>
        <time>2022-07-12T09:41:05Z</time>
      </trkpt>
      <trkpt lat="42.6486701332" lon="-0.0661969185">
        <ele>1309.93</ele>
        <time>2022-07-12T09:41:08Z</time>
      </trkpt>
      <trkpt lat="42.6486842986" lon="-0.0662677456">
        <ele>1309.93</ele>
        <time>2022-07-12T09:41:12Z</time>
      </trkpt>
      <trkpt lat="42.6487438940" lon="-0.0663740281">
        <ele>1310.90</ele>
        <time>2022-07-12T09:41:19Z</time>
      </trkpt>
      <trkpt lat="42.6487614121" lon="-0.0664378144">
        <ele>1310.90</ele>
        <time>2022-07-12T09:41:23Z</time>
      </trkpt>
      <trkpt lat="42.6488227677" lon="-0.0665818155">
        <ele>1311.86</ele>
        <time>2022-07-12T09:41:33Z</time>
      </trkpt>
      <trkpt lat="42.6489034854" lon="-0.0667222124">
        <ele>1312.34</ele>
        <time>2022-07-12T09:41:43Z</time>
      </trkpt>
      <trkpt lat="42.6489110291" lon="-0.0668118149">
        <ele>1312.34</ele>
        <time>2022-07-12T09:41:48Z</time>
      </trkpt>
      <trkpt lat="42.6489375997" lon="-0.0668963883">
        <ele>1310.90</ele>
        <time>2022-07-12T09:41:53Z</time>
      </trkpt>
      <trkpt lat="42.6489752345" lon="-0.0669819675">
        <ele>1310.90</ele>
        <time>2022-07-12T09:41:58Z</time>
      </trkpt>
      <trkpt lat="42.6490169764" lon="-0.0671720691">
        <ele>1309.93</ele>
        <time>2022-07-12T09:42:09Z</time>
      </trkpt>
      <trkpt lat="42.6490233466" lon="-0.0672002323">
        <ele>1309.45</ele>
        <time>2022-07-12T09:42:11Z</time>
      </trkpt>
      <trkpt lat="42.6490842830" lon="-0.0674324110">
        <ele>1308.49</ele>
        <time>2022-07-12T09:42:27Z</time>
      </trkpt>
      <trkpt lat="42.6490966044" lon="-0.0674793497">
        <ele>1307.53</ele>
        <time>2022-07-12T09:42:30Z</time>
      </trkpt>
      <trkpt lat="42.6490997896" lon="-0.0675646774">
        <ele>1307.53</ele>
        <time>2022-07-12T09:42:34Z</time>
      </trkpt>
      <trkpt lat="42.6491339877" lon="-0.0676759053">
        <ele>1307.53</ele>
        <time>2022-07-12T09:42:40Z</time>
      </trkpt>
      <trkpt lat="42.6491939183" lon="-0.0677790027">
        <ele>1307.05</ele>
        <time>2022-07-12T09:42:46Z</time>
      </trkpt>
      <trkpt lat="42.6492828503" lon="-0.0680836849">
        <ele>1306.57</ele>
        <time>2022-07-12T09:43:02Z</time>
      </trkpt>
      <trkpt lat="42.6492888015" lon="-0.0681026280">
        <ele>1306.09</ele>
        <time>2022-07-12T09:43:03Z</time>
      </trkpt>
      <trkpt lat="42.6492926572" lon="-0.0681426097">
        <ele>1306.09</ele>
        <time>2022-07-12T09:43:05Z</time>
      </trkpt>
      <trkpt lat="42.6492986083" lon="-0.0681578647">
        <ele>1306.09</ele>
        <time>2022-07-12T09:43:06Z</time>
      </trkpt>
      <trkpt lat="42.6493243407" lon="-0.0683152769">
        <ele>1306.09</ele>
        <time>2022-07-12T09:43:18Z</time>
      </trkpt>
      <trkpt lat="42.6493487321" lon="-0.0683799013">
        <ele>1306.09</ele>
        <time>2022-07-12T09:43:22Z</time>
      </trkpt>
      <trkpt lat="42.6493592933" lon="-0.0684322882">
        <ele>1306.09</ele>
        <time>2022-07-12T09:43:24Z</time>
      </trkpt>
      <trkpt lat="42.6494364906" lon="-0.0685700867">
        <ele>1306.09</ele>
        <time>2022-07-12T09:43:32Z</time>
      </trkpt>
      <trkpt lat="42.6494716108" lon="-0.0686851703">
        <ele>1305.61</ele>
        <time>2022-07-12T09:43:38Z</time>
      </trkpt>
      <trkpt lat="42.6494664978" lon="-0.0689170975">
        <ele>1305.61</ele>
        <time>2022-07-12T09:43:52Z</time>
      </trkpt>
      <trkpt lat="42.6494829264" lon="-0.0691529643">
        <ele>1305.13</ele>
        <time>2022-07-12T09:44:06Z</time>
      </trkpt>
      <trkpt lat="42.6495198067" lon="-0.0693620089">
        <ele>1306.57</ele>
        <time>2022-07-12T09:44:19Z</time>
      </trkpt>
      <trkpt lat="42.6495950762" lon="-0.0695657730">
        <ele>1307.05</ele>
        <time>2022-07-12T09:44:29Z</time>
      </trkpt>
      <trkpt lat="42.6496817451" lon="-0.0698261987">
        <ele>1307.05</ele>
        <time>2022-07-12T09:44:44Z</time>
      </trkpt>
      <trkpt lat="42.6497393288" lon="-0.0700578745">
        <ele>1308.49</ele>
        <time>2022-07-12T09:44:58Z</time>
      </trkpt>
      <trkpt lat="42.6497382391" lon="-0.0701268576">
        <ele>1308.49</ele>
        <time>2022-07-12T09:45:02Z</time>
      </trkpt>
      <trkpt lat="42.6497703418" lon="-0.0703195576">
        <ele>1309.45</ele>
        <time>2022-07-12T09:45:15Z</time>
      </trkpt>
      <trkpt lat="42.6497866865" lon="-0.0704413466">
        <ele>1309.45</ele>
        <time>2022-07-12T09:45:21Z</time>
      </trkpt>
      <trkpt lat="42.6498535741" lon="-0.0706272572">
        <ele>1307.05</ele>
        <time>2022-07-12T09:45:35Z</time>
      </trkpt>
      <trkpt lat="42.6498565916" lon="-0.0706404168">
        <ele>1307.53</ele>
        <time>2022-07-12T09:45:36Z</time>
      </trkpt>
      <trkpt lat="42.6499413326" lon="-0.0707904529">
        <ele>1307.05</ele>
        <time>2022-07-12T09:45:49Z</time>
      </trkpt>
      <trkpt lat="42.6499908697" lon="-0.0709397346">
        <ele>1306.57</ele>
        <time>2022-07-12T09:46:01Z</time>
      </trkpt>
      <trkpt lat="42.6500119083" lon="-0.0709886849">
        <ele>1306.57</ele>
        <time>2022-07-12T09:46:06Z</time>
      </trkpt>
      <trkpt lat="42.6500675641" lon="-0.0710833166">
        <ele>1306.09</ele>
        <time>2022-07-12T09:46:13Z</time>
      </trkpt>
      <trkpt lat="42.6501029357" lon="-0.0711015891">
        <ele>1306.09</ele>
        <time>2022-07-12T09:46:15Z</time>
      </trkpt>
      <trkpt lat="42.6502133254" lon="-0.0713082869">
        <ele>1306.09</ele>
        <time>2022-07-12T09:46:29Z</time>
      </trkpt>
      <trkpt lat="42.6502567437" lon="-0.0713470113">
        <ele>1305.61</ele>
        <time>2022-07-12T09:46:32Z</time>
      </trkpt>
      <trkpt lat="42.6503241342" lon="-0.0714209396">
        <ele>1305.61</ele>
        <time>2022-07-12T09:46:37Z</time>
      </trkpt>
      <trkpt lat="42.6503540576" lon="-0.0714765955">
        <ele>1305.61</ele>
        <time>2022-07-12T09:46:40Z</time>
      </trkpt>
      <trkpt lat="42.6504403073" lon="-0.0715929363">
        <ele>1306.09</ele>
        <time>2022-07-12T09:46:47Z</time>
      </trkpt>
      <trkpt lat="42.6504675485" lon="-0.0716273859">
        <ele>1306.09</ele>
        <time>2022-07-12T09:46:49Z</time>
      </trkpt>
      <trkpt lat="42.6505553070" lon="-0.0718020648">
        <ele>1306.09</ele>
        <time>2022-07-12T09:47:00Z</time>
      </trkpt>
      <trkpt lat="42.6505982224" lon="-0.0718270428">
        <ele>1306.09</ele>
        <time>2022-07-12T09:47:02Z</time>
      </trkpt>
      <trkpt lat="42.6507143117" lon="-0.0720221736">
        <ele>1306.09</ele>
        <time>2022-07-12T09:47:16Z</time>
      </trkpt>
      <trkpt lat="42.6508244500" lon="-0.0722462218">
        <ele>1305.61</ele>
        <time>2022-07-12T09:47:29Z</time>
      </trkpt>
      <trkpt lat="42.6508288085" lon="-0.0722805038">
        <ele>1305.61</ele>
        <time>2022-07-12T09:47:31Z</time>
      </trkpt>
      <trkpt lat="42.6508994680" lon="-0.0725248363">
        <ele>1305.13</ele>
        <time>2022-07-12T09:47:43Z</time>
      </trkpt>
      <trkpt lat="42.6509487536" lon="-0.0726699270">
        <ele>1305.13</ele>
        <time>2022-07-12T09:47:50Z</time>
      </trkpt>
      <trkpt lat="42.6509158965" lon="-0.0728540774">
        <ele>1304.65</ele>
        <time>2022-07-12T09:48:01Z</time>
      </trkpt>
      <trkpt lat="42.6509659365" lon="-0.0729606953">
        <ele>1303.69</ele>
        <time>2022-07-12T09:48:06Z</time>
      </trkpt>
      <trkpt lat="42.6510060020" lon="-0.0730119925">
        <ele>1303.69</ele>
        <time>2022-07-12T09:48:09Z</time>
      </trkpt>
      <trkpt lat="42.6510913298" lon="-0.0732391421">
        <ele>1302.24</ele>
        <time>2022-07-12T09:48:22Z</time>
      </trkpt>
      <trkpt lat="42.6511399448" lon="-0.0733522978">
        <ele>1301.76</ele>
        <time>2022-07-12T09:48:29Z</time>
      </trkpt>
      <trkpt lat="42.6511795074" lon="-0.0735272281">
        <ele>1301.76</ele>
        <time>2022-07-12T09:48:39Z</time>
      </trkpt>
      <trkpt lat="42.6512111071" lon="-0.0736387912">
        <ele>1301.28</ele>
        <time>2022-07-12T09:48:46Z</time>
      </trkpt>
      <trkpt lat="42.6512580458" lon="-0.0738018192">
        <ele>1300.80</ele>
        <time>2022-07-12T09:48:55Z</time>
      </trkpt>
      <trkpt lat="42.6513022184" lon="-0.0740038231">
        <ele>1298.40</ele>
        <time>2022-07-12T09:49:08Z</time>
      </trkpt>
      <trkpt lat="42.6513067447" lon="-0.0740426313">
        <ele>1297.92</ele>
        <time>2022-07-12T09:49:11Z</time>
      </trkpt>
      <trkpt lat="42.6512937527" lon="-0.0741836987">
        <ele>1297.44</ele>
        <time>2022-07-12T09:49:19Z</time>
      </trkpt>
      <trkpt lat="42.6512898132" lon="-0.0742338225">
        <ele>1297.44</ele>
        <time>2022-07-12T09:49:22Z</time>
      </trkpt>
      <trkpt lat="42.6512671821" lon="-0.0743417814">
        <ele>1295.99</ele>
        <time>2022-07-12T09:49:29Z</time>
      </trkpt>
      <trkpt lat="42.6512649190" lon="-0.0745364092">
        <ele>1295.99</ele>
        <time>2022-07-12T09:49:41Z</time>
      </trkpt>
      <trkpt lat="42.6513054036" lon="-0.0746655744">
        <ele>1295.99</ele>
        <time>2022-07-12T09:49:48Z</time>
      </trkpt>
      <trkpt lat="42.6513531804" lon="-0.0747768022">
        <ele>1295.99</ele>
        <time>2022-07-12T09:49:55Z</time>
      </trkpt>
      <trkpt lat="42.6513601374" lon="-0.0749140978">
        <ele>1295.99</ele>
        <time>2022-07-12T09:50:03Z</time>
      </trkpt>
      <trkpt lat="42.6513459720" lon="-0.0750590209">
        <ele>1295.99</ele>
        <time>2022-07-12T09:50:11Z</time>
      </trkpt>
      <trkpt lat="42.6513328124" lon="-0.0750907045">
        <ele>1295.99</ele>
        <time>2022-07-12T09:50:13Z</time>
      </trkpt>
      <trkpt lat="42.6513272803" lon="-0.0751880184">
        <ele>1295.99</ele>
        <time>2022-07-12T09:50:18Z</time>
      </trkpt>
      <trkpt lat="42.6513305493" lon="-0.0753027666">
        <ele>1295.99</ele>
        <time>2022-07-12T09:50:24Z</time>
      </trkpt>
      <trkpt lat="42.6513282862" lon="-0.0753252301">
        <ele>1295.99</ele>
        <time>2022-07-12T09:50:25Z</time>
      </trkpt>
      <trkpt lat="42.6513391826" lon="-0.0753927045">
        <ele>1295.03</ele>
        <time>2022-07-12T09:50:29Z</time>
      </trkpt>
      <trkpt lat="42.6513043977" lon="-0.0755290780">
        <ele>1294.07</ele>
        <time>2022-07-12T09:50:38Z</time>
      </trkpt>
      <trkpt lat="42.6513447985" lon="-0.0757496059">
        <ele>1293.59</ele>
        <time>2022-07-12T09:50:51Z</time>
      </trkpt>
      <trkpt lat="42.6513663400" lon="-0.0759329181">
        <ele>1293.11</ele>
        <time>2022-07-12T09:51:00Z</time>
      </trkpt>
      <trkpt lat="42.6514544338" lon="-0.0762325712">
        <ele>1292.15</ele>
        <time>2022-07-12T09:51:15Z</time>
      </trkpt>
      <trkpt lat="42.6514691021" lon="-0.0762649253">
        <ele>1292.15</ele>
        <time>2022-07-12T09:51:17Z</time>
      </trkpt>
      <trkpt lat="42.6515372470" lon="-0.0764903147">
        <ele>1292.15</ele>
        <time>2022-07-12T09:51:30Z</time>
      </trkpt>
      <trkpt lat="42.6515446231" lon="-0.0765287876">
        <ele>1292.15</ele>
        <time>2022-07-12T09:51:32Z</time>
      </trkpt>
      <trkpt lat="42.6515740436" lon="-0.0766188931">
        <ele>1291.67</ele>
        <time>2022-07-12T09:51:37Z</time>
      </trkpt>
      <trkpt lat="42.6515990216" lon="-0.0766623951">
        <ele>1291.67</ele>
        <time>2022-07-12T09:51:40Z</time>
      </trkpt>
      <trkpt lat="42.6516210660" lon="-0.0767055620">
        <ele>1291.67</ele>
        <time>2022-07-12T09:51:42Z</time>
      </trkpt>
      <trkpt lat="42.6517145243" lon="-0.0769014470">
        <ele>1290.71</ele>
        <time>2022-07-12T09:51:54Z</time>
      </trkpt>
      <trkpt lat="42.6517460402" lon="-0.0771346316">
        <ele>1287.34</ele>
        <time>2022-07-12T09:52:09Z</time>
      </trkpt>
      <trkpt lat="42.6517473813" lon="-0.0771496352">
        <ele>1287.34</ele>
        <time>2022-07-12T09:52:10Z</time>
      </trkpt>
      <trkpt lat="42.6517715212" lon="-0.0772055425">
        <ele>1286.86</ele>
        <time>2022-07-12T09:52:14Z</time>
      </trkpt>
      <trkpt lat="42.6518175378" lon="-0.0774303451">
        <ele>1283.50</ele>
        <time>2022-07-12T09:52:28Z</time>
      </trkpt>
      <trkpt lat="42.6518712658" lon="-0.0775348675">
        <ele>1282.06</ele>
        <time>2022-07-12T09:52:36Z</time>
      </trkpt>
      <trkpt lat="42.6519008540" lon="-0.0775699876">
        <ele>1281.57</ele>
        <time>2022-07-12T09:52:39Z</time>
      </trkpt>
      <trkpt lat="42.6519809850" lon="-0.0777474325">
        <ele>1279.65</ele>
        <time>2022-07-12T09:52:52Z</time>
      </trkpt>
      <trkpt lat="42.6520234812" lon="-0.0778492726">
        <ele>1278.69</ele>
        <time>2022-07-12T09:52:57Z</time>
      </trkpt>
      <trkpt lat="42.6520643011" lon="-0.0779468380">
        <ele>1278.21</ele>
        <time>2022-07-12T09:53:02Z</time>
      </trkpt>
      <trkpt lat="42.6521197055" lon="-0.0780413859">
        <ele>1278.69</ele>
        <time>2022-07-12T09:53:08Z</time>
      </trkpt>
      <trkpt lat="42.6521686558" lon="-0.0781908352">
        <ele>1278.21</ele>
        <time>2022-07-12T09:53:17Z</time>
      </trkpt>
      <trkpt lat="42.6522065420" lon="-0.0783051644">
        <ele>1277.25</ele>
        <time>2022-07-12T09:53:25Z</time>
      </trkpt>
      <trkpt lat="42.6522215456" lon="-0.0783350039">
        <ele>1277.25</ele>
        <time>2022-07-12T09:53:27Z</time>
      </trkpt>
      <trkpt lat="42.6522699930" lon="-0.0784140453">
        <ele>1276.77</ele>
        <time>2022-07-12T09:53:32Z</time>
      </trkpt>
      <trkpt lat="42.6523603499" lon="-0.0785903167">
        <ele>1276.77</ele>
        <time>2022-07-12T09:53:42Z</time>
      </trkpt>
      <trkpt lat="42.6524104737" lon="-0.0786915701">
        <ele>1275.81</ele>
        <time>2022-07-12T09:53:48Z</time>
      </trkpt>
      <trkpt lat="42.6524192747" lon="-0.0787253492">
        <ele>1275.81</ele>
        <time>2022-07-12T09:53:50Z</time>
      </trkpt>
      <trkpt lat="42.6524601784" lon="-0.0787784066">
        <ele>1275.81</ele>
        <time>2022-07-12T09:53:54Z</time>
      </trkpt>
      <trkpt lat="42.6525211148" lon="-0.0790415145">
        <ele>1274.85</ele>
        <time>2022-07-12T09:54:08Z</time>
      </trkpt>
      <trkpt lat="42.6525271498" lon="-0.0790580269">
        <ele>1274.85</ele>
        <time>2022-07-12T09:54:09Z</time>
      </trkpt>
      <trkpt lat="42.6525275689" lon="-0.0791149400">
        <ele>1274.36</ele>
        <time>2022-07-12T09:54:12Z</time>
      </trkpt>
      <trkpt lat="42.6525186840" lon="-0.0792229827">
        <ele>1274.36</ele>
        <time>2022-07-12T09:54:18Z</time>
      </trkpt>
      <trkpt lat="42.6525398903" lon="-0.0792591088">
        <ele>1273.88</ele>
        <time>2022-07-12T09:54:20Z</time>
      </trkpt>
      <trkpt lat="42.6525836438" lon="-0.0794365536">
        <ele>1272.92</ele>
        <time>2022-07-12T09:54:31Z</time>
      </trkpt>
      <trkpt lat="42.6525967196" lon="-0.0794612803">
        <ele>1272.44</ele>
        <time>2022-07-12T09:54:33Z</time>
      </trkpt>
      <trkpt lat="42.6526311692" lon="-0.0795283355">
        <ele>1272.44</ele>
        <time>2022-07-12T09:54:38Z</time>
      </trkpt>
      <trkpt lat="42.6526561473" lon="-0.0796451792">
        <ele>1271.96</ele>
        <time>2022-07-12T09:54:48Z</time>
      </trkpt>
      <trkpt lat="42.6527921855" lon="-0.0797589216">
        <ele>1271.48</ele>
        <time>2022-07-12T09:55:01Z</time>
      </trkpt>
      <trkpt lat="42.6529501006" lon="-0.0798990671">
        <ele>1271.48</ele>
        <time>2022-07-12T09:55:14Z</time>
      </trkpt>
      <trkpt lat="42.6529940218" lon="-0.0800136477">
        <ele>1271.48</ele>
        <time>2022-07-12T09:55:21Z</time>
      </trkpt>
      <trkpt lat="42.6530105341" lon="-0.0800636876">
        <ele>1272.92</ele>
        <time>2022-07-12T09:55:24Z</time>
      </trkpt>
      <trkpt lat="42.6530430559" lon="-0.0801625941">
        <ele>1272.92</ele>
        <time>2022-07-12T09:55:32Z</time>
      </trkpt>
      <trkpt lat="42.6531090215" lon="-0.0802418869">
        <ele>1272.92</ele>
        <time>2022-07-12T09:55:39Z</time>
      </trkpt>
      <trkpt lat="42.6531725563" lon="-0.0803288072">
        <ele>1273.40</ele>
        <time>2022-07-12T09:55:45Z</time>
      </trkpt>
      <trkpt lat="42.6532967761" lon="-0.0805504248">
        <ele>1271.96</ele>
        <time>2022-07-12T09:55:58Z</time>
      </trkpt>
      <trkpt lat="42.6533301361" lon="-0.0805961899">
        <ele>1271.96</ele>
        <time>2022-07-12T09:56:01Z</time>
      </trkpt>
      <trkpt lat="42.6533418708" lon="-0.0806272868">
        <ele>1271.96</ele>
        <time>2022-07-12T09:56:03Z</time>
      </trkpt>
      <trkpt lat="42.6533817686" lon="-0.0807017181">
        <ele>1271.48</ele>
        <time>2022-07-12T09:56:08Z</time>
      </trkpt>
      <trkpt lat="42.6534100156" lon="-0.0807484891">
        <ele>1271.00</ele>
        <time>2022-07-12T09:56:11Z</time>
      </trkpt>
      <trkpt lat="42.6534258574" lon="-0.0808015466">
        <ele>1270.52</ele>
        <time>2022-07-12T09:56:14Z</time>
      </trkpt>
      <trkpt lat="42.6534534339" lon="-0.0808699429">
        <ele>1270.04</ele>
        <time>2022-07-12T09:56:18Z</time>
      </trkpt>
      <trkpt lat="42.6534788311" lon="-0.0809346512">
        <ele>1270.04</ele>
        <time>2022-07-12T09:56:22Z</time>
      </trkpt>
      <trkpt lat="42.6535586268" lon="-0.0811497308">
        <ele>1268.60</ele>
        <time>2022-07-12T09:56:36Z</time>
      </trkpt>
      <trkpt lat="42.6535833534" lon="-0.0811938196">
        <ele>1268.12</ele>
        <time>2022-07-12T09:56:38Z</time>
      </trkpt>
      <trkpt lat="42.6536497381" lon="-0.0813389942">
        <ele>1267.16</ele>
        <time>2022-07-12T09:56:47Z</time>
      </trkpt>
      <trkpt lat="42.6536491513" lon="-0.0813942309">
        <ele>1267.16</ele>
        <time>2022-07-12T09:56:50Z</time>
      </trkpt>
      <trkpt lat="42.6536851935" lon="-0.0814633816">
        <ele>1266.19</ele>
        <time>2022-07-12T09:56:54Z</time>
      </trkpt>
      <trkpt lat="42.6537037175" lon="-0.0815182831">
        <ele>1266.19</ele>
        <time>2022-07-12T09:56:57Z</time>
      </trkpt>
      <trkpt lat="42.6536851935" lon="-0.0817045290">
        <ele>1263.79</ele>
        <time>2022-07-12T09:57:10Z</time>
      </trkpt>
      <trkpt lat="42.6537525840" lon="-0.0819054432">
        <ele>1261.87</ele>
        <time>2022-07-12T09:57:24Z</time>
      </trkpt>
      <trkpt lat="42.6537764724" lon="-0.0821183436">
        <ele>1259.94</ele>
        <time>2022-07-12T09:57:37Z</time>
      </trkpt>
      <trkpt lat="42.6537855249" lon="-0.0823865645">
        <ele>1258.02</ele>
        <time>2022-07-12T09:57:51Z</time>
      </trkpt>
      <trkpt lat="42.6537883747" lon="-0.0824938528">
        <ele>1256.10</ele>
        <time>2022-07-12T09:57:58Z</time>
      </trkpt>
      <trkpt lat="42.6537867822" lon="-0.0826765783">
        <ele>1254.18</ele>
        <time>2022-07-12T09:58:10Z</time>
      </trkpt>
      <trkpt lat="42.6537441183" lon="-0.0829310529">
        <ele>1252.25</ele>
        <time>2022-07-12T09:58:24Z</time>
      </trkpt>
      <trkpt lat="42.6536742970" lon="-0.0831740443">
        <ele>1249.37</ele>
        <time>2022-07-12T09:58:39Z</time>
      </trkpt>
      <trkpt lat="42.6536172163" lon="-0.0832374115">
        <ele>1248.89</ele>
        <time>2022-07-12T09:58:44Z</time>
      </trkpt>
      <trkpt lat="42.6535074133" lon="-0.0833747070">
        <ele>1246.49</ele>
        <time>2022-07-12T09:58:55Z</time>
      </trkpt>
      <trkpt lat="42.6533357520" lon="-0.0834576041">
        <ele>1244.08</ele>
        <time>2022-07-12T09:59:10Z</time>
      </trkpt>
      <trkpt lat="42.6533270348" lon="-0.0834540837">
        <ele>1244.08</ele>
        <time>2022-07-12T09:59:11Z</time>
      </trkpt>
      <trkpt lat="42.6531951874" lon="-0.0834692549">
        <ele>1243.12</ele>
        <time>2022-07-12T09:59:20Z</time>
      </trkpt>
      <trkpt lat="42.6530871447" lon="-0.0834954064">
        <ele>1242.16</ele>
        <time>2022-07-12T09:59:27Z</time>
      </trkpt>
      <trkpt lat="42.6529210154" lon="-0.0835928880">
        <ele>1240.24</ele>
        <time>2022-07-12T09:59:41Z</time>
      </trkpt>
      <trkpt lat="42.6528744120" lon="-0.0836278405">
        <ele>1239.76</ele>
        <time>2022-07-12T09:59:46Z</time>
      </trkpt>
      <trkpt lat="42.6526900940" lon="-0.0836431794">
        <ele>1238.32</ele>
        <time>2022-07-12T10:00:00Z</time>
      </trkpt>
      <trkpt lat="42.6524836477" lon="-0.0837031100">
        <ele>1236.87</ele>
        <time>2022-07-12T10:00:15Z</time>
      </trkpt>
      <trkpt lat="42.6522815600" lon="-0.0837921258">
        <ele>1234.95</ele>
        <time>2022-07-12T10:00:30Z</time>
      </trkpt>
      <trkpt lat="42.6522302628" lon="-0.0838271622">
        <ele>1233.99</ele>
        <time>2022-07-12T10:00:35Z</time>
      </trkpt>
      <trkpt lat="42.6521417499" lon="-0.0839954708">
        <ele>1232.55</ele>
        <time>2022-07-12T10:00:51Z</time>
      </trkpt>
      <trkpt lat="42.6520973258" lon="-0.0841337722">
        <ele>1231.11</ele>
        <time>2022-07-12T10:01:04Z</time>
      </trkpt>
      <trkpt lat="42.6519769616" lon="-0.0843517017">
        <ele>1230.14</ele>
        <time>2022-07-12T10:01:18Z</time>
      </trkpt>
      <trkpt lat="42.6519356389" lon="-0.0846112054">
        <ele>1228.22</ele>
        <time>2022-07-12T10:01:37Z</time>
      </trkpt>
      <trkpt lat="42.6518990099" lon="-0.0848735590">
        <ele>1225.82</ele>
        <time>2022-07-12T10:01:53Z</time>
      </trkpt>
      <trkpt lat="42.6518824138" lon="-0.0850770716">
        <ele>1225.34</ele>
        <time>2022-07-12T10:02:04Z</time>
      </trkpt>
      <trkpt lat="42.6518681645" lon="-0.0853246730">
        <ele>1223.90</ele>
        <time>2022-07-12T10:02:19Z</time>
      </trkpt>
      <trkpt lat="42.6518447790" lon="-0.0855793152">
        <ele>1222.93</ele>
        <time>2022-07-12T10:02:34Z</time>
      </trkpt>
      <trkpt lat="42.6518511493" lon="-0.0858285092">
        <ele>1221.49</ele>
        <time>2022-07-12T10:02:50Z</time>
      </trkpt>
      <trkpt lat="42.6518229023" lon="-0.0861233007">
        <ele>1221.49</ele>
        <time>2022-07-12T10:03:04Z</time>
      </trkpt>
      <trkpt lat="42.6518181246" lon="-0.0863305852">
        <ele>1220.53</ele>
        <time>2022-07-12T10:03:16Z</time>
      </trkpt>
      <trkpt lat="42.6518546697" lon="-0.0865654461">
        <ele>1220.53</ele>
        <time>2022-07-12T10:03:29Z</time>
      </trkpt>
      <trkpt lat="42.6518706791" lon="-0.0867699645">
        <ele>1220.53</ele>
        <time>2022-07-12T10:03:43Z</time>
      </trkpt>
      <trkpt lat="42.6518307813" lon="-0.0869297236">
        <ele>1220.53</ele>
        <time>2022-07-12T10:03:52Z</time>
      </trkpt>
      <trkpt lat="42.6518003549" lon="-0.0872559473">
        <ele>1220.05</ele>
        <time>2022-07-12T10:04:09Z</time>
      </trkpt>
      <trkpt lat="42.6517873630" lon="-0.0875520799">
        <ele>1218.61</ele>
        <time>2022-07-12T10:04:23Z</time>
      </trkpt>
      <trkpt lat="42.6518215612" lon="-0.0876435265">
        <ele>1218.61</ele>
        <time>2022-07-12T10:04:27Z</time>
      </trkpt>
      <trkpt lat="42.6519624610" lon="-0.0879017729">
        <ele>1218.61</ele>
        <time>2022-07-12T10:04:41Z</time>
      </trkpt>
      <trkpt lat="42.6520445198" lon="-0.0880744401">
        <ele>1218.13</ele>
        <time>2022-07-12T10:04:51Z</time>
      </trkpt>
      <trkpt lat="42.6521129161" lon="-0.0882654637">
        <ele>1216.21</ele>
        <time>2022-07-12T10:05:04Z</time>
      </trkpt>
      <trkpt lat="42.6521024387" lon="-0.0884526316">
        <ele>1215.24</ele>
        <time>2022-07-12T10:05:18Z</time>
      </trkpt>
      <trkpt lat="42.6520785503" lon="-0.0886767637">
        <ele>1213.32</ele>
        <time>2022-07-12T10:05:33Z</time>
      </trkpt>
      <trkpt lat="42.6520549972" lon="-0.0889523607">
        <ele>1211.88</ele>
        <time>2022-07-12T10:05:47Z</time>
      </trkpt>
      <trkpt lat="42.6520244032" lon="-0.0891492516">
        <ele>1210.44</ele>
        <time>2022-07-12T10:06:00Z</time>
      </trkpt>
      <trkpt lat="42.6520296000" lon="-0.0892635807">
        <ele>1209.48</ele>
        <time>2022-07-12T10:06:06Z</time>
      </trkpt>
      <trkpt lat="42.6520044543" lon="-0.0895485654">
        <ele>1209.48</ele>
        <time>2022-07-12T10:06:21Z</time>
      </trkpt>
      <trkpt lat="42.6520002633" lon="-0.0895622279">
        <ele>1209.48</ele>
        <time>2022-07-12T10:06:22Z</time>
      </trkpt>
      <trkpt lat="42.6520287618" lon="-0.0898675807">
        <ele>1209.00</ele>
        <time>2022-07-12T10:06:38Z</time>
      </trkpt>
      <trkpt lat="42.6522150915" lon="-0.0900895335">
        <ele>1207.55</ele>
        <time>2022-07-12T10:06:52Z</time>
      </trkpt>
      <trkpt lat="42.6522465236" lon="-0.0901764538">
        <ele>1207.07</ele>
        <time>2022-07-12T10:07:00Z</time>
      </trkpt>
      <trkpt lat="42.6522974018" lon="-0.0903532282">
        <ele>1205.63</ele>
        <time>2022-07-12T10:07:12Z</time>
      </trkpt>
      <trkpt lat="42.6522916183" lon="-0.0904306769">
        <ele>1204.67</ele>
        <time>2022-07-12T10:07:17Z</time>
      </trkpt>
      <trkpt lat="42.6523063704" lon="-0.0906737521">
        <ele>1203.71</ele>
        <time>2022-07-12T10:07:33Z</time>
      </trkpt>
      <trkpt lat="42.6522728428" lon="-0.0907791127">
        <ele>1203.71</ele>
        <time>2022-07-12T10:07:40Z</time>
      </trkpt>
      <trkpt lat="42.6522157621" lon="-0.0909604970">
        <ele>1202.27</ele>
        <time>2022-07-12T10:07:51Z</time>
      </trkpt>
      <trkpt lat="42.6521129161" lon="-0.0911366846">
        <ele>1200.82</ele>
        <time>2022-07-12T10:08:01Z</time>
      </trkpt>
      <trkpt lat="42.6520974096" lon="-0.0913894828">
        <ele>1198.90</ele>
        <time>2022-07-12T10:08:17Z</time>
      </trkpt>
      <trkpt lat="42.6520961523" lon="-0.0914310571">
        <ele>1198.42</ele>
        <time>2022-07-12T10:08:19Z</time>
      </trkpt>
      <trkpt lat="42.6520926319" lon="-0.0914743915">
        <ele>1198.42</ele>
        <time>2022-07-12T10:08:21Z</time>
      </trkpt>
      <trkpt lat="42.6520994212" lon="-0.0916261040">
        <ele>1198.42</ele>
        <time>2022-07-12T10:08:30Z</time>
      </trkpt>
      <trkpt lat="42.6521402411" lon="-0.0918411836">
        <ele>1197.94</ele>
        <time>2022-07-12T10:08:44Z</time>
      </trkpt>
      <trkpt lat="42.6521471143" lon="-0.0918821711">
        <ele>1197.46</ele>
        <time>2022-07-12T10:08:46Z</time>
      </trkpt>
      <trkpt lat="42.6521351282" lon="-0.0919663254">
        <ele>1196.98</ele>
        <time>2022-07-12T10:08:51Z</time>
      </trkpt>
      <trkpt lat="42.6521193702" lon="-0.0920631364">
        <ele>1196.02</ele>
        <time>2022-07-12T10:08:57Z</time>
      </trkpt>
      <trkpt lat="42.6520907041" lon="-0.0920989271">
        <ele>1195.54</ele>
        <time>2022-07-12T10:09:00Z</time>
      </trkpt>
      <trkpt lat="42.6520865969" lon="-0.0921941455">
        <ele>1195.06</ele>
        <time>2022-07-12T10:09:05Z</time>
      </trkpt>
      <trkpt lat="42.6520943083" lon="-0.0923057925">
        <ele>1194.58</ele>
        <time>2022-07-12T10:09:10Z</time>
      </trkpt>
      <trkpt lat="42.6520968229" lon="-0.0924772024">
        <ele>1193.13</ele>
        <time>2022-07-12T10:09:19Z</time>
      </trkpt>
      <trkpt lat="42.6520189550" lon="-0.0927025080">
        <ele>1192.65</ele>
        <time>2022-07-12T10:09:33Z</time>
      </trkpt>
      <trkpt lat="42.6519548334" lon="-0.0928999856">
        <ele>1192.17</ele>
        <time>2022-07-12T10:09:45Z</time>
      </trkpt>
      <trkpt lat="42.6519059669" lon="-0.0930464175">
        <ele>1191.69</ele>
        <time>2022-07-12T10:09:54Z</time>
      </trkpt>
      <trkpt lat="42.6518907957" lon="-0.0930756703">
        <ele>1191.21</ele>
        <time>2022-07-12T10:09:55Z</time>
      </trkpt>
      <trkpt lat="42.6518759597" lon="-0.0931639317">
        <ele>1191.21</ele>
        <time>2022-07-12T10:09:59Z</time>
      </trkpt>
      <trkpt lat="42.6518577710" lon="-0.0933837052">
        <ele>1191.21</ele>
        <time>2022-07-12T10:10:09Z</time>
      </trkpt>
      <trkpt lat="42.6518110000" lon="-0.0935659278">
        <ele>1191.21</ele>
        <time>2022-07-12T10:10:20Z</time>
      </trkpt>
      <trkpt lat="42.6517825853" lon="-0.0936457235">
        <ele>1191.21</ele>
        <time>2022-07-12T10:10:24Z</time>
      </trkpt>
      <trkpt lat="42.6517766342" lon="-0.0936809275">
        <ele>1190.25</ele>
        <time>2022-07-12T10:10:26Z</time>
      </trkpt>
      <trkpt lat="42.6517489739" lon="-0.0937653333">
        <ele>1189.77</ele>
        <time>2022-07-12T10:10:32Z</time>
      </trkpt>
      <trkpt lat="42.6517115906" lon="-0.0938631501">
        <ele>1189.29</ele>
        <time>2022-07-12T10:10:39Z</time>
      </trkpt>
      <trkpt lat="42.6516966708" lon="-0.0939050596">
        <ele>1189.29</ele>
        <time>2022-07-12T10:10:42Z</time>
      </trkpt>
      <trkpt lat="42.6516701840" lon="-0.0939543452">
        <ele>1188.81</ele>
        <time>2022-07-12T10:10:45Z</time>
      </trkpt>
      <trkpt lat="42.6516644843" lon="-0.0939923152">
        <ele>1188.33</ele>
        <time>2022-07-12T10:10:47Z</time>
      </trkpt>
      <trkpt lat="42.6515182201" lon="-0.0942667387">
        <ele>1186.88</ele>
        <time>2022-07-12T10:11:04Z</time>
      </trkpt>
      <trkpt lat="42.6514789928" lon="-0.0943427626">
        <ele>1186.40</ele>
        <time>2022-07-12T10:11:10Z</time>
      </trkpt>
      <trkpt lat="42.6514903083" lon="-0.0946431700">
        <ele>1185.44</ele>
        <time>2022-07-12T10:11:23Z</time>
      </trkpt>
      <trkpt lat="42.6514582895" lon="-0.0948451739">
        <ele>1184.48</ele>
        <time>2022-07-12T10:11:35Z</time>
      </trkpt>
      <trkpt lat="42.6514411066" lon="-0.0949106365">
        <ele>1184.48</ele>
        <time>2022-07-12T10:11:39Z</time>
      </trkpt>
      <trkpt lat="42.6513888873" lon="-0.0950231217">
        <ele>1184.48</ele>
        <time>2022-07-12T10:11:47Z</time>
      </trkpt>
      <trkpt lat="42.6513515040" lon="-0.0952590723">
        <ele>1183.04</ele>
        <time>2022-07-12T10:12:02Z</time>
      </trkpt>
      <trkpt lat="42.6513478998" lon="-0.0952851400">
        <ele>1183.04</ele>
        <time>2022-07-12T10:12:04Z</time>
      </trkpt>
      <trkpt lat="42.6512814313" lon="-0.0955027342">
        <ele>1181.60</ele>
        <time>2022-07-12T10:12:19Z</time>
      </trkpt>
      <trkpt lat="42.6512733009" lon="-0.0955574680">
        <ele>1181.60</ele>
        <time>2022-07-12T10:12:23Z</time>
      </trkpt>
      <trkpt lat="42.6512078382" lon="-0.0957748946">
        <ele>1180.64</ele>
        <time>2022-07-12T10:12:37Z</time>
      </trkpt>
      <trkpt lat="42.6512050722" lon="-0.0958159659">
        <ele>1180.64</ele>
        <time>2022-07-12T10:12:40Z</time>
      </trkpt>
      <trkpt lat="42.6511753164" lon="-0.0958928280">
        <ele>1180.16</ele>
        <time>2022-07-12T10:12:45Z</time>
      </trkpt>
      <trkpt lat="42.6511279587" lon="-0.0959986914">
        <ele>1179.67</ele>
        <time>2022-07-12T10:12:52Z</time>
      </trkpt>
      <trkpt lat="42.6510733087" lon="-0.0961602107">
        <ele>1178.71</ele>
        <time>2022-07-12T10:13:02Z</time>
      </trkpt>
      <trkpt lat="42.6510084327" lon="-0.0963125937">
        <ele>1177.75</ele>
        <time>2022-07-12T10:13:12Z</time>
      </trkpt>
      <trkpt lat="42.6509894058" lon="-0.0963985920">
        <ele>1177.27</ele>
        <time>2022-07-12T10:13:17Z</time>
      </trkpt>
      <trkpt lat="42.6509320736" lon="-0.0965232309">
        <ele>1176.31</ele>
        <time>2022-07-12T10:13:26Z</time>
      </trkpt>
      <trkpt lat="42.6509125438" lon="-0.0965440180">
        <ele>1176.31</ele>
        <time>2022-07-12T10:13:28Z</time>
      </trkpt>
      <trkpt lat="42.6508408785" lon="-0.0966295972">
        <ele>1175.35</ele>
        <time>2022-07-12T10:13:35Z</time>
      </trkpt>
      <trkpt lat="42.6507144794" lon="-0.0967802200">
        <ele>1173.43</ele>
        <time>2022-07-12T10:13:48Z</time>
      </trkpt>
      <trkpt lat="42.6506629307" lon="-0.0968776178">
        <ele>1172.47</ele>
        <time>2022-07-12T10:13:54Z</time>
      </trkpt>
      <trkpt lat="42.6506216079" lon="-0.0969162583">
        <ele>1172.47</ele>
        <time>2022-07-12T10:13:59Z</time>
      </trkpt>
      <trkpt lat="42.6505828835" lon="-0.0969822239">
        <ele>1171.50</ele>
        <time>2022-07-12T10:14:06Z</time>
      </trkpt>
      <trkpt lat="42.6504444145" lon="-0.0971013308">
        <ele>1171.50</ele>
        <time>2022-07-12T10:14:22Z</time>
      </trkpt>
      <trkpt lat="42.6503328513" lon="-0.0972330943">
        <ele>1169.58</ele>
        <time>2022-07-12T10:14:37Z</time>
      </trkpt>
      <trkpt lat="42.6502499543" lon="-0.0973464176">
        <ele>1168.62</ele>
        <time>2022-07-12T10:14:46Z</time>
      </trkpt>
      <trkpt lat="42.6501275785" lon="-0.0975362677">
        <ele>1168.62</ele>
        <time>2022-07-12T10:15:00Z</time>
      </trkpt>
      <trkpt lat="42.6500880998" lon="-0.0975898281">
        <ele>1168.62</ele>
        <time>2022-07-12T10:15:05Z</time>
      </trkpt>
      <trkpt lat="42.6499413326" lon="-0.0977415405">
        <ele>1169.58</ele>
        <time>2022-07-12T10:15:19Z</time>
      </trkpt>
      <trkpt lat="42.6498833299" lon="-0.0978492480">
        <ele>1168.14</ele>
        <time>2022-07-12T10:15:26Z</time>
      </trkpt>
      <trkpt lat="42.6498458628" lon="-0.0979559496">
        <ele>1166.70</ele>
        <time>2022-07-12T10:15:37Z</time>
      </trkpt>
      <trkpt lat="42.6498001814" lon="-0.0980955921">
        <ele>1166.22</ele>
        <time>2022-07-12T10:15:45Z</time>
      </trkpt>
      <trkpt lat="42.6497957390" lon="-0.0981484819">
        <ele>1165.74</ele>
        <time>2022-07-12T10:15:48Z</time>
      </trkpt>
      <trkpt lat="42.6497552544" lon="-0.0983426906">
        <ele>1163.81</ele>
        <time>2022-07-12T10:16:02Z</time>
      </trkpt>
      <trkpt lat="42.6497184578" lon="-0.0984788127">
        <ele>1162.37</ele>
        <time>2022-07-12T10:16:14Z</time>
      </trkpt>
      <trkpt lat="42.6497041248" lon="-0.0985146035">
        <ele>1161.89</ele>
        <time>2022-07-12T10:16:17Z</time>
      </trkpt>
      <trkpt lat="42.6496646460" lon="-0.0987730175">
        <ele>1159.01</ele>
        <time>2022-07-12T10:16:34Z</time>
      </trkpt>
      <trkpt lat="42.6496605389" lon="-0.0988364685">
        <ele>1159.01</ele>
        <time>2022-07-12T10:16:38Z</time>
      </trkpt>
      <trkpt lat="42.6496548392" lon="-0.0988708343">
        <ele>1158.53</ele>
        <time>2022-07-12T10:16:40Z</time>
      </trkpt>
      <trkpt lat="42.6496523246" lon="-0.0989280827">
        <ele>1157.56</ele>
        <time>2022-07-12T10:16:44Z</time>
      </trkpt>
      <trkpt lat="42.6496395841" lon="-0.0989731774">
        <ele>1157.08</ele>
        <time>2022-07-12T10:16:47Z</time>
      </trkpt>
      <trkpt lat="42.6496373210" lon="-0.0991771929">
        <ele>1155.16</ele>
        <time>2022-07-12T10:17:00Z</time>
      </trkpt>
      <trkpt lat="42.6496364828" lon="-0.0993305817">
        <ele>1153.72</ele>
        <time>2022-07-12T10:17:10Z</time>
      </trkpt>
      <trkpt lat="42.6496395003" lon="-0.0993689708">
        <ele>1152.76</ele>
        <time>2022-07-12T10:17:13Z</time>
      </trkpt>
      <trkpt lat="42.6496850979" lon="-0.0994249620">
        <ele>1152.76</ele>
        <time>2022-07-12T10:17:17Z</time>
      </trkpt>
      <trkpt lat="42.6497378200" lon="-0.0994661171">
        <ele>1152.76</ele>
        <time>2022-07-12T10:17:21Z</time>
      </trkpt>
      <trkpt lat="42.6498246565" lon="-0.0995479245">
        <ele>1151.32</ele>
        <time>2022-07-12T10:17:27Z</time>
      </trkpt>
      <trkpt lat="42.6498697512" lon="-0.0996293966">
        <ele>1150.84</ele>
        <time>2022-07-12T10:17:32Z</time>
      </trkpt>
      <trkpt lat="42.6498717628" lon="-0.0997562986">
        <ele>1150.35</ele>
        <time>2022-07-12T10:17:39Z</time>
      </trkpt>
      <trkpt lat="42.6498465333" lon="-0.0998417940">
        <ele>1149.87</ele>
        <time>2022-07-12T10:17:45Z</time>
      </trkpt>
      <trkpt lat="42.6498458628" lon="-0.1000650041">
        <ele>1148.43</ele>
        <time>2022-07-12T10:17:58Z</time>
      </trkpt>
      <trkpt lat="42.6498845033" lon="-0.1002623979">
        <ele>1147.95</ele>
        <time>2022-07-12T10:18:11Z</time>
      </trkpt>
      <trkpt lat="42.6498967409" lon="-0.1004851889">
        <ele>1145.55</ele>
        <time>2022-07-12T10:18:25Z</time>
      </trkpt>
      <trkpt lat="42.6498888619" lon="-0.1006706804">
        <ele>1143.63</ele>
        <time>2022-07-12T10:18:37Z</time>
      </trkpt>
      <trkpt lat="42.6498959865" lon="-0.1007579360">
        <ele>1142.18</ele>
        <time>2022-07-12T10:18:43Z</time>
      </trkpt>
      <trkpt lat="42.6498425100" lon="-0.1009285077">
        <ele>1141.22</ele>
        <time>2022-07-12T10:18:57Z</time>
      </trkpt>
      <trkpt lat="42.6498059649" lon="-0.1010687370">
        <ele>1139.78</ele>
        <time>2022-07-12T10:19:07Z</time>
      </trkpt>
      <trkpt lat="42.6498494670" lon="-0.1011859998">
        <ele>1136.90</ele>
        <time>2022-07-12T10:19:20Z</time>
      </trkpt>
      <trkpt lat="42.6499638800" lon="-0.1011740137">
        <ele>1133.53</ele>
        <time>2022-07-12T10:19:34Z</time>
      </trkpt>
      <trkpt lat="42.6500426698" lon="-0.1011483651">
        <ele>1131.13</ele>
        <time>2022-07-12T10:19:46Z</time>
      </trkpt>
      <trkpt lat="42.6501159277" lon="-0.1012442540">
        <ele>1129.21</ele>
        <time>2022-07-12T10:19:57Z</time>
      </trkpt>
      <trkpt lat="42.6501055341" lon="-0.1013669651">
        <ele>1127.28</ele>
        <time>2022-07-12T10:20:05Z</time>
      </trkpt>
      <trkpt lat="42.6500533149" lon="-0.1015387103">
        <ele>1124.88</ele>
        <time>2022-07-12T10:20:19Z</time>
      </trkpt>
      <trkpt lat="42.6500473637" lon="-0.1015691366">
        <ele>1124.40</ele>
        <time>2022-07-12T10:20:21Z</time>
      </trkpt>
      <trkpt lat="42.6500240620" lon="-0.1016715635">
        <ele>1123.44</ele>
        <time>2022-07-12T10:20:28Z</time>
      </trkpt>
      <trkpt lat="42.6499535702" lon="-0.1017638482">
        <ele>1122.00</ele>
        <time>2022-07-12T10:20:37Z</time>
      </trkpt>
      <trkpt lat="42.6498782169" lon="-0.1018565521">
        <ele>1119.59</ele>
        <time>2022-07-12T10:20:51Z</time>
      </trkpt>
      <trkpt lat="42.6498692483" lon="-0.1019188296">
        <ele>1118.63</ele>
        <time>2022-07-12T10:21:03Z</time>
      </trkpt>
      <trkpt lat="42.6498518139" lon="-0.1019288879">
        <ele>1118.15</ele>
        <time>2022-07-12T10:21:09Z</time>
      </trkpt>
      <trkpt lat="42.6498290151" lon="-0.1020355057">
        <ele>1117.19</ele>
        <time>2022-07-12T10:21:16Z</time>
      </trkpt>
      <trkpt lat="42.6499553304" lon="-0.1021873858">
        <ele>1114.31</ele>
        <time>2022-07-12T10:21:31Z</time>
      </trkpt>
      <trkpt lat="42.6499280892" lon="-0.1022387668">
        <ele>1113.34</ele>
        <time>2022-07-12T10:21:35Z</time>
      </trkpt>
      <trkpt lat="42.6497890335" lon="-0.1023186464">
        <ele>1111.42</ele>
        <time>2022-07-12T10:21:47Z</time>
      </trkpt>
      <trkpt lat="42.6496628858" lon="-0.1022764016">
        <ele>1108.54</ele>
        <time>2022-07-12T10:21:59Z</time>
      </trkpt>
      <trkpt lat="42.6495934837" lon="-0.1021549478">
        <ele>1105.65</ele>
        <time>2022-07-12T10:22:11Z</time>
      </trkpt>
      <trkpt lat="42.6495623868" lon="-0.1022251043">
        <ele>1102.77</ele>
        <time>2022-07-12T10:22:23Z</time>
      </trkpt>
      <trkpt lat="42.6496731956" lon="-0.1023741346">
        <ele>1099.89</ele>
        <time>2022-07-12T10:22:38Z</time>
      </trkpt>
      <trkpt lat="42.6497481298" lon="-0.1024834346">
        <ele>1097.00</ele>
        <time>2022-07-12T10:22:52Z</time>
      </trkpt>
      <trkpt lat="42.6498199627" lon="-0.1025445387">
        <ele>1094.12</ele>
        <time>2022-07-12T10:23:06Z</time>
      </trkpt>
      <trkpt lat="42.6498760376" lon="-0.1025709417">
        <ele>1090.75</ele>
        <time>2022-07-12T10:23:16Z</time>
      </trkpt>
      <trkpt lat="42.6499051228" lon="-0.1026755478">
        <ele>1087.39</ele>
        <time>2022-07-12T10:23:25Z</time>
      </trkpt>
      <trkpt lat="42.6499837451" lon="-0.1027802378">
        <ele>1084.50</ele>
        <time>2022-07-12T10:23:36Z</time>
      </trkpt>
      <trkpt lat="42.6500196196" lon="-0.1028024498">
        <ele>1083.06</ele>
        <time>2022-07-12T10:23:41Z</time>
      </trkpt>
      <trkpt lat="42.6501163468" lon="-0.1028361451">
        <ele>1080.18</ele>
        <time>2022-07-12T10:23:53Z</time>
      </trkpt>
      <trkpt lat="42.6501999144" lon="-0.1029140130">
        <ele>1076.33</ele>
        <time>2022-07-12T10:24:05Z</time>
      </trkpt>
      <trkpt lat="42.6502774470" lon="-0.1030372269">
        <ele>1073.45</ele>
        <time>2022-07-12T10:24:16Z</time>
      </trkpt>
      <trkpt lat="42.6503164228" lon="-0.1031942200">
        <ele>1070.57</ele>
        <time>2022-07-12T10:24:29Z</time>
      </trkpt>
      <trkpt lat="42.6503183506" lon="-0.1032362133">
        <ele>1070.08</ele>
        <time>2022-07-12T10:24:32Z</time>
      </trkpt>
      <trkpt lat="42.6503090467" lon="-0.1032846607">
        <ele>1069.12</ele>
        <time>2022-07-12T10:24:36Z</time>
      </trkpt>
      <trkpt lat="42.6502685621" lon="-0.1033873390">
        <ele>1065.76</ele>
        <time>2022-07-12T10:24:47Z</time>
      </trkpt>
      <trkpt lat="42.6502511278" lon="-0.1034183521">
        <ele>1065.28</ele>
        <time>2022-07-12T10:24:50Z</time>
      </trkpt>
      <trkpt lat="42.6501957234" lon="-0.1035286579">
        <ele>1063.36</ele>
        <time>2022-07-12T10:25:00Z</time>
      </trkpt>
      <trkpt lat="42.6502575818" lon="-0.1035776082">
        <ele>1059.99</ele>
        <time>2022-07-12T10:25:15Z</time>
      </trkpt>
      <trkpt lat="42.6503000781" lon="-0.1035786141">
        <ele>1057.59</ele>
        <time>2022-07-12T10:25:26Z</time>
      </trkpt>
      <trkpt lat="42.6504388824" lon="-0.1035866607">
        <ele>1056.63</ele>
        <time>2022-07-12T10:25:39Z</time>
      </trkpt>
      <trkpt lat="42.6506524533" lon="-0.1036385447">
        <ele>1056.63</ele>
        <time>2022-07-12T10:25:54Z</time>
      </trkpt>
      <trkpt lat="42.6507020742" lon="-0.1036514528">
        <ele>1053.74</ele>
        <time>2022-07-12T10:26:02Z</time>
      </trkpt>
      <trkpt lat="42.6507761702" lon="-0.1037096232">
        <ele>1050.38</ele>
        <time>2022-07-12T10:26:14Z</time>
      </trkpt>
      <trkpt lat="42.6508922596" lon="-0.1037559751">
        <ele>1046.53</ele>
        <time>2022-07-12T10:26:28Z</time>
      </trkpt>
      <trkpt lat="42.6509673614" lon="-0.1037902571">
        <ele>1044.13</ele>
        <time>2022-07-12T10:26:43Z</time>
      </trkpt>
      <trkpt lat="42.6509841252" lon="-0.1037817914">
        <ele>1044.13</ele>
        <time>2022-07-12T10:26:46Z</time>
      </trkpt>
      <trkpt lat="42.6510317344" lon="-0.1036439929">
        <ele>1043.65</ele>
        <time>2022-07-12T10:27:01Z</time>
      </trkpt>
      <trkpt lat="42.6510591432" lon="-0.1035269815">
        <ele>1043.65</ele>
        <time>2022-07-12T10:27:12Z</time>
      </trkpt>
      <trkpt lat="42.6511959359" lon="-0.1034750976">
        <ele>1043.17</ele>
        <time>2022-07-12T10:27:26Z</time>
      </trkpt>
      <trkpt lat="42.6512075029" lon="-0.1034836471">
        <ele>1043.17</ele>
        <time>2022-07-12T10:27:27Z</time>
      </trkpt>
      <trkpt lat="42.6512734685" lon="-0.1035525464">
        <ele>1044.61</ele>
        <time>2022-07-12T10:27:36Z</time>
      </trkpt>
      <trkpt lat="42.6513265260" lon="-0.1036256365">
        <ele>1046.53</ele>
        <time>2022-07-12T10:27:49Z</time>
      </trkpt>
      <trkpt lat="42.6513703633" lon="-0.1036146563">
        <ele>1049.42</ele>
        <time>2022-07-12T10:28:02Z</time>
      </trkpt>
      <trkpt lat="42.6514168829" lon="-0.1034460124">
        <ele>1050.86</ele>
        <time>2022-07-12T10:28:17Z</time>
      </trkpt>
      <trkpt lat="42.6514669228" lon="-0.1032997482">
        <ele>1052.30</ele>
        <time>2022-07-12T10:28:30Z</time>
      </trkpt>
      <trkpt lat="42.6515678409" lon="-0.1031878497">
        <ele>1053.74</ele>
        <time>2022-07-12T10:28:45Z</time>
      </trkpt>
      <trkpt lat="42.6517026220" lon="-0.1030226424">
        <ele>1056.15</ele>
        <time>2022-07-12T10:29:03Z</time>
      </trkpt>
      <trkpt lat="42.6518327929" lon="-0.1029003505">
        <ele>1057.59</ele>
        <time>2022-07-12T10:29:19Z</time>
      </trkpt>
      <trkpt lat="42.6518519875" lon="-0.1028912142">
        <ele>1057.59</ele>
        <time>2022-07-12T10:29:21Z</time>
      </trkpt>
      <trkpt lat="42.6519542467" lon="-0.1028548367">
        <ele>1054.22</ele>
        <time>2022-07-12T10:29:32Z</time>
      </trkpt>
      <trkpt lat="42.6520475373" lon="-0.1029411703">
        <ele>1052.78</ele>
        <time>2022-07-12T10:29:42Z</time>
      </trkpt>
      <trkpt lat="42.6521567535" lon="-0.1028830837">
        <ele>1052.30</ele>
        <time>2022-07-12T10:29:55Z</time>
      </trkpt>
      <trkpt lat="42.6522009261" lon="-0.1028324571">
        <ele>1053.26</ele>
        <time>2022-07-12T10:30:02Z</time>
      </trkpt>
      <trkpt lat="42.6522840746" lon="-0.1027488057">
        <ele>1055.18</ele>
        <time>2022-07-12T10:30:16Z</time>
      </trkpt>
      <trkpt lat="42.6523649599" lon="-0.1026801579">
        <ele>1057.59</ele>
        <time>2022-07-12T10:30:32Z</time>
      </trkpt>
      <trkpt lat="42.6523968112" lon="-0.1026597060">
        <ele>1058.07</ele>
        <time>2022-07-12T10:30:35Z</time>
      </trkpt>
      <trkpt lat="42.6525056921" lon="-0.1025570277">
        <ele>1060.47</ele>
        <time>2022-07-12T10:30:49Z</time>
      </trkpt>
      <trkpt lat="42.6526456699" lon="-0.1024720352">
        <ele>1061.91</ele>
        <time>2022-07-12T10:31:03Z</time>
      </trkpt>
      <trkpt lat="42.6526839752" lon="-0.1024530921">
        <ele>1062.39</ele>
        <time>2022-07-12T10:31:07Z</time>
      </trkpt>
      <trkpt lat="42.6527201012" lon="-0.1024618931">
        <ele>1062.87</ele>
        <time>2022-07-12T10:31:11Z</time>
      </trkpt>
      <trkpt lat="42.6528629288" lon="-0.1024572831">
        <ele>1064.80</ele>
        <time>2022-07-12T10:31:24Z</time>
      </trkpt>
      <trkpt lat="42.6529252063" lon="-0.1025012042">
        <ele>1064.80</ele>
        <time>2022-07-12T10:31:29Z</time>
      </trkpt>
      <trkpt lat="42.6529948600" lon="-0.1025031321">
        <ele>1065.76</ele>
        <time>2022-07-12T10:31:36Z</time>
      </trkpt>
      <trkpt lat="42.6531245280" lon="-0.1025159564">
        <ele>1068.16</ele>
        <time>2022-07-12T10:31:49Z</time>
      </trkpt>
      <trkpt lat="42.6531573851" lon="-0.1025058981">
        <ele>1069.12</ele>
        <time>2022-07-12T10:31:53Z</time>
      </trkpt>
      <trkpt lat="42.6531426329" lon="-0.1025016233">
        <ele>1069.60</ele>
        <time>2022-07-12T10:31:56Z</time>
      </trkpt>
      <trkpt lat="42.6531857159" lon="-0.1024633180">
        <ele>1071.53</ele>
        <time>2022-07-12T10:32:07Z</time>
      </trkpt>
      <trkpt lat="42.6533596404" lon="-0.1025358215">
        <ele>1072.97</ele>
        <time>2022-07-12T10:32:22Z</time>
      </trkpt>
      <trkpt lat="42.6534273662" lon="-0.1026608795">
        <ele>1075.37</ele>
        <time>2022-07-12T10:32:35Z</time>
      </trkpt>
      <trkpt lat="42.6535025518" lon="-0.1026376616">
        <ele>1077.29</ele>
        <time>2022-07-12T10:32:48Z</time>
      </trkpt>
      <trkpt lat="42.6535779890" lon="-0.1026715245">
        <ele>1078.74</ele>
        <time>2022-07-12T10:33:01Z</time>
      </trkpt>
      <trkpt lat="42.6535525918" lon="-0.1027105004">
        <ele>1078.74</ele>
        <time>2022-07-12T10:33:23Z</time>
      </trkpt>
      <trkpt lat="42.6535488199" lon="-0.1027059741">
        <ele>1078.26</ele>
        <time>2022-07-12T10:33:24Z</time>
      </trkpt>
      <trkpt lat="42.6535124425" lon="-0.1026553474">
        <ele>1078.26</ele>
        <time>2022-07-12T10:33:29Z</time>
      </trkpt>
      <trkpt lat="42.6534739695" lon="-0.1026911382">
        <ele>1078.26</ele>
        <time>2022-07-12T10:33:33Z</time>
      </trkpt>
      <trkpt lat="42.6533200778" lon="-0.1029308606">
        <ele>1078.26</ele>
        <time>2022-07-12T10:33:51Z</time>
      </trkpt>
      <trkpt lat="42.6532593090" lon="-0.1029933896">
        <ele>1078.74</ele>
        <time>2022-07-12T10:33:57Z</time>
      </trkpt>
      <trkpt lat="42.6531350892" lon="-0.1031487901">
        <ele>1078.26</ele>
        <time>2022-07-12T10:34:14Z</time>
      </trkpt>
      <trkpt lat="42.6531002205" lon="-0.1031905320">
        <ele>1078.26</ele>
        <time>2022-07-12T10:34:23Z</time>
      </trkpt>
      <trkpt lat="42.6530571375" lon="-0.1032298431">
        <ele>1078.26</ele>
        <time>2022-07-12T10:34:27Z</time>
      </trkpt>
      <trkpt lat="42.6529147290" lon="-0.1034345292">
        <ele>1078.26</ele>
        <time>2022-07-12T10:34:42Z</time>
      </trkpt>
      <trkpt lat="42.6528680418" lon="-0.1035166718">
        <ele>1076.81</ele>
        <time>2022-07-12T10:34:48Z</time>
      </trkpt>
      <trkpt lat="42.6528442372" lon="-0.1035393029">
        <ele>1076.81</ele>
        <time>2022-07-12T10:34:50Z</time>
      </trkpt>
      <trkpt lat="42.6528259646" lon="-0.1035658736">
        <ele>1076.81</ele>
        <time>2022-07-12T10:34:52Z</time>
      </trkpt>
      <trkpt lat="42.6526712347" lon="-0.1038274728">
        <ele>1076.33</ele>
        <time>2022-07-12T10:35:10Z</time>
      </trkpt>
      <trkpt lat="42.6525601745" lon="-0.1041272096">
        <ele>1075.37</ele>
        <time>2022-07-12T10:35:26Z</time>
      </trkpt>
      <trkpt lat="42.6524175983" lon="-0.1043406967">
        <ele>1075.37</ele>
        <time>2022-07-12T10:35:43Z</time>
      </trkpt>
      <trkpt lat="42.6523043588" lon="-0.1046322193">
        <ele>1074.89</ele>
        <time>2022-07-12T10:36:00Z</time>
      </trkpt>
      <trkpt lat="42.6521221362" lon="-0.1048735343">
        <ele>1074.89</ele>
        <time>2022-07-12T10:36:17Z</time>
      </trkpt>
      <trkpt lat="42.6520647202" lon="-0.1049244124">
        <ele>1074.89</ele>
        <time>2022-07-12T10:36:22Z</time>
      </trkpt>
      <trkpt lat="42.6519965753" lon="-0.1049651485">
        <ele>1074.89</ele>
        <time>2022-07-12T10:36:32Z</time>
      </trkpt>
      <trkpt lat="42.6518031210" lon="-0.1049881149">
        <ele>1074.89</ele>
        <time>2022-07-12T10:36:49Z</time>
      </trkpt>
      <trkpt lat="42.6516297832" lon="-0.1049929764">
        <ele>1074.89</ele>
        <time>2022-07-12T10:37:01Z</time>
      </trkpt>
      <trkpt lat="42.6515202317" lon="-0.1050580200">
        <ele>1074.89</ele>
        <time>2022-07-12T10:37:08Z</time>
      </trkpt>
      <trkpt lat="42.6514605526" lon="-0.1050723530">
        <ele>1074.89</ele>
        <time>2022-07-12T10:37:12Z</time>
      </trkpt>
      <trkpt lat="42.6512050722" lon="-0.1051711757">
        <ele>1074.89</ele>
        <time>2022-07-12T10:37:29Z</time>
      </trkpt>
      <trkpt lat="42.6511125360" lon="-0.1053262409">
        <ele>1074.41</ele>
        <time>2022-07-12T10:37:45Z</time>
      </trkpt>
      <trkpt lat="42.6511838660" lon="-0.1052923780">
        <ele>1078.26</ele>
        <time>2022-07-12T10:37:57Z</time>
      </trkpt>
      <trkpt lat="42.6511915773" lon="-0.1052820683">
        <ele>1078.26</ele>
        <time>2022-07-12T10:37:59Z</time>
      </trkpt>
      <trkpt lat="42.6513209939" lon="-0.1052881870">
        <ele>1081.14</ele>
        <time>2022-07-12T10:38:16Z</time>
      </trkpt>
      <trkpt lat="42.6513471454" lon="-0.1053679828">
        <ele>1082.10</ele>
        <time>2022-07-12T10:38:32Z</time>
      </trkpt>
      <trkpt lat="42.6513532642" lon="-0.1053616125">
        <ele>1081.62</ele>
        <time>2022-07-12T10:38:55Z</time>
      </trkpt>
      <trkpt lat="42.6513699442" lon="-0.1053513866">
        <ele>1081.62</ele>
        <time>2022-07-12T10:39:16Z</time>
      </trkpt>
      <trkpt lat="42.6513885520" lon="-0.1053637080">
        <ele>1081.62</ele>
        <time>2022-07-12T10:39:44Z</time>
      </trkpt>
      <trkpt lat="42.6513896417" lon="-0.1053725928">
        <ele>1081.62</ele>
        <time>2022-07-12T10:40:04Z</time>
      </trkpt>
      <trkpt lat="42.6513834391" lon="-0.1053535659">
        <ele>1081.62</ele>
        <time>2022-07-12T10:40:18Z</time>
      </trkpt>
      <trkpt lat="42.6513831038" lon="-0.1053586788">
        <ele>1081.62</ele>
        <time>2022-07-12T10:40:42Z</time>
      </trkpt>
      <trkpt lat="42.6513924915" lon="-0.1053701621">
        <ele>1081.62</ele>
        <time>2022-07-12T10:41:06Z</time>
      </trkpt>
      <trkpt lat="42.6513959281" lon="-0.1053269953">
        <ele>1081.62</ele>
        <time>2022-07-12T10:41:31Z</time>
      </trkpt>
      <trkpt lat="42.6514015440" lon="-0.1053352933">
        <ele>1081.62</ele>
        <time>2022-07-12T10:41:49Z</time>
      </trkpt>
      <trkpt lat="42.6513973530" lon="-0.1053390652">
        <ele>1081.62</ele>
        <time>2022-07-12T10:42:10Z</time>
      </trkpt>
      <trkpt lat="42.6513760630" lon="-0.1053357963">
        <ele>1075.37</ele>
        <time>2022-07-12T10:42:13Z</time>
      </trkpt>
      <trkpt lat="42.6513764821" lon="-0.1053366344">
        <ele>1084.02</ele>
        <time>2022-07-12T10:42:14Z</time>
      </trkpt>
      <trkpt lat="42.6513879653" lon="-0.1053530630">
        <ele>1081.62</ele>
        <time>2022-07-12T10:42:28Z</time>
      </trkpt>
      <trkpt lat="42.6514008734" lon="-0.1053624507">
        <ele>1081.62</ele>
        <time>2022-07-12T10:42:47Z</time>
      </trkpt>
      <trkpt lat="42.6514320541" lon="-0.1053255703">
        <ele>1083.06</ele>
        <time>2022-07-12T10:42:57Z</time>
      </trkpt>
      <trkpt lat="42.6514876261" lon="-0.1053542364">
        <ele>1085.95</ele>
        <time>2022-07-12T10:43:11Z</time>
      </trkpt>
      <trkpt lat="42.6515418570" lon="-0.1054472756">
        <ele>1089.31</ele>
        <time>2022-07-12T10:43:25Z</time>
      </trkpt>
      <trkpt lat="42.6515689306" lon="-0.1055062842">
        <ele>1091.23</ele>
        <time>2022-07-12T10:43:36Z</time>
      </trkpt>
      <trkpt lat="42.6516075712" lon="-0.1055730041">
        <ele>1094.12</ele>
        <time>2022-07-12T10:43:47Z</time>
      </trkpt>
      <trkpt lat="42.6516468823" lon="-0.1056383830">
        <ele>1096.52</ele>
        <time>2022-07-12T10:43:59Z</time>
      </trkpt>
      <trkpt lat="42.6517292764" lon="-0.1056960505">
        <ele>1099.40</ele>
        <time>2022-07-12T10:44:12Z</time>
      </trkpt>
      <trkpt lat="42.6518117543" lon="-0.1057699788">
        <ele>1103.25</ele>
        <time>2022-07-12T10:44:27Z</time>
      </trkpt>
      <trkpt lat="42.6518571004" lon="-0.1058032550">
        <ele>1105.65</ele>
        <time>2022-07-12T10:44:41Z</time>
      </trkpt>
      <trkpt lat="42.6519087330" lon="-0.1057716552">
        <ele>1108.54</ele>
        <time>2022-07-12T10:44:54Z</time>
      </trkpt>
      <trkpt lat="42.6519280113" lon="-0.1057439949">
        <ele>1109.50</ele>
        <time>2022-07-12T10:44:59Z</time>
      </trkpt>
      <trkpt lat="42.6520048734" lon="-0.1056056935">
        <ele>1110.94</ele>
        <time>2022-07-12T10:45:14Z</time>
      </trkpt>
      <trkpt lat="42.6520082261" lon="-0.1055944618">
        <ele>1110.94</ele>
        <time>2022-07-12T10:45:15Z</time>
      </trkpt>
      <trkpt lat="42.6521305181" lon="-0.1054159272">
        <ele>1113.82</ele>
        <time>2022-07-12T10:45:31Z</time>
      </trkpt>
      <trkpt lat="42.6521523949" lon="-0.1054028515">
        <ele>1114.31</ele>
        <time>2022-07-12T10:45:34Z</time>
      </trkpt>
      <trkpt lat="42.6522674784" lon="-0.1054307632">
        <ele>1116.71</ele>
        <time>2022-07-12T10:45:48Z</time>
      </trkpt>
      <trkpt lat="42.6523772813" lon="-0.1054491196">
        <ele>1119.59</ele>
        <time>2022-07-12T10:46:02Z</time>
      </trkpt>
      <trkpt lat="42.6524513774" lon="-0.1053977385">
        <ele>1122.00</ele>
        <time>2022-07-12T10:46:15Z</time>
      </trkpt>
      <trkpt lat="42.6525613479" lon="-0.1053968165">
        <ele>1124.40</ele>
        <time>2022-07-12T10:46:29Z</time>
      </trkpt>
      <trkpt lat="42.6526303310" lon="-0.1054595131">
        <ele>1127.28</ele>
        <time>2022-07-12T10:46:42Z</time>
      </trkpt>
      <trkpt lat="42.6527097914" lon="-0.1054565795">
        <ele>1130.65</ele>
        <time>2022-07-12T10:46:55Z</time>
      </trkpt>
      <trkpt lat="42.6528232824" lon="-0.1054325234">
        <ele>1133.05</ele>
        <time>2022-07-12T10:47:11Z</time>
      </trkpt>
      <trkpt lat="42.6529251225" lon="-0.1053953078">
        <ele>1135.45</ele>
        <time>2022-07-12T10:47:24Z</time>
      </trkpt>
      <trkpt lat="42.6530427206" lon="-0.1053526439">
        <ele>1137.86</ele>
        <time>2022-07-12T10:47:39Z</time>
      </trkpt>
      <trkpt lat="42.6530870609" lon="-0.1053103991">
        <ele>1138.82</ele>
        <time>2022-07-12T10:47:48Z</time>
      </trkpt>
      <trkpt lat="42.6531103626" lon="-0.1052727643">
        <ele>1139.78</ele>
        <time>2022-07-12T10:47:52Z</time>
      </trkpt>
      <trkpt lat="42.6531912480" lon="-0.1050650608">
        <ele>1141.70</ele>
        <time>2022-07-12T10:48:09Z</time>
      </trkpt>
      <trkpt lat="42.6532264519" lon="-0.1050135959">
        <ele>1141.70</ele>
        <time>2022-07-12T10:48:13Z</time>
      </trkpt>
      <trkpt lat="42.6534594689" lon="-0.1049370691">
        <ele>1142.18</ele>
        <time>2022-07-12T10:48:30Z</time>
      </trkpt>
      <trkpt lat="42.6536251791" lon="-0.1050403342">
        <ele>1143.14</ele>
        <time>2022-07-12T10:48:44Z</time>
      </trkpt>
      <trkpt lat="42.6536867023" lon="-0.1051187888">
        <ele>1145.55</ele>
        <time>2022-07-12T10:48:55Z</time>
      </trkpt>
      <trkpt lat="42.6537600439" lon="-0.1052977424">
        <ele>1147.95</ele>
        <time>2022-07-12T10:49:09Z</time>
      </trkpt>
      <trkpt lat="42.6538300328" lon="-0.1054487843">
        <ele>1150.35</ele>
        <time>2022-07-12T10:49:24Z</time>
      </trkpt>
      <trkpt lat="42.6539090741" lon="-0.1055566594">
        <ele>1153.24</ele>
        <time>2022-07-12T10:49:37Z</time>
      </trkpt>
      <trkpt lat="42.6539955754" lon="-0.1056704018">
        <ele>1156.12</ele>
        <time>2022-07-12T10:49:51Z</time>
      </trkpt>
      <trkpt lat="42.6540676598" lon="-0.1058065239">
        <ele>1159.49</ele>
        <time>2022-07-12T10:50:07Z</time>
      </trkpt>
      <trkpt lat="42.6541544963" lon="-0.1060027443">
        <ele>1162.37</ele>
        <time>2022-07-12T10:50:21Z</time>
      </trkpt>
      <trkpt lat="42.6541798096" lon="-0.1061448175">
        <ele>1164.77</ele>
        <time>2022-07-12T10:50:35Z</time>
      </trkpt>
      <trkpt lat="42.6540763769" lon="-0.1062638406">
        <ele>1167.66</ele>
        <time>2022-07-12T10:50:48Z</time>
      </trkpt>
      <trkpt lat="42.6539070625" lon="-0.1063174848">
        <ele>1168.14</ele>
        <time>2022-07-12T10:51:02Z</time>
      </trkpt>
      <trkpt lat="42.6538788155" lon="-0.1063319016">
        <ele>1169.10</ele>
        <time>2022-07-12T10:51:20Z</time>
      </trkpt>
      <trkpt lat="42.6538168732" lon="-0.1063524373">
        <ele>1167.18</ele>
        <time>2022-07-12T10:51:34Z</time>
      </trkpt>
      <trkpt lat="42.6537317969" lon="-0.1064899843">
        <ele>1168.62</ele>
        <time>2022-07-12T10:51:50Z</time>
      </trkpt>
      <trkpt lat="42.6537235826" lon="-0.1065921597">
        <ele>1171.98</ele>
        <time>2022-07-12T10:52:06Z</time>
      </trkpt>
      <trkpt lat="42.6536913961" lon="-0.1067082491">
        <ele>1174.87</ele>
        <time>2022-07-12T10:52:21Z</time>
      </trkpt>
      <trkpt lat="42.6537259296" lon="-0.1067713648">
        <ele>1178.23</ele>
        <time>2022-07-12T10:52:38Z</time>
      </trkpt>
      <trkpt lat="42.6537897158" lon="-0.1068624761">
        <ele>1181.12</ele>
        <time>2022-07-12T10:52:54Z</time>
      </trkpt>
      <trkpt lat="42.6538240816" lon="-0.1068900526">
        <ele>1183.04</ele>
        <time>2022-07-12T10:53:06Z</time>
      </trkpt>
      <trkpt lat="42.6538831741" lon="-0.1069094986">
        <ele>1184.48</ele>
        <time>2022-07-12T10:53:18Z</time>
      </trkpt>
      <trkpt lat="42.6540006883" lon="-0.1068464667">
        <ele>1187.37</ele>
        <time>2022-07-12T10:53:33Z</time>
      </trkpt>
      <trkpt lat="42.6541383192" lon="-0.1068662480">
        <ele>1190.25</ele>
        <time>2022-07-12T10:53:48Z</time>
      </trkpt>
      <trkpt lat="42.6542522293" lon="-0.1068995241">
        <ele>1192.65</ele>
        <time>2022-07-12T10:54:02Z</time>
      </trkpt>
      <trkpt lat="42.6543560810" lon="-0.1068914775">
        <ele>1195.54</ele>
        <time>2022-07-12T10:54:16Z</time>
      </trkpt>
      <trkpt lat="42.6544949692" lon="-0.1068537589">
        <ele>1197.94</ele>
        <time>2022-07-12T10:54:31Z</time>
      </trkpt>
      <trkpt lat="42.6546173450" lon="-0.1068086643">
        <ele>1201.30</ele>
        <time>2022-07-12T10:54:46Z</time>
      </trkpt>
      <trkpt lat="42.6547269803" lon="-0.1067996956">
        <ele>1203.71</ele>
        <time>2022-07-12T10:55:00Z</time>
      </trkpt>
      <trkpt lat="42.6548239589" lon="-0.1067394298">
        <ele>1206.59</ele>
        <time>2022-07-12T10:55:13Z</time>
      </trkpt>
      <trkpt lat="42.6549607515" lon="-0.1067568641">
        <ele>1208.51</ele>
        <time>2022-07-12T10:55:27Z</time>
      </trkpt>
      <trkpt lat="42.6550827082" lon="-0.1067219954">
        <ele>1211.40</ele>
        <time>2022-07-12T10:55:40Z</time>
      </trkpt>
      <trkpt lat="42.6551277190" lon="-0.1066807564">
        <ele>1213.32</ele>
        <time>2022-07-12T10:55:50Z</time>
      </trkpt>
      <trkpt lat="42.6551695447" lon="-0.1065174770">
        <ele>1214.76</ele>
        <time>2022-07-12T10:56:04Z</time>
      </trkpt>
      <trkpt lat="42.6551792677" lon="-0.1064419560">
        <ele>1216.21</ele>
        <time>2022-07-12T10:56:10Z</time>
      </trkpt>
      <trkpt lat="42.6552780066" lon="-0.1065063290">
        <ele>1219.09</ele>
        <time>2022-07-12T10:56:24Z</time>
      </trkpt>
      <trkpt lat="42.6553903241" lon="-0.1065572072">
        <ele>1222.45</ele>
        <time>2022-07-12T10:56:39Z</time>
      </trkpt>
      <trkpt lat="42.6554968581" lon="-0.1065539382">
        <ele>1223.42</ele>
        <time>2022-07-12T10:56:49Z</time>
      </trkpt>
      <trkpt lat="42.6556748059" lon="-0.1065320615">
        <ele>1224.38</ele>
        <time>2022-07-12T10:57:03Z</time>
      </trkpt>
      <trkpt lat="42.6558310445" lon="-0.1065278705">
        <ele>1226.30</ele>
        <time>2022-07-12T10:57:18Z</time>
      </trkpt>
      <trkpt lat="42.6559764706" lon="-0.1064451411">
        <ele>1228.22</ele>
        <time>2022-07-12T10:57:33Z</time>
      </trkpt>
      <trkpt lat="42.6561344694" lon="-0.1063458156">
        <ele>1228.70</ele>
        <time>2022-07-12T10:57:46Z</time>
      </trkpt>
      <trkpt lat="42.6563804783" lon="-0.1063447259">
        <ele>1228.22</ele>
        <time>2022-07-12T10:58:03Z</time>
      </trkpt>
      <trkpt lat="42.6564287581" lon="-0.1063527726">
        <ele>1228.70</ele>
        <time>2022-07-12T10:58:07Z</time>
      </trkpt>
      <trkpt lat="42.6565342024" lon="-0.1063360088">
        <ele>1229.66</ele>
        <time>2022-07-12T10:58:16Z</time>
      </trkpt>
      <trkpt lat="42.6566502079" lon="-0.1063876413">
        <ele>1229.66</ele>
        <time>2022-07-12T10:58:25Z</time>
      </trkpt>
      <trkpt lat="42.6567373797" lon="-0.1063934248">
        <ele>1230.14</ele>
        <time>2022-07-12T10:58:32Z</time>
      </trkpt>
      <trkpt lat="42.6569324266" lon="-0.1063725539">
        <ele>1232.07</ele>
        <time>2022-07-12T10:58:49Z</time>
      </trkpt>
      <trkpt lat="42.6571365260" lon="-0.1064774115">
        <ele>1233.03</ele>
        <time>2022-07-12T10:59:05Z</time>
      </trkpt>
      <trkpt lat="42.6572191715" lon="-0.1065572072">
        <ele>1233.03</ele>
        <time>2022-07-12T10:59:12Z</time>
      </trkpt>
      <trkpt lat="42.6573412959" lon="-0.1066867076">
        <ele>1233.03</ele>
        <time>2022-07-12T10:59:24Z</time>
      </trkpt>
      <trkpt lat="42.6573742367" lon="-0.1067178883">
        <ele>1233.03</ele>
        <time>2022-07-12T10:59:27Z</time>
      </trkpt>
      <trkpt lat="42.6574318204" lon="-0.1067747176">
        <ele>1233.51</ele>
        <time>2022-07-12T10:59:33Z</time>
      </trkpt>
      <trkpt lat="42.6574854646" lon="-0.1068625599">
        <ele>1233.51</ele>
        <time>2022-07-12T10:59:39Z</time>
      </trkpt>
      <trkpt lat="42.6575043239" lon="-0.1069271006">
        <ele>1233.51</ele>
        <time>2022-07-12T10:59:43Z</time>
      </trkpt>
      <trkpt lat="42.6576227602" lon="-0.1071569324">
        <ele>1233.51</ele>
        <time>2022-07-12T10:59:58Z</time>
      </trkpt>
      <trkpt lat="42.6577059086" lon="-0.1073218044">
        <ele>1233.99</ele>
        <time>2022-07-12T11:00:09Z</time>
      </trkpt>
      <trkpt lat="42.6577701978" lon="-0.1074512210">
        <ele>1231.59</ele>
        <time>2022-07-12T11:00:18Z</time>
      </trkpt>
      <trkpt lat="42.6578996982" lon="-0.1076227147">
        <ele>1231.59</ele>
        <time>2022-07-12T11:00:32Z</time>
      </trkpt>
      <trkpt lat="42.6580236666" lon="-0.1078760996">
        <ele>1231.11</ele>
        <time>2022-07-12T11:00:48Z</time>
      </trkpt>
      <trkpt lat="42.6580861118" lon="-0.1079464238">
        <ele>1231.11</ele>
        <time>2022-07-12T11:00:55Z</time>
      </trkpt>
      <trkpt lat="42.6580713596" lon="-0.1080326736">
        <ele>1232.55</ele>
        <time>2022-07-12T11:01:00Z</time>
      </trkpt>
      <trkpt lat="42.6580485608" lon="-0.1082553808">
        <ele>1233.03</ele>
        <time>2022-07-12T11:01:14Z</time>
      </trkpt>
      <trkpt lat="42.6581258420" lon="-0.1084937621">
        <ele>1233.03</ele>
        <time>2022-07-12T11:01:29Z</time>
      </trkpt>
      <trkpt lat="42.6581285242" lon="-0.1085495017">
        <ele>1233.51</ele>
        <time>2022-07-12T11:01:32Z</time>
      </trkpt>
      <trkpt lat="42.6582565159" lon="-0.1087314729">
        <ele>1234.47</ele>
        <time>2022-07-12T11:01:48Z</time>
      </trkpt>
      <trkpt lat="42.6583305281" lon="-0.1087794174">
        <ele>1235.43</ele>
        <time>2022-07-12T11:01:56Z</time>
      </trkpt>
      <trkpt lat="42.6583733596" lon="-0.1088693552">
        <ele>1236.39</ele>
        <time>2022-07-12T11:02:01Z</time>
      </trkpt>
      <trkpt lat="42.6584233157" lon="-0.1090054773">
        <ele>1237.83</ele>
        <time>2022-07-12T11:02:11Z</time>
      </trkpt>
      <trkpt lat="42.6584652252" lon="-0.1091131009">
        <ele>1239.28</ele>
        <time>2022-07-12T11:02:20Z</time>
      </trkpt>
      <trkpt lat="42.6584850065" lon="-0.1091195550">
        <ele>1240.24</ele>
        <time>2022-07-12T11:02:22Z</time>
      </trkpt>
      <trkpt lat="42.6585142594" lon="-0.1091561839">
        <ele>1241.20</ele>
        <time>2022-07-12T11:02:26Z</time>
      </trkpt>
      <trkpt lat="42.6585322805" lon="-0.1091977581">
        <ele>1241.20</ele>
        <time>2022-07-12T11:02:29Z</time>
      </trkpt>
      <trkpt lat="42.6586088911" lon="-0.1093518175">
        <ele>1243.12</ele>
        <time>2022-07-12T11:02:44Z</time>
      </trkpt>
      <trkpt lat="42.6587159280" lon="-0.1094977465">
        <ele>1243.12</ele>
        <time>2022-07-12T11:02:57Z</time>
      </trkpt>
      <trkpt lat="42.6587753557" lon="-0.1095945574">
        <ele>1241.68</ele>
        <time>2022-07-12T11:03:04Z</time>
      </trkpt>
      <trkpt lat="42.6588155888" lon="-0.1096273307">
        <ele>1241.68</ele>
        <time>2022-07-12T11:03:07Z</time>
      </trkpt>
      <trkpt lat="42.6588409021" lon="-0.1096864231">
        <ele>1241.20</ele>
        <time>2022-07-12T11:03:12Z</time>
      </trkpt>
      <trkpt lat="42.6589795388" lon="-0.1098335255">
        <ele>1239.76</ele>
        <time>2022-07-12T11:03:26Z</time>
      </trkpt>
      <trkpt lat="42.6590019185" lon="-0.1098539773">
        <ele>1239.28</ele>
        <time>2022-07-12T11:03:28Z</time>
      </trkpt>
      <trkpt lat="42.6591329277" lon="-0.1100009959">
        <ele>1237.83</ele>
        <time>2022-07-12T11:03:42Z</time>
      </trkpt>
      <trkpt lat="42.6592073590" lon="-0.1101073623">
        <ele>1236.87</ele>
        <time>2022-07-12T11:03:51Z</time>
      </trkpt>
      <trkpt lat="42.6592434850" lon="-0.1101309154">
        <ele>1236.87</ele>
        <time>2022-07-12T11:03:54Z</time>
      </trkpt>
      <trkpt lat="42.6594107877" lon="-0.1103155687">
        <ele>1236.87</ele>
        <time>2022-07-12T11:04:12Z</time>
      </trkpt>
      <trkpt lat="42.6594234444" lon="-0.1103457436">
        <ele>1238.32</ele>
        <time>2022-07-12T11:04:15Z</time>
      </trkpt>
      <trkpt lat="42.6595165674" lon="-0.1104640123">
        <ele>1239.76</ele>
        <time>2022-07-12T11:04:29Z</time>
      </trkpt>
      <trkpt lat="42.6595829520" lon="-0.1104059257">
        <ele>1240.24</ele>
        <time>2022-07-12T11:04:41Z</time>
      </trkpt>
      <trkpt lat="42.6596575510" lon="-0.1103539579">
        <ele>1239.28</ele>
        <time>2022-07-12T11:04:48Z</time>
      </trkpt>
      <trkpt lat="42.6597093511" lon="-0.1103223581">
        <ele>1238.32</ele>
        <time>2022-07-12T11:04:53Z</time>
      </trkpt>
      <trkpt lat="42.6598653384" lon="-0.1103154849">
        <ele>1238.32</ele>
        <time>2022-07-12T11:05:06Z</time>
      </trkpt>
      <trkpt lat="42.6600289531" lon="-0.1103596576">
        <ele>1238.32</ele>
        <time>2022-07-12T11:05:19Z</time>
      </trkpt>
      <trkpt lat="42.6601419412" lon="-0.1103673689">
        <ele>1238.32</ele>
        <time>2022-07-12T11:05:27Z</time>
      </trkpt>
      <trkpt lat="42.6602945756" lon="-0.1104387827">
        <ele>1237.83</ele>
        <time>2022-07-12T11:05:41Z</time>
      </trkpt>
      <trkpt lat="42.6604308654" lon="-0.1104811113">
        <ele>1237.83</ele>
        <time>2022-07-12T11:05:52Z</time>
      </trkpt>
      <trkpt lat="42.6605778839" lon="-0.1105269603">
        <ele>1238.32</ele>
        <time>2022-07-12T11:06:03Z</time>
      </trkpt>
      <trkpt lat="42.6606859267" lon="-0.1104790159">
        <ele>1238.32</ele>
        <time>2022-07-12T11:06:12Z</time>
      </trkpt>
      <trkpt lat="42.6607951429" lon="-0.1104601566">
        <ele>1239.28</ele>
        <time>2022-07-12T11:06:22Z</time>
      </trkpt>
      <trkpt lat="42.6608527265" lon="-0.1104345080">
        <ele>1240.24</ele>
        <time>2022-07-12T11:06:29Z</time>
      </trkpt>
      <trkpt lat="42.6609829813" lon="-0.1104765013">
        <ele>1242.64</ele>
        <time>2022-07-12T11:06:44Z</time>
      </trkpt>
      <trkpt lat="42.6609937102" lon="-0.1104875654">
        <ele>1243.12</ele>
        <time>2022-07-12T11:06:45Z</time>
      </trkpt>
      <trkpt lat="42.6610680576" lon="-0.1106101926">
        <ele>1243.12</ele>
        <time>2022-07-12T11:06:56Z</time>
      </trkpt>
      <trkpt lat="42.6611146610" lon="-0.1107339095">
        <ele>1241.68</ele>
        <time>2022-07-12T11:07:04Z</time>
      </trkpt>
      <trkpt lat="42.6611325983" lon="-0.1107779983">
        <ele>1241.20</ele>
        <time>2022-07-12T11:07:08Z</time>
      </trkpt>
      <trkpt lat="42.6612025034" lon="-0.1109248493">
        <ele>1238.32</ele>
        <time>2022-07-12T11:07:22Z</time>
      </trkpt>
      <trkpt lat="42.6612660382" lon="-0.1110428665">
        <ele>1235.91</ele>
        <time>2022-07-12T11:07:36Z</time>
      </trkpt>
      <trkpt lat="42.6613191795" lon="-0.1111488137">
        <ele>1233.03</ele>
        <time>2022-07-12T11:07:48Z</time>
      </trkpt>
      <trkpt lat="42.6613956224" lon="-0.1112083253">
        <ele>1230.62</ele>
        <time>2022-07-12T11:07:56Z</time>
      </trkpt>
      <trkpt lat="42.6614245400" lon="-0.1112611312">
        <ele>1229.66</ele>
        <time>2022-07-12T11:08:00Z</time>
      </trkpt>
      <trkpt lat="42.6615014020" lon="-0.1114897896">
        <ele>1227.26</ele>
        <time>2022-07-12T11:08:15Z</time>
      </trkpt>
      <trkpt lat="42.6615459938" lon="-0.1116374787">
        <ele>1227.26</ele>
        <time>2022-07-12T11:08:24Z</time>
      </trkpt>
      <trkpt lat="42.6616575569" lon="-0.1118011773">
        <ele>1226.78</ele>
        <time>2022-07-12T11:08:35Z</time>
      </trkpt>
      <trkpt lat="42.6616815291" lon="-0.1118665561">
        <ele>1226.78</ele>
        <time>2022-07-12T11:08:39Z</time>
      </trkpt>
      <trkpt lat="42.6616971195" lon="-0.1119172666">
        <ele>1226.78</ele>
        <time>2022-07-12T11:08:42Z</time>
      </trkpt>
      <trkpt lat="42.6617472433" lon="-0.1121465955">
        <ele>1226.78</ele>
        <time>2022-07-12T11:08:57Z</time>
      </trkpt>
      <trkpt lat="42.6617408730" lon="-0.1121981442">
        <ele>1228.22</ele>
        <time>2022-07-12T11:09:02Z</time>
      </trkpt>
      <trkpt lat="42.6617964450" lon="-0.1122628525">
        <ele>1228.22</ele>
        <time>2022-07-12T11:09:15Z</time>
      </trkpt>
      <trkpt lat="42.6618350018" lon="-0.1123789418">
        <ele>1228.22</ele>
        <time>2022-07-12T11:09:27Z</time>
      </trkpt>
      <trkpt lat="42.6619085111" lon="-0.1124712266">
        <ele>1228.22</ele>
        <time>2022-07-12T11:09:40Z</time>
      </trkpt>
      <trkpt lat="42.6619700342" lon="-0.1125735696">
        <ele>1228.22</ele>
        <time>2022-07-12T11:09:52Z</time>
      </trkpt>
      <trkpt lat="42.6620445494" lon="-0.1126569696">
        <ele>1225.82</ele>
        <time>2022-07-12T11:10:07Z</time>
      </trkpt>
      <trkpt lat="42.6620938350" lon="-0.1127357595">
        <ele>1223.90</ele>
        <time>2022-07-12T11:10:26Z</time>
      </trkpt>
      <trkpt lat="42.6621353254" lon="-0.1128457300">
        <ele>1221.49</ele>
        <time>2022-07-12T11:10:38Z</time>
      </trkpt>
      <trkpt lat="42.6621558610" lon="-0.1130233426">
        <ele>1218.61</ele>
        <time>2022-07-12T11:10:53Z</time>
      </trkpt>
      <trkpt lat="42.6622053981" lon="-0.1131563634">
        <ele>1217.17</ele>
        <time>2022-07-12T11:11:00Z</time>
      </trkpt>
      <trkpt lat="42.6622369140" lon="-0.1132081635">
        <ele>1216.21</ele>
        <time>2022-07-12T11:11:04Z</time>
      </trkpt>
      <trkpt lat="42.6622716151" lon="-0.1134153642">
        <ele>1214.76</ele>
        <time>2022-07-12T11:11:19Z</time>
      </trkpt>
      <trkpt lat="42.6622828469" lon="-0.1134550106">
        <ele>1216.21</ele>
        <time>2022-07-12T11:11:23Z</time>
      </trkpt>
      <trkpt lat="42.6623178832" lon="-0.1135153603">
        <ele>1216.21</ele>
        <time>2022-07-12T11:11:34Z</time>
      </trkpt>
      <trkpt lat="42.6623493154" lon="-0.1135888696">
        <ele>1213.32</ele>
        <time>2022-07-12T11:11:42Z</time>
      </trkpt>
      <trkpt lat="42.6624059770" lon="-0.1137953997">
        <ele>1211.88</ele>
        <time>2022-07-12T11:11:57Z</time>
      </trkpt>
      <trkpt lat="42.6624094136" lon="-0.1138089783">
        <ele>1211.88</ele>
        <time>2022-07-12T11:11:58Z</time>
      </trkpt>
      <trkpt lat="42.6625238266" lon="-0.1139621995">
        <ele>1210.92</ele>
        <time>2022-07-12T11:12:13Z</time>
      </trkpt>
      <trkpt lat="42.6625612937" lon="-0.1140482817">
        <ele>1208.51</ele>
        <time>2022-07-12T11:12:22Z</time>
      </trkpt>
      <trkpt lat="42.6625840086" lon="-0.1140905265">
        <ele>1207.55</ele>
        <time>2022-07-12T11:12:28Z</time>
      </trkpt>
      <trkpt lat="42.6626115013" lon="-0.1142298337">
        <ele>1209.00</ele>
        <time>2022-07-12T11:12:43Z</time>
      </trkpt>
      <trkpt lat="42.6626325399" lon="-0.1142797060">
        <ele>1209.48</ele>
        <time>2022-07-12T11:12:48Z</time>
      </trkpt>
      <trkpt lat="42.6627280936" lon="-0.1143440790">
        <ele>1208.03</ele>
        <time>2022-07-12T11:13:03Z</time>
      </trkpt>
      <trkpt lat="42.6628207136" lon="-0.1143983100">
        <ele>1205.15</ele>
        <time>2022-07-12T11:13:15Z</time>
      </trkpt>
      <trkpt lat="42.6628955640" lon="-0.1144446619">
        <ele>1202.27</ele>
        <time>2022-07-12T11:13:28Z</time>
      </trkpt>
      <trkpt lat="42.6629714202" lon="-0.1145397127">
        <ele>1200.82</ele>
        <time>2022-07-12T11:13:41Z</time>
      </trkpt>
      <trkpt lat="42.6630364638" lon="-0.1145907585">
        <ele>1198.90</ele>
        <time>2022-07-12T11:13:54Z</time>
      </trkpt>
      <trkpt lat="42.6631523855" lon="-0.1146410499">
        <ele>1196.50</ele>
        <time>2022-07-12T11:14:05Z</time>
      </trkpt>
      <trkpt lat="42.6632042695" lon="-0.1146892458">
        <ele>1195.54</ele>
        <time>2022-07-12T11:14:11Z</time>
      </trkpt>
      <trkpt lat="42.6632201113" lon="-0.1147211809">
        <ele>1195.54</ele>
        <time>2022-07-12T11:14:13Z</time>
      </trkpt>
      <trkpt lat="42.6633004937" lon="-0.1148405392">
        <ele>1194.58</ele>
        <time>2022-07-12T11:14:26Z</time>
      </trkpt>
      <trkpt lat="42.6633091271" lon="-0.1148515195">
        <ele>1193.13</ele>
        <time>2022-07-12T11:14:29Z</time>
      </trkpt>
      <trkpt lat="42.6632611826" lon="-0.1148397010">
        <ele>1193.13</ele>
        <time>2022-07-12T11:14:55Z</time>
      </trkpt>
      <trkpt lat="42.6632572431" lon="-0.1148676965">
        <ele>1194.58</ele>
        <time>2022-07-12T11:15:25Z</time>
      </trkpt>
      <trkpt lat="42.6633019187" lon="-0.1148886513">
        <ele>1195.06</ele>
        <time>2022-07-12T11:15:45Z</time>
      </trkpt>
      <trkpt lat="42.6634058543" lon="-0.1150334906">
        <ele>1195.06</ele>
        <time>2022-07-12T11:16:01Z</time>
      </trkpt>
      <trkpt lat="42.6634793635" lon="-0.1151455566">
        <ele>1194.09</ele>
        <time>2022-07-12T11:16:12Z</time>
      </trkpt>
      <trkpt lat="42.6635608356" lon="-0.1152206585">
        <ele>1191.69</ele>
        <time>2022-07-12T11:16:22Z</time>
      </trkpt>
      <trkpt lat="42.6636433974" lon="-0.1153245103">
        <ele>1188.81</ele>
        <time>2022-07-12T11:16:36Z</time>
      </trkpt>
      <trkpt lat="42.6638018154" lon="-0.1154304575">
        <ele>1187.85</ele>
        <time>2022-07-12T11:16:51Z</time>
      </trkpt>
      <trkpt lat="42.6639134623" lon="-0.1155640651">
        <ele>1187.37</ele>
        <time>2022-07-12T11:17:05Z</time>
      </trkpt>
      <trkpt lat="42.6639964432" lon="-0.1157149393">
        <ele>1187.37</ele>
        <time>2022-07-12T11:17:18Z</time>
      </trkpt>
      <trkpt lat="42.6640981156" lon="-0.1158954855">
        <ele>1186.88</ele>
        <time>2022-07-12T11:17:32Z</time>
      </trkpt>
      <trkpt lat="42.6641086768" lon="-0.1159150153">
        <ele>1186.88</ele>
        <time>2022-07-12T11:17:33Z</time>
      </trkpt>
      <trkpt lat="42.6641633268" lon="-0.1161513012">
        <ele>1186.88</ele>
        <time>2022-07-12T11:17:48Z</time>
      </trkpt>
      <trkpt lat="42.6642459724" lon="-0.1163392235">
        <ele>1186.88</ele>
        <time>2022-07-12T11:18:02Z</time>
      </trkpt>
      <trkpt lat="42.6642990299" lon="-0.1164940372">
        <ele>1185.44</ele>
        <time>2022-07-12T11:18:13Z</time>
      </trkpt>
      <trkpt lat="42.6642986108" lon="-0.1165107172">
        <ele>1185.44</ele>
        <time>2022-07-12T11:18:14Z</time>
      </trkpt>
      <trkpt lat="42.6643819269" lon="-0.1167843025">
        <ele>1184.48</ele>
        <time>2022-07-12T11:18:31Z</time>
      </trkpt>
      <trkpt lat="42.6644455455" lon="-0.1170177385">
        <ele>1184.48</ele>
        <time>2022-07-12T11:18:44Z</time>
      </trkpt>
      <trkpt lat="42.6644611359" lon="-0.1170836203">
        <ele>1184.48</ele>
        <time>2022-07-12T11:18:49Z</time>
      </trkpt>
      <trkpt lat="42.6645004470" lon="-0.1172302198">
        <ele>1185.44</ele>
        <time>2022-07-12T11:19:03Z</time>
      </trkpt>
      <trkpt lat="42.6645286940" lon="-0.1174144540">
        <ele>1185.44</ele>
        <time>2022-07-12T11:19:19Z</time>
      </trkpt>
      <trkpt lat="42.6645314600" lon="-0.1175302081">
        <ele>1185.44</ele>
        <time>2022-07-12T11:19:30Z</time>
      </trkpt>
      <trkpt lat="42.6645384170" lon="-0.1176954154">
        <ele>1185.44</ele>
        <time>2022-07-12T11:19:42Z</time>
      </trkpt>
      <trkpt lat="42.6645668317" lon="-0.1177955791">
        <ele>1185.44</ele>
        <time>2022-07-12T11:19:52Z</time>
      </trkpt>
      <trkpt lat="42.6646290254" lon="-0.1178612094">
        <ele>1184.00</ele>
        <time>2022-07-12T11:20:02Z</time>
      </trkpt>
      <trkpt lat="42.6647067256" lon="-0.1180202141">
        <ele>1183.52</ele>
        <time>2022-07-12T11:20:14Z</time>
      </trkpt>
      <trkpt lat="42.6647641417" lon="-0.1182819810">
        <ele>1183.52</ele>
        <time>2022-07-12T11:20:29Z</time>
      </trkpt>
      <trkpt lat="42.6647955738" lon="-0.1183675602">
        <ele>1184.48</ele>
        <time>2022-07-12T11:20:36Z</time>
      </trkpt>
      <trkpt lat="42.6648758724" lon="-0.1185193565">
        <ele>1184.96</ele>
        <time>2022-07-12T11:20:52Z</time>
      </trkpt>
      <trkpt lat="42.6649522316" lon="-0.1185756829">
        <ele>1184.96</ele>
        <time>2022-07-12T11:21:07Z</time>
      </trkpt>
      <trkpt lat="42.6649575960" lon="-0.1185828913">
        <ele>1184.96</ele>
        <time>2022-07-12T11:21:08Z</time>
      </trkpt>
      <trkpt lat="42.6650487911" lon="-0.1187705621">
        <ele>1184.96</ele>
        <time>2022-07-12T11:21:22Z</time>
      </trkpt>
      <trkpt lat="42.6651399024" lon="-0.1189205144">
        <ele>1185.44</ele>
        <time>2022-07-12T11:21:35Z</time>
      </trkpt>
      <trkpt lat="42.6651854161" lon="-0.1191401202">
        <ele>1186.88</ele>
        <time>2022-07-12T11:21:50Z</time>
      </trkpt>
      <trkpt lat="42.6652615238" lon="-0.1193617377">
        <ele>1189.29</ele>
        <time>2022-07-12T11:22:06Z</time>
      </trkpt>
      <trkpt lat="42.6653014217" lon="-0.1195122767">
        <ele>1190.73</ele>
        <time>2022-07-12T11:22:20Z</time>
      </trkpt>
      <trkpt lat="42.6653381344" lon="-0.1195728779">
        <ele>1191.21</ele>
        <time>2022-07-12T11:22:26Z</time>
      </trkpt>
      <trkpt lat="42.6653804630" lon="-0.1196930744">
        <ele>1192.65</ele>
        <time>2022-07-12T11:22:37Z</time>
      </trkpt>
      <trkpt lat="42.6654414833" lon="-0.1198639814">
        <ele>1193.61</ele>
        <time>2022-07-12T11:22:50Z</time>
      </trkpt>
      <trkpt lat="42.6654452551" lon="-0.1199727785">
        <ele>1193.61</ele>
        <time>2022-07-12T11:22:56Z</time>
      </trkpt>
      <trkpt lat="42.6654357836" lon="-0.1201966591">
        <ele>1193.61</ele>
        <time>2022-07-12T11:23:09Z</time>
      </trkpt>
      <trkpt lat="42.6654387172" lon="-0.1202220563">
        <ele>1192.65</ele>
        <time>2022-07-12T11:23:11Z</time>
      </trkpt>
      <trkpt lat="42.6654456742" lon="-0.1202653069">
        <ele>1191.69</ele>
        <time>2022-07-12T11:23:15Z</time>
      </trkpt>
      <trkpt lat="42.6655168366" lon="-0.1203930471">
        <ele>1190.25</ele>
        <time>2022-07-12T11:23:28Z</time>
      </trkpt>
      <trkpt lat="42.6655804552" lon="-0.1205158420">
        <ele>1189.77</ele>
        <time>2022-07-12T11:23:40Z</time>
      </trkpt>
      <trkpt lat="42.6656492706" lon="-0.1206065342">
        <ele>1188.33</ele>
        <time>2022-07-12T11:23:52Z</time>
      </trkpt>
      <trkpt lat="42.6657029986" lon="-0.1206539758">
        <ele>1189.77</ele>
        <time>2022-07-12T11:23:57Z</time>
      </trkpt>
      <trkpt lat="42.6657736581" lon="-0.1207728311">
        <ele>1189.77</ele>
        <time>2022-07-12T11:24:09Z</time>
      </trkpt>
      <trkpt lat="42.6658435632" lon="-0.1208072808">
        <ele>1189.77</ele>
        <time>2022-07-12T11:24:16Z</time>
      </trkpt>
      <trkpt lat="42.6659320761" lon="-0.1210176665">
        <ele>1190.73</ele>
        <time>2022-07-12T11:24:31Z</time>
      </trkpt>
      <trkpt lat="42.6659735665" lon="-0.1211270504">
        <ele>1193.61</ele>
        <time>2022-07-12T11:24:45Z</time>
      </trkpt>
      <trkpt lat="42.6660366822" lon="-0.1212229393">
        <ele>1196.02</ele>
        <time>2022-07-12T11:25:00Z</time>
      </trkpt>
      <trkpt lat="42.6660781726" lon="-0.1212994661">
        <ele>1198.90</ele>
        <time>2022-07-12T11:25:12Z</time>
      </trkpt>
      <trkpt lat="42.6661904063" lon="-0.1213459857">
        <ele>1200.82</ele>
        <time>2022-07-12T11:25:26Z</time>
      </trkpt>
      <trkpt lat="42.6662002131" lon="-0.1213610731">
        <ele>1201.79</ele>
        <time>2022-07-12T11:25:29Z</time>
      </trkpt>
      <trkpt lat="42.6662205812" lon="-0.1213713828">
        <ele>1202.75</ele>
        <time>2022-07-12T11:25:31Z</time>
      </trkpt>
      <trkpt lat="42.6663170569" lon="-0.1214640867">
        <ele>1203.23</ele>
        <time>2022-07-12T11:25:43Z</time>
      </trkpt>
      <trkpt lat="42.6663758140" lon="-0.1215841994">
        <ele>1205.63</ele>
        <time>2022-07-12T11:25:55Z</time>
      </trkpt>
      <trkpt lat="42.6663862076" lon="-0.1216763165">
        <ele>1206.11</ele>
        <time>2022-07-12T11:26:07Z</time>
      </trkpt>
      <trkpt lat="42.6664196514" lon="-0.1216960978">
        <ele>1206.11</ele>
        <time>2022-07-12T11:26:12Z</time>
      </trkpt>
      <trkpt lat="42.6664587110" lon="-0.1217195671">
        <ele>1204.67</ele>
        <time>2022-07-12T11:26:16Z</time>
      </trkpt>
      <trkpt lat="42.6665577013" lon="-0.1217573695">
        <ele>1202.27</ele>
        <time>2022-07-12T11:26:27Z</time>
      </trkpt>
      <trkpt lat="42.6666111778" lon="-0.1217764802">
        <ele>1201.30</ele>
        <time>2022-07-12T11:26:34Z</time>
      </trkpt>
      <trkpt lat="42.6667101681" lon="-0.1217927411">
        <ele>1201.30</ele>
        <time>2022-07-12T11:26:41Z</time>
      </trkpt>
      <trkpt lat="42.6667791512" lon="-0.1217789948">
        <ele>1199.86</ele>
        <time>2022-07-12T11:26:47Z</time>
      </trkpt>
      <trkpt lat="42.6668648142" lon="-0.1218163781">
        <ele>1198.90</ele>
        <time>2022-07-12T11:27:00Z</time>
      </trkpt>
      <trkpt lat="42.6669788919" lon="-0.1218018774">
        <ele>1197.46</ele>
        <time>2022-07-12T11:27:12Z</time>
      </trkpt>
      <trkpt lat="42.6670621242" lon="-0.1217858680">
        <ele>1198.90</ele>
        <time>2022-07-12T11:27:19Z</time>
      </trkpt>
      <trkpt lat="42.6672099810" lon="-0.1216273662">
        <ele>1200.34</ele>
        <time>2022-07-12T11:27:35Z</time>
      </trkpt>
      <trkpt lat="42.6672600210" lon="-0.1217055693">
        <ele>1200.34</ele>
        <time>2022-07-12T11:27:52Z</time>
      </trkpt>
      <trkpt lat="42.6672645472" lon="-0.1216382626">
        <ele>1200.34</ele>
        <time>2022-07-12T11:27:57Z</time>
      </trkpt>
      <trkpt lat="42.6673723385" lon="-0.1213728078">
        <ele>1200.34</ele>
        <time>2022-07-12T11:28:15Z</time>
      </trkpt>
      <trkpt lat="42.6673836540" lon="-0.1213920023">
        <ele>1200.34</ele>
        <time>2022-07-12T11:28:16Z</time>
      </trkpt>
      <trkpt lat="42.6674650423" lon="-0.1214606501">
        <ele>1200.34</ele>
        <time>2022-07-12T11:28:30Z</time>
      </trkpt>
      <trkpt lat="42.6675432455" lon="-0.1216534339">
        <ele>1199.86</ele>
        <time>2022-07-12T11:28:44Z</time>
      </trkpt>
      <trkpt lat="42.6677238755" lon="-0.1217641588">
        <ele>1200.82</ele>
        <time>2022-07-12T11:28:59Z</time>
      </trkpt>
      <trkpt lat="42.6678502746" lon="-0.1218607184">
        <ele>1200.82</ele>
        <time>2022-07-12T11:29:14Z</time>
      </trkpt>
      <trkpt lat="42.6679759193" lon="-0.1218716148">
        <ele>1202.27</ele>
        <time>2022-07-12T11:29:29Z</time>
      </trkpt>
      <trkpt lat="42.6680668630" lon="-0.1219280250">
        <ele>1202.75</ele>
        <time>2022-07-12T11:29:39Z</time>
      </trkpt>
      <trkpt lat="42.6682321541" lon="-0.1219518296">
        <ele>1203.71</ele>
        <time>2022-07-12T11:29:55Z</time>
      </trkpt>
      <trkpt lat="42.6683826093" lon="-0.1219828427">
        <ele>1203.23</ele>
        <time>2022-07-12T11:30:08Z</time>
      </trkpt>
      <trkpt lat="42.6685101818" lon="-0.1220717747">
        <ele>1204.67</ele>
        <time>2022-07-12T11:30:22Z</time>
      </trkpt>
      <trkpt lat="42.6685745548" lon="-0.1221960783">
        <ele>1205.63</ele>
        <time>2022-07-12T11:30:35Z</time>
      </trkpt>
      <trkpt lat="42.6686133631" lon="-0.1222149376">
        <ele>1204.19</ele>
        <time>2022-07-12T11:30:39Z</time>
      </trkpt>
      <trkpt lat="42.6687079947" lon="-0.1223728526">
        <ele>1203.71</ele>
        <time>2022-07-12T11:30:51Z</time>
      </trkpt>
      <trkpt lat="42.6688100025" lon="-0.1225152612">
        <ele>1203.23</ele>
        <time>2022-07-12T11:31:05Z</time>
      </trkpt>
      <trkpt lat="42.6688889600" lon="-0.1226247288">
        <ele>1203.23</ele>
        <time>2022-07-12T11:31:16Z</time>
      </trkpt>
      <trkpt lat="42.6690362301" lon="-0.1226188615">
        <ele>1203.23</ele>
        <time>2022-07-12T11:31:29Z</time>
      </trkpt>
      <trkpt lat="42.6690603700" lon="-0.1225920394">
        <ele>1203.23</ele>
        <time>2022-07-12T11:31:30Z</time>
      </trkpt>
      <trkpt lat="42.6691783872" lon="-0.1225651335">
        <ele>1203.23</ele>
        <time>2022-07-12T11:31:43Z</time>
      </trkpt>
      <trkpt lat="42.6691658143" lon="-0.1226636209">
        <ele>1204.67</ele>
        <time>2022-07-12T11:31:56Z</time>
      </trkpt>
      <trkpt lat="42.6692256611" lon="-0.1227268204">
        <ele>1204.67</ele>
        <time>2022-07-12T11:32:04Z</time>
      </trkpt>
      <trkpt lat="42.6692535728" lon="-0.1227364596">
        <ele>1204.67</ele>
        <time>2022-07-12T11:32:06Z</time>
      </trkpt>
      <trkpt lat="42.6694129966" lon="-0.1227778662">
        <ele>1205.15</ele>
        <time>2022-07-12T11:32:21Z</time>
      </trkpt>
      <trkpt lat="42.6694590133" lon="-0.1228236314">
        <ele>1205.15</ele>
        <time>2022-07-12T11:32:25Z</time>
      </trkpt>
      <trkpt lat="42.6695345342" lon="-0.1228359528">
        <ele>1205.15</ele>
        <time>2022-07-12T11:32:30Z</time>
      </trkpt>
      <trkpt lat="42.6695920341" lon="-0.1228304207">
        <ele>1205.15</ele>
        <time>2022-07-12T11:32:35Z</time>
      </trkpt>
      <trkpt lat="42.6696959697" lon="-0.1228600927">
        <ele>1206.11</ele>
        <time>2022-07-12T11:32:46Z</time>
      </trkpt>
      <trkpt lat="42.6698336843" lon="-0.1229657885">
        <ele>1207.55</ele>
        <time>2022-07-12T11:33:04Z</time>
      </trkpt>
      <trkpt lat="42.6700084470" lon="-0.1228890102">
        <ele>1208.51</ele>
        <time>2022-07-12T11:33:19Z</time>
      </trkpt>
      <trkpt lat="42.6701646857" lon="-0.1227908581">
        <ele>1208.51</ele>
        <time>2022-07-12T11:33:35Z</time>
      </trkpt>
      <trkpt lat="42.6703365985" lon="-0.1226896048">
        <ele>1208.51</ele>
        <time>2022-07-12T11:33:52Z</time>
      </trkpt>
      <trkpt lat="42.6704163942" lon="-0.1226271596">
        <ele>1209.00</ele>
        <time>2022-07-12T11:34:01Z</time>
      </trkpt>
      <trkpt lat="42.6705908217" lon="-0.1224751957">
        <ele>1209.48</ele>
        <time>2022-07-12T11:34:17Z</time>
      </trkpt>
      <trkpt lat="42.6706487406" lon="-0.1224249043">
        <ele>1209.96</ele>
        <time>2022-07-12T11:34:23Z</time>
      </trkpt>
      <trkpt lat="42.6707649138" lon="-0.1224110741">
        <ele>1210.44</ele>
        <time>2022-07-12T11:34:35Z</time>
      </trkpt>
      <trkpt lat="42.6707761455" lon="-0.1224189531">
        <ele>1210.44</ele>
        <time>2022-07-12T11:34:36Z</time>
      </trkpt>
      <trkpt lat="42.6707828511" lon="-0.1224243175">
        <ele>1210.44</ele>
        <time>2022-07-12T11:34:37Z</time>
      </trkpt>
      <trkpt lat="42.6708523370" lon="-0.1225102320">
        <ele>1210.92</ele>
        <time>2022-07-12T11:34:55Z</time>
      </trkpt>
      <trkpt lat="42.6708857808" lon="-0.1225103997">
        <ele>1210.92</ele>
        <time>2022-07-12T11:35:16Z</time>
      </trkpt>
      <trkpt lat="42.6710705180" lon="-0.1224201266">
        <ele>1210.92</ele>
        <time>2022-07-12T11:35:34Z</time>
      </trkpt>
      <trkpt lat="42.6711050514" lon="-0.1224627066">
        <ele>1211.40</ele>
        <time>2022-07-12T11:35:47Z</time>
      </trkpt>
      <trkpt lat="42.6712257508" lon="-0.1225788798">
        <ele>1209.96</ele>
        <time>2022-07-12T11:36:01Z</time>
      </trkpt>
      <trkpt lat="42.6714208815" lon="-0.1226788759">
        <ele>1209.48</ele>
        <time>2022-07-12T11:36:19Z</time>
      </trkpt>
      <trkpt lat="42.6715926267" lon="-0.1226830669">
        <ele>1210.92</ele>
        <time>2022-07-12T11:36:36Z</time>
      </trkpt>
      <trkpt lat="42.6716932934" lon="-0.1227516308">
        <ele>1210.92</ele>
        <time>2022-07-12T11:36:42Z</time>
      </trkpt>
      <trkpt lat="42.6717445068" lon="-0.1228195243">
        <ele>1210.92</ele>
        <time>2022-07-12T11:36:45Z</time>
      </trkpt>
      <trkpt lat="42.6719568204" lon="-0.1227523852">
        <ele>1210.92</ele>
        <time>2022-07-12T11:37:01Z</time>
      </trkpt>
      <trkpt lat="42.6720527094" lon="-0.1227578335">
        <ele>1211.40</ele>
        <time>2022-07-12T11:37:07Z</time>
      </trkpt>
      <trkpt lat="42.6722745784" lon="-0.1228502020">
        <ele>1211.40</ele>
        <time>2022-07-12T11:37:23Z</time>
      </trkpt>
      <trkpt lat="42.6723154821" lon="-0.1228590030">
        <ele>1211.40</ele>
        <time>2022-07-12T11:37:26Z</time>
      </trkpt>
      <trkpt lat="42.6723723114" lon="-0.1228773594">
        <ele>1211.40</ele>
        <time>2022-07-12T11:37:29Z</time>
      </trkpt>
      <trkpt lat="42.6725826971" lon="-0.1229330990">
        <ele>1211.40</ele>
        <time>2022-07-12T11:37:46Z</time>
      </trkpt>
      <trkpt lat="42.6726227626" lon="-0.1229832228">
        <ele>1211.40</ele>
        <time>2022-07-12T11:37:51Z</time>
      </trkpt>
      <trkpt lat="42.6726450585" lon="-0.1230118051">
        <ele>1211.40</ele>
        <time>2022-07-12T11:37:53Z</time>
      </trkpt>
      <trkpt lat="42.6728095952" lon="-0.1231420599">
        <ele>1212.36</ele>
        <time>2022-07-12T11:38:09Z</time>
      </trkpt>
      <trkpt lat="42.6729572844" lon="-0.1232268009">
        <ele>1212.36</ele>
        <time>2022-07-12T11:38:23Z</time>
      </trkpt>
      <trkpt lat="42.6729895547" lon="-0.1232342608">
        <ele>1212.84</ele>
        <time>2022-07-12T11:38:27Z</time>
      </trkpt>
      <trkpt lat="42.6731367409" lon="-0.1232998073">
        <ele>1212.84</ele>
        <time>2022-07-12T11:38:41Z</time>
      </trkpt>
      <trkpt lat="42.6732843462" lon="-0.1233468298">
        <ele>1213.32</ele>
        <time>2022-07-12T11:38:55Z</time>
      </trkpt>
      <trkpt lat="42.6734577678" lon="-0.1233618334">
        <ele>1214.28</ele>
        <time>2022-07-12T11:39:09Z</time>
      </trkpt>
      <trkpt lat="42.6735726837" lon="-0.1232851390">
        <ele>1214.76</ele>
        <time>2022-07-12T11:39:20Z</time>
      </trkpt>
      <trkpt lat="42.6736249868" lon="-0.1232495997">
        <ele>1216.69</ele>
        <time>2022-07-12T11:39:33Z</time>
      </trkpt>
      <trkpt lat="42.6736267470" lon="-0.1232453249">
        <ele>1216.69</ele>
        <time>2022-07-12T11:39:34Z</time>
      </trkpt>
      <trkpt lat="42.6738289185" lon="-0.1232268848">
        <ele>1216.69</ele>
        <time>2022-07-12T11:39:51Z</time>
      </trkpt>
      <trkpt lat="42.6740405615" lon="-0.1232495997">
        <ele>1217.17</ele>
        <time>2022-07-12T11:40:09Z</time>
      </trkpt>
      <trkpt lat="42.6742356084" lon="-0.1232646871">
        <ele>1217.65</ele>
        <time>2022-07-12T11:40:24Z</time>
      </trkpt>
      <trkpt lat="42.6743863150" lon="-0.1233472489">
        <ele>1218.13</ele>
        <time>2022-07-12T11:40:38Z</time>
      </trkpt>
      <trkpt lat="42.6745410450" lon="-0.1233459078">
        <ele>1218.61</ele>
        <time>2022-07-12T11:40:51Z</time>
      </trkpt>
      <trkpt lat="42.6746039093" lon="-0.1233383641">
        <ele>1218.61</ele>
        <time>2022-07-12T11:40:56Z</time>
      </trkpt>
      <trkpt lat="42.6747980341" lon="-0.1232562214">
        <ele>1219.09</ele>
        <time>2022-07-12T11:41:13Z</time>
      </trkpt>
      <trkpt lat="42.6749334857" lon="-0.1231872384">
        <ele>1220.05</ele>
        <time>2022-07-12T11:41:25Z</time>
      </trkpt>
      <trkpt lat="42.6750143711" lon="-0.1231298223">
        <ele>1221.01</ele>
        <time>2022-07-12T11:41:32Z</time>
      </trkpt>
      <trkpt lat="42.6751591265" lon="-0.1229765173">
        <ele>1221.01</ele>
        <time>2022-07-12T11:41:47Z</time>
      </trkpt>
      <trkpt lat="42.6752440352" lon="-0.1228465978">
        <ele>1221.97</ele>
        <time>2022-07-12T11:42:04Z</time>
      </trkpt>
      <trkpt lat="42.6752877049" lon="-0.1228368748">
        <ele>1221.97</ele>
        <time>2022-07-12T11:42:09Z</time>
      </trkpt>
      <trkpt lat="42.6753728651" lon="-0.1227938756">
        <ele>1222.45</ele>
        <time>2022-07-12T11:42:16Z</time>
      </trkpt>
      <trkpt lat="42.6755310316" lon="-0.1228168420">
        <ele>1222.93</ele>
        <time>2022-07-12T11:42:32Z</time>
      </trkpt>
      <trkpt lat="42.6756654773" lon="-0.1227126550">
        <ele>1222.93</ele>
        <time>2022-07-12T11:42:46Z</time>
      </trkpt>
      <trkpt lat="42.6757549960" lon="-0.1227020100">
        <ele>1222.93</ele>
        <time>2022-07-12T11:43:02Z</time>
      </trkpt>
      <trkpt lat="42.6758401562" lon="-0.1226926222">
        <ele>1223.42</ele>
        <time>2022-07-12T11:43:20Z</time>
      </trkpt>
      <trkpt lat="42.6758993324" lon="-0.1226943824">
        <ele>1223.90</ele>
        <time>2022-07-12T11:43:37Z</time>
      </trkpt>
      <trkpt lat="42.6760118175" lon="-0.1226738468">
        <ele>1224.38</ele>
        <time>2022-07-12T11:43:58Z</time>
      </trkpt>
      <trkpt lat="42.6760957204" lon="-0.1226437557">
        <ele>1225.34</ele>
        <time>2022-07-12T11:44:11Z</time>
      </trkpt>
      <trkpt lat="42.6762148272" lon="-0.1225745212">
        <ele>1225.34</ele>
        <time>2022-07-12T11:44:20Z</time>
      </trkpt>
      <trkpt lat="42.6764019113" lon="-0.1224679034">
        <ele>1225.82</ele>
        <time>2022-07-12T11:44:35Z</time>
      </trkpt>
      <trkpt lat="42.6765638497" lon="-0.1224625390">
        <ele>1226.30</ele>
        <time>2022-07-12T11:44:51Z</time>
      </trkpt>
      <trkpt lat="42.6765885763" lon="-0.1224632096">
        <ele>1226.30</ele>
        <time>2022-07-12T11:44:53Z</time>
      </trkpt>
      <trkpt lat="42.6768231019" lon="-0.1223820727">
        <ele>1227.26</ele>
        <time>2022-07-12T11:45:10Z</time>
      </trkpt>
      <trkpt lat="42.6769477408" lon="-0.1223725174">
        <ele>1228.70</ele>
        <time>2022-07-12T11:45:26Z</time>
      </trkpt>
      <trkpt lat="42.6770308055" lon="-0.1224789675">
        <ele>1225.82</ele>
        <time>2022-07-12T11:45:40Z</time>
      </trkpt>
      <trkpt lat="42.6770936698" lon="-0.1224699989">
        <ele>1227.26</ele>
        <time>2022-07-12T11:45:49Z</time>
      </trkpt>
      <trkpt lat="42.6772333123" lon="-0.1224280056">
        <ele>1227.74</ele>
        <time>2022-07-12T11:45:55Z</time>
      </trkpt>
      <trkpt lat="42.6774602942" lon="-0.1224694960">
        <ele>1227.74</ele>
        <time>2022-07-12T11:46:11Z</time>
      </trkpt>
      <trkpt lat="42.6774669159" lon="-0.1224601921">
        <ele>1226.30</ele>
        <time>2022-07-12T11:46:13Z</time>
      </trkpt>
      <trkpt lat="42.6774912234" lon="-0.1224374771">
        <ele>1226.78</ele>
        <time>2022-07-12T11:46:20Z</time>
      </trkpt>
      <trkpt lat="42.6775488909" lon="-0.1223933883">
        <ele>1230.14</ele>
        <time>2022-07-12T11:46:36Z</time>
      </trkpt>
      <trkpt lat="42.6775393356" lon="-0.1224156842">
        <ele>1230.14</ele>
        <time>2022-07-12T11:46:38Z</time>
      </trkpt>
      <trkpt lat="42.6775189675" lon="-0.1225590985">
        <ele>1231.59</ele>
        <time>2022-07-12T11:46:47Z</time>
      </trkpt>
      <trkpt lat="42.6775471307" lon="-0.1227436680">
        <ele>1233.51</ele>
        <time>2022-07-12T11:46:59Z</time>
      </trkpt>
      <trkpt lat="42.6776254177" lon="-0.1228496153">
        <ele>1236.87</ele>
        <time>2022-07-12T11:47:13Z</time>
      </trkpt>
      <trkpt lat="42.6776273455" lon="-0.1228989009">
        <ele>1237.83</ele>
        <time>2022-07-12T11:47:18Z</time>
      </trkpt>
      <trkpt lat="42.6775623858" lon="-0.1231576502">
        <ele>1237.83</ele>
        <time>2022-07-12T11:47:33Z</time>
      </trkpt>
      <trkpt lat="42.6774793211" lon="-0.1233544573">
        <ele>1238.80</ele>
        <time>2022-07-12T11:47:48Z</time>
      </trkpt>
      <trkpt lat="42.6774530858" lon="-0.1229134016">
        <ele>1242.64</ele>
        <time>2022-07-13T07:16:06Z</time>
      </trkpt>
      <trkpt lat="42.6774675027" lon="-0.1228899322">
        <ele>1242.16</ele>
        <time>2022-07-13T07:16:08Z</time>
      </trkpt>
      <trkpt lat="42.6775527466" lon="-0.1228207815">
        <ele>1243.12</ele>
        <time>2022-07-13T07:16:21Z</time>
      </trkpt>
      <trkpt lat="42.6775599550" lon="-0.1228607632">
        <ele>1243.60</ele>
        <time>2022-07-13T07:16:37Z</time>
      </trkpt>
      <trkpt lat="42.6776472107" lon="-0.1229278184">
        <ele>1244.56</ele>
        <time>2022-07-13T07:17:07Z</time>
      </trkpt>
      <trkpt lat="42.6776579395" lon="-0.1228771079">
        <ele>1243.60</ele>
        <time>2022-07-13T07:17:21Z</time>
      </trkpt>
      <trkpt lat="42.6776086539" lon="-0.1228323486">
        <ele>1241.68</ele>
        <time>2022-07-13T07:17:28Z</time>
      </trkpt>
      <trkpt lat="42.6775343064" lon="-0.1227619406">
        <ele>1239.28</ele>
        <time>2022-07-13T07:17:38Z</time>
      </trkpt>
      <trkpt lat="42.6775903814" lon="-0.1225594338">
        <ele>1236.39</ele>
        <time>2022-07-13T07:17:54Z</time>
      </trkpt>
      <trkpt lat="42.6775469631" lon="-0.1224623714">
        <ele>1233.51</ele>
        <time>2022-07-13T07:18:07Z</time>
      </trkpt>
      <trkpt lat="42.6774602104" lon="-0.1224748604">
        <ele>1233.03</ele>
        <time>2022-07-13T07:18:21Z</time>
      </trkpt>
      <trkpt lat="42.6774299517" lon="-0.1224590186">
        <ele>1233.51</ele>
        <time>2022-07-13T07:18:24Z</time>
      </trkpt>
      <trkpt lat="42.6772340667" lon="-0.1223670691">
        <ele>1233.51</ele>
        <time>2022-07-13T07:18:39Z</time>
      </trkpt>
      <trkpt lat="42.6772175543" lon="-0.1223612018">
        <ele>1231.59</ele>
        <time>2022-07-13T07:18:44Z</time>
      </trkpt>
      <trkpt lat="42.6771620661" lon="-0.1223766245">
        <ele>1232.55</ele>
        <time>2022-07-13T07:18:53Z</time>
      </trkpt>
      <trkpt lat="42.6771230903" lon="-0.1223281771">
        <ele>1235.43</ele>
        <time>2022-07-13T07:19:08Z</time>
      </trkpt>
      <trkpt lat="42.6771916542" lon="-0.1221961621">
        <ele>1238.32</ele>
        <time>2022-07-13T07:19:24Z</time>
      </trkpt>
      <trkpt lat="42.6772812568" lon="-0.1220625546">
        <ele>1241.20</ele>
        <time>2022-07-13T07:19:39Z</time>
      </trkpt>
      <trkpt lat="42.6774355676" lon="-0.1218643226">
        <ele>1244.08</ele>
        <time>2022-07-13T07:19:57Z</time>
      </trkpt>
      <trkpt lat="42.6775249187" lon="-0.1217414439">
        <ele>1246.01</ele>
        <time>2022-07-13T07:20:13Z</time>
      </trkpt>
      <trkpt lat="42.6776592806" lon="-0.1216328144">
        <ele>1247.45</ele>
        <time>2022-07-13T07:20:27Z</time>
      </trkpt>
      <trkpt lat="42.6777074765" lon="-0.1215867139">
        <ele>1247.93</ele>
        <time>2022-07-13T07:20:31Z</time>
      </trkpt>
      <trkpt lat="42.6778356358" lon="-0.1213515177">
        <ele>1251.29</ele>
        <time>2022-07-13T07:20:48Z</time>
      </trkpt>
      <trkpt lat="42.6779392362" lon="-0.1212759130">
        <ele>1253.22</ele>
        <time>2022-07-13T07:21:03Z</time>
      </trkpt>
      <trkpt lat="42.6781069580" lon="-0.1211837120">
        <ele>1255.62</ele>
        <time>2022-07-13T07:21:19Z</time>
      </trkpt>
      <trkpt lat="42.6782454271" lon="-0.1210672036">
        <ele>1257.54</ele>
        <time>2022-07-13T07:21:35Z</time>
      </trkpt>
      <trkpt lat="42.6783684734" lon="-0.1209160779">
        <ele>1258.98</ele>
        <time>2022-07-13T07:21:50Z</time>
      </trkpt>
      <trkpt lat="42.6784917712" lon="-0.1207789499">
        <ele>1257.06</ele>
        <time>2022-07-13T07:22:07Z</time>
      </trkpt>
      <trkpt lat="42.6786070224" lon="-0.1207363699">
        <ele>1255.62</ele>
        <time>2022-07-13T07:22:23Z</time>
      </trkpt>
      <trkpt lat="42.6787775941" lon="-0.1205830649">
        <ele>1258.50</ele>
        <time>2022-07-13T07:22:41Z</time>
      </trkpt>
      <trkpt lat="42.6788498461" lon="-0.1204509661">
        <ele>1257.06</ele>
        <time>2022-07-13T07:22:54Z</time>
      </trkpt>
      <trkpt lat="42.6789092738" lon="-0.1202529855">
        <ele>1256.10</ele>
        <time>2022-07-13T07:23:09Z</time>
      </trkpt>
      <trkpt lat="42.6789722219" lon="-0.1200562622">
        <ele>1256.10</ele>
        <time>2022-07-13T07:23:25Z</time>
      </trkpt>
      <trkpt lat="42.6790702902" lon="-0.1198486425">
        <ele>1258.50</ele>
        <time>2022-07-13T07:23:40Z</time>
      </trkpt>
      <trkpt lat="42.6791868825" lon="-0.1196699403">
        <ele>1261.87</ele>
        <time>2022-07-13T07:23:55Z</time>
      </trkpt>
      <trkpt lat="42.6793028880" lon="-0.1194405276">
        <ele>1264.75</ele>
        <time>2022-07-13T07:24:10Z</time>
      </trkpt>
      <trkpt lat="42.6794121880" lon="-0.1192455646">
        <ele>1266.67</ele>
        <time>2022-07-13T07:24:28Z</time>
      </trkpt>
      <trkpt lat="42.6794585399" lon="-0.1190489251">
        <ele>1270.04</ele>
        <time>2022-07-13T07:24:46Z</time>
      </trkpt>
      <trkpt lat="42.6795382518" lon="-0.1188302413">
        <ele>1271.96</ele>
        <time>2022-07-13T07:25:05Z</time>
      </trkpt>
      <trkpt lat="42.6795936562" lon="-0.1186105516">
        <ele>1273.40</ele>
        <time>2022-07-13T07:25:20Z</time>
      </trkpt>
      <trkpt lat="42.6799132582" lon="-0.1180375647">
        <ele>1273.88</ele>
        <time>2022-07-13T07:25:35Z</time>
      </trkpt>
      <trkpt lat="42.6800027769" lon="-0.1178617962">
        <ele>1274.85</ele>
        <time>2022-07-13T07:25:50Z</time>
      </trkpt>
      <trkpt lat="42.6801122446" lon="-0.1176337246">
        <ele>1274.85</ele>
        <time>2022-07-13T07:26:07Z</time>
      </trkpt>
      <trkpt lat="42.6802298427" lon="-0.1174775697">
        <ele>1274.85</ele>
        <time>2022-07-13T07:26:22Z</time>
      </trkpt>
      <trkpt lat="42.6803417411" lon="-0.1172700338">
        <ele>1275.81</ele>
        <time>2022-07-13T07:26:37Z</time>
      </trkpt>
      <trkpt lat="42.6803584211" lon="-0.1171997935">
        <ele>1275.81</ele>
        <time>2022-07-13T07:26:41Z</time>
      </trkpt>
      <trkpt lat="42.6803576667" lon="-0.1170127094">
        <ele>1274.36</ele>
        <time>2022-07-13T07:26:55Z</time>
      </trkpt>
      <trkpt lat="42.6803553198" lon="-0.1170019805">
        <ele>1274.36</ele>
        <time>2022-07-13T07:26:56Z</time>
      </trkpt>
      <trkpt lat="42.6803520508" lon="-0.1167972945">
        <ele>1271.48</ele>
        <time>2022-07-13T07:27:09Z</time>
      </trkpt>
      <trkpt lat="42.6803495362" lon="-0.1166563109">
        <ele>1268.12</ele>
        <time>2022-07-13T07:27:19Z</time>
      </trkpt>
      <trkpt lat="42.6803618576" lon="-0.1165739167">
        <ele>1268.12</ele>
        <time>2022-07-13T07:27:26Z</time>
      </trkpt>
      <trkpt lat="42.6803780347" lon="-0.1165318396">
        <ele>1269.56</ele>
        <time>2022-07-13T07:27:29Z</time>
      </trkpt>
      <trkpt lat="42.6804928668" lon="-0.1163787860">
        <ele>1272.44</ele>
        <time>2022-07-13T07:27:40Z</time>
      </trkpt>
      <trkpt lat="42.6805891749" lon="-0.1162826456">
        <ele>1273.88</ele>
        <time>2022-07-13T07:27:50Z</time>
      </trkpt>
      <trkpt lat="42.6807301585" lon="-0.1161247306">
        <ele>1276.77</ele>
        <time>2022-07-13T07:28:05Z</time>
      </trkpt>
      <trkpt lat="42.6808558870" lon="-0.1160154305">
        <ele>1278.69</ele>
        <time>2022-07-13T07:28:21Z</time>
      </trkpt>
      <trkpt lat="42.6809913386" lon="-0.1158753689">
        <ele>1280.61</ele>
        <time>2022-07-13T07:28:36Z</time>
      </trkpt>
      <trkpt lat="42.6810793485" lon="-0.1157368999">
        <ele>1283.98</ele>
        <time>2022-07-13T07:28:51Z</time>
      </trkpt>
      <trkpt lat="42.6810897421" lon="-0.1157247461">
        <ele>1283.98</ele>
        <time>2022-07-13T07:28:52Z</time>
      </trkpt>
      <trkpt lat="42.6811834518" lon="-0.1155561022">
        <ele>1283.50</ele>
        <time>2022-07-13T07:29:08Z</time>
      </trkpt>
      <trkpt lat="42.6812634990" lon="-0.1154617220">
        <ele>1282.54</ele>
        <time>2022-07-13T07:29:23Z</time>
      </trkpt>
      <trkpt lat="42.6812771615" lon="-0.1154558547">
        <ele>1283.98</ele>
        <time>2022-07-13T07:29:25Z</time>
      </trkpt>
      <trkpt lat="42.6813728828" lon="-0.1153938286">
        <ele>1287.34</ele>
        <time>2022-07-13T07:29:37Z</time>
      </trkpt>
      <trkpt lat="42.6814663410" lon="-0.1153045613">
        <ele>1290.23</ele>
        <time>2022-07-13T07:29:52Z</time>
      </trkpt>
      <trkpt lat="42.6816560235" lon="-0.1152164675">
        <ele>1292.15</ele>
        <time>2022-07-13T07:30:10Z</time>
      </trkpt>
      <trkpt lat="42.6818038803" lon="-0.1150748972">
        <ele>1293.11</ele>
        <time>2022-07-13T07:30:26Z</time>
      </trkpt>
      <trkpt lat="42.6819524076" lon="-0.1148877293">
        <ele>1294.07</ele>
        <time>2022-07-13T07:30:44Z</time>
      </trkpt>
      <trkpt lat="42.6820906252" lon="-0.1148025692">
        <ele>1295.03</ele>
        <time>2022-07-13T07:31:01Z</time>
      </trkpt>
      <trkpt lat="42.6822140906" lon="-0.1146560535">
        <ele>1295.03</ele>
        <time>2022-07-13T07:31:16Z</time>
      </trkpt>
      <trkpt lat="42.6822417509" lon="-0.1146211009">
        <ele>1295.03</ele>
        <time>2022-07-13T07:31:19Z</time>
      </trkpt>
      <trkpt lat="42.6823482011" lon="-0.1144113019">
        <ele>1295.03</ele>
        <time>2022-07-13T07:31:36Z</time>
      </trkpt>
      <trkpt lat="42.6824657153" lon="-0.1141806319">
        <ele>1297.44</ele>
        <time>2022-07-13T07:31:52Z</time>
      </trkpt>
      <trkpt lat="42.6824994944" lon="-0.1141378842">
        <ele>1297.92</ele>
        <time>2022-07-13T07:31:55Z</time>
      </trkpt>
      <trkpt lat="42.6826140750" lon="-0.1139186975">
        <ele>1297.92</ele>
        <time>2022-07-13T07:32:10Z</time>
      </trkpt>
      <trkpt lat="42.6827092934" lon="-0.1136581879">
        <ele>1298.40</ele>
        <time>2022-07-13T07:32:28Z</time>
      </trkpt>
      <trkpt lat="42.6828787755" lon="-0.1133701857">
        <ele>1296.96</ele>
        <time>2022-07-13T07:32:43Z</time>
      </trkpt>
      <trkpt lat="42.6828808710" lon="-0.1133375801">
        <ele>1296.96</ele>
        <time>2022-07-13T07:32:44Z</time>
      </trkpt>
      <trkpt lat="42.6830667816" lon="-0.1130215824">
        <ele>1296.48</ele>
        <time>2022-07-13T07:32:59Z</time>
      </trkpt>
      <trkpt lat="42.6832102798" lon="-0.1127632521">
        <ele>1295.51</ele>
        <time>2022-07-13T07:33:15Z</time>
      </trkpt>
      <trkpt lat="42.6832739823" lon="-0.1124889962">
        <ele>1295.03</ele>
        <time>2022-07-13T07:33:29Z</time>
      </trkpt>
      <trkpt lat="42.6832799334" lon="-0.1124659460">
        <ele>1295.03</ele>
        <time>2022-07-13T07:33:30Z</time>
      </trkpt>
      <trkpt lat="42.6832994632" lon="-0.1123718172">
        <ele>1295.03</ele>
        <time>2022-07-13T07:33:35Z</time>
      </trkpt>
      <trkpt lat="42.6832929254" lon="-0.1122873276">
        <ele>1295.03</ele>
        <time>2022-07-13T07:33:40Z</time>
      </trkpt>
      <trkpt lat="42.6833488327" lon="-0.1120735891">
        <ele>1295.03</ele>
        <time>2022-07-13T07:33:55Z</time>
      </trkpt>
      <trkpt lat="42.6834241021" lon="-0.1118994132">
        <ele>1296.48</ele>
        <time>2022-07-13T07:34:09Z</time>
      </trkpt>
      <trkpt lat="42.6835180633" lon="-0.1116120815">
        <ele>1296.96</ele>
        <time>2022-07-13T07:34:25Z</time>
      </trkpt>
      <trkpt lat="42.6835992001" lon="-0.1114441082">
        <ele>1298.40</ele>
        <time>2022-07-13T07:34:38Z</time>
      </trkpt>
      <trkpt lat="42.6836817618" lon="-0.1112465467">
        <ele>1300.80</ele>
        <time>2022-07-13T07:34:54Z</time>
      </trkpt>
      <trkpt lat="42.6837617252" lon="-0.1110394299">
        <ele>1302.72</ele>
        <time>2022-07-13T07:35:07Z</time>
      </trkpt>
      <trkpt lat="42.6838626433" lon="-0.1108696964">
        <ele>1303.20</ele>
        <time>2022-07-13T07:35:21Z</time>
      </trkpt>
      <trkpt lat="42.6839391701" lon="-0.1106597297">
        <ele>1303.20</ele>
        <time>2022-07-13T07:35:34Z</time>
      </trkpt>
      <trkpt lat="42.6840682514" lon="-0.1104890741">
        <ele>1303.69</ele>
        <time>2022-07-13T07:35:49Z</time>
      </trkpt>
      <trkpt lat="42.6841841731" lon="-0.1103402954">
        <ele>1306.09</ele>
        <time>2022-07-13T07:36:06Z</time>
      </trkpt>
      <trkpt lat="42.6842418406" lon="-0.1102946140">
        <ele>1307.05</ele>
        <time>2022-07-13T07:36:15Z</time>
      </trkpt>
      <trkpt lat="42.6843819022" lon="-0.1101501938">
        <ele>1307.53</ele>
        <time>2022-07-13T07:36:30Z</time>
      </trkpt>
      <trkpt lat="42.6845055353" lon="-0.1099256426">
        <ele>1307.53</ele>
        <time>2022-07-13T07:36:45Z</time>
      </trkpt>
      <trkpt lat="42.6846548170" lon="-0.1098509599">
        <ele>1308.01</ele>
        <time>2022-07-13T07:36:57Z</time>
      </trkpt>
      <trkpt lat="42.6848009974" lon="-0.1096857525">
        <ele>1306.09</ele>
        <time>2022-07-13T07:37:12Z</time>
      </trkpt>
      <trkpt lat="42.6848998200" lon="-0.1095629577">
        <ele>1306.09</ele>
        <time>2022-07-13T07:37:24Z</time>
      </trkpt>
      <trkpt lat="42.6850496046" lon="-0.1094102394">
        <ele>1305.13</ele>
        <time>2022-07-13T07:37:39Z</time>
      </trkpt>
      <trkpt lat="42.6851295680" lon="-0.1092652325">
        <ele>1306.57</ele>
        <time>2022-07-13T07:37:52Z</time>
      </trkpt>
      <trkpt lat="42.6852102019" lon="-0.1091415156">
        <ele>1307.05</ele>
        <time>2022-07-13T07:38:05Z</time>
      </trkpt>
      <trkpt lat="42.6852616668" lon="-0.1090177987">
        <ele>1307.53</ele>
        <time>2022-07-13T07:38:20Z</time>
      </trkpt>
      <trkpt lat="42.6853166521" lon="-0.1088493224">
        <ele>1306.09</ele>
        <time>2022-07-13T07:38:33Z</time>
      </trkpt>
      <trkpt lat="42.6854184084" lon="-0.1086186524">
        <ele>1304.17</ele>
        <time>2022-07-13T07:38:50Z</time>
      </trkpt>
      <trkpt lat="42.6854379382" lon="-0.1084433030">
        <ele>1307.05</ele>
        <time>2022-07-13T07:39:03Z</time>
      </trkpt>
      <trkpt lat="42.6854402851" lon="-0.1083154790">
        <ele>1310.41</ele>
        <time>2022-07-13T07:39:17Z</time>
      </trkpt>
      <trkpt lat="42.6855039038" lon="-0.1082662772">
        <ele>1308.97</ele>
        <time>2022-07-13T07:39:26Z</time>
      </trkpt>
      <trkpt lat="42.6855646726" lon="-0.1082202606">
        <ele>1305.61</ele>
        <time>2022-07-13T07:39:39Z</time>
      </trkpt>
      <trkpt lat="42.6856612321" lon="-0.1082272176">
        <ele>1305.61</ele>
        <time>2022-07-13T07:39:55Z</time>
      </trkpt>
      <trkpt lat="42.6857339870" lon="-0.1081778482">
        <ele>1303.69</ele>
        <time>2022-07-13T07:40:06Z</time>
      </trkpt>
      <trkpt lat="42.6857600547" lon="-0.1080998965">
        <ele>1301.76</ele>
        <time>2022-07-13T07:40:18Z</time>
      </trkpt>
      <trkpt lat="42.6857630722" lon="-0.1080053486">
        <ele>1302.24</ele>
        <time>2022-07-13T07:40:30Z</time>
      </trkpt>
      <trkpt lat="42.6858309656" lon="-0.1079719048">
        <ele>1303.20</ele>
        <time>2022-07-13T07:40:44Z</time>
      </trkpt>
      <trkpt lat="42.6858859509" lon="-0.1079123095">
        <ele>1304.65</ele>
        <time>2022-07-13T07:40:55Z</time>
      </trkpt>
      <trkpt lat="42.6859665010" lon="-0.1078302506">
        <ele>1304.65</ele>
        <time>2022-07-13T07:41:07Z</time>
      </trkpt>
      <trkpt lat="42.6860305388" lon="-0.1077625249">
        <ele>1306.09</ele>
        <time>2022-07-13T07:41:19Z</time>
      </trkpt>
      <trkpt lat="42.6861064788" lon="-0.1076460164">
        <ele>1307.53</ele>
        <time>2022-07-13T07:41:34Z</time>
      </trkpt>
      <trkpt lat="42.6861617155" lon="-0.1075243950">
        <ele>1308.01</ele>
        <time>2022-07-13T07:41:49Z</time>
      </trkpt>
      <trkpt lat="42.6862252504" lon="-0.1074321941">
        <ele>1308.97</ele>
        <time>2022-07-13T07:42:06Z</time>
      </trkpt>
      <trkpt lat="42.6862909645" lon="-0.1073216368">
        <ele>1310.41</ele>
        <time>2022-07-13T07:42:22Z</time>
      </trkpt>
      <trkpt lat="42.6863563433" lon="-0.1072354708">
        <ele>1313.78</ele>
        <time>2022-07-13T07:42:34Z</time>
      </trkpt>
      <trkpt lat="42.6864482090" lon="-0.1071078982">
        <ele>1315.70</ele>
        <time>2022-07-13T07:42:50Z</time>
      </trkpt>
      <trkpt lat="42.6865284238" lon="-0.1070259232">
        <ele>1314.26</ele>
        <time>2022-07-13T07:43:01Z</time>
      </trkpt>
      <trkpt lat="42.6866471115" lon="-0.1069951616">
        <ele>1312.34</ele>
        <time>2022-07-13T07:43:17Z</time>
      </trkpt>
      <trkpt lat="42.6867526397" lon="-0.1068711933">
        <ele>1312.34</ele>
        <time>2022-07-13T07:43:28Z</time>
      </trkpt>
      <trkpt lat="42.6868543960" lon="-0.1067802496">
        <ele>1313.30</ele>
        <time>2022-07-13T07:43:42Z</time>
      </trkpt>
      <trkpt lat="42.6870057732" lon="-0.1068758871">
        <ele>1316.18</ele>
        <time>2022-07-13T07:43:57Z</time>
      </trkpt>
      <trkpt lat="42.6871629339" lon="-0.1069908030">
        <ele>1317.14</ele>
        <time>2022-07-13T07:44:14Z</time>
      </trkpt>
      <trkpt lat="42.6871763449" lon="-0.1070008613">
        <ele>1317.14</ele>
        <time>2022-07-13T07:44:15Z</time>
      </trkpt>
      <trkpt lat="42.6872455794" lon="-0.1070385799">
        <ele>1317.14</ele>
        <time>2022-07-13T07:44:20Z</time>
      </trkpt>
      <trkpt lat="42.6873858925" lon="-0.1071302779">
        <ele>1318.10</ele>
        <time>2022-07-13T07:44:32Z</time>
      </trkpt>
      <trkpt lat="42.6875404548" lon="-0.1071508974">
        <ele>1318.59</ele>
        <time>2022-07-13T07:44:44Z</time>
      </trkpt>
      <trkpt lat="42.6875567157" lon="-0.1071543340">
        <ele>1318.59</ele>
        <time>2022-07-13T07:44:45Z</time>
      </trkpt>
      <trkpt lat="42.6878384314" lon="-0.1071361452">
        <ele>1319.55</ele>
        <time>2022-07-13T07:45:02Z</time>
      </trkpt>
      <trkpt lat="42.6881215721" lon="-0.1071706787">
        <ele>1319.55</ele>
        <time>2022-07-13T07:45:20Z</time>
      </trkpt>
      <trkpt lat="42.6881619729" lon="-0.1071872748">
        <ele>1319.55</ele>
        <time>2022-07-13T07:45:23Z</time>
      </trkpt>
      <trkpt lat="42.6883139368" lon="-0.1072192937">
        <ele>1320.51</ele>
        <time>2022-07-13T07:45:37Z</time>
      </trkpt>
      <trkpt lat="42.6884454489" lon="-0.1071964111">
        <ele>1320.51</ele>
        <time>2022-07-13T07:45:51Z</time>
      </trkpt>
      <trkpt lat="42.6885087322" lon="-0.1072169468">
        <ele>1320.51</ele>
        <time>2022-07-13T07:45:58Z</time>
      </trkpt>
      <trkpt lat="42.6886505540" lon="-0.1072668191">
        <ele>1318.59</ele>
        <time>2022-07-13T07:46:11Z</time>
      </trkpt>
      <trkpt lat="42.6887947228" lon="-0.1073271688">
        <ele>1318.10</ele>
        <time>2022-07-13T07:46:24Z</time>
      </trkpt>
      <trkpt lat="42.6889008377" lon="-0.1073811483">
        <ele>1319.55</ele>
        <time>2022-07-13T07:46:33Z</time>
      </trkpt>
      <trkpt lat="42.6889312640" lon="-0.1073811483">
        <ele>1320.03</ele>
        <time>2022-07-13T07:46:36Z</time>
      </trkpt>
      <trkpt lat="42.6890872512" lon="-0.1073860936">
        <ele>1320.99</ele>
        <time>2022-07-13T07:46:51Z</time>
      </trkpt>
      <trkpt lat="42.6892139018" lon="-0.1074382290">
        <ele>1320.99</ele>
        <time>2022-07-13T07:47:04Z</time>
      </trkpt>
      <trkpt lat="42.6893579029" lon="-0.1074515563">
        <ele>1320.03</ele>
        <time>2022-07-13T07:47:15Z</time>
      </trkpt>
      <trkpt lat="42.6894599106" lon="-0.1075078826">
        <ele>1320.03</ele>
        <time>2022-07-13T07:47:25Z</time>
      </trkpt>
      <trkpt lat="42.6895419694" lon="-0.1074772049">
        <ele>1320.99</ele>
        <time>2022-07-13T07:47:31Z</time>
      </trkpt>
      <trkpt lat="42.6895903330" lon="-0.1074477844">
        <ele>1320.99</ele>
        <time>2022-07-13T07:47:34Z</time>
      </trkpt>
      <trkpt lat="42.6896495931" lon="-0.1074116584">
        <ele>1320.99</ele>
        <time>2022-07-13T07:47:37Z</time>
      </trkpt>
      <trkpt lat="42.6896983758" lon="-0.1073997561">
        <ele>1319.55</ele>
        <time>2022-07-13T07:47:40Z</time>
      </trkpt>
      <trkpt lat="42.6898072567" lon="-0.1073638815">
        <ele>1319.07</ele>
        <time>2022-07-13T07:47:48Z</time>
      </trkpt>
      <trkpt lat="42.6898829453" lon="-0.1073894463">
        <ele>1318.59</ele>
        <time>2022-07-13T07:47:53Z</time>
      </trkpt>
      <trkpt lat="42.6900047343" lon="-0.1074412465">
        <ele>1318.59</ele>
        <time>2022-07-13T07:48:01Z</time>
      </trkpt>
      <trkpt lat="42.6902627293" lon="-0.1074440125">
        <ele>1318.59</ele>
        <time>2022-07-13T07:48:17Z</time>
      </trkpt>
      <trkpt lat="42.6903313771" lon="-0.1074221358">
        <ele>1318.59</ele>
        <time>2022-07-13T07:48:22Z</time>
      </trkpt>
      <trkpt lat="42.6904019527" lon="-0.1073575951">
        <ele>1319.55</ele>
        <time>2022-07-13T07:48:28Z</time>
      </trkpt>
      <trkpt lat="42.6905973349" lon="-0.1071827486">
        <ele>1319.55</ele>
        <time>2022-07-13T07:48:45Z</time>
      </trkpt>
      <trkpt lat="42.6906728558" lon="-0.1070793159">
        <ele>1320.99</ele>
        <time>2022-07-13T07:48:56Z</time>
      </trkpt>
      <trkpt lat="42.6908040326" lon="-0.1069576107">
        <ele>1322.91</ele>
        <time>2022-07-13T07:49:11Z</time>
      </trkpt>
      <trkpt lat="42.6909581758" lon="-0.1068081614">
        <ele>1324.35</ele>
        <time>2022-07-13T07:49:26Z</time>
      </trkpt>
      <trkpt lat="42.6910320204" lon="-0.1066680998">
        <ele>1324.83</ele>
        <time>2022-07-13T07:49:38Z</time>
      </trkpt>
      <trkpt lat="42.6910926215" lon="-0.1065139566">
        <ele>1327.24</ele>
        <time>2022-07-13T07:49:52Z</time>
      </trkpt>
      <trkpt lat="42.6911482774" lon="-0.1063541975">
        <ele>1326.28</ele>
        <time>2022-07-13T07:50:06Z</time>
      </trkpt>
      <trkpt lat="42.6911940426" lon="-0.1062256191">
        <ele>1327.72</ele>
        <time>2022-07-13T07:50:17Z</time>
      </trkpt>
      <trkpt lat="42.6912926976" lon="-0.1060885750">
        <ele>1330.60</ele>
        <time>2022-07-13T07:50:33Z</time>
      </trkpt>
      <trkpt lat="42.6913459226" lon="-0.1060051750">
        <ele>1333.49</ele>
        <time>2022-07-13T07:50:44Z</time>
      </trkpt>
      <trkpt lat="42.6914370339" lon="-0.1058693044">
        <ele>1333.97</ele>
        <time>2022-07-13T07:50:58Z</time>
      </trkpt>
      <trkpt lat="42.6915265527" lon="-0.1056826394">
        <ele>1336.37</ele>
        <time>2022-07-13T07:51:15Z</time>
      </trkpt>
      <trkpt lat="42.6915842202" lon="-0.1055339444">
        <ele>1339.25</ele>
        <time>2022-07-13T07:51:31Z</time>
      </trkpt>
      <trkpt lat="42.6917287242" lon="-0.1055546477">
        <ele>1342.62</ele>
        <time>2022-07-13T07:51:45Z</time>
      </trkpt>
      <trkpt lat="42.6918545365" lon="-0.1055150013">
        <ele>1342.62</ele>
        <time>2022-07-13T07:51:57Z</time>
      </trkpt>
      <trkpt lat="42.6919741463" lon="-0.1054414082">
        <ele>1342.62</ele>
        <time>2022-07-13T07:52:09Z</time>
      </trkpt>
      <trkpt lat="42.6921792515" lon="-0.1052413322">
        <ele>1343.10</ele>
        <time>2022-07-13T07:52:26Z</time>
      </trkpt>
      <trkpt lat="42.6923224144" lon="-0.1052174438">
        <ele>1343.10</ele>
        <time>2022-07-13T07:52:39Z</time>
      </trkpt>
      <trkpt lat="42.6925749611" lon="-0.1052202098">
        <ele>1344.54</ele>
        <time>2022-07-13T07:52:56Z</time>
      </trkpt>
      <trkpt lat="42.6927350555" lon="-0.1052062120">
        <ele>1343.58</ele>
        <time>2022-07-13T07:53:07Z</time>
      </trkpt>
      <trkpt lat="42.6928807329" lon="-0.1051990036">
        <ele>1341.18</ele>
        <time>2022-07-13T07:53:21Z</time>
      </trkpt>
      <trkpt lat="42.6931158453" lon="-0.1051145978">
        <ele>1340.22</ele>
        <time>2022-07-13T07:53:36Z</time>
      </trkpt>
      <trkpt lat="42.6933113113" lon="-0.1050631329">
        <ele>1338.29</ele>
        <time>2022-07-13T07:53:50Z</time>
      </trkpt>
      <trkpt lat="42.6934528816" lon="-0.1050680783">
        <ele>1335.41</ele>
        <time>2022-07-13T07:54:03Z</time>
      </trkpt>
      <trkpt lat="42.6935083698" lon="-0.1050689165">
        <ele>1334.45</ele>
        <time>2022-07-13T07:54:08Z</time>
      </trkpt>
      <trkpt lat="42.6936655305" lon="-0.1050201338">
        <ele>1335.41</ele>
        <time>2022-07-13T07:54:23Z</time>
      </trkpt>
      <trkpt lat="42.6938083582" lon="-0.1049842592">
        <ele>1335.41</ele>
        <time>2022-07-13T07:54:38Z</time>
      </trkpt>
      <trkpt lat="42.6938170753" lon="-0.1049903780">
        <ele>1335.41</ele>
        <time>2022-07-13T07:54:39Z</time>
      </trkpt>
      <trkpt lat="42.6939289737" lon="-0.1050195470">
        <ele>1333.01</ele>
        <time>2022-07-13T07:54:50Z</time>
      </trkpt>
      <trkpt lat="42.6940601505" lon="-0.1050933078">
        <ele>1332.04</ele>
        <time>2022-07-13T07:55:03Z</time>
      </trkpt>
      <trkpt lat="42.6941480767" lon="-0.1051578484">
        <ele>1333.97</ele>
        <time>2022-07-13T07:55:14Z</time>
      </trkpt>
      <trkpt lat="42.6942651719" lon="-0.1052265801">
        <ele>1333.97</ele>
        <time>2022-07-13T07:55:28Z</time>
      </trkpt>
      <trkpt lat="42.6943558641" lon="-0.1053451840">
        <ele>1331.08</ele>
        <time>2022-07-13T07:55:40Z</time>
      </trkpt>
      <trkpt lat="42.6943752263" lon="-0.1053658873">
        <ele>1331.08</ele>
        <time>2022-07-13T07:55:42Z</time>
      </trkpt>
      <trkpt lat="42.6944498252" lon="-0.1054633688">
        <ele>1328.20</ele>
        <time>2022-07-13T07:55:53Z</time>
      </trkpt>
      <trkpt lat="42.6945691835" lon="-0.1056025084">
        <ele>1325.80</ele>
        <time>2022-07-13T07:56:06Z</time>
      </trkpt>
      <trkpt lat="42.6945701055" lon="-0.1056118123">
        <ele>1325.31</ele>
        <time>2022-07-13T07:56:07Z</time>
      </trkpt>
      <trkpt lat="42.6945785712" lon="-0.1056376286">
        <ele>1324.83</ele>
        <time>2022-07-13T07:56:09Z</time>
      </trkpt>
      <trkpt lat="42.6946856081" lon="-0.1056624390">
        <ele>1325.80</ele>
        <time>2022-07-13T07:56:22Z</time>
      </trkpt>
      <trkpt lat="42.6947457064" lon="-0.1057108864">
        <ele>1325.80</ele>
        <time>2022-07-13T07:56:28Z</time>
      </trkpt>
      <trkpt lat="42.6948721055" lon="-0.1058476791">
        <ele>1326.76</ele>
        <time>2022-07-13T07:56:40Z</time>
      </trkpt>
      <trkpt lat="42.6950639673" lon="-0.1058864873">
        <ele>1329.16</ele>
        <time>2022-07-13T07:56:54Z</time>
      </trkpt>
      <trkpt lat="42.6951667294" lon="-0.1058282331">
        <ele>1332.04</ele>
        <time>2022-07-13T07:57:06Z</time>
      </trkpt>
      <trkpt lat="42.6953603514" lon="-0.1058845595">
        <ele>1333.49</ele>
        <time>2022-07-13T07:57:21Z</time>
      </trkpt>
      <trkpt lat="42.6954055298" lon="-0.1059477590">
        <ele>1333.97</ele>
        <time>2022-07-13T07:57:27Z</time>
      </trkpt>
      <trkpt lat="42.6954685617" lon="-0.1059619244">
        <ele>1333.97</ele>
        <time>2022-07-13T07:57:34Z</time>
      </trkpt>
      <trkpt lat="42.6955559012" lon="-0.1059159916">
        <ele>1333.01</ele>
        <time>2022-07-13T07:57:45Z</time>
      </trkpt>
      <trkpt lat="42.6957321726" lon="-0.1059726533">
        <ele>1331.56</ele>
        <time>2022-07-13T07:58:03Z</time>
      </trkpt>
      <trkpt lat="42.6957636885" lon="-0.1059737429">
        <ele>1333.01</ele>
        <time>2022-07-13T07:58:06Z</time>
      </trkpt>
      <trkpt lat="42.6958245412" lon="-0.1059875730">
        <ele>1333.01</ele>
        <time>2022-07-13T07:58:11Z</time>
      </trkpt>
      <trkpt lat="42.6958543807" lon="-0.1059898362">
        <ele>1333.01</ele>
        <time>2022-07-13T07:58:13Z</time>
      </trkpt>
      <trkpt lat="42.6959913410" lon="-0.1060692966">
        <ele>1331.56</ele>
        <time>2022-07-13T07:58:22Z</time>
      </trkpt>
      <trkpt lat="42.6961738989" lon="-0.1061879005">
        <ele>1329.64</ele>
        <time>2022-07-13T07:58:36Z</time>
      </trkpt>
      <trkpt lat="42.6962562092" lon="-0.1062355097">
        <ele>1328.20</ele>
        <time>2022-07-13T07:58:44Z</time>
      </trkpt>
      <trkpt lat="42.6964662597" lon="-0.1064854581">
        <ele>1328.20</ele>
        <time>2022-07-13T07:58:59Z</time>
      </trkpt>
      <trkpt lat="42.6966071595" lon="-0.1066942513">
        <ele>1328.20</ele>
        <time>2022-07-13T07:59:12Z</time>
      </trkpt>
      <trkpt lat="42.6967662480" lon="-0.1068752166">
        <ele>1329.64</ele>
        <time>2022-07-13T07:59:27Z</time>
      </trkpt>
      <trkpt lat="42.6968277711" lon="-0.1070097461">
        <ele>1330.12</ele>
        <time>2022-07-13T07:59:35Z</time>
      </trkpt>
      <trkpt lat="42.6968291122" lon="-0.1070267614">
        <ele>1330.12</ele>
        <time>2022-07-13T07:59:36Z</time>
      </trkpt>
      <trkpt lat="42.6969415136" lon="-0.1072176173">
        <ele>1331.56</ele>
        <time>2022-07-13T07:59:49Z</time>
      </trkpt>
      <trkpt lat="42.6969623007" lon="-0.1072237361">
        <ele>1331.56</ele>
        <time>2022-07-13T07:59:50Z</time>
      </trkpt>
      <trkpt lat="42.6970747858" lon="-0.1073019393">
        <ele>1332.04</ele>
        <time>2022-07-13T08:00:01Z</time>
      </trkpt>
      <trkpt lat="42.6971177012" lon="-0.1073321141">
        <ele>1332.04</ele>
        <time>2022-07-13T08:00:05Z</time>
      </trkpt>
      <trkpt lat="42.6971661486" lon="-0.1073661447">
        <ele>1332.04</ele>
        <time>2022-07-13T08:00:10Z</time>
      </trkpt>
      <trkpt lat="42.6972149312" lon="-0.1074104011">
        <ele>1332.04</ele>
        <time>2022-07-13T08:00:14Z</time>
      </trkpt>
      <trkpt lat="42.6972356346" lon="-0.1074355468">
        <ele>1332.04</ele>
        <time>2022-07-13T08:00:17Z</time>
      </trkpt>
      <trkpt lat="42.6972484589" lon="-0.1074475329">
        <ele>1332.52</ele>
        <time>2022-07-13T08:00:18Z</time>
      </trkpt>
      <trkpt lat="42.6973138377" lon="-0.1075092237">
        <ele>1333.01</ele>
        <time>2022-07-13T08:00:24Z</time>
      </trkpt>
      <trkpt lat="42.6973310206" lon="-0.1075827330">
        <ele>1332.04</ele>
        <time>2022-07-13T08:00:31Z</time>
      </trkpt>
      <trkpt lat="42.6973517239" lon="-0.1076032687">
        <ele>1332.52</ele>
        <time>2022-07-13T08:00:33Z</time>
      </trkpt>
      <trkpt lat="42.6974337827" lon="-0.1076645404">
        <ele>1333.97</ele>
        <time>2022-07-13T08:00:41Z</time>
      </trkpt>
      <trkpt lat="42.6975856628" lon="-0.1077383012">
        <ele>1332.52</ele>
        <time>2022-07-13T08:00:55Z</time>
      </trkpt>
      <trkpt lat="42.6976521313" lon="-0.1077295002">
        <ele>1332.52</ele>
        <time>2022-07-13T08:01:07Z</time>
      </trkpt>
      <trkpt lat="42.6976649556" lon="-0.1077518798">
        <ele>1332.52</ele>
        <time>2022-07-13T08:01:09Z</time>
      </trkpt>
      <trkpt lat="42.6977354474" lon="-0.1078029256">
        <ele>1332.52</ele>
        <time>2022-07-13T08:01:17Z</time>
      </trkpt>
      <trkpt lat="42.6977336872" lon="-0.1078223716">
        <ele>1332.52</ele>
        <time>2022-07-13T08:01:18Z</time>
      </trkpt>
      <trkpt lat="42.6977368724" lon="-0.1078646164">
        <ele>1332.52</ele>
        <time>2022-07-13T08:01:21Z</time>
      </trkpt>
      <trkpt lat="42.6977915224" lon="-0.1079774369">
        <ele>1333.49</ele>
        <time>2022-07-13T08:01:35Z</time>
      </trkpt>
      <trkpt lat="42.6977878343" lon="-0.1080114674">
        <ele>1333.97</ele>
        <time>2022-07-13T08:01:40Z</time>
      </trkpt>
      <trkpt lat="42.6977562346" lon="-0.1083713863">
        <ele>1333.97</ele>
        <time>2022-07-13T08:01:58Z</time>
      </trkpt>
      <trkpt lat="42.6977317594" lon="-0.1084865537">
        <ele>1333.01</ele>
        <time>2022-07-13T08:02:04Z</time>
      </trkpt>
      <trkpt lat="42.6977262273" lon="-0.1087303832">
        <ele>1332.52</ele>
        <time>2022-07-13T08:02:16Z</time>
      </trkpt>
      <trkpt lat="42.6977393869" lon="-0.1090140268">
        <ele>1332.52</ele>
        <time>2022-07-13T08:02:30Z</time>
      </trkpt>
      <trkpt lat="42.6977335196" lon="-0.1092695072">
        <ele>1332.52</ele>
        <time>2022-07-13T08:02:44Z</time>
      </trkpt>
      <trkpt lat="42.6977577433" lon="-0.1094259135">
        <ele>1333.97</ele>
        <time>2022-07-13T08:02:53Z</time>
      </trkpt>
      <trkpt lat="42.6978102978" lon="-0.1096901111">
        <ele>1333.97</ele>
        <time>2022-07-13T08:03:07Z</time>
      </trkpt>
      <trkpt lat="42.6978406403" lon="-0.1099162549">
        <ele>1334.45</ele>
        <time>2022-07-13T08:03:19Z</time>
      </trkpt>
      <trkpt lat="42.6978667080" lon="-0.1099685580">
        <ele>1334.45</ele>
        <time>2022-07-13T08:03:23Z</time>
      </trkpt>
      <trkpt lat="42.6979092043" lon="-0.1101913489">
        <ele>1334.93</ele>
        <time>2022-07-13T08:03:36Z</time>
      </trkpt>
      <trkpt lat="42.6979368646" lon="-0.1102833822">
        <ele>1334.93</ele>
        <time>2022-07-13T08:03:42Z</time>
      </trkpt>
      <trkpt lat="42.6979140658" lon="-0.1104242820">
        <ele>1334.93</ele>
        <time>2022-07-13T08:03:53Z</time>
      </trkpt>
      <trkpt lat="42.6978615951" lon="-0.1105064247">
        <ele>1335.41</ele>
        <time>2022-07-13T08:03:59Z</time>
      </trkpt>
      <trkpt lat="42.6979010738" lon="-0.1108064968">
        <ele>1335.41</ele>
        <time>2022-07-13T08:04:15Z</time>
      </trkpt>
      <trkpt lat="42.6978866570" lon="-0.1110696048">
        <ele>1335.89</ele>
        <time>2022-07-13T08:04:29Z</time>
      </trkpt>
      <trkpt lat="42.6978466753" lon="-0.1111649070">
        <ele>1335.89</ele>
        <time>2022-07-13T08:04:34Z</time>
      </trkpt>
      <trkpt lat="42.6978329290" lon="-0.1111830957">
        <ele>1335.89</ele>
        <time>2022-07-13T08:04:36Z</time>
      </trkpt>
      <trkpt lat="42.6977582462" lon="-0.1114404202">
        <ele>1336.37</ele>
        <time>2022-07-13T08:04:48Z</time>
      </trkpt>
      <trkpt lat="42.6977108885" lon="-0.1116486266">
        <ele>1337.81</ele>
        <time>2022-07-13T08:05:04Z</time>
      </trkpt>
      <trkpt lat="42.6977003273" lon="-0.1117906161">
        <ele>1340.22</ele>
        <time>2022-07-13T08:05:17Z</time>
      </trkpt>
      <trkpt lat="42.6977074519" lon="-0.1118279994">
        <ele>1341.66</ele>
        <time>2022-07-13T08:05:21Z</time>
      </trkpt>
      <trkpt lat="42.6977546420" lon="-0.1119705755">
        <ele>1342.14</ele>
        <time>2022-07-13T08:05:31Z</time>
      </trkpt>
      <trkpt lat="42.6978212781" lon="-0.1120688953">
        <ele>1342.14</ele>
        <time>2022-07-13T08:05:39Z</time>
      </trkpt>
      <trkpt lat="42.6978484355" lon="-0.1120884251">
        <ele>1340.70</ele>
        <time>2022-07-13T08:05:42Z</time>
      </trkpt>
      <trkpt lat="42.6979907602" lon="-0.1121731661">
        <ele>1338.77</ele>
        <time>2022-07-13T08:05:56Z</time>
      </trkpt>
      <trkpt lat="42.6980040036" lon="-0.1121887565">
        <ele>1338.77</ele>
        <time>2022-07-13T08:05:57Z</time>
      </trkpt>
      <trkpt lat="42.6981955301" lon="-0.1123778522">
        <ele>1338.29</ele>
        <time>2022-07-13T08:06:12Z</time>
      </trkpt>
      <trkpt lat="42.6984070055" lon="-0.1125419699">
        <ele>1338.29</ele>
        <time>2022-07-13T08:06:27Z</time>
      </trkpt>
      <trkpt lat="42.6985602267" lon="-0.1127036568">
        <ele>1338.29</ele>
        <time>2022-07-13T08:06:41Z</time>
      </trkpt>
      <trkpt lat="42.6986993663" lon="-0.1129981969">
        <ele>1339.73</ele>
        <time>2022-07-13T08:06:57Z</time>
      </trkpt>
      <trkpt lat="42.6988105942" lon="-0.1132340636">
        <ele>1339.73</ele>
        <time>2022-07-13T08:07:11Z</time>
      </trkpt>
      <trkpt lat="42.6989173796" lon="-0.1134752110">
        <ele>1340.22</ele>
        <time>2022-07-13T08:07:25Z</time>
      </trkpt>
      <trkpt lat="42.6990071498" lon="-0.1137137599">
        <ele>1340.22</ele>
        <time>2022-07-13T08:07:39Z</time>
      </trkpt>
      <trkpt lat="42.6990477182" lon="-0.1138854213">
        <ele>1340.22</ele>
        <time>2022-07-13T08:07:49Z</time>
      </trkpt>
      <trkpt lat="42.6991270948" lon="-0.1141362078">
        <ele>1341.18</ele>
        <time>2022-07-13T08:08:04Z</time>
      </trkpt>
      <trkpt lat="42.6992547512" lon="-0.1143607590">
        <ele>1341.66</ele>
        <time>2022-07-13T08:08:20Z</time>
      </trkpt>
      <trkpt lat="42.6992675755" lon="-0.1143893413">
        <ele>1341.66</ele>
        <time>2022-07-13T08:08:22Z</time>
      </trkpt>
      <trkpt lat="42.6993634645" lon="-0.1146527845">
        <ele>1342.14</ele>
        <time>2022-07-13T08:08:37Z</time>
      </trkpt>
      <trkpt lat="42.6994251553" lon="-0.1148599014">
        <ele>1342.62</ele>
        <time>2022-07-13T08:08:49Z</time>
      </trkpt>
      <trkpt lat="42.6995089743" lon="-0.1151316427">
        <ele>1343.10</ele>
        <time>2022-07-13T08:09:03Z</time>
      </trkpt>
      <trkpt lat="42.6995556615" lon="-0.1153540984">
        <ele>1343.58</ele>
        <time>2022-07-13T08:09:15Z</time>
      </trkpt>
      <trkpt lat="42.6995852496" lon="-0.1154842693">
        <ele>1343.58</ele>
        <time>2022-07-13T08:09:22Z</time>
      </trkpt>
      <trkpt lat="42.6996323559" lon="-0.1158067212">
        <ele>1344.06</ele>
        <time>2022-07-13T08:09:39Z</time>
      </trkpt>
      <trkpt lat="42.6997239701" lon="-0.1161036920">
        <ele>1344.06</ele>
        <time>2022-07-13T08:09:56Z</time>
      </trkpt>
      <trkpt lat="42.6998308394" lon="-0.1162631158">
        <ele>1345.50</ele>
        <time>2022-07-13T08:10:10Z</time>
      </trkpt>
      <trkpt lat="42.6999352779" lon="-0.1164712384">
        <ele>1345.50</ele>
        <time>2022-07-13T08:10:24Z</time>
      </trkpt>
      <trkpt lat="42.6999633573" lon="-0.1165763475">
        <ele>1345.50</ele>
        <time>2022-07-13T08:10:30Z</time>
      </trkpt>
      <trkpt lat="42.7000204381" lon="-0.1167206839">
        <ele>1345.50</ele>
        <time>2022-07-13T08:10:38Z</time>
      </trkpt>
      <trkpt lat="42.7001298219" lon="-0.1169178262">
        <ele>1346.46</ele>
        <time>2022-07-13T08:10:52Z</time>
      </trkpt>
      <trkpt lat="42.7001981344" lon="-0.1170282997">
        <ele>1346.94</ele>
        <time>2022-07-13T08:11:00Z</time>
      </trkpt>
      <trkpt lat="42.7002566401" lon="-0.1171609852">
        <ele>1347.91</ele>
        <time>2022-07-13T08:11:08Z</time>
      </trkpt>
      <trkpt lat="42.7002698835" lon="-0.1172027271">
        <ele>1348.39</ele>
        <time>2022-07-13T08:11:11Z</time>
      </trkpt>
      <trkpt lat="42.7003801055" lon="-0.1174423657">
        <ele>1348.39</ele>
        <time>2022-07-13T08:11:27Z</time>
      </trkpt>
      <trkpt lat="42.7004952729" lon="-0.1176699344">
        <ele>1348.87</ele>
        <time>2022-07-13T08:11:41Z</time>
      </trkpt>
      <trkpt lat="42.7006014716" lon="-0.1177863590">
        <ele>1350.31</ele>
        <time>2022-07-13T08:11:54Z</time>
      </trkpt>
      <trkpt lat="42.7006752323" lon="-0.1178375725">
        <ele>1351.27</ele>
        <time>2022-07-13T08:12:00Z</time>
      </trkpt>
      <trkpt lat="42.7006826922" lon="-0.1178501453">
        <ele>1351.27</ele>
        <time>2022-07-13T08:12:01Z</time>
      </trkpt>
      <trkpt lat="42.7006930020" lon="-0.1178584434">
        <ele>1351.27</ele>
        <time>2022-07-13T08:12:02Z</time>
      </trkpt>
      <trkpt lat="42.7008276153" lon="-0.1179740299">
        <ele>1352.23</ele>
        <time>2022-07-13T08:12:15Z</time>
      </trkpt>
      <trkpt lat="42.7009851951" lon="-0.1180777978">
        <ele>1352.71</ele>
        <time>2022-07-13T08:12:28Z</time>
      </trkpt>
      <trkpt lat="42.7011832595" lon="-0.1182161830">
        <ele>1353.19</ele>
        <time>2022-07-13T08:12:43Z</time>
      </trkpt>
      <trkpt lat="42.7013661526" lon="-0.1183669735">
        <ele>1354.15</ele>
        <time>2022-07-13T08:12:58Z</time>
      </trkpt>
      <trkpt lat="42.7015240677" lon="-0.1184696518">
        <ele>1356.08</ele>
        <time>2022-07-13T08:13:12Z</time>
      </trkpt>
      <trkpt lat="42.7016228903" lon="-0.1185685582">
        <ele>1357.52</ele>
        <time>2022-07-13T08:13:26Z</time>
      </trkpt>
      <trkpt lat="42.7017322741" lon="-0.1186719909">
        <ele>1359.44</ele>
        <time>2022-07-13T08:13:40Z</time>
      </trkpt>
      <trkpt lat="42.7017927077" lon="-0.1187488530">
        <ele>1361.36</ele>
        <time>2022-07-13T08:13:50Z</time>
      </trkpt>
      <trkpt lat="42.7019284945" lon="-0.1190013997">
        <ele>1361.36</ele>
        <time>2022-07-13T08:14:06Z</time>
      </trkpt>
      <trkpt lat="42.7020537201" lon="-0.1191027369">
        <ele>1362.33</ele>
        <time>2022-07-13T08:14:20Z</time>
      </trkpt>
      <trkpt lat="42.7020505350" lon="-0.1190460753">
        <ele>1362.81</ele>
        <time>2022-07-13T08:14:25Z</time>
      </trkpt>
      <trkpt lat="42.7020402253" lon="-0.1190184988">
        <ele>1363.29</ele>
        <time>2022-07-13T08:14:27Z</time>
      </trkpt>
      <trkpt lat="42.7019847371" lon="-0.1188185904">
        <ele>1364.73</ele>
        <time>2022-07-13T08:14:41Z</time>
      </trkpt>
      <trkpt lat="42.7019546460" lon="-0.1186527964">
        <ele>1366.65</ele>
        <time>2022-07-13T08:14:55Z</time>
      </trkpt>
      <trkpt lat="42.7019362897" lon="-0.1186398044">
        <ele>1367.13</ele>
        <time>2022-07-13T08:14:57Z</time>
      </trkpt>
      <trkpt lat="42.7019316796" lon="-0.1186299138">
        <ele>1367.13</ele>
        <time>2022-07-13T08:14:58Z</time>
      </trkpt>
      <trkpt lat="42.7019013371" lon="-0.1184494514">
        <ele>1368.57</ele>
        <time>2022-07-13T08:15:12Z</time>
      </trkpt>
      <trkpt lat="42.7018892672" lon="-0.1183585078">
        <ele>1369.54</ele>
        <time>2022-07-13T08:15:19Z</time>
      </trkpt>
      <trkpt lat="42.7019041032" lon="-0.1183363795">
        <ele>1370.02</ele>
        <time>2022-07-13T08:15:21Z</time>
      </trkpt>
      <trkpt lat="42.7019595914" lon="-0.1183445938">
        <ele>1371.46</ele>
        <time>2022-07-13T08:15:29Z</time>
      </trkpt>
      <trkpt lat="42.7020336874" lon="-0.1184259821">
        <ele>1372.90</ele>
        <time>2022-07-13T08:15:39Z</time>
      </trkpt>
      <trkpt lat="42.7021675464" lon="-0.1185759343">
        <ele>1375.78</ele>
        <time>2022-07-13T08:15:54Z</time>
      </trkpt>
      <trkpt lat="42.7023361903" lon="-0.1186775230">
        <ele>1378.67</ele>
        <time>2022-07-13T08:16:08Z</time>
      </trkpt>
      <trkpt lat="42.7024713065" lon="-0.1187006570">
        <ele>1381.55</ele>
        <time>2022-07-13T08:16:22Z</time>
      </trkpt>
      <trkpt lat="42.7026411239" lon="-0.1187609229">
        <ele>1383.96</ele>
        <time>2022-07-13T08:16:36Z</time>
      </trkpt>
      <trkpt lat="42.7027437184" lon="-0.1187823806">
        <ele>1386.84</ele>
        <time>2022-07-13T08:16:45Z</time>
      </trkpt>
      <trkpt lat="42.7029554453" lon="-0.1188807003">
        <ele>1389.24</ele>
        <time>2022-07-13T08:17:05Z</time>
      </trkpt>
      <trkpt lat="42.7031015418" lon="-0.1190415490">
        <ele>1392.13</ele>
        <time>2022-07-13T08:17:22Z</time>
      </trkpt>
      <trkpt lat="42.7031837683" lon="-0.1191534474">
        <ele>1394.53</ele>
        <time>2022-07-13T08:17:31Z</time>
      </trkpt>
      <trkpt lat="42.7032597922" lon="-0.1192660164">
        <ele>1395.49</ele>
        <time>2022-07-13T08:17:42Z</time>
      </trkpt>
      <trkpt lat="42.7033775579" lon="-0.1194001269">
        <ele>1397.89</ele>
        <time>2022-07-13T08:17:54Z</time>
      </trkpt>
      <trkpt lat="42.7034918033" lon="-0.1194827724">
        <ele>1399.82</ele>
        <time>2022-07-13T08:18:07Z</time>
      </trkpt>
      <trkpt lat="42.7035864349" lon="-0.1195940841">
        <ele>1401.74</ele>
        <time>2022-07-13T08:18:20Z</time>
      </trkpt>
      <trkpt lat="42.7036908735" lon="-0.1197079942">
        <ele>1403.66</ele>
        <time>2022-07-13T08:18:32Z</time>
      </trkpt>
      <trkpt lat="42.7038400713" lon="-0.1197780669">
        <ele>1406.07</ele>
        <time>2022-07-13T08:18:46Z</time>
      </trkpt>
      <trkpt lat="42.7039233875" lon="-0.1200042944">
        <ele>1407.99</ele>
        <time>2022-07-13T08:18:58Z</time>
      </trkpt>
      <trkpt lat="42.7040014230" lon="-0.1201158576">
        <ele>1410.39</ele>
        <time>2022-07-13T08:19:09Z</time>
      </trkpt>
      <trkpt lat="42.7041678876" lon="-0.1201931387">
        <ele>1413.28</ele>
        <time>2022-07-13T08:19:26Z</time>
      </trkpt>
      <trkpt lat="42.7042818815" lon="-0.1202288456">
        <ele>1415.68</ele>
        <time>2022-07-13T08:19:39Z</time>
      </trkpt>
      <trkpt lat="42.7043436561" lon="-0.1202233974">
        <ele>1417.12</ele>
        <time>2022-07-13T08:19:47Z</time>
      </trkpt>
      <trkpt lat="42.7043594141" lon="-0.1202186197">
        <ele>1417.12</ele>
        <time>2022-07-13T08:19:48Z</time>
      </trkpt>
      <trkpt lat="42.7044689655" lon="-0.1202737726">
        <ele>1418.56</ele>
        <time>2022-07-13T08:20:00Z</time>
      </trkpt>
      <trkpt lat="42.7044972964" lon="-0.1202930510">
        <ele>1419.04</ele>
        <time>2022-07-13T08:20:03Z</time>
      </trkpt>
      <trkpt lat="42.7046390343" lon="-0.1204262394">
        <ele>1420.97</ele>
        <time>2022-07-13T08:20:19Z</time>
      </trkpt>
      <trkpt lat="42.7046778426" lon="-0.1204622816">
        <ele>1420.97</ele>
        <time>2022-07-13T08:20:22Z</time>
      </trkpt>
      <trkpt lat="42.7046880685" lon="-0.1204754412">
        <ele>1420.97</ele>
        <time>2022-07-13T08:20:23Z</time>
      </trkpt>
      <trkpt lat="42.7046786807" lon="-0.1206773613">
        <ele>1422.41</ele>
        <time>2022-07-13T08:20:35Z</time>
      </trkpt>
      <trkpt lat="42.7046714723" lon="-0.1207206957">
        <ele>1422.89</ele>
        <time>2022-07-13T08:20:36Z</time>
      </trkpt>
      <trkpt lat="42.7047050837" lon="-0.1209180895">
        <ele>1424.33</ele>
        <time>2022-07-13T08:20:49Z</time>
      </trkpt>
      <trkpt lat="42.7047664393" lon="-0.1210807823">
        <ele>1425.29</ele>
        <time>2022-07-13T08:21:01Z</time>
      </trkpt>
      <trkpt lat="42.7047516871" lon="-0.1212275494">
        <ele>1426.73</ele>
        <time>2022-07-13T08:21:08Z</time>
      </trkpt>
      <trkpt lat="42.7048641723" lon="-0.1214274578">
        <ele>1428.18</ele>
        <time>2022-07-13T08:21:22Z</time>
      </trkpt>
      <trkpt lat="42.7049451414" lon="-0.1215484925">
        <ele>1430.10</ele>
        <time>2022-07-13T08:21:34Z</time>
      </trkpt>
      <trkpt lat="42.7050245181" lon="-0.1216049865">
        <ele>1431.54</ele>
        <time>2022-07-13T08:21:42Z</time>
      </trkpt>
      <trkpt lat="42.7051462233" lon="-0.1216965169">
        <ele>1433.46</ele>
        <time>2022-07-13T08:21:54Z</time>
      </trkpt>
      <trkpt lat="42.7051942516" lon="-0.1218195632">
        <ele>1434.42</ele>
        <time>2022-07-13T08:22:02Z</time>
      </trkpt>
      <trkpt lat="42.7052834351" lon="-0.1219308749">
        <ele>1436.83</ele>
        <time>2022-07-13T08:22:16Z</time>
      </trkpt>
      <trkpt lat="42.7053255122" lon="-0.1219794899">
        <ele>1437.79</ele>
        <time>2022-07-13T08:22:21Z</time>
      </trkpt>
      <trkpt lat="42.7053784858" lon="-0.1221459545">
        <ele>1439.23</ele>
        <time>2022-07-13T08:22:35Z</time>
      </trkpt>
      <trkpt lat="42.7054272685" lon="-0.1223664824">
        <ele>1441.15</ele>
        <time>2022-07-13T08:22:49Z</time>
      </trkpt>
      <trkpt lat="42.7054392546" lon="-0.1224879362">
        <ele>1442.11</ele>
        <time>2022-07-13T08:22:55Z</time>
      </trkpt>
      <trkpt lat="42.7053405158" lon="-0.1229268126">
        <ele>1443.08</ele>
        <time>2022-07-13T08:23:09Z</time>
      </trkpt>
      <trkpt lat="42.7053302061" lon="-0.1230690535">
        <ele>1443.08</ele>
        <time>2022-07-13T08:23:16Z</time>
      </trkpt>
      <trkpt lat="42.7052607201" lon="-0.1235512644">
        <ele>1443.08</ele>
        <time>2022-07-13T08:23:31Z</time>
      </trkpt>
      <trkpt lat="42.7052894700" lon="-0.1240167953">
        <ele>1444.52</ele>
        <time>2022-07-13T08:23:45Z</time>
      </trkpt>
      <trkpt lat="42.7052983548" lon="-0.1243869402">
        <ele>1445.00</ele>
        <time>2022-07-13T08:24:03Z</time>
      </trkpt>
      <trkpt lat="42.7053302899" lon="-0.1245544944">
        <ele>1445.96</ele>
        <time>2022-07-13T08:24:13Z</time>
      </trkpt>
      <trkpt lat="42.7054696810" lon="-0.1244766265">
        <ele>1445.96</ele>
        <time>2022-07-13T08:24:16Z</time>
      </trkpt>
      <trkpt lat="42.7056702599" lon="-0.1244641375">
        <ele>1448.84</ele>
        <time>2022-07-13T08:24:32Z</time>
      </trkpt>
      <trkpt lat="42.7056353912" lon="-0.1248483639">
        <ele>1451.25</ele>
        <time>2022-07-13T08:24:48Z</time>
      </trkpt>
      <trkpt lat="42.7057579346" lon="-0.1249812171">
        <ele>1453.65</ele>
        <time>2022-07-13T08:25:02Z</time>
      </trkpt>
      <trkpt lat="42.7058008499" lon="-0.1249948796">
        <ele>1454.61</ele>
        <time>2022-07-13T08:25:06Z</time>
      </trkpt>
      <trkpt lat="42.7059824020" lon="-0.1250422373">
        <ele>1457.02</ele>
        <time>2022-07-13T08:25:20Z</time>
      </trkpt>
      <trkpt lat="42.7059909515" lon="-0.1250465121">
        <ele>1457.02</ele>
        <time>2022-07-13T08:25:21Z</time>
      </trkpt>
      <trkpt lat="42.7061906923" lon="-0.1250026748">
        <ele>1458.46</ele>
        <time>2022-07-13T08:25:34Z</time>
      </trkpt>
      <trkpt lat="42.7064468432" lon="-0.1248238888">
        <ele>1459.90</ele>
        <time>2022-07-13T08:25:49Z</time>
      </trkpt>
      <trkpt lat="42.7065373678" lon="-0.1249449234">
        <ele>1460.86</ele>
        <time>2022-07-13T08:25:59Z</time>
      </trkpt>
      <trkpt lat="42.7066998091" lon="-0.1250395551">
        <ele>1461.82</ele>
        <time>2022-07-13T08:26:12Z</time>
      </trkpt>
      <trkpt lat="42.7068535332" lon="-0.1250567380">
        <ele>1462.30</ele>
        <time>2022-07-13T08:26:21Z</time>
      </trkpt>
      <trkpt lat="42.7068659384" lon="-0.1250679698">
        <ele>1462.30</ele>
        <time>2022-07-13T08:26:22Z</time>
      </trkpt>
      <trkpt lat="42.7070591412" lon="-0.1248975657">
        <ele>1462.78</ele>
        <time>2022-07-13T08:26:37Z</time>
      </trkpt>
      <trkpt lat="42.7070847061" lon="-0.1248594280">
        <ele>1462.78</ele>
        <time>2022-07-13T08:26:43Z</time>
      </trkpt>
      <trkpt lat="42.7071547788" lon="-0.1248108968">
        <ele>1463.26</ele>
        <time>2022-07-13T08:26:50Z</time>
      </trkpt>
      <trkpt lat="42.7072474826" lon="-0.1247722562">
        <ele>1463.26</ele>
        <time>2022-07-13T08:26:58Z</time>
      </trkpt>
      <trkpt lat="42.7074451279" lon="-0.1248104777">
        <ele>1464.23</ele>
        <time>2022-07-13T08:27:12Z</time>
      </trkpt>
      <trkpt lat="42.7074578684" lon="-0.1248150878">
        <ele>1464.23</ele>
        <time>2022-07-13T08:27:13Z</time>
      </trkpt>
      <trkpt lat="42.7075122669" lon="-0.1248221286">
        <ele>1464.23</ele>
        <time>2022-07-13T08:27:17Z</time>
      </trkpt>
      <trkpt lat="42.7075615525" lon="-0.1248361263">
        <ele>1464.23</ele>
        <time>2022-07-13T08:27:21Z</time>
      </trkpt>
      <trkpt lat="42.7077414282" lon="-0.1248388086">
        <ele>1464.71</ele>
        <time>2022-07-13T08:27:34Z</time>
      </trkpt>
      <trkpt lat="42.7079558372" lon="-0.1247663889">
        <ele>1464.71</ele>
        <time>2022-07-13T08:27:46Z</time>
      </trkpt>
      <trkpt lat="42.7080258261" lon="-0.1247258205">
        <ele>1463.26</ele>
        <time>2022-07-13T08:27:50Z</time>
      </trkpt>
      <trkpt lat="42.7080706693" lon="-0.1247165166">
        <ele>1463.26</ele>
        <time>2022-07-13T08:27:53Z</time>
      </trkpt>
      <trkpt lat="42.7081236430" lon="-0.1247422490">
        <ele>1462.78</ele>
        <time>2022-07-13T08:27:57Z</time>
      </trkpt>
      <trkpt lat="42.7082946338" lon="-0.1247932110">
        <ele>1462.78</ele>
        <time>2022-07-13T08:28:11Z</time>
      </trkpt>
      <trkpt lat="42.7083327714" lon="-0.1247974858">
        <ele>1462.78</ele>
        <time>2022-07-13T08:28:14Z</time>
      </trkpt>
      <trkpt lat="42.7083507087" lon="-0.1247939654">
        <ele>1462.78</ele>
        <time>2022-07-13T08:28:15Z</time>
      </trkpt>
      <trkpt lat="42.7083699033" lon="-0.1247871760">
        <ele>1462.78</ele>
        <time>2022-07-13T08:28:16Z</time>
      </trkpt>
      <trkpt lat="42.7084468491" lon="-0.1247897744">
        <ele>1462.78</ele>
        <time>2022-07-13T08:28:20Z</time>
      </trkpt>
      <trkpt lat="42.7085670456" lon="-0.1249560714">
        <ele>1462.78</ele>
        <time>2022-07-13T08:28:31Z</time>
      </trkpt>
      <trkpt lat="42.7086349390" lon="-0.1250418182">
        <ele>1462.78</ele>
        <time>2022-07-13T08:28:39Z</time>
      </trkpt>
      <trkpt lat="42.7086898405" lon="-0.1251273975">
        <ele>1462.78</ele>
        <time>2022-07-13T08:28:45Z</time>
      </trkpt>
      <trkpt lat="42.7087249607" lon="-0.1251510344">
        <ele>1462.78</ele>
        <time>2022-07-13T08:28:48Z</time>
      </trkpt>
      <trkpt lat="42.7088767570" lon="-0.1252098754">
        <ele>1462.30</ele>
        <time>2022-07-13T08:28:59Z</time>
      </trkpt>
      <trkpt lat="42.7088972926" lon="-0.1252128929">
        <ele>1462.30</ele>
        <time>2022-07-13T08:29:00Z</time>
      </trkpt>
      <trkpt lat="42.7089393698" lon="-0.1252270583">
        <ele>1462.30</ele>
        <time>2022-07-13T08:29:02Z</time>
      </trkpt>
      <trkpt lat="42.7090026531" lon="-0.1253099553">
        <ele>1462.30</ele>
        <time>2022-07-13T08:29:08Z</time>
      </trkpt>
      <trkpt lat="42.7090666071" lon="-0.1255029067">
        <ele>1463.74</ele>
        <time>2022-07-13T08:29:16Z</time>
      </trkpt>
      <trkpt lat="42.7091720514" lon="-0.1256482489">
        <ele>1464.71</ele>
        <time>2022-07-13T08:29:26Z</time>
      </trkpt>
      <trkpt lat="42.7092421241" lon="-0.1258409489">
        <ele>1466.15</ele>
        <time>2022-07-13T08:29:38Z</time>
      </trkpt>
      <trkpt lat="42.7093798388" lon="-0.1259255223">
        <ele>1467.11</ele>
        <time>2022-07-13T08:29:49Z</time>
      </trkpt>
      <trkpt lat="42.7095116023" lon="-0.1259371731">
        <ele>1468.07</ele>
        <time>2022-07-13T08:29:58Z</time>
      </trkpt>
      <trkpt lat="42.7095386758" lon="-0.1259352453">
        <ele>1468.55</ele>
        <time>2022-07-13T08:30:00Z</time>
      </trkpt>
      <trkpt lat="42.7098052204" lon="-0.1259047352">
        <ele>1470.47</ele>
        <time>2022-07-13T08:30:17Z</time>
      </trkpt>
      <trkpt lat="42.7098317072" lon="-0.1258834451">
        <ele>1469.99</ele>
        <time>2022-07-13T08:30:19Z</time>
      </trkpt>
      <trkpt lat="42.7098421007" lon="-0.1258794218">
        <ele>1469.99</ele>
        <time>2022-07-13T08:30:20Z</time>
      </trkpt>
      <trkpt lat="42.7100886963" lon="-0.1257617399">
        <ele>1471.44</ele>
        <time>2022-07-13T08:30:36Z</time>
      </trkpt>
      <trkpt lat="42.7103277482" lon="-0.1256453991">
        <ele>1472.88</ele>
        <time>2022-07-13T08:30:51Z</time>
      </trkpt>
      <trkpt lat="42.7105285786" lon="-0.1255418826">
        <ele>1473.84</ele>
        <time>2022-07-13T08:31:07Z</time>
      </trkpt>
      <trkpt lat="42.7107325941" lon="-0.1254926808">
        <ele>1475.28</ele>
        <time>2022-07-13T08:31:20Z</time>
      </trkpt>
      <trkpt lat="42.7108734939" lon="-0.1254971232">
        <ele>1475.28</ele>
        <time>2022-07-13T08:31:30Z</time>
      </trkpt>
      <trkpt lat="42.7108895872" lon="-0.1254942734">
        <ele>1475.28</ele>
        <time>2022-07-13T08:31:31Z</time>
      </trkpt>
      <trkpt lat="42.7109057643" lon="-0.1254920941">
        <ele>1475.28</ele>
        <time>2022-07-13T08:31:32Z</time>
      </trkpt>
      <trkpt lat="42.7111434750" lon="-0.1255593169">
        <ele>1476.24</ele>
        <time>2022-07-13T08:31:47Z</time>
      </trkpt>
      <trkpt lat="42.7113223448" lon="-0.1256233547">
        <ele>1476.24</ele>
        <time>2022-07-13T08:32:01Z</time>
      </trkpt>
      <trkpt lat="42.7114541084" lon="-0.1256847102">
        <ele>1476.72</ele>
        <time>2022-07-13T08:32:12Z</time>
      </trkpt>
      <trkpt lat="42.7115015499" lon="-0.1257616561">
        <ele>1476.24</ele>
        <time>2022-07-13T08:32:18Z</time>
      </trkpt>
      <trkpt lat="42.7115652524" lon="-0.1259954274">
        <ele>1477.20</ele>
        <time>2022-07-13T08:32:28Z</time>
      </trkpt>
      <trkpt lat="42.7117465530" lon="-0.1261531748">
        <ele>1478.16</ele>
        <time>2022-07-13T08:32:39Z</time>
      </trkpt>
      <trkpt lat="42.7118555177" lon="-0.1262509078">
        <ele>1478.65</ele>
        <time>2022-07-13T08:32:49Z</time>
      </trkpt>
      <trkpt lat="42.7119327150" lon="-0.1262789872">
        <ele>1479.13</ele>
        <time>2022-07-13T08:32:54Z</time>
      </trkpt>
      <trkpt lat="42.7119484730" lon="-0.1262820885">
        <ele>1479.13</ele>
        <time>2022-07-13T08:32:55Z</time>
      </trkpt>
      <trkpt lat="42.7119690087" lon="-0.1262865309">
        <ele>1479.61</ele>
        <time>2022-07-13T08:32:57Z</time>
      </trkpt>
      <trkpt lat="42.7119744569" lon="-0.1262897160">
        <ele>1479.61</ele>
        <time>2022-07-13T08:32:58Z</time>
      </trkpt>
      <trkpt lat="42.7120234910" lon="-0.1262851059">
        <ele>1479.61</ele>
        <time>2022-07-13T08:33:01Z</time>
      </trkpt>
      <trkpt lat="42.7121187933" lon="-0.1263015345">
        <ele>1480.09</ele>
        <time>2022-07-13T08:33:07Z</time>
      </trkpt>
      <trkpt lat="42.7121557575" lon="-0.1263073180">
        <ele>1480.57</ele>
        <time>2022-07-13T08:33:09Z</time>
      </trkpt>
      <trkpt lat="42.7121788077" lon="-0.1263170410">
        <ele>1480.57</ele>
        <time>2022-07-13T08:33:11Z</time>
      </trkpt>
      <trkpt lat="42.7121927217" lon="-0.1263270993">
        <ele>1480.57</ele>
        <time>2022-07-13T08:33:12Z</time>
      </trkpt>
      <trkpt lat="42.7122720983" lon="-0.1263514068">
        <ele>1480.57</ele>
        <time>2022-07-13T08:33:18Z</time>
      </trkpt>
      <trkpt lat="42.7123039495" lon="-0.1263515744">
        <ele>1480.57</ele>
        <time>2022-07-13T08:33:20Z</time>
      </trkpt>
      <trkpt lat="42.7124867588" lon="-0.1264418475">
        <ele>1482.01</ele>
        <time>2022-07-13T08:33:36Z</time>
      </trkpt>
      <trkpt lat="42.7125839051" lon="-0.1264555939">
        <ele>1482.01</ele>
        <time>2022-07-13T08:33:44Z</time>
      </trkpt>
      <trkpt lat="42.7126295026" lon="-0.1264744531">
        <ele>1482.49</ele>
        <time>2022-07-13T08:33:48Z</time>
      </trkpt>
      <trkpt lat="42.7127231285" lon="-0.1265206374">
        <ele>1482.49</ele>
        <time>2022-07-13T08:33:55Z</time>
      </trkpt>
      <trkpt lat="42.7127382159" lon="-0.1265288517">
        <ele>1482.49</ele>
        <time>2022-07-13T08:33:56Z</time>
      </trkpt>
      <trkpt lat="42.7129325084" lon="-0.1265778858">
        <ele>1482.49</ele>
        <time>2022-07-13T08:34:09Z</time>
      </trkpt>
      <trkpt lat="42.7131420560" lon="-0.1266384032">
        <ele>1483.45</ele>
        <time>2022-07-13T08:34:23Z</time>
      </trkpt>
      <trkpt lat="42.7132421359" lon="-0.1266798098">
        <ele>1484.41</ele>
        <time>2022-07-13T08:34:31Z</time>
      </trkpt>
      <trkpt lat="42.7133806888" lon="-0.1267643832">
        <ele>1484.89</ele>
        <time>2022-07-13T08:34:42Z</time>
      </trkpt>
      <trkpt lat="42.7133933455" lon="-0.1267653052">
        <ele>1485.37</ele>
        <time>2022-07-13T08:34:43Z</time>
      </trkpt>
      <trkpt lat="42.7136236802" lon="-0.1268258225">
        <ele>1486.34</ele>
        <time>2022-07-13T08:34:58Z</time>
      </trkpt>
      <trkpt lat="42.7138684317" lon="-0.1268977392">
        <ele>1487.78</ele>
        <time>2022-07-13T08:35:15Z</time>
      </trkpt>
      <trkpt lat="42.7139703557" lon="-0.1269873418">
        <ele>1489.22</ele>
        <time>2022-07-13T08:35:27Z</time>
      </trkpt>
      <trkpt lat="42.7139874548" lon="-0.1269984897">
        <ele>1489.22</ele>
        <time>2022-07-13T08:35:28Z</time>
      </trkpt>
      <trkpt lat="42.7140281908" lon="-0.1270194445">
        <ele>1489.70</ele>
        <time>2022-07-13T08:35:31Z</time>
      </trkpt>
      <trkpt lat="42.7142347209" lon="-0.1270755194">
        <ele>1490.18</ele>
        <time>2022-07-13T08:35:45Z</time>
      </trkpt>
      <trkpt lat="42.7144445200" lon="-0.1271305885">
        <ele>1490.66</ele>
        <time>2022-07-13T08:35:59Z</time>
      </trkpt>
      <trkpt lat="42.7146292571" lon="-0.1271761861">
        <ele>1492.58</ele>
        <time>2022-07-13T08:36:13Z</time>
      </trkpt>
      <trkpt lat="42.7146602701" lon="-0.1271973923">
        <ele>1493.06</ele>
        <time>2022-07-13T08:36:16Z</time>
      </trkpt>
      <trkpt lat="42.7147047780" lon="-0.1272045169">
        <ele>1493.06</ele>
        <time>2022-07-13T08:36:20Z</time>
      </trkpt>
      <trkpt lat="42.7147730906" lon="-0.1272062771">
        <ele>1493.55</ele>
        <time>2022-07-13T08:36:26Z</time>
      </trkpt>
      <trkpt lat="42.7147952188" lon="-0.1272105519">
        <ele>1493.55</ele>
        <time>2022-07-13T08:36:28Z</time>
      </trkpt>
      <trkpt lat="42.7148908563" lon="-0.1272336859">
        <ele>1494.99</ele>
        <time>2022-07-13T08:36:36Z</time>
      </trkpt>
      <trkpt lat="42.7149667963" lon="-0.1272479352">
        <ele>1495.47</ele>
        <time>2022-07-13T08:36:42Z</time>
      </trkpt>
      <trkpt lat="42.7149814647" lon="-0.1272538025">
        <ele>1495.47</ele>
        <time>2022-07-13T08:36:43Z</time>
      </trkpt>
      <trkpt lat="42.7151177544" lon="-0.1273059379">
        <ele>1496.91</ele>
        <time>2022-07-13T08:36:54Z</time>
      </trkpt>
      <trkpt lat="42.7151812892" lon="-0.1273315027">
        <ele>1497.87</ele>
        <time>2022-07-13T08:37:00Z</time>
      </trkpt>
      <trkpt lat="42.7154863905" lon="-0.1274232846">
        <ele>1499.79</ele>
        <time>2022-07-13T08:37:16Z</time>
      </trkpt>
      <trkpt lat="42.7156360913" lon="-0.1273252163">
        <ele>1500.27</ele>
        <time>2022-07-13T08:37:29Z</time>
      </trkpt>
      <trkpt lat="42.7157623228" lon="-0.1273170859">
        <ele>1500.27</ele>
        <time>2022-07-13T08:37:41Z</time>
      </trkpt>
      <trkpt lat="42.7158225887" lon="-0.1273490209">
        <ele>1500.27</ele>
        <time>2022-07-13T08:37:45Z</time>
      </trkpt>
      <trkpt lat="42.7158262767" lon="-0.1273603365">
        <ele>1500.27</ele>
        <time>2022-07-13T08:37:46Z</time>
      </trkpt>
      <trkpt lat="42.7159532625" lon="-0.1275965385">
        <ele>1501.24</ele>
        <time>2022-07-13T08:37:59Z</time>
      </trkpt>
      <trkpt lat="42.7160718665" lon="-0.1276894100">
        <ele>1501.72</ele>
        <time>2022-07-13T08:38:08Z</time>
      </trkpt>
      <trkpt lat="42.7161054779" lon="-0.1277048327">
        <ele>1501.72</ele>
        <time>2022-07-13T08:38:10Z</time>
      </trkpt>
      <trkpt lat="42.7161444537" lon="-0.1277321577">
        <ele>1502.20</ele>
        <time>2022-07-13T08:38:14Z</time>
      </trkpt>
      <trkpt lat="42.7161381673" lon="-0.1277448982">
        <ele>1502.20</ele>
        <time>2022-07-13T08:38:15Z</time>
      </trkpt>
      <trkpt lat="42.7162160352" lon="-0.1277792640">
        <ele>1502.20</ele>
        <time>2022-07-13T08:38:22Z</time>
      </trkpt>
      <trkpt lat="42.7162495628" lon="-0.1278193295">
        <ele>1503.16</ele>
        <time>2022-07-13T08:38:26Z</time>
      </trkpt>
      <trkpt lat="42.7162879519" lon="-0.1278755721">
        <ele>1504.12</ele>
        <time>2022-07-13T08:38:31Z</time>
      </trkpt>
      <trkpt lat="42.7163046319" lon="-0.1279075071">
        <ele>1504.12</ele>
        <time>2022-07-13T08:38:33Z</time>
      </trkpt>
      <trkpt lat="42.7163399197" lon="-0.1279843692">
        <ele>1505.08</ele>
        <time>2022-07-13T08:38:39Z</time>
      </trkpt>
      <trkpt lat="42.7163443621" lon="-0.1280016359">
        <ele>1505.08</ele>
        <time>2022-07-13T08:38:40Z</time>
      </trkpt>
      <trkpt lat="42.7163833380" lon="-0.1281556115">
        <ele>1506.04</ele>
        <time>2022-07-13T08:38:49Z</time>
      </trkpt>
      <trkpt lat="42.7164519019" lon="-0.1283270214">
        <ele>1507.48</ele>
        <time>2022-07-13T08:39:02Z</time>
      </trkpt>
      <trkpt lat="42.7165265009" lon="-0.1284241676">
        <ele>1508.93</ele>
        <time>2022-07-13T08:39:13Z</time>
      </trkpt>
      <trkpt lat="42.7166268323" lon="-0.1285876986">
        <ele>1509.89</ele>
        <time>2022-07-13T08:39:27Z</time>
      </trkpt>
      <trkpt lat="42.7166813985" lon="-0.1287688315">
        <ele>1511.33</ele>
        <time>2022-07-13T08:39:39Z</time>
      </trkpt>
      <trkpt lat="42.7167719230" lon="-0.1289684884">
        <ele>1512.77</ele>
        <time>2022-07-13T08:39:53Z</time>
      </trkpt>
      <trkpt lat="42.7168394811" lon="-0.1291612722">
        <ele>1513.25</ele>
        <time>2022-07-13T08:40:05Z</time>
      </trkpt>
      <trkpt lat="42.7168963104" lon="-0.1293666288">
        <ele>1514.21</ele>
        <time>2022-07-13T08:40:17Z</time>
      </trkpt>
      <trkpt lat="42.7169735916" lon="-0.1295187604">
        <ele>1515.18</ele>
        <time>2022-07-13T08:40:27Z</time>
      </trkpt>
      <trkpt lat="42.7170902677" lon="-0.1296988875">
        <ele>1515.66</ele>
        <time>2022-07-13T08:40:40Z</time>
      </trkpt>
      <trkpt lat="42.7171926945" lon="-0.1298675314">
        <ele>1516.62</ele>
        <time>2022-07-13T08:40:52Z</time>
      </trkpt>
      <trkpt lat="42.7172227018" lon="-0.1299452316">
        <ele>1517.10</ele>
        <time>2022-07-13T08:40:57Z</time>
      </trkpt>
      <trkpt lat="42.7172999829" lon="-0.1301114447">
        <ele>1517.58</ele>
        <time>2022-07-13T08:41:10Z</time>
      </trkpt>
      <trkpt lat="42.7173682954" lon="-0.1304319687">
        <ele>1518.54</ele>
        <time>2022-07-13T08:41:23Z</time>
      </trkpt>
      <trkpt lat="42.7174744941" lon="-0.1307122596">
        <ele>1518.54</ele>
        <time>2022-07-13T08:41:39Z</time>
      </trkpt>
      <trkpt lat="42.7175098658" lon="-0.1309563406">
        <ele>1519.50</ele>
        <time>2022-07-13T08:41:53Z</time>
      </trkpt>
      <trkpt lat="42.7175428066" lon="-0.1311581768">
        <ele>1520.94</ele>
        <time>2022-07-13T08:42:05Z</time>
      </trkpt>
      <trkpt lat="42.7175679523" lon="-0.1312927902">
        <ele>1521.42</ele>
        <time>2022-07-13T08:42:13Z</time>
      </trkpt>
      <trkpt lat="42.7175684553" lon="-0.1315496955">
        <ele>1522.87</ele>
        <time>2022-07-13T08:42:26Z</time>
      </trkpt>
      <trkpt lat="42.7176309004" lon="-0.1317636017">
        <ele>1523.35</ele>
        <time>2022-07-13T08:42:41Z</time>
      </trkpt>
      <trkpt lat="42.7176537830" lon="-0.1317811199">
        <ele>1523.35</ele>
        <time>2022-07-13T08:42:43Z</time>
      </trkpt>
      <trkpt lat="42.7177158929" lon="-0.1318567246">
        <ele>1523.83</ele>
        <time>2022-07-13T08:42:49Z</time>
      </trkpt>
      <trkpt lat="42.7177289687" lon="-0.1318713091">
        <ele>1523.83</ele>
        <time>2022-07-13T08:42:50Z</time>
      </trkpt>
      <trkpt lat="42.7177827805" lon="-0.1319279708">
        <ele>1523.83</ele>
        <time>2022-07-13T08:42:55Z</time>
      </trkpt>
      <trkpt lat="42.7179172263" lon="-0.1320930943">
        <ele>1523.83</ele>
        <time>2022-07-13T08:43:08Z</time>
      </trkpt>
      <trkpt lat="42.7179790009" lon="-0.1321695372">
        <ele>1522.87</ele>
        <time>2022-07-13T08:43:13Z</time>
      </trkpt>
      <trkpt lat="42.7180395182" lon="-0.1323645003">
        <ele>1521.90</ele>
        <time>2022-07-13T08:43:24Z</time>
      </trkpt>
      <trkpt lat="42.7180593833" lon="-0.1324494090">
        <ele>1520.94</ele>
        <time>2022-07-13T08:43:28Z</time>
      </trkpt>
      <trkpt lat="42.7181567810" lon="-0.1326301228">
        <ele>1519.50</ele>
        <time>2022-07-13T08:43:40Z</time>
      </trkpt>
      <trkpt lat="42.7182174660" lon="-0.1326823421">
        <ele>1519.50</ele>
        <time>2022-07-13T08:43:45Z</time>
      </trkpt>
      <trkpt lat="42.7182522509" lon="-0.1327322144">
        <ele>1519.50</ele>
        <time>2022-07-13T08:43:49Z</time>
      </trkpt>
      <trkpt lat="42.7182618901" lon="-0.1327470504">
        <ele>1519.50</ele>
        <time>2022-07-13T08:43:50Z</time>
      </trkpt>
      <trkpt lat="42.7184122615" lon="-0.1328890398">
        <ele>1519.50</ele>
        <time>2022-07-13T08:44:04Z</time>
      </trkpt>
      <trkpt lat="42.7185163647" lon="-0.1330116671">
        <ele>1520.46</ele>
        <time>2022-07-13T08:44:14Z</time>
      </trkpt>
      <trkpt lat="42.7185369004" lon="-0.1330308616">
        <ele>1520.46</ele>
        <time>2022-07-13T08:44:16Z</time>
      </trkpt>
      <trkpt lat="42.7185872756" lon="-0.1330746152">
        <ele>1521.42</ele>
        <time>2022-07-13T08:44:21Z</time>
      </trkpt>
      <trkpt lat="42.7187266666" lon="-0.1331606973">
        <ele>1523.83</ele>
        <time>2022-07-13T08:44:33Z</time>
      </trkpt>
      <trkpt lat="42.7187992539" lon="-0.1332076360">
        <ele>1523.83</ele>
        <time>2022-07-13T08:44:40Z</time>
      </trkpt>
      <trkpt lat="42.7188164368" lon="-0.1332006790">
        <ele>1524.31</ele>
        <time>2022-07-13T08:44:42Z</time>
      </trkpt>
      <trkpt lat="42.7188393194" lon="-0.1332144253">
        <ele>1524.79</ele>
        <time>2022-07-13T08:44:44Z</time>
      </trkpt>
      <trkpt lat="42.7188819833" lon="-0.1332236454">
        <ele>1525.27</ele>
        <time>2022-07-13T08:44:47Z</time>
      </trkpt>
      <trkpt lat="42.7188887727" lon="-0.1332236454">
        <ele>1525.27</ele>
        <time>2022-07-13T08:44:48Z</time>
      </trkpt>
      <trkpt lat="42.7190160938" lon="-0.1332192030">
        <ele>1526.71</ele>
        <time>2022-07-13T08:44:58Z</time>
      </trkpt>
      <trkpt lat="42.7191749308" lon="-0.1332324464">
        <ele>1528.15</ele>
        <time>2022-07-13T08:45:11Z</time>
      </trkpt>
      <trkpt lat="42.7193277329" lon="-0.1332695782">
        <ele>1530.56</ele>
        <time>2022-07-13T08:45:24Z</time>
      </trkpt>
      <trkpt lat="42.7194157429" lon="-0.1332989987">
        <ele>1531.04</ele>
        <time>2022-07-13T08:45:32Z</time>
      </trkpt>
      <trkpt lat="42.7195217740" lon="-0.1333412435">
        <ele>1532.96</ele>
        <time>2022-07-13T08:45:43Z</time>
      </trkpt>
      <trkpt lat="42.7195335086" lon="-0.1333400700">
        <ele>1532.96</ele>
        <time>2022-07-13T08:45:44Z</time>
      </trkpt>
      <trkpt lat="42.7195395436" lon="-0.1333405729">
        <ele>1532.96</ele>
        <time>2022-07-13T08:45:45Z</time>
      </trkpt>
      <trkpt lat="42.7196550462" lon="-0.1333707478">
        <ele>1534.40</ele>
        <time>2022-07-13T08:45:56Z</time>
      </trkpt>
      <trkpt lat="42.7197754104" lon="-0.1334020123">
        <ele>1535.84</ele>
        <time>2022-07-13T08:46:07Z</time>
      </trkpt>
      <trkpt lat="42.7199506760" lon="-0.1333805546">
        <ele>1537.29</ele>
        <time>2022-07-13T08:46:18Z</time>
      </trkpt>
      <trkpt lat="42.7199785039" lon="-0.1333678979">
        <ele>1537.77</ele>
        <time>2022-07-13T08:46:20Z</time>
      </trkpt>
      <trkpt lat="42.7201333176" lon="-0.1333872601">
        <ele>1539.21</ele>
        <time>2022-07-13T08:46:31Z</time>
      </trkpt>
      <trkpt lat="42.7201800887" lon="-0.1334260684">
        <ele>1539.69</ele>
        <time>2022-07-13T08:46:37Z</time>
      </trkpt>
      <trkpt lat="42.7202180587" lon="-0.1336377114">
        <ele>1540.65</ele>
        <time>2022-07-13T08:46:46Z</time>
      </trkpt>
      <trkpt lat="42.7202110179" lon="-0.1339661982">
        <ele>1542.09</ele>
        <time>2022-07-13T08:46:57Z</time>
      </trkpt>
      <trkpt lat="42.7202827670" lon="-0.1340928487">
        <ele>1543.05</ele>
        <time>2022-07-13T08:47:06Z</time>
      </trkpt>
      <trkpt lat="42.7203682624" lon="-0.1343019772">
        <ele>1544.01</ele>
        <time>2022-07-13T08:47:19Z</time>
      </trkpt>
      <trkpt lat="42.7204537578" lon="-0.1344368421">
        <ele>1545.94</ele>
        <time>2022-07-13T08:47:29Z</time>
      </trkpt>
      <trkpt lat="42.7204952482" lon="-0.1344584674">
        <ele>1546.42</ele>
        <time>2022-07-13T08:47:33Z</time>
      </trkpt>
      <trkpt lat="42.7206487209" lon="-0.1345520932">
        <ele>1547.86</ele>
        <time>2022-07-13T08:47:46Z</time>
      </trkpt>
      <trkpt lat="42.7207425144" lon="-0.1346064918">
        <ele>1549.30</ele>
        <time>2022-07-13T08:47:55Z</time>
      </trkpt>
      <trkpt lat="42.7208601963" lon="-0.1347551867">
        <ele>1550.74</ele>
        <time>2022-07-13T08:48:09Z</time>
      </trkpt>
      <trkpt lat="42.7208810672" lon="-0.1347861160">
        <ele>1550.74</ele>
        <time>2022-07-13T08:48:12Z</time>
      </trkpt>
      <trkpt lat="42.7209995035" lon="-0.1349229086">
        <ele>1552.67</ele>
        <time>2022-07-13T08:48:23Z</time>
      </trkpt>
      <trkpt lat="42.7210342884" lon="-0.1349845994">
        <ele>1553.63</ele>
        <time>2022-07-13T08:48:28Z</time>
      </trkpt>
      <trkpt lat="42.7211225498" lon="-0.1350695081">
        <ele>1554.59</ele>
        <time>2022-07-13T08:48:37Z</time>
      </trkpt>
      <trkpt lat="42.7211466059" lon="-0.1350930613">
        <ele>1554.59</ele>
        <time>2022-07-13T08:48:39Z</time>
      </trkpt>
      <trkpt lat="42.7212316822" lon="-0.1352736074">
        <ele>1555.55</ele>
        <time>2022-07-13T08:48:51Z</time>
      </trkpt>
      <trkpt lat="42.7213124838" lon="-0.1354691572">
        <ele>1557.47</ele>
        <time>2022-07-13T08:49:05Z</time>
      </trkpt>
      <trkpt lat="42.7214130666" lon="-0.1356065366">
        <ele>1558.92</ele>
        <time>2022-07-13T08:49:17Z</time>
      </trkpt>
      <trkpt lat="42.7214789484" lon="-0.1357852388">
        <ele>1561.32</ele>
        <time>2022-07-13T08:49:31Z</time>
      </trkpt>
      <trkpt lat="42.7215226181" lon="-0.1359632704">
        <ele>1562.28</ele>
        <time>2022-07-13T08:49:44Z</time>
      </trkpt>
      <trkpt lat="42.7215940319" lon="-0.1362117939">
        <ele>1564.20</ele>
        <time>2022-07-13T08:50:00Z</time>
      </trkpt>
      <trkpt lat="42.7216065209" lon="-0.1363406237">
        <ele>1565.64</ele>
        <time>2022-07-13T08:50:08Z</time>
      </trkpt>
      <trkpt lat="42.7216536272" lon="-0.1366373431">
        <ele>1566.61</ele>
        <time>2022-07-13T08:50:25Z</time>
      </trkpt>
      <trkpt lat="42.7216655295" lon="-0.1367111038">
        <ele>1566.61</ele>
        <time>2022-07-13T08:50:29Z</time>
      </trkpt>
      <trkpt lat="42.7216942795" lon="-0.1367866248">
        <ele>1566.61</ele>
        <time>2022-07-13T08:50:38Z</time>
      </trkpt>
      <trkpt lat="42.7217231970" lon="-0.1367720403">
        <ele>1567.09</ele>
        <time>2022-07-13T08:50:42Z</time>
      </trkpt>
      <trkpt lat="42.7217907552" lon="-0.1368442085">
        <ele>1568.05</ele>
        <time>2022-07-13T08:50:50Z</time>
      </trkpt>
      <trkpt lat="42.7218075190" lon="-0.1368927397">
        <ele>1569.01</ele>
        <time>2022-07-13T08:50:57Z</time>
      </trkpt>
      <trkpt lat="42.7218186669" lon="-0.1369110122">
        <ele>1569.01</ele>
        <time>2022-07-13T08:50:59Z</time>
      </trkpt>
      <trkpt lat="42.7219551243" lon="-0.1370479725">
        <ele>1570.45</ele>
        <time>2022-07-13T08:51:14Z</time>
      </trkpt>
      <trkpt lat="42.7220887318" lon="-0.1371429395">
        <ele>1572.37</ele>
        <time>2022-07-13T08:51:27Z</time>
      </trkpt>
      <trkpt lat="42.7222367562" lon="-0.1372505631">
        <ele>1572.85</ele>
        <time>2022-07-13T08:51:42Z</time>
      </trkpt>
      <trkpt lat="42.7223489061" lon="-0.1372723561">
        <ele>1575.26</ele>
        <time>2022-07-13T08:51:54Z</time>
      </trkpt>
      <trkpt lat="42.7223644964" lon="-0.1372815762">
        <ele>1575.26</ele>
        <time>2022-07-13T08:51:56Z</time>
      </trkpt>
      <trkpt lat="42.7225072403" lon="-0.1373133436">
        <ele>1578.14</ele>
        <time>2022-07-13T08:52:13Z</time>
      </trkpt>
      <trkpt lat="42.7226230782" lon="-0.1373815723">
        <ele>1578.62</ele>
        <time>2022-07-13T08:52:27Z</time>
      </trkpt>
      <trkpt lat="42.7227659896" lon="-0.1373845059">
        <ele>1581.03</ele>
        <time>2022-07-13T08:52:43Z</time>
      </trkpt>
      <trkpt lat="42.7229129244" lon="-0.1373687480">
        <ele>1581.51</ele>
        <time>2022-07-13T08:52:56Z</time>
      </trkpt>
      <trkpt lat="42.7229591925" lon="-0.1373826619">
        <ele>1581.51</ele>
        <time>2022-07-13T08:53:00Z</time>
      </trkpt>
      <trkpt lat="42.7231365535" lon="-0.1374183688">
        <ele>1580.54</ele>
        <time>2022-07-13T08:53:13Z</time>
      </trkpt>
      <trkpt lat="42.7232107334" lon="-0.1374262478">
        <ele>1581.51</ele>
        <time>2022-07-13T08:53:22Z</time>
      </trkpt>
      <trkpt lat="42.7233746834" lon="-0.1373683289">
        <ele>1583.43</ele>
        <time>2022-07-13T08:53:37Z</time>
      </trkpt>
      <trkpt lat="42.7234682254" lon="-0.1373229828">
        <ele>1585.35</ele>
        <time>2022-07-13T08:53:47Z</time>
      </trkpt>
      <trkpt lat="42.7235736698" lon="-0.1372575201">
        <ele>1588.72</ele>
        <time>2022-07-13T08:54:00Z</time>
      </trkpt>
      <trkpt lat="42.7236322593" lon="-0.1373128407">
        <ele>1589.20</ele>
        <time>2022-07-13T08:54:12Z</time>
      </trkpt>
      <trkpt lat="42.7237544674" lon="-0.1373525709">
        <ele>1590.64</ele>
        <time>2022-07-13T08:54:26Z</time>
      </trkpt>
      <trkpt lat="42.7238391247" lon="-0.1373859309">
        <ele>1592.08</ele>
        <time>2022-07-13T08:54:36Z</time>
      </trkpt>
      <trkpt lat="42.7239543758" lon="-0.1374027785">
        <ele>1595.45</ele>
        <time>2022-07-13T08:54:51Z</time>
      </trkpt>
      <trkpt lat="42.7240347583" lon="-0.1373993419">
        <ele>1598.33</ele>
        <time>2022-07-13T08:55:06Z</time>
      </trkpt>
      <trkpt lat="42.7241399512" lon="-0.1373860985">
        <ele>1601.21</ele>
        <time>2022-07-13T08:55:20Z</time>
      </trkpt>
      <trkpt lat="42.7242211718" lon="-0.1373595279">
        <ele>1603.14</ele>
        <time>2022-07-13T08:55:31Z</time>
      </trkpt>
      <trkpt lat="42.7243071701" lon="-0.1372857671">
        <ele>1606.02</ele>
        <time>2022-07-13T08:55:45Z</time>
      </trkpt>
      <trkpt lat="42.7243974432" lon="-0.1372494735">
        <ele>1608.42</ele>
        <time>2022-07-13T08:55:59Z</time>
      </trkpt>
      <trkpt lat="42.7244699467" lon="-0.1372634713">
        <ele>1610.83</ele>
        <time>2022-07-13T08:56:10Z</time>
      </trkpt>
      <trkpt lat="42.7245691884" lon="-0.1372301951">
        <ele>1613.71</ele>
        <time>2022-07-13T08:56:23Z</time>
      </trkpt>
      <trkpt lat="42.7246893849" lon="-0.1371622179">
        <ele>1617.07</ele>
        <time>2022-07-13T08:56:38Z</time>
      </trkpt>
      <trkpt lat="42.7248031273" lon="-0.1371032931">
        <ele>1619.48</ele>
        <time>2022-07-13T08:56:52Z</time>
      </trkpt>
      <trkpt lat="42.7248987649" lon="-0.1370010339">
        <ele>1623.32</ele>
        <time>2022-07-13T08:57:08Z</time>
      </trkpt>
      <trkpt lat="42.7249836735" lon="-0.1369406004">
        <ele>1626.69</ele>
        <time>2022-07-13T08:57:23Z</time>
      </trkpt>
      <trkpt lat="42.7250786405" lon="-0.1369105093">
        <ele>1629.57</ele>
        <time>2022-07-13T08:57:39Z</time>
      </trkpt>
      <trkpt lat="42.7251332067" lon="-0.1368332282">
        <ele>1632.46</ele>
        <time>2022-07-13T08:57:51Z</time>
      </trkpt>
      <trkpt lat="42.7252516430" lon="-0.1368416939">
        <ele>1635.82</ele>
        <time>2022-07-13T08:58:05Z</time>
      </trkpt>
      <trkpt lat="42.7253789641" lon="-0.1368406881">
        <ele>1638.22</ele>
        <time>2022-07-13T08:58:19Z</time>
      </trkpt>
      <trkpt lat="42.7255397290" lon="-0.1369145326">
        <ele>1641.11</ele>
        <time>2022-07-13T08:58:36Z</time>
      </trkpt>
      <trkpt lat="42.7256393898" lon="-0.1369426958">
        <ele>1643.03</ele>
        <time>2022-07-13T08:58:48Z</time>
      </trkpt>
      <trkpt lat="42.7257709019" lon="-0.1369668357">
        <ele>1643.51</ele>
        <time>2022-07-13T08:59:00Z</time>
      </trkpt>
      <trkpt lat="42.7257979754" lon="-0.1369944960">
        <ele>1642.07</ele>
        <time>2022-07-13T08:59:03Z</time>
      </trkpt>
      <trkpt lat="42.7258807886" lon="-0.1370214857">
        <ele>1640.63</ele>
        <time>2022-07-13T08:59:13Z</time>
      </trkpt>
      <trkpt lat="42.7261102013" lon="-0.1370579470">
        <ele>1638.22</ele>
        <time>2022-07-13T08:59:31Z</time>
      </trkpt>
      <trkpt lat="42.7262939326" lon="-0.1370993536">
        <ele>1635.82</ele>
        <time>2022-07-13T08:59:46Z</time>
      </trkpt>
      <trkpt lat="42.7264883090" lon="-0.1371426880">
        <ele>1634.38</ele>
        <time>2022-07-13T09:00:01Z</time>
      </trkpt>
      <trkpt lat="42.7266905643" lon="-0.1371680852">
        <ele>1632.94</ele>
        <time>2022-07-13T09:00:18Z</time>
      </trkpt>
      <trkpt lat="42.7268041391" lon="-0.1372351404">
        <ele>1631.98</ele>
        <time>2022-07-13T09:00:29Z</time>
      </trkpt>
      <trkpt lat="42.7269110084" lon="-0.1371690072">
        <ele>1630.53</ele>
        <time>2022-07-13T09:00:39Z</time>
      </trkpt>
      <trkpt lat="42.7269528341" lon="-0.1371456217">
        <ele>1629.57</ele>
        <time>2022-07-13T09:00:43Z</time>
      </trkpt>
      <trkpt lat="42.7270503994" lon="-0.1371215656">
        <ele>1629.57</ele>
        <time>2022-07-13T09:00:55Z</time>
      </trkpt>
      <trkpt lat="42.7271398343" lon="-0.1371664926">
        <ele>1630.05</ele>
        <time>2022-07-13T09:01:08Z</time>
      </trkpt>
      <trkpt lat="42.7271619625" lon="-0.1371778082">
        <ele>1630.05</ele>
        <time>2022-07-13T09:01:10Z</time>
      </trkpt>
      <trkpt lat="42.7271823306" lon="-0.1372019481">
        <ele>1631.49</ele>
        <time>2022-07-13T09:01:12Z</time>
      </trkpt>
      <trkpt lat="42.7271956578" lon="-0.1372107491">
        <ele>1631.49</ele>
        <time>2022-07-13T09:01:13Z</time>
      </trkpt>
      <trkpt lat="42.7272146847" lon="-0.1372327935">
        <ele>1631.49</ele>
        <time>2022-07-13T09:01:15Z</time>
      </trkpt>
      <trkpt lat="42.7273404971" lon="-0.1373271737">
        <ele>1631.49</ele>
        <time>2022-07-13T09:01:27Z</time>
      </trkpt>
      <trkpt lat="42.7274836600" lon="-0.1374293491">
        <ele>1631.98</ele>
        <time>2022-07-13T09:01:40Z</time>
      </trkpt>
      <trkpt lat="42.7275731787" lon="-0.1375767030">
        <ele>1634.38</ele>
        <time>2022-07-13T09:01:54Z</time>
      </trkpt>
      <trkpt lat="42.7276699897" lon="-0.1377422456">
        <ele>1636.78</ele>
        <time>2022-07-13T09:02:10Z</time>
      </trkpt>
      <trkpt lat="42.7277369611" lon="-0.1377976499">
        <ele>1634.86</ele>
        <time>2022-07-13T09:02:18Z</time>
      </trkpt>
      <trkpt lat="42.7277467679" lon="-0.1378032658">
        <ele>1634.86</ele>
        <time>2022-07-13T09:02:19Z</time>
      </trkpt>
      <trkpt lat="42.7278403938" lon="-0.1378160063">
        <ele>1634.38</ele>
        <time>2022-07-13T09:02:26Z</time>
      </trkpt>
      <trkpt lat="42.7278628573" lon="-0.1378117315">
        <ele>1634.38</ele>
        <time>2022-07-13T09:02:28Z</time>
      </trkpt>
      <trkpt lat="42.7280187607" lon="-0.1377935428">
        <ele>1632.94</ele>
        <time>2022-07-13T09:02:40Z</time>
      </trkpt>
      <trkpt lat="42.7280867379" lon="-0.1377195306">
        <ele>1631.98</ele>
        <time>2022-07-13T09:02:49Z</time>
      </trkpt>
      <trkpt lat="42.7282655239" lon="-0.1377759408">
        <ele>1631.49</ele>
        <time>2022-07-13T09:03:05Z</time>
      </trkpt>
      <trkpt lat="42.7283372730" lon="-0.1377711631">
        <ele>1631.01</ele>
        <time>2022-07-13T09:03:12Z</time>
      </trkpt>
      <trkpt lat="42.7283656038" lon="-0.1378020085">
        <ele>1630.53</ele>
        <time>2022-07-13T09:03:15Z</time>
      </trkpt>
      <trkpt lat="42.7284438908" lon="-0.1378194429">
        <ele>1629.57</ele>
        <time>2022-07-13T09:03:25Z</time>
      </trkpt>
      <trkpt lat="42.7284917515" lon="-0.1378387213">
        <ele>1628.61</ele>
        <time>2022-07-13T09:03:30Z</time>
      </trkpt>
      <trkpt lat="42.7285303921" lon="-0.1379158348">
        <ele>1629.09</ele>
        <time>2022-07-13T09:03:35Z</time>
      </trkpt>
      <trkpt lat="42.7287163027" lon="-0.1379442494">
        <ele>1629.09</ele>
        <time>2022-07-13T09:03:51Z</time>
      </trkpt>
      <trkpt lat="42.7287892252" lon="-0.1379021723">
        <ele>1630.53</ele>
        <time>2022-07-13T09:03:57Z</time>
      </trkpt>
      <trkpt lat="42.7289136127" lon="-0.1378640346">
        <ele>1631.49</ele>
        <time>2022-07-13T09:04:08Z</time>
      </trkpt>
      <trkpt lat="42.7290582843" lon="-0.1378907729">
        <ele>1632.94</ele>
        <time>2022-07-13T09:04:21Z</time>
      </trkpt>
      <trkpt lat="42.7291566879" lon="-0.1378559042">
        <ele>1633.42</ele>
        <time>2022-07-13T09:04:30Z</time>
      </trkpt>
      <trkpt lat="42.7291994356" lon="-0.1378365420">
        <ele>1631.98</ele>
        <time>2022-07-13T09:04:35Z</time>
      </trkpt>
      <trkpt lat="42.7292161155" lon="-0.1378266513">
        <ele>1631.49</ele>
        <time>2022-07-13T09:04:37Z</time>
      </trkpt>
      <trkpt lat="42.7292462904" lon="-0.1377758570">
        <ele>1631.49</ele>
        <time>2022-07-13T09:04:42Z</time>
      </trkpt>
      <trkpt lat="42.7293363120" lon="-0.1376865059">
        <ele>1632.94</ele>
        <time>2022-07-13T09:04:52Z</time>
      </trkpt>
      <trkpt lat="42.7294689137" lon="-0.1376574207">
        <ele>1633.90</ele>
        <time>2022-07-13T09:05:04Z</time>
      </trkpt>
      <trkpt lat="42.7296144236" lon="-0.1376238093">
        <ele>1632.46</ele>
        <time>2022-07-13T09:05:18Z</time>
      </trkpt>
      <trkpt lat="42.7296846639" lon="-0.1374971587">
        <ele>1633.42</ele>
        <time>2022-07-13T09:05:32Z</time>
      </trkpt>
      <trkpt lat="42.7296996675" lon="-0.1374491304">
        <ele>1632.46</ele>
        <time>2022-07-13T09:05:39Z</time>
      </trkpt>
      <trkpt lat="42.7297455166" lon="-0.1373623777">
        <ele>1630.05</ele>
        <time>2022-07-13T09:05:48Z</time>
      </trkpt>
      <trkpt lat="42.7297616936" lon="-0.1373206358">
        <ele>1630.05</ele>
        <time>2022-07-13T09:05:51Z</time>
      </trkpt>
      <trkpt lat="42.7298418246" lon="-0.1372383256">
        <ele>1628.61</ele>
        <time>2022-07-13T09:06:05Z</time>
      </trkpt>
      <trkpt lat="42.7298611868" lon="-0.1372381579">
        <ele>1628.61</ele>
        <time>2022-07-13T09:06:08Z</time>
      </trkpt>
      <trkpt lat="42.7299469337" lon="-0.1372346375">
        <ele>1630.05</ele>
        <time>2022-07-13T09:06:17Z</time>
      </trkpt>
      <trkpt lat="42.7300089598" lon="-0.1372214779">
        <ele>1630.05</ele>
        <time>2022-07-13T09:06:23Z</time>
      </trkpt>
      <trkpt lat="42.7300694771" lon="-0.1372122578">
        <ele>1631.01</ele>
        <time>2022-07-13T09:06:28Z</time>
      </trkpt>
      <trkpt lat="42.7301523741" lon="-0.1371557638">
        <ele>1631.01</ele>
        <time>2022-07-13T09:06:36Z</time>
      </trkpt>
      <trkpt lat="42.7302652784" lon="-0.1370978449">
        <ele>1632.46</ele>
        <time>2022-07-13T09:06:49Z</time>
      </trkpt>
      <trkpt lat="42.7304375265" lon="-0.1370902173">
        <ele>1631.98</ele>
        <time>2022-07-13T09:07:02Z</time>
      </trkpt>
      <trkpt lat="42.7304628398" lon="-0.1371000241">
        <ele>1631.98</ele>
        <time>2022-07-13T09:07:05Z</time>
      </trkpt>
      <trkpt lat="42.7304832079" lon="-0.1371032931">
        <ele>1631.98</ele>
        <time>2022-07-13T09:07:07Z</time>
      </trkpt>
      <trkpt lat="42.7305360977" lon="-0.1371352281">
        <ele>1631.98</ele>
        <time>2022-07-13T09:07:12Z</time>
      </trkpt>
      <trkpt lat="42.7305674460" lon="-0.1371514890">
        <ele>1631.98</ele>
        <time>2022-07-13T09:07:15Z</time>
      </trkpt>
      <trkpt lat="42.7305995487" lon="-0.1371611282">
        <ele>1631.98</ele>
        <time>2022-07-13T09:07:18Z</time>
      </trkpt>
      <trkpt lat="42.7306651790" lon="-0.1371889561">
        <ele>1633.42</ele>
        <time>2022-07-13T09:07:24Z</time>
      </trkpt>
      <trkpt lat="42.7307919972" lon="-0.1372709312">
        <ele>1634.86</ele>
        <time>2022-07-13T09:07:39Z</time>
      </trkpt>
      <trkpt lat="42.7308199927" lon="-0.1372944005">
        <ele>1634.86</ele>
        <time>2022-07-13T09:07:42Z</time>
      </trkpt>
      <trkpt lat="42.7309691906" lon="-0.1372373197">
        <ele>1635.34</ele>
        <time>2022-07-13T09:07:56Z</time>
      </trkpt>
      <trkpt lat="42.7310998645" lon="-0.1372519042">
        <ele>1636.30</ele>
        <time>2022-07-13T09:08:09Z</time>
      </trkpt>
      <trkpt lat="42.7312540915" lon="-0.1373001840">
        <ele>1637.26</ele>
        <time>2022-07-13T09:08:23Z</time>
      </trkpt>
      <trkpt lat="42.7313035447" lon="-0.1373081468">
        <ele>1637.74</ele>
        <time>2022-07-13T09:08:27Z</time>
      </trkpt>
      <trkpt lat="42.7314280160" lon="-0.1373317000">
        <ele>1639.67</ele>
        <time>2022-07-13T09:08:40Z</time>
      </trkpt>
      <trkpt lat="42.7314965799" lon="-0.1373564266">
        <ele>1640.63</ele>
        <time>2022-07-13T09:08:56Z</time>
      </trkpt>
      <trkpt lat="42.7314989269" lon="-0.1373661496">
        <ele>1639.19</ele>
        <time>2022-07-13T09:09:13Z</time>
      </trkpt>
      <trkpt lat="42.7314892877" lon="-0.1373814885">
        <ele>1642.07</ele>
        <time>2022-07-13T09:09:26Z</time>
      </trkpt>
      <trkpt lat="42.7314905450" lon="-0.1373803988">
        <ele>1640.63</ele>
        <time>2022-07-13T09:09:27Z</time>
      </trkpt>
      <trkpt lat="42.7315153554" lon="-0.1373895351">
        <ele>1640.15</ele>
        <time>2022-07-13T09:09:54Z</time>
      </trkpt>
      <trkpt lat="42.7314830851" lon="-0.1374404971">
        <ele>1640.63</ele>
        <time>2022-07-13T09:10:26Z</time>
      </trkpt>
      <trkpt lat="42.7314737812" lon="-0.1374569256">
        <ele>1641.11</ele>
        <time>2022-07-13T09:10:59Z</time>
      </trkpt>
      <trkpt lat="42.7314722724" lon="-0.1374683250">
        <ele>1641.59</ele>
        <time>2022-07-13T09:11:27Z</time>
      </trkpt>
      <trkpt lat="42.7314560115" lon="-0.1374633797">
        <ele>1642.07</ele>
        <time>2022-07-13T09:12:03Z</time>
      </trkpt>
      <trkpt lat="42.7314815763" lon="-0.1374585181">
        <ele>1642.55</ele>
        <time>2022-07-13T09:12:42Z</time>
      </trkpt>
      <trkpt lat="42.7314959094" lon="-0.1374082267">
        <ele>1642.55</ele>
        <time>2022-07-13T09:12:59Z</time>
      </trkpt>
      <trkpt lat="42.7314988431" lon="-0.1374091487">
        <ele>1644.95</ele>
        <time>2022-07-13T09:13:24Z</time>
      </trkpt>
      <trkpt lat="42.7314957418" lon="-0.1374069694">
        <ele>1644.95</ele>
        <time>2022-07-13T09:13:25Z</time>
      </trkpt>
      <trkpt lat="42.7314941492" lon="-0.1374043711">
        <ele>1643.51</ele>
        <time>2022-07-13T09:13:27Z</time>
      </trkpt>
      <trkpt lat="42.7315051295" lon="-0.1373849250">
        <ele>1644.47</ele>
        <time>2022-07-13T09:13:44Z</time>
      </trkpt>
      <trkpt lat="42.7316012699" lon="-0.1374308579">
        <ele>1644.47</ele>
        <time>2022-07-13T09:14:02Z</time>
      </trkpt>
      <trkpt lat="42.7317238133" lon="-0.1375177782">
        <ele>1645.91</ele>
        <time>2022-07-13T09:14:18Z</time>
      </trkpt>
      <trkpt lat="42.7317686565" lon="-0.1375923771">
        <ele>1646.40</ele>
        <time>2022-07-13T09:14:38Z</time>
      </trkpt>
      <trkpt lat="42.7318607736" lon="-0.1376849134">
        <ele>1645.43</ele>
        <time>2022-07-13T09:14:50Z</time>
      </trkpt>
      <trkpt lat="42.7318720054" lon="-0.1377075445">
        <ele>1645.43</ele>
        <time>2022-07-13T09:14:52Z</time>
      </trkpt>
      <trkpt lat="42.7319434192" lon="-0.1378706563">
        <ele>1646.40</ele>
        <time>2022-07-13T09:15:06Z</time>
      </trkpt>
      <trkpt lat="42.7320396435" lon="-0.1380625181">
        <ele>1646.88</ele>
        <time>2022-07-13T09:15:21Z</time>
      </trkpt>
      <trkpt lat="42.7321322635" lon="-0.1381626818">
        <ele>1648.80</ele>
        <time>2022-07-13T09:15:33Z</time>
      </trkpt>
      <trkpt lat="42.7321653720" lon="-0.1382133085">
        <ele>1648.80</ele>
        <time>2022-07-13T09:15:37Z</time>
      </trkpt>
      <trkpt lat="42.7322071139" lon="-0.1382582355">
        <ele>1648.80</ele>
        <time>2022-07-13T09:15:41Z</time>
      </trkpt>
      <trkpt lat="42.7322869096" lon="-0.1383155677">
        <ele>1648.80</ele>
        <time>2022-07-13T09:15:53Z</time>
      </trkpt>
      <trkpt lat="42.7324056812" lon="-0.1383909211">
        <ele>1651.68</ele>
        <time>2022-07-13T09:16:07Z</time>
      </trkpt>
      <trkpt lat="42.7325268835" lon="-0.1384588145">
        <ele>1651.68</ele>
        <time>2022-07-13T09:16:20Z</time>
      </trkpt>
      <trkpt lat="42.7326775901" lon="-0.1385397837">
        <ele>1651.20</ele>
        <time>2022-07-13T09:16:35Z</time>
      </trkpt>
      <trkpt lat="42.7328194957" lon="-0.1385918353">
        <ele>1652.16</ele>
        <time>2022-07-13T09:16:48Z</time>
      </trkpt>
      <trkpt lat="42.7329421230" lon="-0.1386453956">
        <ele>1652.16</ele>
        <time>2022-07-13T09:17:01Z</time>
      </trkpt>
      <trkpt lat="42.7331080008" lon="-0.1386488322">
        <ele>1650.72</ele>
        <time>2022-07-13T09:17:13Z</time>
      </trkpt>
      <trkpt lat="42.7332334779" lon="-0.1386873890">
        <ele>1649.76</ele>
        <time>2022-07-13T09:17:24Z</time>
      </trkpt>
      <trkpt lat="42.7333934046" lon="-0.1386853773">
        <ele>1649.28</ele>
        <time>2022-07-13T09:17:37Z</time>
      </trkpt>
      <trkpt lat="42.7334561851" lon="-0.1387205813">
        <ele>1647.84</ele>
        <time>2022-07-13T09:17:45Z</time>
      </trkpt>
      <trkpt lat="42.7334919758" lon="-0.1387345791">
        <ele>1647.36</ele>
        <time>2022-07-13T09:17:49Z</time>
      </trkpt>
      <trkpt lat="42.7336299419" lon="-0.1387786679">
        <ele>1645.91</ele>
        <time>2022-07-13T09:18:03Z</time>
      </trkpt>
      <trkpt lat="42.7337542456" lon="-0.1388405263">
        <ele>1643.03</ele>
        <time>2022-07-13T09:18:15Z</time>
      </trkpt>
      <trkpt lat="42.7337743621" lon="-0.1388479862">
        <ele>1642.55</ele>
        <time>2022-07-13T09:18:16Z</time>
      </trkpt>
      <trkpt lat="42.7339150943" lon="-0.1388078369">
        <ele>1641.59</ele>
        <time>2022-07-13T09:18:30Z</time>
      </trkpt>
      <trkpt lat="42.7339257393" lon="-0.1388092618">
        <ele>1641.59</ele>
        <time>2022-07-13T09:18:31Z</time>
      </trkpt>
      <trkpt lat="42.7339999191" lon="-0.1388914883">
        <ele>1641.59</ele>
        <time>2022-07-13T09:18:38Z</time>
      </trkpt>
      <trkpt lat="42.7340131626" lon="-0.1389162987">
        <ele>1641.59</ele>
        <time>2022-07-13T09:18:40Z</time>
      </trkpt>
      <trkpt lat="42.7341623604" lon="-0.1390329748">
        <ele>1643.51</ele>
        <time>2022-07-13T09:18:55Z</time>
      </trkpt>
      <trkpt lat="42.7343083732" lon="-0.1391275227">
        <ele>1643.51</ele>
        <time>2022-07-13T09:19:08Z</time>
      </trkpt>
      <trkpt lat="42.7344587445" lon="-0.1392061450">
        <ele>1644.95</ele>
        <time>2022-07-13T09:19:23Z</time>
      </trkpt>
      <trkpt lat="42.7344802860" lon="-0.1392319612">
        <ele>1644.95</ele>
        <time>2022-07-13T09:19:26Z</time>
      </trkpt>
      <trkpt lat="42.7346207667" lon="-0.1393313706">
        <ele>1644.95</ele>
        <time>2022-07-13T09:19:40Z</time>
      </trkpt>
      <trkpt lat="42.7346992213" lon="-0.1394139323">
        <ele>1645.91</ele>
        <time>2022-07-13T09:19:56Z</time>
      </trkpt>
      <trkpt lat="42.7347744908" lon="-0.1394753717">
        <ele>1645.91</ele>
        <time>2022-07-13T09:20:08Z</time>
      </trkpt>
      <trkpt lat="42.7348288894" lon="-0.1395042054">
        <ele>1645.91</ele>
        <time>2022-07-13T09:20:13Z</time>
      </trkpt>
      <trkpt lat="42.7349227667" lon="-0.1395399962">
        <ele>1646.40</ele>
        <time>2022-07-13T09:20:19Z</time>
      </trkpt>
      <trkpt lat="42.7350018919" lon="-0.1395631302">
        <ele>1647.36</ele>
        <time>2022-07-13T09:20:25Z</time>
      </trkpt>
      <trkpt lat="42.7350852080" lon="-0.1396052912">
        <ele>1647.36</ele>
        <time>2022-07-13T09:20:40Z</time>
      </trkpt>
      <trkpt lat="42.7352391835" lon="-0.1396463625">
        <ele>1648.32</ele>
        <time>2022-07-13T09:20:53Z</time>
      </trkpt>
      <trkpt lat="42.7353013773" lon="-0.1396711729">
        <ele>1648.32</ele>
        <time>2022-07-13T09:20:59Z</time>
      </trkpt>
      <trkpt lat="42.7353979368" lon="-0.1397280023">
        <ele>1649.76</ele>
        <time>2022-07-13T09:21:09Z</time>
      </trkpt>
      <trkpt lat="42.7354231663" lon="-0.1397285890">
        <ele>1649.76</ele>
        <time>2022-07-13T09:21:11Z</time>
      </trkpt>
      <trkpt lat="42.7355900500" lon="-0.1397769526">
        <ele>1650.72</ele>
        <time>2022-07-13T09:21:24Z</time>
      </trkpt>
      <trkpt lat="42.7356621344" lon="-0.1397885196">
        <ele>1653.60</ele>
        <time>2022-07-13T09:21:36Z</time>
      </trkpt>
      <trkpt lat="42.7358006034" lon="-0.1397917047">
        <ele>1655.05</ele>
        <time>2022-07-13T09:21:49Z</time>
      </trkpt>
      <trkpt lat="42.7358773816" lon="-0.1397345401">
        <ele>1656.49</ele>
        <time>2022-07-13T09:22:03Z</time>
      </trkpt>
      <trkpt lat="42.7359182853" lon="-0.1397471130">
        <ele>1656.49</ele>
        <time>2022-07-13T09:22:12Z</time>
      </trkpt>
      <trkpt lat="42.7360151801" lon="-0.1398531441">
        <ele>1656.97</ele>
        <time>2022-07-13T09:22:26Z</time>
      </trkpt>
      <trkpt lat="42.7360145096" lon="-0.1398904435">
        <ele>1657.93</ele>
        <time>2022-07-13T09:22:29Z</time>
      </trkpt>
      <trkpt lat="42.7360732667" lon="-0.1401028410">
        <ele>1658.41</ele>
        <time>2022-07-13T09:22:44Z</time>
      </trkpt>
      <trkpt lat="42.7361233067" lon="-0.1401944552">
        <ele>1658.41</ele>
        <time>2022-07-13T09:22:52Z</time>
      </trkpt>
      <trkpt lat="42.7361994144" lon="-0.1402761787">
        <ele>1658.41</ele>
        <time>2022-07-13T09:23:00Z</time>
      </trkpt>
      <trkpt lat="42.7362391446" lon="-0.1403115503">
        <ele>1658.41</ele>
        <time>2022-07-13T09:23:04Z</time>
      </trkpt>
      <trkpt lat="42.7364190202" lon="-0.1404417213">
        <ele>1658.89</ele>
        <time>2022-07-13T09:23:19Z</time>
      </trkpt>
      <trkpt lat="42.7365756780" lon="-0.1405829564">
        <ele>1660.33</ele>
        <time>2022-07-13T09:23:34Z</time>
      </trkpt>
      <trkpt lat="42.7367332578" lon="-0.1406983752">
        <ele>1662.26</ele>
        <time>2022-07-13T09:23:49Z</time>
      </trkpt>
      <trkpt lat="42.7368713077" lon="-0.1407424640">
        <ele>1662.26</ele>
        <time>2022-07-13T09:24:01Z</time>
      </trkpt>
      <trkpt lat="42.7368899994" lon="-0.1407534443">
        <ele>1662.26</ele>
        <time>2022-07-13T09:24:03Z</time>
      </trkpt>
      <trkpt lat="42.7369941864" lon="-0.1408463158">
        <ele>1662.74</ele>
        <time>2022-07-13T09:24:13Z</time>
      </trkpt>
      <trkpt lat="42.7371589746" lon="-0.1409890596">
        <ele>1663.22</ele>
        <time>2022-07-13T09:24:29Z</time>
      </trkpt>
      <trkpt lat="42.7372675203" lon="-0.1410572883">
        <ele>1663.70</ele>
        <time>2022-07-13T09:24:39Z</time>
      </trkpt>
      <trkpt lat="42.7372940909" lon="-0.1410644129">
        <ele>1664.18</ele>
        <time>2022-07-13T09:24:42Z</time>
      </trkpt>
      <trkpt lat="42.7373515069" lon="-0.1411261875">
        <ele>1665.14</ele>
        <time>2022-07-13T09:24:49Z</time>
      </trkpt>
      <trkpt lat="42.7375513315" lon="-0.1412339788">
        <ele>1664.18</ele>
        <time>2022-07-13T09:25:06Z</time>
      </trkpt>
      <trkpt lat="42.7376763057" lon="-0.1412886288">
        <ele>1665.62</ele>
        <time>2022-07-13T09:25:18Z</time>
      </trkpt>
      <trkpt lat="42.7378071472" lon="-0.1413992699">
        <ele>1666.58</ele>
        <time>2022-07-13T09:25:31Z</time>
      </trkpt>
      <trkpt lat="42.7378995996" lon="-0.1415144373">
        <ele>1667.54</ele>
        <time>2022-07-13T09:25:42Z</time>
      </trkpt>
      <trkpt lat="42.7379612066" lon="-0.1415166166">
        <ele>1667.54</ele>
        <time>2022-07-13T09:25:47Z</time>
      </trkpt>
      <trkpt lat="42.7381347120" lon="-0.1415807381">
        <ele>1667.54</ele>
        <time>2022-07-13T09:26:01Z</time>
      </trkpt>
      <trkpt lat="42.7383239754" lon="-0.1416558400">
        <ele>1668.51</ele>
        <time>2022-07-13T09:26:17Z</time>
      </trkpt>
      <trkpt lat="42.7384269889" lon="-0.1416589413">
        <ele>1669.95</ele>
        <time>2022-07-13T09:26:28Z</time>
      </trkpt>
      <trkpt lat="42.7385504544" lon="-0.1415881142">
        <ele>1673.79</ele>
        <time>2022-07-13T09:26:44Z</time>
      </trkpt>
      <trkpt lat="42.7386373747" lon="-0.1415435225">
        <ele>1676.20</ele>
        <time>2022-07-13T09:26:58Z</time>
      </trkpt>
      <trkpt lat="42.7386786137" lon="-0.1415572688">
        <ele>1676.68</ele>
        <time>2022-07-13T09:27:02Z</time>
      </trkpt>
      <trkpt lat="42.7387988940" lon="-0.1415392477">
        <ele>1678.12</ele>
        <time>2022-07-13T09:27:13Z</time>
      </trkpt>
      <trkpt lat="42.7388636861" lon="-0.1415246632">
        <ele>1679.08</ele>
        <time>2022-07-13T09:27:20Z</time>
      </trkpt>
      <trkpt lat="42.7389866486" lon="-0.1415505633">
        <ele>1681.48</ele>
        <time>2022-07-13T09:27:33Z</time>
      </trkpt>
      <trkpt lat="42.7390050888" lon="-0.1415622141">
        <ele>1681.48</ele>
        <time>2022-07-13T09:27:35Z</time>
      </trkpt>
      <trkpt lat="42.7390490100" lon="-0.1415889524">
        <ele>1681.48</ele>
        <time>2022-07-13T09:27:39Z</time>
      </trkpt>
      <trkpt lat="42.7391885687" lon="-0.1416766271">
        <ele>1684.37</ele>
        <time>2022-07-13T09:27:55Z</time>
      </trkpt>
      <trkpt lat="42.7392902412" lon="-0.1417372283">
        <ele>1686.29</ele>
        <time>2022-07-13T09:28:07Z</time>
      </trkpt>
      <trkpt lat="42.7393670194" lon="-0.1417585183">
        <ele>1687.73</ele>
        <time>2022-07-13T09:28:16Z</time>
      </trkpt>
      <trkpt lat="42.7394436300" lon="-0.1418235619">
        <ele>1688.69</ele>
        <time>2022-07-13T09:28:25Z</time>
      </trkpt>
      <trkpt lat="42.7395593002" lon="-0.1418741047">
        <ele>1691.10</ele>
        <time>2022-07-13T09:28:38Z</time>
      </trkpt>
      <trkpt lat="42.7395986114" lon="-0.1418952271">
        <ele>1691.58</ele>
        <time>2022-07-13T09:28:42Z</time>
      </trkpt>
      <trkpt lat="42.7396442927" lon="-0.1419259887">
        <ele>1692.06</ele>
        <time>2022-07-13T09:28:48Z</time>
      </trkpt>
      <trkpt lat="42.7396942489" lon="-0.1419707481">
        <ele>1693.02</ele>
        <time>2022-07-13T09:28:54Z</time>
      </trkpt>
      <trkpt lat="42.7397506591" lon="-0.1419891044">
        <ele>1693.98</ele>
        <time>2022-07-13T09:29:01Z</time>
      </trkpt>
      <trkpt lat="42.7397697698" lon="-0.1419892721">
        <ele>1694.46</ele>
        <time>2022-07-13T09:29:03Z</time>
      </trkpt>
      <trkpt lat="42.7398197260" lon="-0.1420435030">
        <ele>1694.94</ele>
        <time>2022-07-13T09:29:09Z</time>
      </trkpt>
      <trkpt lat="42.7399506513" lon="-0.1421553176">
        <ele>1697.34</ele>
        <time>2022-07-13T09:29:24Z</time>
      </trkpt>
      <trkpt lat="42.7400218137" lon="-0.1421974786">
        <ele>1698.31</ele>
        <time>2022-07-13T09:29:32Z</time>
      </trkpt>
      <trkpt lat="42.7401218098" lon="-0.1422123984">
        <ele>1699.27</ele>
        <time>2022-07-13T09:29:45Z</time>
      </trkpt>
      <trkpt lat="42.7401811536" lon="-0.1422271505">
        <ele>1699.27</ele>
        <time>2022-07-13T09:29:58Z</time>
      </trkpt>
      <trkpt lat="42.7402165253" lon="-0.1422631089">
        <ele>1699.27</ele>
        <time>2022-07-13T09:30:13Z</time>
      </trkpt>
      <trkpt lat="42.7402271703" lon="-0.1422898471">
        <ele>1699.27</ele>
        <time>2022-07-13T09:30:27Z</time>
      </trkpt>
      <trkpt lat="42.7402143460" lon="-0.1422838960">
        <ele>1699.75</ele>
        <time>2022-07-13T09:30:56Z</time>
      </trkpt>
      <trkpt lat="42.7402054612" lon="-0.1422684733">
        <ele>1699.75</ele>
        <time>2022-07-13T09:31:31Z</time>
      </trkpt>
      <trkpt lat="42.7402042877" lon="-0.1422668807">
        <ele>1699.75</ele>
        <time>2022-07-13T09:31:43Z</time>
      </trkpt>
      <trkpt lat="42.7401873562" lon="-0.1422706526">
        <ele>1687.25</ele>
        <time>2022-07-13T09:31:45Z</time>
      </trkpt>
      <trkpt lat="42.7401902061" lon="-0.1422683895">
        <ele>1699.75</ele>
        <time>2022-07-13T09:31:46Z</time>
      </trkpt>
      <trkpt lat="42.7401933074" lon="-0.1422683056">
        <ele>1710.32</ele>
        <time>2022-07-13T09:31:47Z</time>
      </trkpt>
      <trkpt lat="42.7401991747" lon="-0.1422709040">
        <ele>1700.71</ele>
        <time>2022-07-13T09:31:48Z</time>
      </trkpt>
      <trkpt lat="42.7402126696" lon="-0.1422750112">
        <ele>1701.19</ele>
        <time>2022-07-13T09:31:57Z</time>
      </trkpt>
      <trkpt lat="42.7402201295" lon="-0.1422766037">
        <ele>1699.75</ele>
        <time>2022-07-13T09:31:59Z</time>
      </trkpt>
      <trkpt lat="42.7402307745" lon="-0.1422764361">
        <ele>1699.75</ele>
        <time>2022-07-13T09:32:15Z</time>
      </trkpt>
      <trkpt lat="42.7402034495" lon="-0.1423062757">
        <ele>1699.75</ele>
        <time>2022-07-13T09:32:35Z</time>
      </trkpt>
      <trkpt lat="42.7401980013" lon="-0.1423359476">
        <ele>1699.27</ele>
        <time>2022-07-13T09:32:38Z</time>
      </trkpt>
      <trkpt lat="42.7402228117" lon="-0.1424667891">
        <ele>1699.75</ele>
        <time>2022-07-13T09:32:54Z</time>
      </trkpt>
      <trkpt lat="42.7402454428" lon="-0.1425012387">
        <ele>1700.71</ele>
        <time>2022-07-13T09:32:59Z</time>
      </trkpt>
      <trkpt lat="42.7403474506" lon="-0.1426327508">
        <ele>1700.71</ele>
        <time>2022-07-13T09:33:12Z</time>
      </trkpt>
      <trkpt lat="42.7403978258" lon="-0.1426823717">
        <ele>1700.71</ele>
        <time>2022-07-13T09:33:18Z</time>
      </trkpt>
      <trkpt lat="42.7404792979" lon="-0.1427708007">
        <ele>1702.63</ele>
        <time>2022-07-13T09:33:31Z</time>
      </trkpt>
      <trkpt lat="42.7405067068" lon="-0.1427976228">
        <ele>1703.11</ele>
        <time>2022-07-13T09:33:35Z</time>
      </trkpt>
      <trkpt lat="42.7405854966" lon="-0.1429123711">
        <ele>1704.55</ele>
        <time>2022-07-13T09:33:47Z</time>
      </trkpt>
      <trkpt lat="42.7406626940" lon="-0.1430389378">
        <ele>1706.48</ele>
        <time>2022-07-13T09:34:00Z</time>
      </trkpt>
      <trkpt lat="42.7407052740" lon="-0.1430944260">
        <ele>1706.48</ele>
        <time>2022-07-13T09:34:05Z</time>
      </trkpt>
      <trkpt lat="42.7408563998" lon="-0.1432390139">
        <ele>1707.92</ele>
        <time>2022-07-13T09:34:21Z</time>
      </trkpt>
      <trkpt lat="42.7409315854" lon="-0.1432919875">
        <ele>1708.88</ele>
        <time>2022-07-13T09:34:28Z</time>
      </trkpt>
      <trkpt lat="42.7409905940" lon="-0.1434025448">
        <ele>1710.32</ele>
        <time>2022-07-13T09:34:38Z</time>
      </trkpt>
      <trkpt lat="42.7410519496" lon="-0.1435442828">
        <ele>1712.73</ele>
        <time>2022-07-13T09:34:51Z</time>
      </trkpt>
      <trkpt lat="42.7411341760" lon="-0.1436644793">
        <ele>1715.61</ele>
        <time>2022-07-13T09:35:04Z</time>
      </trkpt>
      <trkpt lat="42.7411853056" lon="-0.1437758747">
        <ele>1717.05</ele>
        <time>2022-07-13T09:35:16Z</time>
      </trkpt>
      <trkpt lat="42.7412527800" lon="-0.1438907068">
        <ele>1720.42</ele>
        <time>2022-07-13T09:35:29Z</time>
      </trkpt>
      <trkpt lat="42.7412847988" lon="-0.1440347079">
        <ele>1722.82</ele>
        <time>2022-07-13T09:35:43Z</time>
      </trkpt>
      <trkpt lat="42.7413327433" lon="-0.1441498753">
        <ele>1725.22</ele>
        <time>2022-07-13T09:35:57Z</time>
      </trkpt>
      <trkpt lat="42.7413376048" lon="-0.1442447584">
        <ele>1727.63</ele>
        <time>2022-07-13T09:36:06Z</time>
      </trkpt>
      <trkpt lat="42.7413729765" lon="-0.1443306729">
        <ele>1727.15</ele>
        <time>2022-07-13T09:36:13Z</time>
      </trkpt>
      <trkpt lat="42.7415305562" lon="-0.1443481911">
        <ele>1727.63</ele>
        <time>2022-07-13T09:36:28Z</time>
      </trkpt>
      <trkpt lat="42.7417058218" lon="-0.1443514600">
        <ele>1726.18</ele>
        <time>2022-07-13T09:36:43Z</time>
      </trkpt>
      <trkpt lat="42.7417245135" lon="-0.1443400607">
        <ele>1726.18</ele>
        <time>2022-07-13T09:36:45Z</time>
      </trkpt>
      <trkpt lat="42.7417936642" lon="-0.1443381328">
        <ele>1727.15</ele>
        <time>2022-07-13T09:36:51Z</time>
      </trkpt>
      <trkpt lat="42.7418245934" lon="-0.1443424914">
        <ele>1727.15</ele>
        <time>2022-07-13T09:36:54Z</time>
      </trkpt>
      <trkpt lat="42.7419395093" lon="-0.1443610154">
        <ele>1727.63</ele>
        <time>2022-07-13T09:37:04Z</time>
      </trkpt>
      <trkpt lat="42.7420939039" lon="-0.1443917770">
        <ele>1729.55</ele>
        <time>2022-07-13T09:37:19Z</time>
      </trkpt>
      <trkpt lat="42.7422622964" lon="-0.1444365364">
        <ele>1730.99</ele>
        <time>2022-07-13T09:37:33Z</time>
      </trkpt>
      <trkpt lat="42.7424234804" lon="-0.1444780268">
        <ele>1731.95</ele>
        <time>2022-07-13T09:37:47Z</time>
      </trkpt>
      <trkpt lat="42.7425041143" lon="-0.1444982272">
        <ele>1732.91</ele>
        <time>2022-07-13T09:37:56Z</time>
      </trkpt>
      <trkpt lat="42.7426749375" lon="-0.1446047612">
        <ele>1734.36</ele>
        <time>2022-07-13T09:38:12Z</time>
      </trkpt>
      <trkpt lat="42.7426933777" lon="-0.1446197648">
        <ele>1734.84</ele>
        <time>2022-07-13T09:38:14Z</time>
      </trkpt>
      <trkpt lat="42.7428065334" lon="-0.1447338425">
        <ele>1735.80</ele>
        <time>2022-07-13T09:38:27Z</time>
      </trkpt>
      <trkpt lat="42.7428344451" lon="-0.1447593234">
        <ele>1736.28</ele>
        <time>2022-07-13T09:38:30Z</time>
      </trkpt>
      <trkpt lat="42.7429600060" lon="-0.1449024025">
        <ele>1738.68</ele>
        <time>2022-07-13T09:38:45Z</time>
      </trkpt>
      <trkpt lat="42.7430681325" lon="-0.1449145563">
        <ele>1739.16</ele>
        <time>2022-07-13T09:39:00Z</time>
      </trkpt>
      <trkpt lat="42.7430831362" lon="-0.1449166518">
        <ele>1738.20</ele>
        <time>2022-07-13T09:39:02Z</time>
      </trkpt>
      <trkpt lat="42.7430899255" lon="-0.1449214295">
        <ele>1738.20</ele>
        <time>2022-07-13T09:39:03Z</time>
      </trkpt>
      <trkpt lat="42.7431536280" lon="-0.1449075993">
        <ele>1736.76</ele>
        <time>2022-07-13T09:39:10Z</time>
      </trkpt>
      <trkpt lat="42.7432033326" lon="-0.1449350920">
        <ele>1736.76</ele>
        <time>2022-07-13T09:39:18Z</time>
      </trkpt>
      <trkpt lat="42.7432484273" lon="-0.1449798513">
        <ele>1737.72</ele>
        <time>2022-07-13T09:39:26Z</time>
      </trkpt>
      <trkpt lat="42.7432713099" lon="-0.1450313162">
        <ele>1738.20</ele>
        <time>2022-07-13T09:39:31Z</time>
      </trkpt>
      <trkpt lat="42.7433235291" lon="-0.1450695377">
        <ele>1739.64</ele>
        <time>2022-07-13T09:39:37Z</time>
      </trkpt>
      <trkpt lat="42.7433762513" lon="-0.1451439690">
        <ele>1740.60</ele>
        <time>2022-07-13T09:39:45Z</time>
      </trkpt>
      <trkpt lat="42.7434312366" lon="-0.1452087611">
        <ele>1741.57</ele>
        <time>2022-07-13T09:39:53Z</time>
      </trkpt>
      <trkpt lat="42.7435257845" lon="-0.1452232618">
        <ele>1743.01</ele>
        <time>2022-07-13T09:40:04Z</time>
      </trkpt>
      <trkpt lat="42.7436325699" lon="-0.1452832762">
        <ele>1746.37</ele>
        <time>2022-07-13T09:40:18Z</time>
      </trkpt>
      <trkpt lat="42.7437125333" lon="-0.1452942565">
        <ele>1749.74</ele>
        <time>2022-07-13T09:40:32Z</time>
      </trkpt>
      <trkpt lat="42.7437292971" lon="-0.1452940051">
        <ele>1749.74</ele>
        <time>2022-07-13T09:40:35Z</time>
      </trkpt>
      <trkpt lat="42.7437918261" lon="-0.1452995371">
        <ele>1751.18</ele>
        <time>2022-07-13T09:40:41Z</time>
      </trkpt>
      <trkpt lat="42.7438183129" lon="-0.1452884730">
        <ele>1751.18</ele>
        <time>2022-07-13T09:40:44Z</time>
      </trkpt>
      <trkpt lat="42.7438639943" lon="-0.1452928316">
        <ele>1752.14</ele>
        <time>2022-07-13T09:40:49Z</time>
      </trkpt>
      <trkpt lat="42.7440314647" lon="-0.1453697775">
        <ele>1752.62</ele>
        <time>2022-07-13T09:41:03Z</time>
      </trkpt>
      <trkpt lat="42.7440630645" lon="-0.1453942526">
        <ele>1752.62</ele>
        <time>2022-07-13T09:41:06Z</time>
      </trkpt>
      <trkpt lat="42.7441857755" lon="-0.1453920733">
        <ele>1753.58</ele>
        <time>2022-07-13T09:41:19Z</time>
      </trkpt>
      <trkpt lat="42.7442756295" lon="-0.1453501638">
        <ele>1756.47</ele>
        <time>2022-07-13T09:41:33Z</time>
      </trkpt>
      <trkpt lat="42.7443536650" lon="-0.1453235932">
        <ele>1756.95</ele>
        <time>2022-07-13T09:41:42Z</time>
      </trkpt>
      <trkpt lat="42.7444465365" lon="-0.1453796681">
        <ele>1757.43</ele>
        <time>2022-07-13T09:41:54Z</time>
      </trkpt>
      <trkpt lat="42.7444520686" lon="-0.1454222482">
        <ele>1757.43</ele>
        <time>2022-07-13T09:41:58Z</time>
      </trkpt>
      <trkpt lat="42.7444567624" lon="-0.1456208155">
        <ele>1759.35</ele>
        <time>2022-07-13T09:42:14Z</time>
      </trkpt>
      <trkpt lat="42.7444430999" lon="-0.1456575282">
        <ele>1760.31</ele>
        <time>2022-07-13T09:42:18Z</time>
      </trkpt>
      <trkpt lat="42.7444840036" lon="-0.1457262598">
        <ele>1762.23</ele>
        <time>2022-07-13T09:42:32Z</time>
      </trkpt>
      <trkpt lat="42.7445471194" lon="-0.1457162853">
        <ele>1763.68</ele>
        <time>2022-07-13T09:42:39Z</time>
      </trkpt>
      <trkpt lat="42.7446736861" lon="-0.1457813289">
        <ele>1766.56</ele>
        <time>2022-07-13T09:42:52Z</time>
      </trkpt>
      <trkpt lat="42.7448172681" lon="-0.1459530741">
        <ele>1768.96</ele>
        <time>2022-07-13T09:43:10Z</time>
      </trkpt>
      <trkpt lat="42.7448458504" lon="-0.1460036170">
        <ele>1769.44</ele>
        <time>2022-07-13T09:43:14Z</time>
      </trkpt>
      <trkpt lat="42.7449199464" lon="-0.1460948121">
        <ele>1770.89</ele>
        <time>2022-07-13T09:43:24Z</time>
      </trkpt>
      <trkpt lat="42.7449859958" lon="-0.1462395675">
        <ele>1773.29</ele>
        <time>2022-07-13T09:43:37Z</time>
      </trkpt>
      <trkpt lat="42.7450829744" lon="-0.1463136636">
        <ele>1776.65</ele>
        <time>2022-07-13T09:43:50Z</time>
      </trkpt>
      <trkpt lat="42.7451350261" lon="-0.1463387255">
        <ele>1777.61</ele>
        <time>2022-07-13T09:43:56Z</time>
      </trkpt>
      <trkpt lat="42.7451951243" lon="-0.1463982370">
        <ele>1779.06</ele>
        <time>2022-07-13T09:44:03Z</time>
      </trkpt>
      <trkpt lat="42.7453304920" lon="-0.1465058606">
        <ele>1781.94</ele>
        <time>2022-07-13T09:44:18Z</time>
      </trkpt>
      <trkpt lat="42.7454729844" lon="-0.1465930324">
        <ele>1784.34</ele>
        <time>2022-07-13T09:44:34Z</time>
      </trkpt>
      <trkpt lat="42.7455961145" lon="-0.1467008237">
        <ele>1786.27</ele>
        <time>2022-07-13T09:44:47Z</time>
      </trkpt>
      <trkpt lat="42.7456733119" lon="-0.1467564795">
        <ele>1787.23</ele>
        <time>2022-07-13T09:44:55Z</time>
      </trkpt>
      <trkpt lat="42.7457424626" lon="-0.1468049269">
        <ele>1788.67</ele>
        <time>2022-07-13T09:45:02Z</time>
      </trkpt>
      <trkpt lat="42.7457878087" lon="-0.1468290668">
        <ele>1789.15</ele>
        <time>2022-07-13T09:45:06Z</time>
      </trkpt>
      <trkpt lat="42.7459517587" lon="-0.1469798572">
        <ele>1789.63</ele>
        <time>2022-07-13T09:45:23Z</time>
      </trkpt>
      <trkpt lat="42.7460234240" lon="-0.1470246166">
        <ele>1789.63</ele>
        <time>2022-07-13T09:45:29Z</time>
      </trkpt>
      <trkpt lat="42.7460894734" lon="-0.1470842119">
        <ele>1790.11</ele>
        <time>2022-07-13T09:45:35Z</time>
      </trkpt>
      <trkpt lat="42.7462535910" lon="-0.1472526044">
        <ele>1790.59</ele>
        <time>2022-07-13T09:45:50Z</time>
      </trkpt>
      <trkpt lat="42.7464265097" lon="-0.1474094298">
        <ele>1791.07</ele>
        <time>2022-07-13T09:46:05Z</time>
      </trkpt>
      <trkpt lat="42.7466116659" lon="-0.1475630701">
        <ele>1792.52</ele>
        <time>2022-07-13T09:46:21Z</time>
      </trkpt>
      <trkpt lat="42.7467026934" lon="-0.1477100048">
        <ele>1793.00</ele>
        <time>2022-07-13T09:46:32Z</time>
      </trkpt>
      <trkpt lat="42.7467427589" lon="-0.1477564406">
        <ele>1793.48</ele>
        <time>2022-07-13T09:46:36Z</time>
      </trkpt>
      <trkpt lat="42.7468620334" lon="-0.1479264256">
        <ele>1794.44</ele>
        <time>2022-07-13T09:46:50Z</time>
      </trkpt>
      <trkpt lat="42.7469342016" lon="-0.1481167786">
        <ele>1796.36</ele>
        <time>2022-07-13T09:47:05Z</time>
      </trkpt>
      <trkpt lat="42.7469627000" lon="-0.1482388191">
        <ele>1797.32</ele>
        <time>2022-07-13T09:47:14Z</time>
      </trkpt>
      <trkpt lat="42.7469453495" lon="-0.1482778788">
        <ele>1798.28</ele>
        <time>2022-07-13T09:47:17Z</time>
      </trkpt>
      <trkpt lat="42.7469246462" lon="-0.1482969057">
        <ele>1798.28</ele>
        <time>2022-07-13T09:47:19Z</time>
      </trkpt>
      <trkpt lat="42.7468908671" lon="-0.1483102329">
        <ele>1798.76</ele>
        <time>2022-07-13T09:47:22Z</time>
      </trkpt>
      <trkpt lat="42.7468170226" lon="-0.1483154297">
        <ele>1799.24</ele>
        <time>2022-07-13T09:47:29Z</time>
      </trkpt>
      <trkpt lat="42.7468027733" lon="-0.1483352110">
        <ele>1799.24</ele>
        <time>2022-07-13T09:47:32Z</time>
      </trkpt>
      <trkpt lat="42.7468306851" lon="-0.1484419964">
        <ele>1799.24</ele>
        <time>2022-07-13T09:47:39Z</time>
      </trkpt>
      <trkpt lat="42.7468311042" lon="-0.1485196128">
        <ele>1799.24</ele>
        <time>2022-07-13T09:47:44Z</time>
      </trkpt>
      <trkpt lat="42.7468442637" lon="-0.1486017555">
        <ele>1798.28</ele>
        <time>2022-07-13T09:47:51Z</time>
      </trkpt>
      <trkpt lat="42.7468430065" lon="-0.1486276556">
        <ele>1797.80</ele>
        <time>2022-07-13T09:47:53Z</time>
      </trkpt>
      <trkpt lat="42.7469544020" lon="-0.1487657055">
        <ele>1794.92</ele>
        <time>2022-07-13T09:48:08Z</time>
      </trkpt>
      <trkpt lat="42.7470016759" lon="-0.1487954613">
        <ele>1794.92</ele>
        <time>2022-07-13T09:48:13Z</time>
      </trkpt>
      <trkpt lat="42.7470768616" lon="-0.1489662845">
        <ele>1797.32</ele>
        <time>2022-07-13T09:48:28Z</time>
      </trkpt>
      <trkpt lat="42.7471355349" lon="-0.1491272170">
        <ele>1797.32</ele>
        <time>2022-07-13T09:48:40Z</time>
      </trkpt>
      <trkpt lat="42.7471560705" lon="-0.1492180768">
        <ele>1795.88</ele>
        <time>2022-07-13T09:48:46Z</time>
      </trkpt>
      <trkpt lat="42.7471807133" lon="-0.1494377665">
        <ele>1794.44</ele>
        <time>2022-07-13T09:49:01Z</time>
      </trkpt>
      <trkpt lat="42.7472657897" lon="-0.1496600546">
        <ele>1792.03</ele>
        <time>2022-07-13T09:49:18Z</time>
      </trkpt>
      <trkpt lat="42.7473770175" lon="-0.1498272736">
        <ele>1790.59</ele>
        <time>2022-07-13T09:49:30Z</time>
      </trkpt>
      <trkpt lat="42.7474785224" lon="-0.1500552613">
        <ele>1787.71</ele>
        <time>2022-07-13T09:49:46Z</time>
      </trkpt>
      <trkpt lat="42.7474928554" lon="-0.1500829216">
        <ele>1787.71</ele>
        <time>2022-07-13T09:49:48Z</time>
      </trkpt>
      <trkpt lat="42.7475944441" lon="-0.1503329538">
        <ele>1785.31</ele>
        <time>2022-07-13T09:50:03Z</time>
      </trkpt>
      <trkpt lat="42.7476520278" lon="-0.1504901145">
        <ele>1784.34</ele>
        <time>2022-07-13T09:50:13Z</time>
      </trkpt>
      <trkpt lat="42.7476894110" lon="-0.1505688205">
        <ele>1784.34</ele>
        <time>2022-07-13T09:50:18Z</time>
      </trkpt>
      <trkpt lat="42.7478104457" lon="-0.1508351136">
        <ele>1782.42</ele>
        <time>2022-07-13T09:50:35Z</time>
      </trkpt>
      <trkpt lat="42.7478537802" lon="-0.1510910131">
        <ele>1780.02</ele>
        <time>2022-07-13T09:50:50Z</time>
      </trkpt>
      <trkpt lat="42.7479039878" lon="-0.1512822043">
        <ele>1779.54</ele>
        <time>2022-07-13T09:51:01Z</time>
      </trkpt>
      <trkpt lat="42.7479434665" lon="-0.1513930969">
        <ele>1779.54</ele>
        <time>2022-07-13T09:51:09Z</time>
      </trkpt>
      <trkpt lat="42.7479677740" lon="-0.1514669415">
        <ele>1779.54</ele>
        <time>2022-07-13T09:51:14Z</time>
      </trkpt>
      <trkpt lat="42.7480688598" lon="-0.1516785007">
        <ele>1779.54</ele>
        <time>2022-07-13T09:51:28Z</time>
      </trkpt>
      <trkpt lat="42.7481245995" lon="-0.1518792473">
        <ele>1779.54</ele>
        <time>2022-07-13T09:51:40Z</time>
      </trkpt>
      <trkpt lat="42.7482479811" lon="-0.1520815864">
        <ele>1780.98</ele>
        <time>2022-07-13T09:51:55Z</time>
      </trkpt>
      <trkpt lat="42.7483559400" lon="-0.1522505656">
        <ele>1780.98</ele>
        <time>2022-07-13T09:52:08Z</time>
      </trkpt>
      <trkpt lat="42.7484734543" lon="-0.1524160244">
        <ele>1780.98</ele>
        <time>2022-07-13T09:52:21Z</time>
      </trkpt>
      <trkpt lat="42.7485179622" lon="-0.1525293477">
        <ele>1780.98</ele>
        <time>2022-07-13T09:52:28Z</time>
      </trkpt>
      <trkpt lat="42.7485835087" lon="-0.1526552439">
        <ele>1780.98</ele>
        <time>2022-07-13T09:52:42Z</time>
      </trkpt>
      <trkpt lat="42.7486002725" lon="-0.1526541542">
        <ele>1780.98</ele>
        <time>2022-07-13T09:52:49Z</time>
      </trkpt>
      <trkpt lat="42.7486142702" lon="-0.1527008414">
        <ele>1780.98</ele>
        <time>2022-07-13T09:52:52Z</time>
      </trkpt>
      <trkpt lat="42.7487250790" lon="-0.1528719161">
        <ele>1781.46</ele>
        <time>2022-07-13T09:53:05Z</time>
      </trkpt>
      <trkpt lat="42.7488757856" lon="-0.1530597545">
        <ele>1782.90</ele>
        <time>2022-07-13T09:53:22Z</time>
      </trkpt>
      <trkpt lat="42.7489296813" lon="-0.1532297395">
        <ele>1781.46</ele>
        <time>2022-07-13T09:53:33Z</time>
      </trkpt>
      <trkpt lat="42.7489186171" lon="-0.1535006426">
        <ele>1780.50</ele>
        <time>2022-07-13T09:53:47Z</time>
      </trkpt>
      <trkpt lat="42.7488860954" lon="-0.1537160575">
        <ele>1780.98</ele>
        <time>2022-07-13T09:54:00Z</time>
      </trkpt>
      <trkpt lat="42.7488699183" lon="-0.1537842862">
        <ele>1780.98</ele>
        <time>2022-07-13T09:54:04Z</time>
      </trkpt>
      <trkpt lat="42.7488808986" lon="-0.1539388485">
        <ele>1780.98</ele>
        <time>2022-07-13T09:54:18Z</time>
      </trkpt>
      <trkpt lat="42.7489033621" lon="-0.1540360786">
        <ele>1779.06</ele>
        <time>2022-07-13T09:54:31Z</time>
      </trkpt>
      <trkpt lat="42.7488722652" lon="-0.1539409440">
        <ele>1779.54</ele>
        <time>2022-07-13T09:54:49Z</time>
      </trkpt>
      <trkpt lat="42.7488834970" lon="-0.1539287064">
        <ele>1779.54</ele>
        <time>2022-07-13T09:54:55Z</time>
      </trkpt>
      <trkpt lat="42.7489280049" lon="-0.1539111044">
        <ele>1780.98</ele>
        <time>2022-07-13T09:54:59Z</time>
      </trkpt>
      <trkpt lat="42.7489588503" lon="-0.1539309695">
        <ele>1780.50</ele>
        <time>2022-07-13T09:55:02Z</time>
      </trkpt>
      <trkpt lat="42.7490941342" lon="-0.1539972704">
        <ele>1780.98</ele>
        <time>2022-07-13T09:55:15Z</time>
      </trkpt>
      <trkpt lat="42.7491316013" lon="-0.1540699415">
        <ele>1780.98</ele>
        <time>2022-07-13T09:55:22Z</time>
      </trkpt>
      <trkpt lat="42.7491484489" lon="-0.1541359071">
        <ele>1780.98</ele>
        <time>2022-07-13T09:55:26Z</time>
      </trkpt>
      <trkpt lat="42.7491496224" lon="-0.1541882940">
        <ele>1780.98</ele>
        <time>2022-07-13T09:55:30Z</time>
      </trkpt>
      <trkpt lat="42.7491878439" lon="-0.1543037128">
        <ele>1780.98</ele>
        <time>2022-07-13T09:55:36Z</time>
      </trkpt>
      <trkpt lat="42.7492134925" lon="-0.1545331255">
        <ele>1781.46</ele>
        <time>2022-07-13T09:55:51Z</time>
      </trkpt>
      <trkpt lat="42.7492662985" lon="-0.1545331255">
        <ele>1781.94</ele>
        <time>2022-07-13T09:56:04Z</time>
      </trkpt>
      <trkpt lat="42.7492785361" lon="-0.1545896195">
        <ele>1781.94</ele>
        <time>2022-07-13T09:56:21Z</time>
      </trkpt>
      <trkpt lat="42.7492803801" lon="-0.1547335368">
        <ele>1782.90</ele>
        <time>2022-07-13T09:56:34Z</time>
      </trkpt>
      <trkpt lat="42.7492579166" lon="-0.1548673958">
        <ele>1784.82</ele>
        <time>2022-07-13T09:56:47Z</time>
      </trkpt>
      <trkpt lat="42.7492665499" lon="-0.1548392326">
        <ele>1784.82</ele>
        <time>2022-07-13T09:57:01Z</time>
      </trkpt>
      <trkpt lat="42.7492781170" lon="-0.1549878437">
        <ele>1784.82</ele>
        <time>2022-07-13T09:57:12Z</time>
      </trkpt>
      <trkpt lat="42.7492905222" lon="-0.1550646219">
        <ele>1784.82</ele>
        <time>2022-07-13T09:57:16Z</time>
      </trkpt>
      <trkpt lat="42.7493143268" lon="-0.1552097965">
        <ele>1785.31</ele>
        <time>2022-07-13T09:57:24Z</time>
      </trkpt>
      <trkpt lat="42.7493255585" lon="-0.1554248761">
        <ele>1786.27</ele>
        <time>2022-07-13T09:57:39Z</time>
      </trkpt>
      <trkpt lat="42.7494082879" lon="-0.1556779258">
        <ele>1786.27</ele>
        <time>2022-07-13T09:57:54Z</time>
      </trkpt>
      <trkpt lat="42.7494442463" lon="-0.1557340007">
        <ele>1784.82</ele>
        <time>2022-07-13T09:58:00Z</time>
      </trkpt>
      <trkpt lat="42.7494630218" lon="-0.1557905786">
        <ele>1784.34</ele>
        <time>2022-07-13T09:58:04Z</time>
      </trkpt>
      <trkpt lat="42.7495655324" lon="-0.1559596416">
        <ele>1780.98</ele>
        <time>2022-07-13T09:58:21Z</time>
      </trkpt>
      <trkpt lat="42.7496351022" lon="-0.1561044808">
        <ele>1778.58</ele>
        <time>2022-07-13T09:58:34Z</time>
      </trkpt>
      <trkpt lat="42.7497511078" lon="-0.1561965980">
        <ele>1777.61</ele>
        <time>2022-07-13T09:58:45Z</time>
      </trkpt>
      <trkpt lat="42.7498448174" lon="-0.1563753001">
        <ele>1775.69</ele>
        <time>2022-07-13T09:58:59Z</time>
      </trkpt>
      <trkpt lat="42.7498775069" lon="-0.1564712729">
        <ele>1774.73</ele>
        <time>2022-07-13T09:59:05Z</time>
      </trkpt>
      <trkpt lat="42.7499321569" lon="-0.1567247417">
        <ele>1774.73</ele>
        <time>2022-07-13T09:59:21Z</time>
      </trkpt>
      <trkpt lat="42.7499754913" lon="-0.1568259951">
        <ele>1774.73</ele>
        <time>2022-07-13T09:59:28Z</time>
      </trkpt>
      <trkpt lat="42.7500432171" lon="-0.1569800545">
        <ele>1774.73</ele>
        <time>2022-07-13T09:59:40Z</time>
      </trkpt>
      <trkpt lat="42.7500820253" lon="-0.1570833195">
        <ele>1774.73</ele>
        <time>2022-07-13T09:59:48Z</time>
      </trkpt>
      <trkpt lat="42.7501279581" lon="-0.1571180206">
        <ele>1775.69</ele>
        <time>2022-07-13T09:59:53Z</time>
      </trkpt>
      <trkpt lat="42.7501592226" lon="-0.1572968904">
        <ele>1776.17</ele>
        <time>2022-07-13T10:00:05Z</time>
      </trkpt>
      <trkpt lat="42.7501688618" lon="-0.1573232096">
        <ele>1776.17</ele>
        <time>2022-07-13T10:00:08Z</time>
      </trkpt>
      <trkpt lat="42.7501703706" lon="-0.1574330125">
        <ele>1776.17</ele>
        <time>2022-07-13T10:00:16Z</time>
      </trkpt>
      <trkpt lat="42.7502152976" lon="-0.1576297358">
        <ele>1776.65</ele>
        <time>2022-07-13T10:00:30Z</time>
      </trkpt>
      <trkpt lat="42.7502216678" lon="-0.1576842181">
        <ele>1776.65</ele>
        <time>2022-07-13T10:00:34Z</time>
      </trkpt>
      <trkpt lat="42.7502385154" lon="-0.1578052528">
        <ele>1775.69</ele>
        <time>2022-07-13T10:00:42Z</time>
      </trkpt>
      <trkpt lat="42.7502556983" lon="-0.1579541154">
        <ele>1775.21</ele>
        <time>2022-07-13T10:00:52Z</time>
      </trkpt>
      <trkpt lat="42.7502590511" lon="-0.1580016408">
        <ele>1775.21</ele>
        <time>2022-07-13T10:00:55Z</time>
      </trkpt>
      <trkpt lat="42.7502863761" lon="-0.1581717934">
        <ele>1775.21</ele>
        <time>2022-07-13T10:01:05Z</time>
      </trkpt>
      <trkpt lat="42.7502920758" lon="-0.1582831051">
        <ele>1776.65</ele>
        <time>2022-07-13T10:01:12Z</time>
      </trkpt>
      <trkpt lat="42.7502929140" lon="-0.1582994498">
        <ele>1776.65</ele>
        <time>2022-07-13T10:01:13Z</time>
      </trkpt>
      <trkpt lat="42.7502957638" lon="-0.1584646571">
        <ele>1778.58</ele>
        <time>2022-07-13T10:01:26Z</time>
      </trkpt>
      <trkpt lat="42.7502976079" lon="-0.1584762242">
        <ele>1779.06</ele>
        <time>2022-07-13T10:01:27Z</time>
      </trkpt>
      <trkpt lat="42.7502868790" lon="-0.1586869452">
        <ele>1779.54</ele>
        <time>2022-07-13T10:01:40Z</time>
      </trkpt>
      <trkpt lat="42.7503202390" lon="-0.1587619632">
        <ele>1779.54</ele>
        <time>2022-07-13T10:01:45Z</time>
      </trkpt>
      <trkpt lat="42.7503384277" lon="-0.1589028630">
        <ele>1780.02</ele>
        <time>2022-07-13T10:01:54Z</time>
      </trkpt>
      <trkpt lat="42.7503438760" lon="-0.1589394081">
        <ele>1780.02</ele>
        <time>2022-07-13T10:01:56Z</time>
      </trkpt>
      <trkpt lat="42.7503631543" lon="-0.1589959860">
        <ele>1780.50</ele>
        <time>2022-07-13T10:02:00Z</time>
      </trkpt>
      <trkpt lat="42.7504375018" lon="-0.1591382269">
        <ele>1780.98</ele>
        <time>2022-07-13T10:02:11Z</time>
      </trkpt>
      <trkpt lat="42.7504840214" lon="-0.1592433359">
        <ele>1782.90</ele>
        <time>2022-07-13T10:02:22Z</time>
      </trkpt>
      <trkpt lat="42.7505174652" lon="-0.1592906099">
        <ele>1782.90</ele>
        <time>2022-07-13T10:02:26Z</time>
      </trkpt>
      <trkpt lat="42.7505642362" lon="-0.1594445854">
        <ele>1784.34</ele>
        <time>2022-07-13T10:02:38Z</time>
      </trkpt>
      <trkpt lat="42.7506007813" lon="-0.1594982296">
        <ele>1784.82</ele>
        <time>2022-07-13T10:02:43Z</time>
      </trkpt>
      <trkpt lat="42.7506263461" lon="-0.1595559809">
        <ele>1785.31</ele>
        <time>2022-07-13T10:02:48Z</time>
      </trkpt>
      <trkpt lat="42.7506887075" lon="-0.1597367786">
        <ele>1786.27</ele>
        <time>2022-07-13T10:03:00Z</time>
      </trkpt>
      <trkpt lat="42.7507111710" lon="-0.1598111261">
        <ele>1786.75</ele>
        <time>2022-07-13T10:03:04Z</time>
      </trkpt>
      <trkpt lat="42.7507010289" lon="-0.1598418038">
        <ele>1786.75</ele>
        <time>2022-07-13T10:03:06Z</time>
      </trkpt>
      <trkpt lat="42.7507201396" lon="-0.1599538699">
        <ele>1786.75</ele>
        <time>2022-07-13T10:03:13Z</time>
      </trkpt>
      <trkpt lat="42.7507799026" lon="-0.1601843722">
        <ele>1786.75</ele>
        <time>2022-07-13T10:03:27Z</time>
      </trkpt>
      <trkpt lat="42.7508028690" lon="-0.1602612343">
        <ele>1786.75</ele>
        <time>2022-07-13T10:03:32Z</time>
      </trkpt>
      <trkpt lat="42.7508590277" lon="-0.1603209134">
        <ele>1787.71</ele>
        <time>2022-07-13T10:03:39Z</time>
      </trkpt>
      <trkpt lat="42.7509004343" lon="-0.1603023894">
        <ele>1788.19</ele>
        <time>2022-07-13T10:03:45Z</time>
      </trkpt>
      <trkpt lat="42.7510034479" lon="-0.1604793314">
        <ele>1789.63</ele>
        <time>2022-07-13T10:03:58Z</time>
      </trkpt>
      <trkpt lat="42.7510299347" lon="-0.1605253480">
        <ele>1790.11</ele>
        <time>2022-07-13T10:04:02Z</time>
      </trkpt>
      <trkpt lat="42.7510684915" lon="-0.1605499070">
        <ele>1790.11</ele>
        <time>2022-07-13T10:04:06Z</time>
      </trkpt>
      <trkpt lat="42.7511349600" lon="-0.1607234124">
        <ele>1790.59</ele>
        <time>2022-07-13T10:04:20Z</time>
      </trkpt>
      <trkpt lat="42.7511887718" lon="-0.1607978437">
        <ele>1791.55</ele>
        <time>2022-07-13T10:04:28Z</time>
      </trkpt>
      <trkpt lat="42.7512131631" lon="-0.1608294435">
        <ele>1792.52</ele>
        <time>2022-07-13T10:04:32Z</time>
      </trkpt>
      <trkpt lat="42.7512818109" lon="-0.1608841773">
        <ele>1793.48</ele>
        <time>2022-07-13T10:04:40Z</time>
      </trkpt>
      <trkpt lat="42.7513484471" lon="-0.1610561740">
        <ele>1794.44</ele>
        <time>2022-07-13T10:04:52Z</time>
      </trkpt>
      <trkpt lat="42.7513999119" lon="-0.1612403244">
        <ele>1796.36</ele>
        <time>2022-07-13T10:05:06Z</time>
      </trkpt>
      <trkpt lat="42.7514673863" lon="-0.1614402328">
        <ele>1797.80</ele>
        <time>2022-07-13T10:05:20Z</time>
      </trkpt>
      <trkpt lat="42.7514503710" lon="-0.1616223715">
        <ele>1799.24</ele>
        <time>2022-07-13T10:05:33Z</time>
      </trkpt>
      <trkpt lat="42.7514569089" lon="-0.1616532169">
        <ele>1800.21</ele>
        <time>2022-07-13T10:05:36Z</time>
      </trkpt>
      <trkpt lat="42.7515251376" lon="-0.1618471742">
        <ele>1802.61</ele>
        <time>2022-07-13T10:05:51Z</time>
      </trkpt>
      <trkpt lat="42.7516057715" lon="-0.1618967950">
        <ele>1805.01</ele>
        <time>2022-07-13T10:06:04Z</time>
      </trkpt>
      <trkpt lat="42.7516584098" lon="-0.1620117947">
        <ele>1806.94</ele>
        <time>2022-07-13T10:06:15Z</time>
      </trkpt>
      <trkpt lat="42.7516641095" lon="-0.1621934306">
        <ele>1807.90</ele>
        <time>2022-07-13T10:06:27Z</time>
      </trkpt>
      <trkpt lat="42.7516452502" lon="-0.1622198336">
        <ele>1808.86</ele>
        <time>2022-07-13T10:06:29Z</time>
      </trkpt>
      <trkpt lat="42.7516615111" lon="-0.1623154711">
        <ele>1808.86</ele>
        <time>2022-07-13T10:06:38Z</time>
      </trkpt>
      <trkpt lat="42.7517216094" lon="-0.1625425369">
        <ele>1811.26</ele>
        <time>2022-07-13T10:06:54Z</time>
      </trkpt>
      <trkpt lat="42.7517913468" lon="-0.1626506634">
        <ele>1813.18</ele>
        <time>2022-07-13T10:07:04Z</time>
      </trkpt>
      <trkpt lat="42.7518237848" lon="-0.1626876276">
        <ele>1814.15</ele>
        <time>2022-07-13T10:07:09Z</time>
      </trkpt>
      <trkpt lat="42.7519085258" lon="-0.1628535055">
        <ele>1816.55</ele>
        <time>2022-07-13T10:07:24Z</time>
      </trkpt>
      <trkpt lat="42.7519459929" lon="-0.1629262604">
        <ele>1817.51</ele>
        <time>2022-07-13T10:07:31Z</time>
      </trkpt>
      <trkpt lat="42.7519679535" lon="-0.1629917230">
        <ele>1817.99</ele>
        <time>2022-07-13T10:07:36Z</time>
      </trkpt>
      <trkpt lat="42.7520676143" lon="-0.1631342992">
        <ele>1819.91</ele>
        <time>2022-07-13T10:07:50Z</time>
      </trkpt>
      <trkpt lat="42.7521468233" lon="-0.1632058807">
        <ele>1822.32</ele>
        <time>2022-07-13T10:08:03Z</time>
      </trkpt>
      <trkpt lat="42.7522549499" lon="-0.1633272506">
        <ele>1824.24</ele>
        <time>2022-07-13T10:08:16Z</time>
      </trkpt>
      <trkpt lat="42.7523027267" lon="-0.1634638757">
        <ele>1826.16</ele>
        <time>2022-07-13T10:08:28Z</time>
      </trkpt>
      <trkpt lat="42.7523619030" lon="-0.1635599323">
        <ele>1827.60</ele>
        <time>2022-07-13T10:08:39Z</time>
      </trkpt>
      <trkpt lat="42.7523635793" lon="-0.1635731757">
        <ele>1827.60</ele>
        <time>2022-07-13T10:08:40Z</time>
      </trkpt>
      <trkpt lat="42.7523743082" lon="-0.1635953039">
        <ele>1828.56</ele>
        <time>2022-07-13T10:08:42Z</time>
      </trkpt>
      <trkpt lat="42.7524099313" lon="-0.1636722498">
        <ele>1829.53</ele>
        <time>2022-07-13T10:08:49Z</time>
      </trkpt>
      <trkpt lat="42.7524942532" lon="-0.1637978945">
        <ele>1831.93</ele>
        <time>2022-07-13T10:09:03Z</time>
      </trkpt>
      <trkpt lat="42.7525737975" lon="-0.1639298256">
        <ele>1833.85</ele>
        <time>2022-07-13T10:09:16Z</time>
      </trkpt>
      <trkpt lat="42.7526545152" lon="-0.1640610863">
        <ele>1836.26</ele>
        <time>2022-07-13T10:09:30Z</time>
      </trkpt>
      <trkpt lat="42.7526944131" lon="-0.1641324162">
        <ele>1836.74</ele>
        <time>2022-07-13T10:09:38Z</time>
      </trkpt>
      <trkpt lat="42.7528015338" lon="-0.1642506011">
        <ele>1838.66</ele>
        <time>2022-07-13T10:09:50Z</time>
      </trkpt>
      <trkpt lat="42.7528084069" lon="-0.1642688736">
        <ele>1839.14</ele>
        <time>2022-07-13T10:09:52Z</time>
      </trkpt>
      <trkpt lat="42.7528566029" lon="-0.1643603202">
        <ele>1840.58</ele>
        <time>2022-07-13T10:10:02Z</time>
      </trkpt>
      <trkpt lat="42.7528649848" lon="-0.1643778384">
        <ele>1841.06</ele>
        <time>2022-07-13T10:10:04Z</time>
      </trkpt>
      <trkpt lat="42.7529846784" lon="-0.1645015553">
        <ele>1842.02</ele>
        <time>2022-07-13T10:10:18Z</time>
      </trkpt>
      <trkpt lat="42.7530266717" lon="-0.1645215880">
        <ele>1842.50</ele>
        <time>2022-07-13T10:10:23Z</time>
      </trkpt>
      <trkpt lat="42.7531273384" lon="-0.1645943429">
        <ele>1843.47</ele>
        <time>2022-07-13T10:10:34Z</time>
      </trkpt>
      <trkpt lat="42.7532990836" lon="-0.1647403557">
        <ele>1845.87</ele>
        <time>2022-07-13T10:10:52Z</time>
      </trkpt>
      <trkpt lat="42.7533281688" lon="-0.1647349913">
        <ele>1846.35</ele>
        <time>2022-07-13T10:10:56Z</time>
      </trkpt>
      <trkpt lat="42.7533539012" lon="-0.1647666749">
        <ele>1846.35</ele>
        <time>2022-07-13T10:10:59Z</time>
      </trkpt>
      <trkpt lat="42.7534120716" lon="-0.1647693571">
        <ele>1846.83</ele>
        <time>2022-07-13T10:11:05Z</time>
      </trkpt>
      <trkpt lat="42.7534591779" lon="-0.1647976879">
        <ele>1847.79</ele>
        <time>2022-07-13T10:11:12Z</time>
      </trkpt>
      <trkpt lat="42.7535122354" lon="-0.1648414414">
        <ele>1848.27</ele>
        <time>2022-07-13T10:11:18Z</time>
      </trkpt>
      <trkpt lat="42.7536061127" lon="-0.1649447065">
        <ele>1848.75</ele>
        <time>2022-07-13T10:11:28Z</time>
      </trkpt>
      <trkpt lat="42.7537113894" lon="-0.1650225744">
        <ele>1849.23</ele>
        <time>2022-07-13T10:11:38Z</time>
      </trkpt>
      <trkpt lat="42.7538302448" lon="-0.1651516557">
        <ele>1850.68</ele>
        <time>2022-07-13T10:11:51Z</time>
      </trkpt>
      <trkpt lat="42.7539141476" lon="-0.1651987620">
        <ele>1851.16</ele>
        <time>2022-07-13T10:11:59Z</time>
      </trkpt>
      <trkpt lat="42.7539694682" lon="-0.1652321219">
        <ele>1852.60</ele>
        <time>2022-07-13T10:12:05Z</time>
      </trkpt>
      <trkpt lat="42.7541008126" lon="-0.1653765421">
        <ele>1853.56</ele>
        <time>2022-07-13T10:12:20Z</time>
      </trkpt>
      <trkpt lat="42.7542549558" lon="-0.1654622052">
        <ele>1855.96</ele>
        <time>2022-07-13T10:12:35Z</time>
      </trkpt>
      <trkpt lat="42.7543588076" lon="-0.1655403245">
        <ele>1858.37</ele>
        <time>2022-07-13T10:12:49Z</time>
      </trkpt>
      <trkpt lat="42.7544956002" lon="-0.1656765305">
        <ele>1859.33</ele>
        <time>2022-07-13T10:13:04Z</time>
      </trkpt>
      <trkpt lat="42.7545110229" lon="-0.1656965632">
        <ele>1860.29</ele>
        <time>2022-07-13T10:13:06Z</time>
      </trkpt>
      <trkpt lat="42.7546022180" lon="-0.1657590084">
        <ele>1862.21</ele>
        <time>2022-07-13T10:13:19Z</time>
      </trkpt>
      <trkpt lat="42.7546556108" lon="-0.1657811366">
        <ele>1863.65</ele>
        <time>2022-07-13T10:13:27Z</time>
      </trkpt>
      <trkpt lat="42.7546802536" lon="-0.1657814719">
        <ele>1864.13</ele>
        <time>2022-07-13T10:13:31Z</time>
      </trkpt>
      <trkpt lat="42.7547296230" lon="-0.1658429950">
        <ele>1864.61</ele>
        <time>2022-07-13T10:13:37Z</time>
      </trkpt>
      <trkpt lat="42.7547567803" lon="-0.1658412348">
        <ele>1865.09</ele>
        <time>2022-07-13T10:13:40Z</time>
      </trkpt>
      <trkpt lat="42.7548869513" lon="-0.1660033409">
        <ele>1866.54</ele>
        <time>2022-07-13T10:13:56Z</time>
      </trkpt>
      <trkpt lat="42.7549120132" lon="-0.1660245471">
        <ele>1867.02</ele>
        <time>2022-07-13T10:14:00Z</time>
      </trkpt>
      <trkpt lat="42.7550340537" lon="-0.1661767624">
        <ele>1868.94</ele>
        <time>2022-07-13T10:14:15Z</time>
      </trkpt>
      <trkpt lat="42.7550621331" lon="-0.1661639381">
        <ele>1869.42</ele>
        <time>2022-07-13T10:14:30Z</time>
      </trkpt>
      <trkpt lat="42.7551161963" lon="-0.1661962084">
        <ele>1869.90</ele>
        <time>2022-07-13T10:14:47Z</time>
      </trkpt>
      <trkpt lat="42.7551693376" lon="-0.1662922651">
        <ele>1870.38</ele>
        <time>2022-07-13T10:14:54Z</time>
      </trkpt>
      <trkpt lat="42.7552793920" lon="-0.1663380302">
        <ele>1872.30</ele>
        <time>2022-07-13T10:15:09Z</time>
      </trkpt>
      <trkpt lat="42.7553834952" lon="-0.1663889084">
        <ele>1872.79</ele>
        <time>2022-07-13T10:15:22Z</time>
      </trkpt>
      <trkpt lat="42.7554021031" lon="-0.1664298959">
        <ele>1872.79</ele>
        <time>2022-07-13T10:15:27Z</time>
      </trkpt>
      <trkpt lat="42.7554361336" lon="-0.1665230189">
        <ele>1873.75</ele>
        <time>2022-07-13T10:15:36Z</time>
      </trkpt>
      <trkpt lat="42.7555533126" lon="-0.1666283794">
        <ele>1873.27</ele>
        <time>2022-07-13T10:15:48Z</time>
      </trkpt>
      <trkpt lat="42.7556737605" lon="-0.1666191593">
        <ele>1873.27</ele>
        <time>2022-07-13T10:16:01Z</time>
      </trkpt>
      <trkpt lat="42.7557739243" lon="-0.1666318160">
        <ele>1875.19</ele>
        <time>2022-07-13T10:16:16Z</time>
      </trkpt>
      <trkpt lat="42.7558346931" lon="-0.1667450555">
        <ele>1875.67</ele>
        <time>2022-07-13T10:16:27Z</time>
      </trkpt>
      <trkpt lat="42.7558671311" lon="-0.1668023039">
        <ele>1876.15</ele>
        <time>2022-07-13T10:16:32Z</time>
      </trkpt>
      <trkpt lat="42.7559946198" lon="-0.1668510027">
        <ele>1877.11</ele>
        <time>2022-07-13T10:16:45Z</time>
      </trkpt>
      <trkpt lat="42.7560066897" lon="-0.1668735500">
        <ele>1877.11</ele>
        <time>2022-07-13T10:16:47Z</time>
      </trkpt>
      <trkpt lat="42.7561259642" lon="-0.1669157948">
        <ele>1878.07</ele>
        <time>2022-07-13T10:16:58Z</time>
      </trkpt>
      <trkpt lat="42.7561418060" lon="-0.1669324748">
        <ele>1878.07</ele>
        <time>2022-07-13T10:17:00Z</time>
      </trkpt>
      <trkpt lat="42.7562221047" lon="-0.1670136116">
        <ele>1878.55</ele>
        <time>2022-07-13T10:17:08Z</time>
      </trkpt>
      <trkpt lat="42.7562570572" lon="-0.1670099236">
        <ele>1878.55</ele>
        <time>2022-07-13T10:17:11Z</time>
      </trkpt>
      <trkpt lat="42.7563044988" lon="-0.1670132764">
        <ele>1878.55</ele>
        <time>2022-07-13T10:17:16Z</time>
      </trkpt>
      <trkpt lat="42.7563489228" lon="-0.1670825109">
        <ele>1878.55</ele>
        <time>2022-07-13T10:17:22Z</time>
      </trkpt>
      <trkpt lat="42.7564907447" lon="-0.1671978459">
        <ele>1879.51</ele>
        <time>2022-07-13T10:17:36Z</time>
      </trkpt>
      <trkpt lat="42.7565207519" lon="-0.1672288589">
        <ele>1879.51</ele>
        <time>2022-07-13T10:17:40Z</time>
      </trkpt>
      <trkpt lat="42.7565390244" lon="-0.1672337204">
        <ele>1879.51</ele>
        <time>2022-07-13T10:17:42Z</time>
      </trkpt>
      <trkpt lat="42.7565696184" lon="-0.1672623865">
        <ele>1879.51</ele>
        <time>2022-07-13T10:17:45Z</time>
      </trkpt>
      <trkpt lat="42.7567230910" lon="-0.1672934834">
        <ele>1881.44</ele>
        <time>2022-07-13T10:18:00Z</time>
      </trkpt>
      <trkpt lat="42.7568854485" lon="-0.1673600357">
        <ele>1881.44</ele>
        <time>2022-07-13T10:18:15Z</time>
      </trkpt>
      <trkpt lat="42.7570340596" lon="-0.1674259175">
        <ele>1881.92</ele>
        <time>2022-07-13T10:18:28Z</time>
      </trkpt>
      <trkpt lat="42.7570790704" lon="-0.1674406696">
        <ele>1881.92</ele>
        <time>2022-07-13T10:18:32Z</time>
      </trkpt>
      <trkpt lat="42.7571661584" lon="-0.1674907096">
        <ele>1882.88</ele>
        <time>2022-07-13T10:18:40Z</time>
      </trkpt>
      <trkpt lat="42.7573029511" lon="-0.1675449405">
        <ele>1885.76</ele>
        <time>2022-07-13T10:18:57Z</time>
      </trkpt>
      <trkpt lat="42.7573954035" lon="-0.1675698347">
        <ele>1887.21</ele>
        <time>2022-07-13T10:19:08Z</time>
      </trkpt>
      <trkpt lat="42.7574730199" lon="-0.1676849183">
        <ele>1887.69</ele>
        <time>2022-07-13T10:19:20Z</time>
      </trkpt>
      <trkpt lat="42.7575746924" lon="-0.1676579285">
        <ele>1890.09</ele>
        <time>2022-07-13T10:19:33Z</time>
      </trkpt>
      <trkpt lat="42.7576804720" lon="-0.1676343754">
        <ele>1892.97</ele>
        <time>2022-07-13T10:19:47Z</time>
      </trkpt>
      <trkpt lat="42.7577633690" lon="-0.1675982494">
        <ele>1895.38</ele>
        <time>2022-07-13T10:20:00Z</time>
      </trkpt>
      <trkpt lat="42.7578388900" lon="-0.1676460262">
        <ele>1897.30</ele>
        <time>2022-07-13T10:20:13Z</time>
      </trkpt>
      <trkpt lat="42.7578908578" lon="-0.1676854212">
        <ele>1897.78</ele>
        <time>2022-07-13T10:20:18Z</time>
      </trkpt>
      <trkpt lat="42.7579103876" lon="-0.1676996704">
        <ele>1897.78</ele>
        <time>2022-07-13T10:20:20Z</time>
      </trkpt>
      <trkpt lat="42.7579764370" lon="-0.1677653007">
        <ele>1899.70</ele>
        <time>2022-07-13T10:20:30Z</time>
      </trkpt>
      <trkpt lat="42.7580440789" lon="-0.1677251514">
        <ele>1900.66</ele>
        <time>2022-07-13T10:20:41Z</time>
      </trkpt>
      <trkpt lat="42.7581263054" lon="-0.1677511353">
        <ele>1902.11</ele>
        <time>2022-07-13T10:20:53Z</time>
      </trkpt>
      <trkpt lat="42.7582074422" lon="-0.1678129937">
        <ele>1902.59</ele>
        <time>2022-07-13T10:21:04Z</time>
      </trkpt>
      <trkpt lat="42.7582448255" lon="-0.1678722538">
        <ele>1903.07</ele>
        <time>2022-07-13T10:21:10Z</time>
      </trkpt>
      <trkpt lat="42.7582719829" lon="-0.1678587589">
        <ele>1903.55</ele>
        <time>2022-07-13T10:21:13Z</time>
      </trkpt>
      <trkpt lat="42.7583775949" lon="-0.1678889338">
        <ele>1904.51</ele>
        <time>2022-07-13T10:21:27Z</time>
      </trkpt>
      <trkpt lat="42.7585043292" lon="-0.1679347828">
        <ele>1906.91</ele>
        <time>2022-07-13T10:21:41Z</time>
      </trkpt>
      <trkpt lat="42.7585268766" lon="-0.1679381356">
        <ele>1906.91</ele>
        <time>2022-07-13T10:21:43Z</time>
      </trkpt>
      <trkpt lat="42.7586064208" lon="-0.1679695677">
        <ele>1908.83</ele>
        <time>2022-07-13T10:21:54Z</time>
      </trkpt>
      <trkpt lat="42.7587667666" lon="-0.1680118125">
        <ele>1910.76</ele>
        <time>2022-07-13T10:22:10Z</time>
      </trkpt>
      <trkpt lat="42.7587822732" lon="-0.1680180151">
        <ele>1911.24</ele>
        <time>2022-07-13T10:22:12Z</time>
      </trkpt>
      <trkpt lat="42.7589235920" lon="-0.1680506207">
        <ele>1912.68</ele>
        <time>2022-07-13T10:22:27Z</time>
      </trkpt>
      <trkpt lat="42.7590427827" lon="-0.1681118086">
        <ele>1913.16</ele>
        <time>2022-07-13T10:22:40Z</time>
      </trkpt>
      <trkpt lat="42.7592282742" lon="-0.1681416482">
        <ele>1913.64</ele>
        <time>2022-07-13T10:22:55Z</time>
      </trkpt>
      <trkpt lat="42.7593920566" lon="-0.1681284048">
        <ele>1913.64</ele>
        <time>2022-07-13T10:23:08Z</time>
      </trkpt>
      <trkpt lat="42.7594724391" lon="-0.1681404747">
        <ele>1913.64</ele>
        <time>2022-07-13T10:23:18Z</time>
      </trkpt>
      <trkpt lat="42.7595785540" lon="-0.1682237908">
        <ele>1914.60</ele>
        <time>2022-07-13T10:23:31Z</time>
      </trkpt>
      <trkpt lat="42.7597010136" lon="-0.1682936121">
        <ele>1916.04</ele>
        <time>2022-07-13T10:23:44Z</time>
      </trkpt>
      <trkpt lat="42.7598549891" lon="-0.1683822926">
        <ele>1918.93</ele>
        <time>2022-07-13T10:24:00Z</time>
      </trkpt>
      <trkpt lat="42.7599451784" lon="-0.1684411336">
        <ele>1920.85</ele>
        <time>2022-07-13T10:24:14Z</time>
      </trkpt>
      <trkpt lat="42.7599916980" lon="-0.1684641838">
        <ele>1921.33</ele>
        <time>2022-07-13T10:24:21Z</time>
      </trkpt>
      <trkpt lat="42.7600167599" lon="-0.1684936881">
        <ele>1922.29</ele>
        <time>2022-07-13T10:24:25Z</time>
      </trkpt>
      <trkpt lat="42.7600361221" lon="-0.1685037464">
        <ele>1922.29</ele>
        <time>2022-07-13T10:24:27Z</time>
      </trkpt>
      <trkpt lat="42.7600592561" lon="-0.1685485058">
        <ele>1922.77</ele>
        <time>2022-07-13T10:24:31Z</time>
      </trkpt>
      <trkpt lat="42.7601284906" lon="-0.1686947700">
        <ele>1923.74</ele>
        <time>2022-07-13T10:24:44Z</time>
      </trkpt>
      <trkpt lat="42.7602470107" lon="-0.1687657647">
        <ele>1924.70</ele>
        <time>2022-07-13T10:24:58Z</time>
      </trkpt>
      <trkpt lat="42.7603399660" lon="-0.1688359212">
        <ele>1926.62</ele>
        <time>2022-07-13T10:25:12Z</time>
      </trkpt>
      <trkpt lat="42.7603853960" lon="-0.1688393578">
        <ele>1927.10</ele>
        <time>2022-07-13T10:25:18Z</time>
      </trkpt>
      <trkpt lat="42.7604732383" lon="-0.1688559540">
        <ele>1928.06</ele>
        <time>2022-07-13T10:25:31Z</time>
      </trkpt>
      <trkpt lat="42.7605578117" lon="-0.1689117774">
        <ele>1930.46</ele>
        <time>2022-07-13T10:25:45Z</time>
      </trkpt>
      <trkpt lat="42.7605962846" lon="-0.1688929182">
        <ele>1930.46</ele>
        <time>2022-07-13T10:25:49Z</time>
      </trkpt>
      <trkpt lat="42.7606530301" lon="-0.1688225102">
        <ele>1931.43</ele>
        <time>2022-07-13T10:26:04Z</time>
      </trkpt>
      <trkpt lat="42.7606548741" lon="-0.1688562054">
        <ele>1931.43</ele>
        <time>2022-07-13T10:26:28Z</time>
      </trkpt>
      <trkpt lat="42.7607039083" lon="-0.1690069959">
        <ele>1931.43</ele>
        <time>2022-07-13T10:26:41Z</time>
      </trkpt>
      <trkpt lat="42.7607760765" lon="-0.1690647472">
        <ele>1931.91</ele>
        <time>2022-07-13T10:26:50Z</time>
      </trkpt>
      <trkpt lat="42.7608246077" lon="-0.1690715365">
        <ele>1931.91</ele>
        <time>2022-07-13T10:26:55Z</time>
      </trkpt>
      <trkpt lat="42.7608427126" lon="-0.1690606400">
        <ele>1930.95</ele>
        <time>2022-07-13T10:26:57Z</time>
      </trkpt>
      <trkpt lat="42.7609927487" lon="-0.1690374222">
        <ele>1930.95</ele>
        <time>2022-07-13T10:27:11Z</time>
      </trkpt>
      <trkpt lat="42.7610711195" lon="-0.1690675132">
        <ele>1930.95</ele>
        <time>2022-07-13T10:27:23Z</time>
      </trkpt>
      <trkpt lat="42.7610859554" lon="-0.1690551080">
        <ele>1930.95</ele>
        <time>2022-07-13T10:27:25Z</time>
      </trkpt>
      <trkpt lat="42.7611637395" lon="-0.1690218318">
        <ele>1931.91</ele>
        <time>2022-07-13T10:27:31Z</time>
      </trkpt>
      <trkpt lat="42.7612779848" lon="-0.1691540983">
        <ele>1933.83</ele>
        <time>2022-07-13T10:27:45Z</time>
      </trkpt>
      <trkpt lat="42.7613514941" lon="-0.1692389231">
        <ele>1935.27</ele>
        <time>2022-07-13T10:27:57Z</time>
      </trkpt>
      <trkpt lat="42.7613775618" lon="-0.1692815870">
        <ele>1934.79</ele>
        <time>2022-07-13T10:28:01Z</time>
      </trkpt>
      <trkpt lat="42.7614604589" lon="-0.1693101693">
        <ele>1934.79</ele>
        <time>2022-07-13T10:28:10Z</time>
      </trkpt>
      <trkpt lat="42.7616086509" lon="-0.1693145279">
        <ele>1936.23</ele>
        <time>2022-07-13T10:28:26Z</time>
      </trkpt>
      <trkpt lat="42.7616195474" lon="-0.1693275198">
        <ele>1936.23</ele>
        <time>2022-07-13T10:28:27Z</time>
      </trkpt>
      <trkpt lat="42.7617565077" lon="-0.1693650708">
        <ele>1936.71</ele>
        <time>2022-07-13T10:28:42Z</time>
      </trkpt>
      <trkpt lat="42.7618940547" lon="-0.1693276875">
        <ele>1938.16</ele>
        <time>2022-07-13T10:28:54Z</time>
      </trkpt>
      <trkpt lat="42.7620357089" lon="-0.1694231573">
        <ele>1939.12</ele>
        <time>2022-07-13T10:29:08Z</time>
      </trkpt>
      <trkpt lat="42.7621183544" lon="-0.1694070641">
        <ele>1940.08</ele>
        <time>2022-07-13T10:29:17Z</time>
      </trkpt>
      <trkpt lat="42.7622403111" lon="-0.1693859417">
        <ele>1941.04</ele>
        <time>2022-07-13T10:29:29Z</time>
      </trkpt>
      <trkpt lat="42.7623709012" lon="-0.1694744546">
        <ele>1942.96</ele>
        <time>2022-07-13T10:29:43Z</time>
      </trkpt>
      <trkpt lat="42.7624845598" lon="-0.1694734488">
        <ele>1943.44</ele>
        <time>2022-07-13T10:29:56Z</time>
      </trkpt>
      <trkpt lat="42.7625173330" lon="-0.1694628038">
        <ele>1943.44</ele>
        <time>2022-07-13T10:30:00Z</time>
      </trkpt>
      <trkpt lat="42.7626636811" lon="-0.1694306172">
        <ele>1944.88</ele>
        <time>2022-07-13T10:30:13Z</time>
      </trkpt>
      <trkpt lat="42.7627200074" lon="-0.1694036275">
        <ele>1945.36</ele>
        <time>2022-07-13T10:30:18Z</time>
      </trkpt>
      <trkpt lat="42.7629065886" lon="-0.1693992689">
        <ele>1947.77</ele>
        <time>2022-07-13T10:30:35Z</time>
      </trkpt>
      <trkpt lat="42.7629318181" lon="-0.1694015320">
        <ele>1947.77</ele>
        <time>2022-07-13T10:30:38Z</time>
      </trkpt>
      <trkpt lat="42.7630969416" lon="-0.1693121810">
        <ele>1949.21</ele>
        <time>2022-07-13T10:30:52Z</time>
      </trkpt>
      <trkpt lat="42.7632251848" lon="-0.1693307050">
        <ele>1949.69</ele>
        <time>2022-07-13T10:31:04Z</time>
      </trkpt>
      <trkpt lat="42.7633776516" lon="-0.1693223231">
        <ele>1950.17</ele>
        <time>2022-07-13T10:31:16Z</time>
      </trkpt>
      <trkpt lat="42.7634465508" lon="-0.1692903042">
        <ele>1950.17</ele>
        <time>2022-07-13T10:31:22Z</time>
      </trkpt>
      <trkpt lat="42.7634703554" lon="-0.1692294516">
        <ele>1948.73</ele>
        <time>2022-07-13T10:31:27Z</time>
      </trkpt>
      <trkpt lat="42.7635613829" lon="-0.1691490691">
        <ele>1950.65</ele>
        <time>2022-07-13T10:31:39Z</time>
      </trkpt>
      <trkpt lat="42.7636666596" lon="-0.1691470575">
        <ele>1951.13</ele>
        <time>2022-07-13T10:31:51Z</time>
      </trkpt>
      <trkpt lat="42.7637245785" lon="-0.1690259390">
        <ele>1952.09</ele>
        <time>2022-07-13T10:32:04Z</time>
      </trkpt>
      <trkpt lat="42.7638719324" lon="-0.1690485701">
        <ele>1953.54</ele>
        <time>2022-07-13T10:32:17Z</time>
      </trkpt>
      <trkpt lat="42.7639199607" lon="-0.1690328959">
        <ele>1954.02</ele>
        <time>2022-07-13T10:32:23Z</time>
      </trkpt>
      <trkpt lat="42.7639912907" lon="-0.1690697763">
        <ele>1954.50</ele>
        <time>2022-07-13T10:32:32Z</time>
      </trkpt>
      <trkpt lat="42.7640575916" lon="-0.1690893061">
        <ele>1955.94</ele>
        <time>2022-07-13T10:32:46Z</time>
      </trkpt>
      <trkpt lat="42.7640678175" lon="-0.1691010408">
        <ele>1955.94</ele>
        <time>2022-07-13T10:33:03Z</time>
      </trkpt>
      <trkpt lat="42.7640667278" lon="-0.1691043098">
        <ele>1954.50</ele>
        <time>2022-07-13T10:33:05Z</time>
      </trkpt>
      <trkpt lat="42.7640481200" lon="-0.1691188943">
        <ele>1954.50</ele>
        <time>2022-07-13T10:33:36Z</time>
      </trkpt>
      <trkpt lat="42.7640409116" lon="-0.1691171341">
        <ele>1954.98</ele>
        <time>2022-07-13T10:34:05Z</time>
      </trkpt>
      <trkpt lat="42.7640233096" lon="-0.1691219117">
        <ele>1954.98</ele>
        <time>2022-07-13T10:34:33Z</time>
      </trkpt>
      <trkpt lat="42.7639912907" lon="-0.1691318024">
        <ele>1955.46</ele>
        <time>2022-07-13T10:35:03Z</time>
      </trkpt>
      <trkpt lat="42.7639872674" lon="-0.1691174693">
        <ele>1955.46</ele>
        <time>2022-07-13T10:35:33Z</time>
      </trkpt>
      <trkpt lat="42.7639881894" lon="-0.1691213250">
        <ele>1955.94</ele>
        <time>2022-07-13T10:35:58Z</time>
      </trkpt>
      <trkpt lat="42.7639762871" lon="-0.1691308804">
        <ele>1956.42</ele>
        <time>2022-07-13T10:36:29Z</time>
      </trkpt>
      <trkpt lat="42.7639778797" lon="-0.1691114344">
        <ele>1956.42</ele>
        <time>2022-07-13T10:36:50Z</time>
      </trkpt>
      <trkpt lat="42.7639731858" lon="-0.1691093389">
        <ele>1956.42</ele>
        <time>2022-07-13T10:37:10Z</time>
      </trkpt>
      <trkpt lat="42.7640072163" lon="-0.1691350713">
        <ele>1956.90</ele>
        <time>2022-07-13T10:37:37Z</time>
      </trkpt>
      <trkpt lat="42.7640125807" lon="-0.1691277791">
        <ele>1957.38</ele>
        <time>2022-07-13T10:38:06Z</time>
      </trkpt>
      <trkpt lat="42.7640124969" lon="-0.1691284496">
        <ele>1957.38</ele>
        <time>2022-07-13T10:38:33Z</time>
      </trkpt>
      <trkpt lat="42.7640167717" lon="-0.1691479795">
        <ele>1957.86</ele>
        <time>2022-07-13T10:39:13Z</time>
      </trkpt>
      <trkpt lat="42.7640538197" lon="-0.1691437885">
        <ele>1958.34</ele>
        <time>2022-07-13T10:39:48Z</time>
      </trkpt>
      <trkpt lat="42.7640486229" lon="-0.1691288687">
        <ele>1958.34</ele>
        <time>2022-07-13T10:40:25Z</time>
      </trkpt>
      <trkpt lat="42.7640383132" lon="-0.1691064052">
        <ele>1960.27</ele>
        <time>2022-07-13T10:40:52Z</time>
      </trkpt>
      <trkpt lat="42.7640331164" lon="-0.1691126078">
        <ele>1959.78</ele>
        <time>2022-07-13T10:41:02Z</time>
      </trkpt>
      <trkpt lat="42.7640314400" lon="-0.1690939162">
        <ele>1961.23</ele>
        <time>2022-07-13T10:41:08Z</time>
      </trkpt>
      <trkpt lat="42.7640271652" lon="-0.1690716203">
        <ele>1961.23</ele>
        <time>2022-07-13T10:41:36Z</time>
      </trkpt>
      <trkpt lat="42.7640346251" lon="-0.1690734643">
        <ele>1961.23</ele>
        <time>2022-07-13T10:41:55Z</time>
      </trkpt>
      <trkpt lat="42.7640305180" lon="-0.1691022143">
        <ele>1961.71</ele>
        <time>2022-07-13T10:42:08Z</time>
      </trkpt>
      <trkpt lat="42.7640365530" lon="-0.1691200677">
        <ele>1960.75</ele>
        <time>2022-07-13T10:42:44Z</time>
      </trkpt>
      <trkpt lat="42.7640777081" lon="-0.1691999473">
        <ele>1960.75</ele>
        <time>2022-07-13T10:42:57Z</time>
      </trkpt>
      <trkpt lat="42.7641015127" lon="-0.1692524180">
        <ele>1961.71</ele>
        <time>2022-07-13T10:43:02Z</time>
      </trkpt>
      <trkpt lat="42.7641380578" lon="-0.1692936569">
        <ele>1962.19</ele>
        <time>2022-07-13T10:43:13Z</time>
      </trkpt>
      <trkpt lat="42.7642394789" lon="-0.1693982631">
        <ele>1963.15</ele>
        <time>2022-07-13T10:43:26Z</time>
      </trkpt>
      <trkpt lat="42.7643118985" lon="-0.1695075631">
        <ele>1963.63</ele>
        <time>2022-07-13T10:43:39Z</time>
      </trkpt>
      <trkpt lat="42.7644165885" lon="-0.1695527416">
        <ele>1964.59</ele>
        <time>2022-07-13T10:43:52Z</time>
      </trkpt>
      <trkpt lat="42.7644730825" lon="-0.1695925556">
        <ele>1965.07</ele>
        <time>2022-07-13T10:43:58Z</time>
      </trkpt>
      <trkpt lat="42.7645017486" lon="-0.1695961598">
        <ele>1965.55</ele>
        <time>2022-07-13T10:44:02Z</time>
      </trkpt>
      <trkpt lat="42.7645620983" lon="-0.1696423441">
        <ele>1966.51</ele>
        <time>2022-07-13T10:44:11Z</time>
      </trkpt>
      <trkpt lat="42.7647459134" lon="-0.1696933899">
        <ele>1968.44</ele>
        <time>2022-07-13T10:44:28Z</time>
      </trkpt>
      <trkpt lat="42.7648391202" lon="-0.1697398257">
        <ele>1969.40</ele>
        <time>2022-07-13T10:44:39Z</time>
      </trkpt>
      <trkpt lat="42.7649697941" lon="-0.1698357146">
        <ele>1970.84</ele>
        <time>2022-07-13T10:44:53Z</time>
      </trkpt>
      <trkpt lat="42.7650873922" lon="-0.1699222997">
        <ele>1972.28</ele>
        <time>2022-07-13T10:45:06Z</time>
      </trkpt>
      <trkpt lat="42.7651060838" lon="-0.1699286699">
        <ele>1972.28</ele>
        <time>2022-07-13T10:45:08Z</time>
      </trkpt>
      <trkpt lat="42.7651697025" lon="-0.1699318551">
        <ele>1972.76</ele>
        <time>2022-07-13T10:45:14Z</time>
      </trkpt>
      <trkpt lat="42.7652777452" lon="-0.1699946355">
        <ele>1973.24</ele>
        <time>2022-07-13T10:45:26Z</time>
      </trkpt>
      <trkpt lat="42.7652968559" lon="-0.1700045262">
        <ele>1973.72</ele>
        <time>2022-07-13T10:45:28Z</time>
      </trkpt>
      <trkpt lat="42.7653189842" lon="-0.1700246427">
        <ele>1973.72</ele>
        <time>2022-07-13T10:45:30Z</time>
      </trkpt>
      <trkpt lat="42.7654410247" lon="-0.1700804662">
        <ele>1974.69</ele>
        <time>2022-07-13T10:45:45Z</time>
      </trkpt>
      <trkpt lat="42.7655346505" lon="-0.1701423246">
        <ele>1976.13</ele>
        <time>2022-07-13T10:45:57Z</time>
      </trkpt>
      <trkpt lat="42.7656322159" lon="-0.1702221204">
        <ele>1977.09</ele>
        <time>2022-07-13T10:46:08Z</time>
      </trkpt>
      <trkpt lat="42.7656815853" lon="-0.1702642813">
        <ele>1978.05</ele>
        <time>2022-07-13T10:46:14Z</time>
      </trkpt>
      <trkpt lat="42.7657942381" lon="-0.1703721564">
        <ele>1979.49</ele>
        <time>2022-07-13T10:46:27Z</time>
      </trkpt>
      <trkpt lat="42.7658397518" lon="-0.1704226993">
        <ele>1979.97</ele>
        <time>2022-07-13T10:46:32Z</time>
      </trkpt>
      <trkpt lat="42.7658711839" lon="-0.1704563946">
        <ele>1980.45</ele>
        <time>2022-07-13T10:46:36Z</time>
      </trkpt>
      <trkpt lat="42.7659512311" lon="-0.1704876591">
        <ele>1981.90</ele>
        <time>2022-07-13T10:46:48Z</time>
      </trkpt>
      <trkpt lat="42.7660073899" lon="-0.1705425605">
        <ele>1983.82</ele>
        <time>2022-07-13T10:46:58Z</time>
      </trkpt>
      <trkpt lat="42.7660653088" lon="-0.1705397945">
        <ele>1985.74</ele>
        <time>2022-07-13T10:47:10Z</time>
      </trkpt>
      <trkpt lat="42.7660793904" lon="-0.1705571450">
        <ele>1985.74</ele>
        <time>2022-07-13T10:47:13Z</time>
      </trkpt>
      <trkpt lat="42.7660966571" lon="-0.1706536207">
        <ele>1986.22</ele>
        <time>2022-07-13T10:47:19Z</time>
      </trkpt>
      <trkpt lat="42.7661491279" lon="-0.1707412954">
        <ele>1987.18</ele>
        <time>2022-07-13T10:47:30Z</time>
      </trkpt>
      <trkpt lat="42.7662498783" lon="-0.1707660221">
        <ele>1989.10</ele>
        <time>2022-07-13T10:47:46Z</time>
      </trkpt>
      <trkpt lat="42.7663582563" lon="-0.1707414631">
        <ele>1990.55</ele>
        <time>2022-07-13T10:47:58Z</time>
      </trkpt>
      <trkpt lat="42.7664205339" lon="-0.1707632560">
        <ele>1991.51</ele>
        <time>2022-07-13T10:48:11Z</time>
      </trkpt>
      <trkpt lat="42.7664339449" lon="-0.1707029063">
        <ele>1992.47</ele>
        <time>2022-07-13T10:48:29Z</time>
      </trkpt>
      <trkpt lat="42.7664787881" lon="-0.1706813648">
        <ele>1994.39</ele>
        <time>2022-07-13T10:48:39Z</time>
      </trkpt>
      <trkpt lat="42.7665684745" lon="-0.1706518605">
        <ele>1996.80</ele>
        <time>2022-07-13T10:48:52Z</time>
      </trkpt>
      <trkpt lat="42.7666770201" lon="-0.1706327498">
        <ele>1998.72</ele>
        <time>2022-07-13T10:49:08Z</time>
      </trkpt>
      <trkpt lat="42.7668090351" lon="-0.1705731545">
        <ele>2001.60</ele>
        <time>2022-07-13T10:49:23Z</time>
      </trkpt>
      <trkpt lat="42.7668262180" lon="-0.1705741603">
        <ele>2002.56</ele>
        <time>2022-07-13T10:49:26Z</time>
      </trkpt>
      <trkpt lat="42.7668832149" lon="-0.1705154032">
        <ele>2002.56</ele>
        <time>2022-07-13T10:49:37Z</time>
      </trkpt>
      <trkpt lat="42.7669095341" lon="-0.1704599150">
        <ele>2003.52</ele>
        <time>2022-07-13T10:49:48Z</time>
      </trkpt>
      <trkpt lat="42.7668874897" lon="-0.1704470068">
        <ele>2004.49</ele>
        <time>2022-07-13T10:49:59Z</time>
      </trkpt>
      <trkpt lat="42.7668797784" lon="-0.1704634354">
        <ele>2004.49</ele>
        <time>2022-07-13T10:50:02Z</time>
      </trkpt>
      <trkpt lat="42.7668686304" lon="-0.1705721486">
        <ele>2003.04</ele>
        <time>2022-07-13T10:50:10Z</time>
      </trkpt>
      <trkpt lat="42.7669263817" lon="-0.1706298161">
        <ele>2002.56</ele>
        <time>2022-07-13T10:50:23Z</time>
      </trkpt>
      <trkpt lat="42.7669113781" lon="-0.1707845461">
        <ele>2002.08</ele>
        <time>2022-07-13T10:50:34Z</time>
      </trkpt>
      <trkpt lat="42.7669016551" lon="-0.1708746515">
        <ele>2003.52</ele>
        <time>2022-07-13T10:50:43Z</time>
      </trkpt>
      <trkpt lat="42.7669641841" lon="-0.1709542796">
        <ele>2004.01</ele>
        <time>2022-07-13T10:50:56Z</time>
      </trkpt>
      <trkpt lat="42.7669931017" lon="-0.1710402779">
        <ele>2004.49</ele>
        <time>2022-07-13T10:51:07Z</time>
      </trkpt>
      <trkpt lat="42.7670090273" lon="-0.1711090095">
        <ele>2003.04</ele>
        <time>2022-07-13T10:51:21Z</time>
      </trkpt>
      <trkpt lat="42.7670138888" lon="-0.1711506676">
        <ele>2004.49</ele>
        <time>2022-07-13T10:51:32Z</time>
      </trkpt>
      <trkpt lat="42.7669995558" lon="-0.1711589657">
        <ele>2004.49</ele>
        <time>2022-07-13T10:51:50Z</time>
      </trkpt>
      <trkpt lat="42.7670114581" lon="-0.1711598877">
        <ele>2003.04</ele>
        <time>2022-07-13T10:51:57Z</time>
      </trkpt>
      <trkpt lat="42.7669766732" lon="-0.1711298805">
        <ele>2003.04</ele>
        <time>2022-07-13T10:52:31Z</time>
      </trkpt>
      <trkpt lat="42.7669569757" lon="-0.1711416151">
        <ele>2003.04</ele>
        <time>2022-07-13T10:52:58Z</time>
      </trkpt>
      <trkpt lat="42.7669580653" lon="-0.1711362507">
        <ele>2004.97</ele>
        <time>2022-07-13T10:53:20Z</time>
      </trkpt>
      <trkpt lat="42.7669651061" lon="-0.1711453032">
        <ele>2005.45</ele>
        <time>2022-07-13T10:53:34Z</time>
      </trkpt>
      <trkpt lat="42.7669600770" lon="-0.1712041441">
        <ele>2005.45</ele>
        <time>2022-07-13T10:53:55Z</time>
      </trkpt>
      <trkpt lat="42.7669455763" lon="-0.1712208241">
        <ele>2004.01</ele>
        <time>2022-07-13T10:53:58Z</time>
      </trkpt>
      <trkpt lat="42.7669024933" lon="-0.1713329740">
        <ele>2004.97</ele>
        <time>2022-07-13T10:54:13Z</time>
      </trkpt>
      <trkpt lat="42.7668977156" lon="-0.1714431960">
        <ele>2008.33</ele>
        <time>2022-07-13T10:54:25Z</time>
      </trkpt>
      <trkpt lat="42.7668305766" lon="-0.1715154480">
        <ele>2010.25</ele>
        <time>2022-07-13T10:54:37Z</time>
      </trkpt>
      <trkpt lat="42.7667316701" lon="-0.1715403423">
        <ele>2012.18</ele>
        <time>2022-07-13T10:54:49Z</time>
      </trkpt>
      <trkpt lat="42.7666660398" lon="-0.1715577766">
        <ele>2014.10</ele>
        <time>2022-07-13T10:54:58Z</time>
      </trkpt>
      <trkpt lat="42.7665496152" lon="-0.1716130134">
        <ele>2016.02</ele>
        <time>2022-07-13T10:55:13Z</time>
      </trkpt>
      <trkpt lat="42.7665474359" lon="-0.1716355607">
        <ele>2016.50</ele>
        <time>2022-07-13T10:55:15Z</time>
      </trkpt>
      <trkpt lat="42.7665247209" lon="-0.1717480458">
        <ele>2018.43</ele>
        <time>2022-07-13T10:55:28Z</time>
      </trkpt>
      <trkpt lat="42.7665536385" lon="-0.1718268357">
        <ele>2021.31</ele>
        <time>2022-07-13T10:55:41Z</time>
      </trkpt>
      <trkpt lat="42.7665789519" lon="-0.1719231438">
        <ele>2024.19</ele>
        <time>2022-07-13T10:55:55Z</time>
      </trkpt>
      <trkpt lat="42.7665759344" lon="-0.1720793825">
        <ele>2025.15</ele>
        <time>2022-07-13T10:56:06Z</time>
      </trkpt>
      <trkpt lat="42.7665996552" lon="-0.1722160075">
        <ele>2027.08</ele>
        <time>2022-07-13T10:56:18Z</time>
      </trkpt>
      <trkpt lat="42.7666152455" lon="-0.1723431610">
        <ele>2030.44</ele>
        <time>2022-07-13T10:56:32Z</time>
      </trkpt>
      <trkpt lat="42.7666792832" lon="-0.1724653691">
        <ele>2033.33</ele>
        <time>2022-07-13T10:56:47Z</time>
      </trkpt>
      <trkpt lat="42.7667057700" lon="-0.1725581568">
        <ele>2035.73</ele>
        <time>2022-07-13T10:56:59Z</time>
      </trkpt>
      <trkpt lat="42.7667226177" lon="-0.1726302411">
        <ele>2038.13</ele>
        <time>2022-07-13T10:57:12Z</time>
      </trkpt>
      <trkpt lat="42.7667711489" lon="-0.1727302372">
        <ele>2041.02</ele>
        <time>2022-07-13T10:57:27Z</time>
      </trkpt>
      <trkpt lat="42.7667834703" lon="-0.1728969533">
        <ele>2043.42</ele>
        <time>2022-07-13T10:57:41Z</time>
      </trkpt>
      <trkpt lat="42.7667865716" lon="-0.1729179919">
        <ele>2043.90</ele>
        <time>2022-07-13T10:57:54Z</time>
      </trkpt>
      <trkpt lat="42.7667920198" lon="-0.1729214285">
        <ele>2044.38</ele>
        <time>2022-07-13T10:57:56Z</time>
      </trkpt>
      <trkpt lat="42.7668605000" lon="-0.1730078459">
        <ele>2045.82</ele>
        <time>2022-07-13T10:58:09Z</time>
      </trkpt>
      <trkpt lat="42.7669073548" lon="-0.1730853785">
        <ele>2048.23</ele>
        <time>2022-07-13T10:58:21Z</time>
      </trkpt>
      <trkpt lat="42.7669136412" lon="-0.1732167229">
        <ele>2051.59</ele>
        <time>2022-07-13T10:58:36Z</time>
      </trkpt>
      <trkpt lat="42.7669193409" lon="-0.1732955128">
        <ele>2053.03</ele>
        <time>2022-07-13T10:58:44Z</time>
      </trkpt>
      <trkpt lat="42.7668912616" lon="-0.1734961756">
        <ele>2055.92</ele>
        <time>2022-07-13T10:59:01Z</time>
      </trkpt>
      <trkpt lat="42.7668080293" lon="-0.1736350637">
        <ele>2058.32</ele>
        <time>2022-07-13T10:59:16Z</time>
      </trkpt>
      <trkpt lat="42.7667542174" lon="-0.1737183798">
        <ele>2060.72</ele>
        <time>2022-07-13T10:59:28Z</time>
      </trkpt>
      <trkpt lat="42.7667141519" lon="-0.1738751214">
        <ele>2063.13</ele>
        <time>2022-07-13T10:59:42Z</time>
      </trkpt>
      <trkpt lat="42.7667303290" lon="-0.1739721000">
        <ele>2065.53</ele>
        <time>2022-07-13T10:59:54Z</time>
      </trkpt>
      <trkpt lat="42.7667512838" lon="-0.1739992574">
        <ele>2067.45</ele>
        <time>2022-07-13T11:00:04Z</time>
      </trkpt>
      <trkpt lat="42.7667820454" lon="-0.1740376465">
        <ele>2069.38</ele>
        <time>2022-07-13T11:00:16Z</time>
      </trkpt>
      <trkpt lat="42.7668095380" lon="-0.1740994211">
        <ele>2070.82</ele>
        <time>2022-07-13T11:00:28Z</time>
      </trkpt>
      <trkpt lat="42.7668646071" lon="-0.1741609443">
        <ele>2072.74</ele>
        <time>2022-07-13T11:00:41Z</time>
      </trkpt>
      <trkpt lat="42.7668922674" lon="-0.1742238086">
        <ele>2076.10</ele>
        <time>2022-07-13T11:00:55Z</time>
      </trkpt>
      <trkpt lat="42.7669143118" lon="-0.1743335277">
        <ele>2078.03</ele>
        <time>2022-07-13T11:01:07Z</time>
      </trkpt>
      <trkpt lat="42.7669298183" lon="-0.1744656265">
        <ele>2081.39</ele>
        <time>2022-07-13T11:01:21Z</time>
      </trkpt>
      <trkpt lat="42.7669440676" lon="-0.1745283231">
        <ele>2083.31</ele>
        <time>2022-07-13T11:01:34Z</time>
      </trkpt>
      <trkpt lat="42.7670102008" lon="-0.1745302510">
        <ele>2085.24</ele>
        <time>2022-07-13T11:01:47Z</time>
      </trkpt>
      <trkpt lat="42.7670190856" lon="-0.1745392196">
        <ele>2086.20</ele>
        <time>2022-07-13T11:01:50Z</time>
      </trkpt>
      <trkpt lat="42.7670027409" lon="-0.1747444924">
        <ele>2087.16</ele>
        <time>2022-07-13T11:02:03Z</time>
      </trkpt>
      <trkpt lat="42.7670122962" lon="-0.1748130564">
        <ele>2087.16</ele>
        <time>2022-07-13T11:02:09Z</time>
      </trkpt>
      <trkpt lat="42.7669742424" lon="-0.1749202609">
        <ele>2089.08</ele>
        <time>2022-07-13T11:02:20Z</time>
      </trkpt>
      <trkpt lat="42.7669634297" lon="-0.1749587338">
        <ele>2089.56</ele>
        <time>2022-07-13T11:02:23Z</time>
      </trkpt>
      <trkpt lat="42.7669004817" lon="-0.1751270425">
        <ele>2091.97</ele>
        <time>2022-07-13T11:02:38Z</time>
      </trkpt>
      <trkpt lat="42.7668895852" lon="-0.1751917507">
        <ele>2092.93</ele>
        <time>2022-07-13T11:02:43Z</time>
      </trkpt>
      <trkpt lat="42.7668848075" lon="-0.1752499212">
        <ele>2093.89</ele>
        <time>2022-07-13T11:02:47Z</time>
      </trkpt>
      <trkpt lat="42.7668853104" lon="-0.1752728038">
        <ele>2093.89</ele>
        <time>2022-07-13T11:02:49Z</time>
      </trkpt>
      <trkpt lat="42.7668620087" lon="-0.1753589697">
        <ele>2094.85</ele>
        <time>2022-07-13T11:02:57Z</time>
      </trkpt>
      <trkpt lat="42.7668770961" lon="-0.1754743047">
        <ele>2095.33</ele>
        <time>2022-07-13T11:03:06Z</time>
      </trkpt>
      <trkpt lat="42.7668881603" lon="-0.1756230835">
        <ele>2096.29</ele>
        <time>2022-07-13T11:03:20Z</time>
      </trkpt>
      <trkpt lat="42.7668856457" lon="-0.1756405178">
        <ele>2096.77</ele>
        <time>2022-07-13T11:03:22Z</time>
      </trkpt>
      <trkpt lat="42.7668703068" lon="-0.1757473033">
        <ele>2097.25</ele>
        <time>2022-07-13T11:03:31Z</time>
      </trkpt>
      <trkpt lat="42.7668643557" lon="-0.1758951601">
        <ele>2099.18</ele>
        <time>2022-07-13T11:03:44Z</time>
      </trkpt>
      <trkpt lat="42.7668868192" lon="-0.1760341320">
        <ele>2100.62</ele>
        <time>2022-07-13T11:03:57Z</time>
      </trkpt>
      <trkpt lat="42.7668143157" lon="-0.1762315258">
        <ele>2102.06</ele>
        <time>2022-07-13T11:04:13Z</time>
      </trkpt>
      <trkpt lat="42.7668209374" lon="-0.1762482058">
        <ele>2102.54</ele>
        <time>2022-07-13T11:04:15Z</time>
      </trkpt>
      <trkpt lat="42.7668049280" lon="-0.1763528120">
        <ele>2103.02</ele>
        <time>2022-07-13T11:04:23Z</time>
      </trkpt>
      <trkpt lat="42.7667421475" lon="-0.1764595136">
        <ele>2103.50</ele>
        <time>2022-07-13T11:04:33Z</time>
      </trkpt>
      <trkpt lat="42.7666853182" lon="-0.1765287481">
        <ele>2103.98</ele>
        <time>2022-07-13T11:04:46Z</time>
      </trkpt>
      <trkpt lat="42.7666832227" lon="-0.1766248047">
        <ele>2105.42</ele>
        <time>2022-07-13T11:04:58Z</time>
      </trkpt>
      <trkpt lat="42.7666384634" lon="-0.1766585000">
        <ele>2105.42</ele>
        <time>2022-07-13T11:05:12Z</time>
      </trkpt>
      <trkpt lat="42.7665797062" lon="-0.1767056901">
        <ele>2105.91</ele>
        <time>2022-07-13T11:05:23Z</time>
      </trkpt>
      <trkpt lat="42.7665581647" lon="-0.1767845638">
        <ele>2106.87</ele>
        <time>2022-07-13T11:05:29Z</time>
      </trkpt>
      <trkpt lat="42.7665667143" lon="-0.1769698877">
        <ele>2107.83</ele>
        <time>2022-07-13T11:05:41Z</time>
      </trkpt>
      <trkpt lat="42.7666123956" lon="-0.1771729812">
        <ele>2109.75</ele>
        <time>2022-07-13T11:05:56Z</time>
      </trkpt>
      <trkpt lat="42.7666140720" lon="-0.1772812754">
        <ele>2111.19</ele>
        <time>2022-07-13T11:06:08Z</time>
      </trkpt>
      <trkpt lat="42.7665546443" lon="-0.1773656812">
        <ele>2113.60</ele>
        <time>2022-07-13T11:06:20Z</time>
      </trkpt>
      <trkpt lat="42.7665362880" lon="-0.1775183156">
        <ele>2115.52</ele>
        <time>2022-07-13T11:06:34Z</time>
      </trkpt>
      <trkpt lat="42.7665492799" lon="-0.1775582973">
        <ele>2115.52</ele>
        <time>2022-07-13T11:06:37Z</time>
      </trkpt>
      <trkpt lat="42.7665609308" lon="-0.1775991172">
        <ele>2116.00</ele>
        <time>2022-07-13T11:06:40Z</time>
      </trkpt>
      <trkpt lat="42.7665320132" lon="-0.1777366642">
        <ele>2118.40</ele>
        <time>2022-07-13T11:06:53Z</time>
      </trkpt>
      <trkpt lat="42.7665175963" lon="-0.1778851915">
        <ele>2120.32</ele>
        <time>2022-07-13T11:07:06Z</time>
      </trkpt>
      <trkpt lat="42.7665339410" lon="-0.1780325454">
        <ele>2122.73</ele>
        <time>2022-07-13T11:07:20Z</time>
      </trkpt>
      <trkpt lat="42.7665253915" lon="-0.1780755445">
        <ele>2123.69</ele>
        <time>2022-07-13T11:07:24Z</time>
      </trkpt>
      <trkpt lat="42.7664968092" lon="-0.1782483794">
        <ele>2125.13</ele>
        <time>2022-07-13T11:07:38Z</time>
      </trkpt>
      <trkpt lat="42.7664647065" lon="-0.1783637144">
        <ele>2127.53</ele>
        <time>2022-07-13T11:07:51Z</time>
      </trkpt>
      <trkpt lat="42.7664665505" lon="-0.1785045303">
        <ele>2130.42</ele>
        <time>2022-07-13T11:08:05Z</time>
      </trkpt>
      <trkpt lat="42.7664638683" lon="-0.1786475256">
        <ele>2132.34</ele>
        <time>2022-07-13T11:08:19Z</time>
      </trkpt>
      <trkpt lat="42.7664497029" lon="-0.1787573285">
        <ele>2135.23</ele>
        <time>2022-07-13T11:08:33Z</time>
      </trkpt>
      <trkpt lat="42.7664677240" lon="-0.1788618509">
        <ele>2136.19</ele>
        <time>2022-07-13T11:08:45Z</time>
      </trkpt>
      <trkpt lat="42.7665139083" lon="-0.1789967157">
        <ele>2137.63</ele>
        <time>2022-07-13T11:08:59Z</time>
      </trkpt>
      <trkpt lat="42.7665377967" lon="-0.1791485120">
        <ele>2140.03</ele>
        <time>2022-07-13T11:09:12Z</time>
      </trkpt>
      <trkpt lat="42.7665129863" lon="-0.1792465802">
        <ele>2143.40</ele>
        <time>2022-07-13T11:09:25Z</time>
      </trkpt>
      <trkpt lat="42.7664981503" lon="-0.1793143898">
        <ele>2144.84</ele>
        <time>2022-07-13T11:09:31Z</time>
      </trkpt>
      <trkpt lat="42.7664738428" lon="-0.1794376038">
        <ele>2146.28</ele>
        <time>2022-07-13T11:09:42Z</time>
      </trkpt>
      <trkpt lat="42.7664237190" lon="-0.1795728039">
        <ele>2148.20</ele>
        <time>2022-07-13T11:09:56Z</time>
      </trkpt>
      <trkpt lat="42.7663919516" lon="-0.1797039807">
        <ele>2149.65</ele>
        <time>2022-07-13T11:10:07Z</time>
      </trkpt>
      <trkpt lat="42.7663737629" lon="-0.1797970198">
        <ele>2149.65</ele>
        <time>2022-07-13T11:10:13Z</time>
      </trkpt>
      <trkpt lat="42.7663346194" lon="-0.1798476465">
        <ele>2150.13</ele>
        <time>2022-07-13T11:10:19Z</time>
      </trkpt>
      <trkpt lat="42.7662969846" lon="-0.1799087506">
        <ele>2151.09</ele>
        <time>2022-07-13T11:10:26Z</time>
      </trkpt>
      <trkpt lat="42.7662464418" lon="-0.1800860278">
        <ele>2153.49</ele>
        <time>2022-07-13T11:10:41Z</time>
      </trkpt>
      <trkpt lat="42.7662212960" lon="-0.1802942343">
        <ele>2155.41</ele>
        <time>2022-07-13T11:10:56Z</time>
      </trkpt>
      <trkpt lat="42.7662127465" lon="-0.1803384069">
        <ele>2155.89</ele>
        <time>2022-07-13T11:10:59Z</time>
      </trkpt>
      <trkpt lat="42.7661893610" lon="-0.1804323681">
        <ele>2157.82</ele>
        <time>2022-07-13T11:11:07Z</time>
      </trkpt>
      <trkpt lat="42.7661808953" lon="-0.1804865990">
        <ele>2158.30</ele>
        <time>2022-07-13T11:11:11Z</time>
      </trkpt>
      <trkpt lat="42.7661227249" lon="-0.1806074660">
        <ele>2159.74</ele>
        <time>2022-07-13T11:11:25Z</time>
      </trkpt>
      <trkpt lat="42.7660625428" lon="-0.1807646267">
        <ele>2162.62</ele>
        <time>2022-07-13T11:11:41Z</time>
      </trkpt>
      <trkpt lat="42.7659951523" lon="-0.1808430813">
        <ele>2165.03</ele>
        <time>2022-07-13T11:11:53Z</time>
      </trkpt>
      <trkpt lat="42.7659106627" lon="-0.1809471007">
        <ele>2167.91</ele>
        <time>2022-07-13T11:12:08Z</time>
      </trkpt>
      <trkpt lat="42.7658967488" lon="-0.1810051873">
        <ele>2168.39</ele>
        <time>2022-07-13T11:12:13Z</time>
      </trkpt>
      <trkpt lat="42.7658456191" lon="-0.1811377052">
        <ele>2169.83</ele>
        <time>2022-07-13T11:12:24Z</time>
      </trkpt>
      <trkpt lat="42.7658337168" lon="-0.1813169103">
        <ele>2171.27</ele>
        <time>2022-07-13T11:12:38Z</time>
      </trkpt>
      <trkpt lat="42.7658094093" lon="-0.1813749131">
        <ele>2172.72</ele>
        <time>2022-07-13T11:12:45Z</time>
      </trkpt>
      <trkpt lat="42.7657278534" lon="-0.1814169902">
        <ele>2174.64</ele>
        <time>2022-07-13T11:12:57Z</time>
      </trkpt>
      <trkpt lat="42.7656947449" lon="-0.1814786810">
        <ele>2176.08</ele>
        <time>2022-07-13T11:13:06Z</time>
      </trkpt>
      <trkpt lat="42.7656107582" lon="-0.1815517712">
        <ele>2178.00</ele>
        <time>2022-07-13T11:13:18Z</time>
      </trkpt>
      <trkpt lat="42.7655457146" lon="-0.1816325728">
        <ele>2179.93</ele>
        <time>2022-07-13T11:13:31Z</time>
      </trkpt>
      <trkpt lat="42.7655245923" lon="-0.1816358417">
        <ele>2180.89</ele>
        <time>2022-07-13T11:13:34Z</time>
      </trkpt>
      <trkpt lat="42.7654724568" lon="-0.1816661004">
        <ele>2180.89</ele>
        <time>2022-07-13T11:13:40Z</time>
      </trkpt>
      <trkpt lat="42.7654147055" lon="-0.1817370951">
        <ele>2181.85</ele>
        <time>2022-07-13T11:13:47Z</time>
      </trkpt>
      <trkpt lat="42.7654138673" lon="-0.1818510052">
        <ele>2182.33</ele>
        <time>2022-07-13T11:14:00Z</time>
      </trkpt>
      <trkpt lat="42.7653644979" lon="-0.1820535958">
        <ele>2183.77</ele>
        <time>2022-07-13T11:14:16Z</time>
      </trkpt>
      <trkpt lat="42.7653644141" lon="-0.1821521670">
        <ele>2184.25</ele>
        <time>2022-07-13T11:14:24Z</time>
      </trkpt>
      <trkpt lat="42.7654237580" lon="-0.1822714414">
        <ele>2183.77</ele>
        <time>2022-07-13T11:14:37Z</time>
      </trkpt>
      <trkpt lat="42.7654551901" lon="-0.1823065616">
        <ele>2183.77</ele>
        <time>2022-07-13T11:14:43Z</time>
      </trkpt>
      <trkpt lat="42.7655239217" lon="-0.1824224833">
        <ele>2183.77</ele>
        <time>2022-07-13T11:14:57Z</time>
      </trkpt>
      <trkpt lat="42.7655099239" lon="-0.1824594475">
        <ele>2184.25</ele>
        <time>2022-07-13T11:15:00Z</time>
      </trkpt>
      <trkpt lat="42.7655044757" lon="-0.1825459488">
        <ele>2184.25</ele>
        <time>2022-07-13T11:15:13Z</time>
      </trkpt>
      <trkpt lat="42.7655596286" lon="-0.1826523151">
        <ele>2185.21</ele>
        <time>2022-07-13T11:15:24Z</time>
      </trkpt>
      <trkpt lat="42.7655664179" lon="-0.1826591045">
        <ele>2185.21</ele>
        <time>2022-07-13T11:15:25Z</time>
      </trkpt>
      <trkpt lat="42.7656728681" lon="-0.1827754453">
        <ele>2186.18</ele>
        <time>2022-07-13T11:15:40Z</time>
      </trkpt>
      <trkpt lat="42.7656971756" lon="-0.1827949751">
        <ele>2186.18</ele>
        <time>2022-07-13T11:15:42Z</time>
      </trkpt>
      <trkpt lat="42.7657265961" lon="-0.1829409879">
        <ele>2187.62</ele>
        <time>2022-07-13T11:15:55Z</time>
      </trkpt>
      <trkpt lat="42.7658008598" lon="-0.1830844022">
        <ele>2188.10</ele>
        <time>2022-07-13T11:16:07Z</time>
      </trkpt>
      <trkpt lat="42.7657916397" lon="-0.1832219493">
        <ele>2189.06</ele>
        <time>2022-07-13T11:16:17Z</time>
      </trkpt>
      <trkpt lat="42.7657659072" lon="-0.1833397150">
        <ele>2190.02</ele>
        <time>2022-07-13T11:16:33Z</time>
      </trkpt>
      <trkpt lat="42.7657570224" lon="-0.1833624300">
        <ele>2190.02</ele>
        <time>2022-07-13T11:16:36Z</time>
      </trkpt>
      <trkpt lat="42.7656987682" lon="-0.1835748274">
        <ele>2191.46</ele>
        <time>2022-07-13T11:16:53Z</time>
      </trkpt>
      <trkpt lat="42.7657285240" lon="-0.1836976223">
        <ele>2192.90</ele>
        <time>2022-07-13T11:17:04Z</time>
      </trkpt>
      <trkpt lat="42.7657335531" lon="-0.1838496700">
        <ele>2194.35</ele>
        <time>2022-07-13T11:17:16Z</time>
      </trkpt>
      <trkpt lat="42.7657039650" lon="-0.1839121990">
        <ele>2194.83</ele>
        <time>2022-07-13T11:17:21Z</time>
      </trkpt>
      <trkpt lat="42.7657123469" lon="-0.1840950083">
        <ele>2196.27</ele>
        <time>2022-07-13T11:17:35Z</time>
      </trkpt>
      <trkpt lat="42.7657534182" lon="-0.1842135284">
        <ele>2198.19</ele>
        <time>2022-07-13T11:17:47Z</time>
      </trkpt>
      <trkpt lat="42.7657334693" lon="-0.1843280252">
        <ele>2199.15</ele>
        <time>2022-07-13T11:18:00Z</time>
      </trkpt>
      <trkpt lat="42.7657255903" lon="-0.1844395883">
        <ele>2200.59</ele>
        <time>2022-07-13T11:18:12Z</time>
      </trkpt>
      <trkpt lat="42.7657397557" lon="-0.1845529955">
        <ele>2203.96</ele>
        <time>2022-07-13T11:18:25Z</time>
      </trkpt>
      <trkpt lat="42.7657167055" lon="-0.1846550871">
        <ele>2205.88</ele>
        <time>2022-07-13T11:18:38Z</time>
      </trkpt>
      <trkpt lat="42.7657258417" lon="-0.1847607829">
        <ele>2208.77</ele>
        <time>2022-07-13T11:18:52Z</time>
      </trkpt>
      <trkpt lat="42.7657203935" lon="-0.1848612819">
        <ele>2211.17</ele>
        <time>2022-07-13T11:19:06Z</time>
      </trkpt>
      <trkpt lat="42.7656918950" lon="-0.1849528961">
        <ele>2214.05</ele>
        <time>2022-07-13T11:19:20Z</time>
      </trkpt>
      <trkpt lat="42.7656882908" lon="-0.1850357093">
        <ele>2216.94</ele>
        <time>2022-07-13T11:19:32Z</time>
      </trkpt>
      <trkpt lat="42.7656875364" lon="-0.1851624437">
        <ele>2218.86</ele>
        <time>2022-07-13T11:19:48Z</time>
      </trkpt>
      <trkpt lat="42.7656726167" lon="-0.1852314267">
        <ele>2220.30</ele>
        <time>2022-07-13T11:20:00Z</time>
      </trkpt>
      <trkpt lat="42.7656540088" lon="-0.1853426546">
        <ele>2223.19</ele>
        <time>2022-07-13T11:20:14Z</time>
      </trkpt>
      <trkpt lat="42.7656768914" lon="-0.1854558941">
        <ele>2225.11</ele>
        <time>2022-07-13T11:20:27Z</time>
      </trkpt>
      <trkpt lat="42.7656675037" lon="-0.1855512802">
        <ele>2228.47</ele>
        <time>2022-07-13T11:20:42Z</time>
      </trkpt>
      <trkpt lat="42.7656287793" lon="-0.1856658608">
        <ele>2230.88</ele>
        <time>2022-07-13T11:20:57Z</time>
      </trkpt>
      <trkpt lat="42.7655827627" lon="-0.1857644320">
        <ele>2232.32</ele>
        <time>2022-07-13T11:21:12Z</time>
      </trkpt>
      <trkpt lat="42.7655623946" lon="-0.1858878974">
        <ele>2233.28</ele>
        <time>2022-07-13T11:21:26Z</time>
      </trkpt>
      <trkpt lat="42.7655182220" lon="-0.1859848760">
        <ele>2235.20</ele>
        <time>2022-07-13T11:21:39Z</time>
      </trkpt>
      <trkpt lat="42.7655292861" lon="-0.1860975288">
        <ele>2237.13</ele>
        <time>2022-07-13T11:21:51Z</time>
      </trkpt>
      <trkpt lat="42.7655700222" lon="-0.1862295438">
        <ele>2239.05</ele>
        <time>2022-07-13T11:22:05Z</time>
      </trkpt>
      <trkpt lat="42.7655747999" lon="-0.1863390114">
        <ele>2240.49</ele>
        <time>2022-07-13T11:22:16Z</time>
      </trkpt>
      <trkpt lat="42.7655562758" lon="-0.1864053123">
        <ele>2243.37</ele>
        <time>2022-07-13T11:22:31Z</time>
      </trkpt>
      <trkpt lat="42.7655269392" lon="-0.1864669193">
        <ele>2246.26</ele>
        <time>2022-07-13T11:22:46Z</time>
      </trkpt>
      <trkpt lat="42.7655373327" lon="-0.1865773089">
        <ele>2249.14</ele>
        <time>2022-07-13T11:22:59Z</time>
      </trkpt>
      <trkpt lat="42.7654924896" lon="-0.1866266783">
        <ele>2251.06</ele>
        <time>2022-07-13T11:23:12Z</time>
      </trkpt>
      <trkpt lat="42.7654406894" lon="-0.1866324618">
        <ele>2253.95</ele>
        <time>2022-07-13T11:23:25Z</time>
      </trkpt>
      <trkpt lat="42.7653687727" lon="-0.1866906323">
        <ele>2255.87</ele>
        <time>2022-07-13T11:23:36Z</time>
      </trkpt>
      <trkpt lat="42.7653800044" lon="-0.1867700089">
        <ele>2258.75</ele>
        <time>2022-07-13T11:23:49Z</time>
      </trkpt>
      <trkpt lat="42.7654023003" lon="-0.1868774649">
        <ele>2259.72</ele>
        <time>2022-07-13T11:24:02Z</time>
      </trkpt>
      <trkpt lat="42.7653897274" lon="-0.1869996730">
        <ele>2260.20</ele>
        <time>2022-07-13T11:24:15Z</time>
      </trkpt>
      <trkpt lat="42.7653910685" lon="-0.1870130841">
        <ele>2260.68</ele>
        <time>2022-07-13T11:24:16Z</time>
      </trkpt>
      <trkpt lat="42.7654145379" lon="-0.1871764474">
        <ele>2262.12</ele>
        <time>2022-07-13T11:24:30Z</time>
      </trkpt>
      <trkpt lat="42.7654175553" lon="-0.1873548981">
        <ele>2264.52</ele>
        <time>2022-07-13T11:24:45Z</time>
      </trkpt>
      <trkpt lat="42.7654301282" lon="-0.1875061914">
        <ele>2267.41</ele>
        <time>2022-07-13T11:25:00Z</time>
      </trkpt>
      <trkpt lat="42.7654294576" lon="-0.1876384579">
        <ele>2269.81</ele>
        <time>2022-07-13T11:25:13Z</time>
      </trkpt>
      <trkpt lat="42.7654318884" lon="-0.1878009830">
        <ele>2271.73</ele>
        <time>2022-07-13T11:25:27Z</time>
      </trkpt>
      <trkpt lat="42.7654503286" lon="-0.1878646854">
        <ele>2274.62</ele>
        <time>2022-07-13T11:25:39Z</time>
      </trkpt>
      <trkpt lat="42.7654965129" lon="-0.1879799366">
        <ele>2276.54</ele>
        <time>2022-07-13T11:25:52Z</time>
      </trkpt>
      <trkpt lat="42.7655354887" lon="-0.1880581398">
        <ele>2278.94</ele>
        <time>2022-07-13T11:26:04Z</time>
      </trkpt>
      <trkpt lat="42.7655351534" lon="-0.1881522685">
        <ele>2281.35</ele>
        <time>2022-07-13T11:26:18Z</time>
      </trkpt>
      <trkpt lat="42.7655354049" lon="-0.1882162225">
        <ele>2284.23</ele>
        <time>2022-07-13T11:26:34Z</time>
      </trkpt>
      <trkpt lat="42.7655603830" lon="-0.1882668491">
        <ele>2285.67</ele>
        <time>2022-07-13T11:26:41Z</time>
      </trkpt>
      <trkpt lat="42.7656076569" lon="-0.1883926615">
        <ele>2287.59</ele>
        <time>2022-07-13T11:26:56Z</time>
      </trkpt>
      <trkpt lat="42.7655555215" lon="-0.1884453837">
        <ele>2291.44</ele>
        <time>2022-07-13T11:27:10Z</time>
      </trkpt>
      <trkpt lat="42.7655874565" lon="-0.1885226648">
        <ele>2293.36</ele>
        <time>2022-07-13T11:27:23Z</time>
      </trkpt>
      <trkpt lat="42.7655975986" lon="-0.1886598766">
        <ele>2296.25</ele>
        <time>2022-07-13T11:27:39Z</time>
      </trkpt>
      <trkpt lat="42.7655602153" lon="-0.1887244172">
        <ele>2298.65</ele>
        <time>2022-07-13T11:27:51Z</time>
      </trkpt>
      <trkpt lat="42.7655617241" lon="-0.1888416801">
        <ele>2300.57</ele>
        <time>2022-07-13T11:28:04Z</time>
      </trkpt>
      <trkpt lat="42.7655623946" lon="-0.1889684144">
        <ele>2302.98</ele>
        <time>2022-07-13T11:28:18Z</time>
      </trkpt>
      <trkpt lat="42.7654834371" lon="-0.1889777184">
        <ele>2305.86</ele>
        <time>2022-07-13T11:28:32Z</time>
      </trkpt>
      <trkpt lat="42.7653976902" lon="-0.1890149340">
        <ele>2307.78</ele>
        <time>2022-07-13T11:28:45Z</time>
      </trkpt>
      <trkpt lat="42.7653228398" lon="-0.1890438516">
        <ele>2310.67</ele>
        <time>2022-07-13T11:28:57Z</time>
      </trkpt>
      <trkpt lat="42.7652925812" lon="-0.1891834103">
        <ele>2313.07</ele>
        <time>2022-07-13T11:29:15Z</time>
      </trkpt>
      <trkpt lat="42.7653013822" lon="-0.1892290078">
        <ele>2313.07</ele>
        <time>2022-07-13T11:29:21Z</time>
      </trkpt>
      <trkpt lat="42.7652356680" lon="-0.1893597655">
        <ele>2314.51</ele>
        <time>2022-07-13T11:29:37Z</time>
      </trkpt>
      <trkpt lat="42.7651973628" lon="-0.1894686464">
        <ele>2314.99</ele>
        <time>2022-07-13T11:29:52Z</time>
      </trkpt>
      <trkpt lat="42.7651955187" lon="-0.1896042656">
        <ele>2314.99</ele>
        <time>2022-07-13T11:30:04Z</time>
      </trkpt>
      <trkpt lat="42.7651903220" lon="-0.1897649467">
        <ele>2315.47</ele>
        <time>2022-07-13T11:30:15Z</time>
      </trkpt>
      <trkpt lat="42.7651596442" lon="-0.1898933575">
        <ele>2315.95</ele>
        <time>2022-07-13T11:30:26Z</time>
      </trkpt>
      <trkpt lat="42.7651629131" lon="-0.1900139730">
        <ele>2316.43</ele>
        <time>2022-07-13T11:30:35Z</time>
      </trkpt>
      <trkpt lat="42.7651523519" lon="-0.1902110316">
        <ele>2317.40</ele>
        <time>2022-07-13T11:30:50Z</time>
      </trkpt>
      <trkpt lat="42.7651326545" lon="-0.1902391110">
        <ele>2318.36</ele>
        <time>2022-07-13T11:30:53Z</time>
      </trkpt>
      <trkpt lat="42.7651132084" lon="-0.1902765781">
        <ele>2318.36</ele>
        <time>2022-07-13T11:30:56Z</time>
      </trkpt>
      <trkpt lat="42.7650738135" lon="-0.1903600618">
        <ele>2318.84</ele>
        <time>2022-07-13T11:31:04Z</time>
      </trkpt>
      <trkpt lat="42.7650159784" lon="-0.1905356627">
        <ele>2320.28</ele>
        <time>2022-07-13T11:31:18Z</time>
      </trkpt>
      <trkpt lat="42.7648813650" lon="-0.1906950865">
        <ele>2320.76</ele>
        <time>2022-07-13T11:31:22Z</time>
      </trkpt>
      <trkpt lat="42.7648783475" lon="-0.1907990221">
        <ele>2321.72</ele>
        <time>2022-07-13T11:31:30Z</time>
      </trkpt>
      <trkpt lat="42.7648384497" lon="-0.1909202244">
        <ele>2323.64</ele>
        <time>2022-07-13T11:31:44Z</time>
      </trkpt>
      <trkpt lat="42.7647767588" lon="-0.1910845097">
        <ele>2324.61</ele>
        <time>2022-07-13T11:31:58Z</time>
      </trkpt>
      <trkpt lat="42.7647568099" lon="-0.1911717653">
        <ele>2325.09</ele>
        <time>2022-07-13T11:32:09Z</time>
      </trkpt>
      <trkpt lat="42.7647224441" lon="-0.1912450232">
        <ele>2326.53</ele>
        <time>2022-07-13T11:32:23Z</time>
      </trkpt>
      <trkpt lat="42.7647086978" lon="-0.1913006790">
        <ele>2327.49</ele>
        <time>2022-07-13T11:32:33Z</time>
      </trkpt>
      <trkpt lat="42.7647065185" lon="-0.1913989987">
        <ele>2327.49</ele>
        <time>2022-07-13T11:32:46Z</time>
      </trkpt>
      <trkpt lat="42.7646768466" lon="-0.1914732624">
        <ele>2327.49</ele>
        <time>2022-07-13T11:32:57Z</time>
      </trkpt>
      <trkpt lat="42.7647065185" lon="-0.1915435027">
        <ele>2328.45</ele>
        <time>2022-07-13T11:33:09Z</time>
      </trkpt>
      <trkpt lat="42.7646469232" lon="-0.1916481089">
        <ele>2328.93</ele>
        <time>2022-07-13T11:33:23Z</time>
      </trkpt>
      <trkpt lat="42.7646350209" lon="-0.1917458419">
        <ele>2328.93</ele>
        <time>2022-07-13T11:33:38Z</time>
      </trkpt>
      <trkpt lat="42.7646433190" lon="-0.1917980611">
        <ele>2328.93</ele>
        <time>2022-07-13T11:33:51Z</time>
      </trkpt>
      <trkpt lat="42.7646487672" lon="-0.1918398868">
        <ele>2328.93</ele>
        <time>2022-07-13T11:34:02Z</time>
      </trkpt>
      <trkpt lat="42.7646185923" lon="-0.1919180062">
        <ele>2328.93</ele>
        <time>2022-07-13T11:34:15Z</time>
      </trkpt>
      <trkpt lat="42.7645812929" lon="-0.1919801999">
        <ele>2328.93</ele>
        <time>2022-07-13T11:34:28Z</time>
      </trkpt>
      <trkpt lat="42.7645232901" lon="-0.1920470037">
        <ele>2328.45</ele>
        <time>2022-07-13T11:34:41Z</time>
      </trkpt>
      <trkpt lat="42.7644817159" lon="-0.1921232790">
        <ele>2328.45</ele>
        <time>2022-07-13T11:34:51Z</time>
      </trkpt>
      <trkpt lat="42.7644274011" lon="-0.1921552978">
        <ele>2329.41</ele>
        <time>2022-07-13T11:35:04Z</time>
      </trkpt>
      <trkpt lat="42.7643734217" lon="-0.1922342554">
        <ele>2329.41</ele>
        <time>2022-07-13T11:35:17Z</time>
      </trkpt>
      <trkpt lat="42.7643217053" lon="-0.1922672801">
        <ele>2328.45</ele>
        <time>2022-07-13T11:35:31Z</time>
      </trkpt>
      <trkpt lat="42.7643165924" lon="-0.1922645140">
        <ele>2328.45</ele>
        <time>2022-07-13T11:35:32Z</time>
      </trkpt>
      <trkpt lat="42.7642675582" lon="-0.1923122071">
        <ele>2327.49</ele>
        <time>2022-07-13T11:35:45Z</time>
      </trkpt>
      <trkpt lat="42.7641668078" lon="-0.1923793461">
        <ele>2327.49</ele>
        <time>2022-07-13T11:36:01Z</time>
      </trkpt>
      <trkpt lat="42.7640794683" lon="-0.1925058290">
        <ele>2327.49</ele>
        <time>2022-07-13T11:36:15Z</time>
      </trkpt>
      <trkpt lat="42.7639989182" lon="-0.1925800089">
        <ele>2327.49</ele>
        <time>2022-07-13T11:36:25Z</time>
      </trkpt>
      <trkpt lat="42.7639211342" lon="-0.1926818490">
        <ele>2327.01</ele>
        <time>2022-07-13T11:36:37Z</time>
      </trkpt>
      <trkpt lat="42.7638226468" lon="-0.1928159595">
        <ele>2329.41</ele>
        <time>2022-07-13T11:36:49Z</time>
      </trkpt>
      <trkpt lat="42.7637614589" lon="-0.1929647382">
        <ele>2331.33</ele>
        <time>2022-07-13T11:37:03Z</time>
      </trkpt>
      <trkpt lat="42.7637255006" lon="-0.1930725295">
        <ele>2333.74</ele>
        <time>2022-07-13T11:37:16Z</time>
      </trkpt>
      <trkpt lat="42.7636876982" lon="-0.1931756269">
        <ele>2334.70</ele>
        <time>2022-07-13T11:37:33Z</time>
      </trkpt>
      <trkpt lat="42.7636417653" lon="-0.1932707615">
        <ele>2336.14</ele>
        <time>2022-07-13T11:37:46Z</time>
      </trkpt>
      <trkpt lat="42.7636327967" lon="-0.1933583524">
        <ele>2338.54</ele>
        <time>2022-07-13T11:37:59Z</time>
      </trkpt>
      <trkpt lat="42.7635964192" lon="-0.1934721787">
        <ele>2340.47</ele>
        <time>2022-07-13T11:38:14Z</time>
      </trkpt>
      <trkpt lat="42.7635770570" lon="-0.1935703307">
        <ele>2342.87</ele>
        <time>2022-07-13T11:38:29Z</time>
      </trkpt>
      <trkpt lat="42.7635539230" lon="-0.1936507132">
        <ele>2344.79</ele>
        <time>2022-07-13T11:38:41Z</time>
      </trkpt>
      <trkpt lat="42.7635518275" lon="-0.1937357057">
        <ele>2347.68</ele>
        <time>2022-07-13T11:38:56Z</time>
      </trkpt>
      <trkpt lat="42.7635164559" lon="-0.1937793754">
        <ele>2348.64</ele>
        <time>2022-07-13T11:39:10Z</time>
      </trkpt>
      <trkpt lat="42.7634812519" lon="-0.1938569080">
        <ele>2350.08</ele>
        <time>2022-07-13T11:39:22Z</time>
      </trkpt>
      <trkpt lat="42.7634717803" lon="-0.1938994881">
        <ele>2351.52</ele>
        <time>2022-07-13T11:39:27Z</time>
      </trkpt>
      <trkpt lat="42.7634614706" lon="-0.1940247137">
        <ele>2353.93</ele>
        <time>2022-07-13T11:39:43Z</time>
      </trkpt>
      <trkpt lat="42.7634512447" lon="-0.1941275597">
        <ele>2355.37</ele>
        <time>2022-07-13T11:39:56Z</time>
      </trkpt>
      <trkpt lat="42.7634415217" lon="-0.1942293998">
        <ele>2357.29</ele>
        <time>2022-07-13T11:40:09Z</time>
      </trkpt>
      <trkpt lat="42.7634413540" lon="-0.1942495164">
        <ele>2357.29</ele>
        <time>2022-07-13T11:40:12Z</time>
      </trkpt>
      <trkpt lat="42.7634199802" lon="-0.1943361852">
        <ele>2357.29</ele>
        <time>2022-07-13T11:40:24Z</time>
      </trkpt>
      <trkpt lat="42.7633893862" lon="-0.1944298111">
        <ele>2358.73</ele>
        <time>2022-07-13T11:40:38Z</time>
      </trkpt>
      <trkpt lat="42.7633856144" lon="-0.1944460720">
        <ele>2359.69</ele>
        <time>2022-07-13T11:40:40Z</time>
      </trkpt>
      <trkpt lat="42.7633745503" lon="-0.1945013925">
        <ele>2361.62</ele>
        <time>2022-07-13T11:40:51Z</time>
      </trkpt>
      <trkpt lat="42.7633891348" lon="-0.1945897378">
        <ele>2364.02</ele>
        <time>2022-07-13T11:41:04Z</time>
      </trkpt>
      <trkpt lat="42.7633444592" lon="-0.1946318988">
        <ele>2365.46</ele>
        <time>2022-07-13T11:41:18Z</time>
      </trkpt>
      <trkpt lat="42.7633581217" lon="-0.1947313081">
        <ele>2368.35</ele>
        <time>2022-07-13T11:41:30Z</time>
      </trkpt>
      <trkpt lat="42.7633163799" lon="-0.1948318910">
        <ele>2371.23</ele>
        <time>2022-07-13T11:41:45Z</time>
      </trkpt>
      <trkpt lat="42.7632581256" lon="-0.1949556917">
        <ele>2374.11</ele>
        <time>2022-07-13T11:42:01Z</time>
      </trkpt>
      <trkpt lat="42.7631753124" lon="-0.1950901374">
        <ele>2376.52</ele>
        <time>2022-07-13T11:42:17Z</time>
      </trkpt>
      <trkpt lat="42.7631335706" lon="-0.1952189673">
        <ele>2377.96</ele>
        <time>2022-07-13T11:42:30Z</time>
      </trkpt>
      <trkpt lat="42.7630769927" lon="-0.1952805743">
        <ele>2378.44</ele>
        <time>2022-07-13T11:42:43Z</time>
      </trkpt>
      <trkpt lat="42.7630347479" lon="-0.1953795645">
        <ele>2379.88</ele>
        <time>2022-07-13T11:42:58Z</time>
      </trkpt>
      <trkpt lat="42.7630097698" lon="-0.1955645531">
        <ele>2378.92</ele>
        <time>2022-07-13T11:43:15Z</time>
      </trkpt>
      <trkpt lat="42.7630220074" lon="-0.1957200374">
        <ele>2378.44</ele>
        <time>2022-07-13T11:43:26Z</time>
      </trkpt>
      <trkpt lat="42.7630414534" lon="-0.1958797127">
        <ele>2377.48</ele>
        <time>2022-07-13T11:43:39Z</time>
      </trkpt>
      <trkpt lat="42.7629636694" lon="-0.1959007513">
        <ele>2380.36</ele>
        <time>2022-07-13T11:43:53Z</time>
      </trkpt>
      <trkpt lat="42.7628656011" lon="-0.1959600113">
        <ele>2382.28</ele>
        <time>2022-07-13T11:44:09Z</time>
      </trkpt>
      <trkpt lat="42.7628640085" lon="-0.1959702373">
        <ele>2382.28</ele>
        <time>2022-07-13T11:44:10Z</time>
      </trkpt>
      <trkpt lat="42.7627976239" lon="-0.1960771903">
        <ele>2384.21</ele>
        <time>2022-07-13T11:44:27Z</time>
      </trkpt>
      <trkpt lat="42.7627174929" lon="-0.1961604226">
        <ele>2386.13</ele>
        <time>2022-07-13T11:44:41Z</time>
      </trkpt>
      <trkpt lat="42.7626379486" lon="-0.1962057687">
        <ele>2387.57</ele>
        <time>2022-07-13T11:44:55Z</time>
      </trkpt>
      <trkpt lat="42.7625066042" lon="-0.1962885819">
        <ele>2388.53</ele>
        <time>2022-07-13T11:45:10Z</time>
      </trkpt>
      <trkpt lat="42.7623807080" lon="-0.1964092813">
        <ele>2388.53</ele>
        <time>2022-07-13T11:45:22Z</time>
      </trkpt>
      <trkpt lat="42.7623703144" lon="-0.1964098681">
        <ele>2388.53</ele>
        <time>2022-07-13T11:45:23Z</time>
      </trkpt>
      <trkpt lat="42.7622897644" lon="-0.1964388695">
        <ele>2387.57</ele>
        <time>2022-07-13T11:45:31Z</time>
      </trkpt>
      <trkpt lat="42.7622341085" lon="-0.1965030748">
        <ele>2389.01</ele>
        <time>2022-07-13T11:45:39Z</time>
      </trkpt>
      <trkpt lat="42.7621142473" lon="-0.1965095289">
        <ele>2391.90</ele>
        <time>2022-07-13T11:45:54Z</time>
      </trkpt>
      <trkpt lat="42.7620398160" lon="-0.1965958625">
        <ele>2394.78</ele>
        <time>2022-07-13T11:46:07Z</time>
      </trkpt>
      <trkpt lat="42.7619591821" lon="-0.1966914162">
        <ele>2395.74</ele>
        <time>2022-07-13T11:46:20Z</time>
      </trkpt>
      <trkpt lat="42.7619253192" lon="-0.1967780851">
        <ele>2395.74</ele>
        <time>2022-07-13T11:46:28Z</time>
      </trkpt>
      <trkpt lat="42.7618487924" lon="-0.1967959385">
        <ele>2394.78</ele>
        <time>2022-07-13T11:46:35Z</time>
      </trkpt>
      <trkpt lat="42.7617299370" lon="-0.1968306396">
        <ele>2393.34</ele>
        <time>2022-07-13T11:46:47Z</time>
      </trkpt>
      <trkpt lat="42.7616283484" lon="-0.1968546957">
        <ele>2391.42</ele>
        <time>2022-07-13T11:47:00Z</time>
      </trkpt>
      <trkpt lat="42.7615432721" lon="-0.1968634967">
        <ele>2389.97</ele>
        <time>2022-07-13T11:47:10Z</time>
      </trkpt>
      <trkpt lat="42.7614134364" lon="-0.1969879679">
        <ele>2389.49</ele>
        <time>2022-07-13T11:47:26Z</time>
      </trkpt>
      <trkpt lat="42.7613970917" lon="-0.1969998702">
        <ele>2387.09</ele>
        <time>2022-07-13T11:47:29Z</time>
      </trkpt>
      <trkpt lat="42.7613463812" lon="-0.1969554462">
        <ele>2388.53</ele>
        <time>2022-07-13T11:47:46Z</time>
      </trkpt>
      <trkpt lat="42.7613502368" lon="-0.1969610620">
        <ele>2388.05</ele>
        <time>2022-07-13T11:47:54Z</time>
      </trkpt>
      <trkpt lat="42.7612792421" lon="-0.1970118564">
        <ele>2387.09</ele>
        <time>2022-07-13T11:48:02Z</time>
      </trkpt>
      <trkpt lat="42.7612455469" lon="-0.1971149538">
        <ele>2387.09</ele>
        <time>2022-07-13T11:48:09Z</time>
      </trkpt>
      <trkpt lat="42.7612328064" lon="-0.1972934883">
        <ele>2386.61</ele>
        <time>2022-07-13T11:48:22Z</time>
      </trkpt>
      <trkpt lat="42.7612302080" lon="-0.1974134333">
        <ele>2387.09</ele>
        <time>2022-07-13T11:48:31Z</time>
      </trkpt>
      <trkpt lat="42.7611891367" lon="-0.1974797342">
        <ele>2387.09</ele>
        <time>2022-07-13T11:48:36Z</time>
      </trkpt>
      <trkpt lat="42.7611612249" lon="-0.1975079812">
        <ele>2388.05</ele>
        <time>2022-07-13T11:48:39Z</time>
      </trkpt>
      <trkpt lat="42.7610758133" lon="-0.1976142637">
        <ele>2388.53</ele>
        <time>2022-07-13T11:48:52Z</time>
      </trkpt>
      <trkpt lat="42.7609667648" lon="-0.1976837497">
        <ele>2388.53</ele>
        <time>2022-07-13T11:49:04Z</time>
      </trkpt>
      <trkpt lat="42.7609417029" lon="-0.1977570076">
        <ele>2389.01</ele>
        <time>2022-07-13T11:49:19Z</time>
      </trkpt>
      <trkpt lat="42.7609323990" lon="-0.1978619490">
        <ele>2390.46</ele>
        <time>2022-07-13T11:49:32Z</time>
      </trkpt>
      <trkpt lat="42.7609096840" lon="-0.1979541499">
        <ele>2392.86</ele>
        <time>2022-07-13T11:49:44Z</time>
      </trkpt>
      <trkpt lat="42.7607693709" lon="-0.1980323531">
        <ele>2393.82</ele>
        <time>2022-07-13T11:49:59Z</time>
      </trkpt>
      <trkpt lat="42.7606937662" lon="-0.1981199440">
        <ele>2395.26</ele>
        <time>2022-07-13T11:50:11Z</time>
      </trkpt>
      <trkpt lat="42.7606446482" lon="-0.1981754322">
        <ele>2395.74</ele>
        <time>2022-07-13T11:50:18Z</time>
      </trkpt>
      <trkpt lat="42.7606181614" lon="-0.1982185990">
        <ele>2396.70</ele>
        <time>2022-07-13T11:50:30Z</time>
      </trkpt>
      <trkpt lat="42.7606253698" lon="-0.1982001588">
        <ele>2398.63</ele>
        <time>2022-07-13T11:50:32Z</time>
      </trkpt>
      <trkpt lat="42.7606309857" lon="-0.1982165873">
        <ele>2389.01</ele>
        <time>2022-07-13T11:50:35Z</time>
      </trkpt>
      <trkpt lat="42.7606293932" lon="-0.1982242987">
        <ele>2397.18</ele>
        <time>2022-07-13T11:50:36Z</time>
      </trkpt>
      <trkpt lat="42.7606061753" lon="-0.1982500311">
        <ele>2395.74</ele>
        <time>2022-07-13T11:51:09Z</time>
      </trkpt>
      <trkpt lat="42.7606129646" lon="-0.1982474327">
        <ele>2402.95</ele>
        <time>2022-07-13T11:51:24Z</time>
      </trkpt>
      <trkpt lat="42.7606222685" lon="-0.1982437447">
        <ele>2397.18</ele>
        <time>2022-07-13T11:51:25Z</time>
      </trkpt>
      <trkpt lat="42.7606223524" lon="-0.1982439123">
        <ele>2396.22</ele>
        <time>2022-07-13T11:51:27Z</time>
      </trkpt>
      <trkpt lat="42.7606285550" lon="-0.1982387993">
        <ele>2397.67</ele>
        <time>2022-07-13T11:51:44Z</time>
      </trkpt>
      <trkpt lat="42.7605972905" lon="-0.1982604247">
        <ele>2397.67</ele>
        <time>2022-07-13T11:51:59Z</time>
      </trkpt>
      <trkpt lat="42.7605433110" lon="-0.1983383764">
        <ele>2399.59</ele>
        <time>2022-07-13T11:52:12Z</time>
      </trkpt>
      <trkpt lat="42.7605420537" lon="-0.1983567327">
        <ele>2400.07</ele>
        <time>2022-07-13T11:52:14Z</time>
      </trkpt>
      <trkpt lat="42.7604851406" lon="-0.1984372828">
        <ele>2402.47</ele>
        <time>2022-07-13T11:52:28Z</time>
      </trkpt>
      <trkpt lat="42.7604454104" lon="-0.1985164918">
        <ele>2403.91</ele>
        <time>2022-07-13T11:52:41Z</time>
      </trkpt>
      <trkpt lat="42.7604098711" lon="-0.1985897496">
        <ele>2406.32</ele>
        <time>2022-07-13T11:52:56Z</time>
      </trkpt>
      <trkpt lat="42.7603596635" lon="-0.1986605767">
        <ele>2408.72</ele>
        <time>2022-07-13T11:53:10Z</time>
      </trkpt>
      <trkpt lat="42.7603111323" lon="-0.1987242792">
        <ele>2411.60</ele>
        <time>2022-07-13T11:53:19Z</time>
      </trkpt>
      <trkpt lat="42.7602906805" lon="-0.1987330802">
        <ele>2411.60</ele>
        <time>2022-07-13T11:53:22Z</time>
      </trkpt>
      <trkpt lat="42.7601885889" lon="-0.1987726428">
        <ele>2414.01</ele>
        <time>2022-07-13T11:53:35Z</time>
      </trkpt>
      <trkpt lat="42.7601412311" lon="-0.1988348365">
        <ele>2416.89</ele>
        <time>2022-07-13T11:53:45Z</time>
      </trkpt>
      <trkpt lat="42.7600595076" lon="-0.1988682803">
        <ele>2418.81</ele>
        <time>2022-07-13T11:53:57Z</time>
      </trkpt>
      <trkpt lat="42.7599799633" lon="-0.1989533566">
        <ele>2421.70</ele>
        <time>2022-07-13T11:54:12Z</time>
      </trkpt>
      <trkpt lat="42.7599009220" lon="-0.1990294643">
        <ele>2424.58</ele>
        <time>2022-07-13T11:54:25Z</time>
      </trkpt>
      <trkpt lat="42.7599020954" lon="-0.1991720404">
        <ele>2427.47</ele>
        <time>2022-07-13T11:54:39Z</time>
      </trkpt>
      <trkpt lat="42.7598610241" lon="-0.1992642414">
        <ele>2429.87</ele>
        <time>2022-07-13T11:54:54Z</time>
      </trkpt>
      <trkpt lat="42.7598008420" lon="-0.1993131079">
        <ele>2432.75</ele>
        <time>2022-07-13T11:55:07Z</time>
      </trkpt>
      <trkpt lat="42.7597476169" lon="-0.1994107570">
        <ele>2434.68</ele>
        <time>2022-07-13T11:55:19Z</time>
      </trkpt>
      <trkpt lat="42.7597313561" lon="-0.1995197218">
        <ele>2437.08</ele>
        <time>2022-07-13T11:55:33Z</time>
      </trkpt>
      <trkpt lat="42.7597318590" lon="-0.1996417623">
        <ele>2440.44</ele>
        <time>2022-07-13T11:55:46Z</time>
      </trkpt>
      <trkpt lat="42.7597547416" lon="-0.1997525711">
        <ele>2443.33</ele>
        <time>2022-07-13T11:56:00Z</time>
      </trkpt>
      <trkpt lat="42.7597710863" lon="-0.1998204645">
        <ele>2444.77</ele>
        <time>2022-07-13T11:56:11Z</time>
      </trkpt>
      <trkpt lat="42.7597741038" lon="-0.1998878550">
        <ele>2448.13</ele>
        <time>2022-07-13T11:56:24Z</time>
      </trkpt>
      <trkpt lat="42.7598398179" lon="-0.1999764517">
        <ele>2451.02</ele>
        <time>2022-07-13T11:56:39Z</time>
      </trkpt>
      <trkpt lat="42.7597933821" lon="-0.2000498772">
        <ele>2453.42</ele>
        <time>2022-07-13T11:56:52Z</time>
      </trkpt>
      <trkpt lat="42.7597315237" lon="-0.2001005039">
        <ele>2456.79</ele>
        <time>2022-07-13T11:57:06Z</time>
      </trkpt>
      <trkpt lat="42.7596685756" lon="-0.2001478616">
        <ele>2458.71</ele>
        <time>2022-07-13T11:57:18Z</time>
      </trkpt>
      <trkpt lat="42.7596594393" lon="-0.2002598438">
        <ele>2461.11</ele>
        <time>2022-07-13T11:57:30Z</time>
      </trkpt>
      <trkpt lat="42.7595896181" lon="-0.2003153320">
        <ele>2464.48</ele>
        <time>2022-07-13T11:57:42Z</time>
      </trkpt>
      <trkpt lat="42.7595460322" lon="-0.2004035935">
        <ele>2466.40</ele>
        <time>2022-07-13T11:57:54Z</time>
      </trkpt>
      <trkpt lat="42.7594757080" lon="-0.2005009074">
        <ele>2469.76</ele>
        <time>2022-07-13T11:58:09Z</time>
      </trkpt>
      <trkpt lat="42.7594367322" lon="-0.2005649451">
        <ele>2472.65</ele>
        <time>2022-07-13T11:58:24Z</time>
      </trkpt>
      <trkpt lat="42.7593791485" lon="-0.2006248757">
        <ele>2475.53</ele>
        <time>2022-07-13T11:58:36Z</time>
      </trkpt>
      <trkpt lat="42.7593705151" lon="-0.2007596567">
        <ele>2478.42</ele>
        <time>2022-07-13T11:58:50Z</time>
      </trkpt>
      <trkpt lat="42.7593851835" lon="-0.2008786798">
        <ele>2480.82</ele>
        <time>2022-07-13T11:59:04Z</time>
      </trkpt>
      <trkpt lat="42.7594260033" lon="-0.2010034863">
        <ele>2483.70</ele>
        <time>2022-07-13T11:59:19Z</time>
      </trkpt>
      <trkpt lat="42.7594172023" lon="-0.2010918316">
        <ele>2486.59</ele>
        <time>2022-07-13T11:59:30Z</time>
      </trkpt>
      <trkpt lat="42.7593444474" lon="-0.2011359204">
        <ele>2488.51</ele>
        <time>2022-07-13T11:59:42Z</time>
      </trkpt>
      <trkpt lat="42.7592911385" lon="-0.2011836972">
        <ele>2491.87</ele>
        <time>2022-07-13T11:59:52Z</time>
      </trkpt>
      <trkpt lat="42.7592538390" lon="-0.2012163028">
        <ele>2491.39</ele>
        <time>2022-07-13T11:59:58Z</time>
      </trkpt>
      <trkpt lat="42.7592202276" lon="-0.2012191527">
        <ele>2492.84</ele>
        <time>2022-07-13T12:00:02Z</time>
      </trkpt>
      <trkpt lat="42.7592065651" lon="-0.2012281213">
        <ele>2494.28</ele>
        <time>2022-07-13T12:00:05Z</time>
      </trkpt>
      <trkpt lat="42.7590989415" lon="-0.2012576256">
        <ele>2496.68</ele>
        <time>2022-07-13T12:00:20Z</time>
      </trkpt>
      <trkpt lat="42.7590430342" lon="-0.2013177238">
        <ele>2499.57</ele>
        <time>2022-07-13T12:00:32Z</time>
      </trkpt>
      <trkpt lat="42.7589879651" lon="-0.2013627347">
        <ele>2502.45</ele>
        <time>2022-07-13T12:00:45Z</time>
      </trkpt>
      <trkpt lat="42.7589334827" lon="-0.2014218271">
        <ele>2505.81</ele>
        <time>2022-07-13T12:00:57Z</time>
      </trkpt>
      <trkpt lat="42.7588472329" lon="-0.2014558576">
        <ele>2507.74</ele>
        <time>2022-07-13T12:01:10Z</time>
      </trkpt>
      <trkpt lat="42.7587588038" lon="-0.2015270200">
        <ele>2510.62</ele>
        <time>2022-07-13T12:01:24Z</time>
      </trkpt>
      <trkpt lat="42.7586510126" lon="-0.2015705220">
        <ele>2513.50</ele>
        <time>2022-07-13T12:01:37Z</time>
      </trkpt>
      <trkpt lat="42.7585345879" lon="-0.2016157005">
        <ele>2516.39</ele>
        <time>2022-07-13T12:01:51Z</time>
      </trkpt>
      <trkpt lat="42.7583788522" lon="-0.2016172092">
        <ele>2518.31</ele>
        <time>2022-07-13T12:02:08Z</time>
      </trkpt>
      <trkpt lat="42.7582854778" lon="-0.2016680874">
        <ele>2521.68</ele>
        <time>2022-07-13T12:02:22Z</time>
      </trkpt>
      <trkpt lat="42.7582055982" lon="-0.2017301135">
        <ele>2524.56</ele>
        <time>2022-07-13T12:02:35Z</time>
      </trkpt>
      <trkpt lat="42.7581196837" lon="-0.2018515673">
        <ele>2526.48</ele>
        <time>2022-07-13T12:02:50Z</time>
      </trkpt>
      <trkpt lat="42.7581255510" lon="-0.2017975878">
        <ele>2526.96</ele>
        <time>2022-07-13T12:03:03Z</time>
      </trkpt>
      <trkpt lat="42.7581098769" lon="-0.2018103283">
        <ele>2526.48</ele>
        <time>2022-07-13T12:03:26Z</time>
      </trkpt>
      <trkpt lat="42.7580994833" lon="-0.2017917205">
        <ele>2526.48</ele>
        <time>2022-07-13T12:04:01Z</time>
      </trkpt>
      <trkpt lat="42.7581062727" lon="-0.2017976716">
        <ele>2526.96</ele>
        <time>2022-07-13T12:04:05Z</time>
      </trkpt>
      <trkpt lat="42.7580851503" lon="-0.2018361446">
        <ele>2526.48</ele>
        <time>2022-07-13T12:04:22Z</time>
      </trkpt>
      <trkpt lat="42.7580859046" lon="-0.2018391620">
        <ele>2526.96</ele>
        <time>2022-07-13T12:04:56Z</time>
      </trkpt>
      <trkpt lat="42.7580845635" lon="-0.2018402517">
        <ele>2527.92</ele>
        <time>2022-07-13T12:05:35Z</time>
      </trkpt>
      <trkpt lat="42.7580793668" lon="-0.2018439397">
        <ele>2528.40</ele>
        <time>2022-07-13T12:06:12Z</time>
      </trkpt>
      <trkpt lat="42.7580872457" lon="-0.2018432692">
        <ele>2528.89</ele>
        <time>2022-07-13T12:06:43Z</time>
      </trkpt>
      <trkpt lat="42.7580763493" lon="-0.2018557582">
        <ele>2529.37</ele>
        <time>2022-07-13T12:07:16Z</time>
      </trkpt>
      <trkpt lat="42.7580807079" lon="-0.2018557582">
        <ele>2529.85</ele>
        <time>2022-07-13T12:07:44Z</time>
      </trkpt>
      <trkpt lat="42.7580758464" lon="-0.2018603683">
        <ele>2529.85</ele>
        <time>2022-07-13T12:07:52Z</time>
      </trkpt>
      <trkpt lat="42.7580993157" lon="-0.2018425986">
        <ele>2527.92</ele>
        <time>2022-07-13T12:07:57Z</time>
      </trkpt>
      <trkpt lat="42.7581015788" lon="-0.2018425986">
        <ele>2531.29</ele>
        <time>2022-07-13T12:07:58Z</time>
      </trkpt>
      <trkpt lat="42.7581150737" lon="-0.2018380724">
        <ele>2532.25</ele>
        <time>2022-07-13T12:08:26Z</time>
      </trkpt>
      <trkpt lat="42.7581072785" lon="-0.2018251643">
        <ele>2533.69</ele>
        <time>2022-07-13T12:08:44Z</time>
      </trkpt>
      <trkpt lat="42.7581082005" lon="-0.2018327080">
        <ele>2526.96</ele>
        <time>2022-07-13T12:08:46Z</time>
      </trkpt>
      <trkpt lat="42.7581080329" lon="-0.2018326242">
        <ele>2532.25</ele>
        <time>2022-07-13T12:08:47Z</time>
      </trkpt>
      <trkpt lat="42.7581115533" lon="-0.2018389944">
        <ele>2535.13</ele>
        <time>2022-07-13T12:08:53Z</time>
      </trkpt>
      <trkpt lat="42.7581085358" lon="-0.2018304449">
        <ele>2535.13</ele>
        <time>2022-07-13T12:08:54Z</time>
      </trkpt>
      <trkpt lat="42.7581220306" lon="-0.2018304449">
        <ele>2533.21</ele>
        <time>2022-07-13T12:08:56Z</time>
      </trkpt>
      <trkpt lat="42.7581265569" lon="-0.2018191293">
        <ele>2535.13</ele>
        <time>2022-07-13T12:09:00Z</time>
      </trkpt>
      <trkpt lat="42.7581384592" lon="-0.2017945703">
        <ele>2533.21</ele>
        <time>2022-07-13T12:09:19Z</time>
      </trkpt>
      <trkpt lat="42.7581444103" lon="-0.2018221468">
        <ele>2534.17</ele>
        <time>2022-07-13T12:09:38Z</time>
      </trkpt>
      <trkpt lat="42.7581347711" lon="-0.2018403355">
        <ele>2534.17</ele>
        <time>2022-07-13T12:09:40Z</time>
      </trkpt>
      <trkpt lat="42.7581155766" lon="-0.2018556744">
        <ele>2534.17</ele>
        <time>2022-07-13T12:09:42Z</time>
      </trkpt>
      <trkpt lat="42.7581109665" lon="-0.2019098215">
        <ele>2534.17</ele>
        <time>2022-07-13T12:09:46Z</time>
      </trkpt>
      <trkpt lat="42.7581552230" lon="-0.2020332869">
        <ele>2535.13</ele>
        <time>2022-07-13T12:10:01Z</time>
      </trkpt>
      <trkpt lat="42.7580952924" lon="-0.2021032758">
        <ele>2532.73</ele>
        <time>2022-07-13T12:10:07Z</time>
      </trkpt>
      <trkpt lat="42.7580351941" lon="-0.2022488695">
        <ele>2531.77</ele>
        <time>2022-07-13T12:10:18Z</time>
      </trkpt>
      <trkpt lat="42.7580143232" lon="-0.2022759430">
        <ele>2530.33</ele>
        <time>2022-07-13T12:10:21Z</time>
      </trkpt>
      <trkpt lat="42.7579975594" lon="-0.2023083810">
        <ele>2529.85</ele>
        <time>2022-07-13T12:10:24Z</time>
      </trkpt>
      <trkpt lat="42.7579854056" lon="-0.2023724187">
        <ele>2527.92</ele>
        <time>2022-07-13T12:10:29Z</time>
      </trkpt>
      <trkpt lat="42.7579638641" lon="-0.2024044376">
        <ele>2526.48</ele>
        <time>2022-07-13T12:10:32Z</time>
      </trkpt>
      <trkpt lat="42.7578711603" lon="-0.2025382966">
        <ele>2523.60</ele>
        <time>2022-07-13T12:10:43Z</time>
      </trkpt>
      <trkpt lat="42.7577345353" lon="-0.2026812918">
        <ele>2522.16</ele>
        <time>2022-07-13T12:10:57Z</time>
      </trkpt>
      <trkpt lat="42.7576826513" lon="-0.2027413063">
        <ele>2522.64</ele>
        <time>2022-07-13T12:11:03Z</time>
      </trkpt>
      <trkpt lat="42.7576567512" lon="-0.2027700562">
        <ele>2522.64</ele>
        <time>2022-07-13T12:11:06Z</time>
      </trkpt>
      <trkpt lat="42.7576044481" lon="-0.2028580662">
        <ele>2524.08</ele>
        <time>2022-07-13T12:11:18Z</time>
      </trkpt>
      <trkpt lat="42.7575518936" lon="-0.2028783504">
        <ele>2525.52</ele>
        <time>2022-07-13T12:11:25Z</time>
      </trkpt>
      <trkpt lat="42.7575632092" lon="-0.2029003110">
        <ele>2526.48</ele>
        <time>2022-07-13T12:11:27Z</time>
      </trkpt>
      <trkpt lat="42.7575984970" lon="-0.2029143926">
        <ele>2525.04</ele>
        <time>2022-07-13T12:11:33Z</time>
      </trkpt>
      <trkpt lat="42.7575756144" lon="-0.2029089443">
        <ele>2525.52</ele>
        <time>2022-07-13T12:11:51Z</time>
      </trkpt>
      <trkpt lat="42.7575894445" lon="-0.2029054239">
        <ele>2525.52</ele>
        <time>2022-07-13T12:11:54Z</time>
      </trkpt>
      <trkpt lat="42.7576445136" lon="-0.2029263787">
        <ele>2524.08</ele>
        <time>2022-07-13T12:12:01Z</time>
      </trkpt>
      <trkpt lat="42.7575938031" lon="-0.2029045857">
        <ele>2521.68</ele>
        <time>2022-07-13T12:12:14Z</time>
      </trkpt>
      <trkpt lat="42.7575390693" lon="-0.2029730659">
        <ele>2519.75</ele>
        <time>2022-07-13T12:12:25Z</time>
      </trkpt>
      <trkpt lat="42.7575060446" lon="-0.2029835433">
        <ele>2518.79</ele>
        <time>2022-07-13T12:12:28Z</time>
      </trkpt>
      <trkpt lat="42.7573993430" lon="-0.2030319907">
        <ele>2517.35</ele>
        <time>2022-07-13T12:12:41Z</time>
      </trkpt>
      <trkpt lat="42.7573191281" lon="-0.2031131275">
        <ele>2516.87</ele>
        <time>2022-07-13T12:12:54Z</time>
      </trkpt>
      <trkpt lat="42.7572889533" lon="-0.2031516004">
        <ele>2518.31</ele>
        <time>2022-07-13T12:13:02Z</time>
      </trkpt>
      <trkpt lat="42.7572306152" lon="-0.2032331564">
        <ele>2519.75</ele>
        <time>2022-07-13T12:13:16Z</time>
      </trkpt>
      <trkpt lat="42.7572084032" lon="-0.2032903209">
        <ele>2520.23</ele>
        <time>2022-07-13T12:13:23Z</time>
      </trkpt>
      <trkpt lat="42.7571900468" lon="-0.2033203281">
        <ele>2518.79</ele>
        <time>2022-07-13T12:13:27Z</time>
      </trkpt>
      <trkpt lat="42.7571581956" lon="-0.2034072485">
        <ele>2521.68</ele>
        <time>2022-07-13T12:13:42Z</time>
      </trkpt>
      <trkpt lat="42.7571570221" lon="-0.2034218330">
        <ele>2521.68</ele>
        <time>2022-07-13T12:13:46Z</time>
      </trkpt>
      <trkpt lat="42.7571437787" lon="-0.2034392674">
        <ele>2519.27</ele>
        <time>2022-07-13T12:13:48Z</time>
      </trkpt>
      <trkpt lat="42.7571205609" lon="-0.2034775726">
        <ele>2517.35</ele>
        <time>2022-07-13T12:14:02Z</time>
      </trkpt>
      <trkpt lat="42.7570716944" lon="-0.2035349887">
        <ele>2516.87</ele>
        <time>2022-07-13T12:14:13Z</time>
      </trkpt>
      <trkpt lat="42.7570370771" lon="-0.2036147006">
        <ele>2516.87</ele>
        <time>2022-07-13T12:14:22Z</time>
      </trkpt>
      <trkpt lat="42.7570121828" lon="-0.2036318835">
        <ele>2518.31</ele>
        <time>2022-07-13T12:14:26Z</time>
      </trkpt>
      <trkpt lat="42.7570193075" lon="-0.2036967594">
        <ele>2516.87</ele>
        <time>2022-07-13T12:14:38Z</time>
      </trkpt>
      <trkpt lat="42.7570170444" lon="-0.2037090808">
        <ele>2516.87</ele>
        <time>2022-07-13T12:14:39Z</time>
      </trkpt>
      <trkpt lat="42.7570081595" lon="-0.2037446201">
        <ele>2515.91</ele>
        <time>2022-07-13T12:14:44Z</time>
      </trkpt>
      <trkpt lat="42.7570172120" lon="-0.2037789021">
        <ele>2515.91</ele>
        <time>2022-07-13T12:14:48Z</time>
      </trkpt>
      <trkpt lat="42.7570038009" lon="-0.2038059756">
        <ele>2514.47</ele>
        <time>2022-07-13T12:14:51Z</time>
      </trkpt>
      <trkpt lat="42.7569883782" lon="-0.2038236614">
        <ele>2513.02</ele>
        <time>2022-07-13T12:14:53Z</time>
      </trkpt>
      <trkpt lat="42.7569832653" lon="-0.2038322110">
        <ele>2513.02</ele>
        <time>2022-07-13T12:14:54Z</time>
      </trkpt>
      <trkpt lat="42.7568871249" lon="-0.2039446123">
        <ele>2511.58</ele>
        <time>2022-07-13T12:15:07Z</time>
      </trkpt>
      <trkpt lat="42.7568703610" lon="-0.2039550897">
        <ele>2511.58</ele>
        <time>2022-07-13T12:15:09Z</time>
      </trkpt>
      <trkpt lat="42.7567889728" lon="-0.2040511463">
        <ele>2513.50</ele>
        <time>2022-07-13T12:15:20Z</time>
      </trkpt>
      <trkpt lat="42.7567154635" lon="-0.2041614521">
        <ele>2510.62</ele>
        <time>2022-07-13T12:15:32Z</time>
      </trkpt>
      <trkpt lat="42.7566618193" lon="-0.2042556647">
        <ele>2511.10</ele>
        <time>2022-07-13T12:15:41Z</time>
      </trkpt>
      <trkpt lat="42.7566303872" lon="-0.2043457702">
        <ele>2510.62</ele>
        <time>2022-07-13T12:15:48Z</time>
      </trkpt>
      <trkpt lat="42.7566156350" lon="-0.2043676469">
        <ele>2509.66</ele>
        <time>2022-07-13T12:15:50Z</time>
      </trkpt>
      <trkpt lat="42.7565937582" lon="-0.2044308465">
        <ele>2509.66</ele>
        <time>2022-07-13T12:15:55Z</time>
      </trkpt>
      <trkpt lat="42.7565888129" lon="-0.2044585906">
        <ele>2509.66</ele>
        <time>2022-07-13T12:15:57Z</time>
      </trkpt>
      <trkpt lat="42.7565743960" lon="-0.2044852450">
        <ele>2509.66</ele>
        <time>2022-07-13T12:15:59Z</time>
      </trkpt>
      <trkpt lat="42.7565309778" lon="-0.2045390569">
        <ele>2509.18</ele>
        <time>2022-07-13T12:16:05Z</time>
      </trkpt>
      <trkpt lat="42.7565102745" lon="-0.2045908570">
        <ele>2509.66</ele>
        <time>2022-07-13T12:16:09Z</time>
      </trkpt>
      <trkpt lat="42.7564719692" lon="-0.2046538889">
        <ele>2509.66</ele>
        <time>2022-07-13T12:16:16Z</time>
      </trkpt>
      <trkpt lat="42.7563861385" lon="-0.2047735825">
        <ele>2509.18</ele>
        <time>2022-07-13T12:16:31Z</time>
      </trkpt>
      <trkpt lat="42.7563063428" lon="-0.2048827149">
        <ele>2505.33</ele>
        <time>2022-07-13T12:16:46Z</time>
      </trkpt>
      <trkpt lat="42.7562734019" lon="-0.2049328387">
        <ele>2503.89</ele>
        <time>2022-07-13T12:16:57Z</time>
      </trkpt>
      <trkpt lat="42.7562014014" lon="-0.2050172444">
        <ele>2501.01</ele>
        <time>2022-07-13T12:17:10Z</time>
      </trkpt>
      <trkpt lat="42.7560926881" lon="-0.2051835414">
        <ele>2499.57</ele>
        <time>2022-07-13T12:17:25Z</time>
      </trkpt>
      <trkpt lat="42.7560571488" lon="-0.2052479144">
        <ele>2499.57</ele>
        <time>2022-07-13T12:17:30Z</time>
      </trkpt>
      <trkpt lat="42.7559885010" lon="-0.2053634170">
        <ele>2499.57</ele>
        <time>2022-07-13T12:17:38Z</time>
      </trkpt>
      <trkpt lat="42.7559085377" lon="-0.2054531034">
        <ele>2499.08</ele>
        <time>2022-07-13T12:17:46Z</time>
      </trkpt>
      <trkpt lat="42.7558601741" lon="-0.2054843679">
        <ele>2499.08</ele>
        <time>2022-07-13T12:17:52Z</time>
      </trkpt>
      <trkpt lat="42.7558147442" lon="-0.2055822685">
        <ele>2497.16</ele>
        <time>2022-07-13T12:18:00Z</time>
      </trkpt>
      <trkpt lat="42.7557957172" lon="-0.2056142036">
        <ele>2497.64</ele>
        <time>2022-07-13T12:18:03Z</time>
      </trkpt>
      <trkpt lat="42.7556813043" lon="-0.2057204023">
        <ele>2495.72</ele>
        <time>2022-07-13T12:18:20Z</time>
      </trkpt>
      <trkpt lat="42.7556119021" lon="-0.2058260981">
        <ele>2492.84</ele>
        <time>2022-07-13T12:18:34Z</time>
      </trkpt>
      <trkpt lat="42.7555502113" lon="-0.2059014514">
        <ele>2489.95</ele>
        <time>2022-07-13T12:18:44Z</time>
      </trkpt>
      <trkpt lat="42.7555276640" lon="-0.2059443668">
        <ele>2488.99</ele>
        <time>2022-07-13T12:18:49Z</time>
      </trkpt>
      <trkpt lat="42.7554787137" lon="-0.2060464583">
        <ele>2487.55</ele>
        <time>2022-07-13T12:18:59Z</time>
      </trkpt>
      <trkpt lat="42.7553995885" lon="-0.2061855141">
        <ele>2488.03</ele>
        <time>2022-07-13T12:19:11Z</time>
      </trkpt>
      <trkpt lat="42.7553521469" lon="-0.2062527370">
        <ele>2488.99</ele>
        <time>2022-07-13T12:19:17Z</time>
      </trkpt>
      <trkpt lat="42.7553044539" lon="-0.2063418366">
        <ele>2488.51</ele>
        <time>2022-07-13T12:19:27Z</time>
      </trkpt>
      <trkpt lat="42.7553000115" lon="-0.2063513082">
        <ele>2488.51</ele>
        <time>2022-07-13T12:19:28Z</time>
      </trkpt>
      <trkpt lat="42.7552401647" lon="-0.2064422518">
        <ele>2488.51</ele>
        <time>2022-07-13T12:19:38Z</time>
      </trkpt>
      <trkpt lat="42.7552201319" lon="-0.2064834069">
        <ele>2487.55</ele>
        <time>2022-07-13T12:19:42Z</time>
      </trkpt>
      <trkpt lat="42.7552000154" lon="-0.2066222951">
        <ele>2486.11</ele>
        <time>2022-07-13T12:19:56Z</time>
      </trkpt>
      <trkpt lat="42.7552091517" lon="-0.2066949662">
        <ele>2485.15</ele>
        <time>2022-07-13T12:20:03Z</time>
      </trkpt>
      <trkpt lat="42.7551864367" lon="-0.2067795396">
        <ele>2485.15</ele>
        <time>2022-07-13T12:20:10Z</time>
      </trkpt>
      <trkpt lat="42.7551552560" lon="-0.2069468424">
        <ele>2485.15</ele>
        <time>2022-07-13T12:20:26Z</time>
      </trkpt>
      <trkpt lat="42.7551192138" lon="-0.2070832159">
        <ele>2485.15</ele>
        <time>2022-07-13T12:20:39Z</time>
      </trkpt>
      <trkpt lat="42.7551238239" lon="-0.2070915140">
        <ele>2485.15</ele>
        <time>2022-07-13T12:20:40Z</time>
      </trkpt>
      <trkpt lat="42.7551082335" lon="-0.2073095273">
        <ele>2485.15</ele>
        <time>2022-07-13T12:20:55Z</time>
      </trkpt>
      <trkpt lat="42.7550890390" lon="-0.2073963638">
        <ele>2487.55</ele>
        <time>2022-07-13T12:21:02Z</time>
      </trkpt>
      <trkpt lat="42.7550750412" lon="-0.2074498404">
        <ele>2488.51</ele>
        <time>2022-07-13T12:21:06Z</time>
      </trkpt>
      <trkpt lat="42.7550162002" lon="-0.2075212542">
        <ele>2487.07</ele>
        <time>2022-07-13T12:21:13Z</time>
      </trkpt>
      <trkpt lat="42.7549439482" lon="-0.2076629922">
        <ele>2488.99</ele>
        <time>2022-07-13T12:21:24Z</time>
      </trkpt>
      <trkpt lat="42.7549250051" lon="-0.2078431193">
        <ele>2486.59</ele>
        <time>2022-07-13T12:21:39Z</time>
      </trkpt>
      <trkpt lat="42.7548937406" lon="-0.2079378348">
        <ele>2484.66</ele>
        <time>2022-07-13T12:21:46Z</time>
      </trkpt>
      <trkpt lat="42.7548616379" lon="-0.2081104182">
        <ele>2483.22</ele>
        <time>2022-07-13T12:21:57Z</time>
      </trkpt>
      <trkpt lat="42.7547918167" lon="-0.2083019447">
        <ele>2480.34</ele>
        <time>2022-07-13T12:22:12Z</time>
      </trkpt>
      <trkpt lat="42.7547166310" lon="-0.2083589416">
        <ele>2477.94</ele>
        <time>2022-07-13T12:22:20Z</time>
      </trkpt>
      <trkpt lat="42.7546648309" lon="-0.2083491348">
        <ele>2475.05</ele>
        <time>2022-07-13T12:22:26Z</time>
      </trkpt>
      <trkpt lat="42.7546030562" lon="-0.2083733585">
        <ele>2473.61</ele>
        <time>2022-07-13T12:22:34Z</time>
      </trkpt>
      <trkpt lat="42.7545960993" lon="-0.2083727717">
        <ele>2473.13</ele>
        <time>2022-07-13T12:22:35Z</time>
      </trkpt>
      <trkpt lat="42.7545020543" lon="-0.2084333729">
        <ele>2471.69</ele>
        <time>2022-07-13T12:22:45Z</time>
      </trkpt>
      <trkpt lat="42.7544880565" lon="-0.2083630487">
        <ele>2470.73</ele>
        <time>2022-07-13T12:22:50Z</time>
      </trkpt>
      <trkpt lat="42.7544852067" lon="-0.2082493901">
        <ele>2468.32</ele>
        <time>2022-07-13T12:23:00Z</time>
      </trkpt>
      <trkpt lat="42.7544585522" lon="-0.2081363183">
        <ele>2465.92</ele>
        <time>2022-07-13T12:23:08Z</time>
      </trkpt>
      <trkpt lat="42.7544334065" lon="-0.2080868650">
        <ele>2464.96</ele>
        <time>2022-07-13T12:23:12Z</time>
      </trkpt>
      <trkpt lat="42.7542645112" lon="-0.2080742922">
        <ele>2463.04</ele>
        <time>2022-07-13T12:23:27Z</time>
      </trkpt>
      <trkpt lat="42.7541682031" lon="-0.2080649883">
        <ele>2460.63</ele>
        <time>2022-07-13T12:23:37Z</time>
      </trkpt>
      <trkpt lat="42.7541856375" lon="-0.2078586258">
        <ele>2458.23</ele>
        <time>2022-07-13T12:23:49Z</time>
      </trkpt>
      <trkpt lat="42.7541143075" lon="-0.2077735495">
        <ele>2455.82</ele>
        <time>2022-07-13T12:24:04Z</time>
      </trkpt>
      <trkpt lat="42.7540652733" lon="-0.2077754773">
        <ele>2452.94</ele>
        <time>2022-07-13T12:24:16Z</time>
      </trkpt>
      <trkpt lat="42.7540179994" lon="-0.2078320552">
        <ele>2450.06</ele>
        <time>2022-07-13T12:24:29Z</time>
      </trkpt>
      <trkpt lat="42.7539915126" lon="-0.2077612281">
        <ele>2446.69</ele>
        <time>2022-07-13T12:24:40Z</time>
      </trkpt>
      <trkpt lat="42.7539330069" lon="-0.2078245115">
        <ele>2445.25</ele>
        <time>2022-07-13T12:24:52Z</time>
      </trkpt>
      <trkpt lat="42.7539088670" lon="-0.2077911515">
        <ele>2442.37</ele>
        <time>2022-07-13T12:25:03Z</time>
      </trkpt>
      <trkpt lat="42.7538884152" lon="-0.2077455539">
        <ele>2440.44</ele>
        <time>2022-07-13T12:25:16Z</time>
      </trkpt>
      <trkpt lat="42.7538830508" lon="-0.2077453863">
        <ele>2439.00</ele>
        <time>2022-07-13T12:25:29Z</time>
      </trkpt>
      <trkpt lat="42.7538524568" lon="-0.2077572048">
        <ele>2436.12</ele>
        <time>2022-07-13T12:25:43Z</time>
      </trkpt>
      <trkpt lat="42.7538455836" lon="-0.2077618148">
        <ele>2434.68</ele>
        <time>2022-07-13T12:25:46Z</time>
      </trkpt>
      <trkpt lat="42.7538038418" lon="-0.2077797521">
        <ele>2433.71</ele>
        <time>2022-07-13T12:25:58Z</time>
      </trkpt>
      <trkpt lat="42.7537873294" lon="-0.2078945003">
        <ele>2429.87</ele>
        <time>2022-07-13T12:26:13Z</time>
      </trkpt>
      <trkpt lat="42.7537841443" lon="-0.2080346458">
        <ele>2427.95</ele>
        <time>2022-07-13T12:26:26Z</time>
      </trkpt>
      <trkpt lat="42.7538239583" lon="-0.2080970071">
        <ele>2426.02</ele>
        <time>2022-07-13T12:26:39Z</time>
      </trkpt>
      <trkpt lat="42.7538177557" lon="-0.2081419341">
        <ele>2425.54</ele>
        <time>2022-07-13T12:26:45Z</time>
      </trkpt>
      <trkpt lat="42.7538066078" lon="-0.2082369011">
        <ele>2423.14</ele>
        <time>2022-07-13T12:26:52Z</time>
      </trkpt>
      <trkpt lat="42.7537651174" lon="-0.2081612963">
        <ele>2421.70</ele>
        <time>2022-07-13T12:27:06Z</time>
      </trkpt>
      <trkpt lat="42.7537510358" lon="-0.2081159502">
        <ele>2422.18</ele>
        <time>2022-07-13T12:27:09Z</time>
      </trkpt>
      <trkpt lat="42.7537048515" lon="-0.2079691831">
        <ele>2421.22</ele>
        <time>2022-07-13T12:27:21Z</time>
      </trkpt>
      <trkpt lat="42.7536360361" lon="-0.2078803349">
        <ele>2418.81</ele>
        <time>2022-07-13T12:27:34Z</time>
      </trkpt>
      <trkpt lat="42.7536098007" lon="-0.2078589611">
        <ele>2417.85</ele>
        <time>2022-07-13T12:27:38Z</time>
      </trkpt>
      <trkpt lat="42.7535578329" lon="-0.2078059036">
        <ele>2415.45</ele>
        <time>2022-07-13T12:27:53Z</time>
      </trkpt>
      <trkpt lat="42.7535513788" lon="-0.2078447957">
        <ele>2415.45</ele>
        <time>2022-07-13T12:27:56Z</time>
      </trkpt>
      <trkpt lat="42.7535469364" lon="-0.2079908922">
        <ele>2412.57</ele>
        <time>2022-07-13T12:28:08Z</time>
      </trkpt>
      <trkpt lat="42.7535327710" lon="-0.2081003599">
        <ele>2409.68</ele>
        <time>2022-07-13T12:28:19Z</time>
      </trkpt>
      <trkpt lat="42.7535181027" lon="-0.2082104143">
        <ele>2407.28</ele>
        <time>2022-07-13T12:28:31Z</time>
      </trkpt>
      <trkpt lat="42.7535006683" lon="-0.2083399147">
        <ele>2403.43</ele>
        <time>2022-07-13T12:28:44Z</time>
      </trkpt>
      <trkpt lat="42.7534954716" lon="-0.2084223088">
        <ele>2401.99</ele>
        <time>2022-07-13T12:28:52Z</time>
      </trkpt>
      <trkpt lat="42.7535080444" lon="-0.2086060401">
        <ele>2398.15</ele>
        <time>2022-07-13T12:29:06Z</time>
      </trkpt>
      <trkpt lat="42.7535051107" lon="-0.2087761927">
        <ele>2394.78</ele>
        <time>2022-07-13T12:29:19Z</time>
      </trkpt>
      <trkpt lat="42.7535055298" lon="-0.2088453434">
        <ele>2394.30</ele>
        <time>2022-07-13T12:29:24Z</time>
      </trkpt>
      <trkpt lat="42.7535247244" lon="-0.2089320123">
        <ele>2392.86</ele>
        <time>2022-07-13T12:29:31Z</time>
      </trkpt>
      <trkpt lat="42.7535288315" lon="-0.2090653684">
        <ele>2389.97</ele>
        <time>2022-07-13T12:29:42Z</time>
      </trkpt>
      <trkpt lat="42.7535476908" lon="-0.2091292385">
        <ele>2389.01</ele>
        <time>2022-07-13T12:29:47Z</time>
      </trkpt>
      <trkpt lat="42.7535495348" lon="-0.2093205974">
        <ele>2388.05</ele>
        <time>2022-07-13T12:29:59Z</time>
      </trkpt>
      <trkpt lat="42.7535879239" lon="-0.2095188294">
        <ele>2387.09</ele>
        <time>2022-07-13T12:30:13Z</time>
      </trkpt>
      <trkpt lat="42.7536610141" lon="-0.2096609026">
        <ele>2385.65</ele>
        <time>2022-07-13T12:30:26Z</time>
      </trkpt>
      <trkpt lat="42.7536712401" lon="-0.2097110264">
        <ele>2385.65</ele>
        <time>2022-07-13T12:30:30Z</time>
      </trkpt>
      <trkpt lat="42.7537080366" lon="-0.2098503336">
        <ele>2385.17</ele>
        <time>2022-07-13T12:30:43Z</time>
      </trkpt>
      <trkpt lat="42.7537631895" lon="-0.2099559456">
        <ele>2384.21</ele>
        <time>2022-07-13T12:30:55Z</time>
      </trkpt>
      <trkpt lat="42.7537891734" lon="-0.2100801654">
        <ele>2383.73</ele>
        <time>2022-07-13T12:31:04Z</time>
      </trkpt>
      <trkpt lat="42.7537866589" lon="-0.2103343047">
        <ele>2383.73</ele>
        <time>2022-07-13T12:31:19Z</time>
      </trkpt>
      <trkpt lat="42.7538536303" lon="-0.2105446067">
        <ele>2381.80</ele>
        <time>2022-07-13T12:31:34Z</time>
      </trkpt>
      <trkpt lat="42.7538962942" lon="-0.2106009331">
        <ele>2381.32</ele>
        <time>2022-07-13T12:31:40Z</time>
      </trkpt>
      <trkpt lat="42.7539282292" lon="-0.2107601892">
        <ele>2380.36</ele>
        <time>2022-07-13T12:31:52Z</time>
      </trkpt>
      <trkpt lat="42.7539589908" lon="-0.2108704951">
        <ele>2379.40</ele>
        <time>2022-07-13T12:32:01Z</time>
      </trkpt>
      <trkpt lat="42.7539621759" lon="-0.2109923679">
        <ele>2378.92</ele>
        <time>2022-07-13T12:32:10Z</time>
      </trkpt>
      <trkpt lat="42.7539034188" lon="-0.2111793682">
        <ele>2379.40</ele>
        <time>2022-07-13T12:32:25Z</time>
      </trkpt>
      <trkpt lat="42.7538562287" lon="-0.2113087010">
        <ele>2378.92</ele>
        <time>2022-07-13T12:32:35Z</time>
      </trkpt>
      <trkpt lat="42.7537201066" lon="-0.2115685400">
        <ele>2378.92</ele>
        <time>2022-07-13T12:32:52Z</time>
      </trkpt>
      <trkpt lat="42.7536627743" lon="-0.2116086055">
        <ele>2380.36</ele>
        <time>2022-07-13T12:32:58Z</time>
      </trkpt>
      <trkpt lat="42.7536383830" lon="-0.2116223518">
        <ele>2380.84</ele>
        <time>2022-07-13T12:33:00Z</time>
      </trkpt>
      <trkpt lat="42.7535905223" lon="-0.2116438933">
        <ele>2380.84</ele>
        <time>2022-07-13T12:33:04Z</time>
      </trkpt>
      <trkpt lat="42.7534719184" lon="-0.2117715497">
        <ele>2380.36</ele>
        <time>2022-07-13T12:33:18Z</time>
      </trkpt>
      <trkpt lat="42.7534448449" lon="-0.2118358389">
        <ele>2379.40</ele>
        <time>2022-07-13T12:33:23Z</time>
      </trkpt>
      <trkpt lat="42.7533218823" lon="-0.2119710390">
        <ele>2378.44</ele>
        <time>2022-07-13T12:33:37Z</time>
      </trkpt>
      <trkpt lat="42.7531244047" lon="-0.2120441291">
        <ele>2378.44</ele>
        <time>2022-07-13T12:33:53Z</time>
      </trkpt>
      <trkpt lat="42.7530917991" lon="-0.2120608091">
        <ele>2378.44</ele>
        <time>2022-07-13T12:33:57Z</time>
      </trkpt>
      <trkpt lat="42.7530545834" lon="-0.2120545227">
        <ele>2378.44</ele>
        <time>2022-07-13T12:34:01Z</time>
      </trkpt>
      <trkpt lat="42.7530368138" lon="-0.2120387647">
        <ele>2378.44</ele>
        <time>2022-07-13T12:34:03Z</time>
      </trkpt>
      <trkpt lat="42.7529268432" lon="-0.2120248508">
        <ele>2379.88</ele>
        <time>2022-07-13T12:34:18Z</time>
      </trkpt>
      <trkpt lat="42.7529115882" lon="-0.2120272815">
        <ele>2379.88</ele>
        <time>2022-07-13T12:34:21Z</time>
      </trkpt>
      <trkpt lat="42.7528712712" lon="-0.2120339032">
        <ele>2379.88</ele>
        <time>2022-07-13T12:34:25Z</time>
      </trkpt>
      <trkpt lat="42.7527886257" lon="-0.2120862063">
        <ele>2379.88</ele>
        <time>2022-07-13T12:34:33Z</time>
      </trkpt>
      <trkpt lat="42.7527446207" lon="-0.2122286148">
        <ele>2380.36</ele>
        <time>2022-07-13T12:34:44Z</time>
      </trkpt>
      <trkpt lat="42.7527025435" lon="-0.2123107575">
        <ele>2380.36</ele>
        <time>2022-07-13T12:34:51Z</time>
      </trkpt>
      <trkpt lat="42.7526870370" lon="-0.2124972548">
        <ele>2378.44</ele>
        <time>2022-07-13T12:35:04Z</time>
      </trkpt>
      <trkpt lat="42.7526044752" lon="-0.2126093209">
        <ele>2377.00</ele>
        <time>2022-07-13T12:35:18Z</time>
      </trkpt>
      <trkpt lat="42.7526129410" lon="-0.2126648091">
        <ele>2377.48</ele>
        <time>2022-07-13T12:35:22Z</time>
      </trkpt>
      <trkpt lat="42.7526273578" lon="-0.2126931399">
        <ele>2378.44</ele>
        <time>2022-07-13T12:35:25Z</time>
      </trkpt>
      <trkpt lat="42.7526410203" lon="-0.2127011865">
        <ele>2378.92</ele>
        <time>2022-07-13T12:35:27Z</time>
      </trkpt>
      <trkpt lat="42.7526365779" lon="-0.2127063833">
        <ele>2378.92</ele>
        <time>2022-07-13T12:35:39Z</time>
      </trkpt>
      <trkpt lat="42.7526123542" lon="-0.2126683295">
        <ele>2377.48</ele>
        <time>2022-07-13T12:35:54Z</time>
      </trkpt>
      <trkpt lat="42.7526123542" lon="-0.2126612887">
        <ele>2377.48</ele>
        <time>2022-07-13T12:35:58Z</time>
      </trkpt>
      <trkpt lat="42.7526363265" lon="-0.2126358077">
        <ele>2381.80</ele>
        <time>2022-07-13T12:59:09Z</time>
      </trkpt>
      <trkpt lat="42.7526325546" lon="-0.2126318682">
        <ele>2380.36</ele>
        <time>2022-07-13T12:59:10Z</time>
      </trkpt>
      <trkpt lat="42.7526279446" lon="-0.2126307786">
        <ele>2380.36</ele>
        <time>2022-07-13T12:59:11Z</time>
      </trkpt>
      <trkpt lat="42.7526337281" lon="-0.2126033697">
        <ele>2379.88</ele>
        <time>2022-07-13T12:59:28Z</time>
      </trkpt>
      <trkpt lat="42.7527595405" lon="-0.2125448640">
        <ele>2379.88</ele>
        <time>2022-07-13T12:59:43Z</time>
      </trkpt>
      <trkpt lat="42.7528017014" lon="-0.2125580236">
        <ele>2381.32</ele>
        <time>2022-07-13T12:59:48Z</time>
      </trkpt>
      <trkpt lat="42.7528440300" lon="-0.2126744483">
        <ele>2381.80</ele>
        <time>2022-07-13T13:00:00Z</time>
      </trkpt>
      <trkpt lat="42.7528393362" lon="-0.2127108257">
        <ele>2379.88</ele>
        <time>2022-07-13T13:00:03Z</time>
      </trkpt>
      <trkpt lat="42.7528488077" lon="-0.2127299365">
        <ele>2379.40</ele>
        <time>2022-07-13T13:00:05Z</time>
      </trkpt>
      <trkpt lat="42.7529783919" lon="-0.2128071338">
        <ele>2379.40</ele>
        <time>2022-07-13T13:00:19Z</time>
      </trkpt>
      <trkpt lat="42.7531067189" lon="-0.2128909528">
        <ele>2378.44</ele>
        <time>2022-07-13T13:00:34Z</time>
      </trkpt>
      <trkpt lat="42.7531423420" lon="-0.2129197028">
        <ele>2377.00</ele>
        <time>2022-07-13T13:00:38Z</time>
      </trkpt>
      <trkpt lat="42.7532501332" lon="-0.2130126581">
        <ele>2374.59</ele>
        <time>2022-07-13T13:00:52Z</time>
      </trkpt>
      <trkpt lat="42.7532813977" lon="-0.2131526358">
        <ele>2371.71</ele>
        <time>2022-07-13T13:01:06Z</time>
      </trkpt>
      <trkpt lat="42.7534025162" lon="-0.2132078726">
        <ele>2369.79</ele>
        <time>2022-07-13T13:01:21Z</time>
      </trkpt>
      <trkpt lat="42.7534031868" lon="-0.2132201940">
        <ele>2368.83</ele>
        <time>2022-07-13T13:01:22Z</time>
      </trkpt>
      <trkpt lat="42.7533111535" lon="-0.2133757621">
        <ele>2366.42</ele>
        <time>2022-07-13T13:01:37Z</time>
      </trkpt>
      <trkpt lat="42.7534531429" lon="-0.2133822162">
        <ele>2363.54</ele>
        <time>2022-07-13T13:01:54Z</time>
      </trkpt>
      <trkpt lat="42.7535357047" lon="-0.2134635206">
        <ele>2360.65</ele>
        <time>2022-07-13T13:02:08Z</time>
      </trkpt>
      <trkpt lat="42.7535419073" lon="-0.2134675439">
        <ele>2360.65</ele>
        <time>2022-07-13T13:02:09Z</time>
      </trkpt>
      <trkpt lat="42.7536594216" lon="-0.2135592420">
        <ele>2360.17</ele>
        <time>2022-07-13T13:02:24Z</time>
      </trkpt>
      <trkpt lat="42.7537027560" lon="-0.2136184182">
        <ele>2360.17</ele>
        <time>2022-07-13T13:02:31Z</time>
      </trkpt>
      <trkpt lat="42.7537587471" lon="-0.2136577293">
        <ele>2358.73</ele>
        <time>2022-07-13T13:02:39Z</time>
      </trkpt>
      <trkpt lat="42.7537891734" lon="-0.2136905026">
        <ele>2358.25</ele>
        <time>2022-07-13T13:02:43Z</time>
      </trkpt>
      <trkpt lat="42.7538388781" lon="-0.2138210088">
        <ele>2356.33</ele>
        <time>2022-07-13T13:02:57Z</time>
      </trkpt>
      <trkpt lat="42.7538724057" lon="-0.2138525248">
        <ele>2354.89</ele>
        <time>2022-07-13T13:03:02Z</time>
      </trkpt>
      <trkpt lat="42.7540092822" lon="-0.2139384393">
        <ele>2352.48</ele>
        <time>2022-07-13T13:03:19Z</time>
      </trkpt>
      <trkpt lat="42.7540872339" lon="-0.2140047401">
        <ele>2350.56</ele>
        <time>2022-07-13T13:03:29Z</time>
      </trkpt>
      <trkpt lat="42.7541788481" lon="-0.2140726335">
        <ele>2348.64</ele>
        <time>2022-07-13T13:03:41Z</time>
      </trkpt>
      <trkpt lat="42.7542601526" lon="-0.2141294628">
        <ele>2346.23</ele>
        <time>2022-07-13T13:03:54Z</time>
      </trkpt>
      <trkpt lat="42.7543639205" lon="-0.2142134495">
        <ele>2344.79</ele>
        <time>2022-07-13T13:04:06Z</time>
      </trkpt>
      <trkpt lat="42.7544644196" lon="-0.2142806724">
        <ele>2343.35</ele>
        <time>2022-07-13T13:04:18Z</time>
      </trkpt>
      <trkpt lat="42.7545437962" lon="-0.2143361606">
        <ele>2341.43</ele>
        <time>2022-07-13T13:04:28Z</time>
      </trkpt>
      <trkpt lat="42.7546664234" lon="-0.2143805008">
        <ele>2339.02</ele>
        <time>2022-07-13T13:04:42Z</time>
      </trkpt>
      <trkpt lat="42.7547709458" lon="-0.2144377492">
        <ele>2337.58</ele>
        <time>2022-07-13T13:04:54Z</time>
      </trkpt>
      <trkpt lat="42.7548707742" lon="-0.2145048883">
        <ele>2334.70</ele>
        <time>2022-07-13T13:05:08Z</time>
      </trkpt>
      <trkpt lat="42.7548948303" lon="-0.2145148627">
        <ele>2333.74</ele>
        <time>2022-07-13T13:05:11Z</time>
      </trkpt>
      <trkpt lat="42.7550177090" lon="-0.2146352269">
        <ele>2331.33</ele>
        <time>2022-07-13T13:05:28Z</time>
      </trkpt>
      <trkpt lat="42.7551126759" lon="-0.2146933135">
        <ele>2328.45</ele>
        <time>2022-07-13T13:05:40Z</time>
      </trkpt>
      <trkpt lat="42.7551767975" lon="-0.2147042938">
        <ele>2327.49</ele>
        <time>2022-07-13T13:05:47Z</time>
      </trkpt>
      <trkpt lat="42.7553172782" lon="-0.2147417609">
        <ele>2325.57</ele>
        <time>2022-07-13T13:06:01Z</time>
      </trkpt>
      <trkpt lat="42.7554449346" lon="-0.2147825807">
        <ele>2323.64</ele>
        <time>2022-07-13T13:06:14Z</time>
      </trkpt>
      <trkpt lat="42.7554601897" lon="-0.2147941478">
        <ele>2323.64</ele>
        <time>2022-07-13T13:06:16Z</time>
      </trkpt>
      <trkpt lat="42.7554882690" lon="-0.2148146834">
        <ele>2323.16</ele>
        <time>2022-07-13T13:06:19Z</time>
      </trkpt>
      <trkpt lat="42.7555682324" lon="-0.2148793079">
        <ele>2320.76</ele>
        <time>2022-07-13T13:06:32Z</time>
      </trkpt>
      <trkpt lat="42.7555647120" lon="-0.2148886118">
        <ele>2320.28</ele>
        <time>2022-07-13T13:06:33Z</time>
      </trkpt>
      <trkpt lat="42.7555388119" lon="-0.2149126679">
        <ele>2319.32</ele>
        <time>2022-07-13T13:06:36Z</time>
      </trkpt>
      <trkpt lat="42.7553899493" lon="-0.2149800584">
        <ele>2317.40</ele>
        <time>2022-07-13T13:06:52Z</time>
      </trkpt>
      <trkpt lat="42.7554372232" lon="-0.2150299307">
        <ele>2315.95</ele>
        <time>2022-07-13T13:07:01Z</time>
      </trkpt>
      <trkpt lat="42.7555485349" lon="-0.2151010931">
        <ele>2313.07</ele>
        <time>2022-07-13T13:07:15Z</time>
      </trkpt>
      <trkpt lat="42.7555656340" lon="-0.2151020989">
        <ele>2312.59</ele>
        <time>2022-07-13T13:07:17Z</time>
      </trkpt>
      <trkpt lat="42.7557590045" lon="-0.2150632069">
        <ele>2311.15</ele>
        <time>2022-07-13T13:07:34Z</time>
      </trkpt>
      <trkpt lat="42.7558911033" lon="-0.2150357142">
        <ele>2309.22</ele>
        <time>2022-07-13T13:07:48Z</time>
      </trkpt>
      <trkpt lat="42.7560351882" lon="-0.2150589321">
        <ele>2307.78</ele>
        <time>2022-07-13T13:08:04Z</time>
      </trkpt>
      <trkpt lat="42.7561278082" lon="-0.2151222993">
        <ele>2307.30</ele>
        <time>2022-07-13T13:08:15Z</time>
      </trkpt>
      <trkpt lat="42.7562324144" lon="-0.2152674738">
        <ele>2308.74</ele>
        <time>2022-07-13T13:08:30Z</time>
      </trkpt>
      <trkpt lat="42.7562387008" lon="-0.2153070364">
        <ele>2307.30</ele>
        <time>2022-07-13T13:08:35Z</time>
      </trkpt>
      <trkpt lat="42.7562296484" lon="-0.2153289132">
        <ele>2306.82</ele>
        <time>2022-07-13T13:08:57Z</time>
      </trkpt>
      <trkpt lat="42.7562089451" lon="-0.2153644525">
        <ele>2306.34</ele>
        <time>2022-07-13T13:09:20Z</time>
      </trkpt>
      <trkpt lat="42.7562231105" lon="-0.2153482754">
        <ele>2306.34</ele>
        <time>2022-07-13T13:09:51Z</time>
      </trkpt>
      <trkpt lat="42.7562066820" lon="-0.2153346129">
        <ele>2305.86</ele>
        <time>2022-07-13T13:10:24Z</time>
      </trkpt>
      <trkpt lat="42.7562344261" lon="-0.2153321821">
        <ele>2305.86</ele>
        <time>2022-07-13T13:10:50Z</time>
      </trkpt>
      <trkpt lat="42.7562357672" lon="-0.2152815554">
        <ele>2306.34</ele>
        <time>2022-07-13T13:11:04Z</time>
      </trkpt>
      <trkpt lat="42.7562014014" lon="-0.2153046895">
        <ele>2304.90</ele>
        <time>2022-07-13T13:11:37Z</time>
      </trkpt>
      <trkpt lat="42.7562030777" lon="-0.2152772807">
        <ele>2304.90</ele>
        <time>2022-07-13T13:12:15Z</time>
      </trkpt>
      <trkpt lat="42.7562015690" lon="-0.2153124847">
        <ele>2304.90</ele>
        <time>2022-07-13T13:12:45Z</time>
      </trkpt>
      <trkpt lat="42.7562115435" lon="-0.2153537236">
        <ele>2304.90</ele>
        <time>2022-07-13T13:13:30Z</time>
      </trkpt>
      <trkpt lat="42.7561946120" lon="-0.2153432462">
        <ele>2304.90</ele>
        <time>2022-07-13T13:14:10Z</time>
      </trkpt>
      <trkpt lat="42.7562039997" lon="-0.2153589204">
        <ele>2304.42</ele>
        <time>2022-07-13T13:14:58Z</time>
      </trkpt>
      <trkpt lat="42.7562096994" lon="-0.2153723314">
        <ele>2304.42</ele>
        <time>2022-07-13T13:15:30Z</time>
      </trkpt>
      <trkpt lat="42.7562108729" lon="-0.2153657936">
        <ele>2304.42</ele>
        <time>2022-07-13T13:15:56Z</time>
      </trkpt>
      <trkpt lat="42.7561995573" lon="-0.2153594233">
        <ele>2304.42</ele>
        <time>2022-07-13T13:16:37Z</time>
      </trkpt>
      <trkpt lat="42.7561953664" lon="-0.2153479401">
        <ele>2304.42</ele>
        <time>2022-07-13T13:16:59Z</time>
      </trkpt>
      <trkpt lat="42.7562126331" lon="-0.2153521311">
        <ele>2305.86</ele>
        <time>2022-07-13T13:17:09Z</time>
      </trkpt>
      <trkpt lat="42.7562241163" lon="-0.2153589204">
        <ele>2304.42</ele>
        <time>2022-07-13T13:17:14Z</time>
      </trkpt>
      <trkpt lat="42.7562575601" lon="-0.2153383009">
        <ele>2305.38</ele>
        <time>2022-07-13T13:17:34Z</time>
      </trkpt>
      <trkpt lat="42.7562594041" lon="-0.2153958846">
        <ele>2305.38</ele>
        <time>2022-07-13T13:17:52Z</time>
      </trkpt>
      <trkpt lat="42.7563699614" lon="-0.2155159973">
        <ele>2302.49</ele>
        <time>2022-07-13T13:18:07Z</time>
      </trkpt>
      <trkpt lat="42.7564417105" lon="-0.2156329248">
        <ele>2301.05</ele>
        <time>2022-07-13T13:18:21Z</time>
      </trkpt>
      <trkpt lat="42.7564474940" lon="-0.2156488504">
        <ele>2301.05</ele>
        <time>2022-07-13T13:18:23Z</time>
      </trkpt>
      <trkpt lat="42.7564792614" lon="-0.2157004829">
        <ele>2301.05</ele>
        <time>2022-07-13T13:18:28Z</time>
      </trkpt>
      <trkpt lat="42.7565500047" lon="-0.2158419695">
        <ele>2298.17</ele>
        <time>2022-07-13T13:18:42Z</time>
      </trkpt>
      <trkpt lat="42.7565792575" lon="-0.2158949431">
        <ele>2297.69</ele>
        <time>2022-07-13T13:18:47Z</time>
      </trkpt>
      <trkpt lat="42.7566392720" lon="-0.2160156425">
        <ele>2297.21</ele>
        <time>2022-07-13T13:19:00Z</time>
      </trkpt>
      <trkpt lat="42.7566974424" lon="-0.2161612362">
        <ele>2295.77</ele>
        <time>2022-07-13T13:19:12Z</time>
      </trkpt>
      <trkpt lat="42.7567642462" lon="-0.2162629087">
        <ele>2295.28</ele>
        <time>2022-07-13T13:19:24Z</time>
      </trkpt>
      <trkpt lat="42.7567240968" lon="-0.2162691951">
        <ele>2293.36</ele>
        <time>2022-07-13T13:19:35Z</time>
      </trkpt>
      <trkpt lat="42.7566265315" lon="-0.2161833644">
        <ele>2290.96</ele>
        <time>2022-07-13T13:19:50Z</time>
      </trkpt>
      <trkpt lat="42.7566590533" lon="-0.2163176425">
        <ele>2288.56</ele>
        <time>2022-07-13T13:20:03Z</time>
      </trkpt>
      <trkpt lat="42.7566588856" lon="-0.2163957618">
        <ele>2286.63</ele>
        <time>2022-07-13T13:20:14Z</time>
      </trkpt>
      <trkpt lat="42.7565510105" lon="-0.2162960172">
        <ele>2283.75</ele>
        <time>2022-07-13T13:20:28Z</time>
      </trkpt>
      <trkpt lat="42.7565650083" lon="-0.2163999528">
        <ele>2281.35</ele>
        <time>2022-07-13T13:20:40Z</time>
      </trkpt>
      <trkpt lat="42.7566006314" lon="-0.2164540160">
        <ele>2280.38</ele>
        <time>2022-07-13T13:20:55Z</time>
      </trkpt>
      <trkpt lat="42.7565860469" lon="-0.2164870407">
        <ele>2279.90</ele>
        <time>2022-07-13T13:21:13Z</time>
      </trkpt>
      <trkpt lat="42.7566364221" lon="-0.2165842708">
        <ele>2277.98</ele>
        <time>2022-07-13T13:21:25Z</time>
      </trkpt>
      <trkpt lat="42.7566464804" lon="-0.2167524118">
        <ele>2277.98</ele>
        <time>2022-07-13T13:21:39Z</time>
      </trkpt>
      <trkpt lat="42.7566409484" lon="-0.2169131767">
        <ele>2276.06</ele>
        <time>2022-07-13T13:21:53Z</time>
      </trkpt>
      <trkpt lat="42.7565867174" lon="-0.2169421781">
        <ele>2272.69</ele>
        <time>2022-07-13T13:22:03Z</time>
      </trkpt>
      <trkpt lat="42.7565218415" lon="-0.2169160265">
        <ele>2270.29</ele>
        <time>2022-07-13T13:22:15Z</time>
      </trkpt>
      <trkpt lat="42.7564794291" lon="-0.2169283479">
        <ele>2268.37</ele>
        <time>2022-07-13T13:22:27Z</time>
      </trkpt>
      <trkpt lat="42.7564464882" lon="-0.2169183735">
        <ele>2266.45</ele>
        <time>2022-07-13T13:22:40Z</time>
      </trkpt>
      <trkpt lat="42.7564206719" lon="-0.2170213033">
        <ele>2264.04</ele>
        <time>2022-07-13T13:22:53Z</time>
      </trkpt>
      <trkpt lat="42.7563734818" lon="-0.2170451079">
        <ele>2260.68</ele>
        <time>2022-07-13T13:23:00Z</time>
      </trkpt>
      <trkpt lat="42.7563399542" lon="-0.2170546632">
        <ele>2258.75</ele>
        <time>2022-07-13T13:23:12Z</time>
      </trkpt>
      <trkpt lat="42.7563248668" lon="-0.2171620354">
        <ele>2255.39</ele>
        <time>2022-07-13T13:23:24Z</time>
      </trkpt>
      <trkpt lat="42.7563194185" lon="-0.2171501331">
        <ele>2255.39</ele>
        <time>2022-07-13T13:23:25Z</time>
      </trkpt>
      <trkpt lat="42.7562283073" lon="-0.2170467842">
        <ele>2252.03</ele>
        <time>2022-07-13T13:23:39Z</time>
      </trkpt>
      <trkpt lat="42.7562235296" lon="-0.2171605267">
        <ele>2250.58</ele>
        <time>2022-07-13T13:23:51Z</time>
      </trkpt>
      <trkpt lat="42.7562923450" lon="-0.2173313498">
        <ele>2248.18</ele>
        <time>2022-07-13T13:24:06Z</time>
      </trkpt>
      <trkpt lat="42.7563220169" lon="-0.2175065316">
        <ele>2247.22</ele>
        <time>2022-07-13T13:24:20Z</time>
      </trkpt>
      <trkpt lat="42.7563208435" lon="-0.2175894286">
        <ele>2243.37</ele>
        <time>2022-07-13T13:24:30Z</time>
      </trkpt>
      <trkpt lat="42.7563096117" lon="-0.2175776102">
        <ele>2243.85</ele>
        <time>2022-07-13T13:24:31Z</time>
      </trkpt>
      <trkpt lat="42.7562517766" lon="-0.2175361197">
        <ele>2242.89</ele>
        <time>2022-07-13T13:24:37Z</time>
      </trkpt>
      <trkpt lat="42.7561777644" lon="-0.2174769435">
        <ele>2239.53</ele>
        <time>2022-07-13T13:24:48Z</time>
      </trkpt>
      <trkpt lat="42.7562071010" lon="-0.2176213637">
        <ele>2238.09</ele>
        <time>2022-07-13T13:25:03Z</time>
      </trkpt>
      <trkpt lat="42.7562231943" lon="-0.2176513709">
        <ele>2237.61</ele>
        <time>2022-07-13T13:25:07Z</time>
      </trkpt>
      <trkpt lat="42.7562896628" lon="-0.2178334258">
        <ele>2235.20</ele>
        <time>2022-07-13T13:25:23Z</time>
      </trkpt>
      <trkpt lat="42.7562770899" lon="-0.2178872377">
        <ele>2232.32</ele>
        <time>2022-07-13T13:25:35Z</time>
      </trkpt>
      <trkpt lat="42.7562757488" lon="-0.2179277223">
        <ele>2230.40</ele>
        <time>2022-07-13T13:25:49Z</time>
      </trkpt>
      <trkpt lat="42.7562679537" lon="-0.2179878205">
        <ele>2228.47</ele>
        <time>2022-07-13T13:25:58Z</time>
      </trkpt>
      <trkpt lat="42.7562808618" lon="-0.2180703823">
        <ele>2226.07</ele>
        <time>2022-07-13T13:26:11Z</time>
      </trkpt>
      <trkpt lat="42.7562741563" lon="-0.2181141358">
        <ele>2224.63</ele>
        <time>2022-07-13T13:26:15Z</time>
      </trkpt>
      <trkpt lat="42.7561827935" lon="-0.2180799376">
        <ele>2223.19</ele>
        <time>2022-07-13T13:26:25Z</time>
      </trkpt>
      <trkpt lat="42.7560216095" lon="-0.2180735674">
        <ele>2221.26</ele>
        <time>2022-07-13T13:26:40Z</time>
      </trkpt>
      <trkpt lat="42.7558918577" lon="-0.2180613298">
        <ele>2219.34</ele>
        <time>2022-07-13T13:26:53Z</time>
      </trkpt>
      <trkpt lat="42.7559043467" lon="-0.2180825360">
        <ele>2219.34</ele>
        <time>2022-07-13T13:26:57Z</time>
      </trkpt>
      <trkpt lat="42.7560384572" lon="-0.2181927580">
        <ele>2217.42</ele>
        <time>2022-07-13T13:27:12Z</time>
      </trkpt>
      <trkpt lat="42.7560967114" lon="-0.2182508446">
        <ele>2215.50</ele>
        <time>2022-07-13T13:27:19Z</time>
      </trkpt>
      <trkpt lat="42.7561500203" lon="-0.2184559498">
        <ele>2214.05</ele>
        <time>2022-07-13T13:27:34Z</time>
      </trkpt>
      <trkpt lat="42.7561506070" lon="-0.2184961829">
        <ele>2214.05</ele>
        <time>2022-07-13T13:27:37Z</time>
      </trkpt>
      <trkpt lat="42.7561413869" lon="-0.2185671777">
        <ele>2214.05</ele>
        <time>2022-07-13T13:27:42Z</time>
      </trkpt>
      <trkpt lat="42.7561272215" lon="-0.2186122723">
        <ele>2214.05</ele>
        <time>2022-07-13T13:27:45Z</time>
      </trkpt>
      <trkpt lat="42.7560822945" lon="-0.2187886275">
        <ele>2212.61</ele>
        <time>2022-07-13T13:27:59Z</time>
      </trkpt>
      <trkpt lat="42.7560746670" lon="-0.2188067324">
        <ele>2210.21</ele>
        <time>2022-07-13T13:28:01Z</time>
      </trkpt>
      <trkpt lat="42.7560383733" lon="-0.2189130988">
        <ele>2210.21</ele>
        <time>2022-07-13T13:28:09Z</time>
      </trkpt>
      <trkpt lat="42.7559716534" lon="-0.2191421762">
        <ele>2210.21</ele>
        <time>2022-07-13T13:28:25Z</time>
      </trkpt>
      <trkpt lat="42.7559601702" lon="-0.2192922961">
        <ele>2208.29</ele>
        <time>2022-07-13T13:28:40Z</time>
      </trkpt>
      <trkpt lat="42.7559407242" lon="-0.2193097305">
        <ele>2210.21</ele>
        <time>2022-07-13T13:28:52Z</time>
      </trkpt>
      <trkpt lat="42.7559203561" lon="-0.2192997560">
        <ele>2208.29</ele>
        <time>2022-07-13T13:29:03Z</time>
      </trkpt>
      <trkpt lat="42.7559211105" lon="-0.2193127479">
        <ele>2208.29</ele>
        <time>2022-07-13T13:29:18Z</time>
      </trkpt>
      <trkpt lat="42.7559223678" lon="-0.2193410788">
        <ele>2207.32</ele>
        <time>2022-07-13T13:29:41Z</time>
      </trkpt>
      <trkpt lat="42.7559537161" lon="-0.2193568368">
        <ele>2208.77</ele>
        <time>2022-07-13T13:30:03Z</time>
      </trkpt>
      <trkpt lat="42.7559596673" lon="-0.2193603572">
        <ele>2208.77</ele>
        <time>2022-07-13T13:30:04Z</time>
      </trkpt>
      <trkpt lat="42.7559857350" lon="-0.2194098104">
        <ele>2207.32</ele>
        <time>2022-07-13T13:30:10Z</time>
      </trkpt>
      <trkpt lat="42.7560542990" lon="-0.2194058709">
        <ele>2206.36</ele>
        <time>2022-07-13T13:30:24Z</time>
      </trkpt>
      <trkpt lat="42.7561711427" lon="-0.2194513846">
        <ele>2205.40</ele>
        <time>2022-07-13T13:30:38Z</time>
      </trkpt>
      <trkpt lat="42.7562734019" lon="-0.2195070405">
        <ele>2205.40</ele>
        <time>2022-07-13T13:30:48Z</time>
      </trkpt>
      <trkpt lat="42.7563302312" lon="-0.2195321023">
        <ele>2204.92</ele>
        <time>2022-07-13T13:30:53Z</time>
      </trkpt>
      <trkpt lat="42.7564650960" lon="-0.2196220402">
        <ele>2204.44</ele>
        <time>2022-07-13T13:31:09Z</time>
      </trkpt>
      <trkpt lat="42.7565433830" lon="-0.2196372114">
        <ele>2203.48</ele>
        <time>2022-07-13T13:31:21Z</time>
      </trkpt>
      <trkpt lat="42.7566801757" lon="-0.2195272408">
        <ele>2203.48</ele>
        <time>2022-07-13T13:31:35Z</time>
      </trkpt>
      <trkpt lat="42.7567354124" lon="-0.2195305936">
        <ele>2203.48</ele>
        <time>2022-07-13T13:31:41Z</time>
      </trkpt>
      <trkpt lat="42.7568885498" lon="-0.2196545620">
        <ele>2203.00</ele>
        <time>2022-07-13T13:31:55Z</time>
      </trkpt>
      <trkpt lat="42.7570290305" lon="-0.2198151592">
        <ele>2203.00</ele>
        <time>2022-07-13T13:32:10Z</time>
      </trkpt>
      <trkpt lat="42.7571510710" lon="-0.2199325059">
        <ele>2202.04</ele>
        <time>2022-07-13T13:32:23Z</time>
      </trkpt>
      <trkpt lat="42.7572553419" lon="-0.2200635150">
        <ele>2201.08</ele>
        <time>2022-07-13T13:32:36Z</time>
      </trkpt>
      <trkpt lat="42.7573138475" lon="-0.2201293968">
        <ele>2201.08</ele>
        <time>2022-07-13T13:32:44Z</time>
      </trkpt>
      <trkpt lat="42.7573444415" lon="-0.2201444004">
        <ele>2202.52</ele>
        <time>2022-07-13T13:32:47Z</time>
      </trkpt>
      <trkpt lat="42.7574449405" lon="-0.2201859746">
        <ele>2202.52</ele>
        <time>2022-07-13T13:33:00Z</time>
      </trkpt>
      <trkpt lat="42.7574771270" lon="-0.2201688755">
        <ele>2202.52</ele>
        <time>2022-07-13T13:33:05Z</time>
      </trkpt>
      <trkpt lat="42.7576223854" lon="-0.2201899979">
        <ele>2201.08</ele>
        <time>2022-07-13T13:33:18Z</time>
      </trkpt>
      <trkpt lat="42.7577248123" lon="-0.2202680334">
        <ele>2202.52</ele>
        <time>2022-07-13T13:33:28Z</time>
      </trkpt>
      <trkpt lat="42.7578305919" lon="-0.2203117870">
        <ele>2202.52</ele>
        <time>2022-07-13T13:33:39Z</time>
      </trkpt>
      <trkpt lat="42.7579488605" lon="-0.2203609888">
        <ele>2203.00</ele>
        <time>2022-07-13T13:33:52Z</time>
      </trkpt>
      <trkpt lat="42.7580950409" lon="-0.2203766629">
        <ele>2201.08</ele>
        <time>2022-07-13T13:34:06Z</time>
      </trkpt>
      <trkpt lat="42.7582471725" lon="-0.2203762438">
        <ele>2201.08</ele>
        <time>2022-07-13T13:34:21Z</time>
      </trkpt>
      <trkpt lat="42.7583373617" lon="-0.2203976177">
        <ele>2200.59</ele>
        <time>2022-07-13T13:34:32Z</time>
      </trkpt>
      <trkpt lat="42.7584203426" lon="-0.2204007190">
        <ele>2200.59</ele>
        <time>2022-07-13T13:34:40Z</time>
      </trkpt>
      <trkpt lat="42.7585869748" lon="-0.2203484997">
        <ele>2200.11</ele>
        <time>2022-07-13T13:34:55Z</time>
      </trkpt>
      <trkpt lat="42.7586956881" lon="-0.2203438058">
        <ele>2200.11</ele>
        <time>2022-07-13T13:35:09Z</time>
      </trkpt>
      <trkpt lat="42.7587899845" lon="-0.2203209233">
        <ele>2199.63</ele>
        <time>2022-07-13T13:35:24Z</time>
      </trkpt>
      <trkpt lat="42.7588826884" lon="-0.2203073446">
        <ele>2199.63</ele>
        <time>2022-07-13T13:35:33Z</time>
      </trkpt>
      <trkpt lat="42.7589040622" lon="-0.2203088533">
        <ele>2201.08</ele>
        <time>2022-07-13T13:35:35Z</time>
      </trkpt>
      <trkpt lat="42.7589252684" lon="-0.2203109488">
        <ele>2201.08</ele>
        <time>2022-07-13T13:35:37Z</time>
      </trkpt>
      <trkpt lat="42.7590198163" lon="-0.2201710548">
        <ele>2201.08</ele>
        <time>2022-07-13T13:35:50Z</time>
      </trkpt>
      <trkpt lat="42.7590827644" lon="-0.2200643532">
        <ele>2200.11</ele>
        <time>2022-07-13T13:36:02Z</time>
      </trkpt>
      <trkpt lat="42.7590874583" lon="-0.2200520318">
        <ele>2200.11</ele>
        <time>2022-07-13T13:36:03Z</time>
      </trkpt>
      <trkpt lat="42.7591032162" lon="-0.2200280596">
        <ele>2200.11</ele>
        <time>2022-07-13T13:36:05Z</time>
      </trkpt>
      <trkpt lat="42.7591991890" lon="-0.2198773529">
        <ele>2199.63</ele>
        <time>2022-07-13T13:36:18Z</time>
      </trkpt>
      <trkpt lat="42.7592236642" lon="-0.2198533807">
        <ele>2199.63</ele>
        <time>2022-07-13T13:36:21Z</time>
      </trkpt>
      <trkpt lat="42.7592882048" lon="-0.2198335994">
        <ele>2199.63</ele>
        <time>2022-07-13T13:36:28Z</time>
      </trkpt>
      <trkpt lat="42.7594092395" lon="-0.2197999042">
        <ele>2199.63</ele>
        <time>2022-07-13T13:36:41Z</time>
      </trkpt>
      <trkpt lat="42.7594197169" lon="-0.2198030893">
        <ele>2199.63</ele>
        <time>2022-07-13T13:36:42Z</time>
      </trkpt>
      <trkpt lat="42.7594513167" lon="-0.2198223677">
        <ele>2199.63</ele>
        <time>2022-07-13T13:36:45Z</time>
      </trkpt>
      <trkpt lat="42.7594830841" lon="-0.2198082861">
        <ele>2200.59</ele>
        <time>2022-07-13T13:36:49Z</time>
      </trkpt>
      <trkpt lat="42.7595747821" lon="-0.2197696455">
        <ele>2199.63</ele>
        <time>2022-07-13T13:37:00Z</time>
      </trkpt>
      <trkpt lat="42.7596690785" lon="-0.2197202761">
        <ele>2199.15</ele>
        <time>2022-07-13T13:37:13Z</time>
      </trkpt>
      <trkpt lat="42.7597591002" lon="-0.2197196893">
        <ele>2198.67</ele>
        <time>2022-07-13T13:37:23Z</time>
      </trkpt>
      <trkpt lat="42.7598027699" lon="-0.2197316755">
        <ele>2198.67</ele>
        <time>2022-07-13T13:37:27Z</time>
      </trkpt>
      <trkpt lat="42.7598190308" lon="-0.2197548095">
        <ele>2200.11</ele>
        <time>2022-07-13T13:37:29Z</time>
      </trkpt>
      <trkpt lat="42.7598641254" lon="-0.2197792009">
        <ele>2198.67</ele>
        <time>2022-07-13T13:37:35Z</time>
      </trkpt>
      <trkpt lat="42.7599999122" lon="-0.2197868284">
        <ele>2198.67</ele>
        <time>2022-07-13T13:37:48Z</time>
      </trkpt>
      <trkpt lat="42.7601151634" lon="-0.2198334318">
        <ele>2198.67</ele>
        <time>2022-07-13T13:37:59Z</time>
      </trkpt>
      <trkpt lat="42.7601396386" lon="-0.2198380418">
        <ele>2198.67</ele>
        <time>2022-07-13T13:38:01Z</time>
      </trkpt>
      <trkpt lat="42.7602101304" lon="-0.2197974734">
        <ele>2198.67</ele>
        <time>2022-07-13T13:38:08Z</time>
      </trkpt>
      <trkpt lat="42.7603621781" lon="-0.2197902650">
        <ele>2198.67</ele>
        <time>2022-07-13T13:38:21Z</time>
      </trkpt>
      <trkpt lat="42.7605251223" lon="-0.2197726630">
        <ele>2197.71</ele>
        <time>2022-07-13T13:38:37Z</time>
      </trkpt>
      <trkpt lat="42.7606459893" lon="-0.2197518758">
        <ele>2197.71</ele>
        <time>2022-07-13T13:38:50Z</time>
      </trkpt>
      <trkpt lat="42.7607505117" lon="-0.2197582461">
        <ele>2199.15</ele>
        <time>2022-07-13T13:39:01Z</time>
      </trkpt>
      <trkpt lat="42.7608876396" lon="-0.2197559830">
        <ele>2199.15</ele>
        <time>2022-07-13T13:39:14Z</time>
      </trkpt>
      <trkpt lat="42.7609203290" lon="-0.2197518758">
        <ele>2197.71</ele>
        <time>2022-07-13T13:39:17Z</time>
      </trkpt>
      <trkpt lat="42.7609831095" lon="-0.2197389677">
        <ele>2196.75</ele>
        <time>2022-07-13T13:39:30Z</time>
      </trkpt>
      <trkpt lat="42.7611274458" lon="-0.2197614312">
        <ele>2196.75</ele>
        <time>2022-07-13T13:39:45Z</time>
      </trkpt>
      <trkpt lat="42.7612444572" lon="-0.2197474334">
        <ele>2196.27</ele>
        <time>2022-07-13T13:39:57Z</time>
      </trkpt>
      <trkpt lat="42.7613234986" lon="-0.2197463438">
        <ele>2196.27</ele>
        <time>2022-07-13T13:40:04Z</time>
      </trkpt>
      <trkpt lat="42.7615138516" lon="-0.2196671348">
        <ele>2196.27</ele>
        <time>2022-07-13T13:40:20Z</time>
      </trkpt>
      <trkpt lat="42.7615693398" lon="-0.2196443360">
        <ele>2196.27</ele>
        <time>2022-07-13T13:40:25Z</time>
      </trkpt>
      <trkpt lat="42.7616144344" lon="-0.2196418215">
        <ele>2196.27</ele>
        <time>2022-07-13T13:40:29Z</time>
      </trkpt>
      <trkpt lat="42.7616401669" lon="-0.2196355350">
        <ele>2197.71</ele>
        <time>2022-07-13T13:40:31Z</time>
      </trkpt>
      <trkpt lat="42.7616619598" lon="-0.2196276560">
        <ele>2197.71</ele>
        <time>2022-07-13T13:40:33Z</time>
      </trkpt>
      <trkpt lat="42.7617711760" lon="-0.2197505347">
        <ele>2197.71</ele>
        <time>2022-07-13T13:40:46Z</time>
      </trkpt>
      <trkpt lat="42.7618679032" lon="-0.2198308334">
        <ele>2197.71</ele>
        <time>2022-07-13T13:41:00Z</time>
      </trkpt>
      <trkpt lat="42.7618809789" lon="-0.2198148239">
        <ele>2196.27</ele>
        <time>2022-07-13T13:41:03Z</time>
      </trkpt>
      <trkpt lat="42.7620135807" lon="-0.2197377943">
        <ele>2196.27</ele>
        <time>2022-07-13T13:41:18Z</time>
      </trkpt>
      <trkpt lat="42.7620304283" lon="-0.2197388001">
        <ele>2196.27</ele>
        <time>2022-07-13T13:41:20Z</time>
      </trkpt>
      <trkpt lat="42.7621524688" lon="-0.2197553124">
        <ele>2196.27</ele>
        <time>2022-07-13T13:41:30Z</time>
      </trkpt>
      <trkpt lat="42.7622978110" lon="-0.2198758442">
        <ele>2196.27</ele>
        <time>2022-07-13T13:41:45Z</time>
      </trkpt>
      <trkpt lat="42.7623556461" lon="-0.2198837232">
        <ele>2197.23</ele>
        <time>2022-07-13T13:41:51Z</time>
      </trkpt>
      <trkpt lat="42.7624200191" lon="-0.2199231181">
        <ele>2196.27</ele>
        <time>2022-07-13T13:41:57Z</time>
      </trkpt>
      <trkpt lat="42.7624709811" lon="-0.2200059313">
        <ele>2195.31</ele>
        <time>2022-07-13T13:42:09Z</time>
      </trkpt>
      <trkpt lat="42.7625084482" lon="-0.2200051770">
        <ele>2194.83</ele>
        <time>2022-07-13T13:42:14Z</time>
      </trkpt>
      <trkpt lat="42.7625638526" lon="-0.2201258764">
        <ele>2196.27</ele>
        <time>2022-07-13T13:42:27Z</time>
      </trkpt>
      <trkpt lat="42.7626560535" lon="-0.2202251181">
        <ele>2196.27</ele>
        <time>2022-07-13T13:42:40Z</time>
      </trkpt>
      <trkpt lat="42.7627337538" lon="-0.2202270459">
        <ele>2194.83</ele>
        <time>2022-07-13T13:42:49Z</time>
      </trkpt>
      <trkpt lat="42.7628033236" lon="-0.2202283032">
        <ele>2193.87</ele>
        <time>2022-07-13T13:43:02Z</time>
      </trkpt>
      <trkpt lat="42.7628180757" lon="-0.2202568017">
        <ele>2193.87</ele>
        <time>2022-07-13T13:43:24Z</time>
      </trkpt>
      <trkpt lat="42.7628236916" lon="-0.2202732302">
        <ele>2193.87</ele>
        <time>2022-07-13T13:43:39Z</time>
      </trkpt>
      <trkpt lat="42.7629345842" lon="-0.2202224359">
        <ele>2193.87</ele>
        <time>2022-07-13T13:43:53Z</time>
      </trkpt>
      <trkpt lat="42.7630087640" lon="-0.2203188278">
        <ele>2192.90</ele>
        <time>2022-07-13T13:44:11Z</time>
      </trkpt>
      <trkpt lat="42.7630301379" lon="-0.2202871442">
        <ele>2192.42</ele>
        <time>2022-07-13T13:44:22Z</time>
      </trkpt>
      <trkpt lat="42.7633599658" lon="-0.2206224203">
        <ele>2196.75</ele>
        <time>2022-07-13T13:46:27Z</time>
      </trkpt>
      <trkpt lat="42.7634096704" lon="-0.2205209155">
        <ele>2196.75</ele>
        <time>2022-07-13T13:46:40Z</time>
      </trkpt>
      <trkpt lat="42.7634338941" lon="-0.2204687800">
        <ele>2194.83</ele>
        <time>2022-07-13T13:46:49Z</time>
      </trkpt>
      <trkpt lat="42.7634129394" lon="-0.2204640862">
        <ele>2195.31</ele>
        <time>2022-07-13T13:47:08Z</time>
      </trkpt>
      <trkpt lat="42.7633718681" lon="-0.2204750665">
        <ele>2194.83</ele>
        <time>2022-07-13T13:47:36Z</time>
      </trkpt>
      <trkpt lat="42.7633542661" lon="-0.2204875555">
        <ele>2194.83</ele>
        <time>2022-07-13T13:47:48Z</time>
      </trkpt>
      <trkpt lat="42.7633615583" lon="-0.2205018047">
        <ele>2196.27</ele>
        <time>2022-07-13T13:47:52Z</time>
      </trkpt>
      <trkpt lat="42.7634028811" lon="-0.2204932552">
        <ele>2196.27</ele>
        <time>2022-07-13T13:48:09Z</time>
      </trkpt>
      <trkpt lat="42.7634449583" lon="-0.2204780001">
        <ele>2196.75</ele>
        <time>2022-07-13T13:48:27Z</time>
      </trkpt>
      <trkpt lat="42.7635296993" lon="-0.2204795927">
        <ele>2197.71</ele>
        <time>2022-07-13T13:48:40Z</time>
      </trkpt>
      <trkpt lat="42.7635711059" lon="-0.2204598114">
        <ele>2195.79</ele>
        <time>2022-07-13T13:48:45Z</time>
      </trkpt>
      <trkpt lat="42.7636322100" lon="-0.2204348333">
        <ele>2198.67</ele>
        <time>2022-07-13T13:48:56Z</time>
      </trkpt>
      <trkpt lat="42.7636579424" lon="-0.2204521000">
        <ele>2197.23</ele>
        <time>2022-07-13T13:49:00Z</time>
      </trkpt>
      <trkpt lat="42.7637090720" lon="-0.2204996254">
        <ele>2195.31</ele>
        <time>2022-07-13T13:49:11Z</time>
      </trkpt>
      <trkpt lat="42.7637931425" lon="-0.2205971908">
        <ele>2194.83</ele>
        <time>2022-07-13T13:49:25Z</time>
      </trkpt>
      <trkpt lat="42.7639197093" lon="-0.2206178941">
        <ele>2194.35</ele>
        <time>2022-07-13T13:49:39Z</time>
      </trkpt>
      <trkpt lat="42.7639974095" lon="-0.2206067462">
        <ele>2193.87</ele>
        <time>2022-07-13T13:49:53Z</time>
      </trkpt>
      <trkpt lat="42.7641107328" lon="-0.2206504159">
        <ele>2193.39</ele>
        <time>2022-07-13T13:50:08Z</time>
      </trkpt>
      <trkpt lat="42.7642079629" lon="-0.2207414433">
        <ele>2194.83</ele>
        <time>2022-07-13T13:50:24Z</time>
      </trkpt>
      <trkpt lat="42.7642757725" lon="-0.2208031341">
        <ele>2195.31</ele>
        <time>2022-07-13T13:50:37Z</time>
      </trkpt>
      <trkpt lat="42.7642966434" lon="-0.2208198979">
        <ele>2195.31</ele>
        <time>2022-07-13T13:50:40Z</time>
      </trkpt>
      <trkpt lat="42.7643248904" lon="-0.2208325546">
        <ele>2193.87</ele>
        <time>2022-07-13T13:50:43Z</time>
      </trkpt>
      <trkpt lat="42.7644354478" lon="-0.2208907250">
        <ele>2193.87</ele>
        <time>2022-07-13T13:50:56Z</time>
      </trkpt>
      <trkpt lat="42.7645355277" lon="-0.2209667489">
        <ele>2192.90</ele>
        <time>2022-07-13T13:51:10Z</time>
      </trkpt>
      <trkpt lat="42.7646071091" lon="-0.2210308705">
        <ele>2192.42</ele>
        <time>2022-07-13T13:51:22Z</time>
      </trkpt>
      <trkpt lat="42.7647077758" lon="-0.2211135160">
        <ele>2193.87</ele>
        <time>2022-07-13T13:51:34Z</time>
      </trkpt>
      <trkpt lat="42.7648229431" lon="-0.2212757897">
        <ele>2193.87</ele>
        <time>2022-07-13T13:51:50Z</time>
      </trkpt>
      <trkpt lat="42.7648296487" lon="-0.2214410808">
        <ele>2193.39</ele>
        <time>2022-07-13T13:52:03Z</time>
      </trkpt>
      <trkpt lat="42.7648564707" lon="-0.2215394005">
        <ele>2192.42</ele>
        <time>2022-07-13T13:52:17Z</time>
      </trkpt>
      <trkpt lat="42.7648756653" lon="-0.2215603553">
        <ele>2191.94</ele>
        <time>2022-07-13T13:52:21Z</time>
      </trkpt>
      <trkpt lat="42.7649391163" lon="-0.2216575854">
        <ele>2192.90</ele>
        <time>2022-07-13T13:52:31Z</time>
      </trkpt>
      <trkpt lat="42.7650189120" lon="-0.2217604313">
        <ele>2192.90</ele>
        <time>2022-07-13T13:52:44Z</time>
      </trkpt>
      <trkpt lat="42.7650433872" lon="-0.2217835654">
        <ele>2192.90</ele>
        <time>2022-07-13T13:52:47Z</time>
      </trkpt>
      <trkpt lat="42.7651954349" lon="-0.2218545601">
        <ele>2192.42</ele>
        <time>2022-07-13T13:53:02Z</time>
      </trkpt>
      <trkpt lat="42.7653184813" lon="-0.2218217868">
        <ele>2190.98</ele>
        <time>2022-07-13T13:53:17Z</time>
      </trkpt>
      <trkpt lat="42.7654656675" lon="-0.2217988204">
        <ele>2190.98</ele>
        <time>2022-07-13T13:53:31Z</time>
      </trkpt>
      <trkpt lat="42.7655623108" lon="-0.2218768559">
        <ele>2190.98</ele>
        <time>2022-07-13T13:53:44Z</time>
      </trkpt>
      <trkpt lat="42.7656261809" lon="-0.2220346034">
        <ele>2190.50</ele>
        <time>2022-07-13T13:53:59Z</time>
      </trkpt>
      <trkpt lat="42.7656556014" lon="-0.2221102081">
        <ele>2190.50</ele>
        <time>2022-07-13T13:54:05Z</time>
      </trkpt>
      <trkpt lat="42.7656907216" lon="-0.2222407982">
        <ele>2190.50</ele>
        <time>2022-07-13T13:54:15Z</time>
      </trkpt>
      <trkpt lat="42.7657246683" lon="-0.2223021537">
        <ele>2192.90</ele>
        <time>2022-07-13T13:54:22Z</time>
      </trkpt>
      <trkpt lat="42.7658120077" lon="-0.2223754115">
        <ele>2190.98</ele>
        <time>2022-07-13T13:54:31Z</time>
      </trkpt>
      <trkpt lat="42.7659105789" lon="-0.2224653494">
        <ele>2190.02</ele>
        <time>2022-07-13T13:54:45Z</time>
      </trkpt>
      <trkpt lat="42.7659265883" lon="-0.2224865556">
        <ele>2190.02</ele>
        <time>2022-07-13T13:54:48Z</time>
      </trkpt>
      <trkpt lat="42.7660455275" lon="-0.2225944307">
        <ele>2190.02</ele>
        <time>2022-07-13T13:55:03Z</time>
      </trkpt>
      <trkpt lat="42.7661062125" lon="-0.2226783335">
        <ele>2189.54</ele>
        <time>2022-07-13T13:55:13Z</time>
      </trkpt>
      <trkpt lat="42.7662062924" lon="-0.2227317262">
        <ele>2189.54</ele>
        <time>2022-07-13T13:55:26Z</time>
      </trkpt>
      <trkpt lat="42.7663158439" lon="-0.2228146233">
        <ele>2189.54</ele>
        <time>2022-07-13T13:55:40Z</time>
      </trkpt>
      <trkpt lat="42.7664196119" lon="-0.2228825167">
        <ele>2189.06</ele>
        <time>2022-07-13T13:55:53Z</time>
      </trkpt>
      <trkpt lat="42.7664899360" lon="-0.2229441237">
        <ele>2189.06</ele>
        <time>2022-07-13T13:56:02Z</time>
      </trkpt>
      <trkpt lat="42.7665640321" lon="-0.2230399288">
        <ele>2189.06</ele>
        <time>2022-07-13T13:56:13Z</time>
      </trkpt>
      <trkpt lat="42.7665974759" lon="-0.2230865322">
        <ele>2189.06</ele>
        <time>2022-07-13T13:56:17Z</time>
      </trkpt>
      <trkpt lat="42.7666309197" lon="-0.2231292799">
        <ele>2189.06</ele>
        <time>2022-07-13T13:56:22Z</time>
      </trkpt>
      <trkpt lat="42.7667010762" lon="-0.2232413460">
        <ele>2188.10</ele>
        <time>2022-07-13T13:56:37Z</time>
      </trkpt>
      <trkpt lat="42.7667347714" lon="-0.2232716046">
        <ele>2188.10</ele>
        <time>2022-07-13T13:56:42Z</time>
      </trkpt>
      <trkpt lat="42.7668057662" lon="-0.2233223990">
        <ele>2187.62</ele>
        <time>2022-07-13T13:56:49Z</time>
      </trkpt>
      <trkpt lat="42.7669407148" lon="-0.2233908791">
        <ele>2187.62</ele>
        <time>2022-07-13T13:57:02Z</time>
      </trkpt>
      <trkpt lat="42.7669988852" lon="-0.2234037034">
        <ele>2187.62</ele>
        <time>2022-07-13T13:57:07Z</time>
      </trkpt>
      <trkpt lat="42.7670902479" lon="-0.2234671544">
        <ele>2187.62</ele>
        <time>2022-07-13T13:57:20Z</time>
      </trkpt>
      <trkpt lat="42.7672184911" lon="-0.2235173620">
        <ele>2186.66</ele>
        <time>2022-07-13T13:57:35Z</time>
      </trkpt>
      <trkpt lat="42.7672289684" lon="-0.2235213853">
        <ele>2186.18</ele>
        <time>2022-07-13T13:57:36Z</time>
      </trkpt>
      <trkpt lat="42.7673628274" lon="-0.2235865127">
        <ele>2184.25</ele>
        <time>2022-07-13T13:57:52Z</time>
      </trkpt>
      <trkpt lat="42.7674353309" lon="-0.2236772049">
        <ele>2181.85</ele>
        <time>2022-07-13T13:58:06Z</time>
      </trkpt>
      <trkpt lat="42.7675096784" lon="-0.2237239759">
        <ele>2178.48</ele>
        <time>2022-07-13T13:58:18Z</time>
      </trkpt>
      <trkpt lat="42.7675618976" lon="-0.2237617783">
        <ele>2176.08</ele>
        <time>2022-07-13T13:58:32Z</time>
      </trkpt>
      <trkpt lat="42.7675403561" lon="-0.2237877622">
        <ele>2177.52</ele>
        <time>2022-07-13T13:58:44Z</time>
      </trkpt>
      <trkpt lat="42.7675318066" lon="-0.2237785421">
        <ele>2177.52</ele>
        <time>2022-07-13T13:58:46Z</time>
      </trkpt>
      <trkpt lat="42.7674510889" lon="-0.2237306815">
        <ele>2180.89</ele>
        <time>2022-07-13T13:58:58Z</time>
      </trkpt>
      <trkpt lat="42.7673849557" lon="-0.2236712538">
        <ele>2183.29</ele>
        <time>2022-07-13T13:59:10Z</time>
      </trkpt>
      <trkpt lat="42.7673214208" lon="-0.2236202080">
        <ele>2184.25</ele>
        <time>2022-07-13T13:59:18Z</time>
      </trkpt>
      <trkpt lat="42.7672749013" lon="-0.2236098982">
        <ele>2185.21</ele>
        <time>2022-07-13T13:59:34Z</time>
      </trkpt>
      <trkpt lat="42.7671981230" lon="-0.2235819865">
        <ele>2186.18</ele>
        <time>2022-07-13T13:59:45Z</time>
      </trkpt>
      <trkpt lat="42.7671319060" lon="-0.2235209662">
        <ele>2187.62</ele>
        <time>2022-07-13T13:59:56Z</time>
      </trkpt>
      <trkpt lat="42.7670996357" lon="-0.2235054597">
        <ele>2188.10</ele>
        <time>2022-07-13T14:00:07Z</time>
      </trkpt>
      <trkpt lat="42.7670389507" lon="-0.2234979160">
        <ele>2188.58</ele>
        <time>2022-07-13T14:00:27Z</time>
      </trkpt>
      <trkpt lat="42.7670086920" lon="-0.2234312799">
        <ele>2188.58</ele>
        <time>2022-07-13T14:00:41Z</time>
      </trkpt>
      <trkpt lat="42.7670569718" lon="-0.2233759593">
        <ele>2190.98</ele>
        <time>2022-07-13T14:00:57Z</time>
      </trkpt>
      <trkpt lat="42.7671495080" lon="-0.2233100776">
        <ele>2193.39</ele>
        <time>2022-07-13T14:01:13Z</time>
      </trkpt>
      <trkpt lat="42.7672170661" lon="-0.2232731134">
        <ele>2195.79</ele>
        <time>2022-07-13T14:01:24Z</time>
      </trkpt>
      <trkpt lat="42.7673458122" lon="-0.2232600376">
        <ele>2198.67</ele>
        <time>2022-07-13T14:01:40Z</time>
      </trkpt>
      <trkpt lat="42.7674385998" lon="-0.2232714370">
        <ele>2202.04</ele>
        <time>2022-07-13T14:01:53Z</time>
      </trkpt>
      <trkpt lat="42.7675329801" lon="-0.2232895419">
        <ele>2204.44</ele>
        <time>2022-07-13T14:02:07Z</time>
      </trkpt>
      <trkpt lat="42.7676130272" lon="-0.2233168669">
        <ele>2206.36</ele>
        <time>2022-07-13T14:02:19Z</time>
      </trkpt>
      <trkpt lat="42.7677649911" lon="-0.2234375663">
        <ele>2206.84</ele>
        <time>2022-07-13T14:02:37Z</time>
      </trkpt>
      <trkpt lat="42.7678530850" lon="-0.2234722674">
        <ele>2209.25</ele>
        <time>2022-07-13T14:02:50Z</time>
      </trkpt>
      <trkpt lat="42.7679244988" lon="-0.2235135902">
        <ele>2212.61</ele>
        <time>2022-07-13T14:03:01Z</time>
      </trkpt>
      <trkpt lat="42.7679686714" lon="-0.2235286776">
        <ele>2214.53</ele>
        <time>2022-07-13T14:03:16Z</time>
      </trkpt>
      <trkpt lat="42.7679933980" lon="-0.2234586049">
        <ele>2216.94</ele>
        <time>2022-07-13T14:03:28Z</time>
      </trkpt>
      <trkpt lat="42.7680571005" lon="-0.2235237323">
        <ele>2219.82</ele>
        <time>2022-07-13T14:03:40Z</time>
      </trkpt>
      <trkpt lat="42.7680953220" lon="-0.2235766221">
        <ele>2221.74</ele>
        <time>2022-07-13T14:03:54Z</time>
      </trkpt>
      <trkpt lat="42.7681156062" lon="-0.2234965749">
        <ele>2224.63</ele>
        <time>2022-07-13T14:04:07Z</time>
      </trkpt>
      <trkpt lat="42.7681879420" lon="-0.2235570084">
        <ele>2226.55</ele>
        <time>2022-07-13T14:04:20Z</time>
      </trkpt>
      <trkpt lat="42.7682186197" lon="-0.2235668991">
        <ele>2226.55</ele>
        <time>2022-07-13T14:04:24Z</time>
      </trkpt>
      <trkpt lat="42.7682480402" lon="-0.2235675696">
        <ele>2227.03</ele>
        <time>2022-07-13T14:04:27Z</time>
      </trkpt>
      <trkpt lat="42.7682885248" lon="-0.2235674858">
        <ele>2225.59</ele>
        <time>2022-07-13T14:04:31Z</time>
      </trkpt>
      <trkpt lat="42.7683887724" lon="-0.2235382330">
        <ele>2224.63</ele>
        <time>2022-07-13T14:04:42Z</time>
      </trkpt>
      <trkpt lat="42.7684790455" lon="-0.2235349640">
        <ele>2222.22</ele>
        <time>2022-07-13T14:04:49Z</time>
      </trkpt>
      <trkpt lat="42.7686106414" lon="-0.2234724350">
        <ele>2223.19</ele>
        <time>2022-07-13T14:05:02Z</time>
      </trkpt>
      <trkpt lat="42.7686211187" lon="-0.2234709263">
        <ele>2223.19</ele>
        <time>2022-07-13T14:05:03Z</time>
      </trkpt>
      <trkpt lat="42.7687416505" lon="-0.2234782185">
        <ele>2222.22</ele>
        <time>2022-07-13T14:05:19Z</time>
      </trkpt>
      <trkpt lat="42.7687528823" lon="-0.2234806493">
        <ele>2222.22</ele>
        <time>2022-07-13T14:05:20Z</time>
      </trkpt>
      <trkpt lat="42.7688764315" lon="-0.2234755363">
        <ele>2221.74</ele>
        <time>2022-07-13T14:05:35Z</time>
      </trkpt>
      <trkpt lat="42.7689113840" lon="-0.2234700043">
        <ele>2221.74</ele>
        <time>2022-07-13T14:05:39Z</time>
      </trkpt>
      <trkpt lat="42.7690669522" lon="-0.2234788053">
        <ele>2222.22</ele>
        <time>2022-07-13T14:05:52Z</time>
      </trkpt>
      <trkpt lat="42.7691526152" lon="-0.2234755363">
        <ele>2221.26</ele>
        <time>2022-07-13T14:06:01Z</time>
      </trkpt>
      <trkpt lat="42.7692811098" lon="-0.2234798111">
        <ele>2218.86</ele>
        <time>2022-07-13T14:06:15Z</time>
      </trkpt>
      <trkpt lat="42.7692911681" lon="-0.2234861813">
        <ele>2217.90</ele>
        <time>2022-07-13T14:06:21Z</time>
      </trkpt>
      <trkpt lat="42.7693394478" lon="-0.2235216368">
        <ele>2217.90</ele>
        <time>2022-07-13T14:06:31Z</time>
      </trkpt>
      <trkpt lat="42.7693547867" lon="-0.2235321142">
        <ele>2216.46</ele>
        <time>2022-07-13T14:06:33Z</time>
      </trkpt>
      <trkpt lat="42.7694493346" lon="-0.2235995885">
        <ele>2213.09</ele>
        <time>2022-07-13T14:06:44Z</time>
      </trkpt>
      <trkpt lat="42.7694633324" lon="-0.2236334514">
        <ele>2211.65</ele>
        <time>2022-07-13T14:06:50Z</time>
      </trkpt>
      <trkpt lat="42.7693365980" lon="-0.2236899454">
        <ele>2210.21</ele>
        <time>2022-07-13T14:07:04Z</time>
      </trkpt>
      <trkpt lat="42.7693057526" lon="-0.2237301785">
        <ele>2208.77</ele>
        <time>2022-07-13T14:07:08Z</time>
      </trkpt>
      <trkpt lat="42.7693138830" lon="-0.2237860020">
        <ele>2206.84</ele>
        <time>2022-07-13T14:07:22Z</time>
      </trkpt>
      <trkpt lat="42.7694363426" lon="-0.2237813082">
        <ele>2204.44</ele>
        <time>2022-07-13T14:07:36Z</time>
      </trkpt>
      <trkpt lat="42.7695161384" lon="-0.2238075435">
        <ele>2202.52</ele>
        <time>2022-07-13T14:07:45Z</time>
      </trkpt>
      <trkpt lat="42.7695506718" lon="-0.2238238882">
        <ele>2201.08</ele>
        <time>2022-07-13T14:07:49Z</time>
      </trkpt>
      <trkpt lat="42.7695671003" lon="-0.2238326054">
        <ele>2200.59</ele>
        <time>2022-07-13T14:07:51Z</time>
      </trkpt>
      <trkpt lat="42.7697000373" lon="-0.2239056118">
        <ele>2199.15</ele>
        <time>2022-07-13T14:08:06Z</time>
      </trkpt>
      <trkpt lat="42.7698210720" lon="-0.2239840664">
        <ele>2195.79</ele>
        <time>2022-07-13T14:08:21Z</time>
      </trkpt>
      <trkpt lat="42.7698311303" lon="-0.2239880897">
        <ele>2195.31</ele>
        <time>2022-07-13T14:08:22Z</time>
      </trkpt>
      <trkpt lat="42.7699799929" lon="-0.2240467630">
        <ele>2193.39</ele>
        <time>2022-07-13T14:08:38Z</time>
      </trkpt>
      <trkpt lat="42.7700659074" lon="-0.2241304144">
        <ele>2190.50</ele>
        <time>2022-07-13T14:08:51Z</time>
      </trkpt>
      <trkpt lat="42.7701871097" lon="-0.2242125571">
        <ele>2188.10</ele>
        <time>2022-07-13T14:09:06Z</time>
      </trkpt>
      <trkpt lat="42.7703192085" lon="-0.2242791932">
        <ele>2185.69</ele>
        <time>2022-07-13T14:09:22Z</time>
      </trkpt>
      <trkpt lat="42.7703896165" lon="-0.2243501041">
        <ele>2182.33</ele>
        <time>2022-07-13T14:09:32Z</time>
      </trkpt>
      <trkpt lat="42.7704865113" lon="-0.2243880741">
        <ele>2179.45</ele>
        <time>2022-07-13T14:09:44Z</time>
      </trkpt>
      <trkpt lat="42.7705239784" lon="-0.2244021557">
        <ele>2178.48</ele>
        <time>2022-07-13T14:09:48Z</time>
      </trkpt>
      <trkpt lat="42.7706527244" lon="-0.2244368568">
        <ele>2178.00</ele>
        <time>2022-07-13T14:10:02Z</time>
      </trkpt>
      <trkpt lat="42.7707301732" lon="-0.2244544588">
        <ele>2177.04</ele>
        <time>2022-07-13T14:10:17Z</time>
      </trkpt>
      <trkpt lat="42.7708402276" lon="-0.2245389484">
        <ele>2176.08</ele>
        <time>2022-07-13T14:10:30Z</time>
      </trkpt>
      <trkpt lat="42.7708515432" lon="-0.2246412076">
        <ele>2172.72</ele>
        <time>2022-07-13T14:10:44Z</time>
      </trkpt>
      <trkpt lat="42.7709184308" lon="-0.2246227674">
        <ele>2172.24</ele>
        <time>2022-07-13T14:10:56Z</time>
      </trkpt>
      <trkpt lat="42.7709596697" lon="-0.2246277966">
        <ele>2171.76</ele>
        <time>2022-07-13T14:11:00Z</time>
      </trkpt>
      <trkpt lat="42.7709933650" lon="-0.2246432193">
        <ele>2170.79</ele>
        <time>2022-07-13T14:11:03Z</time>
      </trkpt>
      <trkpt lat="42.7710093744" lon="-0.2246599831">
        <ele>2170.31</ele>
        <time>2022-07-13T14:11:05Z</time>
      </trkpt>
      <trkpt lat="42.7710236236" lon="-0.2246857155">
        <ele>2170.31</ele>
        <time>2022-07-13T14:11:07Z</time>
      </trkpt>
      <trkpt lat="42.7711768448" lon="-0.2248567063">
        <ele>2168.87</ele>
        <time>2022-07-13T14:11:24Z</time>
      </trkpt>
      <trkpt lat="42.7712442353" lon="-0.2249502484">
        <ele>2168.87</ele>
        <time>2022-07-13T14:11:34Z</time>
      </trkpt>
      <trkpt lat="42.7712514438" lon="-0.2250069939">
        <ele>2167.91</ele>
        <time>2022-07-13T14:11:38Z</time>
      </trkpt>
      <trkpt lat="42.7714153100" lon="-0.2250716183">
        <ele>2166.95</ele>
        <time>2022-07-13T14:11:54Z</time>
      </trkpt>
      <trkpt lat="42.7714707982" lon="-0.2250841074">
        <ele>2168.39</ele>
        <time>2022-07-13T14:12:02Z</time>
      </trkpt>
      <trkpt lat="42.7715267893" lon="-0.2251190599">
        <ele>2168.87</ele>
        <time>2022-07-13T14:12:09Z</time>
      </trkpt>
      <trkpt lat="42.7716549486" lon="-0.2251649089">
        <ele>2171.76</ele>
        <time>2022-07-13T14:12:24Z</time>
      </trkpt>
      <trkpt lat="42.7716824412" lon="-0.2252338920">
        <ele>2170.31</ele>
        <time>2022-07-13T14:12:31Z</time>
      </trkpt>
      <trkpt lat="42.7717715409" lon="-0.2253561001">
        <ele>2172.24</ele>
        <time>2022-07-13T14:12:46Z</time>
      </trkpt>
      <trkpt lat="42.7718365844" lon="-0.2254117560">
        <ele>2172.72</ele>
        <time>2022-07-13T14:12:53Z</time>
      </trkpt>
      <trkpt lat="42.7719385084" lon="-0.2254646458">
        <ele>2171.27</ele>
        <time>2022-07-13T14:13:05Z</time>
      </trkpt>
      <trkpt lat="42.7720167115" lon="-0.2255068906">
        <ele>2172.72</ele>
        <time>2022-07-13T14:13:16Z</time>
      </trkpt>
      <trkpt lat="42.7721125167" lon="-0.2256360557">
        <ele>2170.31</ele>
        <time>2022-07-13T14:13:31Z</time>
      </trkpt>
      <trkpt lat="42.7722071484" lon="-0.2257591020">
        <ele>2168.87</ele>
        <time>2022-07-13T14:13:45Z</time>
      </trkpt>
      <trkpt lat="42.7723239921" lon="-0.2259441745">
        <ele>2167.43</ele>
        <time>2022-07-13T14:14:02Z</time>
      </trkpt>
      <trkpt lat="42.7723522391" lon="-0.2259950526">
        <ele>2165.03</ele>
        <time>2022-07-13T14:14:08Z</time>
      </trkpt>
      <trkpt lat="42.7724056318" lon="-0.2261116449">
        <ele>2164.06</ele>
        <time>2022-07-13T14:14:18Z</time>
      </trkpt>
      <trkpt lat="42.7724685799" lon="-0.2261740901">
        <ele>2165.51</ele>
        <time>2022-07-13T14:14:25Z</time>
      </trkpt>
      <trkpt lat="42.7725834120" lon="-0.2262527123">
        <ele>2166.95</ele>
        <time>2022-07-13T14:14:39Z</time>
      </trkpt>
      <trkpt lat="42.7726156823" lon="-0.2262778580">
        <ele>2165.51</ele>
        <time>2022-07-13T14:14:42Z</time>
      </trkpt>
      <trkpt lat="42.7726997528" lon="-0.2263913490">
        <ele>2162.62</ele>
        <time>2022-07-13T14:14:52Z</time>
      </trkpt>
      <trkpt lat="42.7727188636" lon="-0.2264568955">
        <ele>2161.18</ele>
        <time>2022-07-13T14:14:58Z</time>
      </trkpt>
      <trkpt lat="42.7727293409" lon="-0.2265296504">
        <ele>2159.26</ele>
        <time>2022-07-13T14:15:04Z</time>
      </trkpt>
      <trkpt lat="42.7727543190" lon="-0.2265786845">
        <ele>2157.82</ele>
        <time>2022-07-13T14:15:08Z</time>
      </trkpt>
      <trkpt lat="42.7727815602" lon="-0.2266499307">
        <ele>2156.37</ele>
        <time>2022-07-13T14:15:15Z</time>
      </trkpt>
      <trkpt lat="42.7728024311" lon="-0.2266755793">
        <ele>2156.37</ele>
        <time>2022-07-13T14:15:23Z</time>
      </trkpt>
      <trkpt lat="42.7728605177" lon="-0.2267170697">
        <ele>2154.93</ele>
        <time>2022-07-13T14:15:30Z</time>
      </trkpt>
      <trkpt lat="42.7730217855" lon="-0.2268323209">
        <ele>2152.53</ele>
        <time>2022-07-13T14:15:46Z</time>
      </trkpt>
      <trkpt lat="42.7730331849" lon="-0.2268413734">
        <ele>2152.05</ele>
        <time>2022-07-13T14:15:47Z</time>
      </trkpt>
      <trkpt lat="42.7731360309" lon="-0.2269398607">
        <ele>2148.20</ele>
        <time>2022-07-13T14:16:01Z</time>
      </trkpt>
      <trkpt lat="42.7730924450" lon="-0.2269810997">
        <ele>2145.32</ele>
        <time>2022-07-13T14:16:15Z</time>
      </trkpt>
      <trkpt lat="42.7731612604" lon="-0.2270229254">
        <ele>2143.88</ele>
        <time>2022-07-13T14:16:28Z</time>
      </trkpt>
      <trkpt lat="42.7732146531" lon="-0.2270714566">
        <ele>2141.47</ele>
        <time>2022-07-13T14:16:41Z</time>
      </trkpt>
      <trkpt lat="42.7733119670" lon="-0.2271116059">
        <ele>2140.03</ele>
        <time>2022-07-13T14:16:55Z</time>
      </trkpt>
      <trkpt lat="42.7733708918" lon="-0.2271222509">
        <ele>2141.47</ele>
        <time>2022-07-13T14:17:03Z</time>
      </trkpt>
      <trkpt lat="42.7735012304" lon="-0.2271889709">
        <ele>2141.95</ele>
        <time>2022-07-13T14:17:17Z</time>
      </trkpt>
      <trkpt lat="42.7736182418" lon="-0.2272253484">
        <ele>2144.36</ele>
        <time>2022-07-13T14:17:31Z</time>
      </trkpt>
      <trkpt lat="42.7736953553" lon="-0.2272683475">
        <ele>2144.84</ele>
        <time>2022-07-13T14:17:40Z</time>
      </trkpt>
      <trkpt lat="42.7738179825" lon="-0.2273445390">
        <ele>2143.40</ele>
        <time>2022-07-13T14:17:52Z</time>
      </trkpt>
      <trkpt lat="42.7738844510" lon="-0.2274273522">
        <ele>2140.99</ele>
        <time>2022-07-13T14:18:04Z</time>
      </trkpt>
      <trkpt lat="42.7739816811" lon="-0.2274296992">
        <ele>2137.15</ele>
        <time>2022-07-13T14:18:16Z</time>
      </trkpt>
      <trkpt lat="42.7740442939" lon="-0.2274577785">
        <ele>2135.23</ele>
        <time>2022-07-13T14:18:24Z</time>
      </trkpt>
      <trkpt lat="42.7739854530" lon="-0.2275530808">
        <ele>2133.30</ele>
        <time>2022-07-13T14:18:37Z</time>
      </trkpt>
      <trkpt lat="42.7739339042" lon="-0.2275822498">
        <ele>2131.38</ele>
        <time>2022-07-13T14:18:44Z</time>
      </trkpt>
      <trkpt lat="42.7738750633" lon="-0.2276283503">
        <ele>2130.42</ele>
        <time>2022-07-13T14:18:51Z</time>
      </trkpt>
      <trkpt lat="42.7739583794" lon="-0.2276774682">
        <ele>2128.02</ele>
        <time>2022-07-13T14:19:04Z</time>
      </trkpt>
      <trkpt lat="42.7739743888" lon="-0.2276892867">
        <ele>2127.53</ele>
        <time>2022-07-13T14:19:07Z</time>
      </trkpt>
      <trkpt lat="42.7739958465" lon="-0.2276959922">
        <ele>2127.53</ele>
        <time>2022-07-13T14:19:09Z</time>
      </trkpt>
      <trkpt lat="42.7740308829" lon="-0.2277214732">
        <ele>2126.57</ele>
        <time>2022-07-13T14:19:13Z</time>
      </trkpt>
      <trkpt lat="42.7741465531" lon="-0.2277311124">
        <ele>2123.69</ele>
        <time>2022-07-13T14:19:25Z</time>
      </trkpt>
      <trkpt lat="42.7742429450" lon="-0.2277337946">
        <ele>2120.81</ele>
        <time>2022-07-13T14:19:36Z</time>
      </trkpt>
      <trkpt lat="42.7743188851" lon="-0.2277408354">
        <ele>2118.88</ele>
        <time>2022-07-13T14:19:46Z</time>
      </trkpt>
      <trkpt lat="42.7744678315" lon="-0.2276436053">
        <ele>2118.40</ele>
        <time>2022-07-13T14:20:03Z</time>
      </trkpt>
      <trkpt lat="42.7744833380" lon="-0.2275964990">
        <ele>2119.84</ele>
        <time>2022-07-13T14:20:10Z</time>
      </trkpt>
      <trkpt lat="42.7744393330" lon="-0.2275859378">
        <ele>2120.32</ele>
        <time>2022-07-13T14:20:22Z</time>
      </trkpt>
      <trkpt lat="42.7744317893" lon="-0.2274860255">
        <ele>2123.69</ele>
        <time>2022-07-13T14:20:35Z</time>
      </trkpt>
      <trkpt lat="42.7744425181" lon="-0.2273404319">
        <ele>2124.65</ele>
        <time>2022-07-13T14:20:48Z</time>
      </trkpt>
      <trkpt lat="42.7744004410" lon="-0.2271911502">
        <ele>2125.13</ele>
        <time>2022-07-13T14:21:02Z</time>
      </trkpt>
      <trkpt lat="42.7743944060" lon="-0.2271689381">
        <ele>2126.09</ele>
        <time>2022-07-13T14:21:05Z</time>
      </trkpt>
      <trkpt lat="42.7743993513" lon="-0.2270375937">
        <ele>2124.65</ele>
        <time>2022-07-13T14:21:17Z</time>
      </trkpt>
      <trkpt lat="42.7743442822" lon="-0.2268973645">
        <ele>2125.13</ele>
        <time>2022-07-13T14:21:31Z</time>
      </trkpt>
      <trkpt lat="42.7742501535" lon="-0.2268114500">
        <ele>2128.02</ele>
        <time>2022-07-13T14:21:45Z</time>
      </trkpt>
      <trkpt lat="42.7741887141" lon="-0.2267372701">
        <ele>2128.98</ele>
        <time>2022-07-13T14:21:53Z</time>
      </trkpt>
      <trkpt lat="42.7740967646" lon="-0.2265995555">
        <ele>2129.94</ele>
        <time>2022-07-13T14:22:08Z</time>
      </trkpt>
      <trkpt lat="42.7740737144" lon="-0.2263838891">
        <ele>2130.90</ele>
        <time>2022-07-13T14:22:25Z</time>
      </trkpt>
      <trkpt lat="42.7740543522" lon="-0.2263482660">
        <ele>2131.38</ele>
        <time>2022-07-13T14:22:41Z</time>
      </trkpt>
      <trkpt lat="42.7740298770" lon="-0.2264419757">
        <ele>2133.78</ele>
        <time>2022-07-13T14:22:54Z</time>
      </trkpt>
      <trkpt lat="42.7740132809" lon="-0.2264914289">
        <ele>2136.19</ele>
        <time>2022-07-13T14:23:07Z</time>
      </trkpt>
      <trkpt lat="42.7740121074" lon="-0.2263963781">
        <ele>2136.67</ele>
        <time>2022-07-13T14:23:15Z</time>
      </trkpt>
      <trkpt lat="42.7740502451" lon="-0.2262475993">
        <ele>2137.63</ele>
        <time>2022-07-13T14:23:29Z</time>
      </trkpt>
      <trkpt lat="42.7740663383" lon="-0.2262189332">
        <ele>2138.11</ele>
        <time>2022-07-13T14:23:32Z</time>
      </trkpt>
      <trkpt lat="42.7741092537" lon="-0.2260719985">
        <ele>2138.59</ele>
        <time>2022-07-13T14:23:44Z</time>
      </trkpt>
      <trkpt lat="42.7740647458" lon="-0.2259057853">
        <ele>2137.15</ele>
        <time>2022-07-13T14:23:55Z</time>
      </trkpt>
      <trkpt lat="42.7740729600" lon="-0.2258226369">
        <ele>2137.15</ele>
        <time>2022-07-13T14:24:00Z</time>
      </trkpt>
      <trkpt lat="42.7740636561" lon="-0.2257626224">
        <ele>2138.59</ele>
        <time>2022-07-13T14:24:05Z</time>
      </trkpt>
      <trkpt lat="42.7740557771" lon="-0.2255898714">
        <ele>2140.99</ele>
        <time>2022-07-13T14:24:20Z</time>
      </trkpt>
      <trkpt lat="42.7740908135" lon="-0.2254162822">
        <ele>2141.95</ele>
        <time>2022-07-13T14:24:32Z</time>
      </trkpt>
      <trkpt lat="42.7740489040" lon="-0.2254321240">
        <ele>2143.88</ele>
        <time>2022-07-13T14:24:46Z</time>
      </trkpt>
      <trkpt lat="42.7739941701" lon="-0.2255494706">
        <ele>2145.80</ele>
        <time>2022-07-13T14:24:59Z</time>
      </trkpt>
      <trkpt lat="42.7739432920" lon="-0.2254821640">
        <ele>2148.20</ele>
        <time>2022-07-13T14:25:13Z</time>
      </trkpt>
      <trkpt lat="42.7739244327" lon="-0.2253501490">
        <ele>2150.13</ele>
        <time>2022-07-13T14:25:26Z</time>
      </trkpt>
      <trkpt lat="42.7738799248" lon="-0.2252383344">
        <ele>2152.05</ele>
        <time>2022-07-13T14:25:39Z</time>
      </trkpt>
      <trkpt lat="42.7738515940" lon="-0.2251079120">
        <ele>2153.97</ele>
        <time>2022-07-13T14:25:53Z</time>
      </trkpt>
      <trkpt lat="42.7738168091" lon="-0.2249551099">
        <ele>2155.41</ele>
        <time>2022-07-13T14:26:06Z</time>
      </trkpt>
      <trkpt lat="42.7737834491" lon="-0.2248285431">
        <ele>2156.37</ele>
        <time>2022-07-13T14:26:19Z</time>
      </trkpt>
      <trkpt lat="42.7737732232" lon="-0.2246447280">
        <ele>2158.78</ele>
        <time>2022-07-13T14:26:34Z</time>
      </trkpt>
      <trkpt lat="42.7737888135" lon="-0.2244987153">
        <ele>2160.22</ele>
        <time>2022-07-13T14:26:47Z</time>
      </trkpt>
      <trkpt lat="42.7737946808" lon="-0.2243105415">
        <ele>2162.62</ele>
        <time>2022-07-13T14:27:01Z</time>
      </trkpt>
      <trkpt lat="42.7738064993" lon="-0.2241085377">
        <ele>2162.62</ele>
        <time>2022-07-13T14:27:15Z</time>
      </trkpt>
      <trkpt lat="42.7738275379" lon="-0.2240017522">
        <ele>2163.10</ele>
        <time>2022-07-13T14:27:23Z</time>
      </trkpt>
      <trkpt lat="42.7738618199" lon="-0.2238905244">
        <ele>2163.58</ele>
        <time>2022-07-13T14:27:31Z</time>
      </trkpt>
      <trkpt lat="42.7738891449" lon="-0.2237596828">
        <ele>2165.51</ele>
        <time>2022-07-13T14:27:44Z</time>
      </trkpt>
      <trkpt lat="42.7739053220" lon="-0.2236481197">
        <ele>2167.91</ele>
        <time>2022-07-13T14:27:57Z</time>
      </trkpt>
      <trkpt lat="42.7739645820" lon="-0.2235685755">
        <ele>2169.83</ele>
        <time>2022-07-13T14:28:09Z</time>
      </trkpt>
      <trkpt lat="42.7740054019" lon="-0.2233371511">
        <ele>2171.76</ele>
        <time>2022-07-13T14:28:25Z</time>
      </trkpt>
      <trkpt lat="42.7740821801" lon="-0.2231997717">
        <ele>2171.76</ele>
        <time>2022-07-13T14:28:38Z</time>
      </trkpt>
      <trkpt lat="42.7741507441" lon="-0.2231228258">
        <ele>2168.39</ele>
        <time>2022-07-13T14:28:47Z</time>
      </trkpt>
      <trkpt lat="42.7741846908" lon="-0.2231653221">
        <ele>2170.31</ele>
        <time>2022-07-13T14:28:54Z</time>
      </trkpt>
      <trkpt lat="42.7742103394" lon="-0.2231827565">
        <ele>2169.35</ele>
        <time>2022-07-13T14:28:57Z</time>
      </trkpt>
      <trkpt lat="42.7743146103" lon="-0.2233257517">
        <ele>2168.39</ele>
        <time>2022-07-13T14:29:10Z</time>
      </trkpt>
      <trkpt lat="42.7743644826" lon="-0.2233850956">
        <ele>2165.99</ele>
        <time>2022-07-13T14:29:21Z</time>
      </trkpt>
      <trkpt lat="42.7743635606" lon="-0.2233468741">
        <ele>2165.51</ele>
        <time>2022-07-13T14:29:24Z</time>
      </trkpt>
      <trkpt lat="42.7743699308" lon="-0.2233275119">
        <ele>2165.03</ele>
        <time>2022-07-13T14:29:37Z</time>
      </trkpt>
      <trkpt lat="42.7743691765" lon="-0.2233301103">
        <ele>2161.66</ele>
        <time>2022-07-13T14:29:38Z</time>
      </trkpt>
      <trkpt lat="42.7743679192" lon="-0.2233357262">
        <ele>2163.58</ele>
        <time>2022-07-13T14:29:39Z</time>
      </trkpt>
      <trkpt lat="42.7743664943" lon="-0.2233187109">
        <ele>2165.03</ele>
        <time>2022-07-13T14:29:50Z</time>
      </trkpt>
      <trkpt lat="42.7743806597" lon="-0.2233083174">
        <ele>2165.03</ele>
        <time>2022-07-13T14:30:23Z</time>
      </trkpt>
      <trkpt lat="42.7743735351" lon="-0.2233060542">
        <ele>2164.06</ele>
        <time>2022-07-13T14:30:45Z</time>
      </trkpt>
      <trkpt lat="42.7743841801" lon="-0.2233075630">
        <ele>2164.06</ele>
        <time>2022-07-13T14:31:14Z</time>
      </trkpt>
      <trkpt lat="42.7743732836" lon="-0.2233184595">
        <ele>2164.06</ele>
        <time>2022-07-13T14:31:39Z</time>
      </trkpt>
      <trkpt lat="42.7743599564" lon="-0.2233227342">
        <ele>2164.06</ele>
        <time>2022-07-13T14:32:17Z</time>
      </trkpt>
      <trkpt lat="42.7743776422" lon="-0.2233110834">
        <ele>2164.06</ele>
        <time>2022-07-13T14:32:23Z</time>
      </trkpt>
      <trkpt lat="42.7743895445" lon="-0.2233216446">
        <ele>2165.99</ele>
        <time>2022-07-13T14:32:27Z</time>
      </trkpt>
      <trkpt lat="42.7743928973" lon="-0.2233215608">
        <ele>2165.99</ele>
        <time>2022-07-13T14:32:40Z</time>
      </trkpt>
      <trkpt lat="42.7743937355" lon="-0.2233240753">
        <ele>2164.55</ele>
        <time>2022-07-13T14:32:43Z</time>
      </trkpt>
      <trkpt lat="42.7743755467" lon="-0.2233495563">
        <ele>2165.51</ele>
        <time>2022-07-13T14:33:01Z</time>
      </trkpt>
      <trkpt lat="42.7743625548" lon="-0.2233881969">
        <ele>2164.55</ele>
        <time>2022-07-13T14:33:04Z</time>
      </trkpt>
      <trkpt lat="42.7743763849" lon="-0.2234225627">
        <ele>2165.99</ele>
        <time>2022-07-13T14:33:11Z</time>
      </trkpt>
      <trkpt lat="42.7743922267" lon="-0.2234954853">
        <ele>2166.47</ele>
        <time>2022-07-13T14:33:17Z</time>
      </trkpt>
      <trkpt lat="42.7744402550" lon="-0.2234957367">
        <ele>2162.62</ele>
        <time>2022-07-13T14:33:26Z</time>
      </trkpt>
      <trkpt lat="42.7744702622" lon="-0.2235788014">
        <ele>2161.66</ele>
        <time>2022-07-13T14:33:34Z</time>
      </trkpt>
      <trkpt lat="42.7744854335" lon="-0.2235993370">
        <ele>2163.58</ele>
        <time>2022-07-13T14:33:36Z</time>
      </trkpt>
      <trkpt lat="42.7745532431" lon="-0.2236414142">
        <ele>2164.55</ele>
        <time>2022-07-13T14:33:48Z</time>
      </trkpt>
      <trkpt lat="42.7745957393" lon="-0.2237138338">
        <ele>2163.58</ele>
        <time>2022-07-13T14:34:01Z</time>
      </trkpt>
      <trkpt lat="42.7746977471" lon="-0.2237462718">
        <ele>2160.70</ele>
        <time>2022-07-13T14:34:14Z</time>
      </trkpt>
      <trkpt lat="42.7747918759" lon="-0.2237808891">
        <ele>2162.62</ele>
        <time>2022-07-13T14:34:29Z</time>
      </trkpt>
      <trkpt lat="42.7748140041" lon="-0.2238145005">
        <ele>2161.18</ele>
        <time>2022-07-13T14:34:46Z</time>
      </trkpt>
      <trkpt lat="42.7748943865" lon="-0.2238187753">
        <ele>2159.74</ele>
        <time>2022-07-13T14:34:58Z</time>
      </trkpt>
      <trkpt lat="42.7749327756" lon="-0.2238300908">
        <ele>2159.74</ele>
        <time>2022-07-13T14:35:04Z</time>
      </trkpt>
      <trkpt lat="42.7750593424" lon="-0.2239123173">
        <ele>2158.78</ele>
        <time>2022-07-13T14:35:20Z</time>
      </trkpt>
      <trkpt lat="42.7750747651" lon="-0.2239276562">
        <ele>2157.34</ele>
        <time>2022-07-13T14:35:22Z</time>
      </trkpt>
      <trkpt lat="42.7751901839" lon="-0.2239838149">
        <ele>2155.89</ele>
        <time>2022-07-13T14:35:35Z</time>
      </trkpt>
      <trkpt lat="42.7752300818" lon="-0.2240121458">
        <ele>2154.45</ele>
        <time>2022-07-13T14:35:46Z</time>
      </trkpt>
      <trkpt lat="42.7752383798" lon="-0.2240113076">
        <ele>2154.45</ele>
        <time>2022-07-13T14:35:47Z</time>
      </trkpt>
      <trkpt lat="42.7753071114" lon="-0.2239647042">
        <ele>2155.89</ele>
        <time>2022-07-13T14:35:58Z</time>
      </trkpt>
      <trkpt lat="42.7753597498" lon="-0.2239802945">
        <ele>2156.37</ele>
        <time>2022-07-13T14:36:05Z</time>
      </trkpt>
      <trkpt lat="42.7754728217" lon="-0.2239966393">
        <ele>2156.37</ele>
        <time>2022-07-13T14:36:19Z</time>
      </trkpt>
      <trkpt lat="42.7755619213" lon="-0.2240055241">
        <ele>2157.34</ele>
        <time>2022-07-13T14:36:32Z</time>
      </trkpt>
      <trkpt lat="42.7755811159" lon="-0.2240047697">
        <ele>2157.34</ele>
        <time>2022-07-13T14:36:34Z</time>
      </trkpt>
      <trkpt lat="42.7756594028" lon="-0.2240386326">
        <ele>2157.82</ele>
        <time>2022-07-13T14:36:43Z</time>
      </trkpt>
      <trkpt lat="42.7757054195" lon="-0.2240790334">
        <ele>2156.37</ele>
        <time>2022-07-13T14:36:53Z</time>
      </trkpt>
      <trkpt lat="42.7757147234" lon="-0.2240838949">
        <ele>2156.37</ele>
        <time>2022-07-13T14:36:54Z</time>
      </trkpt>
      <trkpt lat="42.7757844608" lon="-0.2241631877">
        <ele>2154.93</ele>
        <time>2022-07-13T14:37:06Z</time>
      </trkpt>
      <trkpt lat="42.7758985385" lon="-0.2241726592">
        <ele>2156.37</ele>
        <time>2022-07-13T14:37:21Z</time>
      </trkpt>
      <trkpt lat="42.7759186551" lon="-0.2241899259">
        <ele>2154.93</ele>
        <time>2022-07-13T14:37:27Z</time>
      </trkpt>
      <trkpt lat="42.7759680245" lon="-0.2242039237">
        <ele>2154.45</ele>
        <time>2022-07-13T14:37:33Z</time>
      </trkpt>
      <trkpt lat="42.7760473173" lon="-0.2243081946">
        <ele>2152.53</ele>
        <time>2022-07-13T14:37:45Z</time>
      </trkpt>
      <trkpt lat="42.7761509176" lon="-0.2244313248">
        <ele>2150.13</ele>
        <time>2022-07-13T14:38:00Z</time>
      </trkpt>
      <trkpt lat="42.7761777397" lon="-0.2244774252">
        <ele>2148.68</ele>
        <time>2022-07-13T14:38:05Z</time>
      </trkpt>
      <trkpt lat="42.7762411907" lon="-0.2245723922">
        <ele>2148.20</ele>
        <time>2022-07-13T14:38:14Z</time>
      </trkpt>
      <trkpt lat="42.7763040550" lon="-0.2245308179">
        <ele>2150.61</ele>
        <time>2022-07-13T14:38:27Z</time>
      </trkpt>
      <trkpt lat="42.7763068210" lon="-0.2244545426">
        <ele>2153.49</ele>
        <time>2022-07-13T14:38:40Z</time>
      </trkpt>
      <trkpt lat="42.7763144486" lon="-0.2244677860">
        <ele>2154.45</ele>
        <time>2022-07-13T14:38:53Z</time>
      </trkpt>
      <trkpt lat="42.7763035521" lon="-0.2244359348">
        <ele>2154.45</ele>
        <time>2022-07-13T14:39:06Z</time>
      </trkpt>
      <trkpt lat="42.7762347367" lon="-0.2243827935">
        <ele>2156.86</ele>
        <time>2022-07-13T14:39:19Z</time>
      </trkpt>
      <trkpt lat="42.7762665879" lon="-0.2243580669">
        <ele>2158.78</ele>
        <time>2022-07-13T14:39:33Z</time>
      </trkpt>
      <trkpt lat="42.7763102576" lon="-0.2243725676">
        <ele>2158.78</ele>
        <time>2022-07-13T14:39:39Z</time>
      </trkpt>
      <trkpt lat="42.7763650753" lon="-0.2243684605">
        <ele>2159.26</ele>
        <time>2022-07-13T14:39:44Z</time>
      </trkpt>
      <trkpt lat="42.7764978446" lon="-0.2245387807">
        <ele>2160.70</ele>
        <time>2022-07-13T14:40:00Z</time>
      </trkpt>
      <trkpt lat="42.7765722759" lon="-0.2246475779">
        <ele>2162.62</ele>
        <time>2022-07-13T14:40:14Z</time>
      </trkpt>
      <trkpt lat="42.7765792329" lon="-0.2247034851">
        <ele>2164.06</ele>
        <time>2022-07-13T14:40:19Z</time>
      </trkpt>
      <trkpt lat="42.7766571008" lon="-0.2248030622">
        <ele>2164.55</ele>
        <time>2022-07-13T14:40:29Z</time>
      </trkpt>
      <trkpt lat="42.7766939811" lon="-0.2248364221">
        <ele>2164.55</ele>
        <time>2022-07-13T14:40:33Z</time>
      </trkpt>
      <trkpt lat="42.7767092362" lon="-0.2248691954">
        <ele>2164.55</ele>
        <time>2022-07-13T14:40:36Z</time>
      </trkpt>
      <trkpt lat="42.7767254133" lon="-0.2248862106">
        <ele>2164.55</ele>
        <time>2022-07-13T14:40:38Z</time>
      </trkpt>
      <trkpt lat="42.7768197935" lon="-0.2250375040">
        <ele>2161.18</ele>
        <time>2022-07-13T14:40:52Z</time>
      </trkpt>
      <trkpt lat="42.7769614477" lon="-0.2251643222">
        <ele>2161.18</ele>
        <time>2022-07-13T14:41:06Z</time>
      </trkpt>
      <trkpt lat="42.7769948915" lon="-0.2251920663">
        <ele>2162.62</ele>
        <time>2022-07-13T14:41:11Z</time>
      </trkpt>
      <trkpt lat="42.7771228831" lon="-0.2252215706">
        <ele>2165.51</ele>
        <time>2022-07-13T14:41:25Z</time>
      </trkpt>
      <trkpt lat="42.7772087138" lon="-0.2252325509">
        <ele>2167.43</ele>
        <time>2022-07-13T14:41:37Z</time>
      </trkpt>
      <trkpt lat="42.7772802114" lon="-0.2252651565">
        <ele>2169.35</ele>
        <time>2022-07-13T14:41:45Z</time>
      </trkpt>
      <trkpt lat="42.7773364540" lon="-0.2252970077">
        <ele>2169.83</ele>
        <time>2022-07-13T14:41:52Z</time>
      </trkpt>
      <trkpt lat="42.7774434071" lon="-0.2254127618">
        <ele>2170.79</ele>
        <time>2022-07-13T14:42:05Z</time>
      </trkpt>
      <trkpt lat="42.7775906771" lon="-0.2255674079">
        <ele>2171.27</ele>
        <time>2022-07-13T14:42:19Z</time>
      </trkpt>
      <trkpt lat="42.7776002325" lon="-0.2255738620">
        <ele>2171.76</ele>
        <time>2022-07-13T14:42:20Z</time>
      </trkpt>
      <trkpt lat="42.7777156513" lon="-0.2256369777">
        <ele>2173.20</ele>
        <time>2022-07-13T14:42:32Z</time>
      </trkpt>
      <trkpt lat="42.7778164856" lon="-0.2256767917">
        <ele>2172.72</ele>
        <time>2022-07-13T14:42:41Z</time>
      </trkpt>
      <trkpt lat="42.7779205889" lon="-0.2257417515">
        <ele>2171.27</ele>
        <time>2022-07-13T14:42:54Z</time>
      </trkpt>
      <trkpt lat="42.7779449802" lon="-0.2257320285">
        <ele>2169.83</ele>
        <time>2022-07-13T14:42:58Z</time>
      </trkpt>
      <trkpt lat="42.7780403662" lon="-0.2257447690">
        <ele>2168.39</ele>
        <time>2022-07-13T14:43:09Z</time>
      </trkpt>
      <trkpt lat="42.7780727204" lon="-0.2257545758">
        <ele>2167.43</ele>
        <time>2022-07-13T14:43:12Z</time>
      </trkpt>
      <trkpt lat="42.7781329863" lon="-0.2258778736">
        <ele>2165.03</ele>
        <time>2022-07-13T14:43:25Z</time>
      </trkpt>
      <trkpt lat="42.7781662624" lon="-0.2259003371">
        <ele>2163.10</ele>
        <time>2022-07-13T14:43:29Z</time>
      </trkpt>
      <trkpt lat="42.7781818528" lon="-0.2259618603">
        <ele>2162.14</ele>
        <time>2022-07-13T14:43:33Z</time>
      </trkpt>
      <trkpt lat="42.7782480698" lon="-0.2260322683">
        <ele>2161.66</ele>
        <time>2022-07-13T14:43:42Z</time>
      </trkpt>
      <trkpt lat="42.7782857046" lon="-0.2260238864">
        <ele>2161.66</ele>
        <time>2022-07-13T14:43:46Z</time>
      </trkpt>
      <trkpt lat="42.7784518339" lon="-0.2259909455">
        <ele>2163.58</ele>
        <time>2022-07-13T14:44:02Z</time>
      </trkpt>
      <trkpt lat="42.7785662469" lon="-0.2259907778">
        <ele>2162.14</ele>
        <time>2022-07-13T14:44:14Z</time>
      </trkpt>
      <trkpt lat="42.7786260098" lon="-0.2259965613">
        <ele>2162.14</ele>
        <time>2022-07-13T14:44:19Z</time>
      </trkpt>
      <trkpt lat="42.7787479665" lon="-0.2258707490">
        <ele>2163.58</ele>
        <time>2022-07-13T14:44:32Z</time>
      </trkpt>
      <trkpt lat="42.7787708491" lon="-0.2258549072">
        <ele>2163.58</ele>
        <time>2022-07-13T14:44:34Z</time>
      </trkpt>
      <trkpt lat="42.7788224816" lon="-0.2258733474">
        <ele>2163.58</ele>
        <time>2022-07-13T14:44:38Z</time>
      </trkpt>
      <trkpt lat="42.7790309396" lon="-0.2259554062">
        <ele>2164.06</ele>
        <time>2022-07-13T14:44:54Z</time>
      </trkpt>
      <trkpt lat="42.7792156767" lon="-0.2259837370">
        <ele>2164.06</ele>
        <time>2022-07-13T14:45:08Z</time>
      </trkpt>
      <trkpt lat="42.7793929540" lon="-0.2259926219">
        <ele>2164.55</ele>
        <time>2022-07-13T14:45:22Z</time>
      </trkpt>
      <trkpt lat="42.7794932015" lon="-0.2259932924">
        <ele>2164.55</ele>
        <time>2022-07-13T14:45:30Z</time>
      </trkpt>
      <trkpt lat="42.7796889190" lon="-0.2260038536">
        <ele>2165.51</ele>
        <time>2022-07-13T14:45:46Z</time>
      </trkpt>
      <trkpt lat="42.7799084410" lon="-0.2260056138">
        <ele>2166.47</ele>
        <time>2022-07-13T14:46:03Z</time>
      </trkpt>
      <trkpt lat="42.7800179925" lon="-0.2259936277">
        <ele>2166.95</ele>
        <time>2022-07-13T14:46:11Z</time>
      </trkpt>
      <trkpt lat="42.7801005542" lon="-0.2261323482">
        <ele>2166.47</ele>
        <time>2022-07-13T14:46:22Z</time>
      </trkpt>
      <trkpt lat="42.7801797632" lon="-0.2262724936">
        <ele>2166.47</ele>
        <time>2022-07-13T14:46:33Z</time>
      </trkpt>
      <trkpt lat="42.7802235167" lon="-0.2262673806">
        <ele>2166.47</ele>
        <time>2022-07-13T14:46:37Z</time>
      </trkpt>
      <trkpt lat="42.7802593913" lon="-0.2262887545">
        <ele>2166.47</ele>
        <time>2022-07-13T14:46:41Z</time>
      </trkpt>
      <trkpt lat="42.7802832797" lon="-0.2263325918">
        <ele>2167.91</ele>
        <time>2022-07-13T14:46:45Z</time>
      </trkpt>
      <trkpt lat="42.7802850399" lon="-0.2263549715">
        <ele>2168.87</ele>
        <time>2022-07-13T14:46:47Z</time>
      </trkpt>
      <trkpt lat="42.7802843694" lon="-0.2263836376">
        <ele>2170.31</ele>
        <time>2022-07-13T14:46:49Z</time>
      </trkpt>
      <trkpt lat="42.7802844532" lon="-0.2264955360">
        <ele>2170.79</ele>
        <time>2022-07-13T14:46:55Z</time>
      </trkpt>
      <trkpt lat="42.7802717127" lon="-0.2265912574">
        <ele>2172.24</ele>
        <time>2022-07-13T14:47:03Z</time>
      </trkpt>
      <trkpt lat="42.7802479081" lon="-0.2267295588">
        <ele>2174.64</ele>
        <time>2022-07-13T14:47:15Z</time>
      </trkpt>
      <trkpt lat="42.7802868001" lon="-0.2268636692">
        <ele>2176.08</ele>
        <time>2022-07-13T14:47:31Z</time>
      </trkpt>
      <trkpt lat="42.7802914940" lon="-0.2268999629">
        <ele>2176.08</ele>
        <time>2022-07-13T14:47:38Z</time>
      </trkpt>
      <trkpt lat="42.7803184837" lon="-0.2268811874">
        <ele>2176.08</ele>
        <time>2022-07-13T14:47:41Z</time>
      </trkpt>
      <trkpt lat="42.7803821862" lon="-0.2268629149">
        <ele>2176.08</ele>
        <time>2022-07-13T14:47:46Z</time>
      </trkpt>
      <trkpt lat="42.7804152947" lon="-0.2269489132">
        <ele>2177.52</ele>
        <time>2022-07-13T14:47:54Z</time>
      </trkpt>
      <trkpt lat="42.7804292087" lon="-0.2269641683">
        <ele>2178.48</ele>
        <time>2022-07-13T14:47:57Z</time>
      </trkpt>
      <trkpt lat="42.7804311365" lon="-0.2269555349">
        <ele>2179.93</ele>
        <time>2022-07-13T14:48:08Z</time>
      </trkpt>
      <trkpt lat="42.7804248501" lon="-0.2269657608">
        <ele>2179.93</ele>
        <time>2022-07-13T14:48:10Z</time>
      </trkpt>
      <trkpt lat="42.7803230099" lon="-0.2271416131">
        <ele>2182.33</ele>
        <time>2022-07-13T14:48:24Z</time>
      </trkpt>
      <trkpt lat="42.7802614029" lon="-0.2272110153">
        <ele>2182.81</ele>
        <time>2022-07-13T14:48:31Z</time>
      </trkpt>
      <trkpt lat="42.7802318987" lon="-0.2272778191">
        <ele>2183.77</ele>
        <time>2022-07-13T14:48:36Z</time>
      </trkpt>
      <trkpt lat="42.7802474890" lon="-0.2275294438">
        <ele>2185.69</ele>
        <time>2022-07-13T14:48:53Z</time>
      </trkpt>
      <trkpt lat="42.7801728062" lon="-0.2277409192">
        <ele>2186.18</ele>
        <time>2022-07-13T14:49:06Z</time>
      </trkpt>
      <trkpt lat="42.7801239397" lon="-0.2278035320">
        <ele>2186.66</ele>
        <time>2022-07-13T14:49:12Z</time>
      </trkpt>
      <trkpt lat="42.7800564654" lon="-0.2277300227">
        <ele>2186.66</ele>
        <time>2022-07-13T14:49:26Z</time>
      </trkpt>
      <trkpt lat="42.7800615784" lon="-0.2277430985">
        <ele>2187.14</ele>
        <time>2022-07-13T14:49:55Z</time>
      </trkpt>
      <trkpt lat="42.7801193297" lon="-0.2278234810">
        <ele>2187.14</ele>
        <time>2022-07-13T14:50:01Z</time>
      </trkpt>
      <trkpt lat="42.7802375145" lon="-0.2280647121">
        <ele>2187.14</ele>
        <time>2022-07-13T14:50:16Z</time>
      </trkpt>
      <trkpt lat="42.7802416217" lon="-0.2281052805">
        <ele>2186.18</ele>
        <time>2022-07-13T14:50:18Z</time>
      </trkpt>
      <trkpt lat="42.7803085092" lon="-0.2282948792">
        <ele>2184.25</ele>
        <time>2022-07-13T14:50:32Z</time>
      </trkpt>
      <trkpt lat="42.7803504188" lon="-0.2283958811">
        <ele>2180.41</ele>
        <time>2022-07-13T14:50:43Z</time>
      </trkpt>
      <trkpt lat="42.7803722117" lon="-0.2284048498">
        <ele>2179.45</ele>
        <time>2022-07-13T14:50:46Z</time>
      </trkpt>
      <trkpt lat="42.7804009616" lon="-0.2285050973">
        <ele>2176.08</ele>
        <time>2022-07-13T14:50:58Z</time>
      </trkpt>
      <trkpt lat="42.7804048173" lon="-0.2285739966">
        <ele>2175.12</ele>
        <time>2022-07-13T14:51:05Z</time>
      </trkpt>
      <trkpt lat="42.7804175578" lon="-0.2286349330">
        <ele>2173.68</ele>
        <time>2022-07-13T14:51:10Z</time>
      </trkpt>
      <trkpt lat="42.7804103494" lon="-0.2286776807">
        <ele>2171.76</ele>
        <time>2022-07-13T14:51:14Z</time>
      </trkpt>
      <trkpt lat="42.7804177254" lon="-0.2287044190">
        <ele>2173.20</ele>
        <time>2022-07-13T14:51:17Z</time>
      </trkpt>
      <trkpt lat="42.7804263588" lon="-0.2287073527">
        <ele>2173.20</ele>
        <time>2022-07-13T14:51:18Z</time>
      </trkpt>
      <trkpt lat="42.7804474812" lon="-0.2287154831">
        <ele>2171.27</ele>
        <time>2022-07-13T14:51:20Z</time>
      </trkpt>
      <trkpt lat="42.7804830205" lon="-0.2288020682">
        <ele>2170.31</ele>
        <time>2022-07-13T14:51:26Z</time>
      </trkpt>
      <trkpt lat="42.7805152908" lon="-0.2288468275">
        <ele>2171.76</ele>
        <time>2022-07-13T14:51:31Z</time>
      </trkpt>
      <trkpt lat="42.7806520835" lon="-0.2289060038">
        <ele>2170.31</ele>
        <time>2022-07-13T14:51:43Z</time>
      </trkpt>
      <trkpt lat="42.7807601262" lon="-0.2290179022">
        <ele>2170.31</ele>
        <time>2022-07-13T14:51:57Z</time>
      </trkpt>
      <trkpt lat="42.7808098309" lon="-0.2291117795">
        <ele>2173.68</ele>
        <time>2022-07-13T14:52:07Z</time>
      </trkpt>
      <trkpt lat="42.7808229066" lon="-0.2291252743">
        <ele>2174.16</ele>
        <time>2022-07-13T14:52:09Z</time>
      </trkpt>
      <trkpt lat="42.7808330487" lon="-0.2292893920">
        <ele>2174.64</ele>
        <time>2022-07-13T14:52:24Z</time>
      </trkpt>
      <trkpt lat="42.7808649000" lon="-0.2294520847">
        <ele>2177.52</ele>
        <time>2022-07-13T14:52:39Z</time>
      </trkpt>
      <trkpt lat="42.7808725275" lon="-0.2295007836">
        <ele>2178.97</ele>
        <time>2022-07-13T14:52:43Z</time>
      </trkpt>
      <trkpt lat="42.7808989305" lon="-0.2296188008">
        <ele>2181.37</ele>
        <time>2022-07-13T14:52:59Z</time>
      </trkpt>
      <trkpt lat="42.7809248306" lon="-0.2296153642">
        <ele>2182.81</ele>
        <time>2022-07-13T14:53:11Z</time>
      </trkpt>
      <trkpt lat="42.7809594478" lon="-0.2294377517">
        <ele>2184.73</ele>
        <time>2022-07-13T14:53:25Z</time>
      </trkpt>
      <trkpt lat="42.7809546702" lon="-0.2293467242">
        <ele>2185.69</ele>
        <time>2022-07-13T14:53:31Z</time>
      </trkpt>
      <trkpt lat="42.7809649799" lon="-0.2292261086">
        <ele>2189.54</ele>
        <time>2022-07-13T14:53:43Z</time>
      </trkpt>
      <trkpt lat="42.7809670754" lon="-0.2291961852">
        <ele>2189.54</ele>
        <time>2022-07-13T14:53:45Z</time>
      </trkpt>
      <trkpt lat="42.7809729427" lon="-0.2291520126">
        <ele>2189.54</ele>
        <time>2022-07-13T14:53:48Z</time>
      </trkpt>
      <trkpt lat="42.7810083143" lon="-0.2290534414">
        <ele>2186.66</ele>
        <time>2022-07-13T14:53:56Z</time>
      </trkpt>
      <trkpt lat="42.7810943965" lon="-0.2289305627">
        <ele>2184.73</ele>
        <time>2022-07-13T14:54:09Z</time>
      </trkpt>
      <trkpt lat="42.7811666485" lon="-0.2287790179">
        <ele>2183.29</ele>
        <time>2022-07-13T14:54:22Z</time>
      </trkpt>
      <trkpt lat="42.7812166046" lon="-0.2287130523">
        <ele>2182.81</ele>
        <time>2022-07-13T14:54:29Z</time>
      </trkpt>
      <trkpt lat="42.7812443487" lon="-0.2287330851">
        <ele>2182.33</ele>
        <time>2022-07-13T14:54:33Z</time>
      </trkpt>
      <trkpt lat="42.7812730987" lon="-0.2287559677">
        <ele>2184.73</ele>
        <time>2022-07-13T14:54:37Z</time>
      </trkpt>
      <trkpt lat="42.7814011741" lon="-0.2287840471">
        <ele>2184.73</ele>
        <time>2022-07-13T14:54:51Z</time>
      </trkpt>
      <trkpt lat="42.7814922854" lon="-0.2287542075">
        <ele>2185.21</ele>
        <time>2022-07-13T14:54:59Z</time>
      </trkpt>
      <trkpt lat="42.7816315088" lon="-0.2286954504">
        <ele>2187.14</ele>
        <time>2022-07-13T14:55:15Z</time>
      </trkpt>
      <trkpt lat="42.7817205247" lon="-0.2286531217">
        <ele>2188.58</ele>
        <time>2022-07-13T14:55:27Z</time>
      </trkpt>
      <trkpt lat="42.7818061877" lon="-0.2285697218">
        <ele>2189.06</ele>
        <time>2022-07-13T14:55:40Z</time>
      </trkpt>
      <trkpt lat="42.7818227001" lon="-0.2285292372">
        <ele>2189.54</ele>
        <time>2022-07-13T14:55:44Z</time>
      </trkpt>
      <trkpt lat="42.7818372007" lon="-0.2285094559">
        <ele>2189.54</ele>
        <time>2022-07-13T14:55:46Z</time>
      </trkpt>
      <trkpt lat="42.7819267195" lon="-0.2283386327">
        <ele>2189.54</ele>
        <time>2022-07-13T14:56:02Z</time>
      </trkpt>
      <trkpt lat="42.7819897514" lon="-0.2281225473">
        <ele>2189.54</ele>
        <time>2022-07-13T14:56:16Z</time>
      </trkpt>
      <trkpt lat="42.7820443176" lon="-0.2279083896">
        <ele>2190.02</ele>
        <time>2022-07-13T14:56:30Z</time>
      </trkpt>
      <trkpt lat="42.7820527833" lon="-0.2277484629">
        <ele>2191.94</ele>
        <time>2022-07-13T14:56:43Z</time>
      </trkpt>
      <trkpt lat="42.7820723969" lon="-0.2277086489">
        <ele>2192.90</ele>
        <time>2022-07-13T14:56:47Z</time>
      </trkpt>
      <trkpt lat="42.7821419667" lon="-0.2275958285">
        <ele>2194.83</ele>
        <time>2022-07-13T14:57:01Z</time>
      </trkpt>
      <trkpt lat="42.7821739856" lon="-0.2275200561">
        <ele>2196.75</ele>
        <time>2022-07-13T14:57:10Z</time>
      </trkpt>
      <trkpt lat="42.7822022326" lon="-0.2274286933">
        <ele>2195.79</ele>
        <time>2022-07-13T14:57:17Z</time>
      </trkpt>
      <trkpt lat="42.7822497580" lon="-0.2273685951">
        <ele>2195.79</ele>
        <time>2022-07-13T14:57:25Z</time>
      </trkpt>
      <trkpt lat="42.7822709642" lon="-0.2273348160">
        <ele>2196.75</ele>
        <time>2022-07-13T14:57:33Z</time>
      </trkpt>
      <trkpt lat="42.7823082637" lon="-0.2272017114">
        <ele>2199.63</ele>
        <time>2022-07-13T14:57:45Z</time>
      </trkpt>
      <trkpt lat="42.7823509276" lon="-0.2271325607">
        <ele>2201.56</ele>
        <time>2022-07-13T14:57:56Z</time>
      </trkpt>
      <trkpt lat="42.7823896520" lon="-0.2270520944">
        <ele>2203.96</ele>
        <time>2022-07-13T14:58:08Z</time>
      </trkpt>
      <trkpt lat="42.7824018896" lon="-0.2269507572">
        <ele>2206.36</ele>
        <time>2022-07-13T14:58:23Z</time>
      </trkpt>
      <trkpt lat="42.7824032307" lon="-0.2269137092">
        <ele>2206.84</ele>
        <time>2022-07-13T14:58:39Z</time>
      </trkpt>
      <trkpt lat="42.7824705373" lon="-0.2268923353">
        <ele>2206.84</ele>
        <time>2022-07-13T14:59:01Z</time>
      </trkpt>
      <trkpt lat="42.7824659273" lon="-0.2268697042">
        <ele>2207.32</ele>
        <time>2022-07-13T14:59:22Z</time>
      </trkpt>
      <trkpt lat="42.7824948449" lon="-0.2268070076">
        <ele>2208.29</ele>
        <time>2022-07-13T14:59:33Z</time>
      </trkpt>
      <trkpt lat="42.7825015504" lon="-0.2267330792">
        <ele>2209.25</ele>
        <time>2022-07-13T14:59:38Z</time>
      </trkpt>
      <trkpt lat="42.7825084236" lon="-0.2265265491">
        <ele>2210.69</ele>
        <time>2022-07-13T14:59:51Z</time>
      </trkpt>
      <trkpt lat="42.7824464813" lon="-0.2263279818">
        <ele>2211.65</ele>
        <time>2022-07-13T15:00:03Z</time>
      </trkpt>
      <trkpt lat="42.7824770752" lon="-0.2261764370">
        <ele>2213.09</ele>
        <time>2022-07-13T15:00:16Z</time>
      </trkpt>
      <trkpt lat="42.7824796736" lon="-0.2261601761">
        <ele>2213.09</ele>
        <time>2022-07-13T15:00:19Z</time>
      </trkpt>
      <trkpt lat="42.7825031430" lon="-0.2259811386">
        <ele>2214.05</ele>
        <time>2022-07-13T15:00:35Z</time>
      </trkpt>
      <trkpt lat="42.7825676836" lon="-0.2258486208">
        <ele>2215.50</ele>
        <time>2022-07-13T15:00:49Z</time>
      </trkpt>
      <trkpt lat="42.7825863753" lon="-0.2258212119">
        <ele>2214.05</ele>
        <time>2022-07-13T15:00:52Z</time>
      </trkpt>
      <trkpt lat="42.7826197352" lon="-0.2255950682">
        <ele>2213.57</ele>
        <time>2022-07-13T15:01:08Z</time>
      </trkpt>
      <trkpt lat="42.7826513350" lon="-0.2255265880">
        <ele>2215.01</ele>
        <time>2022-07-13T15:01:15Z</time>
      </trkpt>
      <trkpt lat="42.7826877125" lon="-0.2254235744">
        <ele>2215.50</ele>
        <time>2022-07-13T15:01:24Z</time>
      </trkpt>
      <trkpt lat="42.7827059850" lon="-0.2253863588">
        <ele>2215.50</ele>
        <time>2022-07-13T15:01:27Z</time>
      </trkpt>
      <trkpt lat="42.7827384230" lon="-0.2253260929">
        <ele>2215.50</ele>
        <time>2022-07-13T15:01:32Z</time>
      </trkpt>
      <trkpt lat="42.7827794943" lon="-0.2251394279">
        <ele>2216.94</ele>
        <time>2022-07-13T15:01:46Z</time>
      </trkpt>
      <trkpt lat="42.7828423586" lon="-0.2249791659">
        <ele>2216.94</ele>
        <time>2022-07-13T15:01:59Z</time>
      </trkpt>
      <trkpt lat="42.7828814182" lon="-0.2248064149">
        <ele>2217.42</ele>
        <time>2022-07-13T15:02:12Z</time>
      </trkpt>
      <trkpt lat="42.7829175442" lon="-0.2247009706">
        <ele>2217.42</ele>
        <time>2022-07-13T15:02:20Z</time>
      </trkpt>
      <trkpt lat="42.7829567716" lon="-0.2246033214">
        <ele>2217.42</ele>
        <time>2022-07-13T15:02:28Z</time>
      </trkpt>
      <trkpt lat="42.7829576936" lon="-0.2245780919">
        <ele>2217.90</ele>
        <time>2022-07-13T15:02:30Z</time>
      </trkpt>
      <trkpt lat="42.7829628903" lon="-0.2245560475">
        <ele>2218.38</ele>
        <time>2022-07-13T15:02:32Z</time>
      </trkpt>
      <trkpt lat="42.7830253355" lon="-0.2244293969">
        <ele>2218.38</ele>
        <time>2022-07-13T15:02:42Z</time>
      </trkpt>
      <trkpt lat="42.7830470446" lon="-0.2243838832">
        <ele>2217.42</ele>
        <time>2022-07-13T15:02:46Z</time>
      </trkpt>
      <trkpt lat="42.7831168659" lon="-0.2243136428">
        <ele>2218.38</ele>
        <time>2022-07-13T15:02:56Z</time>
      </trkpt>
      <trkpt lat="42.7831923030" lon="-0.2242197655">
        <ele>2220.78</ele>
        <time>2022-07-13T15:03:09Z</time>
      </trkpt>
      <trkpt lat="42.7832724340" lon="-0.2241267264">
        <ele>2223.67</ele>
        <time>2022-07-13T15:03:23Z</time>
      </trkpt>
      <trkpt lat="42.7832876053" lon="-0.2241304982">
        <ele>2223.67</ele>
        <time>2022-07-13T15:03:25Z</time>
      </trkpt>
      <trkpt lat="42.7833611146" lon="-0.2241191827">
        <ele>2223.67</ele>
        <time>2022-07-13T15:03:31Z</time>
      </trkpt>
      <trkpt lat="42.7833787166" lon="-0.2241398860">
        <ele>2223.67</ele>
        <time>2022-07-13T15:03:33Z</time>
      </trkpt>
      <trkpt lat="42.7834117413" lon="-0.2242245432">
        <ele>2224.15</ele>
        <time>2022-07-13T15:03:42Z</time>
      </trkpt>
      <trkpt lat="42.7835544012" lon="-0.2243137266">
        <ele>2225.59</ele>
        <time>2022-07-13T15:03:57Z</time>
      </trkpt>
      <trkpt lat="42.7836521342" lon="-0.2243686281">
        <ele>2226.55</ele>
        <time>2022-07-13T15:04:06Z</time>
      </trkpt>
      <trkpt lat="42.7837647032" lon="-0.2244193386">
        <ele>2227.03</ele>
        <time>2022-07-13T15:04:17Z</time>
      </trkpt>
      <trkpt lat="42.7837843169" lon="-0.2244290616">
        <ele>2227.51</ele>
        <time>2022-07-13T15:04:19Z</time>
      </trkpt>
      <trkpt lat="42.7838102169" lon="-0.2244627569">
        <ele>2227.51</ele>
        <time>2022-07-13T15:04:22Z</time>
      </trkpt>
      <trkpt lat="42.7838973887" lon="-0.2245252859">
        <ele>2228.47</ele>
        <time>2022-07-13T15:04:30Z</time>
      </trkpt>
      <trkpt lat="42.7839139011" lon="-0.2245473303">
        <ele>2228.95</ele>
        <time>2022-07-13T15:04:32Z</time>
      </trkpt>
      <trkpt lat="42.7839881647" lon="-0.2246058360">
        <ele>2229.43</ele>
        <time>2022-07-13T15:04:40Z</time>
      </trkpt>
      <trkpt lat="42.7840398811" lon="-0.2246728912">
        <ele>2229.43</ele>
        <time>2022-07-13T15:04:47Z</time>
      </trkpt>
      <trkpt lat="42.7840668708" lon="-0.2246714663">
        <ele>2229.43</ele>
        <time>2022-07-13T15:04:50Z</time>
      </trkpt>
      <trkpt lat="42.7841400448" lon="-0.2246914990">
        <ele>2230.40</ele>
        <time>2022-07-13T15:04:59Z</time>
      </trkpt>
      <trkpt lat="42.7841611672" lon="-0.2246784233">
        <ele>2230.40</ele>
        <time>2022-07-13T15:05:01Z</time>
      </trkpt>
      <trkpt lat="42.7842885721" lon="-0.2246759087">
        <ele>2230.40</ele>
        <time>2022-07-13T15:05:14Z</time>
      </trkpt>
      <trkpt lat="42.7844067570" lon="-0.2246349212">
        <ele>2230.88</ele>
        <time>2022-07-13T15:05:26Z</time>
      </trkpt>
      <trkpt lat="42.7844194137" lon="-0.2246297244">
        <ele>2230.88</ele>
        <time>2022-07-13T15:05:27Z</time>
      </trkpt>
      <trkpt lat="42.7845201641" lon="-0.2245783433">
        <ele>2230.88</ele>
        <time>2022-07-13T15:05:36Z</time>
      </trkpt>
      <trkpt lat="42.7846002113" lon="-0.2245382778">
        <ele>2230.88</ele>
        <time>2022-07-13T15:05:44Z</time>
      </trkpt>
      <trkpt lat="42.7846176457" lon="-0.2245704643">
        <ele>2230.88</ele>
        <time>2022-07-13T15:05:47Z</time>
      </trkpt>
      <trkpt lat="42.7846448030" lon="-0.2245828696">
        <ele>2230.88</ele>
        <time>2022-07-13T15:05:50Z</time>
      </trkpt>
      <trkpt lat="42.7846637461" lon="-0.2246463206">
        <ele>2231.36</ele>
        <time>2022-07-13T15:05:54Z</time>
      </trkpt>
      <trkpt lat="42.7846919931" lon="-0.2246500086">
        <ele>2231.36</ele>
        <time>2022-07-13T15:05:56Z</time>
      </trkpt>
      <trkpt lat="42.7847523428" lon="-0.2247510944">
        <ele>2231.36</ele>
        <time>2022-07-13T15:06:04Z</time>
      </trkpt>
      <trkpt lat="42.7847813442" lon="-0.2248008829">
        <ele>2231.84</ele>
        <time>2022-07-13T15:06:08Z</time>
      </trkpt>
      <trkpt lat="42.7848104294" lon="-0.2248101030">
        <ele>2232.32</ele>
        <time>2022-07-13T15:06:11Z</time>
      </trkpt>
      <trkpt lat="42.7848276962" lon="-0.2248241846">
        <ele>2232.32</ele>
        <time>2022-07-13T15:06:13Z</time>
      </trkpt>
      <trkpt lat="42.7849484794" lon="-0.2250113524">
        <ele>2234.24</ele>
        <time>2022-07-13T15:06:30Z</time>
      </trkpt>
      <trkpt lat="42.7849622257" lon="-0.2250521723">
        <ele>2234.24</ele>
        <time>2022-07-13T15:06:33Z</time>
      </trkpt>
      <trkpt lat="42.7849888802" lon="-0.2250871249">
        <ele>2234.72</ele>
        <time>2022-07-13T15:06:37Z</time>
      </trkpt>
      <trkpt lat="42.7850897983" lon="-0.2252197266">
        <ele>2235.68</ele>
        <time>2022-07-13T15:06:52Z</time>
      </trkpt>
      <trkpt lat="42.7851314563" lon="-0.2252576966">
        <ele>2235.68</ele>
        <time>2022-07-13T15:06:58Z</time>
      </trkpt>
      <trkpt lat="42.7851641458" lon="-0.2252740413">
        <ele>2235.68</ele>
        <time>2022-07-13T15:07:01Z</time>
      </trkpt>
      <trkpt lat="42.7852123417" lon="-0.2253278531">
        <ele>2234.24</ele>
        <time>2022-07-13T15:07:08Z</time>
      </trkpt>
      <trkpt lat="42.7852114197" lon="-0.2252620552">
        <ele>2233.28</ele>
        <time>2022-07-13T15:07:18Z</time>
      </trkpt>
      <trkpt lat="42.7852653991" lon="-0.2252576128">
        <ele>2231.84</ele>
        <time>2022-07-13T15:07:28Z</time>
      </trkpt>
      <trkpt lat="42.7852880303" lon="-0.2252601273">
        <ele>2230.40</ele>
        <time>2022-07-13T15:07:30Z</time>
      </trkpt>
      <trkpt lat="42.7853021119" lon="-0.2252794895">
        <ele>2230.40</ele>
        <time>2022-07-13T15:07:32Z</time>
      </trkpt>
      <trkpt lat="42.7853846736" lon="-0.2252752986">
        <ele>2228.47</ele>
        <time>2022-07-13T15:07:45Z</time>
      </trkpt>
      <trkpt lat="42.7853963245" lon="-0.2252854407">
        <ele>2227.51</ele>
        <time>2022-07-13T15:07:48Z</time>
      </trkpt>
      <trkpt lat="42.7854117472" lon="-0.2253136039">
        <ele>2227.03</ele>
        <time>2022-07-13T15:07:50Z</time>
      </trkpt>
      <trkpt lat="42.7855622023" lon="-0.2254212275">
        <ele>2225.11</ele>
        <time>2022-07-13T15:08:04Z</time>
      </trkpt>
      <trkpt lat="42.7856417466" lon="-0.2255030349">
        <ele>2226.55</ele>
        <time>2022-07-13T15:08:15Z</time>
      </trkpt>
      <trkpt lat="42.7856761124" lon="-0.2255485486">
        <ele>2227.99</ele>
        <time>2022-07-13T15:08:21Z</time>
      </trkpt>
      <trkpt lat="42.7857475262" lon="-0.2257026080">
        <ele>2228.47</ele>
        <time>2022-07-13T15:08:34Z</time>
      </trkpt>
      <trkpt lat="42.7857724205" lon="-0.2258773707">
        <ele>2229.92</ele>
        <time>2022-07-13T15:08:47Z</time>
      </trkpt>
      <trkpt lat="42.7857806347" lon="-0.2258849144">
        <ele>2229.92</ele>
        <time>2022-07-13T15:08:48Z</time>
      </trkpt>
      <trkpt lat="42.7858631127" lon="-0.2259300090">
        <ele>2229.92</ele>
        <time>2022-07-13T15:08:56Z</time>
      </trkpt>
      <trkpt lat="42.7858849056" lon="-0.2259606030">
        <ele>2229.92</ele>
        <time>2022-07-13T15:08:59Z</time>
      </trkpt>
      <trkpt lat="42.7859777771" lon="-0.2260601800">
        <ele>2229.92</ele>
        <time>2022-07-13T15:09:12Z</time>
      </trkpt>
      <trkpt lat="42.7860199381" lon="-0.2261072025">
        <ele>2228.47</ele>
        <time>2022-07-13T15:09:18Z</time>
      </trkpt>
      <trkpt lat="42.7860820480" lon="-0.2261893451">
        <ele>2227.03</ele>
        <time>2022-07-13T15:09:28Z</time>
      </trkpt>
      <trkpt lat="42.7861656994" lon="-0.2262678836">
        <ele>2226.55</ele>
        <time>2022-07-13T15:09:39Z</time>
      </trkpt>
      <trkpt lat="42.7861782722" lon="-0.2262844797">
        <ele>2227.99</ele>
        <time>2022-07-13T15:09:41Z</time>
      </trkpt>
      <trkpt lat="42.7862047590" lon="-0.2263500262">
        <ele>2229.92</ele>
        <time>2022-07-13T15:09:50Z</time>
      </trkpt>
      <trkpt lat="42.7862172481" lon="-0.2264405508">
        <ele>2231.84</ele>
        <time>2022-07-13T15:10:04Z</time>
      </trkpt>
      <trkpt lat="42.7861645259" lon="-0.2264827956">
        <ele>2234.24</ele>
        <time>2022-07-13T15:10:15Z</time>
      </trkpt>
      <trkpt lat="42.7861861512" lon="-0.2266121283">
        <ele>2237.61</ele>
        <time>2022-07-13T15:10:29Z</time>
      </trkpt>
      <trkpt lat="42.7861934435" lon="-0.2267187461">
        <ele>2239.05</ele>
        <time>2022-07-13T15:10:42Z</time>
      </trkpt>
      <trkpt lat="42.7862255462" lon="-0.2268290520">
        <ele>2240.97</ele>
        <time>2022-07-13T15:10:54Z</time>
      </trkpt>
      <trkpt lat="42.7862411365" lon="-0.2269478235">
        <ele>2243.37</ele>
        <time>2022-07-13T15:11:08Z</time>
      </trkpt>
      <trkpt lat="42.7862384543" lon="-0.2269700356">
        <ele>2244.33</ele>
        <time>2022-07-13T15:11:10Z</time>
      </trkpt>
      <trkpt lat="42.7862634324" lon="-0.2270868793">
        <ele>2245.78</ele>
        <time>2022-07-13T15:11:23Z</time>
      </trkpt>
      <trkpt lat="42.7862693835" lon="-0.2271178924">
        <ele>2245.78</ele>
        <time>2022-07-13T15:11:25Z</time>
      </trkpt>
      <trkpt lat="42.7862834651" lon="-0.2271587960">
        <ele>2246.74</ele>
        <time>2022-07-13T15:11:28Z</time>
      </trkpt>
      <trkpt lat="42.7862998936" lon="-0.2271857020">
        <ele>2247.22</ele>
        <time>2022-07-13T15:11:30Z</time>
      </trkpt>
      <trkpt lat="42.7863129694" lon="-0.2272760589">
        <ele>2247.22</ele>
        <time>2022-07-13T15:11:36Z</time>
      </trkpt>
      <trkpt lat="42.7863483410" lon="-0.2273125201">
        <ele>2245.78</ele>
        <time>2022-07-13T15:11:40Z</time>
      </trkpt>
      <trkpt lat="42.7863693796" lon="-0.2273164596">
        <ele>2245.30</ele>
        <time>2022-07-13T15:11:42Z</time>
      </trkpt>
      <trkpt lat="42.7864164859" lon="-0.2274340577">
        <ele>2243.85</ele>
        <time>2022-07-13T15:11:50Z</time>
      </trkpt>
      <trkpt lat="42.7864492591" lon="-0.2274803258">
        <ele>2243.37</ele>
        <time>2022-07-13T15:11:55Z</time>
      </trkpt>
      <trkpt lat="42.7865342516" lon="-0.2276015282">
        <ele>2242.89</ele>
        <time>2022-07-13T15:12:05Z</time>
      </trkpt>
      <trkpt lat="42.7865727246" lon="-0.2276208065">
        <ele>2242.89</ele>
        <time>2022-07-13T15:12:09Z</time>
      </trkpt>
      <trkpt lat="42.7866474912" lon="-0.2276446950">
        <ele>2240.97</ele>
        <time>2022-07-13T15:12:17Z</time>
      </trkpt>
      <trkpt lat="42.7867387701" lon="-0.2276761271">
        <ele>2240.49</ele>
        <time>2022-07-13T15:12:24Z</time>
      </trkpt>
      <trkpt lat="42.7868778259" lon="-0.2277773805">
        <ele>2239.05</ele>
        <time>2022-07-13T15:12:37Z</time>
      </trkpt>
      <trkpt lat="42.7869068272" lon="-0.2278318629">
        <ele>2240.49</ele>
        <time>2022-07-13T15:12:42Z</time>
      </trkpt>
      <trkpt lat="42.7869920712" lon="-0.2279934660">
        <ele>2240.49</ele>
        <time>2022-07-13T15:12:57Z</time>
      </trkpt>
      <trkpt lat="42.7870471403" lon="-0.2280927077">
        <ele>2242.41</ele>
        <time>2022-07-13T15:13:09Z</time>
      </trkpt>
      <trkpt lat="42.7871242538" lon="-0.2281999122">
        <ele>2244.33</ele>
        <time>2022-07-13T15:13:23Z</time>
      </trkpt>
      <trkpt lat="42.7871613856" lon="-0.2282145806">
        <ele>2245.30</ele>
        <time>2022-07-13T15:13:26Z</time>
      </trkpt>
      <trkpt lat="42.7872396726" lon="-0.2283756807">
        <ele>2244.82</ele>
        <time>2022-07-13T15:13:40Z</time>
      </trkpt>
      <trkpt lat="42.7872444503" lon="-0.2283904329">
        <ele>2244.82</ele>
        <time>2022-07-13T15:13:41Z</time>
      </trkpt>
      <trkpt lat="42.7873229887" lon="-0.2285471745">
        <ele>2244.33</ele>
        <time>2022-07-13T15:13:55Z</time>
      </trkpt>
      <trkpt lat="42.7873794828" lon="-0.2287836280">
        <ele>2243.85</ele>
        <time>2022-07-13T15:14:14Z</time>
      </trkpt>
      <trkpt lat="42.7874141000" lon="-0.2289186604">
        <ele>2241.45</ele>
        <time>2022-07-13T15:14:25Z</time>
      </trkpt>
      <trkpt lat="42.7874472085" lon="-0.2290071733">
        <ele>2240.49</ele>
        <time>2022-07-13T15:14:32Z</time>
      </trkpt>
      <trkpt lat="42.7874772158" lon="-0.2290652599">
        <ele>2239.53</ele>
        <time>2022-07-13T15:14:36Z</time>
      </trkpt>
      <trkpt lat="42.7874960750" lon="-0.2291476540">
        <ele>2239.53</ele>
        <time>2022-07-13T15:14:41Z</time>
      </trkpt>
      <trkpt lat="42.7874932252" lon="-0.2293815091">
        <ele>2239.05</ele>
        <time>2022-07-13T15:14:56Z</time>
      </trkpt>
      <trkpt lat="42.7874683309" lon="-0.2295488957">
        <ele>2237.61</ele>
        <time>2022-07-13T15:15:08Z</time>
      </trkpt>
      <trkpt lat="42.7874699235" lon="-0.2297437750">
        <ele>2237.61</ele>
        <time>2022-07-13T15:15:20Z</time>
      </trkpt>
      <trkpt lat="42.7874781378" lon="-0.2298137639">
        <ele>2237.61</ele>
        <time>2022-07-13T15:15:27Z</time>
      </trkpt>
      <trkpt lat="42.7875013556" lon="-0.2299016900">
        <ele>2236.64</ele>
        <time>2022-07-13T15:15:33Z</time>
      </trkpt>
      <trkpt lat="42.7875116654" lon="-0.2299938072">
        <ele>2236.16</ele>
        <time>2022-07-13T15:15:42Z</time>
      </trkpt>
      <trkpt lat="42.7875704225" lon="-0.2302369662">
        <ele>2233.76</ele>
        <time>2022-07-13T15:15:58Z</time>
      </trkpt>
      <trkpt lat="42.7875922155" lon="-0.2304300014">
        <ele>2232.32</ele>
        <time>2022-07-13T15:16:12Z</time>
      </trkpt>
      <trkpt lat="42.7876608633" lon="-0.2305682190">
        <ele>2230.40</ele>
        <time>2022-07-13T15:16:25Z</time>
      </trkpt>
      <trkpt lat="42.7876858413" lon="-0.2306822129">
        <ele>2228.95</ele>
        <time>2022-07-13T15:16:31Z</time>
      </trkpt>
      <trkpt lat="42.7876972407" lon="-0.2307402994">
        <ele>2228.47</ele>
        <time>2022-07-13T15:16:35Z</time>
      </trkpt>
      <trkpt lat="42.7877633739" lon="-0.2309194207">
        <ele>2226.07</ele>
        <time>2022-07-13T15:16:49Z</time>
      </trkpt>
      <trkpt lat="42.7878315188" lon="-0.2310541179">
        <ele>2222.71</ele>
        <time>2022-07-13T15:17:01Z</time>
      </trkpt>
      <trkpt lat="42.7878404874" lon="-0.2310638409">
        <ele>2222.71</ele>
        <time>2022-07-13T15:17:02Z</time>
      </trkpt>
      <trkpt lat="42.7879670542" lon="-0.2311727218">
        <ele>2221.26</ele>
        <time>2022-07-13T15:17:14Z</time>
      </trkpt>
      <trkpt lat="42.7880329359" lon="-0.2312190738">
        <ele>2221.26</ele>
        <time>2022-07-13T15:17:20Z</time>
      </trkpt>
      <trkpt lat="42.7880729176" lon="-0.2312806807">
        <ele>2220.78</ele>
        <time>2022-07-13T15:17:25Z</time>
      </trkpt>
      <trkpt lat="42.7880892623" lon="-0.2313088439">
        <ele>2220.30</ele>
        <time>2022-07-13T15:17:27Z</time>
      </trkpt>
      <trkpt lat="42.7880962193" lon="-0.2313374262">
        <ele>2220.30</ele>
        <time>2022-07-13T15:17:29Z</time>
      </trkpt>
      <trkpt lat="42.7881271485" lon="-0.2313940879">
        <ele>2221.26</ele>
        <time>2022-07-13T15:17:35Z</time>
      </trkpt>
      <trkpt lat="42.7881449182" lon="-0.2314031404">
        <ele>2221.74</ele>
        <time>2022-07-13T15:17:37Z</time>
      </trkpt>
      <trkpt lat="42.7882455848" lon="-0.2315054834">
        <ele>2221.74</ele>
        <time>2022-07-13T15:17:46Z</time>
      </trkpt>
      <trkpt lat="42.7882705629" lon="-0.2315791603">
        <ele>2220.30</ele>
        <time>2022-07-13T15:17:51Z</time>
      </trkpt>
      <trkpt lat="42.7882848959" lon="-0.2316267695">
        <ele>2220.30</ele>
        <time>2022-07-13T15:17:54Z</time>
      </trkpt>
      <trkpt lat="42.7883126400" lon="-0.2316567767">
        <ele>2220.30</ele>
        <time>2022-07-13T15:17:57Z</time>
      </trkpt>
      <trkpt lat="42.7883398812" lon="-0.2317149471">
        <ele>2220.30</ele>
        <time>2022-07-13T15:18:01Z</time>
      </trkpt>
      <trkpt lat="42.7883720677" lon="-0.2317452896">
        <ele>2220.30</ele>
        <time>2022-07-13T15:18:04Z</time>
      </trkpt>
      <trkpt lat="42.7884466667" lon="-0.2319022827">
        <ele>2220.30</ele>
        <time>2022-07-13T15:18:15Z</time>
      </trkpt>
      <trkpt lat="42.7884624247" lon="-0.2319262549">
        <ele>2220.30</ele>
        <time>2022-07-13T15:18:17Z</time>
      </trkpt>
      <trkpt lat="42.7886189148" lon="-0.2320151869">
        <ele>2220.30</ele>
        <time>2022-07-13T15:18:31Z</time>
      </trkpt>
      <trkpt lat="42.7887505107" lon="-0.2320500556">
        <ele>2218.86</ele>
        <time>2022-07-13T15:18:44Z</time>
      </trkpt>
      <trkpt lat="42.7888109442" lon="-0.2321094833">
        <ele>2218.38</ele>
        <time>2022-07-13T15:18:50Z</time>
      </trkpt>
      <trkpt lat="42.7888432983" lon="-0.2321652230">
        <ele>2217.90</ele>
        <time>2022-07-13T15:18:55Z</time>
      </trkpt>
      <trkpt lat="42.7889372595" lon="-0.2322352119">
        <ele>2217.90</ele>
        <time>2022-07-13T15:19:05Z</time>
      </trkpt>
      <trkpt lat="42.7889603097" lon="-0.2322637942">
        <ele>2217.90</ele>
        <time>2022-07-13T15:19:07Z</time>
      </trkpt>
      <trkpt lat="42.7890261915" lon="-0.2322973218">
        <ele>2219.34</ele>
        <time>2022-07-13T15:19:13Z</time>
      </trkpt>
      <trkpt lat="42.7890427876" lon="-0.2323390637">
        <ele>2219.34</ele>
        <time>2022-07-13T15:19:17Z</time>
      </trkpt>
      <trkpt lat="42.7890824340" lon="-0.2324916143">
        <ele>2219.34</ele>
        <time>2022-07-13T15:19:30Z</time>
      </trkpt>
      <trkpt lat="42.7890819311" lon="-0.2325109765">
        <ele>2219.34</ele>
        <time>2022-07-13T15:19:35Z</time>
      </trkpt>
      <trkpt lat="42.7891581226" lon="-0.2325345296">
        <ele>2219.34</ele>
        <time>2022-07-13T15:19:47Z</time>
      </trkpt>
      <trkpt lat="42.7891665883" lon="-0.2325373795">
        <ele>2219.34</ele>
        <time>2022-07-13T15:19:48Z</time>
      </trkpt>
      <trkpt lat="42.7892615553" lon="-0.2325769421">
        <ele>2219.82</ele>
        <time>2022-07-13T15:20:00Z</time>
      </trkpt>
      <trkpt lat="42.7892768942" lon="-0.2326357830">
        <ele>2219.82</ele>
        <time>2022-07-13T15:20:06Z</time>
      </trkpt>
      <trkpt lat="42.7893400937" lon="-0.2326874156">
        <ele>2219.82</ele>
        <time>2022-07-13T15:20:14Z</time>
      </trkpt>
      <trkpt lat="42.7893665805" lon="-0.2327012457">
        <ele>2219.82</ele>
        <time>2022-07-13T15:20:17Z</time>
      </trkpt>
      <trkpt lat="42.7893981803" lon="-0.2327111363">
        <ele>2220.30</ele>
        <time>2022-07-13T15:20:20Z</time>
      </trkpt>
      <trkpt lat="42.7894392516" lon="-0.2327485196">
        <ele>2220.30</ele>
        <time>2022-07-13T15:20:25Z</time>
      </trkpt>
      <trkpt lat="42.7895815764" lon="-0.2327467594">
        <ele>2220.78</ele>
        <time>2022-07-13T15:20:39Z</time>
      </trkpt>
      <trkpt lat="42.7896204684" lon="-0.2327249665">
        <ele>2220.78</ele>
        <time>2022-07-13T15:20:47Z</time>
      </trkpt>
      <trkpt lat="42.7896255814" lon="-0.2327939495">
        <ele>2220.30</ele>
        <time>2022-07-13T15:20:56Z</time>
      </trkpt>
      <trkpt lat="42.7896717656" lon="-0.2328570653">
        <ele>2221.26</ele>
        <time>2022-07-13T15:21:01Z</time>
      </trkpt>
      <trkpt lat="42.7898039483" lon="-0.2329692151">
        <ele>2222.22</ele>
        <time>2022-07-13T15:21:14Z</time>
      </trkpt>
      <trkpt lat="42.7899047825" lon="-0.2330806106">
        <ele>2223.19</ele>
        <time>2022-07-13T15:21:27Z</time>
      </trkpt>
      <trkpt lat="42.7899178583" lon="-0.2331426367">
        <ele>2224.15</ele>
        <time>2022-07-13T15:21:33Z</time>
      </trkpt>
      <trkpt lat="42.7899746038" lon="-0.2333019767">
        <ele>2225.59</ele>
        <time>2022-07-13T15:21:48Z</time>
      </trkpt>
      <trkpt lat="42.7899816446" lon="-0.2333075926">
        <ele>2225.59</ele>
        <time>2022-07-13T15:21:49Z</time>
      </trkpt>
      <trkpt lat="42.7900447603" lon="-0.2333146334">
        <ele>2225.59</ele>
        <time>2022-07-13T15:22:00Z</time>
      </trkpt>
      <trkpt lat="42.7900819760" lon="-0.2333007194">
        <ele>2226.55</ele>
        <time>2022-07-13T15:22:12Z</time>
      </trkpt>
      <trkpt lat="42.7900953032" lon="-0.2333439700">
        <ele>2226.07</ele>
        <time>2022-07-13T15:22:27Z</time>
      </trkpt>
      <trkpt lat="42.7900929563" lon="-0.2333559562">
        <ele>2226.07</ele>
        <time>2022-07-13T15:22:28Z</time>
      </trkpt>
      <trkpt lat="42.7901456784" lon="-0.2334510069">
        <ele>2227.51</ele>
        <time>2022-07-13T15:22:41Z</time>
      </trkpt>
      <trkpt lat="42.7901854087" lon="-0.2335718740">
        <ele>2228.95</ele>
        <time>2022-07-13T15:22:52Z</time>
      </trkpt>
      <trkpt lat="42.7902198583" lon="-0.2337231673">
        <ele>2230.88</ele>
        <time>2022-07-13T15:23:05Z</time>
      </trkpt>
      <trkpt lat="42.7901982330" lon="-0.2338788193">
        <ele>2231.84</ele>
        <time>2022-07-13T15:23:17Z</time>
      </trkpt>
      <trkpt lat="42.7901973948" lon="-0.2338908892">
        <ele>2231.84</ele>
        <time>2022-07-13T15:23:18Z</time>
      </trkpt>
      <trkpt lat="42.7901241370" lon="-0.2340849303">
        <ele>2233.28</ele>
        <time>2022-07-13T15:23:32Z</time>
      </trkpt>
      <trkpt lat="42.7900862508" lon="-0.2342317812">
        <ele>2235.20</ele>
        <time>2022-07-13T15:23:44Z</time>
      </trkpt>
      <trkpt lat="42.7900185250" lon="-0.2343042847">
        <ele>2237.61</ele>
        <time>2022-07-13T15:23:57Z</time>
      </trkpt>
      <trkpt lat="42.7899727598" lon="-0.2343301848">
        <ele>2238.09</ele>
        <time>2022-07-13T15:24:01Z</time>
      </trkpt>
      <trkpt lat="42.7898585983" lon="-0.2344069630">
        <ele>2239.53</ele>
        <time>2022-07-13T15:24:13Z</time>
      </trkpt>
      <trkpt lat="42.7897793055" lon="-0.2344671451">
        <ele>2240.97</ele>
        <time>2022-07-13T15:24:22Z</time>
      </trkpt>
      <trkpt lat="42.7896743640" lon="-0.2345342841">
        <ele>2242.89</ele>
        <time>2022-07-13T15:24:36Z</time>
      </trkpt>
      <trkpt lat="42.7896722686" lon="-0.2345647104">
        <ele>2244.82</ele>
        <time>2022-07-13T15:24:49Z</time>
      </trkpt>
      <trkpt lat="42.7896836679" lon="-0.2345892694">
        <ele>2246.26</ele>
        <time>2022-07-13T15:24:55Z</time>
      </trkpt>
      <trkpt lat="42.7897720132" lon="-0.2345880121">
        <ele>2248.18</ele>
        <time>2022-07-13T15:25:10Z</time>
      </trkpt>
      <trkpt lat="42.7898488753" lon="-0.2346388064">
        <ele>2251.06</ele>
        <time>2022-07-13T15:25:23Z</time>
      </trkpt>
      <trkpt lat="42.7898448519" lon="-0.2346888464">
        <ele>2252.51</ele>
        <time>2022-07-13T15:25:36Z</time>
      </trkpt>
      <trkpt lat="42.7897835802" lon="-0.2347243018">
        <ele>2253.95</ele>
        <time>2022-07-13T15:25:48Z</time>
      </trkpt>
      <trkpt lat="42.7897187881" lon="-0.2347724140">
        <ele>2256.83</ele>
        <time>2022-07-13T15:26:01Z</time>
      </trkpt>
      <trkpt lat="42.7896820754" lon="-0.2348758467">
        <ele>2257.79</ele>
        <time>2022-07-13T15:26:11Z</time>
      </trkpt>
      <trkpt lat="42.7896509785" lon="-0.2350553032">
        <ele>2258.75</ele>
        <time>2022-07-13T15:26:23Z</time>
      </trkpt>
      <trkpt lat="42.7896315325" lon="-0.2351779304">
        <ele>2259.72</ele>
        <time>2022-07-13T15:26:34Z</time>
      </trkpt>
      <trkpt lat="42.7895769663" lon="-0.2353521064">
        <ele>2262.12</ele>
        <time>2022-07-13T15:26:50Z</time>
      </trkpt>
      <trkpt lat="42.7894975897" lon="-0.2354854625">
        <ele>2263.56</ele>
        <time>2022-07-13T15:27:04Z</time>
      </trkpt>
      <trkpt lat="42.7895411756" lon="-0.2356123645">
        <ele>2265.96</ele>
        <time>2022-07-13T15:27:17Z</time>
      </trkpt>
      <trkpt lat="42.7895224839" lon="-0.2356437128">
        <ele>2265.96</ele>
        <time>2022-07-13T15:27:20Z</time>
      </trkpt>
      <trkpt lat="42.7894844301" lon="-0.2358063217">
        <ele>2268.37</ele>
        <time>2022-07-13T15:27:35Z</time>
      </trkpt>
      <trkpt lat="42.7895314526" lon="-0.2358580381">
        <ele>2271.25</ele>
        <time>2022-07-13T15:27:48Z</time>
      </trkpt>
      <trkpt lat="42.7894947398" lon="-0.2359033842">
        <ele>2271.73</ele>
        <time>2022-07-13T15:27:54Z</time>
      </trkpt>
      <trkpt lat="42.7894312888" lon="-0.2359656617">
        <ele>2272.69</ele>
        <time>2022-07-13T15:28:01Z</time>
      </trkpt>
      <trkpt lat="42.7894200571" lon="-0.2360285260">
        <ele>2273.66</ele>
        <time>2022-07-13T15:28:12Z</time>
      </trkpt>
      <trkpt lat="42.7894172072" lon="-0.2360767219">
        <ele>2274.62</ele>
        <time>2022-07-13T15:28:18Z</time>
      </trkpt>
      <trkpt lat="42.7893968392" lon="-0.2361719403">
        <ele>2276.06</ele>
        <time>2022-07-13T15:28:26Z</time>
      </trkpt>
      <trkpt lat="42.7893714420" lon="-0.2363551687">
        <ele>2277.50</ele>
        <time>2022-07-13T15:28:40Z</time>
      </trkpt>
      <trkpt lat="42.7894220687" lon="-0.2364131715">
        <ele>2279.42</ele>
        <time>2022-07-13T15:28:52Z</time>
      </trkpt>
      <trkpt lat="42.7894151118" lon="-0.2365332004">
        <ele>2281.83</ele>
        <time>2022-07-13T15:29:05Z</time>
      </trkpt>
      <trkpt lat="42.7894130163" lon="-0.2366815601">
        <ele>2283.27</ele>
        <time>2022-07-13T15:29:18Z</time>
      </trkpt>
      <trkpt lat="42.7893964201" lon="-0.2368360385">
        <ele>2285.19</ele>
        <time>2022-07-13T15:29:29Z</time>
      </trkpt>
      <trkpt lat="42.7893519960" lon="-0.2369955461">
        <ele>2286.63</ele>
        <time>2022-07-13T15:29:43Z</time>
      </trkpt>
      <trkpt lat="42.7893062308" lon="-0.2371334285">
        <ele>2289.04</ele>
        <time>2022-07-13T15:29:56Z</time>
      </trkpt>
      <trkpt lat="42.7892960887" lon="-0.2372164093">
        <ele>2290.48</ele>
        <time>2022-07-13T15:30:05Z</time>
      </trkpt>
      <trkpt lat="42.7892121021" lon="-0.2372832131">
        <ele>2292.40</ele>
        <time>2022-07-13T15:30:19Z</time>
      </trkpt>
      <trkpt lat="42.7892266028" lon="-0.2373087779">
        <ele>2294.80</ele>
        <time>2022-07-13T15:30:22Z</time>
      </trkpt>
      <trkpt lat="42.7892295364" lon="-0.2373189200">
        <ele>2294.80</ele>
        <time>2022-07-13T15:30:23Z</time>
      </trkpt>
      <trkpt lat="42.7892260998" lon="-0.2373594884">
        <ele>2292.88</ele>
        <time>2022-07-13T15:30:26Z</time>
      </trkpt>
      <trkpt lat="42.7892245911" lon="-0.2373666130">
        <ele>2293.36</ele>
        <time>2022-07-13T15:30:27Z</time>
      </trkpt>
      <trkpt lat="42.7891993616" lon="-0.2374266274">
        <ele>2290.48</ele>
        <time>2022-07-13T15:30:31Z</time>
      </trkpt>
      <trkpt lat="42.7892015409" lon="-0.2374669444">
        <ele>2293.84</ele>
        <time>2022-07-13T15:30:34Z</time>
      </trkpt>
      <trkpt lat="42.7892013732" lon="-0.2374810260">
        <ele>2293.84</ele>
        <time>2022-07-13T15:30:35Z</time>
      </trkpt>
      <trkpt lat="42.7891810052" lon="-0.2375109494">
        <ele>2291.92</ele>
        <time>2022-07-13T15:30:38Z</time>
      </trkpt>
      <trkpt lat="42.7891686838" lon="-0.2376248594">
        <ele>2293.36</ele>
        <time>2022-07-13T15:30:45Z</time>
      </trkpt>
      <trkpt lat="42.7891689353" lon="-0.2376748994">
        <ele>2293.84</ele>
        <time>2022-07-13T15:30:48Z</time>
      </trkpt>
      <trkpt lat="42.7891642414" lon="-0.2377303876">
        <ele>2292.88</ele>
        <time>2022-07-13T15:30:52Z</time>
      </trkpt>
      <trkpt lat="42.7891601343" lon="-0.2377506718">
        <ele>2294.32</ele>
        <time>2022-07-13T15:30:54Z</time>
      </trkpt>
      <trkpt lat="42.7891657501" lon="-0.2378397714">
        <ele>2294.80</ele>
        <time>2022-07-13T15:31:01Z</time>
      </trkpt>
      <trkpt lat="42.7892067377" lon="-0.2379851975">
        <ele>2295.77</ele>
        <time>2022-07-13T15:31:14Z</time>
      </trkpt>
      <trkpt lat="42.7892182209" lon="-0.2380523365">
        <ele>2296.73</ele>
        <time>2022-07-13T15:31:20Z</time>
      </trkpt>
      <trkpt lat="42.7892242558" lon="-0.2382350620">
        <ele>2298.65</ele>
        <time>2022-07-13T15:31:37Z</time>
      </trkpt>
      <trkpt lat="42.7891547699" lon="-0.2383439429">
        <ele>2300.09</ele>
        <time>2022-07-13T15:31:49Z</time>
      </trkpt>
      <trkpt lat="42.7890759800" lon="-0.2384748682">
        <ele>2303.46</ele>
        <time>2022-07-13T15:32:05Z</time>
      </trkpt>
      <trkpt lat="42.7891174704" lon="-0.2384966612">
        <ele>2305.38</ele>
        <time>2022-07-13T15:32:18Z</time>
      </trkpt>
      <trkpt lat="42.7890939172" lon="-0.2385477908">
        <ele>2306.34</ele>
        <time>2022-07-13T15:32:28Z</time>
      </trkpt>
      <trkpt lat="42.7890218329" lon="-0.2386855055">
        <ele>2308.26</ele>
        <time>2022-07-13T15:32:43Z</time>
      </trkpt>
      <trkpt lat="42.7890064102" lon="-0.2388248965">
        <ele>2309.70</ele>
        <time>2022-07-13T15:32:56Z</time>
      </trkpt>
      <trkpt lat="42.7889414504" lon="-0.2389430813">
        <ele>2312.11</ele>
        <time>2022-07-13T15:33:09Z</time>
      </trkpt>
      <trkpt lat="42.7889061626" lon="-0.2390392218">
        <ele>2314.99</ele>
        <time>2022-07-13T15:33:23Z</time>
      </trkpt>
      <trkpt lat="42.7889177296" lon="-0.2390977275">
        <ele>2315.47</ele>
        <time>2022-07-13T15:33:29Z</time>
      </trkpt>
      <trkpt lat="42.7888995409" lon="-0.2391325124">
        <ele>2315.95</ele>
        <time>2022-07-13T15:33:32Z</time>
      </trkpt>
      <trkpt lat="42.7888581343" lon="-0.2391843125">
        <ele>2316.43</ele>
        <time>2022-07-13T15:33:40Z</time>
      </trkpt>
      <trkpt lat="42.7887962759" lon="-0.2393149026">
        <ele>2318.84</ele>
        <time>2022-07-13T15:33:54Z</time>
      </trkpt>
      <trkpt lat="42.7887679450" lon="-0.2393230330">
        <ele>2319.32</ele>
        <time>2022-07-13T15:33:57Z</time>
      </trkpt>
      <trkpt lat="42.7887404524" lon="-0.2393304091">
        <ele>2319.32</ele>
        <time>2022-07-13T15:34:00Z</time>
      </trkpt>
      <trkpt lat="42.7887086011" lon="-0.2394646872">
        <ele>2320.28</ele>
        <time>2022-07-13T15:34:12Z</time>
      </trkpt>
      <trkpt lat="42.7886685356" lon="-0.2395567205">
        <ele>2321.72</ele>
        <time>2022-07-13T15:34:24Z</time>
      </trkpt>
      <trkpt lat="42.7885565534" lon="-0.2396272123">
        <ele>2322.68</ele>
        <time>2022-07-13T15:34:39Z</time>
      </trkpt>
      <trkpt lat="42.7885288931" lon="-0.2396079339">
        <ele>2322.68</ele>
        <time>2022-07-13T15:34:54Z</time>
      </trkpt>
      <trkpt lat="42.7884967905" lon="-0.2395897452">
        <ele>2322.68</ele>
        <time>2022-07-13T15:34:58Z</time>
      </trkpt>
      <trkpt lat="42.7884566411" lon="-0.2395808604">
        <ele>2321.72</ele>
        <time>2022-07-13T15:35:04Z</time>
      </trkpt>
      <trkpt lat="42.7883986384" lon="-0.2396609914">
        <ele>2324.12</ele>
        <time>2022-07-13T15:35:18Z</time>
      </trkpt>
      <trkpt lat="42.7884690464" lon="-0.2396670263">
        <ele>2326.05</ele>
        <time>2022-07-13T15:35:28Z</time>
      </trkpt>
      <trkpt lat="42.7884980477" lon="-0.2396776713">
        <ele>2327.01</ele>
        <time>2022-07-13T15:35:31Z</time>
      </trkpt>
      <trkpt lat="42.7884514444" lon="-0.2397560421">
        <ele>2328.45</ele>
        <time>2022-07-13T15:35:42Z</time>
      </trkpt>
      <trkpt lat="42.7883794438" lon="-0.2398106921">
        <ele>2330.37</ele>
        <time>2022-07-13T15:35:54Z</time>
      </trkpt>
      <trkpt lat="42.7883009054" lon="-0.2398758195">
        <ele>2332.30</ele>
        <time>2022-07-13T15:36:07Z</time>
      </trkpt>
      <trkpt lat="42.7883487660" lon="-0.2399588842">
        <ele>2335.66</ele>
        <time>2022-07-13T15:36:20Z</time>
      </trkpt>
      <trkpt lat="42.7884104569" lon="-0.2400039788">
        <ele>2338.06</ele>
        <time>2022-07-13T15:36:34Z</time>
      </trkpt>
      <trkpt lat="42.7884568926" lon="-0.2399703674">
        <ele>2336.62</ele>
        <time>2022-07-13T15:36:42Z</time>
      </trkpt>
      <trkpt lat="42.7884609997" lon="-0.2399671823">
        <ele>2336.62</ele>
        <time>2022-07-13T15:36:45Z</time>
      </trkpt>
      <trkpt lat="42.7884920128" lon="-0.2400857024">
        <ele>2339.02</ele>
        <time>2022-07-13T15:36:59Z</time>
      </trkpt>
      <trkpt lat="42.7884886600" lon="-0.2401704434">
        <ele>2340.95</ele>
        <time>2022-07-13T15:37:09Z</time>
      </trkpt>
      <trkpt lat="42.7884851396" lon="-0.2402166277">
        <ele>2341.43</ele>
        <time>2022-07-13T15:37:14Z</time>
      </trkpt>
      <trkpt lat="42.7884055115" lon="-0.2403116785">
        <ele>2344.31</ele>
        <time>2022-07-13T15:37:27Z</time>
      </trkpt>
      <trkpt lat="42.7883687988" lon="-0.2402975131">
        <ele>2344.79</ele>
        <time>2022-07-13T15:37:30Z</time>
      </trkpt>
      <trkpt lat="42.7882558946" lon="-0.2402468026">
        <ele>2347.68</ele>
        <time>2022-07-13T15:37:44Z</time>
      </trkpt>
      <trkpt lat="42.7881842293" lon="-0.2402422763">
        <ele>2350.08</ele>
        <time>2022-07-13T15:37:53Z</time>
      </trkpt>
      <trkpt lat="42.7881295793" lon="-0.2402877063">
        <ele>2351.04</ele>
        <time>2022-07-13T15:38:06Z</time>
      </trkpt>
      <trkpt lat="42.7881027572" lon="-0.2403991017">
        <ele>2352.48</ele>
        <time>2022-07-13T15:38:19Z</time>
      </trkpt>
      <trkpt lat="42.7881092951" lon="-0.2404348087">
        <ele>2352.96</ele>
        <time>2022-07-13T15:38:22Z</time>
      </trkpt>
      <trkpt lat="42.7881516237" lon="-0.2405362297">
        <ele>2354.41</ele>
        <time>2022-07-13T15:38:35Z</time>
      </trkpt>
      <trkpt lat="42.7881543897" lon="-0.2405166999">
        <ele>2352.48</ele>
        <time>2022-07-13T15:38:48Z</time>
      </trkpt>
      <trkpt lat="42.7881384641" lon="-0.2405171189">
        <ele>2353.93</ele>
        <time>2022-07-13T15:39:14Z</time>
      </trkpt>
      <trkpt lat="42.7881424874" lon="-0.2405153587">
        <ele>2354.41</ele>
        <time>2022-07-13T15:39:27Z</time>
      </trkpt>
      <trkpt lat="42.7881696448" lon="-0.2405076474">
        <ele>2355.37</ele>
        <time>2022-07-13T15:39:44Z</time>
      </trkpt>
      <trkpt lat="42.7881812956" lon="-0.2405189630">
        <ele>2356.33</ele>
        <time>2022-07-13T15:39:49Z</time>
      </trkpt>
      <trkpt lat="42.7881963830" lon="-0.2405715175">
        <ele>2356.33</ele>
        <time>2022-07-13T15:39:54Z</time>
      </trkpt>
      <trkpt lat="42.7882136498" lon="-0.2406041231">
        <ele>2354.89</ele>
        <time>2022-07-13T15:39:57Z</time>
      </trkpt>
      <trkpt lat="42.7882232051" lon="-0.2406190429">
        <ele>2354.89</ele>
        <time>2022-07-13T15:39:59Z</time>
      </trkpt>
      <trkpt lat="42.7882453334" lon="-0.2406556718">
        <ele>2354.41</ele>
        <time>2022-07-13T15:40:03Z</time>
      </trkpt>
      <trkpt lat="42.7882731613" lon="-0.2408200409">
        <ele>2352.48</ele>
        <time>2022-07-13T15:40:16Z</time>
      </trkpt>
      <trkpt lat="42.7882856503" lon="-0.2408596873">
        <ele>2352.48</ele>
        <time>2022-07-13T15:40:20Z</time>
      </trkpt>
      <trkpt lat="42.7884064335" lon="-0.2409618627">
        <ele>2352.48</ele>
        <time>2022-07-13T15:40:34Z</time>
      </trkpt>
      <trkpt lat="42.7884477563" lon="-0.2410330251">
        <ele>2353.93</ele>
        <time>2022-07-13T15:40:41Z</time>
      </trkpt>
      <trkpt lat="42.7885355987" lon="-0.2411490306">
        <ele>2353.93</ele>
        <time>2022-07-13T15:40:56Z</time>
      </trkpt>
      <trkpt lat="42.7885859739" lon="-0.2411885094">
        <ele>2355.85</ele>
        <time>2022-07-13T15:41:08Z</time>
      </trkpt>
      <trkpt lat="42.7886392828" lon="-0.2411850728">
        <ele>2357.77</ele>
        <time>2022-07-13T15:41:19Z</time>
      </trkpt>
      <trkpt lat="42.7886558790" lon="-0.2412760165">
        <ele>2360.17</ele>
        <time>2022-07-13T15:41:34Z</time>
      </trkpt>
      <trkpt lat="42.7886558790" lon="-0.2413050178">
        <ele>2361.62</ele>
        <time>2022-07-13T15:41:38Z</time>
      </trkpt>
      <trkpt lat="42.7886320744" lon="-0.2413133997">
        <ele>2361.62</ele>
        <time>2022-07-13T15:41:55Z</time>
      </trkpt>
      <trkpt lat="42.7886241116" lon="-0.2413452510">
        <ele>2363.06</ele>
        <time>2022-07-13T15:41:58Z</time>
      </trkpt>
      <trkpt lat="42.7886207588" lon="-0.2413778566">
        <ele>2363.06</ele>
        <time>2022-07-13T15:42:00Z</time>
      </trkpt>
      <trkpt lat="42.7886262070" lon="-0.2414349373">
        <ele>2364.02</ele>
        <time>2022-07-13T15:42:15Z</time>
      </trkpt>
      <trkpt lat="42.7886202559" lon="-0.2415182535">
        <ele>2366.42</ele>
        <time>2022-07-13T15:42:29Z</time>
      </trkpt>
      <trkpt lat="42.7886307333" lon="-0.2415550500">
        <ele>2367.86</ele>
        <time>2022-07-13T15:42:36Z</time>
      </trkpt>
      <trkpt lat="42.7886369359" lon="-0.2416051738">
        <ele>2370.27</ele>
        <time>2022-07-13T15:42:50Z</time>
      </trkpt>
      <trkpt lat="42.7886675298" lon="-0.2415874880">
        <ele>2370.75</ele>
        <time>2022-07-13T15:43:00Z</time>
      </trkpt>
      <trkpt lat="42.7886680327" lon="-0.2416602429">
        <ele>2373.63</ele>
        <time>2022-07-13T15:43:13Z</time>
      </trkpt>
      <trkpt lat="42.7886082698" lon="-0.2417254541">
        <ele>2376.04</ele>
        <time>2022-07-13T15:43:24Z</time>
      </trkpt>
      <trkpt lat="42.7885965351" lon="-0.2417633403">
        <ele>2377.00</ele>
        <time>2022-07-13T15:43:41Z</time>
      </trkpt>
      <trkpt lat="42.7885667793" lon="-0.2418398671">
        <ele>2379.40</ele>
        <time>2022-07-13T15:43:54Z</time>
      </trkpt>
      <trkpt lat="42.7886198368" lon="-0.2418755740">
        <ele>2382.76</ele>
        <time>2022-07-13T15:44:05Z</time>
      </trkpt>
      <trkpt lat="42.7886282187" lon="-0.2419808507">
        <ele>2385.65</ele>
        <time>2022-07-13T15:44:20Z</time>
      </trkpt>
      <trkpt lat="42.7886633389" lon="-0.2420303877">
        <ele>2388.05</ele>
        <time>2022-07-13T15:44:34Z</time>
      </trkpt>
      <trkpt lat="42.7886560466" lon="-0.2421047352">
        <ele>2390.46</ele>
        <time>2022-07-13T15:44:48Z</time>
      </trkpt>
      <trkpt lat="42.7886930946" lon="-0.2421692759">
        <ele>2392.86</ele>
        <time>2022-07-13T15:45:03Z</time>
      </trkpt>
      <trkpt lat="42.7887285501" lon="-0.2422499098">
        <ele>2395.74</ele>
        <time>2022-07-13T15:45:17Z</time>
      </trkpt>
      <trkpt lat="42.7887375187" lon="-0.2423406858">
        <ele>2397.18</ele>
        <time>2022-07-13T15:45:28Z</time>
      </trkpt>
      <trkpt lat="42.7888424601" lon="-0.2424740419">
        <ele>2398.15</ele>
        <time>2022-07-13T15:45:44Z</time>
      </trkpt>
      <trkpt lat="42.7888764068" lon="-0.2425114252">
        <ele>2399.11</ele>
        <time>2022-07-13T15:45:50Z</time>
      </trkpt>
      <trkpt lat="42.7889095154" lon="-0.2426447812">
        <ele>2400.07</ele>
        <time>2022-07-13T15:46:00Z</time>
      </trkpt>
      <trkpt lat="42.7889520116" lon="-0.2427940629">
        <ele>2400.07</ele>
        <time>2022-07-13T15:46:12Z</time>
      </trkpt>
      <trkpt lat="42.7889525145" lon="-0.2428255789">
        <ele>2400.07</ele>
        <time>2022-07-13T15:46:14Z</time>
      </trkpt>
      <trkpt lat="42.7890018001" lon="-0.2429844160">
        <ele>2403.43</ele>
        <time>2022-07-13T15:46:29Z</time>
      </trkpt>
      <trkpt lat="42.7890422847" lon="-0.2430802211">
        <ele>2403.91</ele>
        <time>2022-07-13T15:46:40Z</time>
      </trkpt>
      <trkpt lat="42.7890384290" lon="-0.2432003338">
        <ele>2402.95</ele>
        <time>2022-07-13T15:46:48Z</time>
      </trkpt>
      <trkpt lat="42.7890522592" lon="-0.2432310954">
        <ele>2402.47</ele>
        <time>2022-07-13T15:46:51Z</time>
      </trkpt>
      <trkpt lat="42.7891242597" lon="-0.2433238830">
        <ele>2402.95</ele>
        <time>2022-07-13T15:47:00Z</time>
      </trkpt>
      <trkpt lat="42.7892234176" lon="-0.2434460912">
        <ele>2402.95</ele>
        <time>2022-07-13T15:47:14Z</time>
      </trkpt>
      <trkpt lat="42.7892297879" lon="-0.2434555627">
        <ele>2402.95</ele>
        <time>2022-07-13T15:47:15Z</time>
      </trkpt>
      <trkpt lat="42.7893504873" lon="-0.2435345203">
        <ele>2402.95</ele>
        <time>2022-07-13T15:47:30Z</time>
      </trkpt>
      <trkpt lat="42.7893677540" lon="-0.2435325086">
        <ele>2402.95</ele>
        <time>2022-07-13T15:47:32Z</time>
      </trkpt>
      <trkpt lat="42.7894239128" lon="-0.2435249649">
        <ele>2402.95</ele>
        <time>2022-07-13T15:47:39Z</time>
      </trkpt>
      <trkpt lat="42.7895398345" lon="-0.2435579058">
        <ele>2402.47</ele>
        <time>2022-07-13T15:47:55Z</time>
      </trkpt>
      <trkpt lat="42.7895800676" lon="-0.2436343487">
        <ele>2401.51</ele>
        <time>2022-07-13T15:48:03Z</time>
      </trkpt>
      <trkpt lat="42.7895899583" lon="-0.2436634339">
        <ele>2401.51</ele>
        <time>2022-07-13T15:48:05Z</time>
      </trkpt>
      <trkpt lat="42.7896378189" lon="-0.2436930221">
        <ele>2402.47</ele>
        <time>2022-07-13T15:48:14Z</time>
      </trkpt>
      <trkpt lat="42.7896318678" lon="-0.2436983027">
        <ele>2402.47</ele>
        <time>2022-07-13T15:48:35Z</time>
      </trkpt>
      <trkpt lat="42.7896270901" lon="-0.2437217720">
        <ele>2402.47</ele>
        <time>2022-07-13T15:48:37Z</time>
      </trkpt>
      <trkpt lat="42.7896264195" lon="-0.2437443193">
        <ele>2402.47</ele>
        <time>2022-07-13T15:48:39Z</time>
      </trkpt>
      <trkpt lat="42.7896759566" lon="-0.2438412141">
        <ele>2403.91</ele>
        <time>2022-07-13T15:48:47Z</time>
      </trkpt>
      <trkpt lat="42.7897145133" lon="-0.2438635938">
        <ele>2402.47</ele>
        <time>2022-07-13T15:48:51Z</time>
      </trkpt>
      <trkpt lat="42.7897253260" lon="-0.2438681200">
        <ele>2401.99</ele>
        <time>2022-07-13T15:48:52Z</time>
      </trkpt>
      <trkpt lat="42.7897710074" lon="-0.2439427190">
        <ele>2401.99</ele>
        <time>2022-07-13T15:48:59Z</time>
      </trkpt>
      <trkpt lat="42.7898104023" lon="-0.2439900767">
        <ele>2401.99</ele>
        <time>2022-07-13T15:49:03Z</time>
      </trkpt>
      <trkpt lat="42.7898795530" lon="-0.2440392785">
        <ele>2401.03</ele>
        <time>2022-07-13T15:49:11Z</time>
      </trkpt>
      <trkpt lat="42.7899618633" lon="-0.2441410348">
        <ele>2399.59</ele>
        <time>2022-07-13T15:49:22Z</time>
      </trkpt>
      <trkpt lat="42.7900297567" lon="-0.2442674339">
        <ele>2397.18</ele>
        <time>2022-07-13T15:49:36Z</time>
      </trkpt>
      <trkpt lat="42.7901077922" lon="-0.2443583775">
        <ele>2395.26</ele>
        <time>2022-07-13T15:49:49Z</time>
      </trkpt>
      <trkpt lat="42.7901102230" lon="-0.2443551086">
        <ele>2395.26</ele>
        <time>2022-07-13T15:49:50Z</time>
      </trkpt>
      <trkpt lat="42.7901450917" lon="-0.2443370875">
        <ele>2395.26</ele>
        <time>2022-07-13T15:49:54Z</time>
      </trkpt>
      <trkpt lat="42.7901647892" lon="-0.2443365008">
        <ele>2396.70</ele>
        <time>2022-07-13T15:49:56Z</time>
      </trkpt>
      <trkpt lat="42.7902342752" lon="-0.2442898974">
        <ele>2396.70</ele>
        <time>2022-07-13T15:50:08Z</time>
      </trkpt>
      <trkpt lat="42.7902642824" lon="-0.2443178929">
        <ele>2395.26</ele>
        <time>2022-07-13T15:50:13Z</time>
      </trkpt>
      <trkpt lat="42.7902784478" lon="-0.2443359978">
        <ele>2394.30</ele>
        <time>2022-07-13T15:50:15Z</time>
      </trkpt>
      <trkpt lat="42.7903361153" lon="-0.2443733811">
        <ele>2394.30</ele>
        <time>2022-07-13T15:50:22Z</time>
      </trkpt>
      <trkpt lat="42.7903672960" lon="-0.2444088366">
        <ele>2394.30</ele>
        <time>2022-07-13T15:50:26Z</time>
      </trkpt>
      <trkpt lat="42.7904762607" lon="-0.2444644924">
        <ele>2394.30</ele>
        <time>2022-07-13T15:50:39Z</time>
      </trkpt>
      <trkpt lat="42.7905535419" lon="-0.2444940805">
        <ele>2391.90</ele>
        <time>2022-07-13T15:50:50Z</time>
      </trkpt>
      <trkpt lat="42.7906071860" lon="-0.2444811724">
        <ele>2391.90</ele>
        <time>2022-07-13T15:50:54Z</time>
      </trkpt>
      <trkpt lat="42.7906436473" lon="-0.2444969304">
        <ele>2391.90</ele>
        <time>2022-07-13T15:50:57Z</time>
      </trkpt>
      <trkpt lat="42.7906963695" lon="-0.2446850203">
        <ele>2391.90</ele>
        <time>2022-07-13T15:51:11Z</time>
      </trkpt>
      <trkpt lat="42.7907086909" lon="-0.2448047977">
        <ele>2391.90</ele>
        <time>2022-07-13T15:51:20Z</time>
      </trkpt>
      <trkpt lat="42.7907388657" lon="-0.2449195459">
        <ele>2391.90</ele>
        <time>2022-07-13T15:51:29Z</time>
      </trkpt>
      <trkpt lat="42.7907212637" lon="-0.2450115792">
        <ele>2392.38</ele>
        <time>2022-07-13T15:51:35Z</time>
      </trkpt>
      <trkpt lat="42.7906702179" lon="-0.2450983319">
        <ele>2392.38</ele>
        <time>2022-07-13T15:51:49Z</time>
      </trkpt>
      <trkpt lat="42.7903254703" lon="-0.2451490425">
        <ele>2414.01</ele>
        <time>2022-07-14T06:11:57Z</time>
      </trkpt>
      <trkpt lat="42.7903393004" lon="-0.2451509703">
        <ele>2414.49</ele>
        <time>2022-07-14T06:11:58Z</time>
      </trkpt>
      <trkpt lat="42.7904817928" lon="-0.2450899500">
        <ele>2414.97</ele>
        <time>2022-07-14T06:12:12Z</time>
      </trkpt>
      <trkpt lat="42.7905217744" lon="-0.2450938057">
        <ele>2416.41</ele>
        <time>2022-07-14T06:12:21Z</time>
      </trkpt>
      <trkpt lat="42.7905574813" lon="-0.2452299278">
        <ele>2416.89</ele>
        <time>2022-07-14T06:12:33Z</time>
      </trkpt>
      <trkpt lat="42.7905621752" lon="-0.2452682331">
        <ele>2416.89</ele>
        <time>2022-07-14T06:12:35Z</time>
      </trkpt>
      <trkpt lat="42.7906702179" lon="-0.2454372123">
        <ele>2416.41</ele>
        <time>2022-07-14T06:12:49Z</time>
      </trkpt>
      <trkpt lat="42.7906936873" lon="-0.2455393039">
        <ele>2415.45</ele>
        <time>2022-07-14T06:12:57Z</time>
      </trkpt>
      <trkpt lat="42.7907174081" lon="-0.2456557285">
        <ele>2415.45</ele>
        <time>2022-07-14T06:13:06Z</time>
      </trkpt>
      <trkpt lat="42.7907209285" lon="-0.2457001526">
        <ele>2415.45</ele>
        <time>2022-07-14T06:13:08Z</time>
      </trkpt>
      <trkpt lat="42.7907780930" lon="-0.2458345145">
        <ele>2415.45</ele>
        <time>2022-07-14T06:13:18Z</time>
      </trkpt>
      <trkpt lat="42.7907880675" lon="-0.2458733227">
        <ele>2416.89</ele>
        <time>2022-07-14T06:13:20Z</time>
      </trkpt>
      <trkpt lat="42.7910207491" lon="-0.2460125461">
        <ele>2416.89</ele>
        <time>2022-07-14T06:13:27Z</time>
      </trkpt>
      <trkpt lat="42.7910827752" lon="-0.2460317407">
        <ele>2416.89</ele>
        <time>2022-07-14T06:13:29Z</time>
      </trkpt>
      <trkpt lat="42.7911635768" lon="-0.2461655997">
        <ele>2416.89</ele>
        <time>2022-07-14T06:13:41Z</time>
      </trkpt>
      <trkpt lat="42.7911328152" lon="-0.2462474070">
        <ele>2415.45</ele>
        <time>2022-07-14T06:13:52Z</time>
      </trkpt>
      <trkpt lat="42.7910842840" lon="-0.2462660149">
        <ele>2415.45</ele>
        <time>2022-07-14T06:13:57Z</time>
      </trkpt>
      <trkpt lat="42.7910583839" lon="-0.2462598123">
        <ele>2415.45</ele>
        <time>2022-07-14T06:13:59Z</time>
      </trkpt>
      <trkpt lat="42.7910455596" lon="-0.2462641709">
        <ele>2415.45</ele>
        <time>2022-07-14T06:14:00Z</time>
      </trkpt>
      <trkpt lat="42.7910108585" lon="-0.2463142108">
        <ele>2415.45</ele>
        <time>2022-07-14T06:14:03Z</time>
      </trkpt>
      <trkpt lat="42.7910096012" lon="-0.2463279571">
        <ele>2415.45</ele>
        <time>2022-07-14T06:14:04Z</time>
      </trkpt>
      <trkpt lat="42.7910032310" lon="-0.2463881392">
        <ele>2415.45</ele>
        <time>2022-07-14T06:14:08Z</time>
      </trkpt>
      <trkpt lat="42.7910347469" lon="-0.2464994509">
        <ele>2415.45</ele>
        <time>2022-07-14T06:14:15Z</time>
      </trkpt>
      <trkpt lat="42.7910970245" lon="-0.2466061525">
        <ele>2416.89</ele>
        <time>2022-07-14T06:14:23Z</time>
      </trkpt>
      <trkpt lat="42.7912179753" lon="-0.2467013709">
        <ele>2416.89</ele>
        <time>2022-07-14T06:14:26Z</time>
      </trkpt>
      <trkpt lat="42.7911077533" lon="-0.2466996107">
        <ele>2416.89</ele>
        <time>2022-07-14T06:14:32Z</time>
      </trkpt>
      <trkpt lat="42.7910432965" lon="-0.2466960065">
        <ele>2416.89</ele>
        <time>2022-07-14T06:14:37Z</time>
      </trkpt>
      <trkpt lat="42.7910549473" lon="-0.2467836812">
        <ele>2416.89</ele>
        <time>2022-07-14T06:14:47Z</time>
      </trkpt>
      <trkpt lat="42.7910537738" lon="-0.2468236629">
        <ele>2416.89</ele>
        <time>2022-07-14T06:14:49Z</time>
      </trkpt>
      <trkpt lat="42.7910647541" lon="-0.2468483057">
        <ele>2416.89</ele>
        <time>2022-07-14T06:14:51Z</time>
      </trkpt>
      <trkpt lat="42.7910727169" lon="-0.2468741219">
        <ele>2416.89</ele>
        <time>2022-07-14T06:14:53Z</time>
      </trkpt>
      <trkpt lat="42.7910836134" lon="-0.2469788119">
        <ele>2417.37</ele>
        <time>2022-07-14T06:15:01Z</time>
      </trkpt>
      <trkpt lat="42.7911033109" lon="-0.2471493836">
        <ele>2418.33</ele>
        <time>2022-07-14T06:15:14Z</time>
      </trkpt>
      <trkpt lat="42.7911654208" lon="-0.2471446898">
        <ele>2418.33</ele>
        <time>2022-07-14T06:15:27Z</time>
      </trkpt>
      <trkpt lat="42.7911738027" lon="-0.2471860126">
        <ele>2418.33</ele>
        <time>2022-07-14T06:15:30Z</time>
      </trkpt>
      <trkpt lat="42.7911639120" lon="-0.2472858410">
        <ele>2418.81</ele>
        <time>2022-07-14T06:15:36Z</time>
      </trkpt>
      <trkpt lat="42.7912244294" lon="-0.2474942151">
        <ele>2419.30</ele>
        <time>2022-07-14T06:15:49Z</time>
      </trkpt>
      <trkpt lat="42.7912679315" lon="-0.2476167586">
        <ele>2419.78</ele>
        <time>2022-07-14T06:15:57Z</time>
      </trkpt>
      <trkpt lat="42.7912572026" lon="-0.2478293236">
        <ele>2420.26</ele>
        <time>2022-07-14T06:16:10Z</time>
      </trkpt>
      <trkpt lat="42.7912462223" lon="-0.2481111232">
        <ele>2421.22</ele>
        <time>2022-07-14T06:16:26Z</time>
      </trkpt>
      <trkpt lat="42.7912221663" lon="-0.2483300585">
        <ele>2422.18</ele>
        <time>2022-07-14T06:16:39Z</time>
      </trkpt>
      <trkpt lat="42.7911851183" lon="-0.2485842817">
        <ele>2423.14</ele>
        <time>2022-07-14T06:16:53Z</time>
      </trkpt>
      <trkpt lat="42.7911494952" lon="-0.2488043066">
        <ele>2423.62</ele>
        <time>2022-07-14T06:17:06Z</time>
      </trkpt>
      <trkpt lat="42.7911725454" lon="-0.2490024548">
        <ele>2423.62</ele>
        <time>2022-07-14T06:17:19Z</time>
      </trkpt>
      <trkpt lat="42.7911517583" lon="-0.2490419336">
        <ele>2423.62</ele>
        <time>2022-07-14T06:17:24Z</time>
      </trkpt>
      <trkpt lat="42.7910748962" lon="-0.2490923926">
        <ele>2424.10</ele>
        <time>2022-07-14T06:17:33Z</time>
      </trkpt>
      <trkpt lat="42.7910541929" lon="-0.2490773052">
        <ele>2424.10</ele>
        <time>2022-07-14T06:17:35Z</time>
      </trkpt>
      <trkpt lat="42.7910210006" lon="-0.2490811609">
        <ele>2424.10</ele>
        <time>2022-07-14T06:17:38Z</time>
      </trkpt>
      <trkpt lat="42.7909530234" lon="-0.2490511537">
        <ele>2426.02</ele>
        <time>2022-07-14T06:17:52Z</time>
      </trkpt>
      <trkpt lat="42.7909298055" lon="-0.2490444481">
        <ele>2426.02</ele>
        <time>2022-07-14T06:18:25Z</time>
      </trkpt>
      <trkpt lat="42.7909495868" lon="-0.2491486352">
        <ele>2424.58</ele>
        <time>2022-07-14T06:18:35Z</time>
      </trkpt>
      <trkpt lat="42.7909127064" lon="-0.2491680812">
        <ele>2426.02</ele>
        <time>2022-07-14T06:18:46Z</time>
      </trkpt>
      <trkpt lat="42.7909432165" lon="-0.2491425164">
        <ele>2425.06</ele>
        <time>2022-07-14T06:19:00Z</time>
      </trkpt>
      <trkpt lat="42.7909243573" lon="-0.2491712663">
        <ele>2424.10</ele>
        <time>2022-07-14T06:19:30Z</time>
      </trkpt>
      <trkpt lat="42.7909358405" lon="-0.2491572686">
        <ele>2424.10</ele>
        <time>2022-07-14T06:20:08Z</time>
      </trkpt>
      <trkpt lat="42.7909388579" lon="-0.2491541672">
        <ele>2423.62</ele>
        <time>2022-07-14T06:20:48Z</time>
      </trkpt>
      <trkpt lat="42.7909452282" lon="-0.2491618786">
        <ele>2423.62</ele>
        <time>2022-07-14T06:21:28Z</time>
      </trkpt>
      <trkpt lat="42.7909359243" lon="-0.2491462883">
        <ele>2423.62</ele>
        <time>2022-07-14T06:21:59Z</time>
      </trkpt>
      <trkpt lat="42.7909546159" lon="-0.2491389960">
        <ele>2423.62</ele>
        <time>2022-07-14T06:22:36Z</time>
      </trkpt>
      <trkpt lat="42.7909376007" lon="-0.2491253335">
        <ele>2423.62</ele>
        <time>2022-07-14T06:23:07Z</time>
      </trkpt>
      <trkpt lat="42.7909395285" lon="-0.2491476294">
        <ele>2424.10</ele>
        <time>2022-07-14T06:23:42Z</time>
      </trkpt>
      <trkpt lat="42.7909356728" lon="-0.2491744515">
        <ele>2424.10</ele>
        <time>2022-07-14T06:24:18Z</time>
      </trkpt>
      <trkpt lat="42.7909354214" lon="-0.2491644770">
        <ele>2424.10</ele>
        <time>2022-07-14T06:24:56Z</time>
      </trkpt>
      <trkpt lat="42.7909369301" lon="-0.2491793968">
        <ele>2424.10</ele>
        <time>2022-07-14T06:25:35Z</time>
      </trkpt>
      <trkpt lat="42.7909459826" lon="-0.2491777204">
        <ele>2424.58</ele>
        <time>2022-07-14T06:26:15Z</time>
      </trkpt>
      <trkpt lat="42.7909442224" lon="-0.2491674107">
        <ele>2424.58</ele>
        <time>2022-07-14T06:26:50Z</time>
      </trkpt>
      <trkpt lat="42.7909493353" lon="-0.2491822466">
        <ele>2424.58</ele>
        <time>2022-07-14T06:27:25Z</time>
      </trkpt>
      <trkpt lat="42.7909392770" lon="-0.2491646446">
        <ele>2425.54</ele>
        <time>2022-07-14T06:27:42Z</time>
      </trkpt>
      <trkpt lat="42.7910254430" lon="-0.2494264115">
        <ele>2419.78</ele>
        <time>2022-07-14T06:45:29Z</time>
      </trkpt>
      <trkpt lat="42.7909774985" lon="-0.2494171076">
        <ele>2416.41</ele>
        <time>2022-07-14T06:45:32Z</time>
      </trkpt>
      <trkpt lat="42.7909244411" lon="-0.2494010981">
        <ele>2413.05</ele>
        <time>2022-07-14T06:45:36Z</time>
      </trkpt>
      <trkpt lat="42.7908904105" lon="-0.2494042832">
        <ele>2410.16</ele>
        <time>2022-07-14T06:45:41Z</time>
      </trkpt>
      <trkpt lat="42.7908890694" lon="-0.2494036965">
        <ele>2409.68</ele>
        <time>2022-07-14T06:45:42Z</time>
      </trkpt>
      <trkpt lat="42.7908616606" lon="-0.2494907007">
        <ele>2408.72</ele>
        <time>2022-07-14T06:45:55Z</time>
      </trkpt>
      <trkpt lat="42.7907857206" lon="-0.2495206241">
        <ele>2408.72</ele>
        <time>2022-07-14T06:46:06Z</time>
      </trkpt>
      <trkpt lat="42.7907656040" lon="-0.2495186124">
        <ele>2409.68</ele>
        <time>2022-07-14T06:46:08Z</time>
      </trkpt>
      <trkpt lat="42.7907279693" lon="-0.2495766152">
        <ele>2410.64</ele>
        <time>2022-07-14T06:46:15Z</time>
      </trkpt>
      <trkpt lat="42.7907331660" lon="-0.2496082149">
        <ele>2412.57</ele>
        <time>2022-07-14T06:46:19Z</time>
      </trkpt>
      <trkpt lat="42.7907628380" lon="-0.2496341988">
        <ele>2413.05</ele>
        <time>2022-07-14T06:46:22Z</time>
      </trkpt>
      <trkpt lat="42.7907504328" lon="-0.2497195266">
        <ele>2413.05</ele>
        <time>2022-07-14T06:46:28Z</time>
      </trkpt>
      <trkpt lat="42.7907607425" lon="-0.2497692313">
        <ele>2413.05</ele>
        <time>2022-07-14T06:46:31Z</time>
      </trkpt>
      <trkpt lat="42.7907693759" lon="-0.2498626057">
        <ele>2413.53</ele>
        <time>2022-07-14T06:46:37Z</time>
      </trkpt>
      <trkpt lat="42.7907234430" lon="-0.2499382943">
        <ele>2414.97</ele>
        <time>2022-07-14T06:46:44Z</time>
      </trkpt>
      <trkpt lat="42.7907162346" lon="-0.2499754261">
        <ele>2414.97</ele>
        <time>2022-07-14T06:46:47Z</time>
      </trkpt>
      <trkpt lat="42.7907268796" lon="-0.2500263881">
        <ele>2416.41</ele>
        <time>2022-07-14T06:46:51Z</time>
      </trkpt>
      <trkpt lat="42.7907618321" lon="-0.2502150647">
        <ele>2417.85</ele>
        <time>2022-07-14T06:47:05Z</time>
      </trkpt>
      <trkpt lat="42.7907757461" lon="-0.2503803559">
        <ele>2420.26</ele>
        <time>2022-07-14T06:47:20Z</time>
      </trkpt>
      <trkpt lat="42.7907730639" lon="-0.2505289670">
        <ele>2421.70</ele>
        <time>2022-07-14T06:47:30Z</time>
      </trkpt>
      <trkpt lat="42.7907504328" lon="-0.2505665179">
        <ele>2422.66</ele>
        <time>2022-07-14T06:47:33Z</time>
      </trkpt>
      <trkpt lat="42.7907135524" lon="-0.2507427894">
        <ele>2423.62</ele>
        <time>2022-07-14T06:47:46Z</time>
      </trkpt>
      <trkpt lat="42.7907286398" lon="-0.2509396803">
        <ele>2426.02</ele>
        <time>2022-07-14T06:47:59Z</time>
      </trkpt>
      <trkpt lat="42.7907072660" lon="-0.2509788238">
        <ele>2426.02</ele>
        <time>2022-07-14T06:48:02Z</time>
      </trkpt>
      <trkpt lat="42.7907024883" lon="-0.2510213200">
        <ele>2426.50</ele>
        <time>2022-07-14T06:48:05Z</time>
      </trkpt>
      <trkpt lat="42.7906424738" lon="-0.2511236630">
        <ele>2428.43</ele>
        <time>2022-07-14T06:48:14Z</time>
      </trkpt>
      <trkpt lat="42.7906328347" lon="-0.2511568554">
        <ele>2428.91</ele>
        <time>2022-07-14T06:48:18Z</time>
      </trkpt>
      <trkpt lat="42.7906018216" lon="-0.2512576059">
        <ele>2429.39</ele>
        <time>2022-07-14T06:48:26Z</time>
      </trkpt>
      <trkpt lat="42.7905894164" lon="-0.2513006050">
        <ele>2429.87</ele>
        <time>2022-07-14T06:48:29Z</time>
      </trkpt>
      <trkpt lat="42.7905783523" lon="-0.2513244096">
        <ele>2429.87</ele>
        <time>2022-07-14T06:48:31Z</time>
      </trkpt>
      <trkpt lat="42.7905640192" lon="-0.2514979988">
        <ele>2431.79</ele>
        <time>2022-07-14T06:48:43Z</time>
      </trkpt>
      <trkpt lat="42.7905273903" lon="-0.2516827360">
        <ele>2433.23</ele>
        <time>2022-07-14T06:48:58Z</time>
      </trkpt>
      <trkpt lat="42.7904807869" lon="-0.2518045250">
        <ele>2435.16</ele>
        <time>2022-07-14T06:49:10Z</time>
      </trkpt>
      <trkpt lat="42.7904584073" lon="-0.2519873343">
        <ele>2437.08</ele>
        <time>2022-07-14T06:49:23Z</time>
      </trkpt>
      <trkpt lat="42.7904919349" lon="-0.2521093749">
        <ele>2439.00</ele>
        <time>2022-07-14T06:49:35Z</time>
      </trkpt>
      <trkpt lat="42.7905197628" lon="-0.2521559782">
        <ele>2439.00</ele>
        <time>2022-07-14T06:49:47Z</time>
      </trkpt>
      <trkpt lat="42.7905034181" lon="-0.2522032522">
        <ele>2439.48</ele>
        <time>2022-07-14T06:49:59Z</time>
      </trkpt>
      <trkpt lat="42.7904690523" lon="-0.2521845605">
        <ele>2438.04</ele>
        <time>2022-07-14T06:50:07Z</time>
      </trkpt>
      <trkpt lat="42.7904696390" lon="-0.2521875780">
        <ele>2439.00</ele>
        <time>2022-07-14T06:50:13Z</time>
      </trkpt>
      <trkpt lat="42.7904745843" lon="-0.2521538828">
        <ele>2439.00</ele>
        <time>2022-07-14T06:50:43Z</time>
      </trkpt>
      <trkpt lat="42.7904666215" lon="-0.2521299105">
        <ele>2439.96</ele>
        <time>2022-07-14T06:51:11Z</time>
      </trkpt>
      <trkpt lat="42.7904713992" lon="-0.2521698922">
        <ele>2440.44</ele>
        <time>2022-07-14T06:51:28Z</time>
      </trkpt>
      <trkpt lat="42.7905221097" lon="-0.2522097901">
        <ele>2441.41</ele>
        <time>2022-07-14T06:51:40Z</time>
      </trkpt>
      <trkpt lat="42.7904852293" lon="-0.2523126360">
        <ele>2443.81</ele>
        <time>2022-07-14T06:51:52Z</time>
      </trkpt>
      <trkpt lat="42.7905012388" lon="-0.2524077706">
        <ele>2446.21</ele>
        <time>2022-07-14T06:52:03Z</time>
      </trkpt>
      <trkpt lat="42.7904812898" lon="-0.2524877340">
        <ele>2448.62</ele>
        <time>2022-07-14T06:52:18Z</time>
      </trkpt>
      <trkpt lat="42.7904946171" lon="-0.2525666077">
        <ele>2451.02</ele>
        <time>2022-07-14T06:52:33Z</time>
      </trkpt>
      <trkpt lat="42.7904934436" lon="-0.2525888197">
        <ele>2452.46</ele>
        <time>2022-07-14T06:52:36Z</time>
      </trkpt>
      <trkpt lat="42.7904654481" lon="-0.2526867203">
        <ele>2455.34</ele>
        <time>2022-07-14T06:52:49Z</time>
      </trkpt>
      <trkpt lat="42.7904936112" lon="-0.2527205832">
        <ele>2456.79</ele>
        <time>2022-07-14T06:53:00Z</time>
      </trkpt>
      <trkpt lat="42.7904812898" lon="-0.2528199926">
        <ele>2459.67</ele>
        <time>2022-07-14T06:53:13Z</time>
      </trkpt>
      <trkpt lat="42.7904327586" lon="-0.2528969385">
        <ele>2462.55</ele>
        <time>2022-07-14T06:53:26Z</time>
      </trkpt>
      <trkpt lat="42.7903994825" lon="-0.2529528458">
        <ele>2464.96</ele>
        <time>2022-07-14T06:53:40Z</time>
      </trkpt>
      <trkpt lat="42.7903367858" lon="-0.2530285344">
        <ele>2468.32</ele>
        <time>2022-07-14T06:53:55Z</time>
      </trkpt>
      <trkpt lat="42.7902655397" lon="-0.2530846931">
        <ele>2470.73</ele>
        <time>2022-07-14T06:54:07Z</time>
      </trkpt>
      <trkpt lat="42.7902004123" lon="-0.2531209867">
        <ele>2473.61</ele>
        <time>2022-07-14T06:54:18Z</time>
      </trkpt>
      <trkpt lat="42.7901617717" lon="-0.2532062307">
        <ele>2476.49</ele>
        <time>2022-07-14T06:54:30Z</time>
      </trkpt>
      <trkpt lat="42.7901236340" lon="-0.2533065621">
        <ele>2479.38</ele>
        <time>2022-07-14T06:54:44Z</time>
      </trkpt>
      <trkpt lat="42.7900811378" lon="-0.2533960808">
        <ele>2482.26</ele>
        <time>2022-07-14T06:54:58Z</time>
      </trkpt>
      <trkpt lat="42.7900760248" lon="-0.2534513175">
        <ele>2483.70</ele>
        <time>2022-07-14T06:55:05Z</time>
      </trkpt>
      <trkpt lat="42.7899674792" lon="-0.2535555046">
        <ele>2485.15</ele>
        <time>2022-07-14T06:55:20Z</time>
      </trkpt>
      <trkpt lat="42.7899223007" lon="-0.2536481246">
        <ele>2486.59</ele>
        <time>2022-07-14T06:55:33Z</time>
      </trkpt>
      <trkpt lat="42.7899209596" lon="-0.2536592726">
        <ele>2487.07</ele>
        <time>2022-07-14T06:55:34Z</time>
      </trkpt>
      <trkpt lat="42.7898456901" lon="-0.2538192831">
        <ele>2489.95</ele>
        <time>2022-07-14T06:55:49Z</time>
      </trkpt>
      <trkpt lat="42.7897996735" lon="-0.2539475262">
        <ele>2492.84</ele>
        <time>2022-07-14T06:56:02Z</time>
      </trkpt>
      <trkpt lat="42.7897936385" lon="-0.2539607696">
        <ele>2492.84</ele>
        <time>2022-07-14T06:56:03Z</time>
      </trkpt>
      <trkpt lat="42.7897510584" lon="-0.2540076245">
        <ele>2492.84</ele>
        <time>2022-07-14T06:56:08Z</time>
      </trkpt>
      <trkpt lat="42.7896831650" lon="-0.2541797888">
        <ele>2494.28</ele>
        <time>2022-07-14T06:56:22Z</time>
      </trkpt>
      <trkpt lat="42.7896219771" lon="-0.2543163300">
        <ele>2496.20</ele>
        <time>2022-07-14T06:56:34Z</time>
      </trkpt>
      <trkpt lat="42.7896303590" lon="-0.2544794418">
        <ele>2499.08</ele>
        <time>2022-07-14T06:56:48Z</time>
      </trkpt>
      <trkpt lat="42.7896275930" lon="-0.2546415478">
        <ele>2501.49</ele>
        <time>2022-07-14T06:57:00Z</time>
      </trkpt>
      <trkpt lat="42.7896252461" lon="-0.2546686213">
        <ele>2501.49</ele>
        <time>2022-07-14T06:57:02Z</time>
      </trkpt>
      <trkpt lat="42.7896582708" lon="-0.2548923343">
        <ele>2504.37</ele>
        <time>2022-07-14T06:57:18Z</time>
      </trkpt>
      <trkpt lat="42.7896928042" lon="-0.2550425380">
        <ele>2506.77</ele>
        <time>2022-07-14T06:57:31Z</time>
      </trkpt>
      <trkpt lat="42.7896866854" lon="-0.2551205736">
        <ele>2507.74</ele>
        <time>2022-07-14T06:57:38Z</time>
      </trkpt>
      <trkpt lat="42.7896704245" lon="-0.2552798297">
        <ele>2510.14</ele>
        <time>2022-07-14T06:57:52Z</time>
      </trkpt>
      <trkpt lat="42.7897052094" lon="-0.2553702705">
        <ele>2512.54</ele>
        <time>2022-07-14T06:58:04Z</time>
      </trkpt>
      <trkpt lat="42.7897013538" lon="-0.2555166185">
        <ele>2514.95</ele>
        <time>2022-07-14T06:58:18Z</time>
      </trkpt>
      <trkpt lat="42.7896898706" lon="-0.2556400001">
        <ele>2517.35</ele>
        <time>2022-07-14T06:58:30Z</time>
      </trkpt>
      <trkpt lat="42.7896328736" lon="-0.2557561733">
        <ele>2519.27</ele>
        <time>2022-07-14T06:58:44Z</time>
      </trkpt>
      <trkpt lat="42.7896361426" lon="-0.2557660639">
        <ele>2519.27</ele>
        <time>2022-07-14T06:58:45Z</time>
      </trkpt>
      <trkpt lat="42.7896968275" lon="-0.2558292635">
        <ele>2522.16</ele>
        <time>2022-07-14T06:58:58Z</time>
      </trkpt>
      <trkpt lat="42.7897525672" lon="-0.2559320256">
        <ele>2525.04</ele>
        <time>2022-07-14T06:59:11Z</time>
      </trkpt>
      <trkpt lat="42.7897862624" lon="-0.2560671419">
        <ele>2526.96</ele>
        <time>2022-07-14T06:59:24Z</time>
      </trkpt>
      <trkpt lat="42.7897544950" lon="-0.2561947145">
        <ele>2529.37</ele>
        <time>2022-07-14T06:59:37Z</time>
      </trkpt>
      <trkpt lat="42.7897546627" lon="-0.2562916093">
        <ele>2530.33</ele>
        <time>2022-07-14T06:59:45Z</time>
      </trkpt>
      <trkpt lat="42.7897661459" lon="-0.2563325968">
        <ele>2530.33</ele>
        <time>2022-07-14T06:59:48Z</time>
      </trkpt>
      <trkpt lat="42.7898172755" lon="-0.2565091196">
        <ele>2533.21</ele>
        <time>2022-07-14T07:00:03Z</time>
      </trkpt>
      <trkpt lat="42.7898553293" lon="-0.2566800267">
        <ele>2535.61</ele>
        <time>2022-07-14T07:00:16Z</time>
      </trkpt>
      <trkpt lat="42.7898632083" lon="-0.2568246145">
        <ele>2537.54</ele>
        <time>2022-07-14T07:00:29Z</time>
      </trkpt>
      <trkpt lat="42.7898612805" lon="-0.2569596469">
        <ele>2540.90</ele>
        <time>2022-07-14T07:00:42Z</time>
      </trkpt>
      <trkpt lat="42.7898710873" lon="-0.2569982037">
        <ele>2541.38</ele>
        <time>2022-07-14T07:00:45Z</time>
      </trkpt>
      <trkpt lat="42.7899000049" lon="-0.2571135387">
        <ele>2542.82</ele>
        <time>2022-07-14T07:00:56Z</time>
      </trkpt>
      <trkpt lat="42.7899159305" lon="-0.2572752256">
        <ele>2544.75</ele>
        <time>2022-07-14T07:01:09Z</time>
      </trkpt>
      <trkpt lat="42.7898770384" lon="-0.2574230824">
        <ele>2546.67</ele>
        <time>2022-07-14T07:01:21Z</time>
      </trkpt>
      <trkpt lat="42.7898723446" lon="-0.2576162852">
        <ele>2549.07</ele>
        <time>2022-07-14T07:01:35Z</time>
      </trkpt>
      <trkpt lat="42.7898093965" lon="-0.2577540837">
        <ele>2549.55</ele>
        <time>2022-07-14T07:01:46Z</time>
      </trkpt>
      <trkpt lat="42.7898021042" lon="-0.2577985916">
        <ele>2550.03</ele>
        <time>2022-07-14T07:01:49Z</time>
      </trkpt>
      <trkpt lat="42.7897802275" lon="-0.2579721808">
        <ele>2553.40</ele>
        <time>2022-07-14T07:02:04Z</time>
      </trkpt>
      <trkpt lat="42.7897863463" lon="-0.2581258211">
        <ele>2556.28</ele>
        <time>2022-07-14T07:02:19Z</time>
      </trkpt>
      <trkpt lat="42.7896754537" lon="-0.2582052816">
        <ele>2559.65</ele>
        <time>2022-07-14T07:02:33Z</time>
      </trkpt>
      <trkpt lat="42.7897359710" lon="-0.2583761048">
        <ele>2562.53</ele>
        <time>2022-07-14T07:02:48Z</time>
      </trkpt>
      <trkpt lat="42.7896882780" lon="-0.2585084550">
        <ele>2565.90</ele>
        <time>2022-07-14T07:03:01Z</time>
      </trkpt>
      <trkpt lat="42.7896485478" lon="-0.2585154958">
        <ele>2565.90</ele>
        <time>2022-07-14T07:03:04Z</time>
      </trkpt>
      <trkpt lat="42.7895944007" lon="-0.2584903501">
        <ele>2564.45</ele>
        <time>2022-07-14T07:03:06Z</time>
      </trkpt>
      <trkpt lat="42.7895870246" lon="-0.2584971394">
        <ele>2566.86</ele>
        <time>2022-07-14T07:03:08Z</time>
      </trkpt>
      <trkpt lat="42.7895809058" lon="-0.2585317567">
        <ele>2565.42</ele>
        <time>2022-07-14T07:03:11Z</time>
      </trkpt>
      <trkpt lat="42.7895944845" lon="-0.2586897556">
        <ele>2564.45</ele>
        <time>2022-07-14T07:03:23Z</time>
      </trkpt>
      <trkpt lat="42.7896249108" lon="-0.2588689607">
        <ele>2563.49</ele>
        <time>2022-07-14T07:03:37Z</time>
      </trkpt>
      <trkpt lat="42.7896353882" lon="-0.2589040808">
        <ele>2563.49</ele>
        <time>2022-07-14T07:03:39Z</time>
      </trkpt>
      <trkpt lat="42.7896169480" lon="-0.2589492593">
        <ele>2563.49</ele>
        <time>2022-07-14T07:03:42Z</time>
      </trkpt>
      <trkpt lat="42.7896230668" lon="-0.2590470761">
        <ele>2563.49</ele>
        <time>2022-07-14T07:03:49Z</time>
      </trkpt>
      <trkpt lat="42.7896086499" lon="-0.2591401991">
        <ele>2563.01</ele>
        <time>2022-07-14T07:04:02Z</time>
      </trkpt>
      <trkpt lat="42.7895632200" lon="-0.2591424622">
        <ele>2564.45</ele>
        <time>2022-07-14T07:04:15Z</time>
      </trkpt>
      <trkpt lat="42.7894768026" lon="-0.2590887342">
        <ele>2562.53</ele>
        <time>2022-07-14T07:04:26Z</time>
      </trkpt>
      <trkpt lat="42.7894596197" lon="-0.2590723895">
        <ele>2562.53</ele>
        <time>2022-07-14T07:04:28Z</time>
      </trkpt>
      <trkpt lat="42.7893733699" lon="-0.2589739859">
        <ele>2562.53</ele>
        <time>2022-07-14T07:04:39Z</time>
      </trkpt>
      <trkpt lat="42.7892615553" lon="-0.2589210961">
        <ele>2563.97</ele>
        <time>2022-07-14T07:04:54Z</time>
      </trkpt>
      <trkpt lat="42.7891500760" lon="-0.2589647658">
        <ele>2566.38</ele>
        <time>2022-07-14T07:05:06Z</time>
      </trkpt>
      <trkpt lat="42.7891281992" lon="-0.2590120398">
        <ele>2566.86</ele>
        <time>2022-07-14T07:05:21Z</time>
      </trkpt>
      <trkpt lat="42.7891768981" lon="-0.2590327431">
        <ele>2566.86</ele>
        <time>2022-07-14T07:05:26Z</time>
      </trkpt>
      <trkpt lat="42.7892864496" lon="-0.2592372615">
        <ele>2567.82</ele>
        <time>2022-07-14T07:05:41Z</time>
      </trkpt>
      <trkpt lat="42.7893061470" lon="-0.2593168896">
        <ele>2568.78</ele>
        <time>2022-07-14T07:05:48Z</time>
      </trkpt>
      <trkpt lat="42.7893636469" lon="-0.2595119365">
        <ele>2568.78</ele>
        <time>2022-07-14T07:06:02Z</time>
      </trkpt>
      <trkpt lat="42.7893550973" lon="-0.2596447896">
        <ele>2569.26</ele>
        <time>2022-07-14T07:06:14Z</time>
      </trkpt>
      <trkpt lat="42.7893910557" lon="-0.2597835939">
        <ele>2570.70</ele>
        <time>2022-07-14T07:06:26Z</time>
      </trkpt>
      <trkpt lat="42.7893981803" lon="-0.2597920597">
        <ele>2570.70</ele>
        <time>2022-07-14T07:06:27Z</time>
      </trkpt>
      <trkpt lat="42.7893788181" lon="-0.2599255834">
        <ele>2574.07</ele>
        <time>2022-07-14T07:06:42Z</time>
      </trkpt>
      <trkpt lat="42.7893815842" lon="-0.2599317860">
        <ele>2574.07</ele>
        <time>2022-07-14T07:06:43Z</time>
      </trkpt>
      <trkpt lat="42.7894020360" lon="-0.2600461990">
        <ele>2573.59</ele>
        <time>2022-07-14T07:06:56Z</time>
      </trkpt>
      <trkpt lat="42.7893541753" lon="-0.2601850871">
        <ele>2576.47</ele>
        <time>2022-07-14T07:07:09Z</time>
      </trkpt>
      <trkpt lat="42.7893478889" lon="-0.2602789644">
        <ele>2578.87</ele>
        <time>2022-07-14T07:07:19Z</time>
      </trkpt>
      <trkpt lat="42.7893184684" lon="-0.2603720035">
        <ele>2581.76</ele>
        <time>2022-07-14T07:07:32Z</time>
      </trkpt>
      <trkpt lat="42.7893225756" lon="-0.2604512963">
        <ele>2584.16</ele>
        <time>2022-07-14T07:07:43Z</time>
      </trkpt>
      <trkpt lat="42.7892717812" lon="-0.2605202794">
        <ele>2586.56</ele>
        <time>2022-07-14T07:07:55Z</time>
      </trkpt>
      <trkpt lat="42.7892468031" lon="-0.2605906874">
        <ele>2588.49</ele>
        <time>2022-07-14T07:08:07Z</time>
      </trkpt>
      <trkpt lat="42.7892446239" lon="-0.2606474329">
        <ele>2589.93</ele>
        <time>2022-07-14T07:08:15Z</time>
      </trkpt>
      <trkpt lat="42.7892017923" lon="-0.2607222833">
        <ele>2591.37</ele>
        <time>2022-07-14T07:08:27Z</time>
      </trkpt>
      <trkpt lat="42.7892025467" lon="-0.2608301584">
        <ele>2593.77</ele>
        <time>2022-07-14T07:08:39Z</time>
      </trkpt>
      <trkpt lat="42.7891855314" lon="-0.2608874906">
        <ele>2595.22</ele>
        <time>2022-07-14T07:08:56Z</time>
      </trkpt>
      <trkpt lat="42.7891772334" lon="-0.2609504387">
        <ele>2596.66</ele>
        <time>2022-07-14T07:09:07Z</time>
      </trkpt>
      <trkpt lat="42.7891829330" lon="-0.2609442361">
        <ele>2596.66</ele>
        <time>2022-07-14T07:09:10Z</time>
      </trkpt>
      <trkpt lat="42.7891622297" lon="-0.2610194217">
        <ele>2599.54</ele>
        <time>2022-07-14T07:09:22Z</time>
      </trkpt>
      <trkpt lat="42.7891639899" lon="-0.2611024026">
        <ele>2601.95</ele>
        <time>2022-07-14T07:09:34Z</time>
      </trkpt>
      <trkpt lat="42.7891774848" lon="-0.2612141334">
        <ele>2604.35</ele>
        <time>2022-07-14T07:09:48Z</time>
      </trkpt>
      <trkpt lat="42.7891566977" lon="-0.2612759918">
        <ele>2606.75</ele>
        <time>2022-07-14T07:10:02Z</time>
      </trkpt>
      <trkpt lat="42.7891705278" lon="-0.2613451425">
        <ele>2609.64</ele>
        <time>2022-07-14T07:10:14Z</time>
      </trkpt>
      <trkpt lat="42.7891375031" lon="-0.2613619901">
        <ele>2612.04</ele>
        <time>2022-07-14T07:10:27Z</time>
      </trkpt>
      <trkpt lat="42.7891333122" lon="-0.2614033967">
        <ele>2614.92</ele>
        <time>2022-07-14T07:10:40Z</time>
      </trkpt>
      <trkpt lat="42.7891104296" lon="-0.2614022233">
        <ele>2617.81</ele>
        <time>2022-07-14T07:10:53Z</time>
      </trkpt>
      <trkpt lat="42.7890583780" lon="-0.2614976093">
        <ele>2620.69</ele>
        <time>2022-07-14T07:11:07Z</time>
      </trkpt>
      <trkpt lat="42.7890205756" lon="-0.2616047300">
        <ele>2623.58</ele>
        <time>2022-07-14T07:11:21Z</time>
      </trkpt>
      <trkpt lat="42.7890434582" lon="-0.2617015410">
        <ele>2626.46</ele>
        <time>2022-07-14T07:11:35Z</time>
      </trkpt>
      <trkpt lat="42.7890504152" lon="-0.2617824264">
        <ele>2629.82</ele>
        <time>2022-07-14T07:11:49Z</time>
      </trkpt>
      <trkpt lat="42.7890180610" lon="-0.2618556004">
        <ele>2631.75</ele>
        <time>2022-07-14T07:12:02Z</time>
      </trkpt>
      <trkpt lat="42.7890356630" lon="-0.2619430237">
        <ele>2635.59</ele>
        <time>2022-07-14T07:12:17Z</time>
      </trkpt>
      <trkpt lat="42.7890557796" lon="-0.2620420139">
        <ele>2638.48</ele>
        <time>2022-07-14T07:12:31Z</time>
      </trkpt>
      <trkpt lat="42.7890560310" lon="-0.2621400822">
        <ele>2640.88</ele>
        <time>2022-07-14T07:12:44Z</time>
      </trkpt>
      <trkpt lat="42.7891014609" lon="-0.2621813212">
        <ele>2643.28</ele>
        <time>2022-07-14T07:12:58Z</time>
      </trkpt>
      <trkpt lat="42.7891234215" lon="-0.2622321155">
        <ele>2646.17</ele>
        <time>2022-07-14T07:13:12Z</time>
      </trkpt>
      <trkpt lat="42.7891727909" lon="-0.2622596081">
        <ele>2649.05</ele>
        <time>2022-07-14T07:13:23Z</time>
      </trkpt>
      <trkpt lat="42.7891569491" lon="-0.2623407450">
        <ele>2651.45</ele>
        <time>2022-07-14T07:13:36Z</time>
      </trkpt>
      <trkpt lat="42.7891664207" lon="-0.2625051141">
        <ele>2654.34</ele>
        <time>2022-07-14T07:13:52Z</time>
      </trkpt>
      <trkpt lat="42.7891744673" lon="-0.2625749353">
        <ele>2657.22</ele>
        <time>2022-07-14T07:14:03Z</time>
      </trkpt>
      <trkpt lat="42.7891582903" lon="-0.2626754344">
        <ele>2660.11</ele>
        <time>2022-07-14T07:14:19Z</time>
      </trkpt>
      <trkpt lat="42.7891299594" lon="-0.2628087904">
        <ele>2662.99</ele>
        <time>2022-07-14T07:14:34Z</time>
      </trkpt>
      <trkpt lat="42.7891120221" lon="-0.2628985606">
        <ele>2665.39</ele>
        <time>2022-07-14T07:14:47Z</time>
      </trkpt>
      <trkpt lat="42.7890860382" lon="-0.2629963774">
        <ele>2667.80</ele>
        <time>2022-07-14T07:15:00Z</time>
      </trkpt>
      <trkpt lat="42.7890890557" lon="-0.2631055936">
        <ele>2669.72</ele>
        <time>2022-07-14T07:15:15Z</time>
      </trkpt>
      <trkpt lat="42.7891294565" lon="-0.2632467449">
        <ele>2671.16</ele>
        <time>2022-07-14T07:15:27Z</time>
      </trkpt>
      <trkpt lat="42.7891504113" lon="-0.2633687016">
        <ele>2674.52</ele>
        <time>2022-07-14T07:15:40Z</time>
      </trkpt>
      <trkpt lat="42.7891882975" lon="-0.2635208331">
        <ele>2676.93</ele>
        <time>2022-07-14T07:15:54Z</time>
      </trkpt>
      <trkpt lat="42.7891896386" lon="-0.2635317296">
        <ele>2676.93</ele>
        <time>2022-07-14T07:15:55Z</time>
      </trkpt>
      <trkpt lat="42.7892044745" lon="-0.2636051551">
        <ele>2676.93</ele>
        <time>2022-07-14T07:16:01Z</time>
      </trkpt>
      <trkpt lat="42.7892540954" lon="-0.2637182269">
        <ele>2679.81</ele>
        <time>2022-07-14T07:16:13Z</time>
      </trkpt>
      <trkpt lat="42.7892533410" lon="-0.2637308836">
        <ele>2679.81</ele>
        <time>2022-07-14T07:16:14Z</time>
      </trkpt>
      <trkpt lat="42.7892294526" lon="-0.2638892177">
        <ele>2682.22</ele>
        <time>2022-07-14T07:16:30Z</time>
      </trkpt>
      <trkpt lat="42.7892213222" lon="-0.2640291955">
        <ele>2686.06</ele>
        <time>2022-07-14T07:16:45Z</time>
      </trkpt>
      <trkpt lat="42.7892411035" lon="-0.2641564328">
        <ele>2688.94</ele>
        <time>2022-07-14T07:16:58Z</time>
      </trkpt>
      <trkpt lat="42.7892663330" lon="-0.2643100731">
        <ele>2691.83</ele>
        <time>2022-07-14T07:17:13Z</time>
      </trkpt>
      <trkpt lat="42.7892748825" lon="-0.2643185388">
        <ele>2691.83</ele>
        <time>2022-07-14T07:17:14Z</time>
      </trkpt>
      <trkpt lat="42.7893422730" lon="-0.2644396573">
        <ele>2692.79</ele>
        <time>2022-07-14T07:17:29Z</time>
      </trkpt>
      <trkpt lat="42.7893141937" lon="-0.2644070517">
        <ele>2693.75</ele>
        <time>2022-07-14T07:17:56Z</time>
      </trkpt>
      <trkpt lat="42.7893018723" lon="-0.2644223906">
        <ele>2691.83</ele>
        <time>2022-07-14T07:18:05Z</time>
      </trkpt>
      <trkpt lat="42.7892949153" lon="-0.2644212171">
        <ele>2693.27</ele>
        <time>2022-07-14T07:18:07Z</time>
      </trkpt>
      <trkpt lat="42.7893088292" lon="-0.2644122485">
        <ele>2693.75</ele>
        <time>2022-07-14T07:18:24Z</time>
      </trkpt>
      <trkpt lat="42.7892913111" lon="-0.2644079737">
        <ele>2694.23</ele>
        <time>2022-07-14T07:18:42Z</time>
      </trkpt>
      <trkpt lat="42.7892883774" lon="-0.2644030284">
        <ele>2692.79</ele>
        <time>2022-07-14T07:18:53Z</time>
      </trkpt>
      <trkpt lat="42.7893566899" lon="-0.2644300181">
        <ele>2692.79</ele>
        <time>2022-07-14T07:19:05Z</time>
      </trkpt>
      <trkpt lat="42.7894194704" lon="-0.2645202912">
        <ele>2692.79</ele>
        <time>2022-07-14T07:19:17Z</time>
      </trkpt>
      <trkpt lat="42.7894951589" lon="-0.2645877656">
        <ele>2694.23</ele>
        <time>2022-07-14T07:19:26Z</time>
      </trkpt>
      <trkpt lat="42.7895217296" lon="-0.2646039426">
        <ele>2694.23</ele>
        <time>2022-07-14T07:19:29Z</time>
      </trkpt>
      <trkpt lat="42.7896556724" lon="-0.2646821458">
        <ele>2695.67</ele>
        <time>2022-07-14T07:19:44Z</time>
      </trkpt>
      <trkpt lat="42.7896661498" lon="-0.2646866720">
        <ele>2695.67</ele>
        <time>2022-07-14T07:19:45Z</time>
      </trkpt>
      <trkpt lat="42.7897070535" lon="-0.2647017594">
        <ele>2695.67</ele>
        <time>2022-07-14T07:19:49Z</time>
      </trkpt>
      <trkpt lat="42.7897907887" lon="-0.2647730894">
        <ele>2696.15</ele>
        <time>2022-07-14T07:19:59Z</time>
      </trkpt>
      <trkpt lat="42.7898688242" lon="-0.2648570761">
        <ele>2695.19</ele>
        <time>2022-07-14T07:20:09Z</time>
      </trkpt>
      <trkpt lat="42.7899007592" lon="-0.2648533043">
        <ele>2695.19</ele>
        <time>2022-07-14T07:20:11Z</time>
      </trkpt>
      <trkpt lat="42.7900072932" lon="-0.2648844849">
        <ele>2693.75</ele>
        <time>2022-07-14T07:20:19Z</time>
      </trkpt>
      <trkpt lat="42.7900450118" lon="-0.2648961358">
        <ele>2693.27</ele>
        <time>2022-07-14T07:20:22Z</time>
      </trkpt>
      <trkpt lat="42.7901079599" lon="-0.2649180964">
        <ele>2693.27</ele>
        <time>2022-07-14T07:20:29Z</time>
      </trkpt>
      <trkpt lat="42.7901704051" lon="-0.2649093792">
        <ele>2693.27</ele>
        <time>2022-07-14T07:20:33Z</time>
      </trkpt>
      <trkpt lat="42.7903294936" lon="-0.2649717405">
        <ele>2693.27</ele>
        <time>2022-07-14T07:20:46Z</time>
      </trkpt>
      <trkpt lat="42.7904442418" lon="-0.2650380414">
        <ele>2693.27</ele>
        <time>2022-07-14T07:21:00Z</time>
      </trkpt>
      <trkpt lat="42.7904669568" lon="-0.2650866564">
        <ele>2694.71</ele>
        <time>2022-07-14T07:21:07Z</time>
      </trkpt>
      <trkpt lat="42.7905838843" lon="-0.2652142290">
        <ele>2695.19</ele>
        <time>2022-07-14T07:21:18Z</time>
      </trkpt>
      <trkpt lat="42.7907267120" lon="-0.2652333397">
        <ele>2696.15</ele>
        <time>2022-07-14T07:21:31Z</time>
      </trkpt>
      <trkpt lat="42.7908546198" lon="-0.2653703839">
        <ele>2697.12</ele>
        <time>2022-07-14T07:21:46Z</time>
      </trkpt>
      <trkpt lat="42.7908718865" lon="-0.2654258721">
        <ele>2697.12</ele>
        <time>2022-07-14T07:21:50Z</time>
      </trkpt>
      <trkpt lat="42.7908838727" lon="-0.2654469106">
        <ele>2697.12</ele>
        <time>2022-07-14T07:21:52Z</time>
      </trkpt>
      <trkpt lat="42.7909520175" lon="-0.2655586414">
        <ele>2697.12</ele>
        <time>2022-07-14T07:22:01Z</time>
      </trkpt>
      <trkpt lat="42.7909866348" lon="-0.2655721363">
        <ele>2696.15</ele>
        <time>2022-07-14T07:22:04Z</time>
      </trkpt>
      <trkpt lat="42.7910592221" lon="-0.2655229345">
        <ele>2696.15</ele>
        <time>2022-07-14T07:22:08Z</time>
      </trkpt>
      <trkpt lat="42.7910974436" lon="-0.2655390278">
        <ele>2697.12</ele>
        <time>2022-07-14T07:22:11Z</time>
      </trkpt>
      <trkpt lat="42.7911486570" lon="-0.2657292970">
        <ele>2698.08</ele>
        <time>2022-07-14T07:22:22Z</time>
      </trkpt>
      <trkpt lat="42.7912798338" lon="-0.2658601385">
        <ele>2698.56</ele>
        <time>2022-07-14T07:22:36Z</time>
      </trkpt>
      <trkpt lat="42.7913522534" lon="-0.2659135312">
        <ele>2701.92</ele>
        <time>2022-07-14T07:22:48Z</time>
      </trkpt>
      <trkpt lat="42.7913729567" lon="-0.2659301274">
        <ele>2702.88</ele>
        <time>2022-07-14T07:22:51Z</time>
      </trkpt>
      <trkpt lat="42.7914325520" lon="-0.2661123499">
        <ele>2703.36</ele>
        <time>2022-07-14T07:23:02Z</time>
      </trkpt>
      <trkpt lat="42.7915175445" lon="-0.2663064748">
        <ele>2703.85</ele>
        <time>2022-07-14T07:23:16Z</time>
      </trkpt>
      <trkpt lat="42.7915354818" lon="-0.2663527429">
        <ele>2704.33</ele>
        <time>2022-07-14T07:23:19Z</time>
      </trkpt>
      <trkpt lat="42.7916046325" lon="-0.2664460335">
        <ele>2706.73</ele>
        <time>2022-07-14T07:23:34Z</time>
      </trkpt>
      <trkpt lat="42.7916706819" lon="-0.2665342111">
        <ele>2709.61</ele>
        <time>2022-07-14T07:23:46Z</time>
      </trkpt>
      <trkpt lat="42.7917210571" lon="-0.2666126657">
        <ele>2711.54</ele>
        <time>2022-07-14T07:23:58Z</time>
      </trkpt>
      <trkpt lat="42.7917740308" lon="-0.2666792180">
        <ele>2714.90</ele>
        <time>2022-07-14T07:24:11Z</time>
      </trkpt>
      <trkpt lat="42.7918329556" lon="-0.2666974068">
        <ele>2718.27</ele>
        <time>2022-07-14T07:24:26Z</time>
      </trkpt>
      <trkpt lat="42.7918555029" lon="-0.2667119913">
        <ele>2720.19</ele>
        <time>2022-07-14T07:24:40Z</time>
      </trkpt>
      <trkpt lat="42.7918618731" lon="-0.2666599397">
        <ele>2722.59</ele>
        <time>2022-07-14T07:24:53Z</time>
      </trkpt>
      <trkpt lat="42.7918635495" lon="-0.2666575927">
        <ele>2724.51</ele>
        <time>2022-07-14T07:25:07Z</time>
      </trkpt>
      <trkpt lat="42.7919048723" lon="-0.2666840795">
        <ele>2727.40</ele>
        <time>2022-07-14T07:25:15Z</time>
      </trkpt>
      <trkpt lat="42.7919529844" lon="-0.2667477820">
        <ele>2728.84</ele>
        <time>2022-07-14T07:25:31Z</time>
      </trkpt>
      <trkpt lat="42.7919767052" lon="-0.2667370532">
        <ele>2731.24</ele>
        <time>2022-07-14T07:25:47Z</time>
      </trkpt>
      <trkpt lat="42.7920171898" lon="-0.2666825708">
        <ele>2733.17</ele>
        <time>2022-07-14T07:25:58Z</time>
      </trkpt>
      <trkpt lat="42.7920119930" lon="-0.2667360473">
        <ele>2734.61</ele>
        <time>2022-07-14T07:26:11Z</time>
      </trkpt>
      <trkpt lat="42.7920421679" lon="-0.2667430043">
        <ele>2737.97</ele>
        <time>2022-07-14T07:26:23Z</time>
      </trkpt>
      <trkpt lat="42.7920910344" lon="-0.2667112369">
        <ele>2739.41</ele>
        <time>2022-07-14T07:26:36Z</time>
      </trkpt>
      <trkpt lat="42.7920922078" lon="-0.2667124942">
        <ele>2740.86</ele>
        <time>2022-07-14T07:26:41Z</time>
      </trkpt>
      <trkpt lat="42.7920937166" lon="-0.2667989116">
        <ele>2741.34</ele>
        <time>2022-07-14T07:26:54Z</time>
      </trkpt>
      <trkpt lat="42.7921145037" lon="-0.2667207923">
        <ele>2738.93</ele>
        <time>2022-07-14T07:27:10Z</time>
      </trkpt>
      <trkpt lat="42.7921167668" lon="-0.2667120751">
        <ele>2740.86</ele>
        <time>2022-07-14T07:27:14Z</time>
      </trkpt>
      <trkpt lat="42.7921085525" lon="-0.2666944731">
        <ele>2737.49</ele>
        <time>2022-07-14T07:27:19Z</time>
      </trkpt>
      <trkpt lat="42.7921122406" lon="-0.2666910365">
        <ele>2737.49</ele>
        <time>2022-07-14T07:27:20Z</time>
      </trkpt>
      <trkpt lat="42.7921383083" lon="-0.2666580118">
        <ele>2734.61</ele>
        <time>2022-07-14T07:27:31Z</time>
      </trkpt>
      <trkpt lat="42.7921342012" lon="-0.2666406613">
        <ele>2732.68</ele>
        <time>2022-07-14T07:27:47Z</time>
      </trkpt>
      <trkpt lat="42.7921497915" lon="-0.2666418348">
        <ele>2731.24</ele>
        <time>2022-07-14T07:28:00Z</time>
      </trkpt>
      <trkpt lat="42.7921521384" lon="-0.2666225564">
        <ele>2728.36</ele>
        <time>2022-07-14T07:28:14Z</time>
      </trkpt>
      <trkpt lat="42.7921497077" lon="-0.2666223887">
        <ele>2728.36</ele>
        <time>2022-07-14T07:28:15Z</time>
      </trkpt>
      <trkpt lat="42.7921680640" lon="-0.2665907051">
        <ele>2726.44</ele>
        <time>2022-07-14T07:28:25Z</time>
      </trkpt>
      <trkpt lat="42.7921363804" lon="-0.2665741090">
        <ele>2724.51</ele>
        <time>2022-07-14T07:28:40Z</time>
      </trkpt>
      <trkpt lat="42.7921430022" lon="-0.2665663138">
        <ele>2722.59</ele>
        <time>2022-07-14T07:28:53Z</time>
      </trkpt>
      <trkpt lat="42.7921277471" lon="-0.2665465325">
        <ele>2720.67</ele>
        <time>2022-07-14T07:29:07Z</time>
      </trkpt>
      <trkpt lat="42.7921492886" lon="-0.2665230632">
        <ele>2718.75</ele>
        <time>2022-07-14T07:29:19Z</time>
      </trkpt>
      <trkpt lat="42.7921236400" lon="-0.2665418386">
        <ele>2716.82</ele>
        <time>2022-07-14T07:29:33Z</time>
      </trkpt>
      <trkpt lat="42.7921428345" lon="-0.2665186208">
        <ele>2714.90</ele>
        <time>2022-07-14T07:29:48Z</time>
      </trkpt>
      <trkpt lat="42.7921532281" lon="-0.2664802317">
        <ele>2712.50</ele>
        <time>2022-07-14T07:30:07Z</time>
      </trkpt>
      <trkpt lat="42.7921526413" lon="-0.2664677426">
        <ele>2711.54</ele>
        <time>2022-07-14T07:30:24Z</time>
      </trkpt>
      <trkpt lat="42.7921646275" lon="-0.2664416749">
        <ele>2709.61</ele>
        <time>2022-07-14T07:30:39Z</time>
      </trkpt>
      <trkpt lat="42.7921637893" lon="-0.2664349694">
        <ele>2708.17</ele>
        <time>2022-07-14T07:30:46Z</time>
      </trkpt>
      <trkpt lat="42.7921553236" lon="-0.2664187085">
        <ele>2707.21</ele>
        <time>2022-07-14T07:31:01Z</time>
      </trkpt>
      <trkpt lat="42.7921601012" lon="-0.2663577721">
        <ele>2704.81</ele>
        <time>2022-07-14T07:31:15Z</time>
      </trkpt>
      <trkpt lat="42.7922270726" lon="-0.2662500646">
        <ele>2701.92</ele>
        <time>2022-07-14T07:31:28Z</time>
      </trkpt>
      <trkpt lat="42.7922528889" lon="-0.2661837637">
        <ele>2699.04</ele>
        <time>2022-07-14T07:31:40Z</time>
      </trkpt>
      <trkpt lat="42.7923404798" lon="-0.2662914712">
        <ele>2696.64</ele>
        <time>2022-07-14T07:31:54Z</time>
      </trkpt>
      <trkpt lat="42.7924015000" lon="-0.2663240768">
        <ele>2693.27</ele>
        <time>2022-07-14T07:32:07Z</time>
      </trkpt>
      <trkpt lat="42.7924435772" lon="-0.2663269266">
        <ele>2690.87</ele>
        <time>2022-07-14T07:32:21Z</time>
      </trkpt>
      <trkpt lat="42.7924911026" lon="-0.2663103305">
        <ele>2689.91</ele>
        <time>2022-07-14T07:32:39Z</time>
      </trkpt>
      <trkpt lat="42.7924652025" lon="-0.2662908006">
        <ele>2689.91</ele>
        <time>2022-07-14T07:33:06Z</time>
      </trkpt>
      <trkpt lat="42.7925366163" lon="-0.2663409244">
        <ele>2687.98</ele>
        <time>2022-07-14T07:33:18Z</time>
      </trkpt>
      <trkpt lat="42.7926323377" lon="-0.2663848456">
        <ele>2685.10</ele>
        <time>2022-07-14T07:33:32Z</time>
      </trkpt>
      <trkpt lat="42.7926867362" lon="-0.2664166130">
        <ele>2681.73</ele>
        <time>2022-07-14T07:33:42Z</time>
      </trkpt>
      <trkpt lat="42.7927656937" lon="-0.2664565109">
        <ele>2678.37</ele>
        <time>2022-07-14T07:33:57Z</time>
      </trkpt>
      <trkpt lat="42.7928003948" lon="-0.2664712630">
        <ele>2676.93</ele>
        <time>2022-07-14T07:34:03Z</time>
      </trkpt>
      <trkpt lat="42.7928773407" lon="-0.2665046230">
        <ele>2674.04</ele>
        <time>2022-07-14T07:34:15Z</time>
      </trkpt>
      <trkpt lat="42.7929536160" lon="-0.2665309422">
        <ele>2670.68</ele>
        <time>2022-07-14T07:34:26Z</time>
      </trkpt>
      <trkpt lat="42.7930127922" lon="-0.2665915433">
        <ele>2667.80</ele>
        <time>2022-07-14T07:34:37Z</time>
      </trkpt>
      <trkpt lat="42.7930749021" lon="-0.2666045353">
        <ele>2663.95</ele>
        <time>2022-07-14T07:34:49Z</time>
      </trkpt>
      <trkpt lat="42.7930799313" lon="-0.2666085586">
        <ele>2663.95</ele>
        <time>2022-07-14T07:34:50Z</time>
      </trkpt>
      <trkpt lat="42.7931256965" lon="-0.2666175272">
        <ele>2661.07</ele>
        <time>2022-07-14T07:35:00Z</time>
      </trkpt>
      <trkpt lat="42.7931394428" lon="-0.2666305192">
        <ele>2659.62</ele>
        <time>2022-07-14T07:35:03Z</time>
      </trkpt>
      <trkpt lat="42.7931747306" lon="-0.2666111570">
        <ele>2656.26</ele>
        <time>2022-07-14T07:35:14Z</time>
      </trkpt>
      <trkpt lat="42.7932609804" lon="-0.2666573413">
        <ele>2653.38</ele>
        <time>2022-07-14T07:35:25Z</time>
      </trkpt>
      <trkpt lat="42.7933299635" lon="-0.2667414118">
        <ele>2649.05</ele>
        <time>2022-07-14T07:35:37Z</time>
      </trkpt>
      <trkpt lat="42.7933842782" lon="-0.2667676471">
        <ele>2646.65</ele>
        <time>2022-07-14T07:35:47Z</time>
      </trkpt>
      <trkpt lat="42.7934301272" lon="-0.2668093890">
        <ele>2643.76</ele>
        <time>2022-07-14T07:35:54Z</time>
      </trkpt>
      <trkpt lat="42.7934538480" lon="-0.2668421622">
        <ele>2642.80</ele>
        <time>2022-07-14T07:35:58Z</time>
      </trkpt>
      <trkpt lat="42.7934956737" lon="-0.2668757737">
        <ele>2641.36</ele>
        <time>2022-07-14T07:36:03Z</time>
      </trkpt>
      <trkpt lat="42.7935219929" lon="-0.2669100557">
        <ele>2639.92</ele>
        <time>2022-07-14T07:36:08Z</time>
      </trkpt>
      <trkpt lat="42.7935320511" lon="-0.2669320162">
        <ele>2638.48</ele>
        <time>2022-07-14T07:36:10Z</time>
      </trkpt>
      <trkpt lat="42.7935942449" lon="-0.2670128178">
        <ele>2636.07</ele>
        <time>2022-07-14T07:36:19Z</time>
      </trkpt>
      <trkpt lat="42.7936812490" lon="-0.2670715749">
        <ele>2632.71</ele>
        <time>2022-07-14T07:36:29Z</time>
      </trkpt>
      <trkpt lat="42.7937250026" lon="-0.2671092935">
        <ele>2630.79</ele>
        <time>2022-07-14T07:36:36Z</time>
      </trkpt>
      <trkpt lat="42.7937793173" lon="-0.2671887539">
        <ele>2628.86</ele>
        <time>2022-07-14T07:36:43Z</time>
      </trkpt>
      <trkpt lat="42.7938481327" lon="-0.2672600839">
        <ele>2625.98</ele>
        <time>2022-07-14T07:36:51Z</time>
      </trkpt>
      <trkpt lat="42.7939294372" lon="-0.2673319168">
        <ele>2622.61</ele>
        <time>2022-07-14T07:37:02Z</time>
      </trkpt>
      <trkpt lat="42.7939429320" lon="-0.2673628461">
        <ele>2621.65</ele>
        <time>2022-07-14T07:37:05Z</time>
      </trkpt>
      <trkpt lat="42.7940007672" lon="-0.2674284764">
        <ele>2617.33</ele>
        <time>2022-07-14T07:37:16Z</time>
      </trkpt>
      <trkpt lat="42.7940593567" lon="-0.2674806118">
        <ele>2613.96</ele>
        <time>2022-07-14T07:37:26Z</time>
      </trkpt>
      <trkpt lat="42.7940916270" lon="-0.2675148100">
        <ele>2613.00</ele>
        <time>2022-07-14T07:37:31Z</time>
      </trkpt>
      <trkpt lat="42.7941665612" lon="-0.2675834578">
        <ele>2609.16</ele>
        <time>2022-07-14T07:37:39Z</time>
      </trkpt>
      <trkpt lat="42.7941726800" lon="-0.2675930969">
        <ele>2609.16</ele>
        <time>2022-07-14T07:37:40Z</time>
      </trkpt>
      <trkpt lat="42.7941995021" lon="-0.2676064242">
        <ele>2609.16</ele>
        <time>2022-07-14T07:37:43Z</time>
      </trkpt>
      <trkpt lat="42.7942510508" lon="-0.2677005529">
        <ele>2606.27</ele>
        <time>2022-07-14T07:37:51Z</time>
      </trkpt>
      <trkpt lat="42.7943194471" lon="-0.2677678596">
        <ele>2603.39</ele>
        <time>2022-07-14T07:38:01Z</time>
      </trkpt>
      <trkpt lat="42.7943686489" lon="-0.2678437158">
        <ele>2601.95</ele>
        <time>2022-07-14T07:38:08Z</time>
      </trkpt>
      <trkpt lat="42.7944418229" lon="-0.2679372579">
        <ele>2598.58</ele>
        <time>2022-07-14T07:38:18Z</time>
      </trkpt>
      <trkpt lat="42.7944737580" lon="-0.2679716237">
        <ele>2597.62</ele>
        <time>2022-07-14T07:38:22Z</time>
      </trkpt>
      <trkpt lat="42.7945477702" lon="-0.2680700272">
        <ele>2593.29</ele>
        <time>2022-07-14T07:38:33Z</time>
      </trkpt>
      <trkpt lat="42.7946425695" lon="-0.2681414410">
        <ele>2589.93</ele>
        <time>2022-07-14T07:38:43Z</time>
      </trkpt>
      <trkpt lat="42.7946480177" lon="-0.2681448776">
        <ele>2589.93</ele>
        <time>2022-07-14T07:38:44Z</time>
      </trkpt>
      <trkpt lat="42.7947317529" lon="-0.2682250086">
        <ele>2586.08</ele>
        <time>2022-07-14T07:38:56Z</time>
      </trkpt>
      <trkpt lat="42.7948192600" lon="-0.2683172096">
        <ele>2582.24</ele>
        <time>2022-07-14T07:39:09Z</time>
      </trkpt>
      <trkpt lat="42.7948849741" lon="-0.2683916409">
        <ele>2578.87</ele>
        <time>2022-07-14T07:39:19Z</time>
      </trkpt>
      <trkpt lat="42.7949275542" lon="-0.2684150264">
        <ele>2575.51</ele>
        <time>2022-07-14T07:39:26Z</time>
      </trkpt>
      <trkpt lat="42.7949347626" lon="-0.2684230730">
        <ele>2575.51</ele>
        <time>2022-07-14T07:39:27Z</time>
      </trkpt>
      <trkpt lat="42.7949899156" lon="-0.2684698440">
        <ele>2572.63</ele>
        <time>2022-07-14T07:39:34Z</time>
      </trkpt>
      <trkpt lat="42.7950735670" lon="-0.2685211413">
        <ele>2569.74</ele>
        <time>2022-07-14T07:39:42Z</time>
      </trkpt>
      <trkpt lat="42.7950999700" lon="-0.2685556747">
        <ele>2568.78</ele>
        <time>2022-07-14T07:39:45Z</time>
      </trkpt>
      <trkpt lat="42.7951556258" lon="-0.2686287649">
        <ele>2564.93</ele>
        <time>2022-07-14T07:39:55Z</time>
      </trkpt>
      <trkpt lat="42.7951653488" lon="-0.2686340455">
        <ele>2565.42</ele>
        <time>2022-07-14T07:39:56Z</time>
      </trkpt>
      <trkpt lat="42.7952318173" lon="-0.2687337901">
        <ele>2562.53</ele>
        <time>2022-07-14T07:40:09Z</time>
      </trkpt>
      <trkpt lat="42.7952400316" lon="-0.2687660605">
        <ele>2561.09</ele>
        <time>2022-07-14T07:40:15Z</time>
      </trkpt>
      <trkpt lat="42.7953339927" lon="-0.2688113227">
        <ele>2557.24</ele>
        <time>2022-07-14T07:40:27Z</time>
      </trkpt>
      <trkpt lat="42.7953830268" lon="-0.2688482869">
        <ele>2555.32</ele>
        <time>2022-07-14T07:40:34Z</time>
      </trkpt>
      <trkpt lat="42.7954383474" lon="-0.2689148393">
        <ele>2551.96</ele>
        <time>2022-07-14T07:40:41Z</time>
      </trkpt>
      <trkpt lat="42.7954458911" lon="-0.2689264063">
        <ele>2551.96</ele>
        <time>2022-07-14T07:40:42Z</time>
      </trkpt>
      <trkpt lat="42.7955178916" lon="-0.2690436691">
        <ele>2548.59</ele>
        <time>2022-07-14T07:40:53Z</time>
      </trkpt>
      <trkpt lat="42.7955565322" lon="-0.2691052761">
        <ele>2546.67</ele>
        <time>2022-07-14T07:41:04Z</time>
      </trkpt>
      <trkpt lat="42.7955834381" lon="-0.2691925317">
        <ele>2544.27</ele>
        <time>2022-07-14T07:41:16Z</time>
      </trkpt>
      <trkpt lat="42.7956643235" lon="-0.2692859899">
        <ele>2543.79</ele>
        <time>2022-07-14T07:41:28Z</time>
      </trkpt>
      <trkpt lat="42.7957291994" lon="-0.2693269774">
        <ele>2542.34</ele>
        <time>2022-07-14T07:41:39Z</time>
      </trkpt>
      <trkpt lat="42.7957437001" lon="-0.2693403047">
        <ele>2541.86</ele>
        <time>2022-07-14T07:41:54Z</time>
      </trkpt>
      <trkpt lat="42.7957745455" lon="-0.2694033366">
        <ele>2539.46</ele>
        <time>2022-07-14T07:42:05Z</time>
      </trkpt>
      <trkpt lat="42.7958142757" lon="-0.2695014048">
        <ele>2536.58</ele>
        <time>2022-07-14T07:42:18Z</time>
      </trkpt>
      <trkpt lat="42.7958897967" lon="-0.2695563063">
        <ele>2533.69</ele>
        <time>2022-07-14T07:42:31Z</time>
      </trkpt>
      <trkpt lat="42.7959369868" lon="-0.2696137223">
        <ele>2530.33</ele>
        <time>2022-07-14T07:42:41Z</time>
      </trkpt>
      <trkpt lat="42.7959601209" lon="-0.2696201764">
        <ele>2529.37</ele>
        <time>2022-07-14T07:42:45Z</time>
      </trkpt>
      <trkpt lat="42.7960236557" lon="-0.2696723118">
        <ele>2526.00</ele>
        <time>2022-07-14T07:42:53Z</time>
      </trkpt>
      <trkpt lat="42.7960700914" lon="-0.2697168197">
        <ele>2523.12</ele>
        <time>2022-07-14T07:43:01Z</time>
      </trkpt>
      <trkpt lat="42.7960753720" lon="-0.2697300632">
        <ele>2522.16</ele>
        <time>2022-07-14T07:43:02Z</time>
      </trkpt>
      <trkpt lat="42.7960810717" lon="-0.2697607409">
        <ele>2521.68</ele>
        <time>2022-07-14T07:43:04Z</time>
      </trkpt>
      <trkpt lat="42.7961211372" lon="-0.2698945999">
        <ele>2519.75</ele>
        <time>2022-07-14T07:43:16Z</time>
      </trkpt>
      <trkpt lat="42.7961306926" lon="-0.2699340787">
        <ele>2518.31</ele>
        <time>2022-07-14T07:43:19Z</time>
      </trkpt>
      <trkpt lat="42.7961345483" lon="-0.2700029779">
        <ele>2518.31</ele>
        <time>2022-07-14T07:43:24Z</time>
      </trkpt>
      <trkpt lat="42.7961557545" lon="-0.2700364217">
        <ele>2516.39</ele>
        <time>2022-07-14T07:43:27Z</time>
      </trkpt>
      <trkpt lat="42.7961721830" lon="-0.2700573765">
        <ele>2515.43</ele>
        <time>2022-07-14T07:43:29Z</time>
      </trkpt>
      <trkpt lat="42.7961848397" lon="-0.2700818516">
        <ele>2514.95</ele>
        <time>2022-07-14T07:43:31Z</time>
      </trkpt>
      <trkpt lat="42.7962620370" lon="-0.2702395990">
        <ele>2511.10</ele>
        <time>2022-07-14T07:43:44Z</time>
      </trkpt>
      <trkpt lat="42.7963397373" lon="-0.2703183889">
        <ele>2507.74</ele>
        <time>2022-07-14T07:43:55Z</time>
      </trkpt>
      <trkpt lat="42.7963737678" lon="-0.2703810018">
        <ele>2505.81</ele>
        <time>2022-07-14T07:44:03Z</time>
      </trkpt>
      <trkpt lat="42.7964013442" lon="-0.2704038844">
        <ele>2504.85</ele>
        <time>2022-07-14T07:44:07Z</time>
      </trkpt>
      <trkpt lat="42.7964266576" lon="-0.2704301197">
        <ele>2503.41</ele>
        <time>2022-07-14T07:44:10Z</time>
      </trkpt>
      <trkpt lat="42.7964747697" lon="-0.2704803273">
        <ele>2502.45</ele>
        <time>2022-07-14T07:44:17Z</time>
      </trkpt>
      <trkpt lat="42.7964910306" lon="-0.2705096640">
        <ele>2501.01</ele>
        <time>2022-07-14T07:44:20Z</time>
      </trkpt>
      <trkpt lat="42.7965518832" lon="-0.2705728635">
        <ele>2498.12</ele>
        <time>2022-07-14T07:44:32Z</time>
      </trkpt>
      <trkpt lat="42.7966310084" lon="-0.2706440259">
        <ele>2494.76</ele>
        <time>2022-07-14T07:44:45Z</time>
      </trkpt>
      <trkpt lat="42.7966844011" lon="-0.2707047109">
        <ele>2493.32</ele>
        <time>2022-07-14T07:44:51Z</time>
      </trkpt>
      <trkpt lat="42.7967175934" lon="-0.2707691677">
        <ele>2491.87</ele>
        <time>2022-07-14T07:44:59Z</time>
      </trkpt>
      <trkpt lat="42.7967839781" lon="-0.2708633803">
        <ele>2488.99</ele>
        <time>2022-07-14T07:45:11Z</time>
      </trkpt>
      <trkpt lat="42.7968140692" lon="-0.2709407452">
        <ele>2486.59</ele>
        <time>2022-07-14T07:45:20Z</time>
      </trkpt>
      <trkpt lat="42.7968206070" lon="-0.2709933836">
        <ele>2485.63</ele>
        <time>2022-07-14T07:45:25Z</time>
      </trkpt>
      <trkpt lat="42.7968869917" lon="-0.2710671443">
        <ele>2485.15</ele>
        <time>2022-07-14T07:45:31Z</time>
      </trkpt>
      <trkpt lat="42.7970113792" lon="-0.2712207846">
        <ele>2482.74</ele>
        <time>2022-07-14T07:45:43Z</time>
      </trkpt>
      <trkpt lat="42.7970905881" lon="-0.2713454235">
        <ele>2479.38</ele>
        <time>2022-07-14T07:45:56Z</time>
      </trkpt>
      <trkpt lat="42.7971132193" lon="-0.2714321762">
        <ele>2477.94</ele>
        <time>2022-07-14T07:46:02Z</time>
      </trkpt>
      <trkpt lat="42.7971169073" lon="-0.2714916877">
        <ele>2476.97</ele>
        <time>2022-07-14T07:46:06Z</time>
      </trkpt>
      <trkpt lat="42.7971242834" lon="-0.2715872414">
        <ele>2475.05</ele>
        <time>2022-07-14T07:46:12Z</time>
      </trkpt>
      <trkpt lat="42.7971701324" lon="-0.2716907579">
        <ele>2474.09</ele>
        <time>2022-07-14T07:46:20Z</time>
      </trkpt>
      <trkpt lat="42.7972555440" lon="-0.2718853857">
        <ele>2472.65</ele>
        <time>2022-07-14T07:46:34Z</time>
      </trkpt>
      <trkpt lat="42.7972717211" lon="-0.2719075978">
        <ele>2472.65</ele>
        <time>2022-07-14T07:46:36Z</time>
      </trkpt>
      <trkpt lat="42.7973383572" lon="-0.2719345037">
        <ele>2471.69</ele>
        <time>2022-07-14T07:46:50Z</time>
      </trkpt>
      <trkpt lat="42.7973202523" lon="-0.2719790116">
        <ele>2472.17</ele>
        <time>2022-07-14T07:47:02Z</time>
      </trkpt>
      <trkpt lat="42.7972789295" lon="-0.2720055822">
        <ele>2472.17</ele>
        <time>2022-07-14T07:47:37Z</time>
      </trkpt>
      <trkpt lat="42.7972623333" lon="-0.2720070910">
        <ele>2472.17</ele>
        <time>2022-07-14T07:48:10Z</time>
      </trkpt>
      <trkpt lat="42.7972497605" lon="-0.2720158920">
        <ele>2472.17</ele>
        <time>2022-07-14T07:48:44Z</time>
      </trkpt>
      <trkpt lat="42.7972606570" lon="-0.2720054984">
        <ele>2472.17</ele>
        <time>2022-07-14T07:49:15Z</time>
      </trkpt>
      <trkpt lat="42.7972519398" lon="-0.2719926741">
        <ele>2472.65</ele>
        <time>2022-07-14T07:49:51Z</time>
      </trkpt>
      <trkpt lat="42.7972701285" lon="-0.2719935961">
        <ele>2472.65</ele>
        <time>2022-07-14T07:50:30Z</time>
      </trkpt>
      <trkpt lat="42.7972913347" lon="-0.2719810233">
        <ele>2472.65</ele>
        <time>2022-07-14T07:50:41Z</time>
      </trkpt>
      <trkpt lat="42.7973048296" lon="-0.2719625831">
        <ele>2472.65</ele>
        <time>2022-07-14T07:50:57Z</time>
      </trkpt>
      <trkpt lat="42.7972715534" lon="-0.2719606552">
        <ele>2472.65</ele>
        <time>2022-07-14T07:51:02Z</time>
      </trkpt>
      <trkpt lat="42.7972291410" lon="-0.2719690371">
        <ele>2472.65</ele>
        <time>2022-07-14T07:51:07Z</time>
      </trkpt>
      <trkpt lat="42.7971972898" lon="-0.2720085997">
        <ele>2471.69</ele>
        <time>2022-07-14T07:51:12Z</time>
      </trkpt>
      <trkpt lat="42.7971714735" lon="-0.2720932569">
        <ele>2469.28</ele>
        <time>2022-07-14T07:51:22Z</time>
      </trkpt>
      <trkpt lat="42.7971742395" lon="-0.2721036505">
        <ele>2469.28</ele>
        <time>2022-07-14T07:51:23Z</time>
      </trkpt>
      <trkpt lat="42.7972049173" lon="-0.2721420396">
        <ele>2468.80</ele>
        <time>2022-07-14T07:51:26Z</time>
      </trkpt>
      <trkpt lat="42.7973403689" lon="-0.2721710410">
        <ele>2466.40</ele>
        <time>2022-07-14T07:51:39Z</time>
      </trkpt>
      <trkpt lat="42.7974363416" lon="-0.2722427063">
        <ele>2463.04</ele>
        <time>2022-07-14T07:51:51Z</time>
      </trkpt>
      <trkpt lat="42.7974567097" lon="-0.2722498309">
        <ele>2462.07</ele>
        <time>2022-07-14T07:51:53Z</time>
      </trkpt>
      <trkpt lat="42.7974914946" lon="-0.2722913213">
        <ele>2461.11</ele>
        <time>2022-07-14T07:51:57Z</time>
      </trkpt>
      <trkpt lat="42.7975513414" lon="-0.2723787446">
        <ele>2457.27</ele>
        <time>2022-07-14T07:52:09Z</time>
      </trkpt>
      <trkpt lat="42.7975678537" lon="-0.2723926585">
        <ele>2456.79</ele>
        <time>2022-07-14T07:52:11Z</time>
      </trkpt>
      <trkpt lat="42.7976502478" lon="-0.2724564448">
        <ele>2454.86</ele>
        <time>2022-07-14T07:52:21Z</time>
      </trkpt>
      <trkpt lat="42.7976857033" lon="-0.2725020424">
        <ele>2452.46</ele>
        <time>2022-07-14T07:52:26Z</time>
      </trkpt>
      <trkpt lat="42.7976852003" lon="-0.2725590393">
        <ele>2451.98</ele>
        <time>2022-07-14T07:52:30Z</time>
      </trkpt>
      <trkpt lat="42.7977010421" lon="-0.2726371586">
        <ele>2450.54</ele>
        <time>2022-07-14T07:52:35Z</time>
      </trkpt>
      <trkpt lat="42.7977037244" lon="-0.2726999391">
        <ele>2449.58</ele>
        <time>2022-07-14T07:52:40Z</time>
      </trkpt>
      <trkpt lat="42.7977144532" lon="-0.2727978397">
        <ele>2448.62</ele>
        <time>2022-07-14T07:52:47Z</time>
      </trkpt>
      <trkpt lat="42.7976939175" lon="-0.2729231492">
        <ele>2444.29</ele>
        <time>2022-07-14T07:53:00Z</time>
      </trkpt>
      <trkpt lat="42.7976950910" lon="-0.2730322815">
        <ele>2441.89</ele>
        <time>2022-07-14T07:53:10Z</time>
      </trkpt>
      <trkpt lat="42.7977074962" lon="-0.2731363010">
        <ele>2439.48</ele>
        <time>2022-07-14T07:53:19Z</time>
      </trkpt>
      <trkpt lat="42.7977382578" lon="-0.2732062060">
        <ele>2437.56</ele>
        <time>2022-07-14T07:53:24Z</time>
      </trkpt>
      <trkpt lat="42.7978134435" lon="-0.2733864170">
        <ele>2436.60</ele>
        <time>2022-07-14T07:53:38Z</time>
      </trkpt>
      <trkpt lat="42.7978206519" lon="-0.2733952180">
        <ele>2436.60</ele>
        <time>2022-07-14T07:53:39Z</time>
      </trkpt>
      <trkpt lat="42.7979373280" lon="-0.2734911069">
        <ele>2437.08</ele>
        <time>2022-07-14T07:53:49Z</time>
      </trkpt>
      <trkpt lat="42.7980883699" lon="-0.2735631075">
        <ele>2437.56</ele>
        <time>2022-07-14T07:54:02Z</time>
      </trkpt>
      <trkpt lat="42.7980959136" lon="-0.2735663764">
        <ele>2437.56</ele>
        <time>2022-07-14T07:54:03Z</time>
      </trkpt>
      <trkpt lat="42.7981176227" lon="-0.2735628560">
        <ele>2437.56</ele>
        <time>2022-07-14T07:54:06Z</time>
      </trkpt>
      <trkpt lat="42.7982740290" lon="-0.2735704836">
        <ele>2434.68</ele>
        <time>2022-07-14T07:54:19Z</time>
      </trkpt>
      <trkpt lat="42.7982839197" lon="-0.2735800389">
        <ele>2434.68</ele>
        <time>2022-07-14T07:54:20Z</time>
      </trkpt>
      <trkpt lat="42.7984105702" lon="-0.2735972218">
        <ele>2434.20</ele>
        <time>2022-07-14T07:54:30Z</time>
      </trkpt>
      <trkpt lat="42.7985835727" lon="-0.2736636903">
        <ele>2434.20</ele>
        <time>2022-07-14T07:54:44Z</time>
      </trkpt>
      <trkpt lat="42.7986989915" lon="-0.2737117186">
        <ele>2435.64</ele>
        <time>2022-07-14T07:54:53Z</time>
      </trkpt>
      <trkpt lat="42.7988596726" lon="-0.2738364413">
        <ele>2433.23</ele>
        <time>2022-07-14T07:55:07Z</time>
      </trkpt>
      <trkpt lat="42.7989819646" lon="-0.2739512734">
        <ele>2432.75</ele>
        <time>2022-07-14T07:55:18Z</time>
      </trkpt>
      <trkpt lat="42.7992304042" lon="-0.2739812806">
        <ele>2432.27</ele>
        <time>2022-07-14T07:55:35Z</time>
      </trkpt>
      <trkpt lat="42.7994263731" lon="-0.2739847172">
        <ele>2432.27</ele>
        <time>2022-07-14T07:55:49Z</time>
      </trkpt>
      <trkpt lat="42.7996241860" lon="-0.2740169037">
        <ele>2431.79</ele>
        <time>2022-07-14T07:56:04Z</time>
      </trkpt>
      <trkpt lat="42.7996665146" lon="-0.2740361821">
        <ele>2433.23</ele>
        <time>2022-07-14T07:56:07Z</time>
      </trkpt>
      <trkpt lat="42.7998699434" lon="-0.2740507666">
        <ele>2431.79</ele>
        <time>2022-07-14T07:56:21Z</time>
      </trkpt>
      <trkpt lat="42.7999016270" lon="-0.2740522753">
        <ele>2431.79</ele>
        <time>2022-07-14T07:56:24Z</time>
      </trkpt>
      <trkpt lat="42.8000021260" lon="-0.2740693744">
        <ele>2431.79</ele>
        <time>2022-07-14T07:56:33Z</time>
      </trkpt>
      <trkpt lat="42.8000571951" lon="-0.2740813605">
        <ele>2431.79</ele>
        <time>2022-07-14T07:56:37Z</time>
      </trkpt>
      <trkpt lat="42.8000788204" lon="-0.2740698773">
        <ele>2433.23</ele>
        <time>2022-07-14T07:56:39Z</time>
      </trkpt>
      <trkpt lat="42.8001374099" lon="-0.2740660217">
        <ele>2433.23</ele>
        <time>2022-07-14T07:56:44Z</time>
      </trkpt>
      <trkpt lat="42.8002261743" lon="-0.2740511857">
        <ele>2434.68</ele>
        <time>2022-07-14T07:56:53Z</time>
      </trkpt>
      <trkpt lat="42.8002762143" lon="-0.2740504313">
        <ele>2434.20</ele>
        <time>2022-07-14T07:56:58Z</time>
      </trkpt>
      <trkpt lat="42.8003060538" lon="-0.2740499284">
        <ele>2435.16</ele>
        <time>2022-07-14T07:57:01Z</time>
      </trkpt>
      <trkpt lat="42.8003453650" lon="-0.2740613278">
        <ele>2433.71</ele>
        <time>2022-07-14T07:57:05Z</time>
      </trkpt>
      <trkpt lat="42.8003685828" lon="-0.2740635909">
        <ele>2432.75</ele>
        <time>2022-07-14T07:57:07Z</time>
      </trkpt>
      <trkpt lat="42.8005160205" lon="-0.2741093561">
        <ele>2430.83</ele>
        <time>2022-07-14T07:57:20Z</time>
      </trkpt>
      <trkpt lat="42.8006459400" lon="-0.2740841266">
        <ele>2428.43</ele>
        <time>2022-07-14T07:57:33Z</time>
      </trkpt>
      <trkpt lat="42.8006849997" lon="-0.2740606572">
        <ele>2426.99</ele>
        <time>2022-07-14T07:57:38Z</time>
      </trkpt>
      <trkpt lat="42.8007003386" lon="-0.2740604896">
        <ele>2425.54</ele>
        <time>2022-07-14T07:57:40Z</time>
      </trkpt>
      <trkpt lat="42.8007584251" lon="-0.2740944363">
        <ele>2421.70</ele>
        <time>2022-07-14T07:57:47Z</time>
      </trkpt>
      <trkpt lat="42.8007670585" lon="-0.2741016448">
        <ele>2421.70</ele>
        <time>2022-07-14T07:57:48Z</time>
      </trkpt>
      <trkpt lat="42.8008140810" lon="-0.2741236892">
        <ele>2418.33</ele>
        <time>2022-07-14T07:57:55Z</time>
      </trkpt>
      <trkpt lat="42.8008298390" lon="-0.2741535287">
        <ele>2417.37</ele>
        <time>2022-07-14T07:58:00Z</time>
      </trkpt>
      <trkpt lat="42.8008623607" lon="-0.2742442209">
        <ele>2414.49</ele>
        <time>2022-07-14T07:58:12Z</time>
      </trkpt>
      <trkpt lat="42.8008786216" lon="-0.2742533572">
        <ele>2413.53</ele>
        <time>2022-07-14T07:58:15Z</time>
      </trkpt>
      <trkpt lat="42.8008785378" lon="-0.2743928321">
        <ele>2409.68</ele>
        <time>2022-07-14T07:58:28Z</time>
      </trkpt>
      <trkpt lat="42.8008789569" lon="-0.2744228393">
        <ele>2409.68</ele>
        <time>2022-07-14T07:58:30Z</time>
      </trkpt>
      <trkpt lat="42.8008766100" lon="-0.2745432034">
        <ele>2405.84</ele>
        <time>2022-07-14T07:58:42Z</time>
      </trkpt>
      <trkpt lat="42.8008892667" lon="-0.2746025473">
        <ele>2404.88</ele>
        <time>2022-07-14T07:58:47Z</time>
      </trkpt>
      <trkpt lat="42.8009147476" lon="-0.2747530863">
        <ele>2401.03</ele>
        <time>2022-07-14T07:59:00Z</time>
      </trkpt>
      <trkpt lat="42.8009117302" lon="-0.2748648170">
        <ele>2397.67</ele>
        <time>2022-07-14T07:59:10Z</time>
      </trkpt>
      <trkpt lat="42.8009130713" lon="-0.2748801559">
        <ele>2397.18</ele>
        <time>2022-07-14T07:59:11Z</time>
      </trkpt>
      <trkpt lat="42.8009647876" lon="-0.2749652322">
        <ele>2393.82</ele>
        <time>2022-07-14T07:59:21Z</time>
      </trkpt>
      <trkpt lat="42.8010108043" lon="-0.2750249114">
        <ele>2391.90</ele>
        <time>2022-07-14T07:59:29Z</time>
      </trkpt>
      <trkpt lat="42.8010289092" lon="-0.2750688326">
        <ele>2389.97</ele>
        <time>2022-07-14T07:59:33Z</time>
      </trkpt>
      <trkpt lat="42.8010531329" lon="-0.2751975786">
        <ele>2386.61</ele>
        <time>2022-07-14T07:59:45Z</time>
      </trkpt>
      <trkpt lat="42.8010595869" lon="-0.2752098162">
        <ele>2386.13</ele>
        <time>2022-07-14T07:59:46Z</time>
      </trkpt>
      <trkpt lat="42.8010988142" lon="-0.2752827387">
        <ele>2384.69</ele>
        <time>2022-07-14T07:59:53Z</time>
      </trkpt>
      <trkpt lat="42.8011679649" lon="-0.2754116524">
        <ele>2382.28</ele>
        <time>2022-07-14T08:00:03Z</time>
      </trkpt>
      <trkpt lat="42.8013646882" lon="-0.2756422386">
        <ele>2380.84</ele>
        <time>2022-07-14T08:00:21Z</time>
      </trkpt>
      <trkpt lat="42.8014838789" lon="-0.2757833898">
        <ele>2377.96</ele>
        <time>2022-07-14T08:00:33Z</time>
      </trkpt>
      <trkpt lat="42.8016112000" lon="-0.2758498583">
        <ele>2375.07</ele>
        <time>2022-07-14T08:00:47Z</time>
      </trkpt>
      <trkpt lat="42.8016711306" lon="-0.2758706454">
        <ele>2371.71</ele>
        <time>2022-07-14T08:00:54Z</time>
      </trkpt>
      <trkpt lat="42.8017286304" lon="-0.2758874930">
        <ele>2369.79</ele>
        <time>2022-07-14T08:01:01Z</time>
      </trkpt>
      <trkpt lat="42.8017412871" lon="-0.2759143151">
        <ele>2369.31</ele>
        <time>2022-07-14T08:01:03Z</time>
      </trkpt>
      <trkpt lat="42.8017562907" lon="-0.2759549674">
        <ele>2367.86</ele>
        <time>2022-07-14T08:01:09Z</time>
      </trkpt>
      <trkpt lat="42.8018494137" lon="-0.2759146504">
        <ele>2364.50</ele>
        <time>2022-07-14T08:01:20Z</time>
      </trkpt>
      <trkpt lat="42.8018786665" lon="-0.2759044245">
        <ele>2364.02</ele>
        <time>2022-07-14T08:01:23Z</time>
      </trkpt>
      <trkpt lat="42.8019664250" lon="-0.2758838888">
        <ele>2360.17</ele>
        <time>2022-07-14T08:01:38Z</time>
      </trkpt>
      <trkpt lat="42.8020065743" lon="-0.2759163268">
        <ele>2359.21</ele>
        <time>2022-07-14T08:01:57Z</time>
      </trkpt>
      <trkpt lat="42.8020574525" lon="-0.2759077772">
        <ele>2355.85</ele>
        <time>2022-07-14T08:02:04Z</time>
      </trkpt>
      <trkpt lat="42.8020648286" lon="-0.2759081963">
        <ele>2355.85</ele>
        <time>2022-07-14T08:02:05Z</time>
      </trkpt>
      <trkpt lat="42.8021240048" lon="-0.2758724894">
        <ele>2353.93</ele>
        <time>2022-07-14T08:02:11Z</time>
      </trkpt>
      <trkpt lat="42.8021571971" lon="-0.2758463379">
        <ele>2353.44</ele>
        <time>2022-07-14T08:02:15Z</time>
      </trkpt>
      <trkpt lat="42.8021754697" lon="-0.2758436557">
        <ele>2352.96</ele>
        <time>2022-07-14T08:02:17Z</time>
      </trkpt>
      <trkpt lat="42.8022139426" lon="-0.2758268081">
        <ele>2351.52</ele>
        <time>2022-07-14T08:02:22Z</time>
      </trkpt>
      <trkpt lat="42.8022210672" lon="-0.2757393848">
        <ele>2348.16</ele>
        <time>2022-07-14T08:02:32Z</time>
      </trkpt>
      <trkpt lat="42.8022146132" lon="-0.2755951323">
        <ele>2345.27</ele>
        <time>2022-07-14T08:02:43Z</time>
      </trkpt>
      <trkpt lat="42.8022399265" lon="-0.2755369619">
        <ele>2343.83</ele>
        <time>2022-07-14T08:02:48Z</time>
      </trkpt>
      <trkpt lat="42.8022802435" lon="-0.2754868381">
        <ele>2341.91</ele>
        <time>2022-07-14T08:02:53Z</time>
      </trkpt>
      <trkpt lat="42.8022842668" lon="-0.2754787914">
        <ele>2341.91</ele>
        <time>2022-07-14T08:02:54Z</time>
      </trkpt>
      <trkpt lat="42.8022988513" lon="-0.2754496224">
        <ele>2340.47</ele>
        <time>2022-07-14T08:02:58Z</time>
      </trkpt>
      <trkpt lat="42.8023352288" lon="-0.2754398156">
        <ele>2339.02</ele>
        <time>2022-07-14T08:03:02Z</time>
      </trkpt>
      <trkpt lat="42.8023503162" lon="-0.2754310146">
        <ele>2337.58</ele>
        <time>2022-07-14T08:03:06Z</time>
      </trkpt>
      <trkpt lat="42.8023722768" lon="-0.2752503846">
        <ele>2335.18</ele>
        <time>2022-07-14T08:03:21Z</time>
      </trkpt>
      <trkpt lat="42.8023173753" lon="-0.2752191201">
        <ele>2334.22</ele>
        <time>2022-07-14T08:03:33Z</time>
      </trkpt>
      <trkpt lat="42.8023299482" lon="-0.2751979139">
        <ele>2333.74</ele>
        <time>2022-07-14T08:03:41Z</time>
      </trkpt>
      <trkpt lat="42.8023637272" lon="-0.2751201298">
        <ele>2332.78</ele>
        <time>2022-07-14T08:03:46Z</time>
      </trkpt>
      <trkpt lat="42.8023993503" lon="-0.2750259172">
        <ele>2330.85</ele>
        <time>2022-07-14T08:03:56Z</time>
      </trkpt>
      <trkpt lat="42.8024072293" lon="-0.2750067227">
        <ele>2329.89</ele>
        <time>2022-07-14T08:03:58Z</time>
      </trkpt>
      <trkpt lat="42.8024642263" lon="-0.2750528231">
        <ele>2326.53</ele>
        <time>2022-07-14T08:04:08Z</time>
      </trkpt>
      <trkpt lat="42.8024774697" lon="-0.2750643063">
        <ele>2326.05</ele>
        <time>2022-07-14T08:04:10Z</time>
      </trkpt>
      <trkpt lat="42.8025043756" lon="-0.2751131728">
        <ele>2323.64</ele>
        <time>2022-07-14T08:04:15Z</time>
      </trkpt>
      <trkpt lat="42.8025456145" lon="-0.2750927210">
        <ele>2322.68</ele>
        <time>2022-07-14T08:04:25Z</time>
      </trkpt>
      <trkpt lat="42.8025929723" lon="-0.2750788908">
        <ele>2318.84</ele>
        <time>2022-07-14T08:04:35Z</time>
      </trkpt>
      <trkpt lat="42.8026632126" lon="-0.2751324512">
        <ele>2315.95</ele>
        <time>2022-07-14T08:04:45Z</time>
      </trkpt>
      <trkpt lat="42.8026741091" lon="-0.2751702536">
        <ele>2314.51</ele>
        <time>2022-07-14T08:04:51Z</time>
      </trkpt>
      <trkpt lat="42.8027077205" lon="-0.2752220538">
        <ele>2312.59</ele>
        <time>2022-07-14T08:05:02Z</time>
      </trkpt>
      <trkpt lat="42.8027784638" lon="-0.2752222214">
        <ele>2309.70</ele>
        <time>2022-07-14T08:05:12Z</time>
      </trkpt>
      <trkpt lat="42.8027977422" lon="-0.2751290984">
        <ele>2306.34</ele>
        <time>2022-07-14T08:05:22Z</time>
      </trkpt>
      <trkpt lat="42.8028181102" lon="-0.2750897873">
        <ele>2304.90</ele>
        <time>2022-07-14T08:05:26Z</time>
      </trkpt>
      <trkpt lat="42.8028342873" lon="-0.2750304434">
        <ele>2302.01</ele>
        <time>2022-07-14T08:05:35Z</time>
      </trkpt>
      <trkpt lat="42.8028789628" lon="-0.2749779727">
        <ele>2300.57</ele>
        <time>2022-07-14T08:05:42Z</time>
      </trkpt>
      <trkpt lat="42.8029184416" lon="-0.2749062236">
        <ele>2297.21</ele>
        <time>2022-07-14T08:05:53Z</time>
      </trkpt>
      <trkpt lat="42.8029804677" lon="-0.2748815808">
        <ele>2294.80</ele>
        <time>2022-07-14T08:06:01Z</time>
      </trkpt>
      <trkpt lat="42.8030587547" lon="-0.2748759650">
        <ele>2292.40</ele>
        <time>2022-07-14T08:06:08Z</time>
      </trkpt>
      <trkpt lat="42.8030639514" lon="-0.2748719417">
        <ele>2291.44</ele>
        <time>2022-07-14T08:06:09Z</time>
      </trkpt>
      <trkpt lat="42.8031301685" lon="-0.2748245839">
        <ele>2289.52</ele>
        <time>2022-07-14T08:06:17Z</time>
      </trkpt>
      <trkpt lat="42.8032463416" lon="-0.2747897990">
        <ele>2286.63</ele>
        <time>2022-07-14T08:06:27Z</time>
      </trkpt>
      <trkpt lat="42.8033164982" lon="-0.2747576125">
        <ele>2284.71</ele>
        <time>2022-07-14T08:06:34Z</time>
      </trkpt>
      <trkpt lat="42.8033244610" lon="-0.2747527510">
        <ele>2284.23</ele>
        <time>2022-07-14T08:06:35Z</time>
      </trkpt>
      <trkpt lat="42.8034039214" lon="-0.2747054771">
        <ele>2282.31</ele>
        <time>2022-07-14T08:06:43Z</time>
      </trkpt>
      <trkpt lat="42.8034773469" lon="-0.2747166250">
        <ele>2280.38</ele>
        <time>2022-07-14T08:06:49Z</time>
      </trkpt>
      <trkpt lat="42.8035050910" lon="-0.2747263480">
        <ele>2278.46</ele>
        <time>2022-07-14T08:06:52Z</time>
      </trkpt>
      <trkpt lat="42.8035558015" lon="-0.2747153677">
        <ele>2277.98</ele>
        <time>2022-07-14T08:06:56Z</time>
      </trkpt>
      <trkpt lat="42.8036821168" lon="-0.2746924013">
        <ele>2274.62</ele>
        <time>2022-07-14T08:07:08Z</time>
      </trkpt>
      <trkpt lat="42.8038179036" lon="-0.2746271063">
        <ele>2270.77</ele>
        <time>2022-07-14T08:07:20Z</time>
      </trkpt>
      <trkpt lat="42.8038563766" lon="-0.2745949198">
        <ele>2270.29</ele>
        <time>2022-07-14T08:07:24Z</time>
      </trkpt>
      <trkpt lat="42.8039440513" lon="-0.2745590452">
        <ele>2269.33</ele>
        <time>2022-07-14T08:07:32Z</time>
      </trkpt>
      <trkpt lat="42.8039662633" lon="-0.2745551057">
        <ele>2268.85</ele>
        <time>2022-07-14T08:07:34Z</time>
      </trkpt>
      <trkpt lat="42.8040246014" lon="-0.2745386772">
        <ele>2267.41</ele>
        <time>2022-07-14T08:07:38Z</time>
      </trkpt>
      <trkpt lat="42.8040656727" lon="-0.2745429520">
        <ele>2266.93</ele>
        <time>2022-07-14T08:07:41Z</time>
      </trkpt>
      <trkpt lat="42.8041953407" lon="-0.2745245118">
        <ele>2264.52</ele>
        <time>2022-07-14T08:07:52Z</time>
      </trkpt>
      <trkpt lat="42.8043278586" lon="-0.2744705323">
        <ele>2262.12</ele>
        <time>2022-07-14T08:08:04Z</time>
      </trkpt>
      <trkpt lat="42.8043552674" lon="-0.2744745556">
        <ele>2261.64</ele>
        <time>2022-07-14T08:08:07Z</time>
      </trkpt>
      <trkpt lat="42.8044667467" lon="-0.2744761482">
        <ele>2258.75</ele>
        <time>2022-07-14T08:08:17Z</time>
      </trkpt>
      <trkpt lat="42.8044913057" lon="-0.2745213266">
        <ele>2258.27</ele>
        <time>2022-07-14T08:08:21Z</time>
      </trkpt>
      <trkpt lat="42.8045421839" lon="-0.2745529264">
        <ele>2258.75</ele>
        <time>2022-07-14T08:08:27Z</time>
      </trkpt>
      <trkpt lat="42.8046460357" lon="-0.2745883819">
        <ele>2256.83</ele>
        <time>2022-07-14T08:08:35Z</time>
      </trkpt>
      <trkpt lat="42.8046920523" lon="-0.2745747194">
        <ele>2256.35</ele>
        <time>2022-07-14T08:08:39Z</time>
      </trkpt>
      <trkpt lat="42.8047483787" lon="-0.2745577041">
        <ele>2255.87</ele>
        <time>2022-07-14T08:08:43Z</time>
      </trkpt>
      <trkpt lat="42.8049368877" lon="-0.2744948398">
        <ele>2253.95</ele>
        <time>2022-07-14T08:08:57Z</time>
      </trkpt>
      <trkpt lat="42.8050706629" lon="-0.2744495776">
        <ele>2252.03</ele>
        <time>2022-07-14T08:09:07Z</time>
      </trkpt>
      <trkpt lat="42.8051299229" lon="-0.2744267788">
        <ele>2251.54</ele>
        <time>2022-07-14T08:09:11Z</time>
      </trkpt>
      <trkpt lat="42.8052351996" lon="-0.2743971068">
        <ele>2250.10</ele>
        <time>2022-07-14T08:09:19Z</time>
      </trkpt>
      <trkpt lat="42.8052621055" lon="-0.2743871324">
        <ele>2250.10</ele>
        <time>2022-07-14T08:09:21Z</time>
      </trkpt>
      <trkpt lat="42.8054402210" lon="-0.2743056603">
        <ele>2247.22</ele>
        <time>2022-07-14T08:09:36Z</time>
      </trkpt>
      <trkpt lat="42.8054460883" lon="-0.2743003797">
        <ele>2246.74</ele>
        <time>2022-07-14T08:09:37Z</time>
      </trkpt>
      <trkpt lat="42.8054579068" lon="-0.2742584702">
        <ele>2245.78</ele>
        <time>2022-07-14T08:09:42Z</time>
      </trkpt>
      <trkpt lat="42.8054750059" lon="-0.2742295526">
        <ele>2245.78</ele>
        <time>2022-07-14T08:09:56Z</time>
      </trkpt>
      <trkpt lat="42.8055129759" lon="-0.2741997968">
        <ele>2245.30</ele>
        <time>2022-07-14T08:10:06Z</time>
      </trkpt>
      <trkpt lat="42.8055623453" lon="-0.2742562909">
        <ele>2245.30</ele>
        <time>2022-07-14T08:10:13Z</time>
      </trkpt>
      <trkpt lat="42.8055982199" lon="-0.2742672712">
        <ele>2246.74</ele>
        <time>2022-07-14T08:10:17Z</time>
      </trkpt>
      <trkpt lat="42.8056806978" lon="-0.2742455620">
        <ele>2247.22</ele>
        <time>2022-07-14T08:10:26Z</time>
      </trkpt>
      <trkpt lat="42.8057085257" lon="-0.2742324863">
        <ele>2248.66</ele>
        <time>2022-07-14T08:10:29Z</time>
      </trkpt>
      <trkpt lat="42.8058192506" lon="-0.2742518485">
        <ele>2248.66</ele>
        <time>2022-07-14T08:10:37Z</time>
      </trkpt>
      <trkpt lat="42.8058434743" lon="-0.2742357552">
        <ele>2246.74</ele>
        <time>2022-07-14T08:10:39Z</time>
      </trkpt>
      <trkpt lat="42.8059207555" lon="-0.2742165606">
        <ele>2245.30</ele>
        <time>2022-07-14T08:10:45Z</time>
      </trkpt>
      <trkpt lat="42.8059300594" lon="-0.2742080949">
        <ele>2244.82</ele>
        <time>2022-07-14T08:10:46Z</time>
      </trkpt>
      <trkpt lat="42.8059537802" lon="-0.2741994616">
        <ele>2244.33</ele>
        <time>2022-07-14T08:10:48Z</time>
      </trkpt>
      <trkpt lat="42.8061650041" lon="-0.2741891518">
        <ele>2241.93</ele>
        <time>2022-07-14T08:11:03Z</time>
      </trkpt>
      <trkpt lat="42.8062929120" lon="-0.2743123658">
        <ele>2239.05</ele>
        <time>2022-07-14T08:11:17Z</time>
      </trkpt>
      <trkpt lat="42.8063269425" lon="-0.2743421216">
        <ele>2237.13</ele>
        <time>2022-07-14T08:11:22Z</time>
      </trkpt>
      <trkpt lat="42.8063528426" lon="-0.2744334005">
        <ele>2235.20</ele>
        <time>2022-07-14T08:11:30Z</time>
      </trkpt>
      <trkpt lat="42.8063439578" lon="-0.2744557802">
        <ele>2234.24</ele>
        <time>2022-07-14T08:11:32Z</time>
      </trkpt>
      <trkpt lat="42.8063320555" lon="-0.2745643258">
        <ele>2232.32</ele>
        <time>2022-07-14T08:11:45Z</time>
      </trkpt>
      <trkpt lat="42.8064094204" lon="-0.2745735459">
        <ele>2228.95</ele>
        <time>2022-07-14T08:11:56Z</time>
      </trkpt>
      <trkpt lat="42.8064480610" lon="-0.2745685168">
        <ele>2227.51</ele>
        <time>2022-07-14T08:12:02Z</time>
      </trkpt>
      <trkpt lat="42.8064755537" lon="-0.2745787427">
        <ele>2227.03</ele>
        <time>2022-07-14T08:12:04Z</time>
      </trkpt>
      <trkpt lat="42.8065525834" lon="-0.2745610569">
        <ele>2225.11</ele>
        <time>2022-07-14T08:12:12Z</time>
      </trkpt>
      <trkpt lat="42.8065838479" lon="-0.2745472267">
        <ele>2224.63</ele>
        <time>2022-07-14T08:12:15Z</time>
      </trkpt>
      <trkpt lat="42.8066418506" lon="-0.2744893078">
        <ele>2222.71</ele>
        <time>2022-07-14T08:12:20Z</time>
      </trkpt>
      <trkpt lat="42.8066610452" lon="-0.2744791657">
        <ele>2222.71</ele>
        <time>2022-07-14T08:12:22Z</time>
      </trkpt>
      <trkpt lat="42.8067071456" lon="-0.2744801715">
        <ele>2221.74</ele>
        <time>2022-07-14T08:12:28Z</time>
      </trkpt>
      <trkpt lat="42.8067588620" lon="-0.2745586261">
        <ele>2219.34</ele>
        <time>2022-07-14T08:12:37Z</time>
      </trkpt>
      <trkpt lat="42.8067914676" lon="-0.2746937424">
        <ele>2215.98</ele>
        <time>2022-07-14T08:12:44Z</time>
      </trkpt>
      <trkpt lat="42.8068001010" lon="-0.2747178823">
        <ele>2215.98</ele>
        <time>2022-07-14T08:12:46Z</time>
      </trkpt>
      <trkpt lat="42.8069795575" lon="-0.2748320438">
        <ele>2212.61</ele>
        <time>2022-07-14T08:13:00Z</time>
      </trkpt>
      <trkpt lat="42.8071659710" lon="-0.2750285156">
        <ele>2210.21</ele>
        <time>2022-07-14T08:13:13Z</time>
      </trkpt>
      <trkpt lat="42.8073497862" lon="-0.2751346305">
        <ele>2207.32</ele>
        <time>2022-07-14T08:13:31Z</time>
      </trkpt>
      <trkpt lat="42.8074932005" lon="-0.2752511390">
        <ele>2203.48</ele>
        <time>2022-07-14T08:13:44Z</time>
      </trkpt>
      <trkpt lat="42.8075079527" lon="-0.2753056213">
        <ele>2202.52</ele>
        <time>2022-07-14T08:13:49Z</time>
      </trkpt>
      <trkpt lat="42.8075508680" lon="-0.2753365505">
        <ele>2201.08</ele>
        <time>2022-07-14T08:13:54Z</time>
      </trkpt>
      <trkpt lat="42.8077485133" lon="-0.2753962297">
        <ele>2200.59</ele>
        <time>2022-07-14T08:14:09Z</time>
      </trkpt>
      <trkpt lat="42.8079106193" lon="-0.2755121514">
        <ele>2199.15</ele>
        <time>2022-07-14T08:14:23Z</time>
      </trkpt>
      <trkpt lat="42.8080791794" lon="-0.2756653726">
        <ele>2198.19</ele>
        <time>2022-07-14T08:14:38Z</time>
      </trkpt>
      <trkpt lat="42.8081419598" lon="-0.2757257223">
        <ele>2197.71</ele>
        <time>2022-07-14T08:14:44Z</time>
      </trkpt>
      <trkpt lat="42.8082013037" lon="-0.2757571544">
        <ele>2197.71</ele>
        <time>2022-07-14T08:14:49Z</time>
      </trkpt>
      <trkpt lat="42.8083871305" lon="-0.2758473437">
        <ele>2196.27</ele>
        <time>2022-07-14T08:15:05Z</time>
      </trkpt>
      <trkpt lat="42.8085934930" lon="-0.2759122197">
        <ele>2195.79</ele>
        <time>2022-07-14T08:15:20Z</time>
      </trkpt>
      <trkpt lat="42.8087765537" lon="-0.2759774309">
        <ele>2195.31</ele>
        <time>2022-07-14T08:15:35Z</time>
      </trkpt>
      <trkpt lat="42.8089829162" lon="-0.2760402951">
        <ele>2196.27</ele>
        <time>2022-07-14T08:15:51Z</time>
      </trkpt>
      <trkpt lat="42.8090537433" lon="-0.2760478389">
        <ele>2196.75</ele>
        <time>2022-07-14T08:15:57Z</time>
      </trkpt>
      <trkpt lat="42.8091370594" lon="-0.2759892493">
        <ele>2195.31</ele>
        <time>2022-07-14T08:16:04Z</time>
      </trkpt>
      <trkpt lat="42.8091882728" lon="-0.2759476751">
        <ele>2194.83</ele>
        <time>2022-07-14T08:16:09Z</time>
      </trkpt>
      <trkpt lat="42.8091944754" lon="-0.2759264689">
        <ele>2194.35</ele>
        <time>2022-07-14T08:16:11Z</time>
      </trkpt>
      <trkpt lat="42.8092691582" lon="-0.2759247925">
        <ele>2192.90</ele>
        <time>2022-07-14T08:16:18Z</time>
      </trkpt>
      <trkpt lat="42.8093765303" lon="-0.2758775186">
        <ele>2191.94</ele>
        <time>2022-07-14T08:16:26Z</time>
      </trkpt>
      <trkpt lat="42.8094142489" lon="-0.2758605871">
        <ele>2190.98</ele>
        <time>2022-07-14T08:16:29Z</time>
      </trkpt>
      <trkpt lat="42.8095582500" lon="-0.2758887503">
        <ele>2190.50</ele>
        <time>2022-07-14T08:16:40Z</time>
      </trkpt>
      <trkpt lat="42.8097195178" lon="-0.2758937795">
        <ele>2188.58</ele>
        <time>2022-07-14T08:16:53Z</time>
      </trkpt>
      <trkpt lat="42.8098850604" lon="-0.2759504411">
        <ele>2186.66</ele>
        <time>2022-07-14T08:17:07Z</time>
      </trkpt>
      <trkpt lat="42.8099408839" lon="-0.2759616729">
        <ele>2185.21</ele>
        <time>2022-07-14T08:17:12Z</time>
      </trkpt>
      <trkpt lat="42.8100512736" lon="-0.2759917639">
        <ele>2183.29</ele>
        <time>2022-07-14T08:17:21Z</time>
      </trkpt>
      <trkpt lat="42.8102246113" lon="-0.2760628425">
        <ele>2181.37</ele>
        <time>2022-07-14T08:17:35Z</time>
      </trkpt>
      <trkpt lat="42.8102750704" lon="-0.2760740742">
        <ele>2180.41</ele>
        <time>2022-07-14T08:17:40Z</time>
      </trkpt>
      <trkpt lat="42.8104352485" lon="-0.2761424705">
        <ele>2178.48</ele>
        <time>2022-07-14T08:17:54Z</time>
      </trkpt>
      <trkpt lat="42.8105033096" lon="-0.2762355097">
        <ele>2177.52</ele>
        <time>2022-07-14T08:18:04Z</time>
      </trkpt>
      <trkpt lat="42.8105691075" lon="-0.2763217594">
        <ele>2176.08</ele>
        <time>2022-07-14T08:18:12Z</time>
      </trkpt>
      <trkpt lat="42.8106338996" lon="-0.2763331588">
        <ele>2175.12</ele>
        <time>2022-07-14T08:18:22Z</time>
      </trkpt>
      <trkpt lat="42.8106603026" lon="-0.2763262019">
        <ele>2175.12</ele>
        <time>2022-07-14T08:18:25Z</time>
      </trkpt>
      <trkpt lat="42.8108033817" lon="-0.2764736395">
        <ele>2173.20</ele>
        <time>2022-07-14T08:18:40Z</time>
      </trkpt>
      <trkpt lat="42.8109030426" lon="-0.2766784932">
        <ele>2172.24</ele>
        <time>2022-07-14T08:18:55Z</time>
      </trkpt>
      <trkpt lat="42.8109298646" lon="-0.2767227497">
        <ele>2171.76</ele>
        <time>2022-07-14T08:18:58Z</time>
      </trkpt>
      <trkpt lat="42.8111377358" lon="-0.2768411860">
        <ele>2171.27</ele>
        <time>2022-07-14T08:19:16Z</time>
      </trkpt>
      <trkpt lat="42.8113168571" lon="-0.2768927347">
        <ele>2169.35</ele>
        <time>2022-07-14T08:19:31Z</time>
      </trkpt>
      <trkpt lat="42.8113899473" lon="-0.2768779825">
        <ele>2168.39</ele>
        <time>2022-07-14T08:19:37Z</time>
      </trkpt>
      <trkpt lat="42.8115233872" lon="-0.2769460436">
        <ele>2167.43</ele>
        <time>2022-07-14T08:19:51Z</time>
      </trkpt>
      <trkpt lat="42.8116538096" lon="-0.2769084927">
        <ele>2168.39</ele>
        <time>2022-07-14T08:20:03Z</time>
      </trkpt>
      <trkpt lat="42.8116768599" lon="-0.2768590394">
        <ele>2170.31</ele>
        <time>2022-07-14T08:20:08Z</time>
      </trkpt>
      <trkpt lat="42.8117415681" lon="-0.2768265177">
        <ele>2170.79</ele>
        <time>2022-07-14T08:20:21Z</time>
      </trkpt>
      <trkpt lat="42.8117527999" lon="-0.2768190578">
        <ele>2170.79</ele>
        <time>2022-07-14T08:20:22Z</time>
      </trkpt>
      <trkpt lat="42.8118814621" lon="-0.2766148746">
        <ele>2166.47</ele>
        <time>2022-07-14T08:20:37Z</time>
      </trkpt>
      <trkpt lat="42.8118864074" lon="-0.2766082529">
        <ele>2172.24</ele>
        <time>2022-07-14T08:20:38Z</time>
      </trkpt>
      <trkpt lat="42.8119523730" lon="-0.2766090073">
        <ele>2169.83</ele>
        <time>2022-07-14T08:20:45Z</time>
      </trkpt>
      <trkpt lat="42.8120707255" lon="-0.2765531838">
        <ele>2169.35</ele>
        <time>2022-07-14T08:20:55Z</time>
      </trkpt>
      <trkpt lat="42.8121454082" lon="-0.2764838655">
        <ele>2167.91</ele>
        <time>2022-07-14T08:21:03Z</time>
      </trkpt>
      <trkpt lat="42.8121744934" lon="-0.2764808480">
        <ele>2166.47</ele>
        <time>2022-07-14T08:21:05Z</time>
      </trkpt>
      <trkpt lat="42.8121915925" lon="-0.2764747292">
        <ele>2166.47</ele>
        <time>2022-07-14T08:21:07Z</time>
      </trkpt>
      <trkpt lat="42.8122397047" lon="-0.2763221785">
        <ele>2165.03</ele>
        <time>2022-07-14T08:21:19Z</time>
      </trkpt>
      <trkpt lat="42.8122544568" lon="-0.2763038222">
        <ele>2163.10</ele>
        <time>2022-07-14T08:21:21Z</time>
      </trkpt>
      <trkpt lat="42.8123169020" lon="-0.2761407942">
        <ele>2160.22</ele>
        <time>2022-07-14T08:21:34Z</time>
      </trkpt>
      <trkpt lat="42.8123475797" lon="-0.2760128863">
        <ele>2157.34</ele>
        <time>2022-07-14T08:21:47Z</time>
      </trkpt>
      <trkpt lat="42.8123561293" lon="-0.2759839687">
        <ele>2156.86</ele>
        <time>2022-07-14T08:21:50Z</time>
      </trkpt>
      <trkpt lat="42.8124572989" lon="-0.2758133132">
        <ele>2153.97</ele>
        <time>2022-07-14T08:22:01Z</time>
      </trkpt>
      <trkpt lat="42.8124756552" lon="-0.2757995669">
        <ele>2152.53</ele>
        <time>2022-07-14T08:22:03Z</time>
      </trkpt>
      <trkpt lat="42.8124857135" lon="-0.2757454198">
        <ele>2152.53</ele>
        <time>2022-07-14T08:22:07Z</time>
      </trkpt>
      <trkpt lat="42.8125338256" lon="-0.2756918594">
        <ele>2151.57</ele>
        <time>2022-07-14T08:22:12Z</time>
      </trkpt>
      <trkpt lat="42.8126170579" lon="-0.2755900193">
        <ele>2148.20</ele>
        <time>2022-07-14T08:22:24Z</time>
      </trkpt>
      <trkpt lat="42.8126656730" lon="-0.2754965611">
        <ele>2145.32</ele>
        <time>2022-07-14T08:22:34Z</time>
      </trkpt>
      <trkpt lat="42.8127174731" lon="-0.2754709963">
        <ele>2143.88</ele>
        <time>2022-07-14T08:22:39Z</time>
      </trkpt>
      <trkpt lat="42.8127556108" lon="-0.2754191123">
        <ele>2142.92</ele>
        <time>2022-07-14T08:22:44Z</time>
      </trkpt>
      <trkpt lat="42.8128063213" lon="-0.2751780488">
        <ele>2142.44</ele>
        <time>2022-07-14T08:23:00Z</time>
      </trkpt>
      <trkpt lat="42.8128066566" lon="-0.2751301043">
        <ele>2142.44</ele>
        <time>2022-07-14T08:23:05Z</time>
      </trkpt>
      <trkpt lat="42.8128315508" lon="-0.2750759572">
        <ele>2142.44</ele>
        <time>2022-07-14T08:23:09Z</time>
      </trkpt>
      <trkpt lat="42.8129103407" lon="-0.2749950718">
        <ele>2143.40</ele>
        <time>2022-07-14T08:23:18Z</time>
      </trkpt>
      <trkpt lat="42.8129643202" lon="-0.2749955747">
        <ele>2143.40</ele>
        <time>2022-07-14T08:23:22Z</time>
      </trkpt>
      <trkpt lat="42.8129910585" lon="-0.2749386616">
        <ele>2142.44</ele>
        <time>2022-07-14T08:23:26Z</time>
      </trkpt>
      <trkpt lat="42.8130370751" lon="-0.2748030424">
        <ele>2144.84</ele>
        <time>2022-07-14T08:23:38Z</time>
      </trkpt>
      <trkpt lat="42.8130602092" lon="-0.2747319639">
        <ele>2146.28</ele>
        <time>2022-07-14T08:23:44Z</time>
      </trkpt>
      <trkpt lat="42.8131687548" lon="-0.2747245878">
        <ele>2150.61</ele>
        <time>2022-07-14T08:23:59Z</time>
      </trkpt>
      <trkpt lat="42.8131775558" lon="-0.2747258451">
        <ele>2150.61</ele>
        <time>2022-07-14T08:24:00Z</time>
      </trkpt>
      <trkpt lat="42.8132241592" lon="-0.2747312095">
        <ele>2150.61</ele>
        <time>2022-07-14T08:24:04Z</time>
      </trkpt>
      <trkpt lat="42.8133146837" lon="-0.2746763919">
        <ele>2153.01</ele>
        <time>2022-07-14T08:24:17Z</time>
      </trkpt>
      <trkpt lat="42.8133504745" lon="-0.2746437863">
        <ele>2154.93</ele>
        <time>2022-07-14T08:24:25Z</time>
      </trkpt>
      <trkpt lat="42.8133515641" lon="-0.2747166250">
        <ele>2152.53</ele>
        <time>2022-07-14T08:24:39Z</time>
      </trkpt>
      <trkpt lat="42.8133446071" lon="-0.2747364901">
        <ele>2152.53</ele>
        <time>2022-07-14T08:24:43Z</time>
      </trkpt>
      <trkpt lat="42.8132755402" lon="-0.2748273499">
        <ele>2151.09</ele>
        <time>2022-07-14T08:24:51Z</time>
      </trkpt>
      <trkpt lat="42.8132384084" lon="-0.2748685051">
        <ele>2150.13</ele>
        <time>2022-07-14T08:25:04Z</time>
      </trkpt>
      <trkpt lat="42.8132386599" lon="-0.2748776414">
        <ele>2150.13</ele>
        <time>2022-07-14T08:25:06Z</time>
      </trkpt>
      <trkpt lat="42.8131835908" lon="-0.2749627177">
        <ele>2147.24</ele>
        <time>2022-07-14T08:25:16Z</time>
      </trkpt>
      <trkpt lat="42.8131690901" lon="-0.2750611212">
        <ele>2147.24</ele>
        <time>2022-07-14T08:25:24Z</time>
      </trkpt>
      <trkpt lat="42.8131570201" lon="-0.2752018534">
        <ele>2148.68</ele>
        <time>2022-07-14T08:25:37Z</time>
      </trkpt>
      <trkpt lat="42.8131588642" lon="-0.2752129175">
        <ele>2148.68</ele>
        <time>2022-07-14T08:25:38Z</time>
      </trkpt>
      <trkpt lat="42.8131669108" lon="-0.2753077168">
        <ele>2148.20</ele>
        <time>2022-07-14T08:25:54Z</time>
      </trkpt>
      <trkpt lat="42.8132137656" lon="-0.2753668930">
        <ele>2148.20</ele>
        <time>2022-07-14T08:26:00Z</time>
      </trkpt>
      <trkpt lat="42.8132312838" lon="-0.2753409091">
        <ele>2150.13</ele>
        <time>2022-07-14T08:26:04Z</time>
      </trkpt>
      <trkpt lat="42.8132762946" lon="-0.2752468642">
        <ele>2152.53</ele>
        <time>2022-07-14T08:26:17Z</time>
      </trkpt>
      <trkpt lat="42.8134566732" lon="-0.2751587704">
        <ele>2154.45</ele>
        <time>2022-07-14T08:26:34Z</time>
      </trkpt>
      <trkpt lat="42.8134754486" lon="-0.2751613688">
        <ele>2154.45</ele>
        <time>2022-07-14T08:26:36Z</time>
      </trkpt>
      <trkpt lat="42.8134927154" lon="-0.2751888614">
        <ele>2154.45</ele>
        <time>2022-07-14T08:26:38Z</time>
      </trkpt>
      <trkpt lat="42.8134340420" lon="-0.2754891012">
        <ele>2154.93</ele>
        <time>2022-07-14T08:26:55Z</time>
      </trkpt>
      <trkpt lat="42.8134684078" lon="-0.2756921109">
        <ele>2155.89</ele>
        <time>2022-07-14T08:27:08Z</time>
      </trkpt>
      <trkpt lat="42.8135377262" lon="-0.2758776024">
        <ele>2156.37</ele>
        <time>2022-07-14T08:27:21Z</time>
      </trkpt>
      <trkpt lat="42.8136247303" lon="-0.2759616729">
        <ele>2158.30</ele>
        <time>2022-07-14T08:27:32Z</time>
      </trkpt>
      <trkpt lat="42.8137761075" lon="-0.2759477589">
        <ele>2158.30</ele>
        <time>2022-07-14T08:27:46Z</time>
      </trkpt>
      <trkpt lat="42.8139091283" lon="-0.2759279776">
        <ele>2160.70</ele>
        <time>2022-07-14T08:28:01Z</time>
      </trkpt>
      <trkpt lat="42.8140446637" lon="-0.2758991439">
        <ele>2164.06</ele>
        <time>2022-07-14T08:28:17Z</time>
      </trkpt>
      <trkpt lat="42.8140818793" lon="-0.2758713998">
        <ele>2164.06</ele>
        <time>2022-07-14T08:28:21Z</time>
      </trkpt>
      <trkpt lat="42.8141064383" lon="-0.2758361958">
        <ele>2165.03</ele>
        <time>2022-07-14T08:28:25Z</time>
      </trkpt>
      <trkpt lat="42.8141750861" lon="-0.2758545522">
        <ele>2167.43</ele>
        <time>2022-07-14T08:28:39Z</time>
      </trkpt>
      <trkpt lat="42.8142540436" lon="-0.2759339288">
        <ele>2169.83</ele>
        <time>2022-07-14T08:28:52Z</time>
      </trkpt>
      <trkpt lat="42.8142562229" lon="-0.2759493515">
        <ele>2170.31</ele>
        <time>2022-07-14T08:28:53Z</time>
      </trkpt>
      <trkpt lat="42.8142875712" lon="-0.2761620004">
        <ele>2171.27</ele>
        <time>2022-07-14T08:29:06Z</time>
      </trkpt>
      <trkpt lat="42.8142993897" lon="-0.2762573864">
        <ele>2171.27</ele>
        <time>2022-07-14T08:29:12Z</time>
      </trkpt>
      <trkpt lat="42.8143014014" lon="-0.2763169818">
        <ele>2171.27</ele>
        <time>2022-07-14T08:29:16Z</time>
      </trkpt>
      <trkpt lat="42.8143249545" lon="-0.2763837017">
        <ele>2170.31</ele>
        <time>2022-07-14T08:29:20Z</time>
      </trkpt>
      <trkpt lat="42.8144004755" lon="-0.2765984461">
        <ele>2169.83</ele>
        <time>2022-07-14T08:29:35Z</time>
      </trkpt>
      <trkpt lat="42.8144020680" lon="-0.2766104322">
        <ele>2171.27</ele>
        <time>2022-07-14T08:29:36Z</time>
      </trkpt>
      <trkpt lat="42.8144110367" lon="-0.2767990250">
        <ele>2172.72</ele>
        <time>2022-07-14T08:29:52Z</time>
      </trkpt>
      <trkpt lat="42.8143951949" lon="-0.2768704388">
        <ele>2174.16</ele>
        <time>2022-07-14T08:30:05Z</time>
      </trkpt>
      <trkpt lat="42.8143800236" lon="-0.2770185471">
        <ele>2176.08</ele>
        <time>2022-07-14T08:30:19Z</time>
      </trkpt>
      <trkpt lat="42.8142828774" lon="-0.2771910466">
        <ele>2177.04</ele>
        <time>2022-07-14T08:30:34Z</time>
      </trkpt>
      <trkpt lat="42.8142383695" lon="-0.2772969939">
        <ele>2178.97</ele>
        <time>2022-07-14T08:30:47Z</time>
      </trkpt>
      <trkpt lat="42.8141880780" lon="-0.2773717605">
        <ele>2181.85</ele>
        <time>2022-07-14T08:30:59Z</time>
      </trkpt>
      <trkpt lat="42.8141485155" lon="-0.2774164360">
        <ele>2183.29</ele>
        <time>2022-07-14T08:31:09Z</time>
      </trkpt>
      <trkpt lat="42.8140999842" lon="-0.2775535639">
        <ele>2185.69</ele>
        <time>2022-07-14T08:31:24Z</time>
      </trkpt>
      <trkpt lat="42.8140861541" lon="-0.2777176816">
        <ele>2188.10</ele>
        <time>2022-07-14T08:31:39Z</time>
      </trkpt>
      <trkpt lat="42.8140595835" lon="-0.2778945398">
        <ele>2190.50</ele>
        <time>2022-07-14T08:31:54Z</time>
      </trkpt>
      <trkpt lat="42.8140574880" lon="-0.2779739164">
        <ele>2191.46</ele>
        <time>2022-07-14T08:32:00Z</time>
      </trkpt>
      <trkpt lat="42.8141682968" lon="-0.2781200968">
        <ele>2190.98</ele>
        <time>2022-07-14T08:32:16Z</time>
      </trkpt>
      <trkpt lat="42.8142190911" lon="-0.2781889960">
        <ele>2189.54</ele>
        <time>2022-07-14T08:32:23Z</time>
      </trkpt>
      <trkpt lat="42.8142640181" lon="-0.2782581467">
        <ele>2188.10</ele>
        <time>2022-07-14T08:32:30Z</time>
      </trkpt>
      <trkpt lat="42.8143558837" lon="-0.2783303987">
        <ele>2185.69</ele>
        <time>2022-07-14T08:32:42Z</time>
      </trkpt>
      <trkpt lat="42.8143876512" lon="-0.2783997171">
        <ele>2185.21</ele>
        <time>2022-07-14T08:32:48Z</time>
      </trkpt>
      <trkpt lat="42.8144380264" lon="-0.2784338314">
        <ele>2185.21</ele>
        <time>2022-07-14T08:32:53Z</time>
      </trkpt>
      <trkpt lat="42.8145510145" lon="-0.2785034012">
        <ele>2185.21</ele>
        <time>2022-07-14T08:33:02Z</time>
      </trkpt>
      <trkpt lat="42.8146391083" lon="-0.2787013818">
        <ele>2184.25</ele>
        <time>2022-07-14T08:33:15Z</time>
      </trkpt>
      <trkpt lat="42.8146661818" lon="-0.2788712829">
        <ele>2184.25</ele>
        <time>2022-07-14T08:33:25Z</time>
      </trkpt>
      <trkpt lat="42.8145842906" lon="-0.2790538408">
        <ele>2184.25</ele>
        <time>2022-07-14T08:33:37Z</time>
      </trkpt>
      <trkpt lat="42.8145275451" lon="-0.2790851891">
        <ele>2185.69</ele>
        <time>2022-07-14T08:33:42Z</time>
      </trkpt>
      <trkpt lat="42.8144687042" lon="-0.2791352291">
        <ele>2183.29</ele>
        <time>2022-07-14T08:33:48Z</time>
      </trkpt>
      <trkpt lat="42.8144485876" lon="-0.2791468799">
        <ele>2182.81</ele>
        <time>2022-07-14T08:33:50Z</time>
      </trkpt>
      <trkpt lat="42.8143982962" lon="-0.2791519091">
        <ele>2181.85</ele>
        <time>2022-07-14T08:33:54Z</time>
      </trkpt>
      <trkpt lat="42.8143165726" lon="-0.2791865263">
        <ele>2180.89</ele>
        <time>2022-07-14T08:34:00Z</time>
      </trkpt>
      <trkpt lat="42.8141916823" lon="-0.2792311180">
        <ele>2178.00</ele>
        <time>2022-07-14T08:34:14Z</time>
      </trkpt>
      <trkpt lat="42.8141754214" lon="-0.2792530786">
        <ele>2177.52</ele>
        <time>2022-07-14T08:34:16Z</time>
      </trkpt>
      <trkpt lat="42.8141428996" lon="-0.2793249115">
        <ele>2176.08</ele>
        <time>2022-07-14T08:34:23Z</time>
      </trkpt>
      <trkpt lat="42.8142291494" lon="-0.2794792224">
        <ele>2172.24</ele>
        <time>2022-07-14T08:34:37Z</time>
      </trkpt>
      <trkpt lat="42.8142979648" lon="-0.2795015182">
        <ele>2171.76</ele>
        <time>2022-07-14T08:34:43Z</time>
      </trkpt>
      <trkpt lat="42.8143376112" lon="-0.2795244008">
        <ele>2170.31</ele>
        <time>2022-07-14T08:34:47Z</time>
      </trkpt>
      <trkpt lat="42.8144881502" lon="-0.2795993350">
        <ele>2168.39</ele>
        <time>2022-07-14T08:35:02Z</time>
      </trkpt>
      <trkpt lat="42.8145074286" lon="-0.2796135005">
        <ele>2167.91</ele>
        <time>2022-07-14T08:35:04Z</time>
      </trkpt>
      <trkpt lat="42.8145438060" lon="-0.2796617802">
        <ele>2166.95</ele>
        <time>2022-07-14T08:35:08Z</time>
      </trkpt>
      <trkpt lat="42.8146948479" lon="-0.2798103075">
        <ele>2164.06</ele>
        <time>2022-07-14T08:35:24Z</time>
      </trkpt>
      <trkpt lat="42.8147251066" lon="-0.2798289154">
        <ele>2163.58</ele>
        <time>2022-07-14T08:35:27Z</time>
      </trkpt>
      <trkpt lat="42.8147485759" lon="-0.2798547316">
        <ele>2163.58</ele>
        <time>2022-07-14T08:35:29Z</time>
      </trkpt>
      <trkpt lat="42.8149096761" lon="-0.2799613494">
        <ele>2161.66</ele>
        <time>2022-07-14T08:35:44Z</time>
      </trkpt>
      <trkpt lat="42.8149287868" lon="-0.2800090425">
        <ele>2162.14</ele>
        <time>2022-07-14T08:35:48Z</time>
      </trkpt>
      <trkpt lat="42.8148946725" lon="-0.2802565601">
        <ele>2161.18</ele>
        <time>2022-07-14T08:36:04Z</time>
      </trkpt>
      <trkpt lat="42.8148461413" lon="-0.2804950252">
        <ele>2160.22</ele>
        <time>2022-07-14T08:36:20Z</time>
      </trkpt>
      <trkpt lat="42.8148598038" lon="-0.2806585561">
        <ele>2159.26</ele>
        <time>2022-07-14T08:36:32Z</time>
      </trkpt>
      <trkpt lat="42.8148655035" lon="-0.2807126194">
        <ele>2159.26</ele>
        <time>2022-07-14T08:36:36Z</time>
      </trkpt>
      <trkpt lat="42.8148624022" lon="-0.2809089236">
        <ele>2157.34</ele>
        <time>2022-07-14T08:36:48Z</time>
      </trkpt>
      <trkpt lat="42.8148638271" lon="-0.2811232489">
        <ele>2158.30</ele>
        <time>2022-07-14T08:37:04Z</time>
      </trkpt>
      <trkpt lat="42.8148914035" lon="-0.2812384162">
        <ele>2159.26</ele>
        <time>2022-07-14T08:37:13Z</time>
      </trkpt>
      <trkpt lat="42.8149586264" lon="-0.2813850995">
        <ele>2161.66</ele>
        <time>2022-07-14T08:37:27Z</time>
      </trkpt>
      <trkpt lat="42.8150058165" lon="-0.2815300226">
        <ele>2164.06</ele>
        <time>2022-07-14T08:37:42Z</time>
      </trkpt>
      <trkpt lat="42.8150667530" lon="-0.2816791367">
        <ele>2166.95</ele>
        <time>2022-07-14T08:37:58Z</time>
      </trkpt>
      <trkpt lat="42.8151089139" lon="-0.2817968186">
        <ele>2168.87</ele>
        <time>2022-07-14T08:38:11Z</time>
      </trkpt>
      <trkpt lat="42.8151328024" lon="-0.2819348685">
        <ele>2170.31</ele>
        <time>2022-07-14T08:38:24Z</time>
      </trkpt>
      <trkpt lat="42.8151960019" lon="-0.2820658777">
        <ele>2172.72</ele>
        <time>2022-07-14T08:38:40Z</time>
      </trkpt>
      <trkpt lat="42.8152375761" lon="-0.2821654547">
        <ele>2175.12</ele>
        <time>2022-07-14T08:38:54Z</time>
      </trkpt>
      <trkpt lat="42.8152895439" lon="-0.2822699770">
        <ele>2178.48</ele>
        <time>2022-07-14T08:39:09Z</time>
      </trkpt>
      <trkpt lat="42.8152992669" lon="-0.2823651955">
        <ele>2178.97</ele>
        <time>2022-07-14T08:39:18Z</time>
      </trkpt>
      <trkpt lat="42.8152875323" lon="-0.2826013975">
        <ele>2179.45</ele>
        <time>2022-07-14T08:39:33Z</time>
      </trkpt>
      <trkpt lat="42.8153192997" lon="-0.2828550339">
        <ele>2178.00</ele>
        <time>2022-07-14T08:39:48Z</time>
      </trkpt>
      <trkpt lat="42.8153307829" lon="-0.2828760725">
        <ele>2178.00</ele>
        <time>2022-07-14T08:39:50Z</time>
      </trkpt>
      <trkpt lat="42.8153529949" lon="-0.2828962728">
        <ele>2178.00</ele>
        <time>2022-07-14T08:39:52Z</time>
      </trkpt>
      <trkpt lat="42.8154920507" lon="-0.2829301357">
        <ele>2177.52</ele>
        <time>2022-07-14T08:40:05Z</time>
      </trkpt>
      <trkpt lat="42.8156440146" lon="-0.2828809340">
        <ele>2177.52</ele>
        <time>2022-07-14T08:40:18Z</time>
      </trkpt>
      <trkpt lat="42.8156550787" lon="-0.2828811016">
        <ele>2177.52</ele>
        <time>2022-07-14T08:40:19Z</time>
      </trkpt>
      <trkpt lat="42.8157093935" lon="-0.2829221729">
        <ele>2177.52</ele>
        <time>2022-07-14T08:40:24Z</time>
      </trkpt>
      <trkpt lat="42.8158571664" lon="-0.2830867935">
        <ele>2177.52</ele>
        <time>2022-07-14T08:40:38Z</time>
      </trkpt>
      <trkpt lat="42.8158719186" lon="-0.2831740491">
        <ele>2177.52</ele>
        <time>2022-07-14T08:40:43Z</time>
      </trkpt>
      <trkpt lat="42.8158632852" lon="-0.2834834252">
        <ele>2176.56</ele>
        <time>2022-07-14T08:41:00Z</time>
      </trkpt>
      <trkpt lat="42.8158402350" lon="-0.2836003527">
        <ele>2178.00</ele>
        <time>2022-07-14T08:41:08Z</time>
      </trkpt>
      <trkpt lat="42.8158676438" lon="-0.2836743649">
        <ele>2178.48</ele>
        <time>2022-07-14T08:41:15Z</time>
      </trkpt>
      <trkpt lat="42.8159590904" lon="-0.2836835012">
        <ele>2178.48</ele>
        <time>2022-07-14T08:41:22Z</time>
      </trkpt>
      <trkpt lat="42.8160216194" lon="-0.2838670649">
        <ele>2179.45</ele>
        <time>2022-07-14T08:41:36Z</time>
      </trkpt>
      <trkpt lat="42.8161132336" lon="-0.2840466052">
        <ele>2181.37</ele>
        <time>2022-07-14T08:41:50Z</time>
      </trkpt>
      <trkpt lat="42.8161321767" lon="-0.2840821445">
        <ele>2181.37</ele>
        <time>2022-07-14T08:41:53Z</time>
      </trkpt>
      <trkpt lat="42.8161353618" lon="-0.2843009122">
        <ele>2182.33</ele>
        <time>2022-07-14T08:42:07Z</time>
      </trkpt>
      <trkpt lat="42.8161564842" lon="-0.2844511997">
        <ele>2181.37</ele>
        <time>2022-07-14T08:42:16Z</time>
      </trkpt>
      <trkpt lat="42.8161726613" lon="-0.2845724020">
        <ele>2180.89</ele>
        <time>2022-07-14T08:42:23Z</time>
      </trkpt>
      <trkpt lat="42.8161776066" lon="-0.2847688738">
        <ele>2179.93</ele>
        <time>2022-07-14T08:42:36Z</time>
      </trkpt>
      <trkpt lat="42.8162048478" lon="-0.2849130426">
        <ele>2181.37</ele>
        <time>2022-07-14T08:42:46Z</time>
      </trkpt>
      <trkpt lat="42.8162142355" lon="-0.2849339135">
        <ele>2181.37</ele>
        <time>2022-07-14T08:42:48Z</time>
      </trkpt>
      <trkpt lat="42.8162341006" lon="-0.2849695366">
        <ele>2181.85</ele>
        <time>2022-07-14T08:42:51Z</time>
      </trkpt>
      <trkpt lat="42.8162795305" lon="-0.2850910742">
        <ele>2181.85</ele>
        <time>2022-07-14T08:42:59Z</time>
      </trkpt>
      <trkpt lat="42.8163257148" lon="-0.2854392584">
        <ele>2180.41</ele>
        <time>2022-07-14T08:43:18Z</time>
      </trkpt>
      <trkpt lat="42.8163281456" lon="-0.2854573634">
        <ele>2180.41</ele>
        <time>2022-07-14T08:43:19Z</time>
      </trkpt>
      <trkpt lat="42.8164118808" lon="-0.2856768854">
        <ele>2181.37</ele>
        <time>2022-07-14T08:43:35Z</time>
      </trkpt>
      <trkpt lat="42.8164200112" lon="-0.2856840938">
        <ele>2181.37</ele>
        <time>2022-07-14T08:43:36Z</time>
      </trkpt>
      <trkpt lat="42.8164634295" lon="-0.2858177014">
        <ele>2183.29</ele>
        <time>2022-07-14T08:43:49Z</time>
      </trkpt>
      <trkpt lat="42.8165599890" lon="-0.2858545817">
        <ele>2184.73</ele>
        <time>2022-07-14T08:44:01Z</time>
      </trkpt>
      <trkpt lat="42.8165684547" lon="-0.2858510613">
        <ele>2185.69</ele>
        <time>2022-07-14T08:44:02Z</time>
      </trkpt>
      <trkpt lat="42.8165760823" lon="-0.2858288493">
        <ele>2185.21</ele>
        <time>2022-07-14T08:44:04Z</time>
      </trkpt>
      <trkpt lat="42.8166893218" lon="-0.2857524902">
        <ele>2184.25</ele>
        <time>2022-07-14T08:44:20Z</time>
      </trkpt>
      <trkpt lat="42.8166821972" lon="-0.2857545018">
        <ele>2185.69</ele>
        <time>2022-07-14T08:44:23Z</time>
      </trkpt>
      <trkpt lat="42.8166563809" lon="-0.2857506461">
        <ele>2184.73</ele>
        <time>2022-07-14T08:44:43Z</time>
      </trkpt>
      <trkpt lat="42.8168393578" lon="-0.2858414222">
        <ele>2184.73</ele>
        <time>2022-07-14T08:44:59Z</time>
      </trkpt>
      <trkpt lat="42.8169113584" lon="-0.2858834993">
        <ele>2184.73</ele>
        <time>2022-07-14T08:45:06Z</time>
      </trkpt>
      <trkpt lat="42.8169532679" lon="-0.2859709226">
        <ele>2184.25</ele>
        <time>2022-07-14T08:45:13Z</time>
      </trkpt>
      <trkpt lat="42.8169924114" lon="-0.2859891951">
        <ele>2185.69</ele>
        <time>2022-07-14T08:45:17Z</time>
      </trkpt>
      <trkpt lat="42.8170292918" lon="-0.2860014327">
        <ele>2186.18</ele>
        <time>2022-07-14T08:45:21Z</time>
      </trkpt>
      <trkpt lat="42.8171840217" lon="-0.2859741077">
        <ele>2184.73</ele>
        <time>2022-07-14T08:45:35Z</time>
      </trkpt>
      <trkpt lat="42.8171924874" lon="-0.2859668154">
        <ele>2184.73</ele>
        <time>2022-07-14T08:45:36Z</time>
      </trkpt>
      <trkpt lat="42.8172105085" lon="-0.2859543264">
        <ele>2184.73</ele>
        <time>2022-07-14T08:45:38Z</time>
      </trkpt>
      <trkpt lat="42.8172801621" lon="-0.2858746145">
        <ele>2184.73</ele>
        <time>2022-07-14T08:45:47Z</time>
      </trkpt>
      <trkpt lat="42.8173219878" lon="-0.2858964913">
        <ele>2184.25</ele>
        <time>2022-07-14T08:45:51Z</time>
      </trkpt>
      <trkpt lat="42.8173286095" lon="-0.2859321143">
        <ele>2184.25</ele>
        <time>2022-07-14T08:45:53Z</time>
      </trkpt>
      <trkpt lat="42.8173513245" lon="-0.2859947272">
        <ele>2183.77</ele>
        <time>2022-07-14T08:45:57Z</time>
      </trkpt>
      <trkpt lat="42.8173879534" lon="-0.2862563264">
        <ele>2182.33</ele>
        <time>2022-07-14T08:46:13Z</time>
      </trkpt>
      <trkpt lat="42.8174619656" lon="-0.2864180971">
        <ele>2180.41</ele>
        <time>2022-07-14T08:46:26Z</time>
      </trkpt>
      <trkpt lat="42.8174877819" lon="-0.2864686400">
        <ele>2179.45</ele>
        <time>2022-07-14T08:46:30Z</time>
      </trkpt>
      <trkpt lat="42.8175301943" lon="-0.2865657862">
        <ele>2178.00</ele>
        <time>2022-07-14T08:46:37Z</time>
      </trkpt>
      <trkpt lat="42.8175422642" lon="-0.2866197657">
        <ele>2177.52</ele>
        <time>2022-07-14T08:46:41Z</time>
      </trkpt>
      <trkpt lat="42.8175496403" lon="-0.2866868209">
        <ele>2176.08</ele>
        <time>2022-07-14T08:46:46Z</time>
      </trkpt>
      <trkpt lat="42.8176099900" lon="-0.2868226077">
        <ele>2175.12</ele>
        <time>2022-07-14T08:46:58Z</time>
      </trkpt>
      <trkpt lat="42.8176220600" lon="-0.2868646849">
        <ele>2174.64</ele>
        <time>2022-07-14T08:47:02Z</time>
      </trkpt>
      <trkpt lat="42.8176283464" lon="-0.2869044151">
        <ele>2173.68</ele>
        <time>2022-07-14T08:47:05Z</time>
      </trkpt>
      <trkpt lat="42.8177130874" lon="-0.2870909125">
        <ele>2172.24</ele>
        <time>2022-07-14T08:47:20Z</time>
      </trkpt>
      <trkpt lat="42.8177171107" lon="-0.2871007193">
        <ele>2171.76</ele>
        <time>2022-07-14T08:47:21Z</time>
      </trkpt>
      <trkpt lat="42.8178132512" lon="-0.2872483246">
        <ele>2170.31</ele>
        <time>2022-07-14T08:47:35Z</time>
      </trkpt>
      <trkpt lat="42.8178233095" lon="-0.2872590534">
        <ele>2170.31</ele>
        <time>2022-07-14T08:47:36Z</time>
      </trkpt>
      <trkpt lat="42.8178720921" lon="-0.2874240093">
        <ele>2169.35</ele>
        <time>2022-07-14T08:47:51Z</time>
      </trkpt>
      <trkpt lat="42.8179578390" lon="-0.2875750512">
        <ele>2169.35</ele>
        <time>2022-07-14T08:48:05Z</time>
      </trkpt>
      <trkpt lat="42.8180110641" lon="-0.2877286915">
        <ele>2168.87</ele>
        <time>2022-07-14T08:48:16Z</time>
      </trkpt>
      <trkpt lat="42.8179860860" lon="-0.2879412565">
        <ele>2168.87</ele>
        <time>2022-07-14T08:48:32Z</time>
      </trkpt>
      <trkpt lat="42.8179736808" lon="-0.2879393287">
        <ele>2168.87</ele>
        <time>2022-07-14T08:48:51Z</time>
      </trkpt>
      <trkpt lat="42.8179571684" lon="-0.2879726887">
        <ele>2168.87</ele>
        <time>2022-07-14T08:49:16Z</time>
      </trkpt>
      <trkpt lat="42.8179697413" lon="-0.2879893687">
        <ele>2168.39</ele>
        <time>2022-07-14T08:49:38Z</time>
      </trkpt>
      <trkpt lat="42.8179823980" lon="-0.2879531588">
        <ele>2167.91</ele>
        <time>2022-07-14T08:49:54Z</time>
      </trkpt>
      <trkpt lat="42.8180018440" lon="-0.2879369818">
        <ele>2169.35</ele>
        <time>2022-07-14T08:50:14Z</time>
      </trkpt>
      <trkpt lat="42.8179948032" lon="-0.2879834175">
        <ele>2168.39</ele>
        <time>2022-07-14T08:50:32Z</time>
      </trkpt>
      <trkpt lat="42.8180030175" lon="-0.2881298494">
        <ele>2166.95</ele>
        <time>2022-07-14T08:50:44Z</time>
      </trkpt>
      <trkpt lat="42.8179726750" lon="-0.2882845793">
        <ele>2165.51</ele>
        <time>2022-07-14T08:50:57Z</time>
      </trkpt>
      <trkpt lat="42.8179557435" lon="-0.2884538099">
        <ele>2164.06</ele>
        <time>2022-07-14T08:51:08Z</time>
      </trkpt>
      <trkpt lat="42.8179426678" lon="-0.2885317616">
        <ele>2163.58</ele>
        <time>2022-07-14T08:51:14Z</time>
      </trkpt>
      <trkpt lat="42.8179469425" lon="-0.2885789517">
        <ele>2163.10</ele>
        <time>2022-07-14T08:51:17Z</time>
      </trkpt>
      <trkpt lat="42.8178863414" lon="-0.2887953725">
        <ele>2162.62</ele>
        <time>2022-07-14T08:51:33Z</time>
      </trkpt>
      <trkpt lat="42.8178650513" lon="-0.2890419681">
        <ele>2160.22</ele>
        <time>2022-07-14T08:51:48Z</time>
      </trkpt>
      <trkpt lat="42.8178409114" lon="-0.2892385237">
        <ele>2157.34</ele>
        <time>2022-07-14T08:52:03Z</time>
      </trkpt>
      <trkpt lat="42.8178014327" lon="-0.2894727979">
        <ele>2156.86</ele>
        <time>2022-07-14T08:52:18Z</time>
      </trkpt>
      <trkpt lat="42.8177834116" lon="-0.2896136977">
        <ele>2155.89</ele>
        <time>2022-07-14T08:52:31Z</time>
      </trkpt>
      <trkpt lat="42.8177643847" lon="-0.2897945791">
        <ele>2154.93</ele>
        <time>2022-07-14T08:52:45Z</time>
      </trkpt>
      <trkpt lat="42.8177532367" lon="-0.2898502350">
        <ele>2154.45</ele>
        <time>2022-07-14T08:52:48Z</time>
      </trkpt>
      <trkpt lat="42.8177304380" lon="-0.2900443599">
        <ele>2153.49</ele>
        <time>2022-07-14T08:53:03Z</time>
      </trkpt>
      <trkpt lat="42.8177182842" lon="-0.2901683282">
        <ele>2154.93</ele>
        <time>2022-07-14T08:53:11Z</time>
      </trkpt>
      <trkpt lat="42.8177412506" lon="-0.2903545741">
        <ele>2156.86</ele>
        <time>2022-07-14T08:53:24Z</time>
      </trkpt>
      <trkpt lat="42.8177310247" lon="-0.2905901894">
        <ele>2159.26</ele>
        <time>2022-07-14T08:53:42Z</time>
      </trkpt>
      <trkpt lat="42.8177119978" lon="-0.2907170914">
        <ele>2162.14</ele>
        <time>2022-07-14T08:53:57Z</time>
      </trkpt>
      <trkpt lat="42.8177167755" lon="-0.2908154950">
        <ele>2165.03</ele>
        <time>2022-07-14T08:54:12Z</time>
      </trkpt>
      <trkpt lat="42.8176961560" lon="-0.2908594161">
        <ele>2165.51</ele>
        <time>2022-07-14T08:54:15Z</time>
      </trkpt>
      <trkpt lat="42.8176529054" lon="-0.2909963764">
        <ele>2165.99</ele>
        <time>2022-07-14T08:54:31Z</time>
      </trkpt>
      <trkpt lat="42.8176545817" lon="-0.2910737414">
        <ele>2167.43</ele>
        <time>2022-07-14T08:54:38Z</time>
      </trkpt>
      <trkpt lat="42.8176415898" lon="-0.2911923453">
        <ele>2167.91</ele>
        <time>2022-07-14T08:54:47Z</time>
      </trkpt>
      <trkpt lat="42.8176575992" lon="-0.2912490070">
        <ele>2167.43</ele>
        <time>2022-07-14T08:54:52Z</time>
      </trkpt>
      <trkpt lat="42.8176708426" lon="-0.2912872285">
        <ele>2165.99</ele>
        <time>2022-07-14T08:54:55Z</time>
      </trkpt>
      <trkpt lat="42.8177356347" lon="-0.2914566267">
        <ele>2165.03</ele>
        <time>2022-07-14T08:55:05Z</time>
      </trkpt>
      <trkpt lat="42.8177522309" lon="-0.2915594727">
        <ele>2165.03</ele>
        <time>2022-07-14T08:55:12Z</time>
      </trkpt>
      <trkpt lat="42.8177805617" lon="-0.2916447166">
        <ele>2165.03</ele>
        <time>2022-07-14T08:55:18Z</time>
      </trkpt>
      <trkpt lat="42.8178298473" lon="-0.2917932440">
        <ele>2165.03</ele>
        <time>2022-07-14T08:55:27Z</time>
      </trkpt>
      <trkpt lat="42.8178479522" lon="-0.2920553461">
        <ele>2164.55</ele>
        <time>2022-07-14T08:55:42Z</time>
      </trkpt>
      <trkpt lat="42.8178496286" lon="-0.2921315376">
        <ele>2164.06</ele>
        <time>2022-07-14T08:55:47Z</time>
      </trkpt>
      <trkpt lat="42.8178559151" lon="-0.2921984252">
        <ele>2164.06</ele>
        <time>2022-07-14T08:55:51Z</time>
      </trkpt>
      <trkpt lat="42.8178832401" lon="-0.2923467848">
        <ele>2164.06</ele>
        <time>2022-07-14T08:55:59Z</time>
      </trkpt>
      <trkpt lat="42.8179044463" lon="-0.2923727687">
        <ele>2164.06</ele>
        <time>2022-07-14T08:56:01Z</time>
      </trkpt>
      <trkpt lat="42.8179523908" lon="-0.2925408259">
        <ele>2163.58</ele>
        <time>2022-07-14T08:56:10Z</time>
      </trkpt>
      <trkpt lat="42.8179613594" lon="-0.2927591745">
        <ele>2163.10</ele>
        <time>2022-07-14T08:56:22Z</time>
      </trkpt>
      <trkpt lat="42.8179558273" lon="-0.2928099688">
        <ele>2163.10</ele>
        <time>2022-07-14T08:56:25Z</time>
      </trkpt>
      <trkpt lat="42.8179097269" lon="-0.2930760942">
        <ele>2162.62</ele>
        <time>2022-07-14T08:56:41Z</time>
      </trkpt>
      <trkpt lat="42.8178648837" lon="-0.2932336740">
        <ele>2162.62</ele>
        <time>2022-07-14T08:56:49Z</time>
      </trkpt>
      <trkpt lat="42.8177331202" lon="-0.2935444750">
        <ele>2161.66</ele>
        <time>2022-07-14T08:57:07Z</time>
      </trkpt>
      <trkpt lat="42.8177391551" lon="-0.2938244306">
        <ele>2162.62</ele>
        <time>2022-07-14T08:57:22Z</time>
      </trkpt>
      <trkpt lat="42.8177608643" lon="-0.2940598782">
        <ele>2161.18</ele>
        <time>2022-07-14T08:57:36Z</time>
      </trkpt>
      <trkpt lat="42.8177387360" lon="-0.2942887880">
        <ele>2160.70</ele>
        <time>2022-07-14T08:57:49Z</time>
      </trkpt>
      <trkpt lat="42.8176482953" lon="-0.2945568413">
        <ele>2159.26</ele>
        <time>2022-07-14T08:58:07Z</time>
      </trkpt>
      <trkpt lat="42.8175623808" lon="-0.2946330328">
        <ele>2157.34</ele>
        <time>2022-07-14T08:58:16Z</time>
      </trkpt>
      <trkpt lat="42.8175354749" lon="-0.2946010977">
        <ele>2156.37</ele>
        <time>2022-07-14T08:58:19Z</time>
      </trkpt>
      <trkpt lat="42.8175322898" lon="-0.2945297677">
        <ele>2154.45</ele>
        <time>2022-07-14T08:58:25Z</time>
      </trkpt>
      <trkpt lat="42.8175432701" lon="-0.2944195457">
        <ele>2152.05</ele>
        <time>2022-07-14T08:58:35Z</time>
      </trkpt>
      <trkpt lat="42.8175692540" lon="-0.2943143528">
        <ele>2149.16</ele>
        <time>2022-07-14T08:58:47Z</time>
      </trkpt>
      <trkpt lat="42.8175176214" lon="-0.2942076512">
        <ele>2145.80</ele>
        <time>2022-07-14T08:58:57Z</time>
      </trkpt>
      <trkpt lat="42.8175031208" lon="-0.2942077350">
        <ele>2145.32</ele>
        <time>2022-07-14T08:58:59Z</time>
      </trkpt>
      <trkpt lat="42.8174677491" lon="-0.2942590322">
        <ele>2144.36</ele>
        <time>2022-07-14T08:59:06Z</time>
      </trkpt>
      <trkpt lat="42.8174608760" lon="-0.2943406720">
        <ele>2141.95</ele>
        <time>2022-07-14T08:59:14Z</time>
      </trkpt>
      <trkpt lat="42.8173943236" lon="-0.2945380658">
        <ele>2140.03</ele>
        <time>2022-07-14T08:59:29Z</time>
      </trkpt>
      <trkpt lat="42.8173898812" lon="-0.2945774607">
        <ele>2139.55</ele>
        <time>2022-07-14T08:59:32Z</time>
      </trkpt>
      <trkpt lat="42.8173291963" lon="-0.2947493736">
        <ele>2138.11</ele>
        <time>2022-07-14T08:59:46Z</time>
      </trkpt>
      <trkpt lat="42.8173250053" lon="-0.2948546503">
        <ele>2136.19</ele>
        <time>2022-07-14T08:59:56Z</time>
      </trkpt>
      <trkpt lat="42.8173320461" lon="-0.2949048579">
        <ele>2136.19</ele>
        <time>2022-07-14T08:59:59Z</time>
      </trkpt>
      <trkpt lat="42.8173504025" lon="-0.2949513774">
        <ele>2135.71</ele>
        <time>2022-07-14T09:00:02Z</time>
      </trkpt>
      <trkpt lat="42.8172835987" lon="-0.2951624338">
        <ele>2135.71</ele>
        <time>2022-07-14T09:00:15Z</time>
      </trkpt>
      <trkpt lat="42.8172157891" lon="-0.2953815367">
        <ele>2135.23</ele>
        <time>2022-07-14T09:00:28Z</time>
      </trkpt>
      <trkpt lat="42.8171834350" lon="-0.2956271265">
        <ele>2135.23</ele>
        <time>2022-07-14T09:00:43Z</time>
      </trkpt>
      <trkpt lat="42.8171872068" lon="-0.2957112808">
        <ele>2135.23</ele>
        <time>2022-07-14T09:00:49Z</time>
      </trkpt>
      <trkpt lat="42.8172038868" lon="-0.2957825270">
        <ele>2133.78</ele>
        <time>2022-07-14T09:00:53Z</time>
      </trkpt>
      <trkpt lat="42.8171897214" lon="-0.2960326429">
        <ele>2130.42</ele>
        <time>2022-07-14T09:01:07Z</time>
      </trkpt>
      <trkpt lat="42.8171977680" lon="-0.2962737903">
        <ele>2128.98</ele>
        <time>2022-07-14T09:01:21Z</time>
      </trkpt>
      <trkpt lat="42.8172028810" lon="-0.2963058930">
        <ele>2128.98</ele>
        <time>2022-07-14T09:01:23Z</time>
      </trkpt>
      <trkpt lat="42.8171341494" lon="-0.2964543365">
        <ele>2130.42</ele>
        <time>2022-07-14T09:01:35Z</time>
      </trkpt>
      <trkpt lat="42.8171380889" lon="-0.2964613773">
        <ele>2130.42</ele>
        <time>2022-07-14T09:01:36Z</time>
      </trkpt>
      <trkpt lat="42.8171511646" lon="-0.2964726090">
        <ele>2130.42</ele>
        <time>2022-07-14T09:01:38Z</time>
      </trkpt>
      <trkpt lat="42.8172015399" lon="-0.2966056298">
        <ele>2128.98</ele>
        <time>2022-07-14T09:01:49Z</time>
      </trkpt>
      <trkpt lat="42.8172350675" lon="-0.2966720983">
        <ele>2127.53</ele>
        <time>2022-07-14T09:01:55Z</time>
      </trkpt>
      <trkpt lat="42.8172598779" lon="-0.2968388144">
        <ele>2124.17</ele>
        <time>2022-07-14T09:02:07Z</time>
      </trkpt>
      <trkpt lat="42.8172696009" lon="-0.2969722543">
        <ele>2123.21</ele>
        <time>2022-07-14T09:02:16Z</time>
      </trkpt>
      <trkpt lat="42.8173329681" lon="-0.2971387189">
        <ele>2120.81</ele>
        <time>2022-07-14T09:02:30Z</time>
      </trkpt>
      <trkpt lat="42.8173237480" lon="-0.2971600927">
        <ele>2120.32</ele>
        <time>2022-07-14T09:02:32Z</time>
      </trkpt>
      <trkpt lat="42.8173882887" lon="-0.2972874139">
        <ele>2116.96</ele>
        <time>2022-07-14T09:02:46Z</time>
      </trkpt>
      <trkpt lat="42.8174260911" lon="-0.2973054349">
        <ele>2115.04</ele>
        <time>2022-07-14T09:02:52Z</time>
      </trkpt>
      <trkpt lat="42.8174686711" lon="-0.2974398807">
        <ele>2113.60</ele>
        <time>2022-07-14T09:03:04Z</time>
      </trkpt>
      <trkpt lat="42.8175122570" lon="-0.2975461632">
        <ele>2112.63</ele>
        <time>2022-07-14T09:03:17Z</time>
      </trkpt>
      <trkpt lat="42.8175612912" lon="-0.2976617496">
        <ele>2111.67</ele>
        <time>2022-07-14T09:03:30Z</time>
      </trkpt>
      <trkpt lat="42.8175792284" lon="-0.2977524418">
        <ele>2111.67</ele>
        <time>2022-07-14T09:03:36Z</time>
      </trkpt>
      <trkpt lat="42.8175963275" lon="-0.2978759911">
        <ele>2113.12</ele>
        <time>2022-07-14T09:03:44Z</time>
      </trkpt>
      <trkpt lat="42.8175639734" lon="-0.2980586328">
        <ele>2109.27</ele>
        <time>2022-07-14T09:03:59Z</time>
      </trkpt>
      <trkpt lat="42.8175865207" lon="-0.2981888037">
        <ele>2106.87</ele>
        <time>2022-07-14T09:04:11Z</time>
      </trkpt>
      <trkpt lat="42.8175909631" lon="-0.2982032206">
        <ele>2105.91</ele>
        <time>2022-07-14T09:04:12Z</time>
      </trkpt>
      <trkpt lat="42.8175981715" lon="-0.2982367482">
        <ele>2105.91</ele>
        <time>2022-07-14T09:04:14Z</time>
      </trkpt>
      <trkpt lat="42.8176767938" lon="-0.2983499039">
        <ele>2103.02</ele>
        <time>2022-07-14T09:04:26Z</time>
      </trkpt>
      <trkpt lat="42.8177202959" lon="-0.2985007782">
        <ele>2099.66</ele>
        <time>2022-07-14T09:04:40Z</time>
      </trkpt>
      <trkpt lat="42.8177825734" lon="-0.2986156940">
        <ele>2096.29</ele>
        <time>2022-07-14T09:04:54Z</time>
      </trkpt>
      <trkpt lat="42.8178420849" lon="-0.2987192106">
        <ele>2093.89</ele>
        <time>2022-07-14T09:05:07Z</time>
      </trkpt>
      <trkpt lat="42.8178471141" lon="-0.2987675741">
        <ele>2092.93</ele>
        <time>2022-07-14T09:05:10Z</time>
      </trkpt>
      <trkpt lat="42.8178529814" lon="-0.2988008503">
        <ele>2092.93</ele>
        <time>2022-07-14T09:05:12Z</time>
      </trkpt>
      <trkpt lat="42.8178508859" lon="-0.2988510579">
        <ele>2091.97</ele>
        <time>2022-07-14T09:05:15Z</time>
      </trkpt>
      <trkpt lat="42.8178733494" lon="-0.2989455219">
        <ele>2091.97</ele>
        <time>2022-07-14T09:05:22Z</time>
      </trkpt>
      <trkpt lat="42.8178825695" lon="-0.2989693265">
        <ele>2091.49</ele>
        <time>2022-07-14T09:05:24Z</time>
      </trkpt>
      <trkpt lat="42.8178911190" lon="-0.2990164328">
        <ele>2090.52</ele>
        <time>2022-07-14T09:05:28Z</time>
      </trkpt>
      <trkpt lat="42.8178998362" lon="-0.2991941292">
        <ele>2088.12</ele>
        <time>2022-07-14T09:05:42Z</time>
      </trkpt>
      <trkpt lat="42.8179350402" lon="-0.2993380465">
        <ele>2085.72</ele>
        <time>2022-07-14T09:05:55Z</time>
      </trkpt>
      <trkpt lat="42.8179972339" lon="-0.2994527109">
        <ele>2082.83</ele>
        <time>2022-07-14T09:06:09Z</time>
      </trkpt>
      <trkpt lat="42.8179623652" lon="-0.2995319199">
        <ele>2080.91</ele>
        <time>2022-07-14T09:06:19Z</time>
      </trkpt>
      <trkpt lat="42.8179605212" lon="-0.2996621747">
        <ele>2077.55</ele>
        <time>2022-07-14T09:06:29Z</time>
      </trkpt>
      <trkpt lat="42.8180151712" lon="-0.2997512743">
        <ele>2075.62</ele>
        <time>2022-07-14T09:06:42Z</time>
      </trkpt>
      <trkpt lat="42.8180025984" lon="-0.2999038249">
        <ele>2072.26</ele>
        <time>2022-07-14T09:06:56Z</time>
      </trkpt>
      <trkpt lat="42.8180318512" lon="-0.3000213392">
        <ele>2070.82</ele>
        <time>2022-07-14T09:07:08Z</time>
      </trkpt>
      <trkpt lat="42.8180800471" lon="-0.3002309706">
        <ele>2069.38</ele>
        <time>2022-07-14T09:07:22Z</time>
      </trkpt>
      <trkpt lat="42.8181201965" lon="-0.3003955912">
        <ele>2066.49</ele>
        <time>2022-07-14T09:07:35Z</time>
      </trkpt>
      <trkpt lat="42.8181451745" lon="-0.3005639836">
        <ele>2064.57</ele>
        <time>2022-07-14T09:07:48Z</time>
      </trkpt>
      <trkpt lat="42.8182093799" lon="-0.3007484693">
        <ele>2061.68</ele>
        <time>2022-07-14T09:08:01Z</time>
      </trkpt>
      <trkpt lat="42.8182922769" lon="-0.3008875251">
        <ele>2059.76</ele>
        <time>2022-07-14T09:08:14Z</time>
      </trkpt>
      <trkpt lat="42.8183015808" lon="-0.3010160197">
        <ele>2057.84</ele>
        <time>2022-07-14T09:08:22Z</time>
      </trkpt>
      <trkpt lat="42.8182728309" lon="-0.3010935523">
        <ele>2056.88</ele>
        <time>2022-07-14T09:08:32Z</time>
      </trkpt>
      <trkpt lat="42.8182732500" lon="-0.3011807241">
        <ele>2056.40</ele>
        <time>2022-07-14T09:08:37Z</time>
      </trkpt>
      <trkpt lat="42.8183161654" lon="-0.3013435006">
        <ele>2054.47</ele>
        <time>2022-07-14T09:08:48Z</time>
      </trkpt>
      <trkpt lat="42.8183294926" lon="-0.3015481029">
        <ele>2052.07</ele>
        <time>2022-07-14T09:09:01Z</time>
      </trkpt>
      <trkpt lat="42.8183783591" lon="-0.3017441556">
        <ele>2050.15</ele>
        <time>2022-07-14T09:09:14Z</time>
      </trkpt>
      <trkpt lat="42.8183960449" lon="-0.3017821256">
        <ele>2049.67</ele>
        <time>2022-07-14T09:09:17Z</time>
      </trkpt>
      <trkpt lat="42.8184369486" lon="-0.3018972091">
        <ele>2048.23</ele>
        <time>2022-07-14T09:09:26Z</time>
      </trkpt>
      <trkpt lat="42.8184786066" lon="-0.3019835427">
        <ele>2047.75</ele>
        <time>2022-07-14T09:09:32Z</time>
      </trkpt>
      <trkpt lat="42.8184828814" lon="-0.3021843731">
        <ele>2047.26</ele>
        <time>2022-07-14T09:09:44Z</time>
      </trkpt>
      <trkpt lat="42.8185056802" lon="-0.3023198247">
        <ele>2046.78</ele>
        <time>2022-07-14T09:09:52Z</time>
      </trkpt>
      <trkpt lat="42.8185351845" lon="-0.3023601416">
        <ele>2046.78</ele>
        <time>2022-07-14T09:09:55Z</time>
      </trkpt>
      <trkpt lat="42.8185446560" lon="-0.3024341539">
        <ele>2046.30</ele>
        <time>2022-07-14T09:10:00Z</time>
      </trkpt>
      <trkpt lat="42.8185649402" lon="-0.3024721239">
        <ele>2046.30</ele>
        <time>2022-07-14T09:10:03Z</time>
      </trkpt>
      <trkpt lat="42.8185820393" lon="-0.3026869521">
        <ele>2046.30</ele>
        <time>2022-07-14T09:10:16Z</time>
      </trkpt>
      <trkpt lat="42.8185943607" lon="-0.3027667478">
        <ele>2045.82</ele>
        <time>2022-07-14T09:10:21Z</time>
      </trkpt>
      <trkpt lat="42.8186464123" lon="-0.3028670792">
        <ele>2045.82</ele>
        <time>2022-07-14T09:10:28Z</time>
      </trkpt>
      <trkpt lat="42.8186526150" lon="-0.3029385768">
        <ele>2045.82</ele>
        <time>2022-07-14T09:10:32Z</time>
      </trkpt>
      <trkpt lat="42.8186672833" lon="-0.3030209709">
        <ele>2045.82</ele>
        <time>2022-07-14T09:10:37Z</time>
      </trkpt>
      <trkpt lat="42.8187283874" lon="-0.3030596953">
        <ele>2044.86</ele>
        <time>2022-07-14T09:10:44Z</time>
      </trkpt>
      <trkpt lat="42.8188234381" lon="-0.3031451907">
        <ele>2044.38</ele>
        <time>2022-07-14T09:10:55Z</time>
      </trkpt>
      <trkpt lat="42.8189754859" lon="-0.3030952346">
        <ele>2041.02</ele>
        <time>2022-07-14T09:11:09Z</time>
      </trkpt>
      <trkpt lat="42.8190206643" lon="-0.3031205479">
        <ele>2040.54</ele>
        <time>2022-07-14T09:11:13Z</time>
      </trkpt>
      <trkpt lat="42.8190706205" lon="-0.3031770419">
        <ele>2039.09</ele>
        <time>2022-07-14T09:11:18Z</time>
      </trkpt>
      <trkpt lat="42.8191766515" lon="-0.3032931313">
        <ele>2035.73</ele>
        <time>2022-07-14T09:11:32Z</time>
      </trkpt>
      <trkpt lat="42.8192677628" lon="-0.3034005873">
        <ele>2033.81</ele>
        <time>2022-07-14T09:11:45Z</time>
      </trkpt>
      <trkpt lat="42.8192857001" lon="-0.3034206200">
        <ele>2033.33</ele>
        <time>2022-07-14T09:11:47Z</time>
      </trkpt>
      <trkpt lat="42.8193464689" lon="-0.3034828976">
        <ele>2031.88</ele>
        <time>2022-07-14T09:11:53Z</time>
      </trkpt>
      <trkpt lat="42.8193936590" lon="-0.3035994060">
        <ele>2029.00</ele>
        <time>2022-07-14T09:12:06Z</time>
      </trkpt>
      <trkpt lat="42.8194256779" lon="-0.3036621865">
        <ele>2029.00</ele>
        <time>2022-07-14T09:12:10Z</time>
      </trkpt>
      <trkpt lat="42.8195310384" lon="-0.3038236219">
        <ele>2026.12</ele>
        <time>2022-07-14T09:12:24Z</time>
      </trkpt>
      <trkpt lat="42.8195524961" lon="-0.3038765118">
        <ele>2025.64</ele>
        <time>2022-07-14T09:12:28Z</time>
      </trkpt>
      <trkpt lat="42.8195725288" lon="-0.3038872406">
        <ele>2025.64</ele>
        <time>2022-07-14T09:12:30Z</time>
      </trkpt>
      <trkpt lat="42.8196024522" lon="-0.3039376158">
        <ele>2025.64</ele>
        <time>2022-07-14T09:12:35Z</time>
      </trkpt>
      <trkpt lat="42.8196213115" lon="-0.3041191678">
        <ele>2025.64</ele>
        <time>2022-07-14T09:12:44Z</time>
      </trkpt>
      <trkpt lat="42.8196383268" lon="-0.3041531984">
        <ele>2025.15</ele>
        <time>2022-07-14T09:12:47Z</time>
      </trkpt>
      <trkpt lat="42.8196431883" lon="-0.3041790985">
        <ele>2025.15</ele>
        <time>2022-07-14T09:12:49Z</time>
      </trkpt>
      <trkpt lat="42.8196670767" lon="-0.3042421304">
        <ele>2025.15</ele>
        <time>2022-07-14T09:12:53Z</time>
      </trkpt>
      <trkpt lat="42.8196837567" lon="-0.3043863829">
        <ele>2024.19</ele>
        <time>2022-07-14T09:13:01Z</time>
      </trkpt>
      <trkpt lat="42.8196837567" lon="-0.3044234309">
        <ele>2024.19</ele>
        <time>2022-07-14T09:13:03Z</time>
      </trkpt>
      <trkpt lat="42.8196874447" lon="-0.3044717945">
        <ele>2024.19</ele>
        <time>2022-07-14T09:13:06Z</time>
      </trkpt>
      <trkpt lat="42.8197292704" lon="-0.3047165461">
        <ele>2023.71</ele>
        <time>2022-07-14T09:13:22Z</time>
      </trkpt>
      <trkpt lat="42.8197605349" lon="-0.3047933243">
        <ele>2022.75</ele>
        <time>2022-07-14T09:13:28Z</time>
      </trkpt>
      <trkpt lat="42.8197785560" lon="-0.3048357368">
        <ele>2022.75</ele>
        <time>2022-07-14T09:13:31Z</time>
      </trkpt>
      <trkpt lat="42.8198208008" lon="-0.3049200587">
        <ele>2022.75</ele>
        <time>2022-07-14T09:13:39Z</time>
      </trkpt>
      <trkpt lat="42.8198472038" lon="-0.3049873654">
        <ele>2022.75</ele>
        <time>2022-07-14T09:13:44Z</time>
      </trkpt>
      <trkpt lat="42.8198922146" lon="-0.3051719349">
        <ele>2022.27</ele>
        <time>2022-07-14T09:13:58Z</time>
      </trkpt>
      <trkpt lat="42.8198530711" lon="-0.3052175324">
        <ele>2021.79</ele>
        <time>2022-07-14T09:14:06Z</time>
      </trkpt>
      <trkpt lat="42.8198638838" lon="-0.3052265849">
        <ele>2020.83</ele>
        <time>2022-07-14T09:14:24Z</time>
      </trkpt>
      <trkpt lat="42.8198536579" lon="-0.3052386548">
        <ele>2027.56</ele>
        <time>2022-07-14T09:14:58Z</time>
      </trkpt>
      <trkpt lat="42.8198493831" lon="-0.3052383196">
        <ele>2020.83</ele>
        <time>2022-07-14T09:14:59Z</time>
      </trkpt>
      <trkpt lat="42.8198313620" lon="-0.3052695841">
        <ele>2022.27</ele>
        <time>2022-07-14T09:15:12Z</time>
      </trkpt>
      <trkpt lat="42.8198302723" lon="-0.3052673209">
        <ele>2025.64</ele>
        <time>2022-07-14T09:15:14Z</time>
      </trkpt>
      <trkpt lat="42.8198327031" lon="-0.3052638005">
        <ele>2021.79</ele>
        <time>2022-07-14T09:15:15Z</time>
      </trkpt>
      <trkpt lat="42.8198476229" lon="-0.3052316140">
        <ele>2021.79</ele>
        <time>2022-07-14T09:15:33Z</time>
      </trkpt>
      <trkpt lat="42.8198484611" lon="-0.3052408341">
        <ele>2021.31</ele>
        <time>2022-07-14T09:15:35Z</time>
      </trkpt>
      <trkpt lat="42.8198743612" lon="-0.3052803129">
        <ele>2021.31</ele>
        <time>2022-07-14T09:15:39Z</time>
      </trkpt>
      <trkpt lat="42.8199053742" lon="-0.3053364716">
        <ele>2021.31</ele>
        <time>2022-07-14T09:15:43Z</time>
      </trkpt>
      <trkpt lat="42.8199281730" lon="-0.3053528164">
        <ele>2021.31</ele>
        <time>2022-07-14T09:15:45Z</time>
      </trkpt>
      <trkpt lat="42.8199813142" lon="-0.3053822368">
        <ele>2021.31</ele>
        <time>2022-07-14T09:15:49Z</time>
      </trkpt>
      <trkpt lat="42.8200262412" lon="-0.3054369707">
        <ele>2021.31</ele>
        <time>2022-07-14T09:15:54Z</time>
      </trkpt>
      <trkpt lat="42.8200384788" lon="-0.3054955602">
        <ele>2020.83</ele>
        <time>2022-07-14T09:15:58Z</time>
      </trkpt>
      <trkpt lat="42.8200612776" lon="-0.3057342768">
        <ele>2019.87</ele>
        <time>2022-07-14T09:16:14Z</time>
      </trkpt>
      <trkpt lat="42.8200699110" lon="-0.3059026692">
        <ele>2019.87</ele>
        <time>2022-07-14T09:16:26Z</time>
      </trkpt>
      <trkpt lat="42.8200289235" lon="-0.3061407991">
        <ele>2018.91</ele>
        <time>2022-07-14T09:16:40Z</time>
      </trkpt>
      <trkpt lat="42.8200497106" lon="-0.3062806930">
        <ele>2018.91</ele>
        <time>2022-07-14T09:16:51Z</time>
      </trkpt>
      <trkpt lat="42.8200458549" lon="-0.3063039947">
        <ele>2018.91</ele>
        <time>2022-07-14T09:16:53Z</time>
      </trkpt>
      <trkpt lat="42.8200577572" lon="-0.3064225987">
        <ele>2018.43</ele>
        <time>2022-07-14T09:17:00Z</time>
      </trkpt>
      <trkpt lat="42.8200724255" lon="-0.3065536916">
        <ele>2017.94</ele>
        <time>2022-07-14T09:17:10Z</time>
      </trkpt>
      <trkpt lat="42.8201048635" lon="-0.3067432065">
        <ele>2016.98</ele>
        <time>2022-07-14T09:17:23Z</time>
      </trkpt>
      <trkpt lat="42.8201046959" lon="-0.3068047296">
        <ele>2016.98</ele>
        <time>2022-07-14T09:17:27Z</time>
      </trkpt>
      <trkpt lat="42.8201803006" lon="-0.3070729505">
        <ele>2015.54</ele>
        <time>2022-07-14T09:17:43Z</time>
      </trkpt>
      <trkpt lat="42.8201748524" lon="-0.3072035406">
        <ele>2014.10</ele>
        <time>2022-07-14T09:17:50Z</time>
      </trkpt>
      <trkpt lat="42.8201403189" lon="-0.3074022755">
        <ele>2013.14</ele>
        <time>2022-07-14T09:18:04Z</time>
      </trkpt>
      <trkpt lat="42.8201224655" lon="-0.3075075522">
        <ele>2012.18</ele>
        <time>2022-07-14T09:18:17Z</time>
      </trkpt>
      <trkpt lat="42.8200765327" lon="-0.3076275811">
        <ele>2009.77</ele>
        <time>2022-07-14T09:18:30Z</time>
      </trkpt>
      <trkpt lat="42.8200744372" lon="-0.3076540679">
        <ele>2009.77</ele>
        <time>2022-07-14T09:18:32Z</time>
      </trkpt>
      <trkpt lat="42.8200490400" lon="-0.3077149205">
        <ele>2009.29</ele>
        <time>2022-07-14T09:18:36Z</time>
      </trkpt>
      <trkpt lat="42.8199670650" lon="-0.3079401422">
        <ele>2006.89</ele>
        <time>2022-07-14T09:18:52Z</time>
      </trkpt>
      <trkpt lat="42.8198882751" lon="-0.3081526235">
        <ele>2004.49</ele>
        <time>2022-07-14T09:19:07Z</time>
      </trkpt>
      <trkpt lat="42.8198344633" lon="-0.3083447367">
        <ele>2003.52</ele>
        <time>2022-07-14T09:19:22Z</time>
      </trkpt>
      <trkpt lat="42.8198382352" lon="-0.3084887378">
        <ele>2001.60</ele>
        <time>2022-07-14T09:19:32Z</time>
      </trkpt>
      <trkpt lat="42.8198456950" lon="-0.3085222654">
        <ele>2001.60</ele>
        <time>2022-07-14T09:19:34Z</time>
      </trkpt>
      <trkpt lat="42.8198405821" lon="-0.3085604869">
        <ele>2001.60</ele>
        <time>2022-07-14T09:19:36Z</time>
      </trkpt>
      <trkpt lat="42.8198547475" lon="-0.3087560367">
        <ele>1999.20</ele>
        <time>2022-07-14T09:19:50Z</time>
      </trkpt>
      <trkpt lat="42.8198498860" lon="-0.3088917397">
        <ele>1997.76</ele>
        <time>2022-07-14T09:20:02Z</time>
      </trkpt>
      <trkpt lat="42.8198757861" lon="-0.3090552706">
        <ele>1996.32</ele>
        <time>2022-07-14T09:20:14Z</time>
      </trkpt>
      <trkpt lat="42.8198732715" lon="-0.3092391696">
        <ele>1994.87</ele>
        <time>2022-07-14T09:20:28Z</time>
      </trkpt>
      <trkpt lat="42.8198701702" lon="-0.3094234876">
        <ele>1992.95</ele>
        <time>2022-07-14T09:20:42Z</time>
      </trkpt>
      <trkpt lat="42.8199118283" lon="-0.3095755354">
        <ele>1990.55</ele>
        <time>2022-07-14T09:20:55Z</time>
      </trkpt>
      <trkpt lat="42.8199741058" lon="-0.3096955642">
        <ele>1988.14</ele>
        <time>2022-07-14T09:21:09Z</time>
      </trkpt>
      <trkpt lat="42.8199771233" lon="-0.3097107355">
        <ele>1987.66</ele>
        <time>2022-07-14T09:21:10Z</time>
      </trkpt>
      <trkpt lat="42.8200349584" lon="-0.3098619450">
        <ele>1985.26</ele>
        <time>2022-07-14T09:21:23Z</time>
      </trkpt>
      <trkpt lat="42.8200430889" lon="-0.3099319339">
        <ele>1984.30</ele>
        <time>2022-07-14T09:21:28Z</time>
      </trkpt>
      <trkpt lat="42.8200360481" lon="-0.3101019189">
        <ele>1982.38</ele>
        <time>2022-07-14T09:21:39Z</time>
      </trkpt>
      <trkpt lat="42.8200066276" lon="-0.3101802897">
        <ele>1980.45</ele>
        <time>2022-07-14T09:21:45Z</time>
      </trkpt>
      <trkpt lat="42.8200259060" lon="-0.3103720676">
        <ele>1977.57</ele>
        <time>2022-07-14T09:21:58Z</time>
      </trkpt>
      <trkpt lat="42.8200265765" lon="-0.3103870712">
        <ele>1977.57</ele>
        <time>2022-07-14T09:21:59Z</time>
      </trkpt>
      <trkpt lat="42.8200462740" lon="-0.3105511051">
        <ele>1975.17</ele>
        <time>2022-07-14T09:22:12Z</time>
      </trkpt>
      <trkpt lat="42.8200680669" lon="-0.3106871434">
        <ele>1972.28</ele>
        <time>2022-07-14T09:22:24Z</time>
      </trkpt>
      <trkpt lat="42.8200762812" lon="-0.3107975330">
        <ele>1969.88</ele>
        <time>2022-07-14T09:22:35Z</time>
      </trkpt>
      <trkpt lat="42.8201123234" lon="-0.3109870479">
        <ele>1967.48</ele>
        <time>2022-07-14T09:22:48Z</time>
      </trkpt>
      <trkpt lat="42.8201125748" lon="-0.3110041469">
        <ele>1966.99</ele>
        <time>2022-07-14T09:22:50Z</time>
      </trkpt>
      <trkpt lat="42.8201202862" lon="-0.3110994492">
        <ele>1965.55</ele>
        <time>2022-07-14T09:22:57Z</time>
      </trkpt>
      <trkpt lat="42.8201074619" lon="-0.3112798277">
        <ele>1963.15</ele>
        <time>2022-07-14T09:23:13Z</time>
      </trkpt>
      <trkpt lat="42.8201058693" lon="-0.3114182968">
        <ele>1959.78</ele>
        <time>2022-07-14T09:23:27Z</time>
      </trkpt>
      <trkpt lat="42.8201249801" lon="-0.3116071410">
        <ele>1956.90</ele>
        <time>2022-07-14T09:23:40Z</time>
      </trkpt>
      <trkpt lat="42.8201383911" lon="-0.3117654752">
        <ele>1954.98</ele>
        <time>2022-07-14T09:23:50Z</time>
      </trkpt>
      <trkpt lat="42.8201363795" lon="-0.3118047025">
        <ele>1954.02</ele>
        <time>2022-07-14T09:23:52Z</time>
      </trkpt>
      <trkpt lat="42.8201630339" lon="-0.3119248990">
        <ele>1952.57</ele>
        <time>2022-07-14T09:24:05Z</time>
      </trkpt>
      <trkpt lat="42.8201652132" lon="-0.3119504638">
        <ele>1952.09</ele>
        <time>2022-07-14T09:24:07Z</time>
      </trkpt>
      <trkpt lat="42.8201854974" lon="-0.3119902778">
        <ele>1951.13</ele>
        <time>2022-07-14T09:24:10Z</time>
      </trkpt>
      <trkpt lat="42.8201865871" lon="-0.3120134957">
        <ele>1950.65</ele>
        <time>2022-07-14T09:24:12Z</time>
      </trkpt>
      <trkpt lat="42.8201818932" lon="-0.3122192714">
        <ele>1948.25</ele>
        <time>2022-07-14T09:24:27Z</time>
      </trkpt>
      <trkpt lat="42.8201458510" lon="-0.3123465087">
        <ele>1946.33</ele>
        <time>2022-07-14T09:24:38Z</time>
      </trkpt>
      <trkpt lat="42.8201569151" lon="-0.3125123866">
        <ele>1943.92</ele>
        <time>2022-07-14T09:24:51Z</time>
      </trkpt>
      <trkpt lat="42.8201856650" lon="-0.3126563877">
        <ele>1941.52</ele>
        <time>2022-07-14T09:25:04Z</time>
      </trkpt>
      <trkpt lat="42.8202338610" lon="-0.3127837926">
        <ele>1939.60</ele>
        <time>2022-07-14T09:25:18Z</time>
      </trkpt>
      <trkpt lat="42.8202097211" lon="-0.3129785880">
        <ele>1937.19</ele>
        <time>2022-07-14T09:25:33Z</time>
      </trkpt>
      <trkpt lat="42.8201905265" lon="-0.3131365869">
        <ele>1934.31</ele>
        <time>2022-07-14T09:25:48Z</time>
      </trkpt>
      <trkpt lat="42.8201187775" lon="-0.3133064881">
        <ele>1930.95</ele>
        <time>2022-07-14T09:26:01Z</time>
      </trkpt>
      <trkpt lat="42.8201411571" lon="-0.3135058098">
        <ele>1928.06</ele>
        <time>2022-07-14T09:26:14Z</time>
      </trkpt>
      <trkpt lat="42.8201278299" lon="-0.3136515711">
        <ele>1926.14</ele>
        <time>2022-07-14T09:26:26Z</time>
      </trkpt>
      <trkpt lat="42.8201332781" lon="-0.3137120046">
        <ele>1924.22</ele>
        <time>2022-07-14T09:26:34Z</time>
      </trkpt>
      <trkpt lat="42.8201461025" lon="-0.3138237353">
        <ele>1921.81</ele>
        <time>2022-07-14T09:26:46Z</time>
      </trkpt>
      <trkpt lat="42.8201501258" lon="-0.3138603643">
        <ele>1921.33</ele>
        <time>2022-07-14T09:26:49Z</time>
      </trkpt>
      <trkpt lat="42.8201549035" lon="-0.3139735200">
        <ele>1920.37</ele>
        <time>2022-07-14T09:26:56Z</time>
      </trkpt>
      <trkpt lat="42.8202039376" lon="-0.3141753562">
        <ele>1916.53</ele>
        <time>2022-07-14T09:27:10Z</time>
      </trkpt>
      <trkpt lat="42.8201871738" lon="-0.3142996598">
        <ele>1914.60</ele>
        <time>2022-07-14T09:27:22Z</time>
      </trkpt>
      <trkpt lat="42.8201256506" lon="-0.3143978119">
        <ele>1911.72</ele>
        <time>2022-07-14T09:27:36Z</time>
      </trkpt>
      <trkpt lat="42.8201019298" lon="-0.3144876659">
        <ele>1909.80</ele>
        <time>2022-07-14T09:27:47Z</time>
      </trkpt>
      <trkpt lat="42.8201093897" lon="-0.3146830481">
        <ele>1907.87</ele>
        <time>2022-07-14T09:27:59Z</time>
      </trkpt>
      <trkpt lat="42.8201228846" lon="-0.3147314116">
        <ele>1907.39</ele>
        <time>2022-07-14T09:28:02Z</time>
      </trkpt>
      <trkpt lat="42.8202181030" lon="-0.3149384446">
        <ele>1904.99</ele>
        <time>2022-07-14T09:28:17Z</time>
      </trkpt>
      <trkpt lat="42.8202536423" lon="-0.3149844613">
        <ele>1903.55</ele>
        <time>2022-07-14T09:28:22Z</time>
      </trkpt>
      <trkpt lat="42.8202976473" lon="-0.3151126206">
        <ele>1903.55</ele>
        <time>2022-07-14T09:28:31Z</time>
      </trkpt>
      <trkpt lat="42.8203209490" lon="-0.3153146245">
        <ele>1902.11</ele>
        <time>2022-07-14T09:28:46Z</time>
      </trkpt>
      <trkpt lat="42.8203631099" lon="-0.3155234177">
        <ele>1900.66</ele>
        <time>2022-07-14T09:28:59Z</time>
      </trkpt>
      <trkpt lat="42.8203617688" lon="-0.3155450430">
        <ele>1900.66</ele>
        <time>2022-07-14T09:29:01Z</time>
      </trkpt>
      <trkpt lat="42.8203978948" lon="-0.3157405090">
        <ele>1899.22</ele>
        <time>2022-07-14T09:29:14Z</time>
      </trkpt>
      <trkpt lat="42.8204063606" lon="-0.3157633077">
        <ele>1899.22</ele>
        <time>2022-07-14T09:29:16Z</time>
      </trkpt>
      <trkpt lat="42.8203917760" lon="-0.3160270862">
        <ele>1897.78</ele>
        <time>2022-07-14T09:29:31Z</time>
      </trkpt>
      <trkpt lat="42.8203808796" lon="-0.3160598595">
        <ele>1896.82</ele>
        <time>2022-07-14T09:29:33Z</time>
      </trkpt>
      <trkpt lat="42.8203560691" lon="-0.3163032699">
        <ele>1893.93</ele>
        <time>2022-07-14T09:29:46Z</time>
      </trkpt>
      <trkpt lat="42.8203755990" lon="-0.3165654559">
        <ele>1895.38</ele>
        <time>2022-07-14T09:29:59Z</time>
      </trkpt>
      <trkpt lat="42.8204139043" lon="-0.3167030867">
        <ele>1893.93</ele>
        <time>2022-07-14T09:30:11Z</time>
      </trkpt>
      <trkpt lat="42.8203745931" lon="-0.3169263806">
        <ele>1890.57</ele>
        <time>2022-07-14T09:30:27Z</time>
      </trkpt>
      <trkpt lat="42.8203297500" lon="-0.3171344195">
        <ele>1887.69</ele>
        <time>2022-07-14T09:30:42Z</time>
      </trkpt>
      <trkpt lat="42.8202916123" lon="-0.3172560409">
        <ele>1884.80</ele>
        <time>2022-07-14T09:30:54Z</time>
      </trkpt>
      <trkpt lat="42.8202365432" lon="-0.3173673525">
        <ele>1881.44</ele>
        <time>2022-07-14T09:31:07Z</time>
      </trkpt>
      <trkpt lat="42.8202279098" lon="-0.3174963500">
        <ele>1878.55</ele>
        <time>2022-07-14T09:31:20Z</time>
      </trkpt>
      <trkpt lat="42.8202030156" lon="-0.3176030517">
        <ele>1875.19</ele>
        <time>2022-07-14T09:31:32Z</time>
      </trkpt>
      <trkpt lat="42.8202276584" lon="-0.3177110944">
        <ele>1871.82</ele>
        <time>2022-07-14T09:31:46Z</time>
      </trkpt>
      <trkpt lat="42.8202105593" lon="-0.3177946620">
        <ele>1869.42</ele>
        <time>2022-07-14T09:31:57Z</time>
      </trkpt>
      <trkpt lat="42.8201987408" lon="-0.3179021180">
        <ele>1866.54</ele>
        <time>2022-07-14T09:32:08Z</time>
      </trkpt>
      <trkpt lat="42.8201819770" lon="-0.3180430178">
        <ele>1863.17</ele>
        <time>2022-07-14T09:32:20Z</time>
      </trkpt>
      <trkpt lat="42.8202143312" lon="-0.3181427624">
        <ele>1860.77</ele>
        <time>2022-07-14T09:32:33Z</time>
      </trkpt>
      <trkpt lat="42.8202315141" lon="-0.3182415012">
        <ele>1858.85</ele>
        <time>2022-07-14T09:32:45Z</time>
      </trkpt>
      <trkpt lat="42.8202454280" lon="-0.3183034435">
        <ele>1857.89</ele>
        <time>2022-07-14T09:32:50Z</time>
      </trkpt>
      <trkpt lat="42.8202300053" lon="-0.3185099736">
        <ele>1854.04</ele>
        <time>2022-07-14T09:33:03Z</time>
      </trkpt>
      <trkpt lat="42.8201851621" lon="-0.3187340219">
        <ele>1852.12</ele>
        <time>2022-07-14T09:33:16Z</time>
      </trkpt>
      <trkpt lat="42.8201854136" lon="-0.3188288212">
        <ele>1850.68</ele>
        <time>2022-07-14T09:33:24Z</time>
      </trkpt>
      <trkpt lat="42.8202160913" lon="-0.3189725708">
        <ele>1847.79</ele>
        <time>2022-07-14T09:33:35Z</time>
      </trkpt>
      <trkpt lat="42.8202136606" lon="-0.3191376105">
        <ele>1845.39</ele>
        <time>2022-07-14T09:33:48Z</time>
      </trkpt>
      <trkpt lat="42.8202149179" lon="-0.3191656061">
        <ele>1844.43</ele>
        <time>2022-07-14T09:33:50Z</time>
      </trkpt>
      <trkpt lat="42.8202168457" lon="-0.3191971220">
        <ele>1844.43</ele>
        <time>2022-07-14T09:33:52Z</time>
      </trkpt>
      <trkpt lat="42.8202722501" lon="-0.3192850482">
        <ele>1843.47</ele>
        <time>2022-07-14T09:33:59Z</time>
      </trkpt>
      <trkpt lat="42.8202914447" lon="-0.3193216771">
        <ele>1842.02</ele>
        <time>2022-07-14T09:34:02Z</time>
      </trkpt>
      <trkpt lat="42.8203084599" lon="-0.3193344176">
        <ele>1842.02</ele>
        <time>2022-07-14T09:34:04Z</time>
      </trkpt>
      <trkpt lat="42.8204549756" lon="-0.3193774167">
        <ele>1840.58</ele>
        <time>2022-07-14T09:34:18Z</time>
      </trkpt>
      <trkpt lat="42.8205598332" lon="-0.3193964437">
        <ele>1839.14</ele>
        <time>2022-07-14T09:34:30Z</time>
      </trkpt>
      <trkpt lat="42.8206831310" lon="-0.3194199130">
        <ele>1838.18</ele>
        <time>2022-07-14T09:34:43Z</time>
      </trkpt>
      <trkpt lat="42.8207379486" lon="-0.3195349127">
        <ele>1837.22</ele>
        <time>2022-07-14T09:34:52Z</time>
      </trkpt>
      <trkpt lat="42.8208003100" lon="-0.3197456338">
        <ele>1835.29</ele>
        <time>2022-07-14T09:35:06Z</time>
      </trkpt>
      <trkpt lat="42.8209026530" lon="-0.3199183848">
        <ele>1833.85</ele>
        <time>2022-07-14T09:35:20Z</time>
      </trkpt>
      <trkpt lat="42.8210372664" lon="-0.3200111724">
        <ele>1832.41</ele>
        <time>2022-07-14T09:35:34Z</time>
      </trkpt>
      <trkpt lat="42.8211553674" lon="-0.3201343026">
        <ele>1830.97</ele>
        <time>2022-07-14T09:35:46Z</time>
      </trkpt>
      <trkpt lat="42.8212949261" lon="-0.3202477098">
        <ele>1829.05</ele>
        <time>2022-07-14T09:36:00Z</time>
      </trkpt>
      <trkpt lat="42.8213686869" lon="-0.3203531541">
        <ele>1828.08</ele>
        <time>2022-07-14T09:36:09Z</time>
      </trkpt>
      <trkpt lat="42.8213699441" lon="-0.3204031941">
        <ele>1828.08</ele>
        <time>2022-07-14T09:36:12Z</time>
      </trkpt>
      <trkpt lat="42.8213901445" lon="-0.3205073811">
        <ele>1827.60</ele>
        <time>2022-07-14T09:36:18Z</time>
      </trkpt>
      <trkpt lat="42.8214515001" lon="-0.3206580039">
        <ele>1825.68</ele>
        <time>2022-07-14T09:36:26Z</time>
      </trkpt>
      <trkpt lat="42.8214945830" lon="-0.3208397236">
        <ele>1824.72</ele>
        <time>2022-07-14T09:36:40Z</time>
      </trkpt>
      <trkpt lat="42.8214943316" lon="-0.3209116403">
        <ele>1824.24</ele>
        <time>2022-07-14T09:36:44Z</time>
      </trkpt>
      <trkpt lat="42.8215101734" lon="-0.3210826311">
        <ele>1821.84</ele>
        <time>2022-07-14T09:36:57Z</time>
      </trkpt>
      <trkpt lat="42.8215023782" lon="-0.3211241215">
        <ele>1821.35</ele>
        <time>2022-07-14T09:37:00Z</time>
      </trkpt>
      <trkpt lat="42.8214851115" lon="-0.3213072661">
        <ele>1818.95</ele>
        <time>2022-07-14T09:37:13Z</time>
      </trkpt>
      <trkpt lat="42.8214742988" lon="-0.3213853016">
        <ele>1818.47</ele>
        <time>2022-07-14T09:37:18Z</time>
      </trkpt>
      <trkpt lat="42.8214050643" lon="-0.3215286322">
        <ele>1816.07</ele>
        <time>2022-07-14T09:37:32Z</time>
      </trkpt>
      <trkpt lat="42.8213364165" lon="-0.3216747288">
        <ele>1813.66</ele>
        <time>2022-07-14T09:37:46Z</time>
      </trkpt>
      <trkpt lat="42.8212758154" lon="-0.3218040615">
        <ele>1810.78</ele>
        <time>2022-07-14T09:37:58Z</time>
      </trkpt>
      <trkpt lat="42.8212662600" lon="-0.3219639044">
        <ele>1807.42</ele>
        <time>2022-07-14T09:38:11Z</time>
      </trkpt>
      <trkpt lat="42.8211927507" lon="-0.3221194725">
        <ele>1805.01</ele>
        <time>2022-07-14T09:38:25Z</time>
      </trkpt>
      <trkpt lat="42.8211567085" lon="-0.3222299460">
        <ele>1803.09</ele>
        <time>2022-07-14T09:38:36Z</time>
      </trkpt>
      <trkpt lat="42.8210985381" lon="-0.3223884478">
        <ele>1799.73</ele>
        <time>2022-07-14T09:38:50Z</time>
      </trkpt>
      <trkpt lat="42.8210572992" lon="-0.3225588519">
        <ele>1798.28</ele>
        <time>2022-07-14T09:39:04Z</time>
      </trkpt>
      <trkpt lat="42.8210393619" lon="-0.3225756995">
        <ele>1798.28</ele>
        <time>2022-07-14T09:39:31Z</time>
      </trkpt>
      <trkpt lat="42.8210295551" lon="-0.3225668985">
        <ele>1798.76</ele>
        <time>2022-07-14T09:39:50Z</time>
      </trkpt>
      <trkpt lat="42.8210213408" lon="-0.3225855902">
        <ele>1796.84</ele>
        <time>2022-07-14T09:39:52Z</time>
      </trkpt>
      <trkpt lat="42.8210128751" lon="-0.3226121608">
        <ele>1798.76</ele>
        <time>2022-07-14T09:39:54Z</time>
      </trkpt>
      <trkpt lat="42.8210042417" lon="-0.3227445111">
        <ele>1796.84</ele>
        <time>2022-07-14T09:40:02Z</time>
      </trkpt>
      <trkpt lat="42.8209996317" lon="-0.3227813914">
        <ele>1796.84</ele>
        <time>2022-07-14T09:40:04Z</time>
      </trkpt>
      <trkpt lat="42.8209998831" lon="-0.3229867481">
        <ele>1795.40</ele>
        <time>2022-07-14T09:40:17Z</time>
      </trkpt>
      <trkpt lat="42.8210551199" lon="-0.3230891749">
        <ele>1794.92</ele>
        <time>2022-07-14T09:40:24Z</time>
      </trkpt>
      <trkpt lat="42.8211002983" lon="-0.3232216928">
        <ele>1793.96</ele>
        <time>2022-07-14T09:40:34Z</time>
      </trkpt>
      <trkpt lat="42.8211276233" lon="-0.3233536240">
        <ele>1792.52</ele>
        <time>2022-07-14T09:40:42Z</time>
      </trkpt>
      <trkpt lat="42.8211300541" lon="-0.3234496806">
        <ele>1791.55</ele>
        <time>2022-07-14T09:40:48Z</time>
      </trkpt>
      <trkpt lat="42.8211682756" lon="-0.3235882334">
        <ele>1790.59</ele>
        <time>2022-07-14T09:40:55Z</time>
      </trkpt>
      <trkpt lat="42.8212137893" lon="-0.3237025626">
        <ele>1789.63</ele>
        <time>2022-07-14T09:41:02Z</time>
      </trkpt>
      <trkpt lat="42.8212813474" lon="-0.3238998726">
        <ele>1787.23</ele>
        <time>2022-07-14T09:41:16Z</time>
      </trkpt>
      <trkpt lat="42.8213245142" lon="-0.3239956778">
        <ele>1783.86</ele>
        <time>2022-07-14T09:41:28Z</time>
      </trkpt>
      <trkpt lat="42.8213491570" lon="-0.3240404371">
        <ele>1782.90</ele>
        <time>2022-07-14T09:41:33Z</time>
      </trkpt>
      <trkpt lat="42.8213624004" lon="-0.3240762278">
        <ele>1781.94</ele>
        <time>2022-07-14T09:41:36Z</time>
      </trkpt>
      <trkpt lat="42.8213844448" lon="-0.3242207319">
        <ele>1780.02</ele>
        <time>2022-07-14T09:41:49Z</time>
      </trkpt>
      <trkpt lat="42.8213881329" lon="-0.3242894635">
        <ele>1778.58</ele>
        <time>2022-07-14T09:41:54Z</time>
      </trkpt>
      <trkpt lat="42.8214594629" lon="-0.3243796527">
        <ele>1775.69</ele>
        <time>2022-07-14T09:42:06Z</time>
      </trkpt>
      <trkpt lat="42.8215681762" lon="-0.3244084027">
        <ele>1772.33</ele>
        <time>2022-07-14T09:42:20Z</time>
      </trkpt>
      <trkpt lat="42.8216939047" lon="-0.3244126774">
        <ele>1769.92</ele>
        <time>2022-07-14T09:42:32Z</time>
      </trkpt>
      <trkpt lat="42.8217408434" lon="-0.3244064748">
        <ele>1768.48</ele>
        <time>2022-07-14T09:42:38Z</time>
      </trkpt>
      <trkpt lat="42.8218137659" lon="-0.3244596999">
        <ele>1765.60</ele>
        <time>2022-07-14T09:42:52Z</time>
      </trkpt>
      <trkpt lat="42.8218102455" lon="-0.3245005198">
        <ele>1764.64</ele>
        <time>2022-07-14T09:42:55Z</time>
      </trkpt>
      <trkpt lat="42.8218254168" lon="-0.3245355561">
        <ele>1764.16</ele>
        <time>2022-07-14T09:42:58Z</time>
      </trkpt>
      <trkpt lat="42.8219037876" lon="-0.3246411681">
        <ele>1761.27</ele>
        <time>2022-07-14T09:43:09Z</time>
      </trkpt>
      <trkpt lat="42.8219632991" lon="-0.3247826546">
        <ele>1757.91</ele>
        <time>2022-07-14T09:43:21Z</time>
      </trkpt>
      <trkpt lat="42.8220504709" lon="-0.3248762805">
        <ele>1754.54</ele>
        <time>2022-07-14T09:43:34Z</time>
      </trkpt>
      <trkpt lat="42.8221932147" lon="-0.3250000812">
        <ele>1751.66</ele>
        <time>2022-07-14T09:43:49Z</time>
      </trkpt>
      <trkpt lat="42.8222083021" lon="-0.3250312619">
        <ele>1750.22</ele>
        <time>2022-07-14T09:43:52Z</time>
      </trkpt>
      <trkpt lat="42.8222046141" lon="-0.3250633646">
        <ele>1749.74</ele>
        <time>2022-07-14T09:43:54Z</time>
      </trkpt>
      <trkpt lat="42.8223073762" lon="-0.3252012469">
        <ele>1746.37</ele>
        <time>2022-07-14T09:44:07Z</time>
      </trkpt>
      <trkpt lat="42.8224086296" lon="-0.3252733313">
        <ele>1742.53</ele>
        <time>2022-07-14T09:44:19Z</time>
      </trkpt>
      <trkpt lat="42.8224838991" lon="-0.3253519535">
        <ele>1740.60</ele>
        <time>2022-07-14T09:44:31Z</time>
      </trkpt>
      <trkpt lat="42.8224877547" lon="-0.3253633529">
        <ele>1740.12</ele>
        <time>2022-07-14T09:44:32Z</time>
      </trkpt>
      <trkpt lat="42.8224849049" lon="-0.3254193440">
        <ele>1739.16</ele>
        <time>2022-07-14T09:44:35Z</time>
      </trkpt>
      <trkpt lat="42.8224788699" lon="-0.3255940229">
        <ele>1735.80</ele>
        <time>2022-07-14T09:44:48Z</time>
      </trkpt>
      <trkpt lat="42.8225091286" lon="-0.3256964497">
        <ele>1733.88</ele>
        <time>2022-07-14T09:44:59Z</time>
      </trkpt>
      <trkpt lat="42.8225429077" lon="-0.3257869743">
        <ele>1732.43</ele>
        <time>2022-07-14T09:45:09Z</time>
      </trkpt>
      <trkpt lat="42.8226244636" lon="-0.3258982860">
        <ele>1728.59</ele>
        <time>2022-07-14T09:45:22Z</time>
      </trkpt>
      <trkpt lat="42.8227157425" lon="-0.3260067478">
        <ele>1725.70</ele>
        <time>2022-07-14T09:45:33Z</time>
      </trkpt>
      <trkpt lat="42.8227836359" lon="-0.3262010403">
        <ele>1723.78</ele>
        <time>2022-07-14T09:45:46Z</time>
      </trkpt>
      <trkpt lat="42.8228029981" lon="-0.3262700234">
        <ele>1722.82</ele>
        <time>2022-07-14T09:45:51Z</time>
      </trkpt>
      <trkpt lat="42.8228102066" lon="-0.3264153656">
        <ele>1721.86</ele>
        <time>2022-07-14T09:45:58Z</time>
      </trkpt>
      <trkpt lat="42.8228075244" lon="-0.3265616298">
        <ele>1719.94</ele>
        <time>2022-07-14T09:46:10Z</time>
      </trkpt>
      <trkpt lat="42.8227978013" lon="-0.3266795631">
        <ele>1720.90</ele>
        <time>2022-07-14T09:46:21Z</time>
      </trkpt>
      <trkpt lat="42.8227684647" lon="-0.3267833311">
        <ele>1720.42</ele>
        <time>2022-07-14T09:46:32Z</time>
      </trkpt>
      <trkpt lat="42.8227166645" lon="-0.3268938046">
        <ele>1718.97</ele>
        <time>2022-07-14T09:46:40Z</time>
      </trkpt>
      <trkpt lat="42.8226201050" lon="-0.3270408232">
        <ele>1718.01</ele>
        <time>2022-07-14T09:46:51Z</time>
      </trkpt>
      <trkpt lat="42.8226540517" lon="-0.3273273166">
        <ele>1716.09</ele>
        <time>2022-07-14T09:47:07Z</time>
      </trkpt>
      <trkpt lat="42.8226593323" lon="-0.3273988143">
        <ele>1715.61</ele>
        <time>2022-07-14T09:47:12Z</time>
      </trkpt>
      <trkpt lat="42.8226420656" lon="-0.3274904285">
        <ele>1714.17</ele>
        <time>2022-07-14T09:47:18Z</time>
      </trkpt>
      <trkpt lat="42.8225988150" lon="-0.3276570607">
        <ele>1713.69</ele>
        <time>2022-07-14T09:47:28Z</time>
      </trkpt>
      <trkpt lat="42.8225413989" lon="-0.3278447315">
        <ele>1712.25</ele>
        <time>2022-07-14T09:47:43Z</time>
      </trkpt>
      <trkpt lat="42.8225358669" lon="-0.3278526105">
        <ele>1712.25</ele>
        <time>2022-07-14T09:47:44Z</time>
      </trkpt>
      <trkpt lat="42.8224633634" lon="-0.3279826138">
        <ele>1710.32</ele>
        <time>2022-07-14T09:47:58Z</time>
      </trkpt>
      <trkpt lat="42.8223642055" lon="-0.3281731345">
        <ele>1707.44</ele>
        <time>2022-07-14T09:48:14Z</time>
      </trkpt>
      <trkpt lat="42.8222864214" lon="-0.3283660021">
        <ele>1706.00</ele>
        <time>2022-07-14T09:48:27Z</time>
      </trkpt>
      <trkpt lat="42.8222595155" lon="-0.3284214903">
        <ele>1705.04</ele>
        <time>2022-07-14T09:48:32Z</time>
      </trkpt>
      <trkpt lat="42.8222592641" lon="-0.3286238294">
        <ele>1704.07</ele>
        <time>2022-07-14T09:48:46Z</time>
      </trkpt>
      <trkpt lat="42.8222522233" lon="-0.3286606260">
        <ele>1703.59</ele>
        <time>2022-07-14T09:48:48Z</time>
      </trkpt>
      <trkpt lat="42.8221759479" lon="-0.3288800642">
        <ele>1701.19</ele>
        <time>2022-07-14T09:49:03Z</time>
      </trkpt>
      <trkpt lat="42.8221609443" lon="-0.3290191200">
        <ele>1699.27</ele>
        <time>2022-07-14T09:49:14Z</time>
      </trkpt>
      <trkpt lat="42.8221634589" lon="-0.3292918671">
        <ele>1695.90</ele>
        <time>2022-07-14T09:49:29Z</time>
      </trkpt>
      <trkpt lat="42.8221487906" lon="-0.3293702379">
        <ele>1694.94</ele>
        <time>2022-07-14T09:49:34Z</time>
      </trkpt>
      <trkpt lat="42.8221553285" lon="-0.3294246364">
        <ele>1694.46</ele>
        <time>2022-07-14T09:49:37Z</time>
      </trkpt>
      <trkpt lat="42.8221996687" lon="-0.3297038376">
        <ele>1691.58</ele>
        <time>2022-07-14T09:49:52Z</time>
      </trkpt>
      <trkpt lat="42.8221593518" lon="-0.3299114574">
        <ele>1688.21</ele>
        <time>2022-07-14T09:50:05Z</time>
      </trkpt>
      <trkpt lat="42.8221353795" lon="-0.3299726453">
        <ele>1687.25</ele>
        <time>2022-07-14T09:50:10Z</time>
      </trkpt>
      <trkpt lat="42.8221065458" lon="-0.3300048318">
        <ele>1686.29</ele>
        <time>2022-07-14T09:50:13Z</time>
      </trkpt>
      <trkpt lat="42.8220316954" lon="-0.3301689494">
        <ele>1682.93</ele>
        <time>2022-07-14T09:50:23Z</time>
      </trkpt>
      <trkpt lat="42.8220107406" lon="-0.3302102722">
        <ele>1684.37</ele>
        <time>2022-07-14T09:50:25Z</time>
      </trkpt>
      <trkpt lat="42.8218946513" lon="-0.3303922433">
        <ele>1681.96</ele>
        <time>2022-07-14T09:50:37Z</time>
      </trkpt>
      <trkpt lat="42.8218415100" lon="-0.3304717876">
        <ele>1681.96</ele>
        <time>2022-07-14T09:50:44Z</time>
      </trkpt>
      <trkpt lat="42.8217870276" lon="-0.3305667546">
        <ele>1681.00</ele>
        <time>2022-07-14T09:50:50Z</time>
      </trkpt>
      <trkpt lat="42.8216764703" lon="-0.3308562655">
        <ele>1678.60</ele>
        <time>2022-07-14T09:51:07Z</time>
      </trkpt>
      <trkpt lat="42.8216058947" lon="-0.3309955727">
        <ele>1676.68</ele>
        <time>2022-07-14T09:51:20Z</time>
      </trkpt>
      <trkpt lat="42.8214921523" lon="-0.3311488777">
        <ele>1675.23</ele>
        <time>2022-07-14T09:51:35Z</time>
      </trkpt>
      <trkpt lat="42.8213530965" lon="-0.3314769454">
        <ele>1674.27</ele>
        <time>2022-07-14T09:51:50Z</time>
      </trkpt>
      <trkpt lat="42.8212691098" lon="-0.3317284025">
        <ele>1673.31</ele>
        <time>2022-07-14T09:52:04Z</time>
      </trkpt>
      <trkpt lat="42.8212340735" lon="-0.3317820467">
        <ele>1673.31</ele>
        <time>2022-07-14T09:52:07Z</time>
      </trkpt>
      <trkpt lat="42.8211822733" lon="-0.3320166562">
        <ele>1672.35</ele>
        <time>2022-07-14T09:52:21Z</time>
      </trkpt>
      <trkpt lat="42.8211816028" lon="-0.3321186639">
        <ele>1671.39</ele>
        <time>2022-07-14T09:52:26Z</time>
      </trkpt>
      <trkpt lat="42.8210855462" lon="-0.3322738130">
        <ele>1671.39</ele>
        <time>2022-07-14T09:52:40Z</time>
      </trkpt>
      <trkpt lat="42.8210585564" lon="-0.3323606495">
        <ele>1671.39</ele>
        <time>2022-07-14T09:52:44Z</time>
      </trkpt>
      <trkpt lat="42.8210316505" lon="-0.3324840311">
        <ele>1670.91</ele>
        <time>2022-07-14T09:52:52Z</time>
      </trkpt>
      <trkpt lat="42.8209024854" lon="-0.3326693550">
        <ele>1670.43</ele>
        <time>2022-07-14T09:53:08Z</time>
      </trkpt>
      <trkpt lat="42.8207719792" lon="-0.3327586222">
        <ele>1669.47</ele>
        <time>2022-07-14T09:53:23Z</time>
      </trkpt>
      <trkpt lat="42.8206560574" lon="-0.3327913955">
        <ele>1668.51</ele>
        <time>2022-07-14T09:53:38Z</time>
      </trkpt>
      <trkpt lat="42.8205502778" lon="-0.3329642303">
        <ele>1667.54</ele>
        <time>2022-07-14T09:53:53Z</time>
      </trkpt>
      <trkpt lat="42.8204688057" lon="-0.3331926372">
        <ele>1666.10</ele>
        <time>2022-07-14T09:54:09Z</time>
      </trkpt>
      <trkpt lat="42.8203825559" lon="-0.3332765400">
        <ele>1664.66</ele>
        <time>2022-07-14T09:54:19Z</time>
      </trkpt>
      <trkpt lat="42.8202513792" lon="-0.3334893566">
        <ele>1664.66</ele>
        <time>2022-07-14T09:54:31Z</time>
      </trkpt>
      <trkpt lat="42.8201498743" lon="-0.3336471040">
        <ele>1664.18</ele>
        <time>2022-07-14T09:54:41Z</time>
      </trkpt>
      <trkpt lat="42.8201414924" lon="-0.3336564079">
        <ele>1664.18</ele>
        <time>2022-07-14T09:54:42Z</time>
      </trkpt>
      <trkpt lat="42.8201036062" lon="-0.3337390535">
        <ele>1664.18</ele>
        <time>2022-07-14T09:54:47Z</time>
      </trkpt>
      <trkpt lat="42.8200159315" lon="-0.3338361159">
        <ele>1663.70</ele>
        <time>2022-07-14T09:54:58Z</time>
      </trkpt>
      <trkpt lat="42.8200022690" lon="-0.3338501975">
        <ele>1665.14</ele>
        <time>2022-07-14T09:55:00Z</time>
      </trkpt>
      <trkpt lat="42.8199455235" lon="-0.3339732438">
        <ele>1665.62</ele>
        <time>2022-07-14T09:55:16Z</time>
      </trkpt>
      <trkpt lat="42.8198943101" lon="-0.3340928536">
        <ele>1665.62</ele>
        <time>2022-07-14T09:55:26Z</time>
      </trkpt>
      <trkpt lat="42.8198466171" lon="-0.3341352660">
        <ele>1665.14</ele>
        <time>2022-07-14T09:55:32Z</time>
      </trkpt>
      <trkpt lat="42.8197836690" lon="-0.3343048319">
        <ele>1665.62</ele>
        <time>2022-07-14T09:55:44Z</time>
      </trkpt>
      <trkpt lat="42.8196765482" lon="-0.3345003817">
        <ele>1665.62</ele>
        <time>2022-07-14T09:55:56Z</time>
      </trkpt>
      <trkpt lat="42.8196638077" lon="-0.3345373459">
        <ele>1665.62</ele>
        <time>2022-07-14T09:55:58Z</time>
      </trkpt>
      <trkpt lat="42.8195827547" lon="-0.3346726298">
        <ele>1666.58</ele>
        <time>2022-07-14T09:56:10Z</time>
      </trkpt>
      <trkpt lat="42.8195447009" lon="-0.3347815108">
        <ele>1666.58</ele>
        <time>2022-07-14T09:56:20Z</time>
      </trkpt>
      <trkpt lat="42.8194854409" lon="-0.3349289484">
        <ele>1667.54</ele>
        <time>2022-07-14T09:56:29Z</time>
      </trkpt>
      <trkpt lat="42.8194457944" lon="-0.3351185471">
        <ele>1667.06</ele>
        <time>2022-07-14T09:56:41Z</time>
      </trkpt>
      <trkpt lat="42.8193686809" lon="-0.3353086486">
        <ele>1666.58</ele>
        <time>2022-07-14T09:56:53Z</time>
      </trkpt>
      <trkpt lat="42.8193281125" lon="-0.3354371432">
        <ele>1666.58</ele>
        <time>2022-07-14T09:57:01Z</time>
      </trkpt>
      <trkpt lat="42.8193140309" lon="-0.3354974929">
        <ele>1666.58</ele>
        <time>2022-07-14T09:57:04Z</time>
      </trkpt>
      <trkpt lat="42.8192938305" lon="-0.3355461918">
        <ele>1666.10</ele>
        <time>2022-07-14T09:57:07Z</time>
      </trkpt>
      <trkpt lat="42.8192050662" lon="-0.3356666397">
        <ele>1666.10</ele>
        <time>2022-07-14T09:57:15Z</time>
      </trkpt>
      <trkpt lat="42.8191680182" lon="-0.3357204515">
        <ele>1664.66</ele>
        <time>2022-07-14T09:57:19Z</time>
      </trkpt>
      <trkpt lat="42.8190387692" lon="-0.3358559869">
        <ele>1663.22</ele>
        <time>2022-07-14T09:57:28Z</time>
      </trkpt>
      <trkpt lat="42.8188780881" lon="-0.3360029217">
        <ele>1662.26</ele>
        <time>2022-07-14T09:57:41Z</time>
      </trkpt>
      <trkpt lat="42.8187847976" lon="-0.3360490222">
        <ele>1659.37</ele>
        <time>2022-07-14T09:57:49Z</time>
      </trkpt>
      <trkpt lat="42.8187798522" lon="-0.3360569011">
        <ele>1664.66</ele>
        <time>2022-07-14T09:57:50Z</time>
      </trkpt>
      <trkpt lat="42.8187705483" lon="-0.3360730782">
        <ele>1660.81</ele>
        <time>2022-07-14T09:57:51Z</time>
      </trkpt>
      <trkpt lat="42.8185970429" lon="-0.3361873236">
        <ele>1658.41</ele>
        <time>2022-07-14T09:58:07Z</time>
      </trkpt>
      <trkpt lat="42.8184338473" lon="-0.3362105414">
        <ele>1655.53</ele>
        <time>2022-07-14T09:58:20Z</time>
      </trkpt>
      <trkpt lat="42.8183325939" lon="-0.3362687957">
        <ele>1653.12</ele>
        <time>2022-07-14T09:58:29Z</time>
      </trkpt>
      <trkpt lat="42.8182346094" lon="-0.3363298997">
        <ele>1650.72</ele>
        <time>2022-07-14T09:58:42Z</time>
      </trkpt>
      <trkpt lat="42.8180436697" lon="-0.3364499286">
        <ele>1648.80</ele>
        <time>2022-07-14T09:58:58Z</time>
      </trkpt>
      <trkpt lat="42.8177083936" lon="-0.3366485797">
        <ele>1646.40</ele>
        <time>2022-07-14T09:59:13Z</time>
      </trkpt>
      <trkpt lat="42.8175963275" lon="-0.3367184009">
        <ele>1643.03</ele>
        <time>2022-07-14T09:59:29Z</time>
      </trkpt>
      <trkpt lat="42.8175190464" lon="-0.3367898986">
        <ele>1641.59</ele>
        <time>2022-07-14T09:59:48Z</time>
      </trkpt>
      <trkpt lat="42.8174545057" lon="-0.3368955106">
        <ele>1638.70</ele>
        <time>2022-07-14T10:00:03Z</time>
      </trkpt>
      <trkpt lat="42.8173798230" lon="-0.3370713629">
        <ele>1636.30</ele>
        <time>2022-07-14T10:00:14Z</time>
      </trkpt>
      <trkpt lat="42.8173649032" lon="-0.3371103387">
        <ele>1634.86</ele>
        <time>2022-07-14T10:00:17Z</time>
      </trkpt>
      <trkpt lat="42.8173131868" lon="-0.3371974267">
        <ele>1633.42</ele>
        <time>2022-07-14T10:00:24Z</time>
      </trkpt>
      <trkpt lat="42.8172784019" lon="-0.3372370731">
        <ele>1631.98</ele>
        <time>2022-07-14T10:00:29Z</time>
      </trkpt>
      <trkpt lat="42.8172585368" lon="-0.3372933157">
        <ele>1631.01</ele>
        <time>2022-07-14T10:00:36Z</time>
      </trkpt>
      <trkpt lat="42.8171672579" lon="-0.3373693395">
        <ele>1629.09</ele>
        <time>2022-07-14T10:00:46Z</time>
      </trkpt>
      <trkpt lat="42.8169954289" lon="-0.3374581877">
        <ele>1628.13</ele>
        <time>2022-07-14T10:01:00Z</time>
      </trkpt>
      <trkpt lat="42.8168606479" lon="-0.3374755383">
        <ele>1625.73</ele>
        <time>2022-07-14T10:01:14Z</time>
      </trkpt>
      <trkpt lat="42.8167450614" lon="-0.3375511430">
        <ele>1622.84</ele>
        <time>2022-07-14T10:01:27Z</time>
      </trkpt>
      <trkpt lat="42.8165576421" lon="-0.3378014266">
        <ele>1619.96</ele>
        <time>2022-07-14T10:01:42Z</time>
      </trkpt>
      <trkpt lat="42.8164323326" lon="-0.3376197070">
        <ele>1617.56</ele>
        <time>2022-07-14T10:01:59Z</time>
      </trkpt>
      <trkpt lat="42.8163679596" lon="-0.3375248238">
        <ele>1617.07</ele>
        <time>2022-07-14T10:02:05Z</time>
      </trkpt>
      <trkpt lat="42.8162839729" lon="-0.3374632169">
        <ele>1616.59</ele>
        <time>2022-07-14T10:02:14Z</time>
      </trkpt>
      <trkpt lat="42.8160885070" lon="-0.3374032024">
        <ele>1616.59</ele>
        <time>2022-07-14T10:02:29Z</time>
      </trkpt>
      <trkpt lat="42.8158663865" lon="-0.3372674994">
        <ele>1618.52</ele>
        <time>2022-07-14T10:02:47Z</time>
      </trkpt>
      <trkpt lat="42.8157700785" lon="-0.3372360673">
        <ele>1615.63</ele>
        <time>2022-07-14T10:03:00Z</time>
      </trkpt>
      <trkpt lat="42.8157394845" lon="-0.3372083232">
        <ele>1614.67</ele>
        <time>2022-07-14T10:03:05Z</time>
      </trkpt>
      <trkpt lat="42.8156358842" lon="-0.3371451236">
        <ele>1610.35</ele>
        <time>2022-07-14T10:03:19Z</time>
      </trkpt>
      <trkpt lat="42.8154952358" lon="-0.3372243326">
        <ele>1606.98</ele>
        <time>2022-07-14T10:03:29Z</time>
      </trkpt>
      <trkpt lat="42.8154373169" lon="-0.3371794056">
        <ele>1604.58</ele>
        <time>2022-07-14T10:03:41Z</time>
      </trkpt>
      <trkpt lat="42.8153496422" lon="-0.3371579479">
        <ele>1601.69</ele>
        <time>2022-07-14T10:03:51Z</time>
      </trkpt>
      <trkpt lat="42.8153130971" lon="-0.3371535055">
        <ele>1601.21</ele>
        <time>2022-07-14T10:03:54Z</time>
      </trkpt>
      <trkpt lat="42.8151540924" lon="-0.3372549266">
        <ele>1598.33</ele>
        <time>2022-07-14T10:04:07Z</time>
      </trkpt>
      <trkpt lat="42.8150550183" lon="-0.3373695072">
        <ele>1594.96</ele>
        <time>2022-07-14T10:04:19Z</time>
      </trkpt>
      <trkpt lat="42.8149618115" lon="-0.3374610376">
        <ele>1592.56</ele>
        <time>2022-07-14T10:04:31Z</time>
      </trkpt>
      <trkpt lat="42.8147926647" lon="-0.3374795616">
        <ele>1589.68</ele>
        <time>2022-07-14T10:04:45Z</time>
      </trkpt>
      <trkpt lat="42.8147186525" lon="-0.3375122510">
        <ele>1589.20</ele>
        <time>2022-07-14T10:04:52Z</time>
      </trkpt>
      <trkpt lat="42.8145365976" lon="-0.3375127539">
        <ele>1588.72</ele>
        <time>2022-07-14T10:05:07Z</time>
      </trkpt>
      <trkpt lat="42.8142345138" lon="-0.3376354650">
        <ele>1586.31</ele>
        <time>2022-07-14T10:05:25Z</time>
      </trkpt>
      <trkpt lat="42.8140874114" lon="-0.3376030270">
        <ele>1583.91</ele>
        <time>2022-07-14T10:05:38Z</time>
      </trkpt>
      <trkpt lat="42.8139454219" lon="-0.3375813179">
        <ele>1581.51</ele>
        <time>2022-07-14T10:05:51Z</time>
      </trkpt>
      <trkpt lat="42.8138228785" lon="-0.3375925496">
        <ele>1579.10</ele>
        <time>2022-07-14T10:06:06Z</time>
      </trkpt>
      <trkpt lat="42.8136218805" lon="-0.3376519773">
        <ele>1578.62</ele>
        <time>2022-07-14T10:06:21Z</time>
      </trkpt>
      <trkpt lat="42.8135215491" lon="-0.3377903625">
        <ele>1579.58</ele>
        <time>2022-07-14T10:06:34Z</time>
      </trkpt>
      <trkpt lat="42.8133407515" lon="-0.3378945496">
        <ele>1581.51</ele>
        <time>2022-07-14T10:06:49Z</time>
      </trkpt>
      <trkpt lat="42.8131702635" lon="-0.3379517980">
        <ele>1582.47</ele>
        <time>2022-07-14T10:07:05Z</time>
      </trkpt>
      <trkpt lat="42.8131454531" lon="-0.3379644547">
        <ele>1582.47</ele>
        <time>2022-07-14T10:07:07Z</time>
      </trkpt>
      <trkpt lat="42.8131193854" lon="-0.3379569110">
        <ele>1582.47</ele>
        <time>2022-07-14T10:07:09Z</time>
      </trkpt>
      <trkpt lat="42.8130251728" lon="-0.3379471879">
        <ele>1582.95</ele>
        <time>2022-07-14T10:07:16Z</time>
      </trkpt>
      <trkpt lat="42.8129096702" lon="-0.3378469404">
        <ele>1582.95</ele>
        <time>2022-07-14T10:07:20Z</time>
      </trkpt>
      <trkpt lat="42.8127408586" lon="-0.3379087988">
        <ele>1582.47</ele>
        <time>2022-07-14T10:07:35Z</time>
      </trkpt>
      <trkpt lat="42.8127136175" lon="-0.3379309271">
        <ele>1582.47</ele>
        <time>2022-07-14T10:07:37Z</time>
      </trkpt>
      <trkpt lat="42.8126163874" lon="-0.3380122315">
        <ele>1582.47</ele>
        <time>2022-07-14T10:07:46Z</time>
      </trkpt>
      <trkpt lat="42.8125505894" lon="-0.3380481899">
        <ele>1581.99</ele>
        <time>2022-07-14T10:07:51Z</time>
      </trkpt>
      <trkpt lat="42.8123992123" lon="-0.3380957153">
        <ele>1581.03</ele>
        <time>2022-07-14T10:08:04Z</time>
      </trkpt>
      <trkpt lat="42.8123646788" lon="-0.3381084558">
        <ele>1580.54</ele>
        <time>2022-07-14T10:08:07Z</time>
      </trkpt>
      <trkpt lat="42.8122535348" lon="-0.3381064441">
        <ele>1576.70</ele>
        <time>2022-07-14T10:08:20Z</time>
      </trkpt>
      <trkpt lat="42.8122306522" lon="-0.3381107189">
        <ele>1576.22</ele>
        <time>2022-07-14T10:08:23Z</time>
      </trkpt>
      <trkpt lat="42.8120029997" lon="-0.3381061926">
        <ele>1572.85</ele>
        <time>2022-07-14T10:08:39Z</time>
      </trkpt>
      <trkpt lat="42.8118970525" lon="-0.3381089587">
        <ele>1570.93</ele>
        <time>2022-07-14T10:08:50Z</time>
      </trkpt>
      <trkpt lat="42.8117398918" lon="-0.3381215315">
        <ele>1568.05</ele>
        <time>2022-07-14T10:09:03Z</time>
      </trkpt>
      <trkpt lat="42.8117282409" lon="-0.3381252196">
        <ele>1568.05</ele>
        <time>2022-07-14T10:09:04Z</time>
      </trkpt>
      <trkpt lat="42.8116204496" lon="-0.3381372895">
        <ele>1566.12</ele>
        <time>2022-07-14T10:09:13Z</time>
      </trkpt>
      <trkpt lat="42.8114487045" lon="-0.3382514510">
        <ele>1565.64</ele>
        <time>2022-07-14T10:09:29Z</time>
      </trkpt>
      <trkpt lat="42.8114047833" lon="-0.3383258823">
        <ele>1565.64</ele>
        <time>2022-07-14T10:09:33Z</time>
      </trkpt>
      <trkpt lat="42.8112971596" lon="-0.3384325001">
        <ele>1565.16</ele>
        <time>2022-07-14T10:09:42Z</time>
      </trkpt>
      <trkpt lat="42.8112088144" lon="-0.3384272195">
        <ele>1564.68</ele>
        <time>2022-07-14T10:09:51Z</time>
      </trkpt>
      <trkpt lat="42.8110334650" lon="-0.3385744896">
        <ele>1564.68</ele>
        <time>2022-07-14T10:10:06Z</time>
      </trkpt>
      <trkpt lat="42.8108724486" lon="-0.3385968693">
        <ele>1564.20</ele>
        <time>2022-07-14T10:10:18Z</time>
      </trkpt>
      <trkpt lat="42.8106783237" lon="-0.3385299817">
        <ele>1561.80</ele>
        <time>2022-07-14T10:10:32Z</time>
      </trkpt>
      <trkpt lat="42.8105183132" lon="-0.3385677002">
        <ele>1560.84</ele>
        <time>2022-07-14T10:10:47Z</time>
      </trkpt>
      <trkpt lat="42.8103607334" lon="-0.3385689575">
        <ele>1560.36</ele>
        <time>2022-07-14T10:11:02Z</time>
      </trkpt>
      <trkpt lat="42.8101415467" lon="-0.3386038262">
        <ele>1559.88</ele>
        <time>2022-07-14T10:11:21Z</time>
      </trkpt>
      <trkpt lat="42.8099238686" lon="-0.3386314865">
        <ele>1558.92</ele>
        <time>2022-07-14T10:11:35Z</time>
      </trkpt>
      <trkpt lat="42.8096289933" lon="-0.3387248609">
        <ele>1558.43</ele>
        <time>2022-07-14T10:11:50Z</time>
      </trkpt>
      <trkpt lat="42.8094682284" lon="-0.3388950974">
        <ele>1557.95</ele>
        <time>2022-07-14T10:12:00Z</time>
      </trkpt>
      <trkpt lat="42.8094488662" lon="-0.3389678523">
        <ele>1557.95</ele>
        <time>2022-07-14T10:12:04Z</time>
      </trkpt>
      <trkpt lat="42.8094176855" lon="-0.3390676808">
        <ele>1557.95</ele>
        <time>2022-07-14T10:12:10Z</time>
      </trkpt>
      <trkpt lat="42.8093967307" lon="-0.3391110990">
        <ele>1557.95</ele>
        <time>2022-07-14T10:12:12Z</time>
      </trkpt>
      <trkpt lat="42.8093554918" lon="-0.3391347360">
        <ele>1559.40</ele>
        <time>2022-07-14T10:12:14Z</time>
      </trkpt>
      <trkpt lat="42.8092564177" lon="-0.3391948342">
        <ele>1559.40</ele>
        <time>2022-07-14T10:12:20Z</time>
      </trkpt>
      <trkpt lat="42.8090745304" lon="-0.3391592111">
        <ele>1560.84</ele>
        <time>2022-07-14T10:12:34Z</time>
      </trkpt>
      <trkpt lat="42.8090291005" lon="-0.3391496558">
        <ele>1560.84</ele>
        <time>2022-07-14T10:12:38Z</time>
      </trkpt>
      <trkpt lat="42.8089059703" lon="-0.3391045611">
        <ele>1559.88</ele>
        <time>2022-07-14T10:12:48Z</time>
      </trkpt>
      <trkpt lat="42.8088686708" lon="-0.3391121048">
        <ele>1558.43</ele>
        <time>2022-07-14T10:12:52Z</time>
      </trkpt>
      <trkpt lat="42.8088385798" lon="-0.3391355742">
        <ele>1557.47</ele>
        <time>2022-07-14T10:12:56Z</time>
      </trkpt>
      <trkpt lat="42.8087411821" lon="-0.3391983546">
        <ele>1555.07</ele>
        <time>2022-07-14T10:13:09Z</time>
      </trkpt>
      <trkpt lat="42.8085828479" lon="-0.3392091673">
        <ele>1553.63</ele>
        <time>2022-07-14T10:13:24Z</time>
      </trkpt>
      <trkpt lat="42.8083578777" lon="-0.3392396774">
        <ele>1551.22</ele>
        <time>2022-07-14T10:13:40Z</time>
      </trkpt>
      <trkpt lat="42.8082899842" lon="-0.3392498195">
        <ele>1549.30</ele>
        <time>2022-07-14T10:13:46Z</time>
      </trkpt>
      <trkpt lat="42.8082241863" lon="-0.3392373305">
        <ele>1548.34</ele>
        <time>2022-07-14T10:13:53Z</time>
      </trkpt>
      <trkpt lat="42.8081223462" lon="-0.3392602969">
        <ele>1546.90</ele>
        <time>2022-07-14T10:14:01Z</time>
      </trkpt>
      <trkpt lat="42.8080915846" lon="-0.3391826805">
        <ele>1544.98</ele>
        <time>2022-07-14T10:14:07Z</time>
      </trkpt>
      <trkpt lat="42.8080671933" lon="-0.3390880488">
        <ele>1542.57</ele>
        <time>2022-07-14T10:14:15Z</time>
      </trkpt>
      <trkpt lat="42.8080088552" lon="-0.3389429580">
        <ele>1539.69</ele>
        <time>2022-07-14T10:14:28Z</time>
      </trkpt>
      <trkpt lat="42.8079316579" lon="-0.3389691934">
        <ele>1536.80</ele>
        <time>2022-07-14T10:14:37Z</time>
      </trkpt>
      <trkpt lat="42.8079211805" lon="-0.3390976042">
        <ele>1532.96</ele>
        <time>2022-07-14T10:14:49Z</time>
      </trkpt>
      <trkpt lat="42.8079020698" lon="-0.3392232489">
        <ele>1529.11</ele>
        <time>2022-07-14T10:15:07Z</time>
      </trkpt>
      <trkpt lat="42.8077988047" lon="-0.3392856102">
        <ele>1526.23</ele>
        <time>2022-07-14T10:15:20Z</time>
      </trkpt>
      <trkpt lat="42.8076538816" lon="-0.3392688464">
        <ele>1524.31</ele>
        <time>2022-07-14T10:15:30Z</time>
      </trkpt>
      <trkpt lat="42.8075226210" lon="-0.3390587959">
        <ele>1521.42</ele>
        <time>2022-07-14T10:15:45Z</time>
      </trkpt>
      <trkpt lat="42.8074564878" lon="-0.3390195686">
        <ele>1518.06</ele>
        <time>2022-07-14T10:15:55Z</time>
      </trkpt>
      <trkpt lat="42.8074473515" lon="-0.3390197363">
        <ele>1518.06</ele>
        <time>2022-07-14T10:15:56Z</time>
      </trkpt>
      <trkpt lat="42.8074096330" lon="-0.3390178084">
        <ele>1517.10</ele>
        <time>2022-07-14T10:16:00Z</time>
      </trkpt>
      <trkpt lat="42.8072668891" lon="-0.3390006255">
        <ele>1514.21</ele>
        <time>2022-07-14T10:16:12Z</time>
      </trkpt>
      <trkpt lat="42.8070946410" lon="-0.3388614021">
        <ele>1511.33</ele>
        <time>2022-07-14T10:16:29Z</time>
      </trkpt>
      <trkpt lat="42.8070228919" lon="-0.3386709653">
        <ele>1509.41</ele>
        <time>2022-07-14T10:16:43Z</time>
      </trkpt>
      <trkpt lat="42.8069475386" lon="-0.3385761660">
        <ele>1507.97</ele>
        <time>2022-07-14T10:16:51Z</time>
      </trkpt>
      <trkpt lat="42.8067564312" lon="-0.3386277985">
        <ele>1507.00</ele>
        <time>2022-07-14T10:17:06Z</time>
      </trkpt>
      <trkpt lat="42.8066188842" lon="-0.3387034032">
        <ele>1508.93</ele>
        <time>2022-07-14T10:17:20Z</time>
      </trkpt>
      <trkpt lat="42.8064177185" lon="-0.3386093583">
        <ele>1509.41</ele>
        <time>2022-07-14T10:17:35Z</time>
      </trkpt>
      <trkpt lat="42.8061716259" lon="-0.3385073505">
        <ele>1507.97</ele>
        <time>2022-07-14T10:17:51Z</time>
      </trkpt>
      <trkpt lat="42.8060759883" lon="-0.3382796142">
        <ele>1506.52</ele>
        <time>2022-07-14T10:18:05Z</time>
      </trkpt>
      <trkpt lat="42.8060654271" lon="-0.3381915204">
        <ele>1506.04</ele>
        <time>2022-07-14T10:18:10Z</time>
      </trkpt>
      <trkpt lat="42.8060982004" lon="-0.3380613495">
        <ele>1504.60</ele>
        <time>2022-07-14T10:18:17Z</time>
      </trkpt>
      <trkpt lat="42.8059997968" lon="-0.3379621077">
        <ele>1501.24</ele>
        <time>2022-07-14T10:18:31Z</time>
      </trkpt>
      <trkpt lat="42.8059360944" lon="-0.3378901910">
        <ele>1499.79</ele>
        <time>2022-07-14T10:18:39Z</time>
      </trkpt>
      <trkpt lat="42.8058860544" lon="-0.3378582560">
        <ele>1498.35</ele>
        <time>2022-07-14T10:18:45Z</time>
      </trkpt>
      <trkpt lat="42.8058046661" lon="-0.3377372213">
        <ele>1494.99</ele>
        <time>2022-07-14T10:18:58Z</time>
      </trkpt>
      <trkpt lat="42.8057972901" lon="-0.3377062082">
        <ele>1494.03</ele>
        <time>2022-07-14T10:19:00Z</time>
      </trkpt>
      <trkpt lat="42.8057811968" lon="-0.3376224730">
        <ele>1493.06</ele>
        <time>2022-07-14T10:19:06Z</time>
      </trkpt>
      <trkpt lat="42.8056999762" lon="-0.3375303559">
        <ele>1492.10</ele>
        <time>2022-07-14T10:19:14Z</time>
      </trkpt>
      <trkpt lat="42.8056490142" lon="-0.3375187051">
        <ele>1490.66</ele>
        <time>2022-07-14T10:19:18Z</time>
      </trkpt>
      <trkpt lat="42.8054883331" lon="-0.3374471236">
        <ele>1489.22</ele>
        <time>2022-07-14T10:19:32Z</time>
      </trkpt>
      <trkpt lat="42.8054683842" lon="-0.3374381550">
        <ele>1488.74</ele>
        <time>2022-07-14T10:19:34Z</time>
      </trkpt>
      <trkpt lat="42.8054499440" lon="-0.3374148533">
        <ele>1488.74</ele>
        <time>2022-07-14T10:19:36Z</time>
      </trkpt>
      <trkpt lat="42.8053015843" lon="-0.3372689243">
        <ele>1485.37</ele>
        <time>2022-07-14T10:19:52Z</time>
      </trkpt>
      <trkpt lat="42.8052480239" lon="-0.3372086585">
        <ele>1482.49</ele>
        <time>2022-07-14T10:19:58Z</time>
      </trkpt>
      <trkpt lat="42.8052407317" lon="-0.3372020368">
        <ele>1485.85</ele>
        <time>2022-07-14T10:19:59Z</time>
      </trkpt>
      <trkpt lat="42.8052600101" lon="-0.3371886257">
        <ele>1485.85</ele>
        <time>2022-07-14T10:20:07Z</time>
      </trkpt>
      <trkpt lat="42.8052206989" lon="-0.3371553496">
        <ele>1482.97</ele>
        <time>2022-07-14T10:20:22Z</time>
      </trkpt>
      <trkpt lat="42.8051469382" lon="-0.3370720334">
        <ele>1483.93</ele>
        <time>2022-07-14T10:20:29Z</time>
      </trkpt>
      <trkpt lat="42.8051229659" lon="-0.3370544314">
        <ele>1483.93</ele>
        <time>2022-07-14T10:20:31Z</time>
      </trkpt>
      <trkpt lat="42.8050692379" lon="-0.3369933274">
        <ele>1483.45</ele>
        <time>2022-07-14T10:20:35Z</time>
      </trkpt>
      <trkpt lat="42.8048991691" lon="-0.3368302155">
        <ele>1482.97</ele>
        <time>2022-07-14T10:20:50Z</time>
      </trkpt>
      <trkpt lat="42.8047726862" lon="-0.3366105258">
        <ele>1482.49</ele>
        <time>2022-07-14T10:21:06Z</time>
      </trkpt>
      <trkpt lat="42.8046956565" lon="-0.3365730587">
        <ele>1482.49</ele>
        <time>2022-07-14T10:21:12Z</time>
      </trkpt>
      <trkpt lat="42.8046796471" lon="-0.3365500923">
        <ele>1482.49</ele>
        <time>2022-07-14T10:21:14Z</time>
      </trkpt>
      <trkpt lat="42.8046016116" lon="-0.3365118708">
        <ele>1482.01</ele>
        <time>2022-07-14T10:21:27Z</time>
      </trkpt>
      <trkpt lat="42.8045476321" lon="-0.3365055844">
        <ele>1481.05</ele>
        <time>2022-07-14T10:21:31Z</time>
      </trkpt>
      <trkpt lat="42.8044046368" lon="-0.3364951909">
        <ele>1477.68</ele>
        <time>2022-07-14T10:21:46Z</time>
      </trkpt>
      <trkpt lat="42.8043397609" lon="-0.3364948556">
        <ele>1474.80</ele>
        <time>2022-07-14T10:21:54Z</time>
      </trkpt>
      <trkpt lat="42.8042665869" lon="-0.3364754096">
        <ele>1473.36</ele>
        <time>2022-07-14T10:22:01Z</time>
      </trkpt>
      <trkpt lat="42.8040742222" lon="-0.3363930993">
        <ele>1471.44</ele>
        <time>2022-07-14T10:22:15Z</time>
      </trkpt>
      <trkpt lat="42.8038515989" lon="-0.3363684565">
        <ele>1470.47</ele>
        <time>2022-07-14T10:22:30Z</time>
      </trkpt>
      <trkpt lat="42.8036133852" lon="-0.3363465797">
        <ele>1470.47</ele>
        <time>2022-07-14T10:22:46Z</time>
      </trkpt>
      <trkpt lat="42.8035078570" lon="-0.3363506868">
        <ele>1470.47</ele>
        <time>2022-07-14T10:22:59Z</time>
      </trkpt>
      <trkpt lat="42.8032709006" lon="-0.3363503516">
        <ele>1471.44</ele>
        <time>2022-07-14T10:23:15Z</time>
      </trkpt>
      <trkpt lat="42.8030840680" lon="-0.3363165725">
        <ele>1472.88</ele>
        <time>2022-07-14T10:23:30Z</time>
      </trkpt>
      <trkpt lat="42.8029127419" lon="-0.3362211864">
        <ele>1473.84</ele>
        <time>2022-07-14T10:23:44Z</time>
      </trkpt>
      <trkpt lat="42.8028533980" lon="-0.3361615073">
        <ele>1472.88</ele>
        <time>2022-07-14T10:23:49Z</time>
      </trkpt>
      <trkpt lat="42.8028106503" lon="-0.3360594995">
        <ele>1471.44</ele>
        <time>2022-07-14T10:23:55Z</time>
      </trkpt>
      <trkpt lat="42.8027520608" lon="-0.3360010777">
        <ele>1469.99</ele>
        <time>2022-07-14T10:24:00Z</time>
      </trkpt>
      <trkpt lat="42.8026848380" lon="-0.3359383810">
        <ele>1468.55</ele>
        <time>2022-07-14T10:24:06Z</time>
      </trkpt>
      <trkpt lat="42.8026488796" lon="-0.3358965553">
        <ele>1468.55</ele>
        <time>2022-07-14T10:24:09Z</time>
      </trkpt>
      <trkpt lat="42.8024159465" lon="-0.3357340302">
        <ele>1466.63</ele>
        <time>2022-07-14T10:24:26Z</time>
      </trkpt>
      <trkpt lat="42.8022998571" lon="-0.3356777038">
        <ele>1466.63</ele>
        <time>2022-07-14T10:24:39Z</time>
      </trkpt>
      <trkpt lat="42.8022763878" lon="-0.3356683999">
        <ele>1468.07</ele>
        <time>2022-07-14T10:24:42Z</time>
      </trkpt>
      <trkpt lat="42.8022698499" lon="-0.3356694896">
        <ele>1468.55</ele>
        <time>2022-07-14T10:24:43Z</time>
      </trkpt>
      <trkpt lat="42.8022142779" lon="-0.3356363811">
        <ele>1469.51</ele>
        <time>2022-07-14T10:24:49Z</time>
      </trkpt>
      <trkpt lat="42.8021623939" lon="-0.3355751932">
        <ele>1469.51</ele>
        <time>2022-07-14T10:24:54Z</time>
      </trkpt>
      <trkpt lat="42.8019545227" lon="-0.3353463672">
        <ele>1469.51</ele>
        <time>2022-07-14T10:25:11Z</time>
      </trkpt>
      <trkpt lat="42.8017744794" lon="-0.3351800703">
        <ele>1469.99</ele>
        <time>2022-07-14T10:25:26Z</time>
      </trkpt>
      <trkpt lat="42.8015771694" lon="-0.3351120930">
        <ele>1470.95</ele>
        <time>2022-07-14T10:25:40Z</time>
      </trkpt>
      <trkpt lat="42.8015329130" lon="-0.3351535834">
        <ele>1470.95</ele>
        <time>2022-07-14T10:25:44Z</time>
      </trkpt>
      <trkpt lat="42.8015104495" lon="-0.3353011888">
        <ele>1473.36</ele>
        <time>2022-07-14T10:25:58Z</time>
      </trkpt>
      <trkpt lat="42.8014703002" lon="-0.3353254125">
        <ele>1474.32</ele>
        <time>2022-07-14T10:26:03Z</time>
      </trkpt>
      <trkpt lat="42.8013434820" lon="-0.3353886120">
        <ele>1474.32</ele>
        <time>2022-07-14T10:26:13Z</time>
      </trkpt>
      <trkpt lat="42.8012039233" lon="-0.3354680724">
        <ele>1475.28</ele>
        <time>2022-07-14T10:26:26Z</time>
      </trkpt>
      <trkpt lat="42.8009585850" lon="-0.3356377222">
        <ele>1476.72</ele>
        <time>2022-07-14T10:26:45Z</time>
      </trkpt>
      <trkpt lat="42.8009008337" lon="-0.3356486186">
        <ele>1477.20</ele>
        <time>2022-07-14T10:26:49Z</time>
      </trkpt>
      <trkpt lat="42.8007549047" lon="-0.3354818188">
        <ele>1478.65</ele>
        <time>2022-07-14T10:27:04Z</time>
      </trkpt>
      <trkpt lat="42.8005316947" lon="-0.3354284260">
        <ele>1479.61</ele>
        <time>2022-07-14T10:27:19Z</time>
      </trkpt>
      <trkpt lat="42.8004121687" lon="-0.3353899531">
        <ele>1480.57</ele>
        <time>2022-07-14T10:27:28Z</time>
      </trkpt>
      <trkpt lat="42.8001587000" lon="-0.3352517355">
        <ele>1480.57</ele>
        <time>2022-07-14T10:27:46Z</time>
      </trkpt>
      <trkpt lat="42.8000130225" lon="-0.3351187985">
        <ele>1477.20</ele>
        <time>2022-07-14T10:27:58Z</time>
      </trkpt>
      <trkpt lat="42.7999271080" lon="-0.3349411022">
        <ele>1473.84</ele>
        <time>2022-07-14T10:28:09Z</time>
      </trkpt>
      <trkpt lat="42.7998026367" lon="-0.3347562812">
        <ele>1471.44</ele>
        <time>2022-07-14T10:28:22Z</time>
      </trkpt>
      <trkpt lat="42.7996813506" lon="-0.3346462268">
        <ele>1468.55</ele>
        <time>2022-07-14T10:28:34Z</time>
      </trkpt>
      <trkpt lat="42.7996262815" lon="-0.3346213326">
        <ele>1468.55</ele>
        <time>2022-07-14T10:28:38Z</time>
      </trkpt>
      <trkpt lat="42.7994111180" lon="-0.3344449773">
        <ele>1466.63</ele>
        <time>2022-07-14T10:28:54Z</time>
      </trkpt>
      <trkpt lat="42.7992431447" lon="-0.3342661075">
        <ele>1466.15</ele>
        <time>2022-07-14T10:29:10Z</time>
      </trkpt>
      <trkpt lat="42.7990776859" lon="-0.3341185860">
        <ele>1463.74</ele>
        <time>2022-07-14T10:29:24Z</time>
      </trkpt>
      <trkpt lat="42.7990019973" lon="-0.3340334259">
        <ele>1461.82</ele>
        <time>2022-07-14T10:29:31Z</time>
      </trkpt>
      <trkpt lat="42.7989675477" lon="-0.3339501936">
        <ele>1460.86</ele>
        <time>2022-07-14T10:29:35Z</time>
      </trkpt>
      <trkpt lat="42.7989204414" lon="-0.3338310868">
        <ele>1459.90</ele>
        <time>2022-07-14T10:29:43Z</time>
      </trkpt>
      <trkpt lat="42.7988842316" lon="-0.3337626066">
        <ele>1459.90</ele>
        <time>2022-07-14T10:29:47Z</time>
      </trkpt>
      <trkpt lat="42.7987197787" lon="-0.3336501215">
        <ele>1456.53</ele>
        <time>2022-07-14T10:30:01Z</time>
      </trkpt>
      <trkpt lat="42.7985017654" lon="-0.3336158395">
        <ele>1455.09</ele>
        <time>2022-07-14T10:30:17Z</time>
      </trkpt>
      <trkpt lat="42.7982736100" lon="-0.3336187731">
        <ele>1454.61</ele>
        <time>2022-07-14T10:30:33Z</time>
      </trkpt>
      <trkpt lat="42.7981022839" lon="-0.3335864190">
        <ele>1453.65</ele>
        <time>2022-07-14T10:30:45Z</time>
      </trkpt>
      <trkpt lat="42.7978369128" lon="-0.3335357923">
        <ele>1451.73</ele>
        <time>2022-07-14T10:31:03Z</time>
      </trkpt>
      <trkpt lat="42.7975971065" lon="-0.3333744407">
        <ele>1451.73</ele>
        <time>2022-07-14T10:31:21Z</time>
      </trkpt>
      <trkpt lat="42.7973694541" lon="-0.3332537413">
        <ele>1451.73</ele>
        <time>2022-07-14T10:31:37Z</time>
      </trkpt>
      <trkpt lat="42.7972195018" lon="-0.3331118356">
        <ele>1449.32</ele>
        <time>2022-07-14T10:31:54Z</time>
      </trkpt>
      <trkpt lat="42.7971210144" lon="-0.3329822514">
        <ele>1447.88</ele>
        <time>2022-07-14T10:32:10Z</time>
      </trkpt>
      <trkpt lat="42.7969897538" lon="-0.3328229114">
        <ele>1445.96</ele>
        <time>2022-07-14T10:32:25Z</time>
      </trkpt>
      <trkpt lat="42.7969299071" lon="-0.3327081632">
        <ele>1446.44</ele>
        <time>2022-07-14T10:32:34Z</time>
      </trkpt>
      <trkpt lat="42.7967594191" lon="-0.3324349131">
        <ele>1445.96</ele>
        <time>2022-07-14T10:32:53Z</time>
      </trkpt>
      <trkpt lat="42.7966257278" lon="-0.3323459812">
        <ele>1445.96</ele>
        <time>2022-07-14T10:33:05Z</time>
      </trkpt>
      <trkpt lat="42.7965186909" lon="-0.3322631679">
        <ele>1448.84</ele>
        <time>2022-07-14T10:33:21Z</time>
      </trkpt>
      <trkpt lat="42.7964174375" lon="-0.3322670236">
        <ele>1448.36</ele>
        <time>2022-07-14T10:33:32Z</time>
      </trkpt>
      <trkpt lat="42.7963559981" lon="-0.3322992940">
        <ele>1450.29</ele>
        <time>2022-07-14T10:33:39Z</time>
      </trkpt>
      <trkpt lat="42.7962966543" lon="-0.3323446400">
        <ele>1450.29</ele>
        <time>2022-07-14T10:33:46Z</time>
      </trkpt>
      <trkpt lat="42.7961249091" lon="-0.3324200772">
        <ele>1452.21</ele>
        <time>2022-07-14T10:34:01Z</time>
      </trkpt>
      <trkpt lat="42.7960231528" lon="-0.3323372640">
        <ele>1453.17</ele>
        <time>2022-07-14T10:34:16Z</time>
      </trkpt>
      <trkpt lat="42.7960002702" lon="-0.3323270380">
        <ele>1452.21</ele>
        <time>2022-07-14T10:34:32Z</time>
      </trkpt>
      <trkpt lat="42.7960201353" lon="-0.3323268704">
        <ele>1452.21</ele>
        <time>2022-07-14T10:35:06Z</time>
      </trkpt>
      <trkpt lat="42.7960116696" lon="-0.3323104419">
        <ele>1452.21</ele>
        <time>2022-07-14T10:35:34Z</time>
      </trkpt>
      <trkpt lat="42.7960519865" lon="-0.3323453106">
        <ele>1452.21</ele>
        <time>2022-07-14T10:36:13Z</time>
      </trkpt>
      <trkpt lat="42.7960667387" lon="-0.3324225079">
        <ele>1451.73</ele>
        <time>2022-07-14T10:36:52Z</time>
      </trkpt>
      <trkpt lat="42.7960560936" lon="-0.3324146289">
        <ele>1451.73</ele>
        <time>2022-07-14T10:37:28Z</time>
      </trkpt>
      <trkpt lat="42.7960637212" lon="-0.3323756531">
        <ele>1451.73</ele>
        <time>2022-07-14T10:38:07Z</time>
      </trkpt>
      <trkpt lat="42.7961011045" lon="-0.3323643375">
        <ele>1454.13</ele>
        <time>2022-07-14T10:38:24Z</time>
      </trkpt>
      <trkpt lat="42.7960500587" lon="-0.3323478252">
        <ele>1452.69</ele>
        <time>2022-07-14T10:38:37Z</time>
      </trkpt>
      <trkpt lat="42.7960393298" lon="-0.3323018923">
        <ele>1453.17</ele>
        <time>2022-07-14T10:38:54Z</time>
      </trkpt>
      <trkpt lat="42.7959386632" lon="-0.3322314844">
        <ele>1454.13</ele>
        <time>2022-07-14T10:39:08Z</time>
      </trkpt>
      <trkpt lat="42.7957173809" lon="-0.3321885690">
        <ele>1455.57</ele>
        <time>2022-07-14T10:39:26Z</time>
      </trkpt>
      <trkpt lat="42.7955891378" lon="-0.3320832923">
        <ele>1457.98</ele>
        <time>2022-07-14T10:39:41Z</time>
      </trkpt>
      <trkpt lat="42.7955640759" lon="-0.3320651874">
        <ele>1458.46</ele>
        <time>2022-07-14T10:39:45Z</time>
      </trkpt>
      <trkpt lat="42.7955043968" lon="-0.3320482560">
        <ele>1459.42</ele>
        <time>2022-07-14T10:39:50Z</time>
      </trkpt>
      <trkpt lat="42.7954082564" lon="-0.3319744114">
        <ele>1460.38</ele>
        <time>2022-07-14T10:39:59Z</time>
      </trkpt>
      <trkpt lat="42.7952647582" lon="-0.3318177536">
        <ele>1460.38</ele>
        <time>2022-07-14T10:40:13Z</time>
      </trkpt>
      <trkpt lat="42.7951130457" lon="-0.3317105491">
        <ele>1461.34</ele>
        <time>2022-07-14T10:40:28Z</time>
      </trkpt>
      <trkpt lat="42.7949414682" lon="-0.3315505385">
        <ele>1462.30</ele>
        <time>2022-07-14T10:40:43Z</time>
      </trkpt>
      <trkpt lat="42.7948724013" lon="-0.3314842377">
        <ele>1460.86</ele>
        <time>2022-07-14T10:40:50Z</time>
      </trkpt>
      <trkpt lat="42.7947480977" lon="-0.3314136621">
        <ele>1459.90</ele>
        <time>2022-07-14T10:41:04Z</time>
      </trkpt>
      <trkpt lat="42.7945046034" lon="-0.3312347922">
        <ele>1458.94</ele>
        <time>2022-07-14T10:41:19Z</time>
      </trkpt>
      <trkpt lat="42.7944736741" lon="-0.3312020190">
        <ele>1458.94</ele>
        <time>2022-07-14T10:41:22Z</time>
      </trkpt>
      <trkpt lat="42.7942527272" lon="-0.3310830798">
        <ele>1457.98</ele>
        <time>2022-07-14T10:41:39Z</time>
      </trkpt>
      <trkpt lat="42.7941369731" lon="-0.3309973329">
        <ele>1459.90</ele>
        <time>2022-07-14T10:41:53Z</time>
      </trkpt>
      <trkpt lat="42.7941181138" lon="-0.3309776355">
        <ele>1459.90</ele>
        <time>2022-07-14T10:41:56Z</time>
      </trkpt>
      <trkpt lat="42.7940472867" lon="-0.3309352230">
        <ele>1459.90</ele>
        <time>2022-07-14T10:42:03Z</time>
      </trkpt>
      <trkpt lat="42.7940026950" lon="-0.3308906313">
        <ele>1459.90</ele>
        <time>2022-07-14T10:42:07Z</time>
      </trkpt>
      <trkpt lat="42.7938362304" lon="-0.3306956682">
        <ele>1458.46</ele>
        <time>2022-07-14T10:42:20Z</time>
      </trkpt>
      <trkpt lat="42.7936820034" lon="-0.3305108473">
        <ele>1458.46</ele>
        <time>2022-07-14T10:42:35Z</time>
      </trkpt>
      <trkpt lat="42.7936158702" lon="-0.3304389305">
        <ele>1459.42</ele>
        <time>2022-07-14T10:42:41Z</time>
      </trkpt>
      <trkpt lat="42.7934610564" lon="-0.3303028084">
        <ele>1459.42</ele>
        <time>2022-07-14T10:42:55Z</time>
      </trkpt>
      <trkpt lat="42.7933124453" lon="-0.3301876411">
        <ele>1459.42</ele>
        <time>2022-07-14T10:43:07Z</time>
      </trkpt>
      <trkpt lat="42.7932900656" lon="-0.3301717155">
        <ele>1459.42</ele>
        <time>2022-07-14T10:43:09Z</time>
      </trkpt>
      <trkpt lat="42.7931883093" lon="-0.3301123716">
        <ele>1458.94</ele>
        <time>2022-07-14T10:43:18Z</time>
      </trkpt>
      <trkpt lat="42.7930362616" lon="-0.3299436439">
        <ele>1457.50</ele>
        <time>2022-07-14T10:43:31Z</time>
      </trkpt>
      <trkpt lat="42.7930054162" lon="-0.3299164865">
        <ele>1457.02</ele>
        <time>2022-07-14T10:43:35Z</time>
      </trkpt>
      <trkpt lat="42.7928680368" lon="-0.3298151493">
        <ele>1454.13</ele>
        <time>2022-07-14T10:43:47Z</time>
      </trkpt>
      <trkpt lat="42.7926489338" lon="-0.3296701424">
        <ele>1451.73</ele>
        <time>2022-07-14T10:44:03Z</time>
      </trkpt>
      <trkpt lat="42.7925001550" lon="-0.3296290711">
        <ele>1450.29</ele>
        <time>2022-07-14T10:44:14Z</time>
      </trkpt>
      <trkpt lat="42.7923034318" lon="-0.3294955473">
        <ele>1448.84</ele>
        <time>2022-07-14T10:44:30Z</time>
      </trkpt>
      <trkpt lat="42.7921379730" lon="-0.3293704893">
        <ele>1448.84</ele>
        <time>2022-07-14T10:44:47Z</time>
      </trkpt>
      <trkpt lat="42.7920798864" lon="-0.3293330222">
        <ele>1448.84</ele>
        <time>2022-07-14T10:44:50Z</time>
      </trkpt>
      <trkpt lat="42.7918870188" lon="-0.3291896079">
        <ele>1448.36</ele>
        <time>2022-07-14T10:45:05Z</time>
      </trkpt>
      <trkpt lat="42.7917557582" lon="-0.3291129973">
        <ele>1448.36</ele>
        <time>2022-07-14T10:45:16Z</time>
      </trkpt>
      <trkpt lat="42.7916963305" lon="-0.3290857561">
        <ele>1448.36</ele>
        <time>2022-07-14T10:45:20Z</time>
      </trkpt>
      <trkpt lat="42.7914918121" lon="-0.3290348779">
        <ele>1447.88</ele>
        <time>2022-07-14T10:45:34Z</time>
      </trkpt>
      <trkpt lat="42.7912497427" lon="-0.3289500531">
        <ele>1447.40</ele>
        <time>2022-07-14T10:45:51Z</time>
      </trkpt>
      <trkpt lat="42.7910633292" lon="-0.3287952393">
        <ele>1446.92</ele>
        <time>2022-07-14T10:46:06Z</time>
      </trkpt>
      <trkpt lat="42.7908259537" lon="-0.3286698461">
        <ele>1446.44</ele>
        <time>2022-07-14T10:46:23Z</time>
      </trkpt>
      <trkpt lat="42.7906836290" lon="-0.3285272699">
        <ele>1446.44</ele>
        <time>2022-07-14T10:46:35Z</time>
      </trkpt>
      <trkpt lat="42.7904559765" lon="-0.3282844462">
        <ele>1446.44</ele>
        <time>2022-07-14T10:46:52Z</time>
      </trkpt>
      <trkpt lat="42.7903388813" lon="-0.3281150479">
        <ele>1446.44</ele>
        <time>2022-07-14T10:47:05Z</time>
      </trkpt>
      <trkpt lat="42.7901975624" lon="-0.3279314842">
        <ele>1446.44</ele>
        <time>2022-07-14T10:47:20Z</time>
      </trkpt>
      <trkpt lat="42.7899706643" lon="-0.3278190829">
        <ele>1445.96</ele>
        <time>2022-07-14T10:47:37Z</time>
      </trkpt>
      <trkpt lat="42.7898300160" lon="-0.3278629202">
        <ele>1445.96</ele>
        <time>2022-07-14T10:47:51Z</time>
      </trkpt>
      <trkpt lat="42.7898052055" lon="-0.3278739844">
        <ele>1445.96</ele>
        <time>2022-07-14T10:47:54Z</time>
      </trkpt>
      <trkpt lat="42.7896849252" lon="-0.3278327454">
        <ele>1445.48</ele>
        <time>2022-07-14T10:48:05Z</time>
      </trkpt>
      <trkpt lat="42.7895063907" lon="-0.3276475053">
        <ele>1444.52</ele>
        <time>2022-07-14T10:48:20Z</time>
      </trkpt>
      <trkpt lat="42.7894326299" lon="-0.3275790252">
        <ele>1443.56</ele>
        <time>2022-07-14T10:48:27Z</time>
      </trkpt>
      <trkpt lat="42.7892896347" lon="-0.3274514526">
        <ele>1443.08</ele>
        <time>2022-07-14T10:48:40Z</time>
      </trkpt>
      <trkpt lat="42.7892658301" lon="-0.3274334315">
        <ele>1443.08</ele>
        <time>2022-07-14T10:48:42Z</time>
      </trkpt>
      <trkpt lat="42.7891331445" lon="-0.3273496125">
        <ele>1443.56</ele>
        <time>2022-07-14T10:48:52Z</time>
      </trkpt>
      <trkpt lat="42.7888694499" lon="-0.3273034282">
        <ele>1441.15</ele>
        <time>2022-07-14T10:49:09Z</time>
      </trkpt>
      <trkpt lat="42.7887583897" lon="-0.3272863291">
        <ele>1439.71</ele>
        <time>2022-07-14T10:49:17Z</time>
      </trkpt>
      <trkpt lat="42.7885448188" lon="-0.3272712417">
        <ele>1436.83</ele>
        <time>2022-07-14T10:49:33Z</time>
      </trkpt>
      <trkpt lat="42.7885615826" lon="-0.3272925317">
        <ele>1436.83</ele>
        <time>2022-07-14T10:49:48Z</time>
      </trkpt>
      <trkpt lat="42.7885461599" lon="-0.3273284063">
        <ele>1436.35</ele>
        <time>2022-07-14T10:50:17Z</time>
      </trkpt>
      <trkpt lat="42.7885485068" lon="-0.3273252212">
        <ele>1435.87</ele>
        <time>2022-07-14T10:50:51Z</time>
      </trkpt>
      <trkpt lat="42.7885291446" lon="-0.3273659572">
        <ele>1434.91</ele>
        <time>2022-07-14T10:51:08Z</time>
      </trkpt>
      <trkpt lat="42.7884642687" lon="-0.3273526300">
        <ele>1434.91</ele>
        <time>2022-07-14T10:51:14Z</time>
      </trkpt>
      <trkpt lat="42.7882295754" lon="-0.3272610158">
        <ele>1432.50</ele>
        <time>2022-07-14T10:51:30Z</time>
      </trkpt>
      <trkpt lat="42.7881316748" lon="-0.3272704873">
        <ele>1431.54</ele>
        <time>2022-07-14T10:51:37Z</time>
      </trkpt>
      <trkpt lat="42.7878999989" lon="-0.3272366244">
        <ele>1428.18</ele>
        <time>2022-07-14T10:51:53Z</time>
      </trkpt>
      <trkpt lat="42.7876619529" lon="-0.3272141609">
        <ele>1426.73</ele>
        <time>2022-07-14T10:52:08Z</time>
      </trkpt>
      <trkpt lat="42.7874169499" lon="-0.3271395620">
        <ele>1425.77</ele>
        <time>2022-07-14T10:52:26Z</time>
      </trkpt>
      <trkpt lat="42.7872320451" lon="-0.3271269891">
        <ele>1425.77</ele>
        <time>2022-07-14T10:52:39Z</time>
      </trkpt>
      <trkpt lat="42.7870419435" lon="-0.3271511290">
        <ele>1426.73</ele>
        <time>2022-07-14T10:52:55Z</time>
      </trkpt>
      <trkpt lat="42.7868840285" lon="-0.3272013366">
        <ele>1428.18</ele>
        <time>2022-07-14T10:53:09Z</time>
      </trkpt>
      <trkpt lat="42.7868054062" lon="-0.3272440005">
        <ele>1426.73</ele>
        <time>2022-07-14T10:53:18Z</time>
      </trkpt>
      <trkpt lat="42.7866228484" lon="-0.3273629397">
        <ele>1425.29</ele>
        <time>2022-07-14T10:53:34Z</time>
      </trkpt>
      <trkpt lat="42.7865749877" lon="-0.3273888398">
        <ele>1424.81</ele>
        <time>2022-07-14T10:53:40Z</time>
      </trkpt>
      <trkpt lat="42.7863935195" lon="-0.3275840543">
        <ele>1423.85</ele>
        <time>2022-07-14T10:53:56Z</time>
      </trkpt>
      <trkpt lat="42.7862055134" lon="-0.3277977090">
        <ele>1422.41</ele>
        <time>2022-07-14T10:54:10Z</time>
      </trkpt>
      <trkpt lat="42.7859854884" lon="-0.3279946838">
        <ele>1420.97</ele>
        <time>2022-07-14T10:54:26Z</time>
      </trkpt>
      <trkpt lat="42.7858937066" lon="-0.3279975336">
        <ele>1420.49</ele>
        <time>2022-07-14T10:54:33Z</time>
      </trkpt>
      <trkpt lat="42.7857735939" lon="-0.3279578872">
        <ele>1420.00</ele>
        <time>2022-07-14T10:54:41Z</time>
      </trkpt>
      <trkpt lat="42.7855692431" lon="-0.3278612439">
        <ele>1419.04</ele>
        <time>2022-07-14T10:54:56Z</time>
      </trkpt>
      <trkpt lat="42.7853327058" lon="-0.3277479205">
        <ele>1418.08</ele>
        <time>2022-07-14T10:55:10Z</time>
      </trkpt>
      <trkpt lat="42.7851597872" lon="-0.3276752494">
        <ele>1417.60</ele>
        <time>2022-07-14T10:55:24Z</time>
      </trkpt>
      <trkpt lat="42.7849096712" lon="-0.3275693022">
        <ele>1417.60</ele>
        <time>2022-07-14T10:55:39Z</time>
      </trkpt>
      <trkpt lat="42.7848446276" lon="-0.3275268059">
        <ele>1417.12</ele>
        <time>2022-07-14T10:55:44Z</time>
      </trkpt>
      <trkpt lat="42.7845903207" lon="-0.3273402248">
        <ele>1417.12</ele>
        <time>2022-07-14T10:56:01Z</time>
      </trkpt>
      <trkpt lat="42.7845225949" lon="-0.3272773605">
        <ele>1417.12</ele>
        <time>2022-07-14T10:56:06Z</time>
      </trkpt>
      <trkpt lat="42.7843653504" lon="-0.3271060344">
        <ele>1417.12</ele>
        <time>2022-07-14T10:56:22Z</time>
      </trkpt>
      <trkpt lat="42.7841689624" lon="-0.3269850835">
        <ele>1416.64</ele>
        <time>2022-07-14T10:56:36Z</time>
      </trkpt>
      <trkpt lat="42.7839906793" lon="-0.3268764541">
        <ele>1416.64</ele>
        <time>2022-07-14T10:56:50Z</time>
      </trkpt>
      <trkpt lat="42.7839454170" lon="-0.3267015237">
        <ele>1413.28</ele>
        <time>2022-07-14T10:57:01Z</time>
      </trkpt>
      <trkpt lat="42.7838958800" lon="-0.3266336303">
        <ele>1409.91</ele>
        <time>2022-07-14T10:57:10Z</time>
      </trkpt>
      <trkpt lat="42.7838189341" lon="-0.3266591951">
        <ele>1407.03</ele>
        <time>2022-07-14T10:57:21Z</time>
      </trkpt>
      <trkpt lat="42.7837822214" lon="-0.3266890347">
        <ele>1406.55</ele>
        <time>2022-07-14T10:57:26Z</time>
      </trkpt>
      <trkpt lat="42.7836880926" lon="-0.3267795593">
        <ele>1405.58</ele>
        <time>2022-07-14T10:57:36Z</time>
      </trkpt>
      <trkpt lat="42.7836714126" lon="-0.3267974965">
        <ele>1405.58</ele>
        <time>2022-07-14T10:57:38Z</time>
      </trkpt>
      <trkpt lat="42.7836316824" lon="-0.3268401604">
        <ele>1405.10</ele>
        <time>2022-07-14T10:57:42Z</time>
      </trkpt>
      <trkpt lat="42.7836172655" lon="-0.3268696647">
        <ele>1404.14</ele>
        <time>2022-07-14T10:57:44Z</time>
      </trkpt>
      <trkpt lat="42.7836070396" lon="-0.3269035276">
        <ele>1404.14</ele>
        <time>2022-07-14T10:57:46Z</time>
      </trkpt>
      <trkpt lat="42.7836760227" lon="-0.3270592634">
        <ele>1400.30</ele>
        <time>2022-07-14T10:57:59Z</time>
      </trkpt>
      <trkpt lat="42.7836662158" lon="-0.3271820582">
        <ele>1397.89</ele>
        <time>2022-07-14T10:58:09Z</time>
      </trkpt>
      <trkpt lat="42.7836335264" lon="-0.3272326849">
        <ele>1396.93</ele>
        <time>2022-07-14T10:58:15Z</time>
      </trkpt>
      <trkpt lat="42.7835334465" lon="-0.3271492850">
        <ele>1393.57</ele>
        <time>2022-07-14T10:58:29Z</time>
      </trkpt>
      <trkpt lat="42.7834968176" lon="-0.3271174338">
        <ele>1392.61</ele>
        <time>2022-07-14T10:58:35Z</time>
      </trkpt>
      <trkpt lat="42.7834097296" lon="-0.3270677291">
        <ele>1390.68</ele>
        <time>2022-07-14T10:58:42Z</time>
      </trkpt>
      <trkpt lat="42.7833395731" lon="-0.3270640410">
        <ele>1390.20</ele>
        <time>2022-07-14T10:58:46Z</time>
      </trkpt>
      <trkpt lat="42.7833001781" lon="-0.3270587604">
        <ele>1389.72</ele>
        <time>2022-07-14T10:58:49Z</time>
      </trkpt>
      <trkpt lat="42.7831986733" lon="-0.3270600177">
        <ele>1388.28</ele>
        <time>2022-07-14T10:58:58Z</time>
      </trkpt>
      <trkpt lat="42.7830647305" lon="-0.3271274921">
        <ele>1385.40</ele>
        <time>2022-07-14T10:59:13Z</time>
      </trkpt>
      <trkpt lat="42.7830095775" lon="-0.3272057790">
        <ele>1382.99</ele>
        <time>2022-07-14T10:59:23Z</time>
      </trkpt>
      <trkpt lat="42.7830405906" lon="-0.3273243830">
        <ele>1381.07</ele>
        <time>2022-07-14T10:59:35Z</time>
      </trkpt>
      <trkpt lat="42.7829699311" lon="-0.3274451662">
        <ele>1378.67</ele>
        <time>2022-07-14T10:59:46Z</time>
      </trkpt>
      <trkpt lat="42.7829303686" lon="-0.3276799433">
        <ele>1375.78</ele>
        <time>2022-07-14T11:00:01Z</time>
      </trkpt>
      <trkpt lat="42.7829270996" lon="-0.3278836235">
        <ele>1373.38</ele>
        <time>2022-07-14T11:00:13Z</time>
      </trkpt>
      <trkpt lat="42.7828896325" lon="-0.3280716296">
        <ele>1370.02</ele>
        <time>2022-07-14T11:00:28Z</time>
      </trkpt>
      <trkpt lat="42.7828492317" lon="-0.3282061592">
        <ele>1367.13</ele>
        <time>2022-07-14T11:00:38Z</time>
      </trkpt>
      <trkpt lat="42.7828397602" lon="-0.3282067459">
        <ele>1367.13</ele>
        <time>2022-07-14T11:00:39Z</time>
      </trkpt>
      <trkpt lat="42.7827345673" lon="-0.3282596357">
        <ele>1364.25</ele>
        <time>2022-07-14T11:00:53Z</time>
      </trkpt>
      <trkpt lat="42.7826741338" lon="-0.3283808380">
        <ele>1360.88</ele>
        <time>2022-07-14T11:01:05Z</time>
      </trkpt>
      <trkpt lat="42.7825941704" lon="-0.3283795808">
        <ele>1358.96</ele>
        <time>2022-07-14T11:01:14Z</time>
      </trkpt>
      <trkpt lat="42.7825354971" lon="-0.3284288663">
        <ele>1357.52</ele>
        <time>2022-07-14T11:01:23Z</time>
      </trkpt>
      <trkpt lat="42.7824950963" lon="-0.3286335524">
        <ele>1354.63</ele>
        <time>2022-07-14T11:01:38Z</time>
      </trkpt>
      <trkpt lat="42.7824367583" lon="-0.3288143501">
        <ele>1353.19</ele>
        <time>2022-07-14T11:01:51Z</time>
      </trkpt>
      <trkpt lat="42.7823891491" lon="-0.3290249873">
        <ele>1352.71</ele>
        <time>2022-07-14T11:02:02Z</time>
      </trkpt>
      <trkpt lat="42.7823210880" lon="-0.3290940542">
        <ele>1352.23</ele>
        <time>2022-07-14T11:02:09Z</time>
      </trkpt>
      <trkpt lat="42.7822433878" lon="-0.3291062079">
        <ele>1351.27</ele>
        <time>2022-07-14T11:02:15Z</time>
      </trkpt>
      <trkpt lat="42.7821874805" lon="-0.3290732671">
        <ele>1351.27</ele>
        <time>2022-07-14T11:02:20Z</time>
      </trkpt>
      <trkpt lat="42.7821023203" lon="-0.3289171960">
        <ele>1347.43</ele>
        <time>2022-07-14T11:02:33Z</time>
      </trkpt>
      <trkpt lat="42.7820630930" lon="-0.3288714308">
        <ele>1346.46</ele>
        <time>2022-07-14T11:02:38Z</time>
      </trkpt>
      <trkpt lat="42.7819732390" lon="-0.3288974985">
        <ele>1345.02</ele>
        <time>2022-07-14T11:02:47Z</time>
      </trkpt>
      <trkpt lat="42.7818182576" lon="-0.3290448524">
        <ele>1343.10</ele>
        <time>2022-07-14T11:03:02Z</time>
      </trkpt>
      <trkpt lat="42.7816230431" lon="-0.3291646298">
        <ele>1340.22</ele>
        <time>2022-07-14T11:03:17Z</time>
      </trkpt>
      <trkpt lat="42.7814500406" lon="-0.3292823955">
        <ele>1340.22</ele>
        <time>2022-07-14T11:03:31Z</time>
      </trkpt>
      <trkpt lat="42.7813114878" lon="-0.3295684699">
        <ele>1337.81</ele>
        <time>2022-07-14T11:03:47Z</time>
      </trkpt>
      <trkpt lat="42.7812679019" lon="-0.3296178393">
        <ele>1337.33</ele>
        <time>2022-07-14T11:03:52Z</time>
      </trkpt>
      <trkpt lat="42.7810597792" lon="-0.3296928573">
        <ele>1333.97</ele>
        <time>2022-07-14T11:04:06Z</time>
      </trkpt>
      <trkpt lat="42.7809203882" lon="-0.3296675440">
        <ele>1332.52</ele>
        <time>2022-07-14T11:04:14Z</time>
      </trkpt>
      <trkpt lat="42.7806843538" lon="-0.3297687974">
        <ele>1329.64</ele>
        <time>2022-07-14T11:04:31Z</time>
      </trkpt>
      <trkpt lat="42.7805729583" lon="-0.3300215956">
        <ele>1326.28</ele>
        <time>2022-07-14T11:04:46Z</time>
      </trkpt>
      <trkpt lat="42.7803981956" lon="-0.3301521856">
        <ele>1322.91</ele>
        <time>2022-07-14T11:05:00Z</time>
      </trkpt>
      <trkpt lat="42.7801422123" lon="-0.3301503416">
        <ele>1319.55</ele>
        <time>2022-07-14T11:05:17Z</time>
      </trkpt>
      <trkpt lat="42.7799644321" lon="-0.3299983777">
        <ele>1317.14</ele>
        <time>2022-07-14T11:05:32Z</time>
      </trkpt>
      <trkpt lat="42.7798389550" lon="-0.3298383672">
        <ele>1315.22</ele>
        <time>2022-07-14T11:05:44Z</time>
      </trkpt>
      <trkpt lat="42.7797474246" lon="-0.3297008201">
        <ele>1313.30</ele>
        <time>2022-07-14T11:05:53Z</time>
      </trkpt>
      <trkpt lat="42.7796118893" lon="-0.3293978143">
        <ele>1309.93</ele>
        <time>2022-07-14T11:06:10Z</time>
      </trkpt>
      <trkpt lat="42.7795154136" lon="-0.3291950561">
        <ele>1307.05</ele>
        <time>2022-07-14T11:06:22Z</time>
      </trkpt>
      <trkpt lat="42.7794138249" lon="-0.3288677428">
        <ele>1303.20</ele>
        <time>2022-07-14T11:06:39Z</time>
      </trkpt>
      <trkpt lat="42.7792948019" lon="-0.3286484722">
        <ele>1300.80</ele>
        <time>2022-07-14T11:06:53Z</time>
      </trkpt>
      <trkpt lat="42.7792304289" lon="-0.3285478055">
        <ele>1300.32</ele>
        <time>2022-07-14T11:06:59Z</time>
      </trkpt>
      <trkpt lat="42.7790009324" lon="-0.3283903096">
        <ele>1299.84</ele>
        <time>2022-07-14T11:07:16Z</time>
      </trkpt>
      <trkpt lat="42.7788152732" lon="-0.3282770701">
        <ele>1298.88</ele>
        <time>2022-07-14T11:07:32Z</time>
      </trkpt>
      <trkpt lat="42.7787935641" lon="-0.3282572050">
        <ele>1298.88</ele>
        <time>2022-07-14T11:07:34Z</time>
      </trkpt>
      <trkpt lat="42.7787578572" lon="-0.3281976935">
        <ele>1297.92</ele>
        <time>2022-07-14T11:07:38Z</time>
      </trkpt>
      <trkpt lat="42.7786613815" lon="-0.3278626688">
        <ele>1296.48</ele>
        <time>2022-07-14T11:07:54Z</time>
      </trkpt>
      <trkpt lat="42.7786053903" lon="-0.3277096990">
        <ele>1295.51</ele>
        <time>2022-07-14T11:08:04Z</time>
      </trkpt>
      <trkpt lat="42.7785522491" lon="-0.3274364490">
        <ele>1295.03</ele>
        <time>2022-07-14T11:08:20Z</time>
      </trkpt>
      <trkpt lat="42.7784417756" lon="-0.3272030130">
        <ele>1294.55</ele>
        <time>2022-07-14T11:08:34Z</time>
      </trkpt>
      <trkpt lat="42.7783413604" lon="-0.3271909431">
        <ele>1295.51</ele>
        <time>2022-07-14T11:08:42Z</time>
      </trkpt>
      <trkpt lat="42.7781922463" lon="-0.3273367882">
        <ele>1297.92</ele>
        <time>2022-07-14T11:08:59Z</time>
      </trkpt>
      <trkpt lat="42.7780306432" lon="-0.3274587449">
        <ele>1298.40</ele>
        <time>2022-07-14T11:09:14Z</time>
      </trkpt>
      <trkpt lat="42.7778531145" lon="-0.3276376985">
        <ele>1298.40</ele>
        <time>2022-07-14T11:09:30Z</time>
      </trkpt>
      <trkpt lat="42.7777796891" lon="-0.3276537918">
        <ele>1298.40</ele>
        <time>2022-07-14T11:09:38Z</time>
      </trkpt>
      <trkpt lat="42.7777131367" lon="-0.3276663646">
        <ele>1298.40</ele>
        <time>2022-07-14T11:09:43Z</time>
      </trkpt>
      <trkpt lat="42.7774441615" lon="-0.3276105411">
        <ele>1295.51</ele>
        <time>2022-07-14T11:10:01Z</time>
      </trkpt>
      <trkpt lat="42.7771897707" lon="-0.3276566416">
        <ele>1294.55</ele>
        <time>2022-07-14T11:10:19Z</time>
      </trkpt>
      <trkpt lat="42.7769356314" lon="-0.3276913427">
        <ele>1293.11</ele>
        <time>2022-07-14T11:10:37Z</time>
      </trkpt>
      <trkpt lat="42.7767363936" lon="-0.3276284784">
        <ele>1291.19</ele>
        <time>2022-07-14T11:10:51Z</time>
      </trkpt>
      <trkpt lat="42.7764935698" lon="-0.3275998123">
        <ele>1289.27</ele>
        <time>2022-07-14T11:11:08Z</time>
      </trkpt>
      <trkpt lat="42.7762956731" lon="-0.3276578151">
        <ele>1288.30</ele>
        <time>2022-07-14T11:11:22Z</time>
      </trkpt>
      <trkpt lat="42.7760427911" lon="-0.3277820349">
        <ele>1287.82</ele>
        <time>2022-07-14T11:11:40Z</time>
      </trkpt>
      <trkpt lat="42.7757936809" lon="-0.3278832044">
        <ele>1287.34</ele>
        <time>2022-07-14T11:11:58Z</time>
      </trkpt>
      <trkpt lat="42.7755586524" lon="-0.3279790096">
        <ele>1286.86</ele>
        <time>2022-07-14T11:12:15Z</time>
      </trkpt>
      <trkpt lat="42.7753694728" lon="-0.3280040715">
        <ele>1285.90</ele>
        <time>2022-07-14T11:12:30Z</time>
      </trkpt>
      <trkpt lat="42.7751332708" lon="-0.3280982841">
        <ele>1284.94</ele>
        <time>2022-07-14T11:12:48Z</time>
      </trkpt>
      <trkpt lat="42.7751096338" lon="-0.3281136230">
        <ele>1284.94</ele>
        <time>2022-07-14T11:12:50Z</time>
      </trkpt>
      <trkpt lat="42.7750183549" lon="-0.3279105294">
        <ele>1285.90</ele>
        <time>2022-07-14T11:13:04Z</time>
      </trkpt>
      <trkpt lat="42.7749983221" lon="-0.3278123774">
        <ele>1284.94</ele>
        <time>2022-07-14T11:13:10Z</time>
      </trkpt>
      <trkpt lat="42.7750099730" lon="-0.3277324140">
        <ele>1285.90</ele>
        <time>2022-07-14T11:13:24Z</time>
      </trkpt>
      <trkpt lat="42.7750177681" lon="-0.3277160693">
        <ele>1283.98</ele>
        <time>2022-07-14T11:13:29Z</time>
      </trkpt>
      <trkpt lat="42.7750157565" lon="-0.3277039994">
        <ele>1283.98</ele>
        <time>2022-07-14T11:13:50Z</time>
      </trkpt>
      <trkpt lat="42.7751858253" lon="-0.3275573999">
        <ele>1328.20</ele>
        <time>2022-07-14T11:27:09Z</time>
      </trkpt>
      <trkpt lat="42.7751821373" lon="-0.3275699727">
        <ele>1328.20</ele>
        <time>2022-07-14T11:27:10Z</time>
      </trkpt>
      <trkpt lat="42.7751652058" lon="-0.3276931867">
        <ele>1328.20</ele>
        <time>2022-07-14T11:27:20Z</time>
      </trkpt>
      <trkpt lat="42.7751951292" lon="-0.3278498445">
        <ele>1328.20</ele>
        <time>2022-07-14T11:27:31Z</time>
      </trkpt>
      <trkpt lat="42.7751925308" lon="-0.3278741520">
        <ele>1328.20</ele>
        <time>2022-07-14T11:27:33Z</time>
      </trkpt>
      <trkpt lat="42.7751888428" lon="-0.3278979566">
        <ele>1328.20</ele>
        <time>2022-07-14T11:27:35Z</time>
      </trkpt>
      <trkpt lat="42.7751190215" lon="-0.3279933427">
        <ele>1327.24</ele>
        <time>2022-07-14T11:27:45Z</time>
      </trkpt>
      <trkpt lat="42.7749394812" lon="-0.3281986993">
        <ele>1326.76</ele>
        <time>2022-07-14T11:28:04Z</time>
      </trkpt>
      <trkpt lat="42.7749186940" lon="-0.3282309696">
        <ele>1326.76</ele>
        <time>2022-07-14T11:28:07Z</time>
      </trkpt>
      <trkpt lat="42.7748145908" lon="-0.3282950073">
        <ele>1327.24</ele>
        <time>2022-07-14T11:28:18Z</time>
      </trkpt>
      <trkpt lat="42.7747568395" lon="-0.3284038883">
        <ele>1326.76</ele>
        <time>2022-07-14T11:28:32Z</time>
      </trkpt>
      <trkpt lat="42.7747476194" lon="-0.3284140304">
        <ele>1326.76</ele>
        <time>2022-07-14T11:28:33Z</time>
      </trkpt>
      <trkpt lat="42.7745985892" lon="-0.3285276890">
        <ele>1326.28</ele>
        <time>2022-07-14T11:28:46Z</time>
      </trkpt>
      <trkpt lat="42.7745125070" lon="-0.3285389207">
        <ele>1326.28</ele>
        <time>2022-07-14T11:28:51Z</time>
      </trkpt>
      <trkpt lat="42.7743413486" lon="-0.3285644855">
        <ele>1325.80</ele>
        <time>2022-07-14T11:29:01Z</time>
      </trkpt>
      <trkpt lat="42.7742989361" lon="-0.3285748791">
        <ele>1325.80</ele>
        <time>2022-07-14T11:29:04Z</time>
      </trkpt>
      <trkpt lat="42.7741075773" lon="-0.3287261724">
        <ele>1325.31</ele>
        <time>2022-07-14T11:29:21Z</time>
      </trkpt>
      <trkpt lat="42.7739412803" lon="-0.3289224766">
        <ele>1323.87</ele>
        <time>2022-07-14T11:29:39Z</time>
      </trkpt>
      <trkpt lat="42.7739259414" lon="-0.3289503884">
        <ele>1320.03</ele>
        <time>2022-07-14T11:29:41Z</time>
      </trkpt>
      <trkpt lat="42.7739097644" lon="-0.3289678227">
        <ele>1317.14</ele>
        <time>2022-07-14T11:29:43Z</time>
      </trkpt>
      <trkpt lat="42.7738886420" lon="-0.3290040325">
        <ele>1312.34</ele>
        <time>2022-07-14T11:29:46Z</time>
      </trkpt>
      <trkpt lat="42.7738674358" lon="-0.3290474508">
        <ele>1308.49</ele>
        <time>2022-07-14T11:29:49Z</time>
      </trkpt>
      <trkpt lat="42.7738574613" lon="-0.3290871810">
        <ele>1304.65</ele>
        <time>2022-07-14T11:29:52Z</time>
      </trkpt>
      <trkpt lat="42.7738574613" lon="-0.3291311022">
        <ele>1301.76</ele>
        <time>2022-07-14T11:29:55Z</time>
      </trkpt>
      <trkpt lat="42.7738616522" lon="-0.3291785438">
        <ele>1298.40</ele>
        <time>2022-07-14T11:29:58Z</time>
      </trkpt>
      <trkpt lat="42.7738606464" lon="-0.3292293381">
        <ele>1294.55</ele>
        <time>2022-07-14T11:30:02Z</time>
      </trkpt>
      <trkpt lat="42.7738648374" lon="-0.3292763606">
        <ele>1291.67</ele>
        <time>2022-07-14T11:30:06Z</time>
      </trkpt>
      <trkpt lat="42.7738644183" lon="-0.3292917833">
        <ele>1290.71</ele>
        <time>2022-07-14T11:30:07Z</time>
      </trkpt>
      <trkpt lat="42.7738574613" lon="-0.3293409850">
        <ele>1288.78</ele>
        <time>2022-07-14T11:30:10Z</time>
      </trkpt>
      <trkpt lat="42.7738610655" lon="-0.3294273186">
        <ele>1284.94</ele>
        <time>2022-07-14T11:30:20Z</time>
      </trkpt>
      <trkpt lat="42.7738120314" lon="-0.3294256423">
        <ele>1281.09</ele>
        <time>2022-07-14T11:30:26Z</time>
      </trkpt>
      <trkpt lat="42.7737787552" lon="-0.3294281568">
        <ele>1278.69</ele>
        <time>2022-07-14T11:30:35Z</time>
      </trkpt>
      <trkpt lat="42.7736631688" lon="-0.3294109739">
        <ele>1276.77</ele>
        <time>2022-07-14T11:30:44Z</time>
      </trkpt>
      <trkpt lat="42.7733673714" lon="-0.3296170849">
        <ele>1273.88</ele>
        <time>2022-07-14T11:31:07Z</time>
      </trkpt>
      <trkpt lat="42.7731304150" lon="-0.3298205137">
        <ele>1273.40</ele>
        <time>2022-07-14T11:31:27Z</time>
      </trkpt>
      <trkpt lat="42.7730133198" lon="-0.3298923466">
        <ele>1273.40</ele>
        <time>2022-07-14T11:31:37Z</time>
      </trkpt>
      <trkpt lat="42.7727542352" lon="-0.3300397843">
        <ele>1274.85</ele>
        <time>2022-07-14T11:31:58Z</time>
      </trkpt>
      <trkpt lat="42.7725507226" lon="-0.3303002939">
        <ele>1275.81</ele>
        <time>2022-07-14T11:32:17Z</time>
      </trkpt>
      <trkpt lat="42.7724002674" lon="-0.3305180557">
        <ele>1274.85</ele>
        <time>2022-07-14T11:32:33Z</time>
      </trkpt>
      <trkpt lat="42.7722651511" lon="-0.3307667468">
        <ele>1272.44</ele>
        <time>2022-07-14T11:32:53Z</time>
      </trkpt>
      <trkpt lat="42.7722582780" lon="-0.3308555111">
        <ele>1271.96</ele>
        <time>2022-07-14T11:32:58Z</time>
      </trkpt>
      <trkpt lat="42.7717828564" lon="-0.3319516964">
        <ele>1276.77</ele>
        <time>2022-07-14T13:21:32Z</time>
      </trkpt>
      <trkpt lat="42.7717797551" lon="-0.3319442365">
        <ele>1276.77</ele>
        <time>2022-07-14T13:21:34Z</time>
      </trkpt>
      <trkpt lat="42.7715189103" lon="-0.3317047656">
        <ele>1275.81</ele>
        <time>2022-07-14T13:22:02Z</time>
      </trkpt>
      <trkpt lat="42.7716805134" lon="-0.3320588171">
        <ele>1276.77</ele>
        <time>2022-07-14T13:22:15Z</time>
      </trkpt>
      <trkpt lat="42.7716731373" lon="-0.3321329970">
        <ele>1279.65</ele>
        <time>2022-07-14T13:22:24Z</time>
      </trkpt>
      <trkpt lat="42.7716735564" lon="-0.3321845457">
        <ele>1281.09</ele>
        <time>2022-07-14T13:22:28Z</time>
      </trkpt>
      <trkpt lat="42.7717127837" lon="-0.3323135432">
        <ele>1284.94</ele>
        <time>2022-07-14T13:22:40Z</time>
      </trkpt>
      <trkpt lat="42.7717520948" lon="-0.3324723803">
        <ele>1287.82</ele>
        <time>2022-07-14T13:22:50Z</time>
      </trkpt>
      <trkpt lat="42.7718108520" lon="-0.3327110130">
        <ele>1288.30</ele>
        <time>2022-07-14T13:23:04Z</time>
      </trkpt>
      <trkpt lat="42.7718542702" lon="-0.3328375798">
        <ele>1287.34</ele>
        <time>2022-07-14T13:23:16Z</time>
      </trkpt>
      <trkpt lat="42.7719073277" lon="-0.3329935670">
        <ele>1287.34</ele>
        <time>2022-07-14T13:23:28Z</time>
      </trkpt>
      <trkpt lat="42.7719828486" lon="-0.3332833294">
        <ele>1287.34</ele>
        <time>2022-07-14T13:23:42Z</time>
      </trkpt>
      <trkpt lat="42.7720079105" lon="-0.3335936274">
        <ele>1288.78</ele>
        <time>2022-07-14T13:24:00Z</time>
      </trkpt>
      <trkpt lat="42.7720261831" lon="-0.3337823879">
        <ele>1290.23</ele>
        <time>2022-07-14T13:24:12Z</time>
      </trkpt>
      <trkpt lat="42.7720417734" lon="-0.3339706454">
        <ele>1290.23</ele>
        <time>2022-07-14T13:24:22Z</time>
      </trkpt>
      <trkpt lat="42.7720369119" lon="-0.3342489246">
        <ele>1291.67</ele>
        <time>2022-07-14T13:24:35Z</time>
      </trkpt>
      <trkpt lat="42.7720929030" lon="-0.3344739787">
        <ele>1294.07</ele>
        <time>2022-07-14T13:24:46Z</time>
      </trkpt>
      <trkpt lat="42.7721116785" lon="-0.3345081769">
        <ele>1292.63</ele>
        <time>2022-07-14T13:24:48Z</time>
      </trkpt>
      <trkpt lat="42.7721506543" lon="-0.3347982746">
        <ele>1292.63</ele>
        <time>2022-07-14T13:25:03Z</time>
      </trkpt>
      <trkpt lat="42.7722235769" lon="-0.3350248374">
        <ele>1294.55</ele>
        <time>2022-07-14T13:25:17Z</time>
      </trkpt>
      <trkpt lat="42.7722162846" lon="-0.3350724466">
        <ele>1295.03</ele>
        <time>2022-07-14T13:25:20Z</time>
      </trkpt>
      <trkpt lat="42.7721642330" lon="-0.3352255002">
        <ele>1295.51</ele>
        <time>2022-07-14T13:25:29Z</time>
      </trkpt>
      <trkpt lat="42.7721387520" lon="-0.3352475446">
        <ele>1297.44</ele>
        <time>2022-07-14T13:25:31Z</time>
      </trkpt>
      <trkpt lat="42.7720087487" lon="-0.3353838343">
        <ele>1297.44</ele>
        <time>2022-07-14T13:25:43Z</time>
      </trkpt>
      <trkpt lat="42.7718615625" lon="-0.3355507180">
        <ele>1298.40</ele>
        <time>2022-07-14T13:25:56Z</time>
      </trkpt>
      <trkpt lat="42.7717233449" lon="-0.3356545698">
        <ele>1298.88</ele>
        <time>2022-07-14T13:26:07Z</time>
      </trkpt>
      <trkpt lat="42.7715642564" lon="-0.3357227147">
        <ele>1300.80</ele>
        <time>2022-07-14T13:26:23Z</time>
      </trkpt>
      <trkpt lat="42.7714857180" lon="-0.3357492015">
        <ele>1300.80</ele>
        <time>2022-07-14T13:26:29Z</time>
      </trkpt>
      <trkpt lat="42.7714232728" lon="-0.3357565776">
        <ele>1301.28</ele>
        <time>2022-07-14T13:26:32Z</time>
      </trkpt>
      <trkpt lat="42.7713435609" lon="-0.3357864171">
        <ele>1301.76</ele>
        <time>2022-07-14T13:26:37Z</time>
      </trkpt>
      <trkpt lat="42.7712704707" lon="-0.3357932065">
        <ele>1302.24</ele>
        <time>2022-07-14T13:26:41Z</time>
      </trkpt>
      <trkpt lat="42.7710359450" lon="-0.3357103933">
        <ele>1303.69</ele>
        <time>2022-07-14T13:26:58Z</time>
      </trkpt>
      <trkpt lat="42.7709051874" lon="-0.3356171865">
        <ele>1305.13</ele>
        <time>2022-07-14T13:27:09Z</time>
      </trkpt>
      <trkpt lat="42.7708279062" lon="-0.3355898615">
        <ele>1305.13</ele>
        <time>2022-07-14T13:27:15Z</time>
      </trkpt>
      <trkpt lat="42.7707820572" lon="-0.3356191982">
        <ele>1305.13</ele>
        <time>2022-07-14T13:27:19Z</time>
      </trkpt>
      <trkpt lat="42.7706266567" lon="-0.3356635384">
        <ele>1306.57</ele>
        <time>2022-07-14T13:27:34Z</time>
      </trkpt>
      <trkpt lat="42.7705838252" lon="-0.3356977366">
        <ele>1307.05</ele>
        <time>2022-07-14T13:27:38Z</time>
      </trkpt>
      <trkpt lat="42.7704338729" lon="-0.3358128201">
        <ele>1308.01</ele>
        <time>2022-07-14T13:27:51Z</time>
      </trkpt>
      <trkpt lat="42.7702878602" lon="-0.3358706553">
        <ele>1309.45</ele>
        <time>2022-07-14T13:28:06Z</time>
      </trkpt>
      <trkpt lat="42.7701673284" lon="-0.3359859064">
        <ele>1309.45</ele>
        <time>2022-07-14T13:28:18Z</time>
      </trkpt>
      <trkpt lat="42.7700961661" lon="-0.3361645248">
        <ele>1311.86</ele>
        <time>2022-07-14T13:28:30Z</time>
      </trkpt>
      <trkpt lat="42.7700788993" lon="-0.3364340868">
        <ele>1315.22</ele>
        <time>2022-07-14T13:28:47Z</time>
      </trkpt>
      <trkpt lat="42.7701039612" lon="-0.3365304787">
        <ele>1316.18</ele>
        <time>2022-07-14T13:28:54Z</time>
      </trkpt>
      <trkpt lat="42.7701296099" lon="-0.3365609050">
        <ele>1316.18</ele>
        <time>2022-07-14T13:28:57Z</time>
      </trkpt>
      <trkpt lat="42.7701402549" lon="-0.3365920857">
        <ele>1316.18</ele>
        <time>2022-07-14T13:28:59Z</time>
      </trkpt>
      <trkpt lat="42.7701934800" lon="-0.3366862144">
        <ele>1317.14</ele>
        <time>2022-07-14T13:29:06Z</time>
      </trkpt>
      <trkpt lat="42.7701943181" lon="-0.3368898947">
        <ele>1319.07</ele>
        <time>2022-07-14T13:29:16Z</time>
      </trkpt>
      <trkpt lat="42.7702378202" lon="-0.3371741250">
        <ele>1321.47</ele>
        <time>2022-07-14T13:29:31Z</time>
      </trkpt>
      <trkpt lat="42.7702766284" lon="-0.3373748716">
        <ele>1323.87</ele>
        <time>2022-07-14T13:29:46Z</time>
      </trkpt>
      <trkpt lat="42.7703032829" lon="-0.3375172801">
        <ele>1325.80</ele>
        <time>2022-07-14T13:29:58Z</time>
      </trkpt>
      <trkpt lat="42.7703130897" lon="-0.3377180267">
        <ele>1328.20</ele>
        <time>2022-07-14T13:30:13Z</time>
      </trkpt>
      <trkpt lat="42.7703315299" lon="-0.3379003331">
        <ele>1329.64</ele>
        <time>2022-07-14T13:30:26Z</time>
      </trkpt>
      <trkpt lat="42.7703389898" lon="-0.3379401471">
        <ele>1330.12</ele>
        <time>2022-07-14T13:30:29Z</time>
      </trkpt>
      <trkpt lat="42.7703985013" lon="-0.3381406423">
        <ele>1332.52</ele>
        <time>2022-07-14T13:30:44Z</time>
      </trkpt>
      <trkpt lat="42.7704847511" lon="-0.3382668737">
        <ele>1333.49</ele>
        <time>2022-07-14T13:30:56Z</time>
      </trkpt>
      <trkpt lat="42.7706233878" lon="-0.3384266328">
        <ele>1336.85</ele>
        <time>2022-07-14T13:31:12Z</time>
      </trkpt>
      <trkpt lat="42.7707492001" lon="-0.3385676164">
        <ele>1339.73</ele>
        <time>2022-07-14T13:31:28Z</time>
      </trkpt>
      <trkpt lat="42.7708742581" lon="-0.3387112822">
        <ele>1341.66</ele>
        <time>2022-07-14T13:31:43Z</time>
      </trkpt>
      <trkpt lat="42.7710063569" lon="-0.3388498351">
        <ele>1344.54</ele>
        <time>2022-07-14T13:31:59Z</time>
      </trkpt>
      <trkpt lat="42.7711537108" lon="-0.3389705345">
        <ele>1345.98</ele>
        <time>2022-07-14T13:32:14Z</time>
      </trkpt>
      <trkpt lat="42.7712573949" lon="-0.3390965145">
        <ele>1348.87</ele>
        <time>2022-07-14T13:32:28Z</time>
      </trkpt>
      <trkpt lat="42.7713615820" lon="-0.3392357379">
        <ele>1350.79</ele>
        <time>2022-07-14T13:32:42Z</time>
      </trkpt>
      <trkpt lat="42.7714628354" lon="-0.3393814154">
        <ele>1352.23</ele>
        <time>2022-07-14T13:32:56Z</time>
      </trkpt>
      <trkpt lat="42.7715936769" lon="-0.3395374026">
        <ele>1354.15</ele>
        <time>2022-07-14T13:33:11Z</time>
      </trkpt>
      <trkpt lat="42.7717150468" lon="-0.3396948986">
        <ele>1356.08</ele>
        <time>2022-07-14T13:33:26Z</time>
      </trkpt>
      <trkpt lat="42.7718068287" lon="-0.3398193698">
        <ele>1358.00</ele>
        <time>2022-07-14T13:33:38Z</time>
      </trkpt>
      <trkpt lat="42.7719433699" lon="-0.3399948031">
        <ele>1359.44</ele>
        <time>2022-07-14T13:33:55Z</time>
      </trkpt>
      <trkpt lat="42.7720083296" lon="-0.3400764428">
        <ele>1361.36</ele>
        <time>2022-07-14T13:34:04Z</time>
      </trkpt>
      <trkpt lat="42.7720178012" lon="-0.3401004151">
        <ele>1361.36</ele>
        <time>2022-07-14T13:34:06Z</time>
      </trkpt>
      <trkpt lat="42.7720330562" lon="-0.3401212860">
        <ele>1361.36</ele>
        <time>2022-07-14T13:34:08Z</time>
      </trkpt>
      <trkpt lat="42.7720509935" lon="-0.3402016684">
        <ele>1362.81</ele>
        <time>2022-07-14T13:34:14Z</time>
      </trkpt>
      <trkpt lat="42.7721024584" lon="-0.3403113876">
        <ele>1363.29</ele>
        <time>2022-07-14T13:34:23Z</time>
      </trkpt>
      <trkpt lat="42.7721985150" lon="-0.3404921014">
        <ele>1365.69</ele>
        <time>2022-07-14T13:34:38Z</time>
      </trkpt>
      <trkpt lat="42.7722031251" lon="-0.3405041713">
        <ele>1366.17</ele>
        <time>2022-07-14T13:34:39Z</time>
      </trkpt>
      <trkpt lat="42.7722704317" lon="-0.3406885732">
        <ele>1368.09</ele>
        <time>2022-07-14T13:34:54Z</time>
      </trkpt>
      <trkpt lat="42.7722788136" lon="-0.3407157306">
        <ele>1368.57</ele>
        <time>2022-07-14T13:34:56Z</time>
      </trkpt>
      <trkpt lat="42.7723449469" lon="-0.3408957738">
        <ele>1370.98</ele>
        <time>2022-07-14T13:35:10Z</time>
      </trkpt>
      <trkpt lat="42.7723815758" lon="-0.3410758171">
        <ele>1373.38</ele>
        <time>2022-07-14T13:35:23Z</time>
      </trkpt>
      <trkpt lat="42.7724070568" lon="-0.3412715346">
        <ele>1375.30</ele>
        <time>2022-07-14T13:35:39Z</time>
      </trkpt>
      <trkpt lat="42.7724085655" lon="-0.3412988596">
        <ele>1376.26</ele>
        <time>2022-07-14T13:35:41Z</time>
      </trkpt>
      <trkpt lat="42.7724135946" lon="-0.3414872847">
        <ele>1377.23</ele>
        <time>2022-07-14T13:35:53Z</time>
      </trkpt>
      <trkpt lat="42.7724135108" lon="-0.3416769672">
        <ele>1379.15</ele>
        <time>2022-07-14T13:36:06Z</time>
      </trkpt>
      <trkpt lat="42.7724043746" lon="-0.3417441901">
        <ele>1379.63</ele>
        <time>2022-07-14T13:36:10Z</time>
      </trkpt>
      <trkpt lat="42.7724141814" lon="-0.3420382272">
        <ele>1381.55</ele>
        <time>2022-07-14T13:36:28Z</time>
      </trkpt>
      <trkpt lat="42.7724342141" lon="-0.3423713241">
        <ele>1380.11</ele>
        <time>2022-07-14T13:36:47Z</time>
      </trkpt>
      <trkpt lat="42.7725054603" lon="-0.3426681273">
        <ele>1378.19</ele>
        <time>2022-07-14T13:37:04Z</time>
      </trkpt>
      <trkpt lat="42.7725129202" lon="-0.3427188378">
        <ele>1377.71</ele>
        <time>2022-07-14T13:37:07Z</time>
      </trkpt>
      <trkpt lat="42.7724777162" lon="-0.3429759946">
        <ele>1377.23</ele>
        <time>2022-07-14T13:37:22Z</time>
      </trkpt>
      <trkpt lat="42.7724645566" lon="-0.3430770803">
        <ele>1378.19</ele>
        <time>2022-07-14T13:37:29Z</time>
      </trkpt>
      <trkpt lat="42.7724482957" lon="-0.3433105163">
        <ele>1380.59</ele>
        <time>2022-07-14T13:37:45Z</time>
      </trkpt>
      <trkpt lat="42.7724772971" lon="-0.3435067367">
        <ele>1383.96</ele>
        <time>2022-07-14T13:38:00Z</time>
      </trkpt>
      <trkpt lat="42.7724858467" lon="-0.3436603770">
        <ele>1386.36</ele>
        <time>2022-07-14T13:38:14Z</time>
      </trkpt>
      <trkpt lat="42.7724854276" lon="-0.3438277636">
        <ele>1388.76</ele>
        <time>2022-07-14T13:38:26Z</time>
      </trkpt>
      <trkpt lat="42.7725110762" lon="-0.3440555837">
        <ele>1390.20</ele>
        <time>2022-07-14T13:38:42Z</time>
      </trkpt>
      <trkpt lat="42.7725724317" lon="-0.3442783747">
        <ele>1392.13</ele>
        <time>2022-07-14T13:38:57Z</time>
      </trkpt>
      <trkpt lat="42.7726267464" lon="-0.3444849886">
        <ele>1393.57</ele>
        <time>2022-07-14T13:39:12Z</time>
      </trkpt>
      <trkpt lat="42.7726667281" lon="-0.3447518684">
        <ele>1395.01</ele>
        <time>2022-07-14T13:39:28Z</time>
      </trkpt>
      <trkpt lat="42.7726703323" lon="-0.3448252939">
        <ele>1395.01</ele>
        <time>2022-07-14T13:39:32Z</time>
      </trkpt>
      <trkpt lat="42.7726698294" lon="-0.3449128009">
        <ele>1395.01</ele>
        <time>2022-07-14T13:39:37Z</time>
      </trkpt>
      <trkpt lat="42.7726729307" lon="-0.3451749869">
        <ele>1395.49</ele>
        <time>2022-07-14T13:39:52Z</time>
      </trkpt>
      <trkpt lat="42.7726836596" lon="-0.3453386016">
        <ele>1396.45</ele>
        <time>2022-07-14T13:40:01Z</time>
      </trkpt>
      <trkpt lat="42.7726886887" lon="-0.3454893082">
        <ele>1396.45</ele>
        <time>2022-07-14T13:40:10Z</time>
      </trkpt>
      <trkpt lat="42.7726877667" lon="-0.3455192316">
        <ele>1396.45</ele>
        <time>2022-07-14T13:40:12Z</time>
      </trkpt>
      <trkpt lat="42.7726957295" lon="-0.3456033859">
        <ele>1396.93</ele>
        <time>2022-07-14T13:40:17Z</time>
      </trkpt>
      <trkpt lat="42.7726373076" lon="-0.3458418511">
        <ele>1398.37</ele>
        <time>2022-07-14T13:40:32Z</time>
      </trkpt>
      <trkpt lat="42.7726325300" lon="-0.3458732832">
        <ele>1398.86</ele>
        <time>2022-07-14T13:40:34Z</time>
      </trkpt>
      <trkpt lat="42.7725953981" lon="-0.3459577728">
        <ele>1399.82</ele>
        <time>2022-07-14T13:40:41Z</time>
      </trkpt>
      <trkpt lat="42.7724854276" lon="-0.3461351339">
        <ele>1401.74</ele>
        <time>2022-07-14T13:40:56Z</time>
      </trkpt>
      <trkpt lat="42.7724682447" lon="-0.3461510595">
        <ele>1402.70</ele>
        <time>2022-07-14T13:40:58Z</time>
      </trkpt>
      <trkpt lat="42.7723503113" lon="-0.3463227209">
        <ele>1405.10</ele>
        <time>2022-07-14T13:41:15Z</time>
      </trkpt>
      <trkpt lat="42.7722716052" lon="-0.3464268241">
        <ele>1408.47</ele>
        <time>2022-07-14T13:41:28Z</time>
      </trkpt>
      <trkpt lat="42.7722510695" lon="-0.3464841563">
        <ele>1409.43</ele>
        <time>2022-07-14T13:41:35Z</time>
      </trkpt>
      <trkpt lat="42.7722301986" lon="-0.3466270678">
        <ele>1410.39</ele>
        <time>2022-07-14T13:41:45Z</time>
      </trkpt>
      <trkpt lat="42.7722076513" lon="-0.3467854857">
        <ele>1412.79</ele>
        <time>2022-07-14T13:41:58Z</time>
      </trkpt>
      <trkpt lat="42.7721923962" lon="-0.3469858132">
        <ele>1415.20</ele>
        <time>2022-07-14T13:42:14Z</time>
      </trkpt>
      <trkpt lat="42.7722016163" lon="-0.3470302373">
        <ele>1416.64</ele>
        <time>2022-07-14T13:42:18Z</time>
      </trkpt>
      <trkpt lat="42.7722531650" lon="-0.3471672814">
        <ele>1419.52</ele>
        <time>2022-07-14T13:42:31Z</time>
      </trkpt>
      <trkpt lat="42.7722564340" lon="-0.3471740708">
        <ele>1419.52</ele>
        <time>2022-07-14T13:42:32Z</time>
      </trkpt>
      <trkpt lat="42.7722838428" lon="-0.3472733125">
        <ele>1420.97</ele>
        <time>2022-07-14T13:42:41Z</time>
      </trkpt>
      <trkpt lat="42.7723000199" lon="-0.3473723866">
        <ele>1419.52</ele>
        <time>2022-07-14T13:42:47Z</time>
      </trkpt>
      <trkpt lat="42.7723188791" lon="-0.3475005459">
        <ele>1419.04</ele>
        <time>2022-07-14T13:42:54Z</time>
      </trkpt>
      <trkpt lat="42.7722956613" lon="-0.3475973569">
        <ele>1419.04</ele>
        <time>2022-07-14T13:43:01Z</time>
      </trkpt>
      <trkpt lat="42.7722606249" lon="-0.3476812597">
        <ele>1420.49</ele>
        <time>2022-07-14T13:43:07Z</time>
      </trkpt>
      <trkpt lat="42.7721613832" lon="-0.3478564415">
        <ele>1422.41</ele>
        <time>2022-07-14T13:43:21Z</time>
      </trkpt>
      <trkpt lat="42.7720535919" lon="-0.3479968384">
        <ele>1424.33</ele>
        <time>2022-07-14T13:43:35Z</time>
      </trkpt>
      <trkpt lat="42.7719540987" lon="-0.3481515683">
        <ele>1427.21</ele>
        <time>2022-07-14T13:43:50Z</time>
      </trkpt>
      <trkpt lat="42.7718914859" lon="-0.3482463676">
        <ele>1429.14</ele>
        <time>2022-07-14T13:43:59Z</time>
      </trkpt>
      <trkpt lat="42.7718238439" lon="-0.3483908717">
        <ele>1431.06</ele>
        <time>2022-07-14T13:44:12Z</time>
      </trkpt>
      <trkpt lat="42.7717702836" lon="-0.3485673945">
        <ele>1433.46</ele>
        <time>2022-07-14T13:44:26Z</time>
      </trkpt>
      <trkpt lat="42.7717002947" lon="-0.3487087972">
        <ele>1434.42</ele>
        <time>2022-07-14T13:44:40Z</time>
      </trkpt>
      <trkpt lat="42.7716911584" lon="-0.3487952147">
        <ele>1435.39</ele>
        <time>2022-07-14T13:44:46Z</time>
      </trkpt>
      <trkpt lat="42.7716856264" lon="-0.3488258924">
        <ele>1435.87</ele>
        <time>2022-07-14T13:44:48Z</time>
      </trkpt>
      <trkpt lat="42.7716857940" lon="-0.3489552252">
        <ele>1436.83</ele>
        <time>2022-07-14T13:44:57Z</time>
      </trkpt>
      <trkpt lat="42.7717132866" lon="-0.3491760045">
        <ele>1439.23</ele>
        <time>2022-07-14T13:45:14Z</time>
      </trkpt>
      <trkpt lat="42.7717202436" lon="-0.3493699618">
        <ele>1442.11</ele>
        <time>2022-07-14T13:45:28Z</time>
      </trkpt>
      <trkpt lat="42.7716958523" lon="-0.3495976981">
        <ele>1444.52</ele>
        <time>2022-07-14T13:45:44Z</time>
      </trkpt>
      <trkpt lat="42.7716868836" lon="-0.3497082554">
        <ele>1445.00</ele>
        <time>2022-07-14T13:45:51Z</time>
      </trkpt>
      <trkpt lat="42.7716943435" lon="-0.3499368299">
        <ele>1446.44</ele>
        <time>2022-07-14T13:46:05Z</time>
      </trkpt>
      <trkpt lat="42.7717041504" lon="-0.3500449564">
        <ele>1446.44</ele>
        <time>2022-07-14T13:46:11Z</time>
      </trkpt>
      <trkpt lat="42.7717069164" lon="-0.3501364868">
        <ele>1446.92</ele>
        <time>2022-07-14T13:46:17Z</time>
      </trkpt>
      <trkpt lat="42.7717315592" lon="-0.3503947333">
        <ele>1446.92</ele>
        <time>2022-07-14T13:46:32Z</time>
      </trkpt>
      <trkpt lat="42.7717937529" lon="-0.3506275825">
        <ele>1447.88</ele>
        <time>2022-07-14T13:46:46Z</time>
      </trkpt>
      <trkpt lat="42.7718307171" lon="-0.3508165106">
        <ele>1448.36</ele>
        <time>2022-07-14T13:46:56Z</time>
      </trkpt>
      <trkpt lat="42.7718752250" lon="-0.3510437440">
        <ele>1448.36</ele>
        <time>2022-07-14T13:47:09Z</time>
      </trkpt>
      <trkpt lat="42.7718910668" lon="-0.3511627670">
        <ele>1448.36</ele>
        <time>2022-07-14T13:47:16Z</time>
      </trkpt>
      <trkpt lat="42.7719142009" lon="-0.3512909263">
        <ele>1448.84</ele>
        <time>2022-07-14T13:47:24Z</time>
      </trkpt>
      <trkpt lat="42.7719478123" lon="-0.3515651822">
        <ele>1449.32</ele>
        <time>2022-07-14T13:47:40Z</time>
      </trkpt>
      <trkpt lat="42.7719736286" lon="-0.3517794237">
        <ele>1449.32</ele>
        <time>2022-07-14T13:47:53Z</time>
      </trkpt>
      <trkpt lat="42.7719733771" lon="-0.3518123645">
        <ele>1449.32</ele>
        <time>2022-07-14T13:47:55Z</time>
      </trkpt>
      <trkpt lat="42.7719639894" lon="-0.3519064095">
        <ele>1449.32</ele>
        <time>2022-07-14T13:48:01Z</time>
      </trkpt>
      <trkpt lat="42.7719545178" lon="-0.3519727942">
        <ele>1449.32</ele>
        <time>2022-07-14T13:48:05Z</time>
      </trkpt>
      <trkpt lat="42.7719442081" lon="-0.3520188946">
        <ele>1449.32</ele>
        <time>2022-07-14T13:48:08Z</time>
      </trkpt>
      <trkpt lat="42.7719380893" lon="-0.3521289490">
        <ele>1450.29</ele>
        <time>2022-07-14T13:48:14Z</time>
      </trkpt>
      <trkpt lat="42.7719338145" lon="-0.3522151988">
        <ele>1451.73</ele>
        <time>2022-07-14T13:48:19Z</time>
      </trkpt>
      <trkpt lat="42.7719258517" lon="-0.3522441164">
        <ele>1451.73</ele>
        <time>2022-07-14T13:48:21Z</time>
      </trkpt>
      <trkpt lat="42.7719170507" lon="-0.3523057234">
        <ele>1451.73</ele>
        <time>2022-07-14T13:48:25Z</time>
      </trkpt>
      <trkpt lat="42.7719157096" lon="-0.3525122534">
        <ele>1453.65</ele>
        <time>2022-07-14T13:48:39Z</time>
      </trkpt>
      <trkpt lat="42.7719082497" lon="-0.3525842540">
        <ele>1454.61</ele>
        <time>2022-07-14T13:48:44Z</time>
      </trkpt>
      <trkpt lat="42.7719012089" lon="-0.3526503872">
        <ele>1455.57</ele>
        <time>2022-07-14T13:48:49Z</time>
      </trkpt>
      <trkpt lat="42.7718931623" lon="-0.3526741080">
        <ele>1456.05</ele>
        <time>2022-07-14T13:48:51Z</time>
      </trkpt>
      <trkpt lat="42.7718926594" lon="-0.3526993375">
        <ele>1456.05</ele>
        <time>2022-07-14T13:48:53Z</time>
      </trkpt>
      <trkpt lat="42.7718732972" lon="-0.3529151715">
        <ele>1458.46</ele>
        <time>2022-07-14T13:49:08Z</time>
      </trkpt>
      <trkpt lat="42.7718419489" lon="-0.3530769423">
        <ele>1460.38</ele>
        <time>2022-07-14T13:49:21Z</time>
      </trkpt>
      <trkpt lat="42.7718356624" lon="-0.3532527946">
        <ele>1461.82</ele>
        <time>2022-07-14T13:49:34Z</time>
      </trkpt>
      <trkpt lat="42.7718639933" lon="-0.3534747474">
        <ele>1464.23</ele>
        <time>2022-07-14T13:49:50Z</time>
      </trkpt>
      <trkpt lat="42.7718939167" lon="-0.3536547069">
        <ele>1465.67</ele>
        <time>2022-07-14T13:50:02Z</time>
      </trkpt>
      <trkpt lat="42.7719458006" lon="-0.3539123666">
        <ele>1466.63</ele>
        <time>2022-07-14T13:50:18Z</time>
      </trkpt>
      <trkpt lat="42.7719533443" lon="-0.3540362511">
        <ele>1467.59</ele>
        <time>2022-07-14T13:50:26Z</time>
      </trkpt>
      <trkpt lat="42.7719615586" lon="-0.3541117720">
        <ele>1468.55</ele>
        <time>2022-07-14T13:50:31Z</time>
      </trkpt>
      <trkpt lat="42.7719779033" lon="-0.3542224970">
        <ele>1469.03</ele>
        <time>2022-07-14T13:50:39Z</time>
      </trkpt>
      <trkpt lat="42.7720175497" lon="-0.3544557653">
        <ele>1469.99</ele>
        <time>2022-07-14T13:50:53Z</time>
      </trkpt>
      <trkpt lat="42.7720230818" lon="-0.3544730321">
        <ele>1469.99</ele>
        <time>2022-07-14T13:50:54Z</time>
      </trkpt>
      <trkpt lat="42.7720300388" lon="-0.3545631375">
        <ele>1470.95</ele>
        <time>2022-07-14T13:50:59Z</time>
      </trkpt>
      <trkpt lat="42.7720390912" lon="-0.3547597770">
        <ele>1470.95</ele>
        <time>2022-07-14T13:51:11Z</time>
      </trkpt>
      <trkpt lat="42.7720337268" lon="-0.3549452685">
        <ele>1472.40</ele>
        <time>2022-07-14T13:51:23Z</time>
      </trkpt>
      <trkpt lat="42.7720321342" lon="-0.3549768683">
        <ele>1473.84</ele>
        <time>2022-07-14T13:51:25Z</time>
      </trkpt>
      <trkpt lat="42.7720310446" lon="-0.3551884275">
        <ele>1474.32</ele>
        <time>2022-07-14T13:51:38Z</time>
      </trkpt>
      <trkpt lat="42.7720348164" lon="-0.3554386273">
        <ele>1474.80</ele>
        <time>2022-07-14T13:51:53Z</time>
      </trkpt>
      <trkpt lat="42.7720377501" lon="-0.3554692212">
        <ele>1475.76</ele>
        <time>2022-07-14T13:51:55Z</time>
      </trkpt>
      <trkpt lat="42.7720380854" lon="-0.3557606600">
        <ele>1476.72</ele>
        <time>2022-07-14T13:52:11Z</time>
      </trkpt>
      <trkpt lat="42.7720385883" lon="-0.3558195010">
        <ele>1476.72</ele>
        <time>2022-07-14T13:52:14Z</time>
      </trkpt>
      <trkpt lat="42.7719074115" lon="-0.3560389392">
        <ele>1476.72</ele>
        <time>2022-07-14T13:52:31Z</time>
      </trkpt>
      <trkpt lat="42.7718992811" lon="-0.3560484946">
        <ele>1477.20</ele>
        <time>2022-07-14T13:52:32Z</time>
      </trkpt>
      <trkpt lat="42.7718116064" lon="-0.3561675176">
        <ele>1477.68</ele>
        <time>2022-07-14T13:52:43Z</time>
      </trkpt>
      <trkpt lat="42.7718011290" lon="-0.3563784063">
        <ele>1477.68</ele>
        <time>2022-07-14T13:52:56Z</time>
      </trkpt>
      <trkpt lat="42.7718217485" lon="-0.3566472977">
        <ele>1479.61</ele>
        <time>2022-07-14T13:53:11Z</time>
      </trkpt>
      <trkpt lat="42.7718289569" lon="-0.3567928914">
        <ele>1479.13</ele>
        <time>2022-07-14T13:53:20Z</time>
      </trkpt>
      <trkpt lat="42.7717709541" lon="-0.3570735175">
        <ele>1478.65</ele>
        <time>2022-07-14T13:53:35Z</time>
      </trkpt>
      <trkpt lat="42.7716868836" lon="-0.3573206160">
        <ele>1480.57</ele>
        <time>2022-07-14T13:53:50Z</time>
      </trkpt>
      <trkpt lat="42.7716520149" lon="-0.3575320914">
        <ele>1481.05</ele>
        <time>2022-07-14T13:54:03Z</time>
      </trkpt>
      <trkpt lat="42.7716888115" lon="-0.3577669524">
        <ele>1482.01</ele>
        <time>2022-07-14T13:54:17Z</time>
      </trkpt>
      <trkpt lat="42.7717220876" lon="-0.3580205888">
        <ele>1482.01</ele>
        <time>2022-07-14T13:54:31Z</time>
      </trkpt>
      <trkpt lat="42.7717300504" lon="-0.3581122868">
        <ele>1482.01</ele>
        <time>2022-07-14T13:54:36Z</time>
      </trkpt>
      <trkpt lat="42.7717379294" lon="-0.3582534380">
        <ele>1482.01</ele>
        <time>2022-07-14T13:54:44Z</time>
      </trkpt>
      <trkpt lat="42.7717277873" lon="-0.3585427813">
        <ele>1482.01</ele>
        <time>2022-07-14T13:54:59Z</time>
      </trkpt>
      <trkpt lat="42.7717285417" lon="-0.3585780691">
        <ele>1482.01</ele>
        <time>2022-07-14T13:55:01Z</time>
      </trkpt>
      <trkpt lat="42.7717381809" lon="-0.3587110061">
        <ele>1480.57</ele>
        <time>2022-07-14T13:55:08Z</time>
      </trkpt>
      <trkpt lat="42.7717622370" lon="-0.3589631338">
        <ele>1481.53</ele>
        <time>2022-07-14T13:55:22Z</time>
      </trkpt>
      <trkpt lat="42.7717884723" lon="-0.3591233958">
        <ele>1482.97</ele>
        <time>2022-07-14T13:55:32Z</time>
      </trkpt>
      <trkpt lat="42.7717895620" lon="-0.3591507208">
        <ele>1483.45</ele>
        <time>2022-07-14T13:55:34Z</time>
      </trkpt>
      <trkpt lat="42.7718149591" lon="-0.3594078775">
        <ele>1483.45</ele>
        <time>2022-07-14T13:55:49Z</time>
      </trkpt>
      <trkpt lat="42.7718199883" lon="-0.3594774473">
        <ele>1483.45</ele>
        <time>2022-07-14T13:55:53Z</time>
      </trkpt>
      <trkpt lat="42.7718349919" lon="-0.3596734162">
        <ele>1484.89</ele>
        <time>2022-07-14T13:56:04Z</time>
      </trkpt>
      <trkpt lat="42.7718032245" lon="-0.3599635977">
        <ele>1484.89</ele>
        <time>2022-07-14T13:56:20Z</time>
      </trkpt>
      <trkpt lat="42.7717927471" lon="-0.3600387834">
        <ele>1483.93</ele>
        <time>2022-07-14T13:56:24Z</time>
      </trkpt>
      <trkpt lat="42.7717945073" lon="-0.3601340018">
        <ele>1483.93</ele>
        <time>2022-07-14T13:56:29Z</time>
      </trkpt>
      <trkpt lat="42.7717967704" lon="-0.3602398653">
        <ele>1484.89</ele>
        <time>2022-07-14T13:56:35Z</time>
      </trkpt>
      <trkpt lat="42.7717686072" lon="-0.3604269493">
        <ele>1486.34</ele>
        <time>2022-07-14T13:56:48Z</time>
      </trkpt>
      <trkpt lat="42.7717189863" lon="-0.3606334794">
        <ele>1487.78</ele>
        <time>2022-07-14T13:57:02Z</time>
      </trkpt>
      <trkpt lat="42.7716929186" lon="-0.3607771453">
        <ele>1489.22</ele>
        <time>2022-07-14T13:57:10Z</time>
      </trkpt>
      <trkpt lat="42.7716915775" lon="-0.3609320428">
        <ele>1488.26</ele>
        <time>2022-07-14T13:57:20Z</time>
      </trkpt>
      <trkpt lat="42.7717196569" lon="-0.3612356354">
        <ele>1489.22</ele>
        <time>2022-07-14T13:57:37Z</time>
      </trkpt>
      <trkpt lat="42.7717277035" lon="-0.3612704203">
        <ele>1488.26</ele>
        <time>2022-07-14T13:57:39Z</time>
      </trkpt>
      <trkpt lat="42.7717499156" lon="-0.3613326140">
        <ele>1488.26</ele>
        <time>2022-07-14T13:57:43Z</time>
      </trkpt>
      <trkpt lat="42.7717929985" lon="-0.3615101427">
        <ele>1489.22</ele>
        <time>2022-07-14T13:57:53Z</time>
      </trkpt>
      <trkpt lat="42.7718448825" lon="-0.3617276531">
        <ele>1490.66</ele>
        <time>2022-07-14T13:58:07Z</time>
      </trkpt>
      <trkpt lat="42.7719033882" lon="-0.3619682137">
        <ele>1492.10</ele>
        <time>2022-07-14T13:58:23Z</time>
      </trkpt>
      <trkpt lat="42.7719225828" lon="-0.3620268032">
        <ele>1492.10</ele>
        <time>2022-07-14T13:58:27Z</time>
      </trkpt>
      <trkpt lat="42.7719392627" lon="-0.3620527871">
        <ele>1493.06</ele>
        <time>2022-07-14T13:58:29Z</time>
      </trkpt>
      <trkpt lat="42.7720205672" lon="-0.3622120433">
        <ele>1493.55</ele>
        <time>2022-07-14T13:58:41Z</time>
      </trkpt>
      <trkpt lat="42.7720322181" lon="-0.3622405417">
        <ele>1493.55</ele>
        <time>2022-07-14T13:58:43Z</time>
      </trkpt>
      <trkpt lat="42.7720906399" lon="-0.3623235226">
        <ele>1494.51</ele>
        <time>2022-07-14T13:58:50Z</time>
      </trkpt>
      <trkpt lat="42.7721628919" lon="-0.3623663541">
        <ele>1494.99</ele>
        <time>2022-07-14T13:58:57Z</time>
      </trkpt>
      <trkpt lat="42.7722300310" lon="-0.3623222653">
        <ele>1495.47</ele>
        <time>2022-07-14T13:59:04Z</time>
      </trkpt>
      <trkpt lat="42.7722463757" lon="-0.3620625939">
        <ele>1497.39</ele>
        <time>2022-07-14T13:59:21Z</time>
      </trkpt>
      <trkpt lat="42.7722400054" lon="-0.3617928643">
        <ele>1498.83</ele>
        <time>2022-07-14T13:59:38Z</time>
      </trkpt>
      <trkpt lat="42.7723251656" lon="-0.3615442570">
        <ele>1500.27</ele>
        <time>2022-07-14T13:59:54Z</time>
      </trkpt>
      <trkpt lat="42.7723951545" lon="-0.3613174427">
        <ele>1501.24</ele>
        <time>2022-07-14T14:00:08Z</time>
      </trkpt>
      <trkpt lat="42.7724710107" lon="-0.3611001000">
        <ele>1502.20</ele>
        <time>2022-07-14T14:00:22Z</time>
      </trkpt>
      <trkpt lat="42.7725476213" lon="-0.3608841822">
        <ele>1503.16</ele>
        <time>2022-07-14T14:00:37Z</time>
      </trkpt>
      <trkpt lat="42.7725099865" lon="-0.3606328089">
        <ele>1504.60</ele>
        <time>2022-07-14T14:00:54Z</time>
      </trkpt>
      <trkpt lat="42.7724627964" lon="-0.3603928350">
        <ele>1506.52</ele>
        <time>2022-07-14T14:01:11Z</time>
      </trkpt>
      <trkpt lat="42.7724192105" lon="-0.3601440601">
        <ele>1507.48</ele>
        <time>2022-07-14T14:01:27Z</time>
      </trkpt>
      <trkpt lat="42.7724735253" lon="-0.3599106241">
        <ele>1509.41</ele>
        <time>2022-07-14T14:01:42Z</time>
      </trkpt>
      <trkpt lat="42.7724993415" lon="-0.3598471731">
        <ele>1510.37</ele>
        <time>2022-07-14T14:01:47Z</time>
      </trkpt>
      <trkpt lat="42.7725193743" lon="-0.3598018270">
        <ele>1510.85</ele>
        <time>2022-07-14T14:01:53Z</time>
      </trkpt>
      <trkpt lat="42.7725823224" lon="-0.3598273918">
        <ele>1511.81</ele>
        <time>2022-07-14T14:02:00Z</time>
      </trkpt>
      <trkpt lat="42.7726061270" lon="-0.3598801978">
        <ele>1514.69</ele>
        <time>2022-07-14T14:02:03Z</time>
      </trkpt>
      <trkpt lat="42.7726908680" lon="-0.3600602411">
        <ele>1513.73</ele>
        <time>2022-07-14T14:02:16Z</time>
      </trkpt>
      <trkpt lat="42.7727746870" lon="-0.3602934256">
        <ele>1513.73</ele>
        <time>2022-07-14T14:02:29Z</time>
      </trkpt>
      <trkpt lat="42.7727819793" lon="-0.3603175655">
        <ele>1513.73</ele>
        <time>2022-07-14T14:02:30Z</time>
      </trkpt>
      <trkpt lat="42.7728172671" lon="-0.3606238402">
        <ele>1514.21</ele>
        <time>2022-07-14T14:02:46Z</time>
      </trkpt>
      <trkpt lat="42.7728499565" lon="-0.3607102577">
        <ele>1514.21</ele>
        <time>2022-07-14T14:02:51Z</time>
      </trkpt>
      <trkpt lat="42.7728965599" lon="-0.3609845974">
        <ele>1515.18</ele>
        <time>2022-07-14T14:03:07Z</time>
      </trkpt>
      <trkpt lat="42.7729047742" lon="-0.3610389959">
        <ele>1515.18</ele>
        <time>2022-07-14T14:03:10Z</time>
      </trkpt>
      <trkpt lat="42.7729055285" lon="-0.3611299396">
        <ele>1516.14</ele>
        <time>2022-07-14T14:03:15Z</time>
      </trkpt>
      <trkpt lat="42.7729160897" lon="-0.3612363897">
        <ele>1514.69</ele>
        <time>2022-07-14T14:03:21Z</time>
      </trkpt>
      <trkpt lat="42.7729952987" lon="-0.3615688998">
        <ele>1514.21</ele>
        <time>2022-07-14T14:03:40Z</time>
      </trkpt>
      <trkpt lat="42.7730103862" lon="-0.3616049420">
        <ele>1515.18</ele>
        <time>2022-07-14T14:03:42Z</time>
      </trkpt>
      <trkpt lat="42.7730232105" lon="-0.3616407327">
        <ele>1513.73</ele>
        <time>2022-07-14T14:03:44Z</time>
      </trkpt>
      <trkpt lat="42.7731647808" lon="-0.3618195187">
        <ele>1513.73</ele>
        <time>2022-07-14T14:03:58Z</time>
      </trkpt>
      <trkpt lat="42.7732827142" lon="-0.3620456625">
        <ele>1512.29</ele>
        <time>2022-07-14T14:04:13Z</time>
      </trkpt>
      <trkpt lat="42.7733638510" lon="-0.3622070979">
        <ele>1511.81</ele>
        <time>2022-07-14T14:04:24Z</time>
      </trkpt>
      <trkpt lat="42.7733382862" lon="-0.3623880632">
        <ele>1510.37</ele>
        <time>2022-07-14T14:04:33Z</time>
      </trkpt>
      <trkpt lat="42.7732996456" lon="-0.3625236824">
        <ele>1510.85</ele>
        <time>2022-07-14T14:04:49Z</time>
      </trkpt>
      <trkpt lat="42.7732898388" lon="-0.3625397757">
        <ele>1511.81</ele>
        <time>2022-07-14T14:05:01Z</time>
      </trkpt>
      <trkpt lat="42.7732773498" lon="-0.3625586350">
        <ele>1512.29</ele>
        <time>2022-07-14T14:05:34Z</time>
      </trkpt>
      <trkpt lat="42.7732945327" lon="-0.3625500854">
        <ele>1510.37</ele>
        <time>2022-07-14T14:05:45Z</time>
      </trkpt>
      <trkpt lat="42.7733070217" lon="-0.3625521809">
        <ele>1511.81</ele>
        <time>2022-07-14T14:05:56Z</time>
      </trkpt>
      <trkpt lat="42.7733069379" lon="-0.3625657596">
        <ele>1512.29</ele>
        <time>2022-07-14T14:06:27Z</time>
      </trkpt>
      <trkpt lat="42.7733240370" lon="-0.3625786677">
        <ele>1513.25</ele>
        <time>2022-07-14T14:06:31Z</time>
      </trkpt>
      <trkpt lat="42.7733772621" lon="-0.3626208287">
        <ele>1513.25</ele>
        <time>2022-07-14T14:06:36Z</time>
      </trkpt>
      <trkpt lat="42.7733957022" lon="-0.3626444656">
        <ele>1512.29</ele>
        <time>2022-07-14T14:06:38Z</time>
      </trkpt>
      <trkpt lat="42.7734740730" lon="-0.3627854493">
        <ele>1508.45</ele>
        <time>2022-07-14T14:06:49Z</time>
      </trkpt>
      <trkpt lat="42.7734779287" lon="-0.3627981897">
        <ele>1511.81</ele>
        <time>2022-07-14T14:06:50Z</time>
      </trkpt>
      <trkpt lat="42.7735093608" lon="-0.3628606349">
        <ele>1509.89</ele>
        <time>2022-07-14T14:06:55Z</time>
      </trkpt>
      <trkpt lat="42.7736397833" lon="-0.3631088231">
        <ele>1509.41</ele>
        <time>2022-07-14T14:07:11Z</time>
      </trkpt>
      <trkpt lat="42.7736568823" lon="-0.3631423507">
        <ele>1511.33</ele>
        <time>2022-07-14T14:07:13Z</time>
      </trkpt>
      <trkpt lat="42.7737194952" lon="-0.3632731922">
        <ele>1509.89</ele>
        <time>2022-07-14T14:07:21Z</time>
      </trkpt>
      <trkpt lat="42.7737645898" lon="-0.3635600209">
        <ele>1508.45</ele>
        <time>2022-07-14T14:07:37Z</time>
      </trkpt>
      <trkpt lat="42.7737884782" lon="-0.3636466060">
        <ele>1509.89</ele>
        <time>2022-07-14T14:07:42Z</time>
      </trkpt>
      <trkpt lat="42.7738271188" lon="-0.3637542296">
        <ele>1510.85</ele>
        <time>2022-07-14T14:07:49Z</time>
      </trkpt>
      <trkpt lat="42.7739372570" lon="-0.3639813792">
        <ele>1510.85</ele>
        <time>2022-07-14T14:08:04Z</time>
      </trkpt>
      <trkpt lat="42.7740283683" lon="-0.3641879093">
        <ele>1509.89</ele>
        <time>2022-07-14T14:08:17Z</time>
      </trkpt>
      <trkpt lat="42.7740630694" lon="-0.3642659448">
        <ele>1509.89</ele>
        <time>2022-07-14T14:08:22Z</time>
      </trkpt>
      <trkpt lat="42.7741174679" lon="-0.3643480875">
        <ele>1509.89</ele>
        <time>2022-07-14T14:08:28Z</time>
      </trkpt>
      <trkpt lat="42.7741864510" lon="-0.3644917533">
        <ele>1511.33</ele>
        <time>2022-07-14T14:08:37Z</time>
      </trkpt>
      <trkpt lat="42.7742269356" lon="-0.3645520192">
        <ele>1511.33</ele>
        <time>2022-07-14T14:08:41Z</time>
      </trkpt>
      <trkpt lat="42.7742431965" lon="-0.3645966947">
        <ele>1511.33</ele>
        <time>2022-07-14T14:08:44Z</time>
      </trkpt>
      <trkpt lat="42.7742653247" lon="-0.3646577150">
        <ele>1509.89</ele>
        <time>2022-07-14T14:08:48Z</time>
      </trkpt>
      <trkpt lat="42.7743191365" lon="-0.3647450544">
        <ele>1509.89</ele>
        <time>2022-07-14T14:08:54Z</time>
      </trkpt>
      <trkpt lat="42.7743726969" lon="-0.3648947552">
        <ele>1511.33</ele>
        <time>2022-07-14T14:09:03Z</time>
      </trkpt>
      <trkpt lat="42.7744504809" lon="-0.3650775645">
        <ele>1510.37</ele>
        <time>2022-07-14T14:09:15Z</time>
      </trkpt>
      <trkpt lat="42.7745253313" lon="-0.3653469589">
        <ele>1508.93</ele>
        <time>2022-07-14T14:09:30Z</time>
      </trkpt>
      <trkpt lat="42.7745747846" lon="-0.3655662294">
        <ele>1508.45</ele>
        <time>2022-07-14T14:09:43Z</time>
      </trkpt>
      <trkpt lat="42.7746037021" lon="-0.3658249788">
        <ele>1507.48</ele>
        <time>2022-07-14T14:09:58Z</time>
      </trkpt>
      <trkpt lat="42.7746082284" lon="-0.3658588417">
        <ele>1508.93</ele>
        <time>2022-07-14T14:10:00Z</time>
      </trkpt>
      <trkpt lat="42.7746145148" lon="-0.3661632724">
        <ele>1507.48</ele>
        <time>2022-07-14T14:10:16Z</time>
      </trkpt>
      <trkpt lat="42.7746104915" lon="-0.3664851375">
        <ele>1507.48</ele>
        <time>2022-07-14T14:10:33Z</time>
      </trkpt>
      <trkpt lat="42.7746188734" lon="-0.3667700384">
        <ele>1506.04</ele>
        <time>2022-07-14T14:10:48Z</time>
      </trkpt>
      <trkpt lat="42.7746540774" lon="-0.3669917397">
        <ele>1502.68</ele>
        <time>2022-07-14T14:11:00Z</time>
      </trkpt>
      <trkpt lat="42.7746574301" lon="-0.3670098446">
        <ele>1507.97</ele>
        <time>2022-07-14T14:11:01Z</time>
      </trkpt>
      <trkpt lat="42.7746684942" lon="-0.3670428693">
        <ele>1505.08</ele>
        <time>2022-07-14T14:11:03Z</time>
      </trkpt>
      <trkpt lat="42.7746720146" lon="-0.3670606390">
        <ele>1505.08</ele>
        <time>2022-07-14T14:11:04Z</time>
      </trkpt>
      <trkpt lat="42.7746974118" lon="-0.3671318013">
        <ele>1505.08</ele>
        <time>2022-07-14T14:11:09Z</time>
      </trkpt>
      <trkpt lat="42.7746954001" lon="-0.3672622237">
        <ele>1505.08</ele>
        <time>2022-07-14T14:11:16Z</time>
      </trkpt>
      <trkpt lat="42.7747929655" lon="-0.3675585240">
        <ele>1503.16</ele>
        <time>2022-07-14T14:11:33Z</time>
      </trkpt>
      <trkpt lat="42.7749004215" lon="-0.3678059578">
        <ele>1502.20</ele>
        <time>2022-07-14T14:11:49Z</time>
      </trkpt>
      <trkpt lat="42.7749285847" lon="-0.3678686544">
        <ele>1503.16</ele>
        <time>2022-07-14T14:11:53Z</time>
      </trkpt>
      <trkpt lat="42.7749455161" lon="-0.3678920399">
        <ele>1502.20</ele>
        <time>2022-07-14T14:11:55Z</time>
      </trkpt>
      <trkpt lat="42.7750971448" lon="-0.3681191895">
        <ele>1500.27</ele>
        <time>2022-07-14T14:12:11Z</time>
      </trkpt>
      <trkpt lat="42.7752348594" lon="-0.3683376219">
        <ele>1499.79</ele>
        <time>2022-07-14T14:12:27Z</time>
      </trkpt>
      <trkpt lat="42.7753849793" lon="-0.3685323335">
        <ele>1497.39</ele>
        <time>2022-07-14T14:12:42Z</time>
      </trkpt>
      <trkpt lat="42.7753764298" lon="-0.3686299827">
        <ele>1492.58</ele>
        <time>2022-07-14T14:12:48Z</time>
      </trkpt>
      <trkpt lat="42.7753726579" lon="-0.3686452378">
        <ele>1495.95</ele>
        <time>2022-07-14T14:12:49Z</time>
      </trkpt>
      <trkpt lat="42.7753600013" lon="-0.3686775081">
        <ele>1492.58</ele>
        <time>2022-07-14T14:12:51Z</time>
      </trkpt>
      <trkpt lat="42.7753454167" lon="-0.3687065933">
        <ele>1492.10</ele>
        <time>2022-07-14T14:12:53Z</time>
      </trkpt>
      <trkpt lat="42.7751762699" lon="-0.3688836191">
        <ele>1490.66</ele>
        <time>2022-07-14T14:13:09Z</time>
      </trkpt>
      <trkpt lat="42.7750907745" lon="-0.3688815236">
        <ele>1489.70</ele>
        <time>2022-07-14T14:13:16Z</time>
      </trkpt>
      <trkpt lat="42.7750037704" lon="-0.3689873870">
        <ele>1488.74</ele>
        <time>2022-07-14T14:13:25Z</time>
      </trkpt>
      <trkpt lat="42.7749997471" lon="-0.3690230940">
        <ele>1489.70</ele>
        <time>2022-07-14T14:13:27Z</time>
      </trkpt>
      <trkpt lat="42.7750055306" lon="-0.3691132832">
        <ele>1489.70</ele>
        <time>2022-07-14T14:13:32Z</time>
      </trkpt>
      <trkpt lat="42.7750331908" lon="-0.3693645727">
        <ele>1489.70</ele>
        <time>2022-07-14T14:13:46Z</time>
      </trkpt>
      <trkpt lat="42.7750569116" lon="-0.3694815841">
        <ele>1490.18</ele>
        <time>2022-07-14T14:13:53Z</time>
      </trkpt>
      <trkpt lat="42.7751056943" lon="-0.3696996812">
        <ele>1491.62</ele>
        <time>2022-07-14T14:14:06Z</time>
      </trkpt>
      <trkpt lat="42.7751294989" lon="-0.3697613720">
        <ele>1490.18</ele>
        <time>2022-07-14T14:14:10Z</time>
      </trkpt>
      <trkpt lat="42.7751866635" lon="-0.3700362146">
        <ele>1490.18</ele>
        <time>2022-07-14T14:14:26Z</time>
      </trkpt>
      <trkpt lat="42.7751911059" lon="-0.3700927086">
        <ele>1492.10</ele>
        <time>2022-07-14T14:14:29Z</time>
      </trkpt>
      <trkpt lat="42.7752285730" lon="-0.3702729195">
        <ele>1492.10</ele>
        <time>2022-07-14T14:14:40Z</time>
      </trkpt>
      <trkpt lat="42.7752639446" lon="-0.3705226164">
        <ele>1493.06</ele>
        <time>2022-07-14T14:14:55Z</time>
      </trkpt>
      <trkpt lat="42.7753479313" lon="-0.3707762528">
        <ele>1492.58</ele>
        <time>2022-07-14T14:15:11Z</time>
      </trkpt>
      <trkpt lat="42.7754043415" lon="-0.3710496705">
        <ele>1493.55</ele>
        <time>2022-07-14T14:15:28Z</time>
      </trkpt>
      <trkpt lat="42.7754052635" lon="-0.3710598964">
        <ele>1493.55</ele>
        <time>2022-07-14T14:15:29Z</time>
      </trkpt>
      <trkpt lat="42.7754459996" lon="-0.3712535184">
        <ele>1496.91</ele>
        <time>2022-07-14T14:15:41Z</time>
      </trkpt>
      <trkpt lat="42.7754568122" lon="-0.3713043127">
        <ele>1495.47</ele>
        <time>2022-07-14T14:15:44Z</time>
      </trkpt>
      <trkpt lat="42.7754728217" lon="-0.3714221623">
        <ele>1496.91</ele>
        <time>2022-07-14T14:15:51Z</time>
      </trkpt>
      <trkpt lat="42.7754682116" lon="-0.3716645669">
        <ele>1494.03</ele>
        <time>2022-07-14T14:16:06Z</time>
      </trkpt>
      <trkpt lat="42.7754687145" lon="-0.3716934845">
        <ele>1497.39</ele>
        <time>2022-07-14T14:16:08Z</time>
      </trkpt>
      <trkpt lat="42.7754692174" lon="-0.3717088234">
        <ele>1497.39</ele>
        <time>2022-07-14T14:16:09Z</time>
      </trkpt>
      <trkpt lat="42.7754646074" lon="-0.3717736155">
        <ele>1494.99</ele>
        <time>2022-07-14T14:16:13Z</time>
      </trkpt>
      <trkpt lat="42.7754658647" lon="-0.3718089033">
        <ele>1497.87</ele>
        <time>2022-07-14T14:16:15Z</time>
      </trkpt>
      <trkpt lat="42.7755047567" lon="-0.3720689937">
        <ele>1496.91</ele>
        <time>2022-07-14T14:16:31Z</time>
      </trkpt>
      <trkpt lat="42.7755366918" lon="-0.3723039385">
        <ele>1498.35</ele>
        <time>2022-07-14T14:16:45Z</time>
      </trkpt>
      <trkpt lat="42.7755444869" lon="-0.3724346962">
        <ele>1496.91</ele>
        <time>2022-07-14T14:16:53Z</time>
      </trkpt>
      <trkpt lat="42.7755500190" lon="-0.3726203553">
        <ele>1499.31</ele>
        <time>2022-07-14T14:17:03Z</time>
      </trkpt>
      <trkpt lat="42.7755556349" lon="-0.3727680445">
        <ele>1499.31</ele>
        <time>2022-07-14T14:17:12Z</time>
      </trkpt>
      <trkpt lat="42.7755791880" lon="-0.3729871474">
        <ele>1498.35</ele>
        <time>2022-07-14T14:17:26Z</time>
      </trkpt>
      <trkpt lat="42.7755886596" lon="-0.3730619140">
        <ele>1499.79</ele>
        <time>2022-07-14T14:17:31Z</time>
      </trkpt>
      <trkpt lat="42.7756155655" lon="-0.3732101060">
        <ele>1499.31</ele>
        <time>2022-07-14T14:17:41Z</time>
      </trkpt>
      <trkpt lat="42.7756002266" lon="-0.3733503353">
        <ele>1499.31</ele>
        <time>2022-07-14T14:17:49Z</time>
      </trkpt>
      <trkpt lat="42.7756083570" lon="-0.3734361660">
        <ele>1501.72</ele>
        <time>2022-07-14T14:17:55Z</time>
      </trkpt>
      <trkpt lat="42.7756289765" lon="-0.3735533450">
        <ele>1500.27</ele>
        <time>2022-07-14T14:18:02Z</time>
      </trkpt>
      <trkpt lat="42.7756423876" lon="-0.3736047260">
        <ele>1502.20</ele>
        <time>2022-07-14T14:18:05Z</time>
      </trkpt>
      <trkpt lat="42.7757125441" lon="-0.3738830891">
        <ele>1502.20</ele>
        <time>2022-07-14T14:18:23Z</time>
      </trkpt>
      <trkpt lat="42.7757631708" lon="-0.3740632161">
        <ele>1502.68</ele>
        <time>2022-07-14T14:18:35Z</time>
      </trkpt>
      <trkpt lat="42.7758061700" lon="-0.3742438462">
        <ele>1505.56</ele>
        <time>2022-07-14T14:18:47Z</time>
      </trkpt>
      <trkpt lat="42.7758118697" lon="-0.3742577601">
        <ele>1505.56</ele>
        <time>2022-07-14T14:18:48Z</time>
      </trkpt>
      <trkpt lat="42.7758575510" lon="-0.3743813094">
        <ele>1504.60</ele>
        <time>2022-07-14T14:18:56Z</time>
      </trkpt>
      <trkpt lat="42.7759405319" lon="-0.3746170085">
        <ele>1506.04</ele>
        <time>2022-07-14T14:19:12Z</time>
      </trkpt>
      <trkpt lat="42.7759651747" lon="-0.3746870812">
        <ele>1507.48</ele>
        <time>2022-07-14T14:19:17Z</time>
      </trkpt>
      <trkpt lat="42.7760158014" lon="-0.3748215269">
        <ele>1507.00</ele>
        <time>2022-07-14T14:19:27Z</time>
      </trkpt>
      <trkpt lat="42.7760508377" lon="-0.3749393765">
        <ele>1508.45</ele>
        <time>2022-07-14T14:19:35Z</time>
      </trkpt>
      <trkpt lat="42.7760749776" lon="-0.3749931045">
        <ele>1507.00</ele>
        <time>2022-07-14T14:19:39Z</time>
      </trkpt>
      <trkpt lat="42.7760920767" lon="-0.3750271350">
        <ele>1508.45</ele>
        <time>2022-07-14T14:19:42Z</time>
      </trkpt>
      <trkpt lat="42.7761678491" lon="-0.3752433881">
        <ele>1508.93</ele>
        <time>2022-07-14T14:19:57Z</time>
      </trkpt>
      <trkpt lat="42.7762578707" lon="-0.3754482418">
        <ele>1510.37</ele>
        <time>2022-07-14T14:20:12Z</time>
      </trkpt>
      <trkpt lat="42.7762698568" lon="-0.3754709568">
        <ele>1508.45</ele>
        <time>2022-07-14T14:20:14Z</time>
      </trkpt>
      <trkpt lat="42.7762873750" lon="-0.3754883073">
        <ele>1511.81</ele>
        <time>2022-07-14T14:20:16Z</time>
      </trkpt>
      <trkpt lat="42.7763169631" lon="-0.3754952643">
        <ele>1512.29</ele>
        <time>2022-07-14T14:20:19Z</time>
      </trkpt>
      <trkpt lat="42.7763493173" lon="-0.3755389340">
        <ele>1510.37</ele>
        <time>2022-07-14T14:20:23Z</time>
      </trkpt>
      <trkpt lat="42.7764405124" lon="-0.3757045604">
        <ele>1511.81</ele>
        <time>2022-07-14T14:20:36Z</time>
      </trkpt>
      <trkpt lat="42.7765600383" lon="-0.3758864477">
        <ele>1512.77</ele>
        <time>2022-07-14T14:20:51Z</time>
      </trkpt>
      <trkpt lat="42.7766551729" lon="-0.3758837655">
        <ele>1512.77</ele>
        <time>2022-07-14T14:20:58Z</time>
      </trkpt>
      <trkpt lat="42.7767809853" lon="-0.3759902157">
        <ele>1512.29</ele>
        <time>2022-07-14T14:21:13Z</time>
      </trkpt>
      <trkpt lat="42.7768259961" lon="-0.3759739548">
        <ele>1514.21</ele>
        <time>2022-07-14T14:21:25Z</time>
      </trkpt>
      <trkpt lat="42.7768894471" lon="-0.3760159481">
        <ele>1516.62</ele>
        <time>2022-07-14T14:21:39Z</time>
      </trkpt>
      <trkpt lat="42.7768745273" lon="-0.3760389145">
        <ele>1515.66</ele>
        <time>2022-07-14T14:21:52Z</time>
      </trkpt>
      <trkpt lat="42.7768659778" lon="-0.3760510683">
        <ele>1516.62</ele>
        <time>2022-07-14T14:22:13Z</time>
      </trkpt>
      <trkpt lat="42.7768763714" lon="-0.3760544211">
        <ele>1516.62</ele>
        <time>2022-07-14T14:22:50Z</time>
      </trkpt>
      <trkpt lat="42.7768809814" lon="-0.3760519903">
        <ele>1517.58</ele>
        <time>2022-07-14T14:23:15Z</time>
      </trkpt>
      <trkpt lat="42.7768797241" lon="-0.3760534152">
        <ele>1518.06</ele>
        <time>2022-07-14T14:23:30Z</time>
      </trkpt>
      <trkpt lat="42.7769237291" lon="-0.3761173692">
        <ele>1519.50</ele>
        <time>2022-07-14T14:23:39Z</time>
      </trkpt>
      <trkpt lat="42.7769564185" lon="-0.3761696722">
        <ele>1518.06</ele>
        <time>2022-07-14T14:23:43Z</time>
      </trkpt>
      <trkpt lat="42.7770087216" lon="-0.3762968257">
        <ele>1519.98</ele>
        <time>2022-07-14T14:23:52Z</time>
      </trkpt>
      <trkpt lat="42.7771369647" lon="-0.3764331155">
        <ele>1519.98</ele>
        <time>2022-07-14T14:24:05Z</time>
      </trkpt>
      <trkpt lat="42.7771683969" lon="-0.3764880169">
        <ele>1519.50</ele>
        <time>2022-07-14T14:24:09Z</time>
      </trkpt>
      <trkpt lat="42.7771845739" lon="-0.3765407391">
        <ele>1520.46</ele>
        <time>2022-07-14T14:24:13Z</time>
      </trkpt>
      <trkpt lat="42.7772340272" lon="-0.3766694851">
        <ele>1520.46</ele>
        <time>2022-07-14T14:24:22Z</time>
      </trkpt>
      <trkpt lat="42.7772375476" lon="-0.3767114785">
        <ele>1520.46</ele>
        <time>2022-07-14T14:24:25Z</time>
      </trkpt>
      <trkpt lat="42.7772513777" lon="-0.3767294995">
        <ele>1520.46</ele>
        <time>2022-07-14T14:24:26Z</time>
      </trkpt>
      <trkpt lat="42.7772760205" lon="-0.3767924476">
        <ele>1520.46</ele>
        <time>2022-07-14T14:24:30Z</time>
      </trkpt>
      <trkpt lat="42.7773031779" lon="-0.3769667074">
        <ele>1521.90</ele>
        <time>2022-07-14T14:24:40Z</time>
      </trkpt>
      <trkpt lat="42.7773358673" lon="-0.3771414701">
        <ele>1520.94</ele>
        <time>2022-07-14T14:24:50Z</time>
      </trkpt>
      <trkpt lat="42.7773508709" lon="-0.3772287257">
        <ele>1522.39</ele>
        <time>2022-07-14T14:24:55Z</time>
      </trkpt>
      <trkpt lat="42.7773593366" lon="-0.3773420490">
        <ele>1523.35</ele>
        <time>2022-07-14T14:25:02Z</time>
      </trkpt>
      <trkpt lat="42.7773719095" lon="-0.3773901612">
        <ele>1524.31</ele>
        <time>2022-07-14T14:25:05Z</time>
      </trkpt>
      <trkpt lat="42.7773832250" lon="-0.3774212580">
        <ele>1524.79</ele>
        <time>2022-07-14T14:25:07Z</time>
      </trkpt>
      <trkpt lat="42.7774055209" lon="-0.3774631675">
        <ele>1524.79</ele>
        <time>2022-07-14T14:25:10Z</time>
      </trkpt>
      <trkpt lat="42.7775128093" lon="-0.3776405286">
        <ele>1525.75</ele>
        <time>2022-07-14T14:25:24Z</time>
      </trkpt>
      <trkpt lat="42.7776218578" lon="-0.3777552769">
        <ele>1524.31</ele>
        <time>2022-07-14T14:25:34Z</time>
      </trkpt>
      <trkpt lat="42.7776521165" lon="-0.3777904809">
        <ele>1525.75</ele>
        <time>2022-07-14T14:25:37Z</time>
      </trkpt>
      <trkpt lat="42.7777971234" lon="-0.3779287823">
        <ele>1525.75</ele>
        <time>2022-07-14T14:25:51Z</time>
      </trkpt>
      <trkpt lat="42.7778484207" lon="-0.3780344781">
        <ele>1524.79</ele>
        <time>2022-07-14T14:25:58Z</time>
      </trkpt>
      <trkpt lat="42.7778516896" lon="-0.3781797364">
        <ele>1526.23</ele>
        <time>2022-07-14T14:26:06Z</time>
      </trkpt>
      <trkpt lat="42.7778987121" lon="-0.3784286790">
        <ele>1527.67</ele>
        <time>2022-07-14T14:26:22Z</time>
      </trkpt>
      <trkpt lat="42.7779471595" lon="-0.3785736021">
        <ele>1530.08</ele>
        <time>2022-07-14T14:26:38Z</time>
      </trkpt>
      <trkpt lat="42.7779796813" lon="-0.3786506318">
        <ele>1533.44</ele>
        <time>2022-07-14T14:26:47Z</time>
      </trkpt>
      <trkpt lat="42.7780053299" lon="-0.3787559923">
        <ele>1534.88</ele>
        <time>2022-07-14T14:26:58Z</time>
      </trkpt>
      <trkpt lat="42.7780730557" lon="-0.3789290786">
        <ele>1538.25</ele>
        <time>2022-07-14T14:27:13Z</time>
      </trkpt>
      <trkpt lat="42.7780861314" lon="-0.3789764363">
        <ele>1541.13</ele>
        <time>2022-07-14T14:27:17Z</time>
      </trkpt>
      <trkpt lat="42.7781075053" lon="-0.3790308349">
        <ele>1541.13</ele>
        <time>2022-07-14T14:27:22Z</time>
      </trkpt>
      <trkpt lat="42.7781955991" lon="-0.3791747522">
        <ele>1543.05</ele>
        <time>2022-07-14T14:27:38Z</time>
      </trkpt>
      <trkpt lat="42.7782763168" lon="-0.3793196753">
        <ele>1545.46</ele>
        <time>2022-07-14T14:27:50Z</time>
      </trkpt>
      <trkpt lat="42.7783573698" lon="-0.3794220183">
        <ele>1547.86</ele>
        <time>2022-07-14T14:28:01Z</time>
      </trkpt>
      <trkpt lat="42.7783814259" lon="-0.3794366028">
        <ele>1546.42</ele>
        <time>2022-07-14T14:28:04Z</time>
      </trkpt>
      <trkpt lat="42.7784173843" lon="-0.3794405423">
        <ele>1549.30</ele>
        <time>2022-07-14T14:28:08Z</time>
      </trkpt>
      <trkpt lat="42.7784287836" lon="-0.3794422187">
        <ele>1549.30</ele>
        <time>2022-07-14T14:28:09Z</time>
      </trkpt>
      <trkpt lat="42.7784706093" lon="-0.3794646822">
        <ele>1548.34</ele>
        <time>2022-07-14T14:28:13Z</time>
      </trkpt>
      <trkpt lat="42.7785881236" lon="-0.3795169014">
        <ele>1551.22</ele>
        <time>2022-07-14T14:28:23Z</time>
      </trkpt>
      <trkpt lat="42.7785966732" lon="-0.3795147222">
        <ele>1551.22</ele>
        <time>2022-07-14T14:28:24Z</time>
      </trkpt>
      <trkpt lat="42.7786203939" lon="-0.3795106150">
        <ele>1546.90</ele>
        <time>2022-07-14T14:28:26Z</time>
      </trkpt>
      <trkpt lat="42.7786369063" lon="-0.3795071784">
        <ele>1549.78</ele>
        <time>2022-07-14T14:28:27Z</time>
      </trkpt>
      <trkpt lat="42.7786481380" lon="-0.3795189131">
        <ele>1547.86</ele>
        <time>2022-07-14T14:28:35Z</time>
      </trkpt>
      <trkpt lat="42.7786638122" lon="-0.3795057535">
        <ele>1548.34</ele>
        <time>2022-07-14T14:28:37Z</time>
      </trkpt>
      <trkpt lat="42.7787378244" lon="-0.3794721421">
        <ele>1551.22</ele>
        <time>2022-07-14T14:28:43Z</time>
      </trkpt>
      <trkpt lat="42.7787721902" lon="-0.3794405423">
        <ele>1549.30</ele>
        <time>2022-07-14T14:28:46Z</time>
      </trkpt>
      <trkpt lat="42.7788138483" lon="-0.3793979622">
        <ele>1548.82</ele>
        <time>2022-07-14T14:28:50Z</time>
      </trkpt>
      <trkpt lat="42.7788783051" lon="-0.3793953639">
        <ele>1545.94</ele>
        <time>2022-07-14T14:28:56Z</time>
      </trkpt>
      <trkpt lat="42.7789050434" lon="-0.3793874849">
        <ele>1543.05</ele>
        <time>2022-07-14T14:28:59Z</time>
      </trkpt>
      <trkpt lat="42.7789979987" lon="-0.3793329187">
        <ele>1540.65</ele>
        <time>2022-07-14T14:29:08Z</time>
      </trkpt>
      <trkpt lat="42.7790089790" lon="-0.3793242015">
        <ele>1539.21</ele>
        <time>2022-07-14T14:29:09Z</time>
      </trkpt>
      <trkpt lat="42.7790538222" lon="-0.3793445695">
        <ele>1539.21</ele>
        <time>2022-07-14T14:29:13Z</time>
      </trkpt>
      <trkpt lat="42.7792304289" lon="-0.3793304879">
        <ele>1535.84</ele>
        <time>2022-07-14T14:29:27Z</time>
      </trkpt>
      <trkpt lat="42.7794248890" lon="-0.3792069387">
        <ele>1533.92</ele>
        <time>2022-07-14T14:29:43Z</time>
      </trkpt>
      <trkpt lat="42.7794768568" lon="-0.3791902587">
        <ele>1535.36</ele>
        <time>2022-07-14T14:29:47Z</time>
      </trkpt>
      <trkpt lat="42.7794966381" lon="-0.3791833855">
        <ele>1535.36</ele>
        <time>2022-07-14T14:29:49Z</time>
      </trkpt>
      <trkpt lat="42.7795299981" lon="-0.3791630175">
        <ele>1533.44</ele>
        <time>2022-07-14T14:29:52Z</time>
      </trkpt>
      <trkpt lat="42.7795419842" lon="-0.3791651968">
        <ele>1532.48</ele>
        <time>2022-07-14T14:29:53Z</time>
      </trkpt>
      <trkpt lat="42.7797154896" lon="-0.3791901749">
        <ele>1529.11</ele>
        <time>2022-07-14T14:30:08Z</time>
      </trkpt>
      <trkpt lat="42.7797350194" lon="-0.3791905101">
        <ele>1528.15</ele>
        <time>2022-07-14T14:30:10Z</time>
      </trkpt>
      <trkpt lat="42.7797918487" lon="-0.3792770114">
        <ele>1525.75</ele>
        <time>2022-07-14T14:30:19Z</time>
      </trkpt>
      <trkpt lat="42.7798351832" lon="-0.3795006406">
        <ele>1522.39</ele>
        <time>2022-07-14T14:30:34Z</time>
      </trkpt>
      <trkpt lat="42.7798428107" lon="-0.3795069270">
        <ele>1522.39</ele>
        <time>2022-07-14T14:30:35Z</time>
      </trkpt>
      <trkpt lat="42.7798872348" lon="-0.3795648459">
        <ele>1522.39</ele>
        <time>2022-07-14T14:30:40Z</time>
      </trkpt>
      <trkpt lat="42.7799994685" lon="-0.3798054066">
        <ele>1522.87</ele>
        <time>2022-07-14T14:30:56Z</time>
      </trkpt>
      <trkpt lat="42.7799454890" lon="-0.3800487332">
        <ele>1524.79</ele>
        <time>2022-07-14T14:31:12Z</time>
      </trkpt>
      <trkpt lat="42.7799063455" lon="-0.3802302852">
        <ele>1524.79</ele>
        <time>2022-07-14T14:31:23Z</time>
      </trkpt>
      <trkpt lat="42.7798707224" lon="-0.3803002741">
        <ele>1525.27</ele>
        <time>2022-07-14T14:31:28Z</time>
      </trkpt>
      <trkpt lat="42.7798288129" lon="-0.3804566804">
        <ele>1528.63</ele>
        <time>2022-07-14T14:31:42Z</time>
      </trkpt>
      <trkpt lat="42.7798454929" lon="-0.3805028647">
        <ele>1530.08</ele>
        <time>2022-07-14T14:31:48Z</time>
      </trkpt>
      <trkpt lat="42.7798592392" lon="-0.3806314431">
        <ele>1532.96</ele>
        <time>2022-07-14T14:32:01Z</time>
      </trkpt>
      <trkpt lat="42.7798407152" lon="-0.3807118256">
        <ele>1534.40</ele>
        <time>2022-07-14T14:32:08Z</time>
      </trkpt>
      <trkpt lat="42.7798586525" lon="-0.3809580021">
        <ele>1536.32</ele>
        <time>2022-07-14T14:32:24Z</time>
      </trkpt>
      <trkpt lat="42.7798633464" lon="-0.3810020071">
        <ele>1536.32</ele>
        <time>2022-07-14T14:32:27Z</time>
      </trkpt>
      <trkpt lat="42.7799111232" lon="-0.3811591677">
        <ele>1538.25</ele>
        <time>2022-07-14T14:32:38Z</time>
      </trkpt>
      <trkpt lat="42.7799858060" lon="-0.3814032488">
        <ele>1539.69</ele>
        <time>2022-07-14T14:32:55Z</time>
      </trkpt>
      <trkpt lat="42.7799980436" lon="-0.3814361896">
        <ele>1539.69</ele>
        <time>2022-07-14T14:32:58Z</time>
      </trkpt>
      <trkpt lat="42.7799807768" lon="-0.3814939409">
        <ele>1539.69</ele>
        <time>2022-07-14T14:33:02Z</time>
      </trkpt>
      <trkpt lat="42.7800484188" lon="-0.3816771694">
        <ele>1538.73</ele>
        <time>2022-07-14T14:33:18Z</time>
      </trkpt>
      <trkpt lat="42.7800529450" lon="-0.3816824500">
        <ele>1542.57</ele>
        <time>2022-07-14T14:33:19Z</time>
      </trkpt>
      <trkpt lat="42.7800593153" lon="-0.3816894069">
        <ele>1541.13</ele>
        <time>2022-07-14T14:33:34Z</time>
      </trkpt>
      <trkpt lat="42.7802430466" lon="-0.3816081863">
        <ele>1542.57</ele>
        <time>2022-07-14T14:33:50Z</time>
      </trkpt>
      <trkpt lat="42.7804571204" lon="-0.3816200048">
        <ele>1543.05</ele>
        <time>2022-07-14T14:34:07Z</time>
      </trkpt>
      <trkpt lat="42.7806559391" lon="-0.3816359304">
        <ele>1545.46</ele>
        <time>2022-07-14T14:34:23Z</time>
      </trkpt>
      <trkpt lat="42.7808664925" lon="-0.3816561308">
        <ele>1547.38</ele>
        <time>2022-07-14T14:34:41Z</time>
      </trkpt>
      <trkpt lat="42.7809564304" lon="-0.3816638421">
        <ele>1547.38</ele>
        <time>2022-07-14T14:34:49Z</time>
      </trkpt>
      <trkpt lat="42.7810828295" lon="-0.3818025626">
        <ele>1548.82</ele>
        <time>2022-07-14T14:35:02Z</time>
      </trkpt>
      <trkpt lat="42.7811752819" lon="-0.3820285387">
        <ele>1548.82</ele>
        <time>2022-07-14T14:35:16Z</time>
      </trkpt>
      <trkpt lat="42.7812216338" lon="-0.3821390960">
        <ele>1548.82</ele>
        <time>2022-07-14T14:35:23Z</time>
      </trkpt>
      <trkpt lat="42.7812534850" lon="-0.3822232503">
        <ele>1548.82</ele>
        <time>2022-07-14T14:35:28Z</time>
      </trkpt>
      <trkpt lat="42.7813473623" lon="-0.3824777249">
        <ele>1550.26</ele>
        <time>2022-07-14T14:35:44Z</time>
      </trkpt>
      <trkpt lat="42.7814674750" lon="-0.3827453591">
        <ele>1552.67</ele>
        <time>2022-07-14T14:36:02Z</time>
      </trkpt>
      <trkpt lat="42.7815149166" lon="-0.3828229755">
        <ele>1551.22</ele>
        <time>2022-07-14T14:36:07Z</time>
      </trkpt>
      <trkpt lat="42.7816346101" lon="-0.3830317687">
        <ele>1553.15</ele>
        <time>2022-07-14T14:36:23Z</time>
      </trkpt>
      <trkpt lat="42.7817817125" lon="-0.3832190204">
        <ele>1554.59</ele>
        <time>2022-07-14T14:36:39Z</time>
      </trkpt>
      <trkpt lat="42.7819724008" lon="-0.3833665419">
        <ele>1555.55</ele>
        <time>2022-07-14T14:36:57Z</time>
      </trkpt>
      <trkpt lat="42.7821531147" lon="-0.3834636044">
        <ele>1555.55</ele>
        <time>2022-07-14T14:37:12Z</time>
      </trkpt>
      <trkpt lat="42.7823612373" lon="-0.3835974634">
        <ele>1555.55</ele>
        <time>2022-07-14T14:37:29Z</time>
      </trkpt>
      <trkpt lat="42.7824640833" lon="-0.3838418797">
        <ele>1555.07</ele>
        <time>2022-07-14T14:37:45Z</time>
      </trkpt>
      <trkpt lat="42.7823593933" lon="-0.3840968572">
        <ele>1556.99</ele>
        <time>2022-07-14T14:38:00Z</time>
      </trkpt>
      <trkpt lat="42.7822081000" lon="-0.3842715360">
        <ele>1557.47</ele>
        <time>2022-07-14T14:38:16Z</time>
      </trkpt>
      <trkpt lat="42.7820889093" lon="-0.3844721988">
        <ele>1557.95</ele>
        <time>2022-07-14T14:38:32Z</time>
      </trkpt>
      <trkpt lat="42.7820155676" lon="-0.3847271763">
        <ele>1559.88</ele>
        <time>2022-07-14T14:38:48Z</time>
      </trkpt>
      <trkpt lat="42.7819812857" lon="-0.3849938884">
        <ele>1561.32</ele>
        <time>2022-07-14T14:39:05Z</time>
      </trkpt>
      <trkpt lat="42.7819818724" lon="-0.3850631230">
        <ele>1563.24</ele>
        <time>2022-07-14T14:39:10Z</time>
      </trkpt>
      <trkpt lat="42.7820046712" lon="-0.3850888554">
        <ele>1557.95</ele>
        <time>2022-07-14T14:39:15Z</time>
      </trkpt>
      <trkpt lat="42.7820052579" lon="-0.3850881010">
        <ele>1563.24</ele>
        <time>2022-07-14T14:39:16Z</time>
      </trkpt>
      <trkpt lat="42.7820069343" lon="-0.3850938007">
        <ele>1562.76</ele>
        <time>2022-07-14T14:39:20Z</time>
      </trkpt>
      <trkpt lat="42.7820010670" lon="-0.3850896098">
        <ele>1564.20</ele>
        <time>2022-07-14T14:39:29Z</time>
      </trkpt>
      <trkpt lat="42.7820070181" lon="-0.3850843292">
        <ele>1563.24</ele>
        <time>2022-07-14T14:39:32Z</time>
      </trkpt>
      <trkpt lat="42.7819935232" lon="-0.3851132467">
        <ele>1561.80</ele>
        <time>2022-07-14T14:39:37Z</time>
      </trkpt>
      <trkpt lat="42.7819746640" lon="-0.3851761110">
        <ele>1561.80</ele>
        <time>2022-07-14T14:39:42Z</time>
      </trkpt>
      <trkpt lat="42.7819879074" lon="-0.3855206072">
        <ele>1564.20</ele>
        <time>2022-07-14T14:40:02Z</time>
      </trkpt>
      <trkpt lat="42.7820025757" lon="-0.3857573960">
        <ele>1564.68</ele>
        <time>2022-07-14T14:40:16Z</time>
      </trkpt>
      <trkpt lat="42.7820300683" lon="-0.3859702125">
        <ele>1566.61</ele>
        <time>2022-07-14T14:40:30Z</time>
      </trkpt>
      <trkpt lat="42.7821277175" lon="-0.3861504234">
        <ele>1569.01</ele>
        <time>2022-07-14T14:40:45Z</time>
      </trkpt>
      <trkpt lat="42.7821891569" lon="-0.3863565344">
        <ele>1569.49</ele>
        <time>2022-07-14T14:41:00Z</time>
      </trkpt>
      <trkpt lat="42.7821898274" lon="-0.3865559399">
        <ele>1570.93</ele>
        <time>2022-07-14T14:41:14Z</time>
      </trkpt>
      <trkpt lat="42.7821927611" lon="-0.3865677584">
        <ele>1570.93</ele>
        <time>2022-07-14T14:41:15Z</time>
      </trkpt>
      <trkpt lat="42.7822117880" lon="-0.3866648208">
        <ele>1574.30</ele>
        <time>2022-07-14T14:41:26Z</time>
      </trkpt>
      <trkpt lat="42.7822236065" lon="-0.3867678344">
        <ele>1576.70</ele>
        <time>2022-07-14T14:41:39Z</time>
      </trkpt>
      <trkpt lat="42.7822331619" lon="-0.3869383223">
        <ele>1580.06</ele>
        <time>2022-07-14T14:41:53Z</time>
      </trkpt>
      <trkpt lat="42.7822521888" lon="-0.3870152682">
        <ele>1580.54</ele>
        <time>2022-07-14T14:41:59Z</time>
      </trkpt>
      <trkpt lat="42.7822553739" lon="-0.3870764561">
        <ele>1581.03</ele>
        <time>2022-07-14T14:42:03Z</time>
      </trkpt>
      <trkpt lat="42.7822525240" lon="-0.3871236462">
        <ele>1579.58</ele>
        <time>2022-07-14T14:42:06Z</time>
      </trkpt>
      <trkpt lat="42.7822674438" lon="-0.3873698227">
        <ele>1582.47</ele>
        <time>2022-07-14T14:42:21Z</time>
      </trkpt>
      <trkpt lat="42.7822737303" lon="-0.3873844072">
        <ele>1582.47</ele>
        <time>2022-07-14T14:42:22Z</time>
      </trkpt>
      <trkpt lat="42.7823323198" lon="-0.3875023406">
        <ele>1580.06</ele>
        <time>2022-07-14T14:42:30Z</time>
      </trkpt>
      <trkpt lat="42.7823671047" lon="-0.3875909373">
        <ele>1581.99</ele>
        <time>2022-07-14T14:42:36Z</time>
      </trkpt>
      <trkpt lat="42.7823748160" lon="-0.3876014147">
        <ele>1581.99</ele>
        <time>2022-07-14T14:42:37Z</time>
      </trkpt>
      <trkpt lat="42.7824374288" lon="-0.3876108862">
        <ele>1582.95</ele>
        <time>2022-07-14T14:42:43Z</time>
      </trkpt>
      <trkpt lat="42.7825969364" lon="-0.3875793703">
        <ele>1583.91</ele>
        <time>2022-07-14T14:42:56Z</time>
      </trkpt>
      <trkpt lat="42.7827050630" lon="-0.3875984810">
        <ele>1584.39</ele>
        <time>2022-07-14T14:43:06Z</time>
      </trkpt>
      <trkpt lat="42.7827363275" lon="-0.3876342718">
        <ele>1584.87</ele>
        <time>2022-07-14T14:43:10Z</time>
      </trkpt>
      <trkpt lat="42.7827799134" lon="-0.3876608424">
        <ele>1586.79</ele>
        <time>2022-07-14T14:43:14Z</time>
      </trkpt>
      <trkpt lat="42.7829357330" lon="-0.3877391294">
        <ele>1589.68</ele>
        <time>2022-07-14T14:43:30Z</time>
      </trkpt>
      <trkpt lat="42.7831003536" lon="-0.3877476789">
        <ele>1591.60</ele>
        <time>2022-07-14T14:43:48Z</time>
      </trkpt>
      <trkpt lat="42.7832422592" lon="-0.3877001535">
        <ele>1593.04</ele>
        <time>2022-07-14T14:44:02Z</time>
      </trkpt>
      <trkpt lat="42.7832907066" lon="-0.3877175879">
        <ele>1594.96</ele>
        <time>2022-07-14T14:44:08Z</time>
      </trkpt>
      <trkpt lat="42.7834397368" lon="-0.3877851460">
        <ele>1595.93</ele>
        <time>2022-07-14T14:44:22Z</time>
      </trkpt>
      <trkpt lat="42.7834492084" lon="-0.3877853975">
        <ele>1595.93</ele>
        <time>2022-07-14T14:44:23Z</time>
      </trkpt>
      <trkpt lat="42.7836110629" lon="-0.3879682906">
        <ele>1596.41</ele>
        <time>2022-07-14T14:44:39Z</time>
      </trkpt>
      <trkpt lat="42.7836204506" lon="-0.3879809473">
        <ele>1596.41</ele>
        <time>2022-07-14T14:44:40Z</time>
      </trkpt>
      <trkpt lat="42.7836365439" lon="-0.3880050872">
        <ele>1594.96</ele>
        <time>2022-07-14T14:44:42Z</time>
      </trkpt>
      <trkpt lat="42.7837944590" lon="-0.3882610705">
        <ele>1596.41</ele>
        <time>2022-07-14T14:45:00Z</time>
      </trkpt>
      <trkpt lat="42.7839596663" lon="-0.3883948456">
        <ele>1594.96</ele>
        <time>2022-07-14T14:45:15Z</time>
      </trkpt>
      <trkpt lat="42.7841666993" lon="-0.3883935884">
        <ele>1594.00</ele>
        <time>2022-07-14T14:45:30Z</time>
      </trkpt>
      <trkpt lat="42.7841941081" lon="-0.3883878049">
        <ele>1594.00</ele>
        <time>2022-07-14T14:45:32Z</time>
      </trkpt>
      <trkpt lat="42.7843405399" lon="-0.3883618210">
        <ele>1592.08</ele>
        <time>2022-07-14T14:45:47Z</time>
      </trkpt>
      <trkpt lat="42.7843470778" lon="-0.3883820213">
        <ele>1592.08</ele>
        <time>2022-07-14T14:45:49Z</time>
      </trkpt>
      <trkpt lat="42.7843521070" lon="-0.3884168901">
        <ele>1593.52</ele>
        <time>2022-07-14T14:45:52Z</time>
      </trkpt>
      <trkpt lat="42.7843830362" lon="-0.3884795029">
        <ele>1594.96</ele>
        <time>2022-07-14T14:45:59Z</time>
      </trkpt>
      <trkpt lat="42.7844251134" lon="-0.3886698559">
        <ele>1597.85</ele>
        <time>2022-07-14T14:46:14Z</time>
      </trkpt>
      <trkpt lat="42.7844562940" lon="-0.3887497354">
        <ele>1599.77</ele>
        <time>2022-07-14T14:46:22Z</time>
      </trkpt>
      <trkpt lat="42.7845656779" lon="-0.3888521623">
        <ele>1603.62</ele>
        <time>2022-07-14T14:46:38Z</time>
      </trkpt>
      <trkpt lat="42.7845804300" lon="-0.3888535872">
        <ele>1604.58</ele>
        <time>2022-07-14T14:46:40Z</time>
      </trkpt>
      <trkpt lat="42.7846042346" lon="-0.3888432775">
        <ele>1606.02</ele>
        <time>2022-07-14T14:46:43Z</time>
      </trkpt>
      <trkpt lat="42.7846289612" lon="-0.3888416849">
        <ele>1606.98</ele>
        <time>2022-07-14T14:46:46Z</time>
      </trkpt>
      <trkpt lat="42.7847918216" lon="-0.3887729533">
        <ele>1607.94</ele>
        <time>2022-07-14T14:47:01Z</time>
      </trkpt>
      <trkpt lat="42.7849256806" lon="-0.3887470532">
        <ele>1608.90</ele>
        <time>2022-07-14T14:47:13Z</time>
      </trkpt>
      <trkpt lat="42.7851115074" lon="-0.3887940757">
        <ele>1607.46</ele>
        <time>2022-07-14T14:47:29Z</time>
      </trkpt>
      <trkpt lat="42.7851350605" lon="-0.3888328001">
        <ele>1606.98</ele>
        <time>2022-07-14T14:47:35Z</time>
      </trkpt>
      <trkpt lat="42.7851755451" lon="-0.3889144398">
        <ele>1606.98</ele>
        <time>2022-07-14T14:47:41Z</time>
      </trkpt>
      <trkpt lat="42.7851914708" lon="-0.3889478836">
        <ele>1608.42</ele>
        <time>2022-07-14T14:47:44Z</time>
      </trkpt>
      <trkpt lat="42.7852741163" lon="-0.3890920524">
        <ele>1611.79</ele>
        <time>2022-07-14T14:47:58Z</time>
      </trkpt>
      <trkpt lat="42.7853140142" lon="-0.3891699202">
        <ele>1612.27</ele>
        <time>2022-07-14T14:48:04Z</time>
      </trkpt>
      <trkpt lat="42.7854565065" lon="-0.3892993368">
        <ele>1614.19</ele>
        <time>2022-07-14T14:48:21Z</time>
      </trkpt>
      <trkpt lat="42.7854850888" lon="-0.3893299308">
        <ele>1613.23</ele>
        <time>2022-07-14T14:48:25Z</time>
      </trkpt>
      <trkpt lat="42.7855282556" lon="-0.3893884365">
        <ele>1614.67</ele>
        <time>2022-07-14T14:48:31Z</time>
      </trkpt>
      <trkpt lat="42.7855363861" lon="-0.3893939685">
        <ele>1614.19</ele>
        <time>2022-07-14T14:48:32Z</time>
      </trkpt>
      <trkpt lat="42.7856501285" lon="-0.3894529771">
        <ele>1616.11</ele>
        <time>2022-07-14T14:48:46Z</time>
      </trkpt>
      <trkpt lat="42.7856476139" lon="-0.3894663882">
        <ele>1616.11</ele>
        <time>2022-07-14T14:48:53Z</time>
      </trkpt>
      <trkpt lat="42.7857269906" lon="-0.3895998280">
        <ele>1616.59</ele>
        <time>2022-07-14T14:49:07Z</time>
      </trkpt>
      <trkpt lat="42.7857916150" lon="-0.3896910232">
        <ele>1617.56</ele>
        <time>2022-07-14T14:49:20Z</time>
      </trkpt>
      <trkpt lat="42.7857975662" lon="-0.3899751697">
        <ele>1616.11</ele>
        <time>2022-07-14T14:49:36Z</time>
      </trkpt>
      <trkpt lat="42.7858870849" lon="-0.3901763353">
        <ele>1616.11</ele>
        <time>2022-07-14T14:49:51Z</time>
      </trkpt>
      <trkpt lat="42.7859010827" lon="-0.3902162332">
        <ele>1615.63</ele>
        <time>2022-07-14T14:49:56Z</time>
      </trkpt>
      <trkpt lat="42.7859140746" lon="-0.3904845379">
        <ele>1615.63</ele>
        <time>2022-07-14T14:50:12Z</time>
      </trkpt>
      <trkpt lat="42.7859230433" lon="-0.3905519284">
        <ele>1615.63</ele>
        <time>2022-07-14T14:50:16Z</time>
      </trkpt>
      <trkpt lat="42.7859460097" lon="-0.3906634916">
        <ele>1617.07</ele>
        <time>2022-07-14T14:50:23Z</time>
      </trkpt>
      <trkpt lat="42.7860693913" lon="-0.3908628132">
        <ele>1618.04</ele>
        <time>2022-07-14T14:50:39Z</time>
      </trkpt>
      <trkpt lat="42.7861254662" lon="-0.3909520805">
        <ele>1616.59</ele>
        <time>2022-07-14T14:50:46Z</time>
      </trkpt>
      <trkpt lat="42.7862191759" lon="-0.3910487238">
        <ele>1618.04</ele>
        <time>2022-07-14T14:50:59Z</time>
      </trkpt>
      <trkpt lat="42.7862397954" lon="-0.3910960816">
        <ele>1618.04</ele>
        <time>2022-07-14T14:51:04Z</time>
      </trkpt>
      <trkpt lat="42.7862748317" lon="-0.3912858479">
        <ele>1616.59</ele>
        <time>2022-07-14T14:51:16Z</time>
      </trkpt>
      <trkpt lat="42.7862936910" lon="-0.3913270868">
        <ele>1616.59</ele>
        <time>2022-07-14T14:51:19Z</time>
      </trkpt>
      <trkpt lat="42.7862869855" lon="-0.3913847543">
        <ele>1616.59</ele>
        <time>2022-07-14T14:51:24Z</time>
      </trkpt>
      <trkpt lat="42.7862561401" lon="-0.3914984968">
        <ele>1616.59</ele>
        <time>2022-07-14T14:51:31Z</time>
      </trkpt>
      <trkpt lat="42.7862312458" lon="-0.3917816374">
        <ele>1616.59</ele>
        <time>2022-07-14T14:51:47Z</time>
      </trkpt>
      <trkpt lat="42.7862034179" lon="-0.3918797895">
        <ele>1616.59</ele>
        <time>2022-07-14T14:51:53Z</time>
      </trkpt>
      <trkpt lat="42.7861713991" lon="-0.3919831384">
        <ele>1618.04</ele>
        <time>2022-07-14T14:52:02Z</time>
      </trkpt>
      <trkpt lat="42.7861711476" lon="-0.3919985611">
        <ele>1618.04</ele>
        <time>2022-07-14T14:52:03Z</time>
      </trkpt>
      <trkpt lat="42.7861416433" lon="-0.3920902591">
        <ele>1618.52</ele>
        <time>2022-07-14T14:52:16Z</time>
      </trkpt>
      <trkpt lat="42.7861439902" lon="-0.3920994792">
        <ele>1617.07</ele>
        <time>2022-07-14T14:52:21Z</time>
      </trkpt>
      <trkpt lat="42.7861470077" lon="-0.3921083640">
        <ele>1617.07</ele>
        <time>2022-07-14T14:52:22Z</time>
      </trkpt>
      <trkpt lat="42.7861781046" lon="-0.3921562247">
        <ele>1616.59</ele>
        <time>2022-07-14T14:52:27Z</time>
      </trkpt>
      <trkpt lat="42.7862066869" lon="-0.3922223579">
        <ele>1616.11</ele>
        <time>2022-07-14T14:52:32Z</time>
      </trkpt>
      <trkpt lat="42.7862661984" lon="-0.3924988769">
        <ele>1615.63</ele>
        <time>2022-07-14T14:52:49Z</time>
      </trkpt>
      <trkpt lat="42.7862312458" lon="-0.3925925866">
        <ele>1614.67</ele>
        <time>2022-07-14T14:53:02Z</time>
      </trkpt>
      <trkpt lat="42.7862258814" lon="-0.3925959393">
        <ele>1614.19</ele>
        <time>2022-07-14T14:53:08Z</time>
      </trkpt>
      <trkpt lat="42.7860026713" lon="-0.3926718794">
        <ele>1613.23</ele>
        <time>2022-07-14T14:53:25Z</time>
      </trkpt>
      <trkpt lat="42.7858974785" lon="-0.3928174730">
        <ele>1612.27</ele>
        <time>2022-07-14T14:53:41Z</time>
      </trkpt>
      <trkpt lat="42.7858837321" lon="-0.3928551916">
        <ele>1611.79</ele>
        <time>2022-07-14T14:53:54Z</time>
      </trkpt>
      <trkpt lat="42.7858585864" lon="-0.3929014597">
        <ele>1610.83</ele>
        <time>2022-07-14T14:53:58Z</time>
      </trkpt>
      <trkpt lat="42.7858105581" lon="-0.3929500747">
        <ele>1610.83</ele>
        <time>2022-07-14T14:54:12Z</time>
      </trkpt>
      <trkpt lat="42.7857851610" lon="-0.3929510806">
        <ele>1610.83</ele>
        <time>2022-07-14T14:54:40Z</time>
      </trkpt>
      <trkpt lat="42.7857841551" lon="-0.3929442074">
        <ele>1611.79</ele>
        <time>2022-07-14T14:54:44Z</time>
      </trkpt>
      <trkpt lat="42.7858090494" lon="-0.3929380886">
        <ele>1611.31</ele>
        <time>2022-07-14T14:55:06Z</time>
      </trkpt>
      <trkpt lat="42.7858115640" lon="-0.3929521702">
        <ele>1611.31</ele>
        <time>2022-07-14T14:55:08Z</time>
      </trkpt>
      <trkpt lat="42.7858154196" lon="-0.3932567686">
        <ele>1610.35</ele>
        <time>2022-07-14T14:55:25Z</time>
      </trkpt>
      <trkpt lat="42.7858172636" lon="-0.3935434297">
        <ele>1607.46</ele>
        <time>2022-07-14T14:55:40Z</time>
      </trkpt>
      <trkpt lat="42.7858257294" lon="-0.3937359620">
        <ele>1608.42</ele>
        <time>2022-07-14T14:55:50Z</time>
      </trkpt>
      <trkpt lat="42.7858207840" lon="-0.3938898537">
        <ele>1605.54</ele>
        <time>2022-07-14T14:55:58Z</time>
      </trkpt>
      <trkpt lat="42.7858393919" lon="-0.3942723200">
        <ele>1605.06</ele>
        <time>2022-07-14T14:56:18Z</time>
      </trkpt>
      <trkpt lat="42.7858678903" lon="-0.3946022317">
        <ele>1604.10</ele>
        <time>2022-07-14T14:56:36Z</time>
      </trkpt>
      <trkpt lat="42.7859013341" lon="-0.3948559519">
        <ele>1601.21</ele>
        <time>2022-07-14T14:56:49Z</time>
      </trkpt>
      <trkpt lat="42.7859798726" lon="-0.3952405974">
        <ele>1599.77</ele>
        <time>2022-07-14T14:57:09Z</time>
      </trkpt>
      <trkpt lat="42.7860024199" lon="-0.3953599557">
        <ele>1598.33</ele>
        <time>2022-07-14T14:57:15Z</time>
      </trkpt>
      <trkpt lat="42.7861161623" lon="-0.3956688289">
        <ele>1596.89</ele>
        <time>2022-07-14T14:57:32Z</time>
      </trkpt>
      <trkpt lat="42.7863050904" lon="-0.3959595971">
        <ele>1595.93</ele>
        <time>2022-07-14T14:57:52Z</time>
      </trkpt>
      <trkpt lat="42.7865289710" lon="-0.3961548954">
        <ele>1594.00</ele>
        <time>2022-07-14T14:58:10Z</time>
      </trkpt>
      <trkpt lat="42.7866290510" lon="-0.3962179273">
        <ele>1595.45</ele>
        <time>2022-07-14T14:58:18Z</time>
      </trkpt>
      <trkpt lat="42.7866781689" lon="-0.3962644469">
        <ele>1594.00</ele>
        <time>2022-07-14T14:58:22Z</time>
      </trkpt>
      <trkpt lat="42.7868983615" lon="-0.3964579850">
        <ele>1593.04</ele>
        <time>2022-07-14T14:58:41Z</time>
      </trkpt>
      <trkpt lat="42.7869178914" lon="-0.3964844719">
        <ele>1591.12</ele>
        <time>2022-07-14T14:58:43Z</time>
      </trkpt>
      <trkpt lat="42.7869396843" lon="-0.3965086117">
        <ele>1593.04</ele>
        <time>2022-07-14T14:58:45Z</time>
      </trkpt>
      <trkpt lat="42.7869720384" lon="-0.3965471685">
        <ele>1591.60</ele>
        <time>2022-07-14T14:58:48Z</time>
      </trkpt>
      <trkpt lat="42.7870571148" lon="-0.3968297224">
        <ele>1590.16</ele>
        <time>2022-07-14T14:59:04Z</time>
      </trkpt>
      <trkpt lat="42.7870653290" lon="-0.3976166993">
        <ele>1590.16</ele>
        <time>2022-07-14T14:59:44Z</time>
      </trkpt>
      <trkpt lat="42.7868733834" lon="-0.3979109880">
        <ele>1591.60</ele>
        <time>2022-07-14T15:00:05Z</time>
      </trkpt>
      <trkpt lat="42.7867131215" lon="-0.3981193621">
        <ele>1591.60</ele>
        <time>2022-07-14T15:00:20Z</time>
      </trkpt>
      <trkpt lat="42.7865022328" lon="-0.3983620182">
        <ele>1592.56</ele>
        <time>2022-07-14T15:00:40Z</time>
      </trkpt>
      <trkpt lat="42.7863397915" lon="-0.3986492660">
        <ele>1593.52</ele>
        <time>2022-07-14T15:01:00Z</time>
      </trkpt>
      <trkpt lat="42.7861986402" lon="-0.3989328258">
        <ele>1594.48</ele>
        <time>2022-07-14T15:01:19Z</time>
      </trkpt>
      <trkpt lat="42.7860387973" lon="-0.3991706204">
        <ele>1594.48</ele>
        <time>2022-07-14T15:01:37Z</time>
      </trkpt>
      <trkpt lat="42.7858960535" lon="-0.3993574530">
        <ele>1595.93</ele>
        <time>2022-07-14T15:01:53Z</time>
      </trkpt>
      <trkpt lat="42.7856967319" lon="-0.3995538410">
        <ele>1595.93</ele>
        <time>2022-07-14T15:02:11Z</time>
      </trkpt>
      <trkpt lat="42.7854757011" lon="-0.3997040447">
        <ele>1597.85</ele>
        <time>2022-07-14T15:02:30Z</time>
      </trkpt>
      <trkpt lat="42.7852845099" lon="-0.3998115845">
        <ele>1598.81</ele>
        <time>2022-07-14T15:02:47Z</time>
      </trkpt>
      <trkpt lat="42.7851127647" lon="-0.4000053741">
        <ele>1600.73</ele>
        <time>2022-07-14T15:03:05Z</time>
      </trkpt>
      <trkpt lat="42.7850787342" lon="-0.4002830666">
        <ele>1602.17</ele>
        <time>2022-07-14T15:03:22Z</time>
      </trkpt>
      <trkpt lat="42.7850949951" lon="-0.4005542211">
        <ele>1604.58</ele>
        <time>2022-07-14T15:03:38Z</time>
      </trkpt>
      <trkpt lat="42.7850897983" lon="-0.4006236233">
        <ele>1605.06</ele>
        <time>2022-07-14T15:03:42Z</time>
      </trkpt>
      <trkpt lat="42.7850308735" lon="-0.4009304009">
        <ele>1606.50</ele>
        <time>2022-07-14T15:03:59Z</time>
      </trkpt>
      <trkpt lat="42.7849128563" lon="-0.4011523537">
        <ele>1607.46</ele>
        <time>2022-07-14T15:04:14Z</time>
      </trkpt>
      <trkpt lat="42.7847805060" lon="-0.4013976920">
        <ele>1608.90</ele>
        <time>2022-07-14T15:04:30Z</time>
      </trkpt>
      <trkpt lat="42.7846519276" lon="-0.4016551841">
        <ele>1610.35</ele>
        <time>2022-07-14T15:04:48Z</time>
      </trkpt>
      <trkpt lat="42.7845642529" lon="-0.4018680844">
        <ele>1611.79</ele>
        <time>2022-07-14T15:05:03Z</time>
      </trkpt>
      <trkpt lat="42.7844845410" lon="-0.4021319468">
        <ele>1614.19</ele>
        <time>2022-07-14T15:05:21Z</time>
      </trkpt>
      <trkpt lat="42.7844642568" lon="-0.4022053722">
        <ele>1614.19</ele>
        <time>2022-07-14T15:05:26Z</time>
      </trkpt>
      <trkpt lat="42.7844550367" lon="-0.4023195338">
        <ele>1615.63</ele>
        <time>2022-07-14T15:05:34Z</time>
      </trkpt>
      <trkpt lat="42.7844097745" lon="-0.4026100505">
        <ele>1618.52</ele>
        <time>2022-07-14T15:05:53Z</time>
      </trkpt>
      <trkpt lat="42.7843701281" lon="-0.4027491901">
        <ele>1619.96</ele>
        <time>2022-07-14T15:06:02Z</time>
      </trkpt>
      <trkpt lat="42.7842903323" lon="-0.4029566422">
        <ele>1621.88</ele>
        <time>2022-07-14T15:06:17Z</time>
      </trkpt>
      <trkpt lat="42.7841599938" lon="-0.4031631723">
        <ele>1624.28</ele>
        <time>2022-07-14T15:06:34Z</time>
      </trkpt>
      <trkpt lat="42.7840374503" lon="-0.4033009708">
        <ele>1626.21</ele>
        <time>2022-07-14T15:06:48Z</time>
      </trkpt>
      <trkpt lat="42.7839183435" lon="-0.4034431279">
        <ele>1628.13</ele>
        <time>2022-07-14T15:07:02Z</time>
      </trkpt>
      <trkpt lat="42.7837708220" lon="-0.4036176391">
        <ele>1630.53</ele>
        <time>2022-07-14T15:07:18Z</time>
      </trkpt>
      <trkpt lat="42.7836809680" lon="-0.4037760571">
        <ele>1632.46</ele>
        <time>2022-07-14T15:07:31Z</time>
      </trkpt>
      <trkpt lat="42.7836585883" lon="-0.4038307909">
        <ele>1632.94</ele>
        <time>2022-07-14T15:07:35Z</time>
      </trkpt>
      <trkpt lat="42.7836341970" lon="-0.4039076529">
        <ele>1633.90</ele>
        <time>2022-07-14T15:07:41Z</time>
      </trkpt>
      <trkpt lat="42.7836070396" lon="-0.4039532505">
        <ele>1634.38</ele>
        <time>2022-07-14T15:07:45Z</time>
      </trkpt>
      <trkpt lat="42.7835599333" lon="-0.4041781370">
        <ele>1636.30</ele>
        <time>2022-07-14T15:08:01Z</time>
      </trkpt>
      <trkpt lat="42.7835635375" lon="-0.4043323640">
        <ele>1637.74</ele>
        <time>2022-07-14T15:08:12Z</time>
      </trkpt>
      <trkpt lat="42.7835616935" lon="-0.4043618683">
        <ele>1638.22</ele>
        <time>2022-07-14T15:08:14Z</time>
      </trkpt>
      <trkpt lat="42.7836025134" lon="-0.4046084639">
        <ele>1639.67</ele>
        <time>2022-07-14T15:08:30Z</time>
      </trkpt>
      <trkpt lat="42.7836929541" lon="-0.4048577417">
        <ele>1642.07</ele>
        <time>2022-07-14T15:08:47Z</time>
      </trkpt>
      <trkpt lat="42.7837706544" lon="-0.4050371982">
        <ele>1643.51</ele>
        <time>2022-07-14T15:09:00Z</time>
      </trkpt>
      <trkpt lat="42.7838053554" lon="-0.4051273037">
        <ele>1644.95</ele>
        <time>2022-07-14T15:09:06Z</time>
      </trkpt>
      <trkpt lat="42.7838940360" lon="-0.4053803533">
        <ele>1646.40</ele>
        <time>2022-07-14T15:09:22Z</time>
      </trkpt>
      <trkpt lat="42.7838937845" lon="-0.4056173936">
        <ele>1647.36</ele>
        <time>2022-07-14T15:09:35Z</time>
      </trkpt>
      <trkpt lat="42.7838917729" lon="-0.4056838620">
        <ele>1647.84</ele>
        <time>2022-07-14T15:09:39Z</time>
      </trkpt>
      <trkpt lat="42.7838501986" lon="-0.4059317149">
        <ele>1649.28</ele>
        <time>2022-07-14T15:09:54Z</time>
      </trkpt>
      <trkpt lat="42.7837254759" lon="-0.4061614629">
        <ele>1651.20</ele>
        <time>2022-07-14T15:10:09Z</time>
      </trkpt>
      <trkpt lat="42.7836030163" lon="-0.4063405842">
        <ele>1652.16</ele>
        <time>2022-07-14T15:10:23Z</time>
      </trkpt>
      <trkpt lat="42.7834235597" lon="-0.4064638820">
        <ele>1653.60</ele>
        <time>2022-07-14T15:10:38Z</time>
      </trkpt>
      <trkpt lat="42.7832585201" lon="-0.4065615311">
        <ele>1655.53</ele>
        <time>2022-07-14T15:10:52Z</time>
      </trkpt>
      <trkpt lat="42.7831052989" lon="-0.4066143371">
        <ele>1657.45</ele>
        <time>2022-07-14T15:11:05Z</time>
      </trkpt>
      <trkpt lat="42.7829549275" lon="-0.4065653868">
        <ele>1657.93</ele>
        <time>2022-07-14T15:11:19Z</time>
      </trkpt>
      <trkpt lat="42.7827827632" lon="-0.4064693302">
        <ele>1659.85</ele>
        <time>2022-07-14T15:11:35Z</time>
      </trkpt>
      <trkpt lat="42.7826044802" lon="-0.4064088967">
        <ele>1661.30</ele>
        <time>2022-07-14T15:11:50Z</time>
      </trkpt>
      <trkpt lat="42.7824369259" lon="-0.4063890316">
        <ele>1663.22</ele>
        <time>2022-07-14T15:12:05Z</time>
      </trkpt>
      <trkpt lat="42.7823467366" lon="-0.4063902050">
        <ele>1663.70</ele>
        <time>2022-07-14T15:12:12Z</time>
      </trkpt>
      <trkpt lat="42.7821545396" lon="-0.4064389877">
        <ele>1665.62</ele>
        <time>2022-07-14T15:12:28Z</time>
      </trkpt>
      <trkpt lat="42.7820144780" lon="-0.4064843338">
        <ele>1667.06</ele>
        <time>2022-07-14T15:12:40Z</time>
      </trkpt>
      <trkpt lat="42.7818654478" lon="-0.4065949749">
        <ele>1668.51</ele>
        <time>2022-07-14T15:12:54Z</time>
      </trkpt>
      <trkpt lat="42.7817269787" lon="-0.4067717493">
        <ele>1670.43</ele>
        <time>2022-07-14T15:13:10Z</time>
      </trkpt>
      <trkpt lat="42.7816275693" lon="-0.4069318436">
        <ele>1672.35</ele>
        <time>2022-07-14T15:13:24Z</time>
      </trkpt>
      <trkpt lat="42.7815493662" lon="-0.4071670398">
        <ele>1673.79</ele>
        <time>2022-07-14T15:13:41Z</time>
      </trkpt>
      <trkpt lat="42.7815145813" lon="-0.4074094445">
        <ele>1675.72</ele>
        <time>2022-07-14T15:13:57Z</time>
      </trkpt>
      <trkpt lat="42.7815108094" lon="-0.4076671042">
        <ele>1677.64</ele>
        <time>2022-07-14T15:14:13Z</time>
      </trkpt>
      <trkpt lat="42.7814692352" lon="-0.4078879673">
        <ele>1680.04</ele>
        <time>2022-07-14T15:14:28Z</time>
      </trkpt>
      <trkpt lat="42.7814637870" lon="-0.4081801604">
        <ele>1681.00</ele>
        <time>2022-07-14T15:14:47Z</time>
      </trkpt>
      <trkpt lat="42.7814324386" lon="-0.4083884507">
        <ele>1683.41</ele>
        <time>2022-07-14T15:15:01Z</time>
      </trkpt>
      <trkpt lat="42.7814298403" lon="-0.4084390774">
        <ele>1683.89</ele>
        <time>2022-07-14T15:15:04Z</time>
      </trkpt>
      <trkpt lat="42.7814134117" lon="-0.4085042048">
        <ele>1683.89</ele>
        <time>2022-07-14T15:15:08Z</time>
      </trkpt>
      <trkpt lat="42.7813782915" lon="-0.4086229764">
        <ele>1684.85</ele>
        <time>2022-07-14T15:15:16Z</time>
      </trkpt>
      <trkpt lat="42.7813693229" lon="-0.4086466972">
        <ele>1685.33</ele>
        <time>2022-07-14T15:15:18Z</time>
      </trkpt>
      <trkpt lat="42.7812811453" lon="-0.4088426661">
        <ele>1686.77</ele>
        <time>2022-07-14T15:15:33Z</time>
      </trkpt>
      <trkpt lat="42.7811975777" lon="-0.4090128187">
        <ele>1687.73</ele>
        <time>2022-07-14T15:15:46Z</time>
      </trkpt>
      <trkpt lat="42.7811840829" lon="-0.4090778623">
        <ele>1689.65</ele>
        <time>2022-07-14T15:16:02Z</time>
      </trkpt>
      <trkpt lat="42.7811063826" lon="-0.4095138889">
        <ele>1692.54</ele>
        <time>2022-07-14T15:16:22Z</time>
      </trkpt>
      <trkpt lat="42.7811019402" lon="-0.4097137973">
        <ele>1694.46</ele>
        <time>2022-07-14T15:16:35Z</time>
      </trkpt>
      <trkpt lat="42.7811135072" lon="-0.4098163918">
        <ele>1694.94</ele>
        <time>2022-07-14T15:16:41Z</time>
      </trkpt>
      <trkpt lat="42.7811335400" lon="-0.4100280348">
        <ele>1696.86</ele>
        <time>2022-07-14T15:16:55Z</time>
      </trkpt>
      <trkpt lat="42.7811224759" lon="-0.4102613032">
        <ele>1698.31</ele>
        <time>2022-07-14T15:17:11Z</time>
      </trkpt>
      <trkpt lat="42.7810677420" lon="-0.4104683362">
        <ele>1700.23</ele>
        <time>2022-07-14T15:17:25Z</time>
      </trkpt>
      <trkpt lat="42.7810506430" lon="-0.4105131794">
        <ele>1701.19</ele>
        <time>2022-07-14T15:17:29Z</time>
      </trkpt>
      <trkpt lat="42.7809661534" lon="-0.4107099026">
        <ele>1702.63</ele>
        <time>2022-07-14T15:17:43Z</time>
      </trkpt>
      <trkpt lat="42.7808567695" lon="-0.4108223040">
        <ele>1704.55</ele>
        <time>2022-07-14T15:17:55Z</time>
      </trkpt>
      <trkpt lat="42.7807913907" lon="-0.4108605254">
        <ele>1705.04</ele>
        <time>2022-07-14T15:18:02Z</time>
      </trkpt>
      <trkpt lat="42.7806500718" lon="-0.4109322745">
        <ele>1706.96</ele>
        <time>2022-07-14T15:18:16Z</time>
      </trkpt>
      <trkpt lat="42.7805195656" lon="-0.4110074602">
        <ele>1708.40</ele>
        <time>2022-07-14T15:18:29Z</time>
      </trkpt>
      <trkpt lat="42.7804965153" lon="-0.4110203683">
        <ele>1708.40</ele>
        <time>2022-07-14T15:18:31Z</time>
      </trkpt>
      <trkpt lat="42.7803823538" lon="-0.4111300875">
        <ele>1709.84</ele>
        <time>2022-07-14T15:18:44Z</time>
      </trkpt>
      <trkpt lat="42.7802904882" lon="-0.4112571571">
        <ele>1711.28</ele>
        <time>2022-07-14T15:18:56Z</time>
      </trkpt>
      <trkpt lat="42.7802251093" lon="-0.4113921057">
        <ele>1711.76</ele>
        <time>2022-07-14T15:19:07Z</time>
      </trkpt>
      <trkpt lat="42.7801785059" lon="-0.4115786031">
        <ele>1714.65</ele>
        <time>2022-07-14T15:19:21Z</time>
      </trkpt>
      <trkpt lat="42.7801657654" lon="-0.4117204249">
        <ele>1715.13</ele>
        <time>2022-07-14T15:19:32Z</time>
      </trkpt>
      <trkpt lat="42.7801575512" lon="-0.4119899869">
        <ele>1717.53</ele>
        <time>2022-07-14T15:19:49Z</time>
      </trkpt>
      <trkpt lat="42.7801273763" lon="-0.4121936671">
        <ele>1718.97</ele>
        <time>2022-07-14T15:20:03Z</time>
      </trkpt>
      <trkpt lat="42.7800533641" lon="-0.4123944975">
        <ele>1720.42</ele>
        <time>2022-07-14T15:20:16Z</time>
      </trkpt>
      <trkpt lat="42.7799365204" lon="-0.4125708528">
        <ele>1721.38</ele>
        <time>2022-07-14T15:20:30Z</time>
      </trkpt>
      <trkpt lat="42.7798292320" lon="-0.4127607029">
        <ele>1722.34</ele>
        <time>2022-07-14T15:20:44Z</time>
      </trkpt>
      <trkpt lat="42.7796891704" lon="-0.4129460268">
        <ele>1723.30</ele>
        <time>2022-07-14T15:20:59Z</time>
      </trkpt>
      <trkpt lat="42.7796248812" lon="-0.4130442627">
        <ele>1724.26</ele>
        <time>2022-07-14T15:21:07Z</time>
      </trkpt>
      <trkpt lat="42.7796027530" lon="-0.4131488688">
        <ele>1724.26</ele>
        <time>2022-07-14T15:21:13Z</time>
      </trkpt>
      <trkpt lat="42.7795983944" lon="-0.4133194406">
        <ele>1724.26</ele>
        <time>2022-07-14T15:21:27Z</time>
      </trkpt>
      <trkpt lat="42.7795986459" lon="-0.4133135732">
        <ele>1730.99</ele>
        <time>2022-07-14T15:21:43Z</time>
      </trkpt>
      <trkpt lat="42.7795992326" lon="-0.4133134056">
        <ele>1721.86</ele>
        <time>2022-07-14T15:21:44Z</time>
      </trkpt>
      <trkpt lat="42.7796106320" lon="-0.4133077059">
        <ele>1724.74</ele>
        <time>2022-07-14T15:22:18Z</time>
      </trkpt>
      <trkpt lat="42.7796004061" lon="-0.4133113939">
        <ele>1724.74</ele>
        <time>2022-07-14T15:22:53Z</time>
      </trkpt>
      <trkpt lat="42.7795989811" lon="-0.4133061133">
        <ele>1725.70</ele>
        <time>2022-07-14T15:23:23Z</time>
      </trkpt>
      <trkpt lat="42.7796037588" lon="-0.4133042693">
        <ele>1725.70</ele>
        <time>2022-07-14T15:23:52Z</time>
      </trkpt>
      <trkpt lat="42.7796066087" lon="-0.4133134056">
        <ele>1718.49</ele>
        <time>2022-07-14T15:24:26Z</time>
      </trkpt>
      <trkpt lat="42.7796076983" lon="-0.4133113101">
        <ele>1728.11</ele>
        <time>2022-07-14T15:24:27Z</time>
      </trkpt>
      <trkpt lat="42.7796101291" lon="-0.4133115616">
        <ele>1722.34</ele>
        <time>2022-07-14T15:24:28Z</time>
      </trkpt>
      <trkpt lat="42.7796147391" lon="-0.4133104719">
        <ele>1730.03</ele>
        <time>2022-07-14T15:24:29Z</time>
      </trkpt>
      <trkpt lat="42.7796125598" lon="-0.4133046046">
        <ele>1723.30</ele>
        <time>2022-07-14T15:24:31Z</time>
      </trkpt>
      <trkpt lat="42.7796123922" lon="-0.4133042693">
        <ele>1726.18</ele>
        <time>2022-07-14T15:24:32Z</time>
      </trkpt>
      <trkpt lat="42.7796107158" lon="-0.4133046046">
        <ele>1722.34</ele>
        <time>2022-07-14T15:24:38Z</time>
      </trkpt>
      <trkpt lat="42.7796067763" lon="-0.4133061972">
        <ele>1726.18</ele>
        <time>2022-07-14T15:24:39Z</time>
      </trkpt>
      <trkpt lat="42.7795939520" lon="-0.4133184347">
        <ele>1726.67</ele>
        <time>2022-07-14T15:24:59Z</time>
      </trkpt>
      <trkpt lat="42.7795624360" lon="-0.4133263137">
        <ele>1726.67</ele>
        <time>2022-07-14T15:25:29Z</time>
      </trkpt>
      <trkpt lat="42.7795243822" lon="-0.4133484419">
        <ele>1726.67</ele>
        <time>2022-07-14T15:25:33Z</time>
      </trkpt>
      <trkpt lat="42.7793678083" lon="-0.4134937841">
        <ele>1726.67</ele>
        <time>2022-07-14T15:25:49Z</time>
      </trkpt>
      <trkpt lat="42.7792729251" lon="-0.4135812912">
        <ele>1728.11</ele>
        <time>2022-07-14T15:25:58Z</time>
      </trkpt>
      <trkpt lat="42.7792600170" lon="-0.4135942832">
        <ele>1728.11</ele>
        <time>2022-07-14T15:25:59Z</time>
      </trkpt>
      <trkpt lat="42.7791477833" lon="-0.4137800261">
        <ele>1728.59</ele>
        <time>2022-07-14T15:26:14Z</time>
      </trkpt>
      <trkpt lat="42.7791320253" lon="-0.4138198402">
        <ele>1728.59</ele>
        <time>2022-07-14T15:26:17Z</time>
      </trkpt>
      <trkpt lat="42.7791095618" lon="-0.4138668627">
        <ele>1728.59</ele>
        <time>2022-07-14T15:26:21Z</time>
      </trkpt>
      <trkpt lat="42.7791021019" lon="-0.4141262826">
        <ele>1727.63</ele>
        <time>2022-07-14T15:26:35Z</time>
      </trkpt>
      <trkpt lat="42.7791059576" lon="-0.4141894821">
        <ele>1727.63</ele>
        <time>2022-07-14T15:26:39Z</time>
      </trkpt>
      <trkpt lat="42.7791098971" lon="-0.4142546933">
        <ele>1727.63</ele>
        <time>2022-07-14T15:26:43Z</time>
      </trkpt>
      <trkpt lat="42.7790511400" lon="-0.4145136103">
        <ele>1729.55</ele>
        <time>2022-07-14T15:26:59Z</time>
      </trkpt>
      <trkpt lat="42.7790201269" lon="-0.4145480599">
        <ele>1730.03</ele>
        <time>2022-07-14T15:27:03Z</time>
      </trkpt>
      <trkpt lat="42.7789301053" lon="-0.4146542586">
        <ele>1732.91</ele>
        <time>2022-07-14T15:27:17Z</time>
      </trkpt>
      <trkpt lat="42.7789198793" lon="-0.4146696813">
        <ele>1733.39</ele>
        <time>2022-07-14T15:27:19Z</time>
      </trkpt>
      <trkpt lat="42.7788815740" lon="-0.4147399217">
        <ele>1735.32</ele>
        <time>2022-07-14T15:27:26Z</time>
      </trkpt>
      <trkpt lat="42.7787778061" lon="-0.4148728587">
        <ele>1738.20</ele>
        <time>2022-07-14T15:27:42Z</time>
      </trkpt>
      <trkpt lat="42.7787270956" lon="-0.4149440210">
        <ele>1740.60</ele>
        <time>2022-07-14T15:27:51Z</time>
      </trkpt>
      <trkpt lat="42.7786834259" lon="-0.4149822425">
        <ele>1741.08</ele>
        <time>2022-07-14T15:27:57Z</time>
      </trkpt>
      <trkpt lat="42.7786586154" lon="-0.4149889480">
        <ele>1742.05</ele>
        <time>2022-07-14T15:27:59Z</time>
      </trkpt>
      <trkpt lat="42.7786426898" lon="-0.4149988387">
        <ele>1742.53</ele>
        <time>2022-07-14T15:28:01Z</time>
      </trkpt>
      <trkpt lat="42.7785949968" lon="-0.4150573444">
        <ele>1744.45</ele>
        <time>2022-07-14T15:28:10Z</time>
      </trkpt>
      <trkpt lat="42.7785758022" lon="-0.4150797240">
        <ele>1744.45</ele>
        <time>2022-07-14T15:28:13Z</time>
      </trkpt>
      <trkpt lat="42.7785851900" lon="-0.4151264951">
        <ele>1745.41</ele>
        <time>2022-07-14T15:28:18Z</time>
      </trkpt>
      <trkpt lat="42.7785395086" lon="-0.4152509663">
        <ele>1746.85</ele>
        <time>2022-07-14T15:28:29Z</time>
      </trkpt>
      <trkpt lat="42.7784647420" lon="-0.4153559078">
        <ele>1748.78</ele>
        <time>2022-07-14T15:28:40Z</time>
      </trkpt>
      <trkpt lat="42.7783958428" lon="-0.4155716579">
        <ele>1749.74</ele>
        <time>2022-07-14T15:28:55Z</time>
      </trkpt>
      <trkpt lat="42.7782989480" lon="-0.4157445766">
        <ele>1752.14</ele>
        <time>2022-07-14T15:29:10Z</time>
      </trkpt>
      <trkpt lat="42.7782111056" lon="-0.4158941936">
        <ele>1754.06</ele>
        <time>2022-07-14T15:29:22Z</time>
      </trkpt>
      <trkpt lat="42.7781165577" lon="-0.4160695430">
        <ele>1755.50</ele>
        <time>2022-07-14T15:29:36Z</time>
      </trkpt>
      <trkpt lat="42.7779516019" lon="-0.4162060842">
        <ele>1757.43</ele>
        <time>2022-07-14T15:29:51Z</time>
      </trkpt>
      <trkpt lat="42.7777832933" lon="-0.4163234308">
        <ele>1757.91</ele>
        <time>2022-07-14T15:30:06Z</time>
      </trkpt>
      <trkpt lat="42.7777205966" lon="-0.4163895641">
        <ele>1759.35</ele>
        <time>2022-07-14T15:30:14Z</time>
      </trkpt>
      <trkpt lat="42.7776111290" lon="-0.4164780769">
        <ele>1761.75</ele>
        <time>2022-07-14T15:30:27Z</time>
      </trkpt>
      <trkpt lat="42.7775956225" lon="-0.4164896440">
        <ele>1761.75</ele>
        <time>2022-07-14T15:30:29Z</time>
      </trkpt>
      <trkpt lat="42.7775392961" lon="-0.4165246803">
        <ele>1763.20</ele>
        <time>2022-07-14T15:30:35Z</time>
      </trkpt>
      <trkpt lat="42.7774760965" lon="-0.4165720381">
        <ele>1763.68</ele>
        <time>2022-07-14T15:30:42Z</time>
      </trkpt>
      <trkpt lat="42.7773050219" lon="-0.4166940786">
        <ele>1764.64</ele>
        <time>2022-07-14T15:30:57Z</time>
      </trkpt>
      <trkpt lat="42.7772407327" lon="-0.4167082440">
        <ele>1765.12</ele>
        <time>2022-07-14T15:31:02Z</time>
      </trkpt>
      <trkpt lat="42.7770736814" lon="-0.4167853575">
        <ele>1767.04</ele>
        <time>2022-07-14T15:31:18Z</time>
      </trkpt>
      <trkpt lat="42.7770642936" lon="-0.4167841841">
        <ele>1767.52</ele>
        <time>2022-07-14T15:31:19Z</time>
      </trkpt>
      <trkpt lat="42.7770113200" lon="-0.4167646542">
        <ele>1768.48</ele>
        <time>2022-07-14T15:31:25Z</time>
      </trkpt>
      <trkpt lat="42.7768855914" lon="-0.4167857766">
        <ele>1771.85</ele>
        <time>2022-07-14T15:31:40Z</time>
      </trkpt>
      <trkpt lat="42.7768638823" lon="-0.4167851061">
        <ele>1772.33</ele>
        <time>2022-07-14T15:31:44Z</time>
      </trkpt>
      <trkpt lat="42.7768430114" lon="-0.4167863633">
        <ele>1773.77</ele>
        <time>2022-07-14T15:31:48Z</time>
      </trkpt>
      <trkpt lat="42.7767430153" lon="-0.4168333020">
        <ele>1776.17</ele>
        <time>2022-07-14T15:31:59Z</time>
      </trkpt>
      <trkpt lat="42.7766611241" lon="-0.4168741219">
        <ele>1774.25</ele>
        <time>2022-07-14T15:32:08Z</time>
      </trkpt>
      <trkpt lat="42.7765249182" lon="-0.4167732038">
        <ele>1777.13</ele>
        <time>2022-07-14T15:32:22Z</time>
      </trkpt>
      <trkpt lat="42.7764056437" lon="-0.4167595413">
        <ele>1778.10</ele>
        <time>2022-07-14T15:32:32Z</time>
      </trkpt>
      <trkpt lat="42.7763044741" lon="-0.4167830944">
        <ele>1779.54</ele>
        <time>2022-07-14T15:32:41Z</time>
      </trkpt>
      <trkpt lat="42.7762540150" lon="-0.4168131854">
        <ele>1779.54</ele>
        <time>2022-07-14T15:32:45Z</time>
      </trkpt>
      <trkpt lat="42.7760708705" lon="-0.4168677516">
        <ele>1780.50</ele>
        <time>2022-07-14T15:33:01Z</time>
      </trkpt>
      <trkpt lat="42.7758987900" lon="-0.4168397561">
        <ele>1780.50</ele>
        <time>2022-07-14T15:33:15Z</time>
      </trkpt>
      <trkpt lat="42.7758644242" lon="-0.4168447852">
        <ele>1780.50</ele>
        <time>2022-07-14T15:33:18Z</time>
      </trkpt>
      <trkpt lat="42.7758184914" lon="-0.4167801607">
        <ele>1782.42</ele>
        <time>2022-07-14T15:33:27Z</time>
      </trkpt>
      <trkpt lat="42.7757453173" lon="-0.4167866148">
        <ele>1782.90</ele>
        <time>2022-07-14T15:33:33Z</time>
      </trkpt>
      <trkpt lat="42.7756849676" lon="-0.4167691804">
        <ele>1783.38</ele>
        <time>2022-07-14T15:33:38Z</time>
      </trkpt>
      <trkpt lat="42.7755470015" lon="-0.4168246686">
        <ele>1784.82</ele>
        <time>2022-07-14T15:33:52Z</time>
      </trkpt>
      <trkpt lat="42.7754843887" lon="-0.4168447852">
        <ele>1785.31</ele>
        <time>2022-07-14T15:33:58Z</time>
      </trkpt>
      <trkpt lat="42.7754190937" lon="-0.4168682545">
        <ele>1785.31</ele>
        <time>2022-07-14T15:34:03Z</time>
      </trkpt>
      <trkpt lat="42.7753319219" lon="-0.4169011116">
        <ele>1784.34</ele>
        <time>2022-07-14T15:34:09Z</time>
      </trkpt>
      <trkpt lat="42.7752901800" lon="-0.4169119243">
        <ele>1783.86</ele>
        <time>2022-07-14T15:34:12Z</time>
      </trkpt>
      <trkpt lat="42.7752051037" lon="-0.4169065598">
        <ele>1783.38</ele>
        <time>2022-07-14T15:34:18Z</time>
      </trkpt>
      <trkpt lat="42.7751349472" lon="-0.4169563483">
        <ele>1782.90</ele>
        <time>2022-07-14T15:34:32Z</time>
      </trkpt>
      <trkpt lat="42.7750762738" lon="-0.4169623833">
        <ele>1782.90</ele>
        <time>2022-07-14T15:34:37Z</time>
      </trkpt>
      <trkpt lat="42.7750103921" lon="-0.4170027841">
        <ele>1782.90</ele>
        <time>2022-07-14T15:34:43Z</time>
      </trkpt>
      <trkpt lat="42.7749359608" lon="-0.4170508124">
        <ele>1785.79</ele>
        <time>2022-07-14T15:34:53Z</time>
      </trkpt>
      <trkpt lat="42.7749308478" lon="-0.4170602001">
        <ele>1785.79</ele>
        <time>2022-07-14T15:34:54Z</time>
      </trkpt>
      <trkpt lat="42.7748879325" lon="-0.4170804843">
        <ele>1786.27</ele>
        <time>2022-07-14T15:34:58Z</time>
      </trkpt>
      <trkpt lat="42.7748714201" lon="-0.4171062168">
        <ele>1784.82</ele>
        <time>2022-07-14T15:35:01Z</time>
      </trkpt>
      <trkpt lat="42.7748324443" lon="-0.4171242379">
        <ele>1786.27</ele>
        <time>2022-07-14T15:35:07Z</time>
      </trkpt>
      <trkpt lat="42.7748085558" lon="-0.4171268363">
        <ele>1787.23</ele>
        <time>2022-07-14T15:35:10Z</time>
      </trkpt>
      <trkpt lat="42.7747366391" lon="-0.4171564244">
        <ele>1788.67</ele>
        <time>2022-07-14T15:35:19Z</time>
      </trkpt>
      <trkpt lat="42.7746084798" lon="-0.4172508884">
        <ele>1791.55</ele>
        <time>2022-07-14T15:35:35Z</time>
      </trkpt>
      <trkpt lat="42.7745276783" lon="-0.4173271637">
        <ele>1790.59</ele>
        <time>2022-07-14T15:35:44Z</time>
      </trkpt>
      <trkpt lat="42.7744369861" lon="-0.4173549078">
        <ele>1790.59</ele>
        <time>2022-07-14T15:35:52Z</time>
      </trkpt>
      <trkpt lat="42.7744151093" lon="-0.4173670616">
        <ele>1792.03</ele>
        <time>2022-07-14T15:35:54Z</time>
      </trkpt>
      <trkpt lat="42.7743917238" lon="-0.4173747730">
        <ele>1792.03</ele>
        <time>2022-07-14T15:35:56Z</time>
      </trkpt>
      <trkpt lat="42.7743552625" lon="-0.4173872620">
        <ele>1792.03</ele>
        <time>2022-07-14T15:35:59Z</time>
      </trkpt>
      <trkpt lat="42.7743027918" lon="-0.4174041096">
        <ele>1793.48</ele>
        <time>2022-07-14T15:36:06Z</time>
      </trkpt>
      <trkpt lat="42.7742610499" lon="-0.4174363799">
        <ele>1795.40</ele>
        <time>2022-07-14T15:36:11Z</time>
      </trkpt>
      <trkpt lat="42.7740836889" lon="-0.4174207058">
        <ele>1795.88</ele>
        <time>2022-07-14T15:36:26Z</time>
      </trkpt>
      <trkpt lat="42.7739581279" lon="-0.4173442628">
        <ele>1795.88</ele>
        <time>2022-07-14T15:36:37Z</time>
      </trkpt>
      <trkpt lat="42.7739071660" lon="-0.4173299298">
        <ele>1796.36</ele>
        <time>2022-07-14T15:36:41Z</time>
      </trkpt>
      <trkpt lat="42.7738096006" lon="-0.4174133297">
        <ele>1795.40</ele>
        <time>2022-07-14T15:36:52Z</time>
      </trkpt>
      <trkpt lat="42.7738003805" lon="-0.4174418282">
        <ele>1796.84</ele>
        <time>2022-07-14T15:36:55Z</time>
      </trkpt>
      <trkpt lat="42.7736947685" lon="-0.4176229611">
        <ele>1798.28</ele>
        <time>2022-07-14T15:37:11Z</time>
      </trkpt>
      <trkpt lat="42.7736611571" lon="-0.4176517110">
        <ele>1798.28</ele>
        <time>2022-07-14T15:37:14Z</time>
      </trkpt>
      <trkpt lat="42.7736270428" lon="-0.4176688939">
        <ele>1796.84</ele>
        <time>2022-07-14T15:37:17Z</time>
      </trkpt>
      <trkpt lat="42.7735667769" lon="-0.4177078698">
        <ele>1796.84</ele>
        <time>2022-07-14T15:37:22Z</time>
      </trkpt>
      <trkpt lat="42.7734569740" lon="-0.4178030044">
        <ele>1797.80</ele>
        <time>2022-07-14T15:37:32Z</time>
      </trkpt>
      <trkpt lat="42.7733810339" lon="-0.4179562256">
        <ele>1797.80</ele>
        <time>2022-07-14T15:37:44Z</time>
      </trkpt>
      <trkpt lat="42.7733694669" lon="-0.4180081934">
        <ele>1797.80</ele>
        <time>2022-07-14T15:37:47Z</time>
      </trkpt>
      <trkpt lat="42.7733390406" lon="-0.4180778470">
        <ele>1798.28</ele>
        <time>2022-07-14T15:37:52Z</time>
      </trkpt>
      <trkpt lat="42.7732413914" lon="-0.4182572197">
        <ele>1798.28</ele>
        <time>2022-07-14T15:38:05Z</time>
      </trkpt>
      <trkpt lat="42.7732328419" lon="-0.4183012247">
        <ele>1798.28</ele>
        <time>2022-07-14T15:38:09Z</time>
      </trkpt>
      <trkpt lat="42.7731211949" lon="-0.4184801783">
        <ele>1799.73</ele>
        <time>2022-07-14T15:38:24Z</time>
      </trkpt>
      <trkpt lat="42.7730923612" lon="-0.4185035639">
        <ele>1799.73</ele>
        <time>2022-07-14T15:38:27Z</time>
      </trkpt>
      <trkpt lat="42.7730309218" lon="-0.4185448866">
        <ele>1800.69</ele>
        <time>2022-07-14T15:38:42Z</time>
      </trkpt>
      <trkpt lat="42.7730321791" lon="-0.4185368400">
        <ele>1794.44</ele>
        <time>2022-07-14T15:38:44Z</time>
      </trkpt>
      <trkpt lat="42.7730341908" lon="-0.4185355827">
        <ele>1794.44</ele>
        <time>2022-07-14T15:38:45Z</time>
      </trkpt>
      <trkpt lat="42.7730331011" lon="-0.4185393546">
        <ele>1803.57</ele>
        <time>2022-07-14T15:38:46Z</time>
      </trkpt>
      <trkpt lat="42.7730368730" lon="-0.4185393546">
        <ele>1800.69</ele>
        <time>2022-07-14T15:38:47Z</time>
      </trkpt>
      <trkpt lat="42.7730460931" lon="-0.4185393546">
        <ele>1799.24</ele>
        <time>2022-07-14T15:38:49Z</time>
      </trkpt>
      <trkpt lat="42.7730450034" lon="-0.4184489977">
        <ele>1799.24</ele>
        <time>2022-07-14T15:39:19Z</time>
      </trkpt>
      <trkpt lat="42.7730296645" lon="-0.4184489138">
        <ele>1799.73</ele>
        <time>2022-07-14T15:39:59Z</time>
      </trkpt>
      <trkpt lat="42.7730458416" lon="-0.4184808489">
        <ele>1803.57</ele>
        <time>2022-07-14T15:40:04Z</time>
      </trkpt>
      <trkpt lat="42.7730570734" lon="-0.4185012169">
        <ele>1800.21</ele>
        <time>2022-07-14T15:40:05Z</time>
      </trkpt>
      <trkpt lat="42.7730488591" lon="-0.4185123648">
        <ele>1800.21</ele>
        <time>2022-07-14T15:40:21Z</time>
      </trkpt>
      <trkpt lat="42.7730554808" lon="-0.4185070843">
        <ele>1800.21</ele>
        <time>2022-07-14T15:40:38Z</time>
      </trkpt>
      <trkpt lat="42.7731013298" lon="-0.4185157176">
        <ele>1799.73</ele>
        <time>2022-07-14T15:40:44Z</time>
      </trkpt>
      <trkpt lat="42.7731000725" lon="-0.4185639136">
        <ele>1799.24</ele>
        <time>2022-07-14T15:40:48Z</time>
      </trkpt>
      <trkpt lat="42.7731345221" lon="-0.4186901450">
        <ele>1797.80</ele>
        <time>2022-07-14T15:41:01Z</time>
      </trkpt>
      <trkpt lat="42.7731290739" lon="-0.4187020473">
        <ele>1800.69</ele>
        <time>2022-07-14T15:41:02Z</time>
      </trkpt>
      <trkpt lat="42.7730955463" lon="-0.4188689310">
        <ele>1801.17</ele>
        <time>2022-07-14T15:41:15Z</time>
      </trkpt>
      <trkpt lat="42.7730798721" lon="-0.4189414345">
        <ele>1801.65</ele>
        <time>2022-07-14T15:41:21Z</time>
      </trkpt>
      <trkpt lat="42.7730440814" lon="-0.4190599546">
        <ele>1802.61</ele>
        <time>2022-07-14T15:41:30Z</time>
      </trkpt>
      <trkpt lat="42.7730605099" lon="-0.4190841783">
        <ele>1803.09</ele>
        <time>2022-07-14T15:41:32Z</time>
      </trkpt>
      <trkpt lat="42.7731085382" lon="-0.4192580190">
        <ele>1805.01</ele>
        <time>2022-07-14T15:41:46Z</time>
      </trkpt>
      <trkpt lat="42.7731626853" lon="-0.4192980006">
        <ele>1807.42</ele>
        <time>2022-07-14T15:41:58Z</time>
      </trkpt>
      <trkpt lat="42.7732066903" lon="-0.4193437658">
        <ele>1809.82</ele>
        <time>2022-07-14T15:42:07Z</time>
      </trkpt>
      <trkpt lat="42.7732012421" lon="-0.4194902815">
        <ele>1811.26</ele>
        <time>2022-07-14T15:42:20Z</time>
      </trkpt>
      <trkpt lat="42.7732378710" lon="-0.4195921216">
        <ele>1813.66</ele>
        <time>2022-07-14T15:42:31Z</time>
      </trkpt>
      <trkpt lat="42.7732947841" lon="-0.4197429959">
        <ele>1816.07</ele>
        <time>2022-07-14T15:42:46Z</time>
      </trkpt>
      <trkpt lat="42.7733209357" lon="-0.4198412318">
        <ele>1818.47</ele>
        <time>2022-07-14T15:42:54Z</time>
      </trkpt>
      <trkpt lat="42.7733198460" lon="-0.4198769387">
        <ele>1818.47</ele>
        <time>2022-07-14T15:42:56Z</time>
      </trkpt>
      <trkpt lat="42.7733333409" lon="-0.4200682975">
        <ele>1821.84</ele>
        <time>2022-07-14T15:43:12Z</time>
      </trkpt>
      <trkpt lat="42.7733298205" lon="-0.4203094449">
        <ele>1824.24</ele>
        <time>2022-07-14T15:43:29Z</time>
      </trkpt>
      <trkpt lat="42.7733263001" lon="-0.4204666056">
        <ele>1827.60</ele>
        <time>2022-07-14T15:43:44Z</time>
      </trkpt>
      <trkpt lat="42.7733326703" lon="-0.4205911607">
        <ele>1829.05</ele>
        <time>2022-07-14T15:43:56Z</time>
      </trkpt>
      <trkpt lat="42.7733423095" lon="-0.4207270313">
        <ele>1831.45</ele>
        <time>2022-07-14T15:44:08Z</time>
      </trkpt>
      <trkpt lat="42.7733417228" lon="-0.4209042247">
        <ele>1833.37</ele>
        <time>2022-07-14T15:44:22Z</time>
      </trkpt>
      <trkpt lat="42.7733630128" lon="-0.4210473876">
        <ele>1836.26</ele>
        <time>2022-07-14T15:44:36Z</time>
      </trkpt>
      <trkpt lat="42.7733749989" lon="-0.4211562686">
        <ele>1838.18</ele>
        <time>2022-07-14T15:44:46Z</time>
      </trkpt>
      <trkpt lat="42.7733824588" lon="-0.4213259183">
        <ele>1840.10</ele>
        <time>2022-07-14T15:45:01Z</time>
      </trkpt>
      <trkpt lat="42.7734361868" lon="-0.4214627109">
        <ele>1842.50</ele>
        <time>2022-07-14T15:45:14Z</time>
      </trkpt>
      <trkpt lat="42.7734541241" lon="-0.4215117451">
        <ele>1842.98</ele>
        <time>2022-07-14T15:45:20Z</time>
      </trkpt>
      <trkpt lat="42.7735152282" lon="-0.4215627071">
        <ele>1845.39</ele>
        <time>2022-07-14T15:45:29Z</time>
      </trkpt>
      <trkpt lat="42.7735739853" lon="-0.4216452688">
        <ele>1846.83</ele>
        <time>2022-07-14T15:45:37Z</time>
      </trkpt>
      <trkpt lat="42.7735901624" lon="-0.4217873421">
        <ele>1849.23</ele>
        <time>2022-07-14T15:45:49Z</time>
      </trkpt>
      <trkpt lat="42.7736533619" lon="-0.4218865000">
        <ele>1853.08</ele>
        <time>2022-07-14T15:46:03Z</time>
      </trkpt>
      <trkpt lat="42.7736748196" lon="-0.4218870867">
        <ele>1853.56</ele>
        <time>2022-07-14T15:46:09Z</time>
      </trkpt>
      <trkpt lat="42.7737370133" lon="-0.4220253881">
        <ele>1856.92</ele>
        <time>2022-07-14T15:46:23Z</time>
      </trkpt>
      <trkpt lat="42.7737791743" lon="-0.4221504461">
        <ele>1859.33</ele>
        <time>2022-07-14T15:46:36Z</time>
      </trkpt>
      <trkpt lat="42.7737593930" lon="-0.4222414736">
        <ele>1862.21</ele>
        <time>2022-07-14T15:46:47Z</time>
      </trkpt>
      <trkpt lat="42.7737563755" lon="-0.4222592432">
        <ele>1862.21</ele>
        <time>2022-07-14T15:46:50Z</time>
      </trkpt>
      <trkpt lat="42.7737733908" lon="-0.4223968741">
        <ele>1865.09</ele>
        <time>2022-07-14T15:47:04Z</time>
      </trkpt>
      <trkpt lat="42.7737075090" lon="-0.4224972893">
        <ele>1867.98</ele>
        <time>2022-07-14T15:47:17Z</time>
      </trkpt>
      <trkpt lat="42.7736957744" lon="-0.4225339182">
        <ele>1869.90</ele>
        <time>2022-07-14T15:47:20Z</time>
      </trkpt>
      <trkpt lat="42.7736355085" lon="-0.4227083456">
        <ele>1869.90</ele>
        <time>2022-07-14T15:47:35Z</time>
      </trkpt>
      <trkpt lat="42.7735946886" lon="-0.4228936695">
        <ele>1871.34</ele>
        <time>2022-07-14T15:47:48Z</time>
      </trkpt>
      <trkpt lat="42.7735833731" lon="-0.4230383411">
        <ele>1873.27</ele>
        <time>2022-07-14T15:48:00Z</time>
      </trkpt>
      <trkpt lat="42.7735464089" lon="-0.4231878743">
        <ele>1873.75</ele>
        <time>2022-07-14T15:48:10Z</time>
      </trkpt>
      <trkpt lat="42.7735680342" lon="-0.4234153591">
        <ele>1873.75</ele>
        <time>2022-07-14T15:48:23Z</time>
      </trkpt>
      <trkpt lat="42.7735716384" lon="-0.4236606974">
        <ele>1874.71</ele>
        <time>2022-07-14T15:48:38Z</time>
      </trkpt>
      <trkpt lat="42.7736141346" lon="-0.4238768667">
        <ele>1875.67</ele>
        <time>2022-07-14T15:48:52Z</time>
      </trkpt>
      <trkpt lat="42.7736214269" lon="-0.4239686485">
        <ele>1875.67</ele>
        <time>2022-07-14T15:48:58Z</time>
      </trkpt>
      <trkpt lat="42.7735267952" lon="-0.4241818003">
        <ele>1877.59</ele>
        <time>2022-07-14T15:49:12Z</time>
      </trkpt>
      <trkpt lat="42.7734356001" lon="-0.4243354406">
        <ele>1878.07</ele>
        <time>2022-07-14T15:49:24Z</time>
      </trkpt>
      <trkpt lat="42.7733984683" lon="-0.4245327506">
        <ele>1878.55</ele>
        <time>2022-07-14T15:49:37Z</time>
      </trkpt>
      <trkpt lat="42.7733845543" lon="-0.4245949443">
        <ele>1879.03</ele>
        <time>2022-07-14T15:49:43Z</time>
      </trkpt>
      <trkpt lat="42.7734001447" lon="-0.4246645980">
        <ele>1880.48</ele>
        <time>2022-07-14T15:49:54Z</time>
      </trkpt>
      <trkpt lat="42.7734254580" lon="-0.4247110337">
        <ele>1880.48</ele>
        <time>2022-07-14T15:49:58Z</time>
      </trkpt>
      <trkpt lat="42.7734939381" lon="-0.4248041566">
        <ele>1880.48</ele>
        <time>2022-07-14T15:50:08Z</time>
      </trkpt>
      <trkpt lat="42.7735604066" lon="-0.4249013029">
        <ele>1882.40</ele>
        <time>2022-07-14T15:50:20Z</time>
      </trkpt>
      <trkpt lat="42.7736544516" lon="-0.4251460545">
        <ele>1883.36</ele>
        <time>2022-07-14T15:50:36Z</time>
      </trkpt>
      <trkpt lat="42.7736871410" lon="-0.4253439512">
        <ele>1884.32</ele>
        <time>2022-07-14T15:50:50Z</time>
      </trkpt>
      <trkpt lat="42.7737353370" lon="-0.4254871141">
        <ele>1884.80</ele>
        <time>2022-07-14T15:51:04Z</time>
      </trkpt>
      <trkpt lat="42.7737553697" lon="-0.4255146068">
        <ele>1885.28</ele>
        <time>2022-07-14T15:51:07Z</time>
      </trkpt>
      <trkpt lat="42.7737233508" lon="-0.4258192889">
        <ele>1886.24</ele>
        <time>2022-07-14T15:51:23Z</time>
      </trkpt>
      <trkpt lat="42.7737006359" lon="-0.4259563331">
        <ele>1886.72</ele>
        <time>2022-07-14T15:51:32Z</time>
      </trkpt>
      <trkpt lat="42.7737129573" lon="-0.4261973128">
        <ele>1887.69</ele>
        <time>2022-07-14T15:51:48Z</time>
      </trkpt>
      <trkpt lat="42.7737170644" lon="-0.4262101371">
        <ele>1887.69</ele>
        <time>2022-07-14T15:51:49Z</time>
      </trkpt>
      <trkpt lat="42.7737344988" lon="-0.4264263064">
        <ele>1888.65</ele>
        <time>2022-07-14T15:52:04Z</time>
      </trkpt>
      <trkpt lat="42.7737748157" lon="-0.4265818745">
        <ele>1890.57</ele>
        <time>2022-07-14T15:52:17Z</time>
      </trkpt>
      <trkpt lat="42.7737732232" lon="-0.4267219361">
        <ele>1892.49</ele>
        <time>2022-07-14T15:52:31Z</time>
      </trkpt>
      <trkpt lat="42.7738142107" lon="-0.4267841298">
        <ele>1894.90</ele>
        <time>2022-07-14T15:52:43Z</time>
      </trkpt>
      <trkpt lat="42.7738480736" lon="-0.4268736485">
        <ele>1898.26</ele>
        <time>2022-07-14T15:52:56Z</time>
      </trkpt>
      <trkpt lat="42.7738802601" lon="-0.4269599821">
        <ele>1900.66</ele>
        <time>2022-07-14T15:53:10Z</time>
      </trkpt>
      <trkpt lat="42.7738891449" lon="-0.4270431306">
        <ele>1904.51</ele>
        <time>2022-07-14T15:53:26Z</time>
      </trkpt>
      <trkpt lat="42.7738957666" lon="-0.4270607326">
        <ele>1903.07</ele>
        <time>2022-07-14T15:53:40Z</time>
      </trkpt>
      <trkpt lat="42.7739176434" lon="-0.4270821903">
        <ele>1904.51</ele>
        <time>2022-07-14T15:53:45Z</time>
      </trkpt>
      <trkpt lat="42.7739510871" lon="-0.4271796718">
        <ele>1907.87</ele>
        <time>2022-07-14T15:54:00Z</time>
      </trkpt>
      <trkpt lat="42.7739419509" lon="-0.4273353238">
        <ele>1909.80</ele>
        <time>2022-07-14T15:54:14Z</time>
      </trkpt>
      <trkpt lat="42.7739673480" lon="-0.4274696019">
        <ele>1911.72</ele>
        <time>2022-07-14T15:54:28Z</time>
      </trkpt>
      <trkpt lat="42.7740253508" lon="-0.4275402613">
        <ele>1915.08</ele>
        <time>2022-07-14T15:54:42Z</time>
      </trkpt>
      <trkpt lat="42.7740548551" lon="-0.4276446998">
        <ele>1917.49</ele>
        <time>2022-07-14T15:54:56Z</time>
      </trkpt>
      <trkpt lat="42.7740800008" lon="-0.4277167004">
        <ele>1919.41</ele>
        <time>2022-07-14T15:55:05Z</time>
      </trkpt>
      <trkpt lat="42.7741072420" lon="-0.4278768785">
        <ele>1920.85</ele>
        <time>2022-07-14T15:55:20Z</time>
      </trkpt>
      <trkpt lat="42.7741276938" lon="-0.4279889446">
        <ele>1923.74</ele>
        <time>2022-07-14T15:55:33Z</time>
      </trkpt>
      <trkpt lat="42.7741696872" lon="-0.4281112365">
        <ele>1925.66</ele>
        <time>2022-07-14T15:55:46Z</time>
      </trkpt>
      <trkpt lat="42.7742429450" lon="-0.4282297567">
        <ele>1929.02</ele>
        <time>2022-07-14T15:56:01Z</time>
      </trkpt>
      <trkpt lat="42.7743134368" lon="-0.4283247236">
        <ele>1931.91</ele>
        <time>2022-07-14T15:56:17Z</time>
      </trkpt>
      <trkpt lat="42.7743468806" lon="-0.4284382984">
        <ele>1934.79</ele>
        <time>2022-07-14T15:56:32Z</time>
      </trkpt>
      <trkpt lat="42.7744035423" lon="-0.4285442457">
        <ele>1937.67</ele>
        <time>2022-07-14T15:56:48Z</time>
      </trkpt>
      <trkpt lat="42.7744291909" lon="-0.4286543839">
        <ele>1940.56</ele>
        <time>2022-07-14T15:57:01Z</time>
      </trkpt>
      <trkpt lat="42.7744607069" lon="-0.4287565593">
        <ele>1942.48</ele>
        <time>2022-07-14T15:57:14Z</time>
      </trkpt>
      <trkpt lat="42.7745277621" lon="-0.4288355168">
        <ele>1945.36</ele>
        <time>2022-07-14T15:57:29Z</time>
      </trkpt>
      <trkpt lat="42.7745562606" lon="-0.4289482534">
        <ele>1947.77</ele>
        <time>2022-07-14T15:57:41Z</time>
      </trkpt>
      <trkpt lat="42.7745959908" lon="-0.4290479980">
        <ele>1950.17</ele>
        <time>2022-07-14T15:57:55Z</time>
      </trkpt>
      <trkpt lat="42.7746027801" lon="-0.4291435517">
        <ele>1951.61</ele>
        <time>2022-07-14T15:58:08Z</time>
      </trkpt>
      <trkpt lat="42.7746074740" lon="-0.4292228445">
        <ele>1951.61</ele>
        <time>2022-07-14T15:58:21Z</time>
      </trkpt>
      <trkpt lat="42.7746356372" lon="-0.4293743894">
        <ele>1951.13</ele>
        <time>2022-07-14T15:58:31Z</time>
      </trkpt>
      <trkpt lat="42.7746480424" lon="-0.4294025525">
        <ele>1952.57</ele>
        <time>2022-07-14T15:58:33Z</time>
      </trkpt>
      <trkpt lat="42.7746748645" lon="-0.4294421151">
        <ele>1952.57</ele>
        <time>2022-07-14T15:58:37Z</time>
      </trkpt>
      <trkpt lat="42.7746931370" lon="-0.4296215717">
        <ele>1954.02</ele>
        <time>2022-07-14T15:58:51Z</time>
      </trkpt>
      <trkpt lat="42.7747044526" lon="-0.4296432808">
        <ele>1954.50</ele>
        <time>2022-07-14T15:58:53Z</time>
      </trkpt>
      <trkpt lat="42.7747901995" lon="-0.4298126791">
        <ele>1956.90</ele>
        <time>2022-07-14T15:59:09Z</time>
      </trkpt>
      <trkpt lat="42.7747575101" lon="-0.4299754556">
        <ele>1958.34</ele>
        <time>2022-07-14T15:59:23Z</time>
      </trkpt>
      <trkpt lat="42.7747620363" lon="-0.4301085602">
        <ele>1960.75</ele>
        <time>2022-07-14T15:59:36Z</time>
      </trkpt>
      <trkpt lat="42.7747782134" lon="-0.4302041978">
        <ele>1963.15</ele>
        <time>2022-07-14T15:59:49Z</time>
      </trkpt>
      <trkpt lat="42.7747816499" lon="-0.4302614462">
        <ele>1963.15</ele>
        <time>2022-07-14T15:59:54Z</time>
      </trkpt>
      <trkpt lat="42.7748303488" lon="-0.4304854106">
        <ele>1963.63</ele>
        <time>2022-07-14T16:00:09Z</time>
      </trkpt>
      <trkpt lat="42.7748540696" lon="-0.4305259790">
        <ele>1964.11</ele>
        <time>2022-07-14T16:00:14Z</time>
      </trkpt>
      <trkpt lat="42.7749202866" lon="-0.4306731652">
        <ele>1966.51</ele>
        <time>2022-07-14T16:00:29Z</time>
      </trkpt>
      <trkpt lat="42.7749514673" lon="-0.4307336826">
        <ele>1966.51</ele>
        <time>2022-07-14T16:00:40Z</time>
      </trkpt>
      <trkpt lat="42.7749619447" lon="-0.4308377858">
        <ele>1967.48</ele>
        <time>2022-07-14T16:00:53Z</time>
      </trkpt>
      <trkpt lat="42.7750573307" lon="-0.4309028294">
        <ele>1968.44</ele>
        <time>2022-07-14T16:01:05Z</time>
      </trkpt>
      <trkpt lat="42.7750917803" lon="-0.4310821183">
        <ele>1968.92</ele>
        <time>2022-07-14T16:01:21Z</time>
      </trkpt>
      <trkpt lat="42.7751061134" lon="-0.4311824497">
        <ele>1971.80</ele>
        <time>2022-07-14T16:01:35Z</time>
      </trkpt>
      <trkpt lat="42.7750878409" lon="-0.4312492535">
        <ele>1973.24</ele>
        <time>2022-07-14T16:01:42Z</time>
      </trkpt>
      <trkpt lat="42.7750455961" lon="-0.4314692784">
        <ele>1975.17</ele>
        <time>2022-07-14T16:01:59Z</time>
      </trkpt>
      <trkpt lat="42.7750424948" lon="-0.4315087572">
        <ele>1975.17</ele>
        <time>2022-07-14T16:02:02Z</time>
      </trkpt>
      <trkpt lat="42.7750585042" lon="-0.4317020439">
        <ele>1977.09</ele>
        <time>2022-07-14T16:02:17Z</time>
      </trkpt>
      <trkpt lat="42.7750481106" lon="-0.4318714421">
        <ele>1979.01</ele>
        <time>2022-07-14T16:02:30Z</time>
      </trkpt>
      <trkpt lat="42.7750523854" lon="-0.4318964202">
        <ele>1979.49</ele>
        <time>2022-07-14T16:02:32Z</time>
      </trkpt>
      <trkpt lat="42.7750403993" lon="-0.4320695065">
        <ele>1981.90</ele>
        <time>2022-07-14T16:02:48Z</time>
      </trkpt>
      <trkpt lat="42.7750365436" lon="-0.4322166927">
        <ele>1984.30</ele>
        <time>2022-07-14T16:03:02Z</time>
      </trkpt>
      <trkpt lat="42.7749621123" lon="-0.4323724285">
        <ele>1986.22</ele>
        <time>2022-07-14T16:03:17Z</time>
      </trkpt>
      <trkpt lat="42.7749537304" lon="-0.4325239733">
        <ele>1989.10</ele>
        <time>2022-07-14T16:03:32Z</time>
      </trkpt>
      <trkpt lat="42.7749530599" lon="-0.4326550663">
        <ele>1991.51</ele>
        <time>2022-07-14T16:03:48Z</time>
      </trkpt>
      <trkpt lat="42.7749627829" lon="-0.4326933715">
        <ele>1994.39</ele>
        <time>2022-07-14T16:04:01Z</time>
      </trkpt>
      <trkpt lat="42.7749202028" lon="-0.4328453355">
        <ele>1995.35</ele>
        <time>2022-07-14T16:04:14Z</time>
      </trkpt>
      <trkpt lat="42.7749037743" lon="-0.4329354409">
        <ele>1997.28</ele>
        <time>2022-07-14T16:04:26Z</time>
      </trkpt>
      <trkpt lat="42.7748618647" lon="-0.4329700582">
        <ele>1999.20</ele>
        <time>2022-07-14T16:04:38Z</time>
      </trkpt>
      <trkpt lat="42.7748560812" lon="-0.4330954514">
        <ele>2002.08</ele>
        <time>2022-07-14T16:04:53Z</time>
      </trkpt>
      <trkpt lat="42.7748324443" lon="-0.4331637640">
        <ele>2003.52</ele>
        <time>2022-07-14T16:05:05Z</time>
      </trkpt>
      <trkpt lat="42.7748365514" lon="-0.4332871456">
        <ele>2006.89</ele>
        <time>2022-07-14T16:05:21Z</time>
      </trkpt>
      <trkpt lat="42.7748018503" lon="-0.4333759937">
        <ele>2007.85</ele>
        <time>2022-07-14T16:05:29Z</time>
      </trkpt>
      <trkpt lat="42.7748099808" lon="-0.4334295541">
        <ele>2008.33</ele>
        <time>2022-07-14T16:05:33Z</time>
      </trkpt>
      <trkpt lat="42.7747861762" lon="-0.4335309751">
        <ele>2009.77</ele>
        <time>2022-07-14T16:05:46Z</time>
      </trkpt>
      <trkpt lat="42.7747821528" lon="-0.4335910734">
        <ele>2011.22</ele>
        <time>2022-07-14T16:05:57Z</time>
      </trkpt>
      <trkpt lat="42.7748081367" lon="-0.4336457234">
        <ele>2014.10</ele>
        <time>2022-07-14T16:06:11Z</time>
      </trkpt>
      <trkpt lat="42.7748157643" lon="-0.4337333981">
        <ele>2016.02</ele>
        <time>2022-07-14T16:06:24Z</time>
      </trkpt>
      <trkpt lat="42.7748365514" lon="-0.4338033032">
        <ele>2018.43</ele>
        <time>2022-07-14T16:06:35Z</time>
      </trkpt>
      <trkpt lat="42.7748147584" lon="-0.4338447936">
        <ele>2019.87</ele>
        <time>2022-07-14T16:06:43Z</time>
      </trkpt>
      <trkpt lat="42.7748013474" lon="-0.4339400958">
        <ele>2021.31</ele>
        <time>2022-07-14T16:06:58Z</time>
      </trkpt>
      <trkpt lat="42.7748608589" lon="-0.4339331388">
        <ele>2022.75</ele>
        <time>2022-07-14T16:07:07Z</time>
      </trkpt>
      <trkpt lat="42.7748530637" lon="-0.4339678399">
        <ele>2022.75</ele>
        <time>2022-07-14T16:07:09Z</time>
      </trkpt>
      <trkpt lat="42.7748022694" lon="-0.4340373259">
        <ele>2023.23</ele>
        <time>2022-07-14T16:07:15Z</time>
      </trkpt>
      <trkpt lat="42.7747539897" lon="-0.4342011921">
        <ele>2023.71</ele>
        <time>2022-07-14T16:07:30Z</time>
      </trkpt>
      <trkpt lat="42.7747394051" lon="-0.4342403356">
        <ele>2024.19</ele>
        <time>2022-07-14T16:07:34Z</time>
      </trkpt>
      <trkpt lat="42.7747535706" lon="-0.4342878610">
        <ele>2024.19</ele>
        <time>2022-07-14T16:07:37Z</time>
      </trkpt>
      <trkpt lat="42.7747554146" lon="-0.4343712609">
        <ele>2024.19</ele>
        <time>2022-07-14T16:07:43Z</time>
      </trkpt>
      <trkpt lat="42.7747510560" lon="-0.4344988335">
        <ele>2026.60</ele>
        <time>2022-07-14T16:07:56Z</time>
      </trkpt>
      <trkpt lat="42.7747345436" lon="-0.4346279986">
        <ele>2028.52</ele>
        <time>2022-07-14T16:08:10Z</time>
      </trkpt>
      <trkpt lat="42.7747008484" lon="-0.4347444233">
        <ele>2029.96</ele>
        <time>2022-07-14T16:08:22Z</time>
      </trkpt>
      <trkpt lat="42.7746875212" lon="-0.4348002467">
        <ele>2030.44</ele>
        <time>2022-07-14T16:08:27Z</time>
      </trkpt>
      <trkpt lat="42.7747869305" lon="-0.4348755162">
        <ele>2032.36</ele>
        <time>2022-07-14T16:08:40Z</time>
      </trkpt>
      <trkpt lat="42.7748095617" lon="-0.4349675495">
        <ele>2034.29</ele>
        <time>2022-07-14T16:08:54Z</time>
      </trkpt>
      <trkpt lat="42.7748704143" lon="-0.4350408074">
        <ele>2036.69</ele>
        <time>2022-07-14T16:09:07Z</time>
      </trkpt>
      <trkpt lat="42.7748511359" lon="-0.4351194296">
        <ele>2036.69</ele>
        <time>2022-07-14T16:09:12Z</time>
      </trkpt>
      <trkpt lat="42.7748397365" lon="-0.4352164082">
        <ele>2037.65</ele>
        <time>2022-07-14T16:09:20Z</time>
      </trkpt>
      <trkpt lat="42.7748498786" lon="-0.4352954496">
        <ele>2036.21</ele>
        <time>2022-07-14T16:09:32Z</time>
      </trkpt>
      <trkpt lat="42.7748609427" lon="-0.4353252053">
        <ele>2037.17</ele>
        <time>2022-07-14T16:09:44Z</time>
      </trkpt>
      <trkpt lat="42.7748645470" lon="-0.4353121296">
        <ele>2037.65</ele>
        <time>2022-07-14T16:09:59Z</time>
      </trkpt>
      <trkpt lat="42.7744681668" lon="-0.4353648517">
        <ele>1999.68</ele>
        <time>2022-07-14T16:19:24Z</time>
      </trkpt>
      <trkpt lat="42.7744725253" lon="-0.4353616666">
        <ele>1999.68</ele>
        <time>2022-07-14T16:19:25Z</time>
      </trkpt>
      <trkpt lat="42.7745309472" lon="-0.4353941046">
        <ele>1999.68</ele>
        <time>2022-07-14T16:19:38Z</time>
      </trkpt>
      <trkpt lat="42.7746166103" lon="-0.4354242794">
        <ele>2002.08</ele>
        <time>2022-07-14T16:19:53Z</time>
      </trkpt>
      <trkpt lat="42.7747030277" lon="-0.4355283827">
        <ele>2003.52</ele>
        <time>2022-07-14T16:20:06Z</time>
      </trkpt>
      <trkpt lat="42.7747742739" lon="-0.4355024826">
        <ele>2007.37</ele>
        <time>2022-07-14T16:20:14Z</time>
      </trkpt>
      <trkpt lat="42.7747969888" lon="-0.4354998004">
        <ele>2012.18</ele>
        <time>2022-07-14T16:20:16Z</time>
      </trkpt>
      <trkpt lat="42.7748093940" lon="-0.4355100263">
        <ele>2016.98</ele>
        <time>2022-07-14T16:20:18Z</time>
      </trkpt>
      <trkpt lat="42.7748129144" lon="-0.4355198331">
        <ele>2022.75</ele>
        <time>2022-07-14T16:20:20Z</time>
      </trkpt>
      <trkpt lat="42.7748166025" lon="-0.4355242755">
        <ele>2022.75</ele>
        <time>2022-07-14T16:20:21Z</time>
      </trkpt>
      <trkpt lat="42.7748170216" lon="-0.4355331603">
        <ele>2027.08</ele>
        <time>2022-07-14T16:20:24Z</time>
      </trkpt>
      <trkpt lat="42.7748187818" lon="-0.4355448950">
        <ele>2030.44</ele>
        <time>2022-07-14T16:20:26Z</time>
      </trkpt>
      <trkpt lat="42.7748207934" lon="-0.4355547018">
        <ele>2033.33</ele>
        <time>2022-07-14T16:20:28Z</time>
      </trkpt>
      <trkpt lat="42.7748221345" lon="-0.4355755728">
        <ele>2037.17</ele>
        <time>2022-07-14T16:20:31Z</time>
      </trkpt>
      <trkpt lat="42.7748179436" lon="-0.4355857149">
        <ele>2041.50</ele>
        <time>2022-07-14T16:20:34Z</time>
      </trkpt>
      <trkpt lat="42.7748035267" lon="-0.4355991259">
        <ele>2044.38</ele>
        <time>2022-07-14T16:20:37Z</time>
      </trkpt>
      <trkpt lat="42.7747832425" lon="-0.4356357548">
        <ele>2048.71</ele>
        <time>2022-07-14T16:20:42Z</time>
      </trkpt>
      <trkpt lat="42.7747765370" lon="-0.4356642533">
        <ele>2052.55</ele>
        <time>2022-07-14T16:20:46Z</time>
      </trkpt>
      <trkpt lat="42.7747697476" lon="-0.4357144609">
        <ele>2055.92</ele>
        <time>2022-07-14T16:20:51Z</time>
      </trkpt>
      <trkpt lat="42.7747547440" lon="-0.4357665125">
        <ele>2059.28</ele>
        <time>2022-07-14T16:20:56Z</time>
      </trkpt>
      <trkpt lat="42.7747327834" lon="-0.4358107690">
        <ele>2062.65</ele>
        <time>2022-07-14T16:21:02Z</time>
      </trkpt>
      <trkpt lat="42.7747174446" lon="-0.4358479846">
        <ele>2064.57</ele>
        <time>2022-07-14T16:21:06Z</time>
      </trkpt>
      <trkpt lat="42.7747122478" lon="-0.4358728789">
        <ele>2065.53</ele>
        <time>2022-07-14T16:21:09Z</time>
      </trkpt>
      <trkpt lat="42.7747109905" lon="-0.4358944204">
        <ele>2066.97</ele>
        <time>2022-07-14T16:21:12Z</time>
      </trkpt>
      <trkpt lat="42.7747010998" lon="-0.4358986113">
        <ele>2067.93</ele>
        <time>2022-07-14T16:21:14Z</time>
      </trkpt>
      <trkpt lat="42.7746929694" lon="-0.4359230027">
        <ele>2068.89</ele>
        <time>2022-07-14T16:21:17Z</time>
      </trkpt>
      <trkpt lat="42.7746712603" lon="-0.4359743837">
        <ele>2070.82</ele>
        <time>2022-07-14T16:21:23Z</time>
      </trkpt>
      <trkpt lat="42.7746654768" lon="-0.4360312968">
        <ele>2073.70</ele>
        <time>2022-07-14T16:21:31Z</time>
      </trkpt>
      <trkpt lat="42.7746531554" lon="-0.4361111764">
        <ele>2077.07</ele>
        <time>2022-07-14T16:21:41Z</time>
      </trkpt>
      <trkpt lat="42.7750731725" lon="-0.4376838729">
        <ele>2116.96</ele>
        <time>2022-07-14T16:27:59Z</time>
      </trkpt>
      <trkpt lat="42.7750739269" lon="-0.4376845434">
        <ele>2116.96</ele>
        <time>2022-07-14T16:28:00Z</time>
      </trkpt>
      <trkpt lat="42.7750590071" lon="-0.4378132895">
        <ele>2116.96</ele>
        <time>2022-07-14T16:28:19Z</time>
      </trkpt>
      <trkpt lat="42.7750517987" lon="-0.4378351662">
        <ele>2112.63</ele>
        <time>2022-07-14T16:28:26Z</time>
      </trkpt>
      <trkpt lat="42.7750517987" lon="-0.4378380161">
        <ele>2117.92</ele>
        <time>2022-07-14T16:28:27Z</time>
      </trkpt>
      <trkpt lat="42.7750521339" lon="-0.4378407821">
        <ele>2117.92</ele>
        <time>2022-07-14T16:28:31Z</time>
      </trkpt>
      <trkpt lat="42.7750426624" lon="-0.4378382675">
        <ele>2114.56</ele>
        <time>2022-07-14T16:28:34Z</time>
      </trkpt>
      <trkpt lat="42.7750390582" lon="-0.4378378484">
        <ele>2118.40</ele>
        <time>2022-07-14T16:28:35Z</time>
      </trkpt>
      <trkpt lat="42.7750382200" lon="-0.4378384352">
        <ele>2115.04</ele>
        <time>2022-07-14T16:28:36Z</time>
      </trkpt>
      <trkpt lat="42.7750368789" lon="-0.4378386866">
        <ele>2118.88</ele>
        <time>2022-07-14T16:28:37Z</time>
      </trkpt>
      <trkpt lat="42.7750388905" lon="-0.4378321487">
        <ele>2116.00</ele>
        <time>2022-07-14T16:28:41Z</time>
      </trkpt>
      <trkpt lat="42.7750479430" lon="-0.4378308076">
        <ele>2117.44</ele>
        <time>2022-07-14T16:28:51Z</time>
      </trkpt>
      <trkpt lat="42.7750514634" lon="-0.4378365912">
        <ele>2116.48</ele>
        <time>2022-07-14T16:29:03Z</time>
      </trkpt>
      <trkpt lat="42.7750542294" lon="-0.4378559534">
        <ele>2113.12</ele>
        <time>2022-07-14T16:29:17Z</time>
      </trkpt>
      <trkpt lat="42.7750918642" lon="-0.4379422031">
        <ele>2112.63</ele>
        <time>2022-07-14T16:29:30Z</time>
      </trkpt>
      <trkpt lat="42.7751779463" lon="-0.4379983619">
        <ele>2115.04</ele>
        <time>2022-07-14T16:29:43Z</time>
      </trkpt>
      <trkpt lat="42.7752582449" lon="-0.4380670935">
        <ele>2116.00</ele>
        <time>2022-07-14T16:29:56Z</time>
      </trkpt>
      <trkpt lat="42.7752765175" lon="-0.4380152095">
        <ele>2118.88</ele>
        <time>2022-07-14T16:30:09Z</time>
      </trkpt>
      <trkpt lat="42.7753304970" lon="-0.4380358290">
        <ele>2120.81</ele>
        <time>2022-07-14T16:30:21Z</time>
      </trkpt>
      <trkpt lat="42.7753892541" lon="-0.4380843602">
        <ele>2122.73</ele>
        <time>2022-07-14T16:30:34Z</time>
      </trkpt>
      <trkpt lat="42.7754423954" lon="-0.4380621482">
        <ele>2124.65</ele>
        <time>2022-07-14T16:30:42Z</time>
      </trkpt>
      <trkpt lat="42.7754465025" lon="-0.4381984379">
        <ele>2126.57</ele>
        <time>2022-07-14T16:30:55Z</time>
      </trkpt>
      <trkpt lat="42.7754655294" lon="-0.4382478911">
        <ele>2127.05</ele>
        <time>2022-07-14T16:30:59Z</time>
      </trkpt>
      <trkpt lat="42.7754956204" lon="-0.4384103324">
        <ele>2130.90</ele>
        <time>2022-07-14T16:31:15Z</time>
      </trkpt>
      <trkpt lat="42.7755007334" lon="-0.4384250008">
        <ele>2131.38</ele>
        <time>2022-07-14T16:31:17Z</time>
      </trkpt>
      <trkpt lat="42.7755483426" lon="-0.4385647271">
        <ele>2134.26</ele>
        <time>2022-07-14T16:31:31Z</time>
      </trkpt>
      <trkpt lat="42.7755556349" lon="-0.4386225622">
        <ele>2134.74</ele>
        <time>2022-07-14T16:31:36Z</time>
      </trkpt>
      <trkpt lat="42.7756052557" lon="-0.4387761187">
        <ele>2138.11</ele>
        <time>2022-07-14T16:31:50Z</time>
      </trkpt>
      <trkpt lat="42.7756609954" lon="-0.4388854187">
        <ele>2140.51</ele>
        <time>2022-07-14T16:32:04Z</time>
      </trkpt>
      <trkpt lat="42.7756724786" lon="-0.4388917051">
        <ele>2140.99</ele>
        <time>2022-07-14T16:32:06Z</time>
      </trkpt>
      <trkpt lat="42.7756749094" lon="-0.4390145000">
        <ele>2143.88</ele>
        <time>2022-07-14T16:32:19Z</time>
      </trkpt>
      <trkpt lat="42.7757258713" lon="-0.4390676413">
        <ele>2146.28</ele>
        <time>2022-07-14T16:32:31Z</time>
      </trkpt>
      <trkpt lat="42.7757310681" lon="-0.4390807170">
        <ele>2146.28</ele>
        <time>2022-07-14T16:32:33Z</time>
      </trkpt>
      <trkpt lat="42.7757469099" lon="-0.4391517956">
        <ele>2148.20</ele>
        <time>2022-07-14T16:32:41Z</time>
      </trkpt>
      <trkpt lat="42.7757368516" lon="-0.4391656257">
        <ele>2148.20</ele>
        <time>2022-07-14T16:32:43Z</time>
      </trkpt>
      <trkpt lat="42.7757645119" lon="-0.4392862413">
        <ele>2151.57</ele>
        <time>2022-07-14T16:32:57Z</time>
      </trkpt>
      <trkpt lat="42.7758136299" lon="-0.4393724911">
        <ele>2153.97</ele>
        <time>2022-07-14T16:33:11Z</time>
      </trkpt>
      <trkpt lat="42.7757890709" lon="-0.4394916818">
        <ele>2157.82</ele>
        <time>2022-07-14T16:33:24Z</time>
      </trkpt>
      <trkpt lat="42.7758175693" lon="-0.4395400453">
        <ele>2160.22</ele>
        <time>2022-07-14T16:33:38Z</time>
      </trkpt>
      <trkpt lat="42.7758498397" lon="-0.4395863134">
        <ele>2163.10</ele>
        <time>2022-07-14T16:33:51Z</time>
      </trkpt>
      <trkpt lat="42.7759117819" lon="-0.4395904206">
        <ele>2165.51</ele>
        <time>2022-07-14T16:34:02Z</time>
      </trkpt>
      <trkpt lat="42.7759408671" lon="-0.4396105371">
        <ele>2167.43</ele>
        <time>2022-07-14T16:34:08Z</time>
      </trkpt>
      <trkpt lat="42.7759751491" lon="-0.4396233615">
        <ele>2169.35</ele>
        <time>2022-07-14T16:34:21Z</time>
      </trkpt>
      <trkpt lat="42.7759440523" lon="-0.4397325777">
        <ele>2171.27</ele>
        <time>2022-07-14T16:34:34Z</time>
      </trkpt>
      <trkpt lat="42.7759670187" lon="-0.4397671111">
        <ele>2173.68</ele>
        <time>2022-07-14T16:34:49Z</time>
      </trkpt>
      <trkpt lat="42.7759813517" lon="-0.4397700448">
        <ele>2174.64</ele>
        <time>2022-07-14T16:34:53Z</time>
      </trkpt>
      <trkpt lat="42.7760081738" lon="-0.4397567175">
        <ele>2175.12</ele>
        <time>2022-07-14T16:34:57Z</time>
      </trkpt>
      <trkpt lat="42.7760204114" lon="-0.4398542829">
        <ele>2177.52</ele>
        <time>2022-07-14T16:35:07Z</time>
      </trkpt>
      <trkpt lat="42.7759490814" lon="-0.4399847053">
        <ele>2180.41</ele>
        <time>2022-07-14T16:35:22Z</time>
      </trkpt>
      <trkpt lat="42.7758812718" lon="-0.4400821030">
        <ele>2183.29</ele>
        <time>2022-07-14T16:35:35Z</time>
      </trkpt>
      <trkpt lat="42.7758071758" lon="-0.4401736334">
        <ele>2186.18</ele>
        <time>2022-07-14T16:35:49Z</time>
      </trkpt>
      <trkpt lat="42.7757443115" lon="-0.4403095879">
        <ele>2189.06</ele>
        <time>2022-07-14T16:36:03Z</time>
      </trkpt>
      <trkpt lat="42.7757397015" lon="-0.4403260164">
        <ele>2189.06</ele>
        <time>2022-07-14T16:36:04Z</time>
      </trkpt>
      <trkpt lat="42.7757218480" lon="-0.4403535929">
        <ele>2189.54</ele>
        <time>2022-07-14T16:36:07Z</time>
      </trkpt>
      <trkpt lat="42.7757139690" lon="-0.4405366536">
        <ele>2191.46</ele>
        <time>2022-07-14T16:36:19Z</time>
      </trkpt>
      <trkpt lat="42.7756895777" lon="-0.4407240730">
        <ele>2192.90</ele>
        <time>2022-07-14T16:36:33Z</time>
      </trkpt>
      <trkpt lat="42.7756899968" lon="-0.4407356400">
        <ele>2193.39</ele>
        <time>2022-07-14T16:36:34Z</time>
      </trkpt>
      <trkpt lat="42.7756955288" lon="-0.4407752864">
        <ele>2193.87</ele>
        <time>2022-07-14T16:36:37Z</time>
      </trkpt>
      <trkpt lat="42.7756915055" lon="-0.4408780485">
        <ele>2194.83</ele>
        <time>2022-07-14T16:36:44Z</time>
      </trkpt>
      <trkpt lat="42.7756993845" lon="-0.4409596045">
        <ele>2195.79</ele>
        <time>2022-07-14T16:36:50Z</time>
      </trkpt>
      <trkpt lat="42.7756957803" lon="-0.4410084710">
        <ele>2197.23</ele>
        <time>2022-07-14T16:36:54Z</time>
      </trkpt>
      <trkpt lat="42.7757094428" lon="-0.4410761129">
        <ele>2198.19</ele>
        <time>2022-07-14T16:37:00Z</time>
      </trkpt>
      <trkpt lat="42.7757483348" lon="-0.4412246402">
        <ele>2201.08</ele>
        <time>2022-07-14T16:37:13Z</time>
      </trkpt>
      <trkpt lat="42.7757900767" lon="-0.4412776977">
        <ele>2202.52</ele>
        <time>2022-07-14T16:37:19Z</time>
      </trkpt>
      <trkpt lat="42.7759745624" lon="-0.4414413963">
        <ele>2204.92</ele>
        <time>2022-07-14T16:37:38Z</time>
      </trkpt>
      <trkpt lat="42.7761624847" lon="-0.4416527878">
        <ele>2204.92</ele>
        <time>2022-07-14T16:37:57Z</time>
      </trkpt>
      <trkpt lat="42.7762737963" lon="-0.4418498464">
        <ele>2207.81</ele>
        <time>2022-07-14T16:38:14Z</time>
      </trkpt>
      <trkpt lat="42.7763544302" lon="-0.4421365913">
        <ele>2208.29</ele>
        <time>2022-07-14T16:38:31Z</time>
      </trkpt>
      <trkpt lat="42.7764095832" lon="-0.4424186423">
        <ele>2208.77</ele>
        <time>2022-07-14T16:38:47Z</time>
      </trkpt>
      <trkpt lat="42.7764971741" lon="-0.4426379967">
        <ele>2208.77</ele>
        <time>2022-07-14T16:39:01Z</time>
      </trkpt>
      <trkpt lat="42.7766210586" lon="-0.4427239113">
        <ele>2208.77</ele>
        <time>2022-07-14T16:39:15Z</time>
      </trkpt>
      <trkpt lat="42.7766578551" lon="-0.4427080695">
        <ele>2208.29</ele>
        <time>2022-07-14T16:39:29Z</time>
      </trkpt>
      <trkpt lat="42.7766684163" lon="-0.4426862765">
        <ele>2208.77</ele>
        <time>2022-07-14T16:40:02Z</time>
      </trkpt>
      <trkpt lat="42.7766938973" lon="-0.4427090753">
        <ele>2208.77</ele>
        <time>2022-07-14T16:40:30Z</time>
      </trkpt>
      <trkpt lat="42.7766612917" lon="-0.4427292757">
        <ele>2209.25</ele>
        <time>2022-07-14T16:40:57Z</time>
      </trkpt>
      <trkpt lat="42.7765692584" lon="-0.4438151512">
        <ele>2221.26</ele>
        <time>2022-07-15T06:22:16Z</time>
      </trkpt>
      <trkpt lat="42.7765768021" lon="-0.4438345134">
        <ele>2221.26</ele>
        <time>2022-07-15T06:22:18Z</time>
      </trkpt>
      <trkpt lat="42.7766447794" lon="-0.4439350124">
        <ele>2221.74</ele>
        <time>2022-07-15T06:22:25Z</time>
      </trkpt>
      <trkpt lat="42.7766644768" lon="-0.4442441370">
        <ele>2220.78</ele>
        <time>2022-07-15T06:22:42Z</time>
      </trkpt>
      <trkpt lat="42.7765913866" lon="-0.4443667643">
        <ele>2220.78</ele>
        <time>2022-07-15T06:22:49Z</time>
      </trkpt>
      <trkpt lat="42.7766493056" lon="-0.4444504157">
        <ele>2220.78</ele>
        <time>2022-07-15T06:22:56Z</time>
      </trkpt>
      <trkpt lat="42.7767451108" lon="-0.4446306266">
        <ele>2220.30</ele>
        <time>2022-07-15T06:23:11Z</time>
      </trkpt>
      <trkpt lat="42.7767534088" lon="-0.4446405172">
        <ele>2221.74</ele>
        <time>2022-07-15T06:23:22Z</time>
      </trkpt>
      <trkpt lat="42.7767426800" lon="-0.4446734581">
        <ele>2221.74</ele>
        <time>2022-07-15T06:23:41Z</time>
      </trkpt>
      <trkpt lat="42.7767420933" lon="-0.4448198900">
        <ele>2221.74</ele>
        <time>2022-07-15T06:23:51Z</time>
      </trkpt>
      <trkpt lat="42.7767512295" lon="-0.4448810779">
        <ele>2221.74</ele>
        <time>2022-07-15T06:23:55Z</time>
      </trkpt>
      <trkpt lat="42.7767715137" lon="-0.4449861869">
        <ele>2221.74</ele>
        <time>2022-07-15T06:24:02Z</time>
      </trkpt>
      <trkpt lat="42.7767808177" lon="-0.4450120032">
        <ele>2221.74</ele>
        <time>2022-07-15T06:24:04Z</time>
      </trkpt>
      <trkpt lat="42.7769056242" lon="-0.4452025238">
        <ele>2222.22</ele>
        <time>2022-07-15T06:24:20Z</time>
      </trkpt>
      <trkpt lat="42.7770160139" lon="-0.4453232232">
        <ele>2221.74</ele>
        <time>2022-07-15T06:24:33Z</time>
      </trkpt>
      <trkpt lat="42.7770433389" lon="-0.4453490395">
        <ele>2221.74</ele>
        <time>2022-07-15T06:24:36Z</time>
      </trkpt>
      <trkpt lat="42.7770848293" lon="-0.4453528114">
        <ele>2221.74</ele>
        <time>2022-07-15T06:24:40Z</time>
      </trkpt>
      <trkpt lat="42.7771832328" lon="-0.4453148413">
        <ele>2221.74</ele>
        <time>2022-07-15T06:24:50Z</time>
      </trkpt>
      <trkpt lat="42.7773729991" lon="-0.4452855047">
        <ele>2221.74</ele>
        <time>2022-07-15T06:25:05Z</time>
      </trkpt>
      <trkpt lat="42.7775254659" lon="-0.4452380631">
        <ele>2221.74</ele>
        <time>2022-07-15T06:25:17Z</time>
      </trkpt>
      <trkpt lat="42.7776224446" lon="-0.4452259094">
        <ele>2221.26</ele>
        <time>2022-07-15T06:25:25Z</time>
      </trkpt>
      <trkpt lat="42.7778359316" lon="-0.4452088103">
        <ele>2220.78</ele>
        <time>2022-07-15T06:25:42Z</time>
      </trkpt>
      <trkpt lat="42.7780293021" lon="-0.4452075530">
        <ele>2219.82</ele>
        <time>2022-07-15T06:25:56Z</time>
      </trkpt>
      <trkpt lat="42.7781878039" lon="-0.4451876041">
        <ele>2220.78</ele>
        <time>2022-07-15T06:26:10Z</time>
      </trkpt>
      <trkpt lat="42.7782374248" lon="-0.4451980814">
        <ele>2220.78</ele>
        <time>2022-07-15T06:26:14Z</time>
      </trkpt>
      <trkpt lat="42.7783900592" lon="-0.4453252349">
        <ele>2221.26</ele>
        <time>2022-07-15T06:26:29Z</time>
      </trkpt>
      <trkpt lat="42.7784936596" lon="-0.4454726726">
        <ele>2221.26</ele>
        <time>2022-07-15T06:26:41Z</time>
      </trkpt>
      <trkpt lat="42.7785109263" lon="-0.4454937112">
        <ele>2219.82</ele>
        <time>2022-07-15T06:26:43Z</time>
      </trkpt>
      <trkpt lat="42.7785163745" lon="-0.4455048591">
        <ele>2219.82</ele>
        <time>2022-07-15T06:26:44Z</time>
      </trkpt>
      <trkpt lat="42.7786782291" lon="-0.4456112254">
        <ele>2218.86</ele>
        <time>2022-07-15T06:26:59Z</time>
      </trkpt>
      <trkpt lat="42.7787814941" lon="-0.4457513709">
        <ele>2218.38</ele>
        <time>2022-07-15T06:27:13Z</time>
      </trkpt>
      <trkpt lat="42.7788102441" lon="-0.4457784444">
        <ele>2218.38</ele>
        <time>2022-07-15T06:27:16Z</time>
      </trkpt>
      <trkpt lat="42.7788363956" lon="-0.4457883351">
        <ele>2218.38</ele>
        <time>2022-07-15T06:27:18Z</time>
      </trkpt>
      <trkpt lat="42.7789688297" lon="-0.4457460064">
        <ele>2218.86</ele>
        <time>2022-07-15T06:27:33Z</time>
      </trkpt>
      <trkpt lat="42.7790777944" lon="-0.4456170090">
        <ele>2220.78</ele>
        <time>2022-07-15T06:27:46Z</time>
      </trkpt>
      <trkpt lat="42.7791167703" lon="-0.4456320964">
        <ele>2221.26</ele>
        <time>2022-07-15T06:27:50Z</time>
      </trkpt>
      <trkpt lat="42.7791802213" lon="-0.4456751794">
        <ele>2222.71</ele>
        <time>2022-07-15T06:27:57Z</time>
      </trkpt>
      <trkpt lat="42.7792342845" lon="-0.4456505366">
        <ele>2224.15</ele>
        <time>2022-07-15T06:28:03Z</time>
      </trkpt>
      <trkpt lat="42.7793086320" lon="-0.4455539770">
        <ele>2224.15</ele>
        <time>2022-07-15T06:28:12Z</time>
      </trkpt>
      <trkpt lat="42.7793308441" lon="-0.4455458466">
        <ele>2224.15</ele>
        <time>2022-07-15T06:28:14Z</time>
      </trkpt>
      <trkpt lat="42.7793832310" lon="-0.4455633648">
        <ele>2224.15</ele>
        <time>2022-07-15T06:28:18Z</time>
      </trkpt>
      <trkpt lat="42.7794457600" lon="-0.4455890134">
        <ele>2224.15</ele>
        <time>2022-07-15T06:28:23Z</time>
      </trkpt>
      <trkpt lat="42.7794923633" lon="-0.4456031788">
        <ele>2222.71</ele>
        <time>2022-07-15T06:28:27Z</time>
      </trkpt>
      <trkpt lat="42.7795792837" lon="-0.4457270633">
        <ele>2222.22</ele>
        <time>2022-07-15T06:28:41Z</time>
      </trkpt>
      <trkpt lat="42.7796244621" lon="-0.4458843078">
        <ele>2221.26</ele>
        <time>2022-07-15T06:28:53Z</time>
      </trkpt>
      <trkpt lat="42.7796289884" lon="-0.4458986409">
        <ele>2221.26</ele>
        <time>2022-07-15T06:28:54Z</time>
      </trkpt>
      <trkpt lat="42.7796364482" lon="-0.4459762573">
        <ele>2220.78</ele>
        <time>2022-07-15T06:28:59Z</time>
      </trkpt>
      <trkpt lat="42.7796458360" lon="-0.4460473359">
        <ele>2220.78</ele>
        <time>2022-07-15T06:29:04Z</time>
      </trkpt>
      <trkpt lat="42.7796605881" lon="-0.4461081885">
        <ele>2220.30</ele>
        <time>2022-07-15T06:29:08Z</time>
      </trkpt>
      <trkpt lat="42.7796527091" lon="-0.4461692926">
        <ele>2220.30</ele>
        <time>2022-07-15T06:29:24Z</time>
      </trkpt>
      <trkpt lat="42.7796419803" lon="-0.4461562168">
        <ele>2219.82</ele>
        <time>2022-07-15T06:29:42Z</time>
      </trkpt>
      <trkpt lat="42.7796553914" lon="-0.4461557977">
        <ele>2219.82</ele>
        <time>2022-07-15T06:30:05Z</time>
      </trkpt>
      <trkpt lat="42.7796537988" lon="-0.4461602401">
        <ele>2219.82</ele>
        <time>2022-07-15T06:30:28Z</time>
      </trkpt>
      <trkpt lat="42.7796586603" lon="-0.4461673647">
        <ele>2219.82</ele>
        <time>2022-07-15T06:30:32Z</time>
      </trkpt>
      <trkpt lat="42.7796510328" lon="-0.4462111183">
        <ele>2219.82</ele>
        <time>2022-07-15T06:30:37Z</time>
      </trkpt>
      <trkpt lat="42.7796472609" lon="-0.4463042412">
        <ele>2219.34</ele>
        <time>2022-07-15T06:30:52Z</time>
      </trkpt>
      <trkpt lat="42.7796059381" lon="-0.4465447180">
        <ele>2218.86</ele>
        <time>2022-07-15T06:31:07Z</time>
      </trkpt>
      <trkpt lat="42.7795824688" lon="-0.4467755556">
        <ele>2219.82</ele>
        <time>2022-07-15T06:31:22Z</time>
      </trkpt>
      <trkpt lat="42.7795702312" lon="-0.4469590355">
        <ele>2222.71</ele>
        <time>2022-07-15T06:31:37Z</time>
      </trkpt>
      <trkpt lat="42.7795711532" lon="-0.4469846003">
        <ele>2222.22</ele>
        <time>2022-07-15T06:31:39Z</time>
      </trkpt>
      <trkpt lat="42.7795281541" lon="-0.4472076427">
        <ele>2219.82</ele>
        <time>2022-07-15T06:31:55Z</time>
      </trkpt>
      <trkpt lat="42.7795258071" lon="-0.4472691659">
        <ele>2218.86</ele>
        <time>2022-07-15T06:31:59Z</time>
      </trkpt>
      <trkpt lat="42.7795498632" lon="-0.4473399092">
        <ele>2218.38</ele>
        <time>2022-07-15T06:32:05Z</time>
      </trkpt>
      <trkpt lat="42.7795387991" lon="-0.4473905358">
        <ele>2217.42</ele>
        <time>2022-07-15T06:32:09Z</time>
      </trkpt>
      <trkpt lat="42.7795347758" lon="-0.4474400729">
        <ele>2216.94</ele>
        <time>2022-07-15T06:32:13Z</time>
      </trkpt>
      <trkpt lat="42.7795146592" lon="-0.4475391470">
        <ele>2215.98</ele>
        <time>2022-07-15T06:32:20Z</time>
      </trkpt>
      <trkpt lat="42.7796152420" lon="-0.4477267340">
        <ele>2215.98</ele>
        <time>2022-07-15T06:32:34Z</time>
      </trkpt>
      <trkpt lat="42.7796585765" lon="-0.4478816316">
        <ele>2217.90</ele>
        <time>2022-07-15T06:32:44Z</time>
      </trkpt>
      <trkpt lat="42.7796819620" lon="-0.4479506984">
        <ele>2217.90</ele>
        <time>2022-07-15T06:32:49Z</time>
      </trkpt>
      <trkpt lat="42.7797133941" lon="-0.4479905963">
        <ele>2217.90</ele>
        <time>2022-07-15T06:32:53Z</time>
      </trkpt>
      <trkpt lat="42.7797750011" lon="-0.4480138980">
        <ele>2217.42</ele>
        <time>2022-07-15T06:33:00Z</time>
      </trkpt>
      <trkpt lat="42.7798040025" lon="-0.4480118025">
        <ele>2216.46</ele>
        <time>2022-07-15T06:33:03Z</time>
      </trkpt>
      <trkpt lat="42.7799315751" lon="-0.4481656104">
        <ele>2215.98</ele>
        <time>2022-07-15T06:33:17Z</time>
      </trkpt>
      <trkpt lat="42.7799383644" lon="-0.4481944442">
        <ele>2215.98</ele>
        <time>2022-07-15T06:33:19Z</time>
      </trkpt>
      <trkpt lat="42.7799625043" lon="-0.4482283071">
        <ele>2215.98</ele>
        <time>2022-07-15T06:33:23Z</time>
      </trkpt>
      <trkpt lat="42.7800577227" lon="-0.4483092763">
        <ele>2213.57</ele>
        <time>2022-07-15T06:33:34Z</time>
      </trkpt>
      <trkpt lat="42.7801500075" lon="-0.4484037403">
        <ele>2210.21</ele>
        <time>2022-07-15T06:33:46Z</time>
      </trkpt>
      <trkpt lat="42.7801435534" lon="-0.4484688677">
        <ele>2210.21</ele>
        <time>2022-07-15T06:33:50Z</time>
      </trkpt>
      <trkpt lat="42.7801391110" lon="-0.4485757370">
        <ele>2209.73</ele>
        <time>2022-07-15T06:33:57Z</time>
      </trkpt>
      <trkpt lat="42.7801282983" lon="-0.4486110248">
        <ele>2209.73</ele>
        <time>2022-07-15T06:34:00Z</time>
      </trkpt>
      <trkpt lat="42.7801382728" lon="-0.4486374278">
        <ele>2208.77</ele>
        <time>2022-07-15T06:34:02Z</time>
      </trkpt>
      <trkpt lat="42.7801422961" lon="-0.4486968555">
        <ele>2207.81</ele>
        <time>2022-07-15T06:34:06Z</time>
      </trkpt>
      <trkpt lat="42.7801536117" lon="-0.4487615637">
        <ele>2206.84</ele>
        <time>2022-07-15T06:34:10Z</time>
      </trkpt>
      <trkpt lat="42.7801717166" lon="-0.4490067344">
        <ele>2204.92</ele>
        <time>2022-07-15T06:34:24Z</time>
      </trkpt>
      <trkpt lat="42.7801717166" lon="-0.4490395915">
        <ele>2204.44</ele>
        <time>2022-07-15T06:34:26Z</time>
      </trkpt>
      <trkpt lat="42.7801816911" lon="-0.4490599595">
        <ele>2204.44</ele>
        <time>2022-07-15T06:34:28Z</time>
      </trkpt>
      <trkpt lat="42.7801970299" lon="-0.4490728676">
        <ele>2203.48</ele>
        <time>2022-07-15T06:34:30Z</time>
      </trkpt>
      <trkpt lat="42.7802283783" lon="-0.4491430242">
        <ele>2203.00</ele>
        <time>2022-07-15T06:34:35Z</time>
      </trkpt>
      <trkpt lat="42.7802942600" lon="-0.4493389931">
        <ele>2202.04</ele>
        <time>2022-07-15T06:34:49Z</time>
      </trkpt>
      <trkpt lat="42.7803125326" lon="-0.4493855126">
        <ele>2201.56</ele>
        <time>2022-07-15T06:34:52Z</time>
      </trkpt>
      <trkpt lat="42.7803205792" lon="-0.4494605307">
        <ele>2201.08</ele>
        <time>2022-07-15T06:34:58Z</time>
      </trkpt>
      <trkpt lat="42.7803546935" lon="-0.4495509714">
        <ele>2197.71</ele>
        <time>2022-07-15T06:35:11Z</time>
      </trkpt>
      <trkpt lat="42.7804219164" lon="-0.4495596886">
        <ele>2194.83</ele>
        <time>2022-07-15T06:35:21Z</time>
      </trkpt>
      <trkpt lat="42.7804685198" lon="-0.4496243969">
        <ele>2192.42</ele>
        <time>2022-07-15T06:35:32Z</time>
      </trkpt>
      <trkpt lat="42.7805279475" lon="-0.4497817252">
        <ele>2189.54</ele>
        <time>2022-07-15T06:35:45Z</time>
      </trkpt>
      <trkpt lat="42.7805722877" lon="-0.4498630296">
        <ele>2187.14</ele>
        <time>2022-07-15T06:35:57Z</time>
      </trkpt>
      <trkpt lat="42.7805557754" lon="-0.4498407338">
        <ele>2185.69</ele>
        <time>2022-07-15T06:36:05Z</time>
      </trkpt>
      <trkpt lat="42.7805972658" lon="-0.4497311823">
        <ele>2183.29</ele>
        <time>2022-07-15T06:36:17Z</time>
      </trkpt>
      <trkpt lat="42.7806567773" lon="-0.4496734310">
        <ele>2180.89</ele>
        <time>2022-07-15T06:36:27Z</time>
      </trkpt>
      <trkpt lat="42.7807067335" lon="-0.4497707449">
        <ele>2178.00</ele>
        <time>2022-07-15T06:36:35Z</time>
      </trkpt>
      <trkpt lat="42.7807404287" lon="-0.4498056136">
        <ele>2176.56</ele>
        <time>2022-07-15T06:36:39Z</time>
      </trkpt>
      <trkpt lat="42.7807813324" lon="-0.4498175997">
        <ele>2176.08</ele>
        <time>2022-07-15T06:36:43Z</time>
      </trkpt>
      <trkpt lat="42.7808778081" lon="-0.4498247243">
        <ele>2173.20</ele>
        <time>2022-07-15T06:36:54Z</time>
      </trkpt>
      <trkpt lat="42.7809512336" lon="-0.4498906061">
        <ele>2171.76</ele>
        <time>2022-07-15T06:37:05Z</time>
      </trkpt>
      <trkpt lat="42.7810279280" lon="-0.4498766083">
        <ele>2168.87</ele>
        <time>2022-07-15T06:37:17Z</time>
      </trkpt>
      <trkpt lat="42.7811002638" lon="-0.4498718306">
        <ele>2166.95</ele>
        <time>2022-07-15T06:37:29Z</time>
      </trkpt>
      <trkpt lat="42.7811019402" lon="-0.4498758540">
        <ele>2166.95</ele>
        <time>2022-07-15T06:38:00Z</time>
      </trkpt>
      <trkpt lat="42.7811396588" lon="-0.4498954676">
        <ele>2166.95</ele>
        <time>2022-07-15T06:38:22Z</time>
      </trkpt>
      <trkpt lat="42.7811411675" lon="-0.4498668853">
        <ele>2165.99</ele>
        <time>2022-07-15T06:38:33Z</time>
      </trkpt>
      <trkpt lat="42.7811527345" lon="-0.4498097207">
        <ele>2163.58</ele>
        <time>2022-07-15T06:38:47Z</time>
      </trkpt>
      <trkpt lat="42.7812200412" lon="-0.4497661348">
        <ele>2162.14</ele>
        <time>2022-07-15T06:38:58Z</time>
      </trkpt>
      <trkpt lat="42.7813126612" lon="-0.4497031029">
        <ele>2159.74</ele>
        <time>2022-07-15T06:39:09Z</time>
      </trkpt>
      <trkpt lat="42.7813307662" lon="-0.4496839922">
        <ele>2159.26</ele>
        <time>2022-07-15T06:39:12Z</time>
      </trkpt>
      <trkpt lat="42.7813287545" lon="-0.4496210441">
        <ele>2156.37</ele>
        <time>2022-07-15T06:39:27Z</time>
      </trkpt>
      <trkpt lat="42.7812392358" lon="-0.4495786317">
        <ele>2153.97</ele>
        <time>2022-07-15T06:39:36Z</time>
      </trkpt>
      <trkpt lat="42.7811708394" lon="-0.4495073855">
        <ele>2152.05</ele>
        <time>2022-07-15T06:39:48Z</time>
      </trkpt>
      <trkpt lat="42.7811864298" lon="-0.4494516458">
        <ele>2150.61</ele>
        <time>2022-07-15T06:39:53Z</time>
      </trkpt>
      <trkpt lat="42.7812231425" lon="-0.4493352212">
        <ele>2148.20</ele>
        <time>2022-07-15T06:40:05Z</time>
      </trkpt>
      <trkpt lat="42.7812542394" lon="-0.4493083991">
        <ele>2147.24</ele>
        <time>2022-07-15T06:40:08Z</time>
      </trkpt>
      <trkpt lat="42.7812972385" lon="-0.4493066389">
        <ele>2146.28</ele>
        <time>2022-07-15T06:40:12Z</time>
      </trkpt>
      <trkpt lat="42.7813262399" lon="-0.4492869414">
        <ele>2145.80</ele>
        <time>2022-07-15T06:40:15Z</time>
      </trkpt>
      <trkpt lat="42.7814038564" lon="-0.4492254183">
        <ele>2142.92</ele>
        <time>2022-07-15T06:40:28Z</time>
      </trkpt>
      <trkpt lat="42.7814068738" lon="-0.4491771385">
        <ele>2141.47</ele>
        <time>2022-07-15T06:40:33Z</time>
      </trkpt>
      <trkpt lat="42.7814306784" lon="-0.4491611291">
        <ele>2140.99</ele>
        <time>2022-07-15T06:40:36Z</time>
      </trkpt>
      <trkpt lat="42.7815422416" lon="-0.4492134321">
        <ele>2138.11</ele>
        <time>2022-07-15T06:40:49Z</time>
      </trkpt>
      <trkpt lat="42.7816179302" lon="-0.4491999373">
        <ele>2135.71</ele>
        <time>2022-07-15T06:41:01Z</time>
      </trkpt>
      <trkpt lat="42.7816502005" lon="-0.4491445329">
        <ele>2133.78</ele>
        <time>2022-07-15T06:41:07Z</time>
      </trkpt>
      <trkpt lat="42.7817250509" lon="-0.4491116758">
        <ele>2131.86</ele>
        <time>2022-07-15T06:41:16Z</time>
      </trkpt>
      <trkpt lat="42.7817548905" lon="-0.4490102548">
        <ele>2128.98</ele>
        <time>2022-07-15T06:41:28Z</time>
      </trkpt>
      <trkpt lat="42.7818199340" lon="-0.4489049781">
        <ele>2127.05</ele>
        <time>2022-07-15T06:41:40Z</time>
      </trkpt>
      <trkpt lat="42.7818942815" lon="-0.4488549381">
        <ele>2125.13</ele>
        <time>2022-07-15T06:41:48Z</time>
      </trkpt>
      <trkpt lat="42.7819383703" lon="-0.4487499967">
        <ele>2123.69</ele>
        <time>2022-07-15T06:41:56Z</time>
      </trkpt>
      <trkpt lat="42.7819642704" lon="-0.4487233423">
        <ele>2123.69</ele>
        <time>2022-07-15T06:41:59Z</time>
      </trkpt>
      <trkpt lat="42.7820609137" lon="-0.4487042315">
        <ele>2120.81</ele>
        <time>2022-07-15T06:42:12Z</time>
      </trkpt>
      <trkpt lat="42.7820451558" lon="-0.4486935865">
        <ele>2119.84</ele>
        <time>2022-07-15T06:42:15Z</time>
      </trkpt>
      <trkpt lat="42.7820275538" lon="-0.4486781638">
        <ele>2118.88</ele>
        <time>2022-07-15T06:42:18Z</time>
      </trkpt>
      <trkpt lat="42.7820793539" lon="-0.4486725479">
        <ele>2117.44</ele>
        <time>2022-07-15T06:42:25Z</time>
      </trkpt>
      <trkpt lat="42.7820934355" lon="-0.4486587178">
        <ele>2116.96</ele>
        <time>2022-07-15T06:42:27Z</time>
      </trkpt>
      <trkpt lat="42.7821823675" lon="-0.4486230947">
        <ele>2113.60</ele>
        <time>2022-07-15T06:42:41Z</time>
      </trkpt>
      <trkpt lat="42.7822017297" lon="-0.4485791735">
        <ele>2112.63</ele>
        <time>2022-07-15T06:42:47Z</time>
      </trkpt>
      <trkpt lat="42.7821656037" lon="-0.4485230986">
        <ele>2111.19</ele>
        <time>2022-07-15T06:42:52Z</time>
      </trkpt>
      <trkpt lat="42.7821031585" lon="-0.4484727234">
        <ele>2108.79</ele>
        <time>2022-07-15T06:43:01Z</time>
      </trkpt>
      <trkpt lat="42.7820401266" lon="-0.4483998008">
        <ele>2105.91</ele>
        <time>2022-07-15T06:43:14Z</time>
      </trkpt>
      <trkpt lat="42.7820337564" lon="-0.4483922571">
        <ele>2105.91</ele>
        <time>2022-07-15T06:43:15Z</time>
      </trkpt>
      <trkpt lat="42.7819840517" lon="-0.4483156465">
        <ele>2103.50</ele>
        <time>2022-07-15T06:43:24Z</time>
      </trkpt>
      <trkpt lat="42.7819240373" lon="-0.4482345097">
        <ele>2102.06</ele>
        <time>2022-07-15T06:43:32Z</time>
      </trkpt>
      <trkpt lat="42.7818731591" lon="-0.4480673745">
        <ele>2099.66</ele>
        <time>2022-07-15T06:43:46Z</time>
      </trkpt>
      <trkpt lat="42.7818563115" lon="-0.4480247945">
        <ele>2098.70</ele>
        <time>2022-07-15T06:43:51Z</time>
      </trkpt>
      <trkpt lat="42.7818414755" lon="-0.4478942044">
        <ele>2098.21</ele>
        <time>2022-07-15T06:44:00Z</time>
      </trkpt>
      <trkpt lat="42.7818190120" lon="-0.4478000756">
        <ele>2096.29</ele>
        <time>2022-07-15T06:44:09Z</time>
      </trkpt>
      <trkpt lat="42.7818730753" lon="-0.4475961439">
        <ele>2092.93</ele>
        <time>2022-07-15T06:44:24Z</time>
      </trkpt>
      <trkpt lat="42.7818805352" lon="-0.4474292602">
        <ele>2091.49</ele>
        <time>2022-07-15T06:44:37Z</time>
      </trkpt>
      <trkpt lat="42.7819111291" lon="-0.4473401606">
        <ele>2089.56</ele>
        <time>2022-07-15T06:44:49Z</time>
      </trkpt>
      <trkpt lat="42.7820249554" lon="-0.4474119097">
        <ele>2086.20</ele>
        <time>2022-07-15T06:45:03Z</time>
      </trkpt>
      <trkpt lat="42.7820814494" lon="-0.4474150948">
        <ele>2085.24</ele>
        <time>2022-07-15T06:45:09Z</time>
      </trkpt>
      <trkpt lat="42.7821030747" lon="-0.4474144243">
        <ele>2084.28</ele>
        <time>2022-07-15T06:45:11Z</time>
      </trkpt>
      <trkpt lat="42.7821393684" lon="-0.4473874345">
        <ele>2083.31</ele>
        <time>2022-07-15T06:45:16Z</time>
      </trkpt>
      <trkpt lat="42.7821703814" lon="-0.4471830837">
        <ele>2081.39</ele>
        <time>2022-07-15T06:45:31Z</time>
      </trkpt>
      <trkpt lat="42.7821910847" lon="-0.4470804054">
        <ele>2078.99</ele>
        <time>2022-07-15T06:45:42Z</time>
      </trkpt>
      <trkpt lat="42.7822609060" lon="-0.4469283577">
        <ele>2076.10</ele>
        <time>2022-07-15T06:45:55Z</time>
      </trkpt>
      <trkpt lat="42.7823060006" lon="-0.4468599614">
        <ele>2074.18</ele>
        <time>2022-07-15T06:46:04Z</time>
      </trkpt>
      <trkpt lat="42.7823883947" lon="-0.4467799142">
        <ele>2072.74</ele>
        <time>2022-07-15T06:46:16Z</time>
      </trkpt>
      <trkpt lat="42.7823934238" lon="-0.4467523377">
        <ele>2072.74</ele>
        <time>2022-07-15T06:46:18Z</time>
      </trkpt>
      <trkpt lat="42.7824648377" lon="-0.4465435445">
        <ele>2070.34</ele>
        <time>2022-07-15T06:46:34Z</time>
      </trkpt>
      <trkpt lat="42.7824955992" lon="-0.4463833664">
        <ele>2066.97</ele>
        <time>2022-07-15T06:46:48Z</time>
      </trkpt>
      <trkpt lat="42.7825452201" lon="-0.4462737311">
        <ele>2064.09</ele>
        <time>2022-07-15T06:47:00Z</time>
      </trkpt>
      <trkpt lat="42.7825779933" lon="-0.4461744055">
        <ele>2061.20</ele>
        <time>2022-07-15T06:47:14Z</time>
      </trkpt>
      <trkpt lat="42.7826090064" lon="-0.4460045043">
        <ele>2059.76</ele>
        <time>2022-07-15T06:47:27Z</time>
      </trkpt>
      <trkpt lat="42.7826501615" lon="-0.4458771832">
        <ele>2059.28</ele>
        <time>2022-07-15T06:47:40Z</time>
      </trkpt>
      <trkpt lat="42.7826911490" lon="-0.4457741696">
        <ele>2057.36</ele>
        <time>2022-07-15T06:47:50Z</time>
      </trkpt>
      <trkpt lat="42.7827654965" lon="-0.4456911888">
        <ele>2055.44</ele>
        <time>2022-07-15T06:48:04Z</time>
      </trkpt>
      <trkpt lat="42.7827799972" lon="-0.4456710722">
        <ele>2054.47</ele>
        <time>2022-07-15T06:48:07Z</time>
      </trkpt>
      <trkpt lat="42.7828394249" lon="-0.4457525443">
        <ele>2052.07</ele>
        <time>2022-07-15T06:48:20Z</time>
      </trkpt>
      <trkpt lat="42.7828546800" lon="-0.4458846431">
        <ele>2048.71</ele>
        <time>2022-07-15T06:48:32Z</time>
      </trkpt>
      <trkpt lat="42.7828680910" lon="-0.4460137244">
        <ele>2045.82</ele>
        <time>2022-07-15T06:48:45Z</time>
      </trkpt>
      <trkpt lat="42.7828781493" lon="-0.4461384472">
        <ele>2043.42</ele>
        <time>2022-07-15T06:48:58Z</time>
      </trkpt>
      <trkpt lat="42.7829033788" lon="-0.4462026525">
        <ele>2041.02</ele>
        <time>2022-07-15T06:49:11Z</time>
      </trkpt>
      <trkpt lat="42.7829162870" lon="-0.4463013075">
        <ele>2038.13</ele>
        <time>2022-07-15T06:49:24Z</time>
      </trkpt>
      <trkpt lat="42.7829247527" lon="-0.4464351665">
        <ele>2034.77</ele>
        <time>2022-07-15T06:49:36Z</time>
      </trkpt>
      <trkpt lat="42.7829032950" lon="-0.4464727174">
        <ele>2034.77</ele>
        <time>2022-07-15T06:49:39Z</time>
      </trkpt>
      <trkpt lat="42.7829373255" lon="-0.4465573747">
        <ele>2031.88</ele>
        <time>2022-07-15T06:49:53Z</time>
      </trkpt>
      <trkpt lat="42.7829640638" lon="-0.4464849550">
        <ele>2030.44</ele>
        <time>2022-07-15T06:50:03Z</time>
      </trkpt>
      <trkpt lat="42.7830240782" lon="-0.4466381762">
        <ele>2026.60</ele>
        <time>2022-07-15T06:50:18Z</time>
      </trkpt>
      <trkpt lat="42.7830612101" lon="-0.4467747174">
        <ele>2023.71</ele>
        <time>2022-07-15T06:50:31Z</time>
      </trkpt>
      <trkpt lat="42.7830736991" lon="-0.4468461312">
        <ele>2022.75</ele>
        <time>2022-07-15T06:50:38Z</time>
      </trkpt>
      <trkpt lat="42.7831006050" lon="-0.4469498992">
        <ele>2019.87</ele>
        <time>2022-07-15T06:50:53Z</time>
      </trkpt>
      <trkpt lat="42.7831579372" lon="-0.4468305409">
        <ele>2017.46</ele>
        <time>2022-07-15T06:51:05Z</time>
      </trkpt>
      <trkpt lat="42.7831659000" lon="-0.4466569517">
        <ele>2013.62</ele>
        <time>2022-07-15T06:51:20Z</time>
      </trkpt>
      <trkpt lat="42.7831684984" lon="-0.4465436283">
        <ele>2011.22</ele>
        <time>2022-07-15T06:51:34Z</time>
      </trkpt>
      <trkpt lat="42.7831745334" lon="-0.4465071671">
        <ele>2009.29</ele>
        <time>2022-07-15T06:51:39Z</time>
      </trkpt>
      <trkpt lat="42.7831992600" lon="-0.4464009684">
        <ele>2006.41</ele>
        <time>2022-07-15T06:51:53Z</time>
      </trkpt>
      <trkpt lat="42.7832484618" lon="-0.4463164788">
        <ele>2003.52</ele>
        <time>2022-07-15T06:52:07Z</time>
      </trkpt>
      <trkpt lat="42.7833209652" lon="-0.4462793469">
        <ele>2000.64</ele>
        <time>2022-07-15T06:52:22Z</time>
      </trkpt>
      <trkpt lat="42.7833803929" lon="-0.4462541174">
        <ele>1997.76</ele>
        <time>2022-07-15T06:52:34Z</time>
      </trkpt>
      <trkpt lat="42.7834192850" lon="-0.4461496789">
        <ele>1994.87</ele>
        <time>2022-07-15T06:52:46Z</time>
      </trkpt>
      <trkpt lat="42.7834981587" lon="-0.4462806880">
        <ele>1991.51</ele>
        <time>2022-07-15T06:52:58Z</time>
      </trkpt>
      <trkpt lat="42.7835682314" lon="-0.4462885670">
        <ele>1988.14</ele>
        <time>2022-07-15T06:53:12Z</time>
      </trkpt>
      <trkpt lat="42.7835725900" lon="-0.4462442268">
        <ele>1987.66</ele>
        <time>2022-07-15T06:53:17Z</time>
      </trkpt>
      <trkpt lat="42.7836041059" lon="-0.4461083561">
        <ele>1984.30</ele>
        <time>2022-07-15T06:53:33Z</time>
      </trkpt>
      <trkpt lat="42.7836815547" lon="-0.4462649301">
        <ele>1980.93</ele>
        <time>2022-07-15T06:53:47Z</time>
      </trkpt>
      <trkpt lat="42.7837275714" lon="-0.4462935124">
        <ele>1979.01</ele>
        <time>2022-07-15T06:53:55Z</time>
      </trkpt>
      <trkpt lat="42.7837552316" lon="-0.4464641679">
        <ele>1976.13</ele>
        <time>2022-07-15T06:54:09Z</time>
      </trkpt>
      <trkpt lat="42.7837547287" lon="-0.4466545209">
        <ele>1973.24</ele>
        <time>2022-07-15T06:54:24Z</time>
      </trkpt>
      <trkpt lat="42.7837875020" lon="-0.4466815945">
        <ele>1971.32</ele>
        <time>2022-07-15T06:54:34Z</time>
      </trkpt>
      <trkpt lat="42.7837878373" lon="-0.4467724543">
        <ele>1969.40</ele>
        <time>2022-07-15T06:54:42Z</time>
      </trkpt>
      <trkpt lat="42.7837878373" lon="-0.4468620569">
        <ele>1966.99</ele>
        <time>2022-07-15T06:54:52Z</time>
      </trkpt>
      <trkpt lat="42.7838480193" lon="-0.4470156971">
        <ele>1963.15</ele>
        <time>2022-07-15T06:55:06Z</time>
      </trkpt>
      <trkpt lat="42.7839115541" lon="-0.4470765498">
        <ele>1960.27</ele>
        <time>2022-07-15T06:55:16Z</time>
      </trkpt>
      <trkpt lat="42.7839216124" lon="-0.4470753763">
        <ele>1960.27</ele>
        <time>2022-07-15T06:55:17Z</time>
      </trkpt>
      <trkpt lat="42.7840384562" lon="-0.4470389988">
        <ele>1956.42</ele>
        <time>2022-07-15T06:55:30Z</time>
      </trkpt>
      <trkpt lat="42.7841182519" lon="-0.4469891265">
        <ele>1953.06</ele>
        <time>2022-07-15T06:55:40Z</time>
      </trkpt>
      <trkpt lat="42.7841320820" lon="-0.4469561856">
        <ele>1952.57</ele>
        <time>2022-07-15T06:55:43Z</time>
      </trkpt>
      <trkpt lat="42.7842048369" lon="-0.4468536749">
        <ele>1949.69</ele>
        <time>2022-07-15T06:55:56Z</time>
      </trkpt>
      <trkpt lat="42.7842964511" lon="-0.4469846841">
        <ele>1946.81</ele>
        <time>2022-07-15T06:56:09Z</time>
      </trkpt>
      <trkpt lat="42.7843603212" lon="-0.4470048845">
        <ele>1943.92</ele>
        <time>2022-07-15T06:56:22Z</time>
      </trkpt>
      <trkpt lat="42.7843700442" lon="-0.4471061379">
        <ele>1942.00</ele>
        <time>2022-07-15T06:56:32Z</time>
      </trkpt>
      <trkpt lat="42.7844246104" lon="-0.4472130910">
        <ele>1939.12</ele>
        <time>2022-07-15T06:56:45Z</time>
      </trkpt>
      <trkpt lat="42.7844109479" lon="-0.4472570959">
        <ele>1938.64</ele>
        <time>2022-07-15T06:56:49Z</time>
      </trkpt>
      <trkpt lat="42.7844231017" lon="-0.4474394862">
        <ele>1937.19</ele>
        <time>2022-07-15T06:57:03Z</time>
      </trkpt>
      <trkpt lat="42.7844661847" lon="-0.4474611953">
        <ele>1936.71</ele>
        <time>2022-07-15T06:57:10Z</time>
      </trkpt>
      <trkpt lat="42.7845310606" lon="-0.4475654662">
        <ele>1933.83</ele>
        <time>2022-07-15T06:57:26Z</time>
      </trkpt>
      <trkpt lat="42.7845587209" lon="-0.4476068728">
        <ele>1933.83</ele>
        <time>2022-07-15T06:57:32Z</time>
      </trkpt>
      <trkpt lat="42.7847256884" lon="-0.4475714173">
        <ele>1932.39</ele>
        <time>2022-07-15T06:57:48Z</time>
      </trkpt>
      <trkpt lat="42.7847999521" lon="-0.4475704953">
        <ele>1930.95</ele>
        <time>2022-07-15T06:57:54Z</time>
      </trkpt>
      <trkpt lat="42.7848898899" lon="-0.4475845769">
        <ele>1930.46</ele>
        <time>2022-07-15T06:58:03Z</time>
      </trkpt>
      <trkpt lat="42.7849487308" lon="-0.4476012569">
        <ele>1929.98</ele>
        <time>2022-07-15T06:58:08Z</time>
      </trkpt>
      <trkpt lat="42.7849869523" lon="-0.4475836549">
        <ele>1929.02</ele>
        <time>2022-07-15T06:58:12Z</time>
      </trkpt>
      <trkpt lat="42.7850684244" lon="-0.4476398975">
        <ele>1926.14</ele>
        <time>2022-07-15T06:58:26Z</time>
      </trkpt>
      <trkpt lat="42.7850768901" lon="-0.4476364609">
        <ele>1926.14</ele>
        <time>2022-07-15T06:58:27Z</time>
      </trkpt>
      <trkpt lat="42.7851187158" lon="-0.4476937931">
        <ele>1925.18</ele>
        <time>2022-07-15T06:58:32Z</time>
      </trkpt>
      <trkpt lat="42.7851622179" lon="-0.4477284942">
        <ele>1924.22</ele>
        <time>2022-07-15T06:58:37Z</time>
      </trkpt>
      <trkpt lat="42.7852584422" lon="-0.4477950465">
        <ele>1921.81</ele>
        <time>2022-07-15T06:58:48Z</time>
      </trkpt>
      <trkpt lat="42.7853352204" lon="-0.4478533007">
        <ele>1920.37</ele>
        <time>2022-07-15T06:58:56Z</time>
      </trkpt>
      <trkpt lat="42.7853591926" lon="-0.4478770215">
        <ele>1920.37</ele>
        <time>2022-07-15T06:59:00Z</time>
      </trkpt>
      <trkpt lat="42.7854226436" lon="-0.4479274806">
        <ele>1919.89</ele>
        <time>2022-07-15T06:59:07Z</time>
      </trkpt>
      <trkpt lat="42.7854891121" lon="-0.4479693901">
        <ele>1918.45</ele>
        <time>2022-07-15T06:59:15Z</time>
      </trkpt>
      <trkpt lat="42.7855383977" lon="-0.4480454978">
        <ele>1918.45</ele>
        <time>2022-07-15T06:59:22Z</time>
      </trkpt>
      <trkpt lat="42.7855763678" lon="-0.4480818752">
        <ele>1918.45</ele>
        <time>2022-07-15T06:59:27Z</time>
      </trkpt>
      <trkpt lat="42.7856080513" lon="-0.4481381178">
        <ele>1918.45</ele>
        <time>2022-07-15T06:59:32Z</time>
      </trkpt>
      <trkpt lat="42.7856572531" lon="-0.4482021555">
        <ele>1919.41</ele>
        <time>2022-07-15T06:59:37Z</time>
      </trkpt>
      <trkpt lat="42.7857012581" lon="-0.4482814483">
        <ele>1919.41</ele>
        <time>2022-07-15T06:59:43Z</time>
      </trkpt>
      <trkpt lat="42.7857710794" lon="-0.4483666085">
        <ele>1919.89</ele>
        <time>2022-07-15T06:59:54Z</time>
      </trkpt>
      <trkpt lat="42.7858017571" lon="-0.4484187439">
        <ele>1919.89</ele>
        <time>2022-07-15T06:59:58Z</time>
      </trkpt>
      <trkpt lat="42.7858395595" lon="-0.4484984558">
        <ele>1918.45</ele>
        <time>2022-07-15T07:00:04Z</time>
      </trkpt>
      <trkpt lat="42.7858989872" lon="-0.4485635832">
        <ele>1917.01</ele>
        <time>2022-07-15T07:00:17Z</time>
      </trkpt>
      <trkpt lat="42.7859870810" lon="-0.4486470670">
        <ele>1915.56</ele>
        <time>2022-07-15T07:00:29Z</time>
      </trkpt>
      <trkpt lat="42.7860017493" lon="-0.4486927483">
        <ele>1915.08</ele>
        <time>2022-07-15T07:00:33Z</time>
      </trkpt>
      <trkpt lat="42.7861086186" lon="-0.4487970192">
        <ele>1911.72</ele>
        <time>2022-07-15T07:00:47Z</time>
      </trkpt>
      <trkpt lat="42.7861660346" lon="-0.4488276131">
        <ele>1908.83</ele>
        <time>2022-07-15T07:01:00Z</time>
      </trkpt>
      <trkpt lat="42.7862469200" lon="-0.4489289504">
        <ele>1905.95</ele>
        <time>2022-07-15T07:01:13Z</time>
      </trkpt>
      <trkpt lat="42.7862858959" lon="-0.4490059800">
        <ele>1902.59</ele>
        <time>2022-07-15T07:01:22Z</time>
      </trkpt>
      <trkpt lat="42.7863923460" lon="-0.4491808265">
        <ele>1899.70</ele>
        <time>2022-07-15T07:01:36Z</time>
      </trkpt>
      <trkpt lat="42.7864713874" lon="-0.4493419267">
        <ele>1898.74</ele>
        <time>2022-07-15T07:01:48Z</time>
      </trkpt>
      <trkpt lat="42.7866014745" lon="-0.4494613688">
        <ele>1895.86</ele>
        <time>2022-07-15T07:02:03Z</time>
      </trkpt>
      <trkpt lat="42.7867161389" lon="-0.4495366383">
        <ele>1893.45</ele>
        <time>2022-07-15T07:02:18Z</time>
      </trkpt>
      <trkpt lat="42.7867464814" lon="-0.4495221376">
        <ele>1892.49</ele>
        <time>2022-07-15T07:02:23Z</time>
      </trkpt>
      <trkpt lat="42.7868413646" lon="-0.4495316092">
        <ele>1889.61</ele>
        <time>2022-07-15T07:02:36Z</time>
      </trkpt>
      <trkpt lat="42.7868774906" lon="-0.4495614488">
        <ele>1888.65</ele>
        <time>2022-07-15T07:02:41Z</time>
      </trkpt>
      <trkpt lat="42.7869017143" lon="-0.4495696630">
        <ele>1888.17</ele>
        <time>2022-07-15T07:02:45Z</time>
      </trkpt>
      <trkpt lat="42.7869209088" lon="-0.4495861754">
        <ele>1887.69</ele>
        <time>2022-07-15T07:02:47Z</time>
      </trkpt>
      <trkpt lat="42.7869862877" lon="-0.4496259056">
        <ele>1886.72</ele>
        <time>2022-07-15T07:02:54Z</time>
      </trkpt>
      <trkpt lat="42.7871131897" lon="-0.4497091379">
        <ele>1883.36</ele>
        <time>2022-07-15T07:03:08Z</time>
      </trkpt>
      <trkpt lat="42.7871697675" lon="-0.4497572500">
        <ele>1881.92</ele>
        <time>2022-07-15T07:03:14Z</time>
      </trkpt>
      <trkpt lat="42.7872133534" lon="-0.4497473594">
        <ele>1880.48</ele>
        <time>2022-07-15T07:03:19Z</time>
      </trkpt>
      <trkpt lat="42.7873442788" lon="-0.4497550707">
        <ele>1877.59</ele>
        <time>2022-07-15T07:03:32Z</time>
      </trkpt>
      <trkpt lat="42.7874097414" lon="-0.4498064518">
        <ele>1876.15</ele>
        <time>2022-07-15T07:03:39Z</time>
      </trkpt>
      <trkpt lat="42.7875296026" lon="-0.4499115609">
        <ele>1873.75</ele>
        <time>2022-07-15T07:03:50Z</time>
      </trkpt>
      <trkpt lat="42.7875973284" lon="-0.4499802087">
        <ele>1873.27</ele>
        <time>2022-07-15T07:03:57Z</time>
      </trkpt>
      <trkpt lat="42.7877679002" lon="-0.4500513710">
        <ele>1871.82</ele>
        <time>2022-07-15T07:04:13Z</time>
      </trkpt>
      <trkpt lat="42.7879232168" lon="-0.4501502775">
        <ele>1871.82</ele>
        <time>2022-07-15T07:04:27Z</time>
      </trkpt>
      <trkpt lat="42.7880123165" lon="-0.4502863158">
        <ele>1870.86</ele>
        <time>2022-07-15T07:04:37Z</time>
      </trkpt>
      <trkpt lat="42.7880210336" lon="-0.4503398761">
        <ele>1870.86</ele>
        <time>2022-07-15T07:04:42Z</time>
      </trkpt>
      <trkpt lat="42.7881274838" lon="-0.4504908342">
        <ele>1870.38</ele>
        <time>2022-07-15T07:04:55Z</time>
      </trkpt>
      <trkpt lat="42.7882752568" lon="-0.4506816901">
        <ele>1871.34</ele>
        <time>2022-07-15T07:05:11Z</time>
      </trkpt>
      <trkpt lat="42.7884359378" lon="-0.4508466460">
        <ele>1871.82</ele>
        <time>2022-07-15T07:05:27Z</time>
      </trkpt>
      <trkpt lat="42.7885795198" lon="-0.4509856179">
        <ele>1871.82</ele>
        <time>2022-07-15T07:05:41Z</time>
      </trkpt>
      <trkpt lat="42.7886355948" lon="-0.4510797467">
        <ele>1870.38</ele>
        <time>2022-07-15T07:05:49Z</time>
      </trkpt>
      <trkpt lat="42.7886624169" lon="-0.4511194769">
        <ele>1870.38</ele>
        <time>2022-07-15T07:05:55Z</time>
      </trkpt>
      <trkpt lat="42.7887484990" lon="-0.4511623085">
        <ele>1871.82</ele>
        <time>2022-07-15T07:06:07Z</time>
      </trkpt>
      <trkpt lat="42.7887846250" lon="-0.4511725344">
        <ele>1871.82</ele>
        <time>2022-07-15T07:06:14Z</time>
      </trkpt>
      <trkpt lat="42.7888930868" lon="-0.4511723667">
        <ele>1870.38</ele>
        <time>2022-07-15T07:06:26Z</time>
      </trkpt>
      <trkpt lat="42.7890835237" lon="-0.4511353187">
        <ele>1869.90</ele>
        <time>2022-07-15T07:06:42Z</time>
      </trkpt>
      <trkpt lat="42.7892384212" lon="-0.4512001947">
        <ele>1869.90</ele>
        <time>2022-07-15T07:06:56Z</time>
      </trkpt>
      <trkpt lat="42.7892761398" lon="-0.4511956684">
        <ele>1869.90</ele>
        <time>2022-07-15T07:07:00Z</time>
      </trkpt>
      <trkpt lat="42.7893548459" lon="-0.4511568602">
        <ele>1869.42</ele>
        <time>2022-07-15T07:07:07Z</time>
      </trkpt>
      <trkpt lat="42.7895091567" lon="-0.4511768930">
        <ele>1870.38</ele>
        <time>2022-07-15T07:07:21Z</time>
      </trkpt>
      <trkpt lat="42.7895710152" lon="-0.4511782341">
        <ele>1871.34</ele>
        <time>2022-07-15T07:07:28Z</time>
      </trkpt>
      <trkpt lat="42.7896171995" lon="-0.4511822574">
        <ele>1871.34</ele>
        <time>2022-07-15T07:07:32Z</time>
      </trkpt>
      <trkpt lat="42.7897253260" lon="-0.4513524938">
        <ele>1871.34</ele>
        <time>2022-07-15T07:07:44Z</time>
      </trkpt>
      <trkpt lat="42.7897596080" lon="-0.4514360614">
        <ele>1871.34</ele>
        <time>2022-07-15T07:07:50Z</time>
      </trkpt>
      <trkpt lat="42.7899534814" lon="-0.4516109917">
        <ele>1870.38</ele>
        <time>2022-07-15T07:08:08Z</time>
      </trkpt>
      <trkpt lat="42.7900632843" lon="-0.4516580980">
        <ele>1870.38</ele>
        <time>2022-07-15T07:08:17Z</time>
      </trkpt>
      <trkpt lat="42.7900990751" lon="-0.4517024383">
        <ele>1871.34</ele>
        <time>2022-07-15T07:08:21Z</time>
      </trkpt>
      <trkpt lat="42.7902589180" lon="-0.4517901130">
        <ele>1869.90</ele>
        <time>2022-07-15T07:08:37Z</time>
      </trkpt>
      <trkpt lat="42.7902688924" lon="-0.4517955612">
        <ele>1869.90</ele>
        <time>2022-07-15T07:08:38Z</time>
      </trkpt>
      <trkpt lat="42.7904132288" lon="-0.4518740159">
        <ele>1867.50</ele>
        <time>2022-07-15T07:08:53Z</time>
      </trkpt>
      <trkpt lat="42.7905947808" lon="-0.4519677255">
        <ele>1865.09</ele>
        <time>2022-07-15T07:09:09Z</time>
      </trkpt>
      <trkpt lat="42.7906282246" lon="-0.4519977327">
        <ele>1864.61</ele>
        <time>2022-07-15T07:09:13Z</time>
      </trkpt>
      <trkpt lat="42.7906714752" lon="-0.4520581663">
        <ele>1864.13</ele>
        <time>2022-07-15T07:09:20Z</time>
      </trkpt>
      <trkpt lat="42.7906984650" lon="-0.4520626925">
        <ele>1864.13</ele>
        <time>2022-07-15T07:09:23Z</time>
      </trkpt>
      <trkpt lat="42.7907188330" lon="-0.4520927835">
        <ele>1864.13</ele>
        <time>2022-07-15T07:09:26Z</time>
      </trkpt>
      <trkpt lat="42.7907392010" lon="-0.4521574918">
        <ele>1864.13</ele>
        <time>2022-07-15T07:09:32Z</time>
      </trkpt>
      <trkpt lat="42.7908701263" lon="-0.4522592481">
        <ele>1862.69</ele>
        <time>2022-07-15T07:09:47Z</time>
      </trkpt>
      <trkpt lat="42.7909034025" lon="-0.4522915184">
        <ele>1862.69</ele>
        <time>2022-07-15T07:09:52Z</time>
      </trkpt>
      <trkpt lat="42.7909710445" lon="-0.4523102939">
        <ele>1862.69</ele>
        <time>2022-07-15T07:09:58Z</time>
      </trkpt>
      <trkpt lat="42.7910189889" lon="-0.4523672070">
        <ele>1862.69</ele>
        <time>2022-07-15T07:10:04Z</time>
      </trkpt>
      <trkpt lat="42.7911850344" lon="-0.4524936900">
        <ele>1861.25</ele>
        <time>2022-07-15T07:10:21Z</time>
      </trkpt>
      <trkpt lat="42.7912732959" lon="-0.4526210111">
        <ele>1860.29</ele>
        <time>2022-07-15T07:10:34Z</time>
      </trkpt>
      <trkpt lat="42.7912851144" lon="-0.4526366014">
        <ele>1860.29</ele>
        <time>2022-07-15T07:10:36Z</time>
      </trkpt>
      <trkpt lat="42.7913197316" lon="-0.4526649322">
        <ele>1860.29</ele>
        <time>2022-07-15T07:10:40Z</time>
      </trkpt>
      <trkpt lat="42.7913712803" lon="-0.4527148046">
        <ele>1860.29</ele>
        <time>2022-07-15T07:10:45Z</time>
      </trkpt>
      <trkpt lat="42.7914984338" lon="-0.4528777488">
        <ele>1857.40</ele>
        <time>2022-07-15T07:11:01Z</time>
      </trkpt>
      <trkpt lat="42.7915315423" lon="-0.4529816844">
        <ele>1855.48</ele>
        <time>2022-07-15T07:11:14Z</time>
      </trkpt>
      <trkpt lat="42.7915829234" lon="-0.4529852048">
        <ele>1855.48</ele>
        <time>2022-07-15T07:11:22Z</time>
      </trkpt>
      <trkpt lat="42.7916434407" lon="-0.4529987834">
        <ele>1855.00</ele>
        <time>2022-07-15T07:11:28Z</time>
      </trkpt>
      <trkpt lat="42.7917168662" lon="-0.4530815966">
        <ele>1854.52</ele>
        <time>2022-07-15T07:11:37Z</time>
      </trkpt>
      <trkpt lat="42.7918766253" lon="-0.4531635717">
        <ele>1849.71</ele>
        <time>2022-07-15T07:11:53Z</time>
      </trkpt>
      <trkpt lat="42.7918888628" lon="-0.4531715345">
        <ele>1853.56</ele>
        <time>2022-07-15T07:11:54Z</time>
      </trkpt>
      <trkpt lat="42.7920114901" lon="-0.4532520846">
        <ele>1851.16</ele>
        <time>2022-07-15T07:12:05Z</time>
      </trkpt>
      <trkpt lat="42.7921775356" lon="-0.4533440340">
        <ele>1848.75</ele>
        <time>2022-07-15T07:12:19Z</time>
      </trkpt>
      <trkpt lat="42.7923994884" lon="-0.4533907212">
        <ele>1846.83</ele>
        <time>2022-07-15T07:12:36Z</time>
      </trkpt>
      <trkpt lat="42.7925823815" lon="-0.4534664936">
        <ele>1844.43</ele>
        <time>2022-07-15T07:12:51Z</time>
      </trkpt>
      <trkpt lat="42.7926981356" lon="-0.4535346385">
        <ele>1841.54</ele>
        <time>2022-07-15T07:13:02Z</time>
      </trkpt>
      <trkpt lat="42.7928526141" lon="-0.4536700901">
        <ele>1838.18</ele>
        <time>2022-07-15T07:13:17Z</time>
      </trkpt>
      <trkpt lat="42.7929421328" lon="-0.4537394922">
        <ele>1834.33</ele>
        <time>2022-07-15T07:13:27Z</time>
      </trkpt>
      <trkpt lat="42.7929522749" lon="-0.4537805635">
        <ele>1834.33</ele>
        <time>2022-07-15T07:13:30Z</time>
      </trkpt>
      <trkpt lat="42.7929645963" lon="-0.4538143426">
        <ele>1833.85</ele>
        <time>2022-07-15T07:13:33Z</time>
      </trkpt>
      <trkpt lat="42.7930563781" lon="-0.4539652169">
        <ele>1830.49</ele>
        <time>2022-07-15T07:13:46Z</time>
      </trkpt>
      <trkpt lat="42.7931173146" lon="-0.4541739263">
        <ele>1828.08</ele>
        <time>2022-07-15T07:14:01Z</time>
      </trkpt>
      <trkpt lat="42.7931475732" lon="-0.4543914367">
        <ele>1824.72</ele>
        <time>2022-07-15T07:14:17Z</time>
      </trkpt>
      <trkpt lat="42.7931552846" lon="-0.4545305762">
        <ele>1821.35</ele>
        <time>2022-07-15T07:14:31Z</time>
      </trkpt>
      <trkpt lat="42.7931614034" lon="-0.4545459989">
        <ele>1821.35</ele>
        <time>2022-07-15T07:14:32Z</time>
      </trkpt>
      <trkpt lat="42.7932160534" lon="-0.4547011480">
        <ele>1817.99</ele>
        <time>2022-07-15T07:14:43Z</time>
      </trkpt>
      <trkpt lat="42.7932224236" lon="-0.4547109548">
        <ele>1817.99</ele>
        <time>2022-07-15T07:14:44Z</time>
      </trkpt>
      <trkpt lat="42.7933499962" lon="-0.4548892379">
        <ele>1815.59</ele>
        <time>2022-07-15T07:14:59Z</time>
      </trkpt>
      <trkpt lat="42.7933907323" lon="-0.4550596420">
        <ele>1812.70</ele>
        <time>2022-07-15T07:15:11Z</time>
      </trkpt>
      <trkpt lat="42.7934579551" lon="-0.4552784096">
        <ele>1809.82</ele>
        <time>2022-07-15T07:15:26Z</time>
      </trkpt>
      <trkpt lat="42.7935199812" lon="-0.4555933177">
        <ele>1808.38</ele>
        <time>2022-07-15T07:15:43Z</time>
      </trkpt>
      <trkpt lat="42.7936437819" lon="-0.4558120016">
        <ele>1808.38</ele>
        <time>2022-07-15T07:15:59Z</time>
      </trkpt>
      <trkpt lat="42.7936875354" lon="-0.4558938928">
        <ele>1808.38</ele>
        <time>2022-07-15T07:16:05Z</time>
      </trkpt>
      <trkpt lat="42.7937136032" lon="-0.4559466988">
        <ele>1808.38</ele>
        <time>2022-07-15T07:16:09Z</time>
      </trkpt>
      <trkpt lat="42.7937613800" lon="-0.4560285900">
        <ele>1807.90</ele>
        <time>2022-07-15T07:16:15Z</time>
      </trkpt>
      <trkpt lat="42.7939672396" lon="-0.4562295042">
        <ele>1805.97</ele>
        <time>2022-07-15T07:16:33Z</time>
      </trkpt>
      <trkpt lat="42.7939816564" lon="-0.4562570807">
        <ele>1805.97</ele>
        <time>2022-07-15T07:16:35Z</time>
      </trkpt>
      <trkpt lat="42.7939920500" lon="-0.4563419055">
        <ele>1805.97</ele>
        <time>2022-07-15T07:16:40Z</time>
      </trkpt>
      <trkpt lat="42.7939989232" lon="-0.4564367048">
        <ele>1805.49</ele>
        <time>2022-07-15T07:16:46Z</time>
      </trkpt>
      <trkpt lat="42.7940083947" lon="-0.4564598389">
        <ele>1805.49</ele>
        <time>2022-07-15T07:16:48Z</time>
      </trkpt>
      <trkpt lat="42.7940606140" lon="-0.4564963002">
        <ele>1805.49</ele>
        <time>2022-07-15T07:16:53Z</time>
      </trkpt>
      <trkpt lat="42.7941337880" lon="-0.4565719888">
        <ele>1805.49</ele>
        <time>2022-07-15T07:17:00Z</time>
      </trkpt>
      <trkpt lat="42.7941902820" lon="-0.4566574842">
        <ele>1805.49</ele>
        <time>2022-07-15T07:17:07Z</time>
      </trkpt>
      <trkpt lat="42.7942194510" lon="-0.4568408802">
        <ele>1803.09</ele>
        <time>2022-07-15T07:17:22Z</time>
      </trkpt>
      <trkpt lat="42.7942570020" lon="-0.4569618311">
        <ele>1802.13</ele>
        <time>2022-07-15T07:17:31Z</time>
      </trkpt>
      <trkpt lat="42.7943174355" lon="-0.4571254458">
        <ele>1799.73</ele>
        <time>2022-07-15T07:17:44Z</time>
      </trkpt>
      <trkpt lat="42.7943246439" lon="-0.4571503401">
        <ele>1799.73</ele>
        <time>2022-07-15T07:17:46Z</time>
      </trkpt>
      <trkpt lat="42.7943637874" lon="-0.4572041519">
        <ele>1798.76</ele>
        <time>2022-07-15T07:17:52Z</time>
      </trkpt>
      <trkpt lat="42.7943777852" lon="-0.4573385976">
        <ele>1797.32</ele>
        <time>2022-07-15T07:18:02Z</time>
      </trkpt>
      <trkpt lat="42.7944558207" lon="-0.4574939981">
        <ele>1796.84</ele>
        <time>2022-07-15T07:18:14Z</time>
      </trkpt>
      <trkpt lat="42.7945927810" lon="-0.4576333892">
        <ele>1795.88</ele>
        <time>2022-07-15T07:18:30Z</time>
      </trkpt>
      <trkpt lat="42.7946114726" lon="-0.4577350616">
        <ele>1795.40</ele>
        <time>2022-07-15T07:18:40Z</time>
      </trkpt>
      <trkpt lat="42.7947486844" lon="-0.4578901269">
        <ele>1794.92</ele>
        <time>2022-07-15T07:18:56Z</time>
      </trkpt>
      <trkpt lat="42.7948461659" lon="-0.4580472875">
        <ele>1793.00</ele>
        <time>2022-07-15T07:19:09Z</time>
      </trkpt>
      <trkpt lat="42.7948901709" lon="-0.4581897799">
        <ele>1791.07</ele>
        <time>2022-07-15T07:19:22Z</time>
      </trkpt>
      <trkpt lat="42.7949438989" lon="-0.4583750200">
        <ele>1790.11</ele>
        <time>2022-07-15T07:19:36Z</time>
      </trkpt>
      <trkpt lat="42.7949891612" lon="-0.4584315140">
        <ele>1788.67</ele>
        <time>2022-07-15T07:19:41Z</time>
      </trkpt>
      <trkpt lat="42.7951444779" lon="-0.4585917760">
        <ele>1786.75</ele>
        <time>2022-07-15T07:19:57Z</time>
      </trkpt>
      <trkpt lat="42.7953188214" lon="-0.4588096216">
        <ele>1785.31</ele>
        <time>2022-07-15T07:20:15Z</time>
      </trkpt>
      <trkpt lat="42.7954005450" lon="-0.4589703865">
        <ele>1782.42</ele>
        <time>2022-07-15T07:20:30Z</time>
      </trkpt>
      <trkpt lat="42.7954271156" lon="-0.4590223543">
        <ele>1782.42</ele>
        <time>2022-07-15T07:20:38Z</time>
      </trkpt>
      <trkpt lat="42.7955091745" lon="-0.4591443948">
        <ele>1780.50</ele>
        <time>2022-07-15T07:20:53Z</time>
      </trkpt>
      <trkpt lat="42.7955200709" lon="-0.4591536149">
        <ele>1778.58</ele>
        <time>2022-07-15T07:21:05Z</time>
      </trkpt>
      <trkpt lat="42.7955275308" lon="-0.4591728095">
        <ele>1778.10</ele>
        <time>2022-07-15T07:21:11Z</time>
      </trkpt>
      <trkpt lat="42.7955701947" lon="-0.4593136255">
        <ele>1779.54</ele>
        <time>2022-07-15T07:21:23Z</time>
      </trkpt>
      <trkpt lat="42.7955932450" lon="-0.4593211692">
        <ele>1780.50</ele>
        <time>2022-07-15T07:21:26Z</time>
      </trkpt>
      <trkpt lat="42.7957664151" lon="-0.4594542738">
        <ele>1777.61</ele>
        <time>2022-07-15T07:21:42Z</time>
      </trkpt>
      <trkpt lat="42.7957872860" lon="-0.4595849477">
        <ele>1777.61</ele>
        <time>2022-07-15T07:21:55Z</time>
      </trkpt>
      <trkpt lat="42.7958260942" lon="-0.4596981034">
        <ele>1777.13</ele>
        <time>2022-07-15T07:22:07Z</time>
      </trkpt>
      <trkpt lat="42.7958425228" lon="-0.4597876221">
        <ele>1775.69</ele>
        <time>2022-07-15T07:22:17Z</time>
      </trkpt>
      <trkpt lat="42.7958837617" lon="-0.4598853551">
        <ele>1775.21</ele>
        <time>2022-07-15T07:22:29Z</time>
      </trkpt>
      <trkpt lat="42.7959355619" lon="-0.4599576071">
        <ele>1774.25</ele>
        <time>2022-07-15T07:22:38Z</time>
      </trkpt>
      <trkpt lat="42.7960332111" lon="-0.4600379057">
        <ele>1773.77</ele>
        <time>2022-07-15T07:22:48Z</time>
      </trkpt>
      <trkpt lat="42.7960942313" lon="-0.4600893706">
        <ele>1772.81</ele>
        <time>2022-07-15T07:22:54Z</time>
      </trkpt>
      <trkpt lat="42.7961333748" lon="-0.4601461999">
        <ele>1772.33</ele>
        <time>2022-07-15T07:22:59Z</time>
      </trkpt>
      <trkpt lat="42.7961921319" lon="-0.4602233972">
        <ele>1770.89</ele>
        <time>2022-07-15T07:23:06Z</time>
      </trkpt>
      <trkpt lat="42.7962328680" lon="-0.4603046179">
        <ele>1770.41</ele>
        <time>2022-07-15T07:23:12Z</time>
      </trkpt>
      <trkpt lat="42.7963018510" lon="-0.4604931269">
        <ele>1768.00</ele>
        <time>2022-07-15T07:23:27Z</time>
      </trkpt>
      <trkpt lat="42.7963060420" lon="-0.4605404008">
        <ele>1767.52</ele>
        <time>2022-07-15T07:23:31Z</time>
      </trkpt>
      <trkpt lat="42.7963539027" lon="-0.4606501199">
        <ele>1766.08</ele>
        <time>2022-07-15T07:23:40Z</time>
      </trkpt>
      <trkpt lat="42.7963950578" lon="-0.4607418180">
        <ele>1765.12</ele>
        <time>2022-07-15T07:23:47Z</time>
      </trkpt>
      <trkpt lat="42.7964992449" lon="-0.4609593283">
        <ele>1762.71</ele>
        <time>2022-07-15T07:24:03Z</time>
      </trkpt>
      <trkpt lat="42.7965196967" lon="-0.4610157385">
        <ele>1762.23</ele>
        <time>2022-07-15T07:24:07Z</time>
      </trkpt>
      <trkpt lat="42.7965152543" lon="-0.4611569736">
        <ele>1760.79</ele>
        <time>2022-07-15T07:24:16Z</time>
      </trkpt>
      <trkpt lat="42.7965424955" lon="-0.4612787627">
        <ele>1760.31</ele>
        <time>2022-07-15T07:24:24Z</time>
      </trkpt>
      <trkpt lat="42.7966506220" lon="-0.4614317324">
        <ele>1758.39</ele>
        <time>2022-07-15T07:24:39Z</time>
      </trkpt>
      <trkpt lat="42.7966773603" lon="-0.4614602309">
        <ele>1757.91</ele>
        <time>2022-07-15T07:24:42Z</time>
      </trkpt>
      <trkpt lat="42.7967445832" lon="-0.4616157990">
        <ele>1755.99</ele>
        <time>2022-07-15T07:24:54Z</time>
      </trkpt>
      <trkpt lat="42.7967942879" lon="-0.4616546910">
        <ele>1755.02</ele>
        <time>2022-07-15T07:24:59Z</time>
      </trkpt>
      <trkpt lat="42.7968957089" lon="-0.4618723691">
        <ele>1751.66</ele>
        <time>2022-07-15T07:25:14Z</time>
      </trkpt>
      <trkpt lat="42.7970044222" lon="-0.4620421026">
        <ele>1749.26</ele>
        <time>2022-07-15T07:25:28Z</time>
      </trkpt>
      <trkpt lat="42.7971023228" lon="-0.4621396679">
        <ele>1747.81</ele>
        <time>2022-07-15T07:25:41Z</time>
      </trkpt>
      <trkpt lat="42.7970924322" lon="-0.4622068070">
        <ele>1746.85</ele>
        <time>2022-07-15T07:25:45Z</time>
      </trkpt>
      <trkpt lat="42.7971692104" lon="-0.4624074697">
        <ele>1743.97</ele>
        <time>2022-07-15T07:25:59Z</time>
      </trkpt>
      <trkpt lat="42.7971985471" lon="-0.4625171889">
        <ele>1742.53</ele>
        <time>2022-07-15T07:26:06Z</time>
      </trkpt>
      <trkpt lat="42.7971905842" lon="-0.4626214597">
        <ele>1741.57</ele>
        <time>2022-07-15T07:26:12Z</time>
      </trkpt>
      <trkpt lat="42.7971671149" lon="-0.4628630262">
        <ele>1740.60</ele>
        <time>2022-07-15T07:26:25Z</time>
      </trkpt>
      <trkpt lat="42.7972305659" lon="-0.4631098732">
        <ele>1739.16</ele>
        <time>2022-07-15T07:26:40Z</time>
      </trkpt>
      <trkpt lat="42.7972481679" lon="-0.4631963745">
        <ele>1738.68</ele>
        <time>2022-07-15T07:26:45Z</time>
      </trkpt>
      <trkpt lat="42.7972580586" lon="-0.4632319976">
        <ele>1738.68</ele>
        <time>2022-07-15T07:26:47Z</time>
      </trkpt>
      <trkpt lat="42.7972570527" lon="-0.4632455762">
        <ele>1738.68</ele>
        <time>2022-07-15T07:26:48Z</time>
      </trkpt>
      <trkpt lat="42.7972565498" lon="-0.4634639248">
        <ele>1738.20</ele>
        <time>2022-07-15T07:27:03Z</time>
      </trkpt>
      <trkpt lat="42.7972528618" lon="-0.4634728096">
        <ele>1738.20</ele>
        <time>2022-07-15T07:27:04Z</time>
      </trkpt>
      <trkpt lat="42.7972204238" lon="-0.4636826087">
        <ele>1738.20</ele>
        <time>2022-07-15T07:27:10Z</time>
      </trkpt>
      <trkpt lat="42.7973086014" lon="-0.4637401085">
        <ele>1737.24</ele>
        <time>2022-07-15T07:27:16Z</time>
      </trkpt>
      <trkpt lat="42.7973023150" lon="-0.4637216683">
        <ele>1737.24</ele>
        <time>2022-07-15T07:27:25Z</time>
      </trkpt>
      <trkpt lat="42.7973190788" lon="-0.4638141207">
        <ele>1736.28</ele>
        <time>2022-07-15T07:27:34Z</time>
      </trkpt>
      <trkpt lat="42.7973402012" lon="-0.4639908951">
        <ele>1734.84</ele>
        <time>2022-07-15T07:27:47Z</time>
      </trkpt>
      <trkpt lat="42.7973257005" lon="-0.4640685115">
        <ele>1734.36</ele>
        <time>2022-07-15T07:27:51Z</time>
      </trkpt>
      <trkpt lat="42.7973697055" lon="-0.4642875306">
        <ele>1732.91</ele>
        <time>2022-07-15T07:28:05Z</time>
      </trkpt>
      <trkpt lat="42.7973365970" lon="-0.4643394984">
        <ele>1731.95</ele>
        <time>2022-07-15T07:28:14Z</time>
      </trkpt>
      <trkpt lat="42.7972780913" lon="-0.4645156860">
        <ele>1731.47</ele>
        <time>2022-07-15T07:28:28Z</time>
      </trkpt>
      <trkpt lat="42.7972757444" lon="-0.4645909555">
        <ele>1731.47</ele>
        <time>2022-07-15T07:28:32Z</time>
      </trkpt>
      <trkpt lat="42.7971936855" lon="-0.4647336155">
        <ele>1731.47</ele>
        <time>2022-07-15T07:28:45Z</time>
      </trkpt>
      <trkpt lat="42.7971822862" lon="-0.4647865053">
        <ele>1731.47</ele>
        <time>2022-07-15T07:28:49Z</time>
      </trkpt>
      <trkpt lat="42.7971918415" lon="-0.4649829771">
        <ele>1730.51</ele>
        <time>2022-07-15T07:29:03Z</time>
      </trkpt>
      <trkpt lat="42.7971532010" lon="-0.4651850648">
        <ele>1730.51</ele>
        <time>2022-07-15T07:29:16Z</time>
      </trkpt>
      <trkpt lat="42.7971650194" lon="-0.4652547184">
        <ele>1730.51</ele>
        <time>2022-07-15T07:29:20Z</time>
      </trkpt>
      <trkpt lat="42.7971272171" lon="-0.4653770104">
        <ele>1730.03</ele>
        <time>2022-07-15T07:29:29Z</time>
      </trkpt>
      <trkpt lat="42.7971267141" lon="-0.4654677864">
        <ele>1729.55</ele>
        <time>2022-07-15T07:29:35Z</time>
      </trkpt>
      <trkpt lat="42.7971125487" lon="-0.4656289704">
        <ele>1727.63</ele>
        <time>2022-07-15T07:29:49Z</time>
      </trkpt>
      <trkpt lat="42.7970852237" lon="-0.4658107739">
        <ele>1727.15</ele>
        <time>2022-07-15T07:30:00Z</time>
      </trkpt>
      <trkpt lat="42.7970215213" lon="-0.4660297930">
        <ele>1726.18</ele>
        <time>2022-07-15T07:30:15Z</time>
      </trkpt>
      <trkpt lat="42.7970159892" lon="-0.4661087506">
        <ele>1725.70</ele>
        <time>2022-07-15T07:30:20Z</time>
      </trkpt>
      <trkpt lat="42.7969656978" lon="-0.4663016181">
        <ele>1724.74</ele>
        <time>2022-07-15T07:30:33Z</time>
      </trkpt>
      <trkpt lat="42.7969488502" lon="-0.4663467128">
        <ele>1724.74</ele>
        <time>2022-07-15T07:30:37Z</time>
      </trkpt>
      <trkpt lat="42.7969180886" lon="-0.4664052185">
        <ele>1724.74</ele>
        <time>2022-07-15T07:30:44Z</time>
      </trkpt>
      <trkpt lat="42.7968615945" lon="-0.4665552545">
        <ele>1724.26</ele>
        <time>2022-07-15T07:30:53Z</time>
      </trkpt>
      <trkpt lat="42.7968275640" lon="-0.4666553345">
        <ele>1724.26</ele>
        <time>2022-07-15T07:31:00Z</time>
      </trkpt>
      <trkpt lat="42.7967695612" lon="-0.4669342004">
        <ele>1723.30</ele>
        <time>2022-07-15T07:31:17Z</time>
      </trkpt>
      <trkpt lat="42.7967429906" lon="-0.4670504574">
        <ele>1723.30</ele>
        <time>2022-07-15T07:31:24Z</time>
      </trkpt>
      <trkpt lat="42.7967146598" lon="-0.4671021737">
        <ele>1723.30</ele>
        <time>2022-07-15T07:31:28Z</time>
      </trkpt>
      <trkpt lat="42.7966797072" lon="-0.4673159122">
        <ele>1722.34</ele>
        <time>2022-07-15T07:31:41Z</time>
      </trkpt>
      <trkpt lat="42.7966831438" lon="-0.4675708897">
        <ele>1721.38</ele>
        <time>2022-07-15T07:31:54Z</time>
      </trkpt>
      <trkpt lat="42.7966797911" lon="-0.4677631706">
        <ele>1721.38</ele>
        <time>2022-07-15T07:32:05Z</time>
      </trkpt>
      <trkpt lat="42.7966732532" lon="-0.4680158012">
        <ele>1722.34</ele>
        <time>2022-07-15T07:32:19Z</time>
      </trkpt>
      <trkpt lat="42.7966516279" lon="-0.4681774043">
        <ele>1722.82</ele>
        <time>2022-07-15T07:32:29Z</time>
      </trkpt>
      <trkpt lat="42.7966004983" lon="-0.4682985228">
        <ele>1722.34</ele>
        <time>2022-07-15T07:32:37Z</time>
      </trkpt>
      <trkpt lat="42.7965739276" lon="-0.4683768936">
        <ele>1721.38</ele>
        <time>2022-07-15T07:32:41Z</time>
      </trkpt>
      <trkpt lat="42.7964395657" lon="-0.4685964994">
        <ele>1719.46</ele>
        <time>2022-07-15T07:32:57Z</time>
      </trkpt>
      <trkpt lat="42.7962966543" lon="-0.4687458649">
        <ele>1718.49</ele>
        <time>2022-07-15T07:33:10Z</time>
      </trkpt>
      <trkpt lat="42.7961954009" lon="-0.4689176101">
        <ele>1717.05</ele>
        <time>2022-07-15T07:33:23Z</time>
      </trkpt>
      <trkpt lat="42.7961783856" lon="-0.4689982440">
        <ele>1716.09</ele>
        <time>2022-07-15T07:33:28Z</time>
      </trkpt>
      <trkpt lat="42.7961558383" lon="-0.4690346215">
        <ele>1716.09</ele>
        <time>2022-07-15T07:33:31Z</time>
      </trkpt>
      <trkpt lat="42.7961424273" lon="-0.4690574203">
        <ele>1716.09</ele>
        <time>2022-07-15T07:33:33Z</time>
      </trkpt>
      <trkpt lat="42.7960892860" lon="-0.4692375474">
        <ele>1715.61</ele>
        <time>2022-07-15T07:33:47Z</time>
      </trkpt>
      <trkpt lat="42.7960727736" lon="-0.4692549817">
        <ele>1715.61</ele>
        <time>2022-07-15T07:33:49Z</time>
      </trkpt>
      <trkpt lat="42.7960411739" lon="-0.4693175945">
        <ele>1714.65</ele>
        <time>2022-07-15T07:33:54Z</time>
      </trkpt>
      <trkpt lat="42.7959422674" lon="-0.4695515335">
        <ele>1714.17</ele>
        <time>2022-07-15T07:34:09Z</time>
      </trkpt>
      <trkpt lat="42.7958681714" lon="-0.4697572254">
        <ele>1714.17</ele>
        <time>2022-07-15T07:34:22Z</time>
      </trkpt>
      <trkpt lat="42.7958142757" lon="-0.4699735623">
        <ele>1713.21</ele>
        <time>2022-07-15T07:34:36Z</time>
      </trkpt>
      <trkpt lat="42.7957633138" lon="-0.4701230116">
        <ele>1713.21</ele>
        <time>2022-07-15T07:34:47Z</time>
      </trkpt>
      <trkpt lat="42.7957034670" lon="-0.4703048151">
        <ele>1714.65</ele>
        <time>2022-07-15T07:35:02Z</time>
      </trkpt>
      <trkpt lat="42.7956686821" lon="-0.4704295378">
        <ele>1715.61</ele>
        <time>2022-07-15T07:35:10Z</time>
      </trkpt>
      <trkpt lat="42.7956322208" lon="-0.4704451282">
        <ele>1716.57</ele>
        <time>2022-07-15T07:35:14Z</time>
      </trkpt>
      <trkpt lat="42.7955347393" lon="-0.4705001973">
        <ele>1716.09</ele>
        <time>2022-07-15T07:35:25Z</time>
      </trkpt>
      <trkpt lat="42.7955313027" lon="-0.4705615528">
        <ele>1716.09</ele>
        <time>2022-07-15T07:35:31Z</time>
      </trkpt>
      <trkpt lat="42.7955737989" lon="-0.4706032109">
        <ele>1715.13</ele>
        <time>2022-07-15T07:35:35Z</time>
      </trkpt>
      <trkpt lat="42.7955871262" lon="-0.4706383310">
        <ele>1714.65</ele>
        <time>2022-07-15T07:35:37Z</time>
      </trkpt>
      <trkpt lat="42.7955817617" lon="-0.4706769716">
        <ele>1714.65</ele>
        <time>2022-07-15T07:35:40Z</time>
      </trkpt>
      <trkpt lat="42.7955840249" lon="-0.4707095772">
        <ele>1714.17</ele>
        <time>2022-07-15T07:35:42Z</time>
      </trkpt>
      <trkpt lat="42.7954755630" lon="-0.4709120002">
        <ele>1715.13</ele>
        <time>2022-07-15T07:35:58Z</time>
      </trkpt>
      <trkpt lat="42.7954166383" lon="-0.4710436799">
        <ele>1716.57</ele>
        <time>2022-07-15T07:36:11Z</time>
      </trkpt>
      <trkpt lat="42.7954121120" lon="-0.4710587673">
        <ele>1716.57</ele>
        <time>2022-07-15T07:36:13Z</time>
      </trkpt>
      <trkpt lat="42.7953399438" lon="-0.4712972324">
        <ele>1718.49</ele>
        <time>2022-07-15T07:36:31Z</time>
      </trkpt>
      <trkpt lat="42.7953041531" lon="-0.4714252241">
        <ele>1719.46</ele>
        <time>2022-07-15T07:36:40Z</time>
      </trkpt>
      <trkpt lat="42.7953029796" lon="-0.4714863282">
        <ele>1718.01</ele>
        <time>2022-07-15T07:36:44Z</time>
      </trkpt>
      <trkpt lat="42.7952729724" lon="-0.4715848155">
        <ele>1716.57</ele>
        <time>2022-07-15T07:36:51Z</time>
      </trkpt>
      <trkpt lat="42.7952252794" lon="-0.4716330115">
        <ele>1716.09</ele>
        <time>2022-07-15T07:36:56Z</time>
      </trkpt>
      <trkpt lat="42.7951464895" lon="-0.4719236959">
        <ele>1714.17</ele>
        <time>2022-07-15T07:37:15Z</time>
      </trkpt>
      <trkpt lat="42.7951428015" lon="-0.4719475005">
        <ele>1713.21</ele>
        <time>2022-07-15T07:37:17Z</time>
      </trkpt>
      <trkpt lat="42.7951438073" lon="-0.4720560461">
        <ele>1711.28</ele>
        <time>2022-07-15T07:37:25Z</time>
      </trkpt>
      <trkpt lat="42.7951337490" lon="-0.4721851274">
        <ele>1709.84</ele>
        <time>2022-07-15T07:37:33Z</time>
      </trkpt>
      <trkpt lat="42.7951084357" lon="-0.4724134505">
        <ele>1708.40</ele>
        <time>2022-07-15T07:37:47Z</time>
      </trkpt>
      <trkpt lat="42.7950657718" lon="-0.4726130236">
        <ele>1707.44</ele>
        <time>2022-07-15T07:38:00Z</time>
      </trkpt>
      <trkpt lat="42.7951003052" lon="-0.4727571923">
        <ele>1706.48</ele>
        <time>2022-07-15T07:38:10Z</time>
      </trkpt>
      <trkpt lat="42.7950432245" lon="-0.4728571884">
        <ele>1704.07</ele>
        <time>2022-07-15T07:38:21Z</time>
      </trkpt>
      <trkpt lat="42.7949503530" lon="-0.4730009381">
        <ele>1700.71</ele>
        <time>2022-07-15T07:38:35Z</time>
      </trkpt>
      <trkpt lat="42.7949430607" lon="-0.4730266705">
        <ele>1700.23</ele>
        <time>2022-07-15T07:38:37Z</time>
      </trkpt>
      <trkpt lat="42.7949128021" lon="-0.4730725195">
        <ele>1699.27</ele>
        <time>2022-07-15T07:38:42Z</time>
      </trkpt>
      <trkpt lat="42.7948428132" lon="-0.4732085578">
        <ele>1698.31</ele>
        <time>2022-07-15T07:38:55Z</time>
      </trkpt>
      <trkpt lat="42.7947940305" lon="-0.4732760321">
        <ele>1698.31</ele>
        <time>2022-07-15T07:39:02Z</time>
      </trkpt>
      <trkpt lat="42.7947170008" lon="-0.4734497890">
        <ele>1697.83</ele>
        <time>2022-07-15T07:39:17Z</time>
      </trkpt>
      <trkpt lat="42.7947113849" lon="-0.4734679777">
        <ele>1697.83</ele>
        <time>2022-07-15T07:39:18Z</time>
      </trkpt>
      <trkpt lat="42.7946453355" lon="-0.4736354481">
        <ele>1697.83</ele>
        <time>2022-07-15T07:39:31Z</time>
      </trkpt>
      <trkpt lat="42.7946228720" lon="-0.4736892600">
        <ele>1697.34</ele>
        <time>2022-07-15T07:39:36Z</time>
      </trkpt>
      <trkpt lat="42.7945357841" lon="-0.4738613404">
        <ele>1695.90</ele>
        <time>2022-07-15T07:39:50Z</time>
      </trkpt>
      <trkpt lat="42.7945290785" lon="-0.4738719016">
        <ele>1695.42</ele>
        <time>2022-07-15T07:39:51Z</time>
      </trkpt>
      <trkpt lat="42.7944617718" lon="-0.4739230312">
        <ele>1694.94</ele>
        <time>2022-07-15T07:40:02Z</time>
      </trkpt>
      <trkpt lat="42.7944545634" lon="-0.4739526194">
        <ele>1694.94</ele>
        <time>2022-07-15T07:40:04Z</time>
      </trkpt>
      <trkpt lat="42.7943390608" lon="-0.4740179144">
        <ele>1694.46</ele>
        <time>2022-07-15T07:40:18Z</time>
      </trkpt>
      <trkpt lat="42.7942404896" lon="-0.4741131328">
        <ele>1692.06</ele>
        <time>2022-07-15T07:40:31Z</time>
      </trkpt>
      <trkpt lat="42.7941761166" lon="-0.4741981253">
        <ele>1690.62</ele>
        <time>2022-07-15T07:40:42Z</time>
      </trkpt>
      <trkpt lat="42.7940892801" lon="-0.4742982052">
        <ele>1688.69</ele>
        <time>2022-07-15T07:40:54Z</time>
      </trkpt>
      <trkpt lat="42.7940413356" lon="-0.4743603151">
        <ele>1687.73</ele>
        <time>2022-07-15T07:41:03Z</time>
      </trkpt>
      <trkpt lat="42.7939956542" lon="-0.4744448885">
        <ele>1686.29</ele>
        <time>2022-07-15T07:41:16Z</time>
      </trkpt>
      <trkpt lat="42.7939466201" lon="-0.4744832776">
        <ele>1685.33</ele>
        <time>2022-07-15T07:41:31Z</time>
      </trkpt>
      <trkpt lat="42.7939260006" lon="-0.4745237622">
        <ele>1685.33</ele>
        <time>2022-07-15T07:41:35Z</time>
      </trkpt>
      <trkpt lat="42.7938857675" lon="-0.4745836928">
        <ele>1684.37</ele>
        <time>2022-07-15T07:41:42Z</time>
      </trkpt>
      <trkpt lat="42.7938606218" lon="-0.4746082518">
        <ele>1683.41</ele>
        <time>2022-07-15T07:41:47Z</time>
      </trkpt>
      <trkpt lat="42.7938140184" lon="-0.4747431166">
        <ele>1681.00</ele>
        <time>2022-07-15T07:42:00Z</time>
      </trkpt>
      <trkpt lat="42.7937575243" lon="-0.4749366548">
        <ele>1680.52</ele>
        <time>2022-07-15T07:42:12Z</time>
      </trkpt>
      <trkpt lat="42.7936991863" lon="-0.4750690050">
        <ele>1680.04</ele>
        <time>2022-07-15T07:42:21Z</time>
      </trkpt>
      <trkpt lat="42.7936718613" lon="-0.4751223978">
        <ele>1679.56</ele>
        <time>2022-07-15T07:42:25Z</time>
      </trkpt>
      <trkpt lat="42.7936545108" lon="-0.4751891177">
        <ele>1679.08</ele>
        <time>2022-07-15T07:42:29Z</time>
      </trkpt>
      <trkpt lat="42.7934924047" lon="-0.4753105715">
        <ele>1678.60</ele>
        <time>2022-07-15T07:42:44Z</time>
      </trkpt>
      <trkpt lat="42.7934447117" lon="-0.4753671493">
        <ele>1677.16</ele>
        <time>2022-07-15T07:42:49Z</time>
      </trkpt>
      <trkpt lat="42.7934385091" lon="-0.4753774591">
        <ele>1676.68</ele>
        <time>2022-07-15T07:42:50Z</time>
      </trkpt>
      <trkpt lat="42.7933354955" lon="-0.4755621962">
        <ele>1673.79</ele>
        <time>2022-07-15T07:43:04Z</time>
      </trkpt>
      <trkpt lat="42.7932913229" lon="-0.4755979870">
        <ele>1672.83</ele>
        <time>2022-07-15T07:43:08Z</time>
      </trkpt>
      <trkpt lat="42.7932204958" lon="-0.4756782018">
        <ele>1670.91</ele>
        <time>2022-07-15T07:43:16Z</time>
      </trkpt>
      <trkpt lat="42.7930940967" lon="-0.4757310078">
        <ele>1668.02</ele>
        <time>2022-07-15T07:43:30Z</time>
      </trkpt>
      <trkpt lat="42.7930732258" lon="-0.4757395573">
        <ele>1667.06</ele>
        <time>2022-07-15T07:43:33Z</time>
      </trkpt>
      <trkpt lat="42.7930362616" lon="-0.4757817183">
        <ele>1666.10</ele>
        <time>2022-07-15T07:43:37Z</time>
      </trkpt>
      <trkpt lat="42.7929303143" lon="-0.4759532958">
        <ele>1662.74</ele>
        <time>2022-07-15T07:43:50Z</time>
      </trkpt>
      <trkpt lat="42.7929226030" lon="-0.4759631027">
        <ele>1662.74</ele>
        <time>2022-07-15T07:43:51Z</time>
      </trkpt>
      <trkpt lat="42.7927862294" lon="-0.4761318304">
        <ele>1662.26</ele>
        <time>2022-07-15T07:44:06Z</time>
      </trkpt>
      <trkpt lat="42.7926775999" lon="-0.4762512725">
        <ele>1660.33</ele>
        <time>2022-07-15T07:44:18Z</time>
      </trkpt>
      <trkpt lat="42.7926361095" lon="-0.4762848001">
        <ele>1659.85</ele>
        <time>2022-07-15T07:44:23Z</time>
      </trkpt>
      <trkpt lat="42.7924995683" lon="-0.4764327407">
        <ele>1657.45</ele>
        <time>2022-07-15T07:44:39Z</time>
      </trkpt>
      <trkpt lat="42.7924633585" lon="-0.4765030649">
        <ele>1656.97</ele>
        <time>2022-07-15T07:44:46Z</time>
      </trkpt>
      <trkpt lat="42.7925316710" lon="-0.4766528495">
        <ele>1654.57</ele>
        <time>2022-07-15T07:45:00Z</time>
      </trkpt>
      <trkpt lat="42.7925573196" lon="-0.4767813440">
        <ele>1652.64</ele>
        <time>2022-07-15T07:45:15Z</time>
      </trkpt>
      <trkpt lat="42.7925309166" lon="-0.4768622294">
        <ele>1652.16</ele>
        <time>2022-07-15T07:45:29Z</time>
      </trkpt>
      <trkpt lat="42.7924790327" lon="-0.4769197293">
        <ele>1651.68</ele>
        <time>2022-07-15T07:45:36Z</time>
      </trkpt>
      <trkpt lat="42.7924621012" lon="-0.4770057276">
        <ele>1650.72</ele>
        <time>2022-07-15T07:45:41Z</time>
      </trkpt>
      <trkpt lat="42.7923411503" lon="-0.4771182965">
        <ele>1650.24</ele>
        <time>2022-07-15T07:45:53Z</time>
      </trkpt>
      <trkpt lat="42.7922091354" lon="-0.4769970942">
        <ele>1650.24</ele>
        <time>2022-07-15T07:46:07Z</time>
      </trkpt>
      <trkpt lat="42.7921989933" lon="-0.4769930709">
        <ele>1650.24</ele>
        <time>2022-07-15T07:46:08Z</time>
      </trkpt>
      <trkpt lat="42.7921760269" lon="-0.4769965075">
        <ele>1650.24</ele>
        <time>2022-07-15T07:46:10Z</time>
      </trkpt>
      <trkpt lat="42.7920358814" lon="-0.4771640617">
        <ele>1649.28</ele>
        <time>2022-07-15T07:46:24Z</time>
      </trkpt>
      <trkpt lat="42.7920130827" lon="-0.4772107489">
        <ele>1647.36</ele>
        <time>2022-07-15T07:46:35Z</time>
      </trkpt>
      <trkpt lat="42.7920068800" lon="-0.4772131797">
        <ele>1647.36</ele>
        <time>2022-07-15T07:46:36Z</time>
      </trkpt>
      <trkpt lat="42.7919636294" lon="-0.4772214778">
        <ele>1645.91</ele>
        <time>2022-07-15T07:46:45Z</time>
      </trkpt>
      <trkpt lat="42.7919309400" lon="-0.4772334639">
        <ele>1645.43</ele>
        <time>2022-07-15T07:46:49Z</time>
      </trkpt>
      <trkpt lat="42.7919142600" lon="-0.4773563426">
        <ele>1644.95</ele>
        <time>2022-07-15T07:47:00Z</time>
      </trkpt>
      <trkpt lat="42.7918982506" lon="-0.4774647206">
        <ele>1643.51</ele>
        <time>2022-07-15T07:47:10Z</time>
      </trkpt>
      <trkpt lat="42.7918607835" lon="-0.4775334522">
        <ele>1642.55</ele>
        <time>2022-07-15T07:47:16Z</time>
      </trkpt>
      <trkpt lat="42.7918562572" lon="-0.4775611125">
        <ele>1642.55</ele>
        <time>2022-07-15T07:47:18Z</time>
      </trkpt>
      <trkpt lat="42.7918351348" lon="-0.4775886051">
        <ele>1642.07</ele>
        <time>2022-07-15T07:47:21Z</time>
      </trkpt>
      <trkpt lat="42.7918228135" lon="-0.4776160140">
        <ele>1642.07</ele>
        <time>2022-07-15T07:47:23Z</time>
      </trkpt>
      <trkpt lat="42.7918198798" lon="-0.4776820634">
        <ele>1641.59</ele>
        <time>2022-07-15T07:47:27Z</time>
      </trkpt>
      <trkpt lat="42.7917772159" lon="-0.4779445846">
        <ele>1638.70</ele>
        <time>2022-07-15T07:47:42Z</time>
      </trkpt>
      <trkpt lat="42.7917507291" lon="-0.4780245479">
        <ele>1636.78</ele>
        <time>2022-07-15T07:47:48Z</time>
      </trkpt>
      <trkpt lat="42.7917115856" lon="-0.4780648649">
        <ele>1636.78</ele>
        <time>2022-07-15T07:47:53Z</time>
      </trkpt>
      <trkpt lat="42.7916993480" lon="-0.4781050142">
        <ele>1636.78</ele>
        <time>2022-07-15T07:47:56Z</time>
      </trkpt>
      <trkpt lat="42.7916690055" lon="-0.4782192595">
        <ele>1636.30</ele>
        <time>2022-07-15T07:48:08Z</time>
      </trkpt>
      <trkpt lat="42.7916480508" lon="-0.4782533739">
        <ele>1637.74</ele>
        <time>2022-07-15T07:48:11Z</time>
      </trkpt>
      <trkpt lat="42.7916324604" lon="-0.4782808665">
        <ele>1637.74</ele>
        <time>2022-07-15T07:48:13Z</time>
      </trkpt>
      <trkpt lat="42.7915879525" lon="-0.4783250391">
        <ele>1637.74</ele>
        <time>2022-07-15T07:48:17Z</time>
      </trkpt>
      <trkpt lat="42.7914909739" lon="-0.4783383664">
        <ele>1637.26</ele>
        <time>2022-07-15T07:48:26Z</time>
      </trkpt>
      <trkpt lat="42.7914605476" lon="-0.4783457424">
        <ele>1637.26</ele>
        <time>2022-07-15T07:48:29Z</time>
      </trkpt>
      <trkpt lat="42.7913908102" lon="-0.4783396237">
        <ele>1637.26</ele>
        <time>2022-07-15T07:48:41Z</time>
      </trkpt>
      <trkpt lat="42.7913724538" lon="-0.4783454072">
        <ele>1637.26</ele>
        <time>2022-07-15T07:48:44Z</time>
      </trkpt>
      <trkpt lat="42.7913175523" lon="-0.4783993028">
        <ele>1637.26</ele>
        <time>2022-07-15T07:48:56Z</time>
      </trkpt>
      <trkpt lat="42.7912923228" lon="-0.4784264602">
        <ele>1635.34</ele>
        <time>2022-07-15T07:49:02Z</time>
      </trkpt>
      <trkpt lat="42.7912653331" lon="-0.4784494266">
        <ele>1633.90</ele>
        <time>2022-07-15T07:49:05Z</time>
      </trkpt>
      <trkpt lat="42.7911847830" lon="-0.4785085190">
        <ele>1632.46</ele>
        <time>2022-07-15T07:49:16Z</time>
      </trkpt>
      <trkpt lat="42.7911495790" lon="-0.4785509314">
        <ele>1632.46</ele>
        <time>2022-07-15T07:49:23Z</time>
      </trkpt>
      <trkpt lat="42.7911290433" lon="-0.4785801843">
        <ele>1632.46</ele>
        <time>2022-07-15T07:49:26Z</time>
      </trkpt>
      <trkpt lat="42.7910921630" lon="-0.4787148815">
        <ele>1634.38</ele>
        <time>2022-07-15T07:49:39Z</time>
      </trkpt>
      <trkpt lat="42.7910923306" lon="-0.4787588026">
        <ele>1634.86</ele>
        <time>2022-07-15T07:49:57Z</time>
      </trkpt>
      <trkpt lat="42.7910557017" lon="-0.4787905701">
        <ele>1634.38</ele>
        <time>2022-07-15T07:50:01Z</time>
      </trkpt>
      <trkpt lat="42.7910286281" lon="-0.4788107704">
        <ele>1632.94</ele>
        <time>2022-07-15T07:50:04Z</time>
      </trkpt>
      <trkpt lat="42.7909470722" lon="-0.4789214116">
        <ele>1631.49</ele>
        <time>2022-07-15T07:50:16Z</time>
      </trkpt>
      <trkpt lat="42.7909245249" lon="-0.4789658356">
        <ele>1630.53</ele>
        <time>2022-07-15T07:50:19Z</time>
      </trkpt>
      <trkpt lat="42.7908711322" lon="-0.4790159594">
        <ele>1630.05</ele>
        <time>2022-07-15T07:50:23Z</time>
      </trkpt>
      <trkpt lat="42.7908372693" lon="-0.4790753033">
        <ele>1629.09</ele>
        <time>2022-07-15T07:50:27Z</time>
      </trkpt>
      <trkpt lat="42.7907447331" lon="-0.4791006166">
        <ele>1627.17</ele>
        <time>2022-07-15T07:50:36Z</time>
      </trkpt>
      <trkpt lat="42.7906495146" lon="-0.4792510718">
        <ele>1624.77</ele>
        <time>2022-07-15T07:50:50Z</time>
      </trkpt>
      <trkpt lat="42.7906228602" lon="-0.4793634731">
        <ele>1622.84</ele>
        <time>2022-07-15T07:50:58Z</time>
      </trkpt>
      <trkpt lat="42.7906458266" lon="-0.4795340449">
        <ele>1622.84</ele>
        <time>2022-07-15T07:51:07Z</time>
      </trkpt>
      <trkpt lat="42.7906361874" lon="-0.4795947298">
        <ele>1622.84</ele>
        <time>2022-07-15T07:51:11Z</time>
      </trkpt>
      <trkpt lat="42.7906657755" lon="-0.4797213804">
        <ele>1621.88</ele>
        <time>2022-07-15T07:51:19Z</time>
      </trkpt>
      <trkpt lat="42.7906618360" lon="-0.4797520582">
        <ele>1621.88</ele>
        <time>2022-07-15T07:51:21Z</time>
      </trkpt>
      <trkpt lat="42.7906200103" lon="-0.4798367154">
        <ele>1620.92</ele>
        <time>2022-07-15T07:51:29Z</time>
      </trkpt>
      <trkpt lat="42.7905667014" lon="-0.4799316823">
        <ele>1619.48</ele>
        <time>2022-07-15T07:51:38Z</time>
      </trkpt>
      <trkpt lat="42.7904472593" lon="-0.4800117295">
        <ele>1615.63</ele>
        <time>2022-07-15T07:51:51Z</time>
      </trkpt>
      <trkpt lat="42.7903703135" lon="-0.4800956324">
        <ele>1612.75</ele>
        <time>2022-07-15T07:52:04Z</time>
      </trkpt>
      <trkpt lat="42.7903021686" lon="-0.4802530445">
        <ele>1609.38</ele>
        <time>2022-07-15T07:52:18Z</time>
      </trkpt>
      <trkpt lat="42.7902981453" lon="-0.4804327525">
        <ele>1606.50</ele>
        <time>2022-07-15T07:52:30Z</time>
      </trkpt>
      <trkpt lat="42.7902933676" lon="-0.4804433137">
        <ele>1606.50</ele>
        <time>2022-07-15T07:52:31Z</time>
      </trkpt>
      <trkpt lat="42.7902272344" lon="-0.4805133864">
        <ele>1604.10</ele>
        <time>2022-07-15T07:52:43Z</time>
      </trkpt>
      <trkpt lat="42.7902017534" lon="-0.4805239476">
        <ele>1603.62</ele>
        <time>2022-07-15T07:52:46Z</time>
      </trkpt>
      <trkpt lat="42.7902517095" lon="-0.4805972893">
        <ele>1600.73</ele>
        <time>2022-07-15T07:52:58Z</time>
      </trkpt>
      <trkpt lat="42.7903493587" lon="-0.4806417134">
        <ele>1597.37</ele>
        <time>2022-07-15T07:53:12Z</time>
      </trkpt>
      <trkpt lat="42.7903847303" lon="-0.4806282185">
        <ele>1596.41</ele>
        <time>2022-07-15T07:53:17Z</time>
      </trkpt>
      <trkpt lat="42.7904094569" lon="-0.4806664400">
        <ele>1594.48</ele>
        <time>2022-07-15T07:53:24Z</time>
      </trkpt>
      <trkpt lat="42.7903963812" lon="-0.4808257800">
        <ele>1591.12</ele>
        <time>2022-07-15T07:53:39Z</time>
      </trkpt>
      <trkpt lat="42.7903267276" lon="-0.4808805976">
        <ele>1587.75</ele>
        <time>2022-07-15T07:53:52Z</time>
      </trkpt>
      <trkpt lat="42.7903087903" lon="-0.4809065815">
        <ele>1587.27</ele>
        <time>2022-07-15T07:53:56Z</time>
      </trkpt>
      <trkpt lat="42.7902579959" lon="-0.4809741396">
        <ele>1584.39</ele>
        <time>2022-07-15T07:54:10Z</time>
      </trkpt>
      <trkpt lat="42.7901559882" lon="-0.4809892271">
        <ele>1581.99</ele>
        <time>2022-07-15T07:54:23Z</time>
      </trkpt>
      <trkpt lat="42.7900670562" lon="-0.4810442962">
        <ele>1580.06</ele>
        <time>2022-07-15T07:54:39Z</time>
      </trkpt>
      <trkpt lat="42.7900024317" lon="-0.4810967669">
        <ele>1581.03</ele>
        <time>2022-07-15T07:54:51Z</time>
      </trkpt>
      <trkpt lat="42.7899751067" lon="-0.4810940847">
        <ele>1581.03</ele>
        <time>2022-07-15T07:54:56Z</time>
      </trkpt>
      <trkpt lat="42.7899603546" lon="-0.4811287019">
        <ele>1581.03</ele>
        <time>2022-07-15T07:54:59Z</time>
      </trkpt>
      <trkpt lat="42.7899310179" lon="-0.4812496528">
        <ele>1581.03</ele>
        <time>2022-07-15T07:55:07Z</time>
      </trkpt>
      <trkpt lat="42.7898819000" lon="-0.4813428596">
        <ele>1581.03</ele>
        <time>2022-07-15T07:55:13Z</time>
      </trkpt>
      <trkpt lat="42.7898757812" lon="-0.4813783988">
        <ele>1579.58</ele>
        <time>2022-07-15T07:55:15Z</time>
      </trkpt>
      <trkpt lat="42.7898153476" lon="-0.4815238249">
        <ele>1579.10</ele>
        <time>2022-07-15T07:55:26Z</time>
      </trkpt>
      <trkpt lat="42.7897953987" lon="-0.4815705121">
        <ele>1579.10</ele>
        <time>2022-07-15T07:55:31Z</time>
      </trkpt>
      <trkpt lat="42.7897930518" lon="-0.4816328734">
        <ele>1579.10</ele>
        <time>2022-07-15T07:55:36Z</time>
      </trkpt>
      <trkpt lat="42.7898067143" lon="-0.4818471149">
        <ele>1577.18</ele>
        <time>2022-07-15T07:55:51Z</time>
      </trkpt>
      <trkpt lat="42.7898132522" lon="-0.4818564188">
        <ele>1576.70</ele>
        <time>2022-07-15T07:55:52Z</time>
      </trkpt>
      <trkpt lat="42.7898140065" lon="-0.4818824865">
        <ele>1576.22</ele>
        <time>2022-07-15T07:55:54Z</time>
      </trkpt>
      <trkpt lat="42.7897877712" lon="-0.4819661379">
        <ele>1575.26</ele>
        <time>2022-07-15T07:55:59Z</time>
      </trkpt>
      <trkpt lat="42.7897262480" lon="-0.4821958859">
        <ele>1571.89</ele>
        <time>2022-07-15T07:56:14Z</time>
      </trkpt>
      <trkpt lat="42.7897283435" lon="-0.4822110571">
        <ele>1571.89</ele>
        <time>2022-07-15T07:56:15Z</time>
      </trkpt>
      <trkpt lat="42.7897617035" lon="-0.4823212791">
        <ele>1569.97</ele>
        <time>2022-07-15T07:56:22Z</time>
      </trkpt>
      <trkpt lat="42.7897363901" lon="-0.4825875722">
        <ele>1567.09</ele>
        <time>2022-07-15T07:56:36Z</time>
      </trkpt>
      <trkpt lat="42.7897490468" lon="-0.4826680385">
        <ele>1566.61</ele>
        <time>2022-07-15T07:56:40Z</time>
      </trkpt>
      <trkpt lat="42.7897907048" lon="-0.4829274584">
        <ele>1563.24</ele>
        <time>2022-07-15T07:56:55Z</time>
      </trkpt>
      <trkpt lat="42.7897902019" lon="-0.4831015505">
        <ele>1561.80</ele>
        <time>2022-07-15T07:57:05Z</time>
      </trkpt>
      <trkpt lat="42.7897770423" lon="-0.4833110981">
        <ele>1558.43</ele>
        <time>2022-07-15T07:57:18Z</time>
      </trkpt>
      <trkpt lat="42.7897801436" lon="-0.4833245929">
        <ele>1558.43</ele>
        <time>2022-07-15T07:57:19Z</time>
      </trkpt>
      <trkpt lat="42.7897871006" lon="-0.4833802488">
        <ele>1556.99</ele>
        <time>2022-07-15T07:57:23Z</time>
      </trkpt>
      <trkpt lat="42.7897853404" lon="-0.4834652413">
        <ele>1557.47</ele>
        <time>2022-07-15T07:57:38Z</time>
      </trkpt>
      <trkpt lat="42.7897640504" lon="-0.4835097492">
        <ele>1558.43</ele>
        <time>2022-07-15T07:57:49Z</time>
      </trkpt>
      <trkpt lat="42.7897434309" lon="-0.4835193884">
        <ele>1558.43</ele>
        <time>2022-07-15T07:57:51Z</time>
      </trkpt>
      <trkpt lat="42.7897377312" lon="-0.4835737869">
        <ele>1558.43</ele>
        <time>2022-07-15T07:57:55Z</time>
      </trkpt>
      <trkpt lat="42.7897251584" lon="-0.4836773034">
        <ele>1558.92</ele>
        <time>2022-07-15T07:58:03Z</time>
      </trkpt>
      <trkpt lat="42.7896898706" lon="-0.4838363919">
        <ele>1559.88</ele>
        <time>2022-07-15T07:58:15Z</time>
      </trkpt>
      <trkpt lat="42.7896412555" lon="-0.4839123320">
        <ele>1558.92</ele>
        <time>2022-07-15T07:58:21Z</time>
      </trkpt>
      <trkpt lat="42.7896033693" lon="-0.4839871824">
        <ele>1558.43</ele>
        <time>2022-07-15T07:58:28Z</time>
      </trkpt>
      <trkpt lat="42.7895887848" lon="-0.4840119928">
        <ele>1558.43</ele>
        <time>2022-07-15T07:58:30Z</time>
      </trkpt>
      <trkpt lat="42.7895607892" lon="-0.4840405751">
        <ele>1559.88</ele>
        <time>2022-07-15T07:58:33Z</time>
      </trkpt>
      <trkpt lat="42.7894570213" lon="-0.4841090553">
        <ele>1559.88</ele>
        <time>2022-07-15T07:58:42Z</time>
      </trkpt>
      <trkpt lat="42.7894276008" lon="-0.4843163397">
        <ele>1561.32</ele>
        <time>2022-07-15T07:58:57Z</time>
      </trkpt>
      <trkpt lat="42.7894337196" lon="-0.4843253922">
        <ele>1561.80</ele>
        <time>2022-07-15T07:58:59Z</time>
      </trkpt>
      <trkpt lat="42.7894266788" lon="-0.4844372068">
        <ele>1562.28</ele>
        <time>2022-07-15T07:59:07Z</time>
      </trkpt>
      <trkpt lat="42.7894126810" lon="-0.4845721554">
        <ele>1564.68</ele>
        <time>2022-07-15T07:59:22Z</time>
      </trkpt>
      <trkpt lat="42.7893965878" lon="-0.4845933616">
        <ele>1565.16</ele>
        <time>2022-07-15T07:59:25Z</time>
      </trkpt>
      <trkpt lat="42.7893508226" lon="-0.4848423041">
        <ele>1564.68</ele>
        <time>2022-07-15T07:59:41Z</time>
      </trkpt>
      <trkpt lat="42.7892514132" lon="-0.4849998839">
        <ele>1565.16</ele>
        <time>2022-07-15T07:59:54Z</time>
      </trkpt>
      <trkpt lat="42.7892514132" lon="-0.4850310646">
        <ele>1565.16</ele>
        <time>2022-07-15T07:59:56Z</time>
      </trkpt>
      <trkpt lat="42.7892618906" lon="-0.4851243552">
        <ele>1565.64</ele>
        <time>2022-07-15T08:00:02Z</time>
      </trkpt>
      <trkpt lat="42.7892835997" lon="-0.4852453899">
        <ele>1565.64</ele>
        <time>2022-07-15T08:00:10Z</time>
      </trkpt>
      <trkpt lat="42.7892924007" lon="-0.4853532650">
        <ele>1565.64</ele>
        <time>2022-07-15T08:00:16Z</time>
      </trkpt>
      <trkpt lat="42.7892845217" lon="-0.4856342264">
        <ele>1564.20</ele>
        <time>2022-07-15T08:00:34Z</time>
      </trkpt>
      <trkpt lat="42.7892765589" lon="-0.4857581947">
        <ele>1563.24</ele>
        <time>2022-07-15T08:00:41Z</time>
      </trkpt>
      <trkpt lat="42.7892295364" lon="-0.4858030379">
        <ele>1562.76</ele>
        <time>2022-07-15T08:00:47Z</time>
      </trkpt>
      <trkpt lat="42.7891199850" lon="-0.4859860986">
        <ele>1560.36</ele>
        <time>2022-07-15T08:01:02Z</time>
      </trkpt>
      <trkpt lat="42.7890738845" lon="-0.4860609490">
        <ele>1559.40</ele>
        <time>2022-07-15T08:01:08Z</time>
      </trkpt>
      <trkpt lat="42.7890613116" lon="-0.4860874359">
        <ele>1559.40</ele>
        <time>2022-07-15T08:01:10Z</time>
      </trkpt>
      <trkpt lat="42.7890111040" lon="-0.4861143418">
        <ele>1559.40</ele>
        <time>2022-07-15T08:01:15Z</time>
      </trkpt>
      <trkpt lat="42.7889944240" lon="-0.4862164333">
        <ele>1556.99</ele>
        <time>2022-07-15T08:01:22Z</time>
      </trkpt>
      <trkpt lat="42.7889331523" lon="-0.4864186887">
        <ele>1556.03</ele>
        <time>2022-07-15T08:01:34Z</time>
      </trkpt>
      <trkpt lat="42.7888769098" lon="-0.4866466764">
        <ele>1556.03</ele>
        <time>2022-07-15T08:01:48Z</time>
      </trkpt>
      <trkpt lat="42.7888802625" lon="-0.4866970517">
        <ele>1556.03</ele>
        <time>2022-07-15T08:01:52Z</time>
      </trkpt>
      <trkpt lat="42.7888409514" lon="-0.4868813697">
        <ele>1556.03</ele>
        <time>2022-07-15T08:02:03Z</time>
      </trkpt>
      <trkpt lat="42.7888415381" lon="-0.4870081879">
        <ele>1555.07</ele>
        <time>2022-07-15T08:02:10Z</time>
      </trkpt>
      <trkpt lat="42.7888215054" lon="-0.4870894924">
        <ele>1554.59</ele>
        <time>2022-07-15T08:02:15Z</time>
      </trkpt>
      <trkpt lat="42.7888520155" lon="-0.4873312265">
        <ele>1552.67</ele>
        <time>2022-07-15T08:02:31Z</time>
      </trkpt>
      <trkpt lat="42.7888512611" lon="-0.4875088390">
        <ele>1551.22</ele>
        <time>2022-07-15T08:02:43Z</time>
      </trkpt>
      <trkpt lat="42.7888595592" lon="-0.4875684343">
        <ele>1550.74</ele>
        <time>2022-07-15T08:02:49Z</time>
      </trkpt>
      <trkpt lat="42.7888775803" lon="-0.4877232481">
        <ele>1549.30</ele>
        <time>2022-07-15T08:02:57Z</time>
      </trkpt>
      <trkpt lat="42.7888650913" lon="-0.4879716039">
        <ele>1547.86</ele>
        <time>2022-07-15T08:03:12Z</time>
      </trkpt>
      <trkpt lat="42.7888806816" lon="-0.4881658964">
        <ele>1544.98</ele>
        <time>2022-07-15T08:03:26Z</time>
      </trkpt>
      <trkpt lat="42.7889031451" lon="-0.4882944748">
        <ele>1541.61</ele>
        <time>2022-07-15T08:03:38Z</time>
      </trkpt>
      <trkpt lat="42.7888864651" lon="-0.4885440040">
        <ele>1539.69</ele>
        <time>2022-07-15T08:03:52Z</time>
      </trkpt>
      <trkpt lat="42.7888837829" lon="-0.4886061978">
        <ele>1539.69</ele>
        <time>2022-07-15T08:03:56Z</time>
      </trkpt>
      <trkpt lat="42.7888381854" lon="-0.4888290726">
        <ele>1538.73</ele>
        <time>2022-07-15T08:04:10Z</time>
      </trkpt>
      <trkpt lat="42.7888200805" lon="-0.4890010692">
        <ele>1536.80</ele>
        <time>2022-07-15T08:04:23Z</time>
      </trkpt>
      <trkpt lat="42.7888140455" lon="-0.4891608283">
        <ele>1534.88</ele>
        <time>2022-07-15T08:04:36Z</time>
      </trkpt>
      <trkpt lat="42.7887931745" lon="-0.4892844614">
        <ele>1533.44</ele>
        <time>2022-07-15T08:04:47Z</time>
      </trkpt>
      <trkpt lat="42.7887960244" lon="-0.4893284664">
        <ele>1532.48</ele>
        <time>2022-07-15T08:04:51Z</time>
      </trkpt>
      <trkpt lat="42.7887425479" lon="-0.4894621577">
        <ele>1531.52</ele>
        <time>2022-07-15T08:05:05Z</time>
      </trkpt>
      <trkpt lat="42.7887199167" lon="-0.4894962721">
        <ele>1532.96</ele>
        <time>2022-07-15T08:05:09Z</time>
      </trkpt>
      <trkpt lat="42.7887017280" lon="-0.4895634111">
        <ele>1532.00</ele>
        <time>2022-07-15T08:05:14Z</time>
      </trkpt>
      <trkpt lat="42.7886988781" lon="-0.4896430392">
        <ele>1530.56</ele>
        <time>2022-07-15T08:05:22Z</time>
      </trkpt>
      <trkpt lat="42.7886512689" lon="-0.4898513295">
        <ele>1529.11</ele>
        <time>2022-07-15T08:05:34Z</time>
      </trkpt>
      <trkpt lat="42.7886962797" lon="-0.4900373239">
        <ele>1527.67</ele>
        <time>2022-07-15T08:05:47Z</time>
      </trkpt>
      <trkpt lat="42.7886832878" lon="-0.4901945684">
        <ele>1527.19</ele>
        <time>2022-07-15T08:05:59Z</time>
      </trkpt>
      <trkpt lat="42.7886756603" lon="-0.4902151879">
        <ele>1527.19</ele>
        <time>2022-07-15T08:06:01Z</time>
      </trkpt>
      <trkpt lat="42.7886382770" lon="-0.4903523996">
        <ele>1526.71</ele>
        <time>2022-07-15T08:06:13Z</time>
      </trkpt>
      <trkpt lat="42.7885260433" lon="-0.4905489553">
        <ele>1524.79</ele>
        <time>2022-07-15T08:06:28Z</time>
      </trkpt>
      <trkpt lat="42.7884347644" lon="-0.4906863347">
        <ele>1521.90</ele>
        <time>2022-07-15T08:06:41Z</time>
      </trkpt>
      <trkpt lat="42.7883081138" lon="-0.4908245523">
        <ele>1519.98</ele>
        <time>2022-07-15T08:06:55Z</time>
      </trkpt>
      <trkpt lat="42.7881950419" lon="-0.4909399711">
        <ele>1517.10</ele>
        <time>2022-07-15T08:07:09Z</time>
      </trkpt>
      <trkpt lat="42.7881555632" lon="-0.4909607582">
        <ele>1516.14</ele>
        <time>2022-07-15T08:07:13Z</time>
      </trkpt>
      <trkpt lat="42.7880084608" lon="-0.4910404701">
        <ele>1515.66</ele>
        <time>2022-07-15T08:07:27Z</time>
      </trkpt>
      <trkpt lat="42.7879164275" lon="-0.4911722336">
        <ele>1514.21</ele>
        <time>2022-07-15T08:07:40Z</time>
      </trkpt>
      <trkpt lat="42.7878521383" lon="-0.4913019016">
        <ele>1513.73</ele>
        <time>2022-07-15T08:07:53Z</time>
      </trkpt>
      <trkpt lat="42.7878058702" lon="-0.4913798533">
        <ele>1513.73</ele>
        <time>2022-07-15T08:08:01Z</time>
      </trkpt>
      <trkpt lat="42.7877057064" lon="-0.4914205056">
        <ele>1514.69</ele>
        <time>2022-07-15T08:08:15Z</time>
      </trkpt>
      <trkpt lat="42.7876032796" lon="-0.4915012233">
        <ele>1516.14</ele>
        <time>2022-07-15T08:08:30Z</time>
      </trkpt>
      <trkpt lat="42.7875399124" lon="-0.4916256946">
        <ele>1518.06</ele>
        <time>2022-07-15T08:08:44Z</time>
      </trkpt>
      <trkpt lat="42.7874909621" lon="-0.4917518422">
        <ele>1519.98</ele>
        <time>2022-07-15T08:08:59Z</time>
      </trkpt>
      <trkpt lat="42.7875223942" lon="-0.4919569474">
        <ele>1518.06</ele>
        <time>2022-07-15T08:09:14Z</time>
      </trkpt>
      <trkpt lat="42.7873963304" lon="-0.4921618849">
        <ele>1517.10</ele>
        <time>2022-07-15T08:09:29Z</time>
      </trkpt>
      <trkpt lat="42.7872970048" lon="-0.4922902118">
        <ele>1516.62</ele>
        <time>2022-07-15T08:09:42Z</time>
      </trkpt>
      <trkpt lat="42.7872373257" lon="-0.4923175368">
        <ele>1516.62</ele>
        <time>2022-07-15T08:09:49Z</time>
      </trkpt>
      <trkpt lat="42.7871963382" lon="-0.4923627153">
        <ele>1516.62</ele>
        <time>2022-07-15T08:09:54Z</time>
      </trkpt>
      <trkpt lat="42.7871557698" lon="-0.4923969135">
        <ele>1516.62</ele>
        <time>2022-07-15T08:09:58Z</time>
      </trkpt>
      <trkpt lat="42.7871249244" lon="-0.4924278427">
        <ele>1516.14</ele>
        <time>2022-07-15T08:10:02Z</time>
      </trkpt>
      <trkpt lat="42.7870633174" lon="-0.4925013520">
        <ele>1515.18</ele>
        <time>2022-07-15T08:10:14Z</time>
      </trkpt>
      <trkpt lat="42.7869986929" lon="-0.4925579298">
        <ele>1513.73</ele>
        <time>2022-07-15T08:10:21Z</time>
      </trkpt>
      <trkpt lat="42.7869066596" lon="-0.4926091433">
        <ele>1512.77</ele>
        <time>2022-07-15T08:10:34Z</time>
      </trkpt>
      <trkpt lat="42.7868844476" lon="-0.4926259071">
        <ele>1512.77</ele>
        <time>2022-07-15T08:10:36Z</time>
      </trkpt>
      <trkpt lat="42.7867612336" lon="-0.4928115662">
        <ele>1512.77</ele>
        <time>2022-07-15T08:10:51Z</time>
      </trkpt>
      <trkpt lat="42.7866995428" lon="-0.4929072037">
        <ele>1512.77</ele>
        <time>2022-07-15T08:10:59Z</time>
      </trkpt>
      <trkpt lat="42.7866520174" lon="-0.4930300824">
        <ele>1512.77</ele>
        <time>2022-07-15T08:11:07Z</time>
      </trkpt>
      <trkpt lat="42.7865638398" lon="-0.4932954535">
        <ele>1510.85</ele>
        <time>2022-07-15T08:11:25Z</time>
      </trkpt>
      <trkpt lat="42.7865489200" lon="-0.4933267180">
        <ele>1510.37</ele>
        <time>2022-07-15T08:11:27Z</time>
      </trkpt>
      <trkpt lat="42.7864965331" lon="-0.4935218487">
        <ele>1509.41</ele>
        <time>2022-07-15T08:11:41Z</time>
      </trkpt>
      <trkpt lat="42.7863552980" lon="-0.4936718009">
        <ele>1507.00</ele>
        <time>2022-07-15T08:11:58Z</time>
      </trkpt>
      <trkpt lat="42.7862149850" lon="-0.4937203322">
        <ele>1504.12</ele>
        <time>2022-07-15T08:12:13Z</time>
      </trkpt>
      <trkpt lat="42.7861208562" lon="-0.4937700368">
        <ele>1502.68</ele>
        <time>2022-07-15T08:12:28Z</time>
      </trkpt>
      <trkpt lat="42.7861337643" lon="-0.4937236011">
        <ele>1500.76</ele>
        <time>2022-07-15T08:12:35Z</time>
      </trkpt>
      <trkpt lat="42.7862007357" lon="-0.4936642572">
        <ele>1501.72</ele>
        <time>2022-07-15T08:13:05Z</time>
      </trkpt>
      <trkpt lat="42.7862040047" lon="-0.4937365092">
        <ele>1501.24</ele>
        <time>2022-07-15T08:13:36Z</time>
      </trkpt>
      <trkpt lat="42.7861769311" lon="-0.4937333241">
        <ele>1501.24</ele>
        <time>2022-07-15T08:14:08Z</time>
      </trkpt>
      <trkpt lat="42.7861410566" lon="-0.4937211704">
        <ele>1500.76</ele>
        <time>2022-07-15T08:14:43Z</time>
      </trkpt>
      <trkpt lat="42.7861740813" lon="-0.4938152153">
        <ele>1501.24</ele>
        <time>2022-07-15T08:15:03Z</time>
      </trkpt>
      <trkpt lat="42.7861221135" lon="-0.4938712064">
        <ele>1499.79</ele>
        <time>2022-07-15T08:15:21Z</time>
      </trkpt>
      <trkpt lat="42.7861178387" lon="-0.4938718770">
        <ele>1499.79</ele>
        <time>2022-07-15T08:15:22Z</time>
      </trkpt>
      <trkpt lat="42.7860221174" lon="-0.4939480685">
        <ele>1497.39</ele>
        <time>2022-07-15T08:15:35Z</time>
      </trkpt>
      <trkpt lat="42.7859462611" lon="-0.4940368328">
        <ele>1494.51</ele>
        <time>2022-07-15T08:15:48Z</time>
      </trkpt>
      <trkpt lat="42.7859264798" lon="-0.4941956699">
        <ele>1494.03</ele>
        <time>2022-07-15T08:15:58Z</time>
      </trkpt>
      <trkpt lat="42.7857506275" lon="-0.4943133518">
        <ele>1491.62</ele>
        <time>2022-07-15T08:16:16Z</time>
      </trkpt>
      <trkpt lat="42.7855495457" lon="-0.4943195544">
        <ele>1492.58</ele>
        <time>2022-07-15T08:16:32Z</time>
      </trkpt>
      <trkpt lat="42.7854946442" lon="-0.4943244159">
        <ele>1493.06</ele>
        <time>2022-07-15T08:16:37Z</time>
      </trkpt>
      <trkpt lat="42.7853304427" lon="-0.4943479691">
        <ele>1495.95</ele>
        <time>2022-07-15T08:16:52Z</time>
      </trkpt>
      <trkpt lat="42.7852648124" lon="-0.4943737853">
        <ele>1496.91</ele>
        <time>2022-07-15T08:16:58Z</time>
      </trkpt>
      <trkpt lat="42.7851270139" lon="-0.4945212230">
        <ele>1497.39</ele>
        <time>2022-07-15T08:17:14Z</time>
      </trkpt>
      <trkpt lat="42.7851043828" lon="-0.4945763759">
        <ele>1497.39</ele>
        <time>2022-07-15T08:17:18Z</time>
      </trkpt>
      <trkpt lat="42.7850543428" lon="-0.4946483765">
        <ele>1496.91</ele>
        <time>2022-07-15T08:17:24Z</time>
      </trkpt>
      <trkpt lat="42.7850395069" lon="-0.4947131686">
        <ele>1495.47</ele>
        <time>2022-07-15T08:17:28Z</time>
      </trkpt>
      <trkpt lat="42.7849940769" lon="-0.4948100634">
        <ele>1495.47</ele>
        <time>2022-07-15T08:17:35Z</time>
      </trkpt>
      <trkpt lat="42.7849084139" lon="-0.4948264919">
        <ele>1496.91</ele>
        <time>2022-07-15T08:17:44Z</time>
      </trkpt>
      <trkpt lat="42.7848999482" lon="-0.4948886856">
        <ele>1496.91</ele>
        <time>2022-07-15T08:17:49Z</time>
      </trkpt>
      <trkpt lat="42.7848335635" lon="-0.4950369615">
        <ele>1495.47</ele>
        <time>2022-07-15T08:18:02Z</time>
      </trkpt>
      <trkpt lat="42.7847594675" lon="-0.4951005802">
        <ele>1494.03</ele>
        <time>2022-07-15T08:18:10Z</time>
      </trkpt>
      <trkpt lat="42.7846132033" lon="-0.4952755943">
        <ele>1493.55</ele>
        <time>2022-07-15T08:18:25Z</time>
      </trkpt>
      <trkpt lat="42.7844673581" lon="-0.4954787716">
        <ele>1493.55</ele>
        <time>2022-07-15T08:18:41Z</time>
      </trkpt>
      <trkpt lat="42.7844567969" lon="-0.4956103675">
        <ele>1492.10</ele>
        <time>2022-07-15T08:18:47Z</time>
      </trkpt>
      <trkpt lat="42.7844080143" lon="-0.4957018141">
        <ele>1492.10</ele>
        <time>2022-07-15T08:18:52Z</time>
      </trkpt>
      <trkpt lat="42.7843630034" lon="-0.4959015548">
        <ele>1489.70</ele>
        <time>2022-07-15T08:19:08Z</time>
      </trkpt>
      <trkpt lat="42.7842814475" lon="-0.4961515032">
        <ele>1486.82</ele>
        <time>2022-07-15T08:19:24Z</time>
      </trkpt>
      <trkpt lat="42.7842376940" lon="-0.4963426944">
        <ele>1483.93</ele>
        <time>2022-07-15T08:19:39Z</time>
      </trkpt>
      <trkpt lat="42.7842690423" lon="-0.4963265173">
        <ele>1482.97</ele>
        <time>2022-07-15T08:19:44Z</time>
      </trkpt>
      <trkpt lat="42.7844190784" lon="-0.4961292911">
        <ele>1479.61</ele>
        <time>2022-07-15T08:20:01Z</time>
      </trkpt>
      <trkpt lat="42.7845369279" lon="-0.4960935004">
        <ele>1476.72</ele>
        <time>2022-07-15T08:20:18Z</time>
      </trkpt>
      <trkpt lat="42.7844803501" lon="-0.4963022098">
        <ele>1475.28</ele>
        <time>2022-07-15T08:20:34Z</time>
      </trkpt>
      <trkpt lat="42.7844684478" lon="-0.4963304568">
        <ele>1474.80</ele>
        <time>2022-07-15T08:20:36Z</time>
      </trkpt>
      <trkpt lat="42.7844789252" lon="-0.4964033794">
        <ele>1474.80</ele>
        <time>2022-07-15T08:20:42Z</time>
      </trkpt>
      <trkpt lat="42.7844827808" lon="-0.4965316225">
        <ele>1476.24</ele>
        <time>2022-07-15T08:20:52Z</time>
      </trkpt>
      <trkpt lat="42.7844706271" lon="-0.4966200516">
        <ele>1478.16</ele>
        <time>2022-07-15T08:21:05Z</time>
      </trkpt>
      <trkpt lat="42.7845153864" lon="-0.4966159444">
        <ele>1480.09</ele>
        <time>2022-07-15T08:21:19Z</time>
      </trkpt>
      <trkpt lat="42.7845314797" lon="-0.4966988415">
        <ele>1480.57</ele>
        <time>2022-07-15T08:21:24Z</time>
      </trkpt>
      <trkpt lat="42.7845556196" lon="-0.4967596103">
        <ele>1480.57</ele>
        <time>2022-07-15T08:21:28Z</time>
      </trkpt>
      <trkpt lat="42.7845880575" lon="-0.4969617818">
        <ele>1481.05</ele>
        <time>2022-07-15T08:21:45Z</time>
      </trkpt>
      <trkpt lat="42.7845605649" lon="-0.4969560821">
        <ele>1479.61</ele>
        <time>2022-07-15T08:21:58Z</time>
      </trkpt>
      <trkpt lat="42.7845704556" lon="-0.4969098978">
        <ele>1479.61</ele>
        <time>2022-07-15T08:22:25Z</time>
      </trkpt>
      <trkpt lat="42.7845628280" lon="-0.4968870990">
        <ele>1479.13</ele>
        <time>2022-07-15T08:22:56Z</time>
      </trkpt>
      <trkpt lat="42.7845733054" lon="-0.4968707543">
        <ele>1479.13</ele>
        <time>2022-07-15T08:23:38Z</time>
      </trkpt>
      <trkpt lat="42.7845538594" lon="-0.4968218878">
        <ele>1480.09</ele>
        <time>2022-07-15T08:24:17Z</time>
      </trkpt>
      <trkpt lat="42.7845683601" lon="-0.4968475364">
        <ele>1480.09</ele>
        <time>2022-07-15T08:24:55Z</time>
      </trkpt>
      <trkpt lat="42.7845520154" lon="-0.4969075508">
        <ele>1480.09</ele>
        <time>2022-07-15T08:25:28Z</time>
      </trkpt>
      <trkpt lat="42.7845798433" lon="-0.4968440160">
        <ele>1480.09</ele>
        <time>2022-07-15T08:25:57Z</time>
      </trkpt>
      <trkpt lat="42.7845816873" lon="-0.4968902003">
        <ele>1479.61</ele>
        <time>2022-07-15T08:26:33Z</time>
      </trkpt>
      <trkpt lat="42.7845193259" lon="-0.4969031923">
        <ele>1479.61</ele>
        <time>2022-07-15T08:27:07Z</time>
      </trkpt>
      <trkpt lat="42.7844936773" lon="-0.4969791323">
        <ele>1479.61</ele>
        <time>2022-07-15T08:27:38Z</time>
      </trkpt>
      <trkpt lat="42.7845490817" lon="-0.4969381448">
        <ele>1479.61</ele>
        <time>2022-07-15T08:28:19Z</time>
      </trkpt>
      <trkpt lat="42.7845356707" lon="-0.4969867598">
        <ele>1479.61</ele>
        <time>2022-07-15T08:28:49Z</time>
      </trkpt>
      <trkpt lat="42.7844974492" lon="-0.4970145039">
        <ele>1479.61</ele>
        <time>2022-07-15T08:29:21Z</time>
      </trkpt>
      <trkpt lat="42.7845120337" lon="-0.4969756119">
        <ele>1479.61</ele>
        <time>2022-07-15T08:29:51Z</time>
      </trkpt>
      <trkpt lat="42.7845186554" lon="-0.4969809763">
        <ele>1480.09</ele>
        <time>2022-07-15T08:30:10Z</time>
      </trkpt>
      <trkpt lat="42.7845262829" lon="-0.4969716724">
        <ele>1483.45</ele>
        <time>2022-07-15T08:30:16Z</time>
      </trkpt>
      <trkpt lat="42.7844837029" lon="-0.4969874304">
        <ele>1480.09</ele>
        <time>2022-07-15T08:30:28Z</time>
      </trkpt>
      <trkpt lat="42.7844926715" lon="-0.4970383085">
        <ele>1480.09</ele>
        <time>2022-07-15T08:30:42Z</time>
      </trkpt>
      <trkpt lat="42.7844960243" lon="-0.4970530607">
        <ele>1480.09</ele>
        <time>2022-07-15T08:30:43Z</time>
      </trkpt>
      <trkpt lat="42.7844875585" lon="-0.4971809685">
        <ele>1480.09</ele>
        <time>2022-07-15T08:30:51Z</time>
      </trkpt>
      <trkpt lat="42.7845087647" lon="-0.4973107204">
        <ele>1481.53</ele>
        <time>2022-07-15T08:30:58Z</time>
      </trkpt>
      <trkpt lat="42.7844337467" lon="-0.4975611717">
        <ele>1481.53</ele>
        <time>2022-07-15T08:31:14Z</time>
      </trkpt>
      <trkpt lat="42.7843457367" lon="-0.4977842979">
        <ele>1481.53</ele>
        <time>2022-07-15T08:31:28Z</time>
      </trkpt>
      <trkpt lat="42.7842934337" lon="-0.4978855513">
        <ele>1481.53</ele>
        <time>2022-07-15T08:31:36Z</time>
      </trkpt>
      <trkpt lat="42.7842497639" lon="-0.4979554564">
        <ele>1481.53</ele>
        <time>2022-07-15T08:31:41Z</time>
      </trkpt>
      <trkpt lat="42.7841614187" lon="-0.4980679415">
        <ele>1481.05</ele>
        <time>2022-07-15T08:31:51Z</time>
      </trkpt>
      <trkpt lat="42.7841058467" lon="-0.4982091766">
        <ele>1480.09</ele>
        <time>2022-07-15T08:32:00Z</time>
      </trkpt>
      <trkpt lat="42.7841022424" lon="-0.4982479010">
        <ele>1479.61</ele>
        <time>2022-07-15T08:32:02Z</time>
      </trkpt>
      <trkpt lat="42.7839657012" lon="-0.4984651599">
        <ele>1479.61</ele>
        <time>2022-07-15T08:32:17Z</time>
      </trkpt>
      <trkpt lat="42.7839381248" lon="-0.4985177983">
        <ele>1479.61</ele>
        <time>2022-07-15T08:32:21Z</time>
      </trkpt>
      <trkpt lat="42.7839179244" lon="-0.4985451233">
        <ele>1479.61</ele>
        <time>2022-07-15T08:32:26Z</time>
      </trkpt>
      <trkpt lat="42.7837017551" lon="-0.4985779803">
        <ele>1479.13</ele>
        <time>2022-07-15T08:32:44Z</time>
      </trkpt>
      <trkpt lat="42.7836913615" lon="-0.4986022878">
        <ele>1479.13</ele>
        <time>2022-07-15T08:32:50Z</time>
      </trkpt>
      <trkpt lat="42.7835275792" lon="-0.4988089018">
        <ele>1476.72</ele>
        <time>2022-07-15T08:33:06Z</time>
      </trkpt>
      <trkpt lat="42.7833715081" lon="-0.4989999253">
        <ele>1474.80</ele>
        <time>2022-07-15T08:33:21Z</time>
      </trkpt>
      <trkpt lat="42.7832569275" lon="-0.4991403222">
        <ele>1473.36</ele>
        <time>2022-07-15T08:33:33Z</time>
      </trkpt>
      <trkpt lat="42.7832152694" lon="-0.4991787113">
        <ele>1471.92</ele>
        <time>2022-07-15T08:33:37Z</time>
      </trkpt>
      <trkpt lat="42.7831091546" lon="-0.4992396478">
        <ele>1471.44</ele>
        <time>2022-07-15T08:33:46Z</time>
      </trkpt>
      <trkpt lat="42.7829872817" lon="-0.4994899314">
        <ele>1467.59</ele>
        <time>2022-07-15T08:34:03Z</time>
      </trkpt>
      <trkpt lat="42.7829281054" lon="-0.4995916039">
        <ele>1466.15</ele>
        <time>2022-07-15T08:34:10Z</time>
      </trkpt>
      <trkpt lat="42.7828238346" lon="-0.4997320846">
        <ele>1465.19</ele>
        <time>2022-07-15T08:34:21Z</time>
      </trkpt>
      <trkpt lat="42.7827908937" lon="-0.4997593258">
        <ele>1464.71</ele>
        <time>2022-07-15T08:34:24Z</time>
      </trkpt>
      <trkpt lat="42.7826129459" lon="-0.4998567235">
        <ele>1461.34</ele>
        <time>2022-07-15T08:34:39Z</time>
      </trkpt>
      <trkpt lat="42.7825701982" lon="-0.4998751637">
        <ele>1460.86</ele>
        <time>2022-07-15T08:34:43Z</time>
      </trkpt>
      <trkpt lat="42.7824433800" lon="-0.5000226852">
        <ele>1458.46</ele>
        <time>2022-07-15T08:34:57Z</time>
      </trkpt>
      <trkpt lat="42.7824208327" lon="-0.5000352580">
        <ele>1458.46</ele>
        <time>2022-07-15T08:34:59Z</time>
      </trkpt>
      <trkpt lat="42.7823806833" lon="-0.5000778381">
        <ele>1457.98</ele>
        <time>2022-07-15T08:35:03Z</time>
      </trkpt>
      <trkpt lat="42.7821870614" lon="-0.5002352502">
        <ele>1455.57</ele>
        <time>2022-07-15T08:35:19Z</time>
      </trkpt>
      <trkpt lat="42.7821463253" lon="-0.5003510881">
        <ele>1454.13</ele>
        <time>2022-07-15T08:35:27Z</time>
      </trkpt>
      <trkpt lat="42.7821506839" lon="-0.5005494040">
        <ele>1452.21</ele>
        <time>2022-07-15T08:35:39Z</time>
      </trkpt>
      <trkpt lat="42.7821376920" lon="-0.5005763099">
        <ele>1451.73</ele>
        <time>2022-07-15T08:35:41Z</time>
      </trkpt>
      <trkpt lat="42.7820654400" lon="-0.5007254239">
        <ele>1448.36</ele>
        <time>2022-07-15T08:35:53Z</time>
      </trkpt>
      <trkpt lat="42.7820454910" lon="-0.5007968377">
        <ele>1449.32</ele>
        <time>2022-07-15T08:35:58Z</time>
      </trkpt>
      <trkpt lat="42.7819694672" lon="-0.5009632185">
        <ele>1446.92</ele>
        <time>2022-07-15T08:36:14Z</time>
      </trkpt>
      <trkpt lat="42.7819032501" lon="-0.5011236481">
        <ele>1444.52</ele>
        <time>2022-07-15T08:36:29Z</time>
      </trkpt>
      <trkpt lat="42.7819002327" lon="-0.5011270847">
        <ele>1444.52</ele>
        <time>2022-07-15T08:36:30Z</time>
      </trkpt>
      <trkpt lat="42.7818982210" lon="-0.5011332873">
        <ele>1445.96</ele>
        <time>2022-07-15T08:36:33Z</time>
      </trkpt>
      <trkpt lat="42.7818434872" lon="-0.5011627078">
        <ele>1445.96</ele>
        <time>2022-07-15T08:36:57Z</time>
      </trkpt>
      <trkpt lat="42.7818652801" lon="-0.5011428427">
        <ele>1445.96</ele>
        <time>2022-07-15T08:37:15Z</time>
      </trkpt>
      <trkpt lat="42.7818724047" lon="-0.5011290126">
        <ele>1446.44</ele>
        <time>2022-07-15T08:37:30Z</time>
      </trkpt>
      <trkpt lat="42.7818860672" lon="-0.5011672340">
        <ele>1446.44</ele>
        <time>2022-07-15T08:37:48Z</time>
      </trkpt>
      <trkpt lat="42.7818309143" lon="-0.5012123287">
        <ele>1446.44</ele>
        <time>2022-07-15T08:37:55Z</time>
      </trkpt>
      <trkpt lat="42.7816678863" lon="-0.5014066212">
        <ele>1446.44</ele>
        <time>2022-07-15T08:38:12Z</time>
      </trkpt>
      <trkpt lat="42.7815146651" lon="-0.5015035160">
        <ele>1446.44</ele>
        <time>2022-07-15T08:38:24Z</time>
      </trkpt>
      <trkpt lat="42.7813580912" lon="-0.5015835632">
        <ele>1445.96</ele>
        <time>2022-07-15T08:38:36Z</time>
      </trkpt>
      <trkpt lat="42.7811786346" lon="-0.5016936176">
        <ele>1445.00</ele>
        <time>2022-07-15T08:38:48Z</time>
      </trkpt>
      <trkpt lat="42.7809817437" lon="-0.5017458368">
        <ele>1442.60</ele>
        <time>2022-07-15T08:39:03Z</time>
      </trkpt>
      <trkpt lat="42.7807765547" lon="-0.5017622653">
        <ele>1440.19</ele>
        <time>2022-07-15T08:39:17Z</time>
      </trkpt>
      <trkpt lat="42.7807067335" lon="-0.5017744191">
        <ele>1439.23</ele>
        <time>2022-07-15T08:39:22Z</time>
      </trkpt>
      <trkpt lat="42.7806481440" lon="-0.5017802026">
        <ele>1438.27</ele>
        <time>2022-07-15T08:39:27Z</time>
      </trkpt>
      <trkpt lat="42.7804545220" lon="-0.5018248782">
        <ele>1435.87</ele>
        <time>2022-07-15T08:39:43Z</time>
      </trkpt>
      <trkpt lat="42.7803349961" lon="-0.5018705595">
        <ele>1433.46</ele>
        <time>2022-07-15T08:39:56Z</time>
      </trkpt>
      <trkpt lat="42.7801617421" lon="-0.5019667838">
        <ele>1430.58</ele>
        <time>2022-07-15T08:40:10Z</time>
      </trkpt>
      <trkpt lat="42.7801215928" lon="-0.5020195059">
        <ele>1430.10</ele>
        <time>2022-07-15T08:40:15Z</time>
      </trkpt>
      <trkpt lat="42.7800086886" lon="-0.5022382736">
        <ele>1427.70</ele>
        <time>2022-07-15T08:40:31Z</time>
      </trkpt>
      <trkpt lat="42.7798270527" lon="-0.5023869686">
        <ele>1425.77</ele>
        <time>2022-07-15T08:40:47Z</time>
      </trkpt>
      <trkpt lat="42.7797696367" lon="-0.5024261959">
        <ele>1425.29</ele>
        <time>2022-07-15T08:40:53Z</time>
      </trkpt>
      <trkpt lat="42.7796565648" lon="-0.5025297124">
        <ele>1424.33</ele>
        <time>2022-07-15T08:41:02Z</time>
      </trkpt>
      <trkpt lat="42.7795113903" lon="-0.5027311295">
        <ele>1422.89</ele>
        <time>2022-07-15T08:41:18Z</time>
      </trkpt>
      <trkpt lat="42.7793424949" lon="-0.5028861109">
        <ele>1420.49</ele>
        <time>2022-07-15T08:41:35Z</time>
      </trkpt>
      <trkpt lat="42.7791943029" lon="-0.5030650645">
        <ele>1418.08</ele>
        <time>2022-07-15T08:41:46Z</time>
      </trkpt>
      <trkpt lat="42.7791528963" lon="-0.5031098239">
        <ele>1417.60</ele>
        <time>2022-07-15T08:41:50Z</time>
      </trkpt>
      <trkpt lat="42.7791104000" lon="-0.5031699222">
        <ele>1416.64</ele>
        <time>2022-07-15T08:41:55Z</time>
      </trkpt>
      <trkpt lat="42.7790151816" lon="-0.5035045277">
        <ele>1413.28</ele>
        <time>2022-07-15T08:42:12Z</time>
      </trkpt>
      <trkpt lat="42.7789874375" lon="-0.5035497062">
        <ele>1411.83</ele>
        <time>2022-07-15T08:42:16Z</time>
      </trkpt>
      <trkpt lat="42.7789197117" lon="-0.5036911089">
        <ele>1408.95</ele>
        <time>2022-07-15T08:42:27Z</time>
      </trkpt>
      <trkpt lat="42.7787662391" lon="-0.5038198549">
        <ele>1407.51</ele>
        <time>2022-07-15T08:42:36Z</time>
      </trkpt>
      <trkpt lat="42.7785452921" lon="-0.5038196035">
        <ele>1406.55</ele>
        <time>2022-07-15T08:42:52Z</time>
      </trkpt>
      <trkpt lat="42.7783290390" lon="-0.5037574098">
        <ele>1405.10</ele>
        <time>2022-07-15T08:43:09Z</time>
      </trkpt>
      <trkpt lat="42.7781733032" lon="-0.5037279055">
        <ele>1402.22</ele>
        <time>2022-07-15T08:43:19Z</time>
      </trkpt>
      <trkpt lat="42.7781412005" lon="-0.5037376285">
        <ele>1400.78</ele>
        <time>2022-07-15T08:43:22Z</time>
      </trkpt>
      <trkpt lat="42.7781287953" lon="-0.5037443340">
        <ele>1403.66</ele>
        <time>2022-07-15T08:43:23Z</time>
      </trkpt>
      <trkpt lat="42.7780854609" lon="-0.5037711561">
        <ele>1400.78</ele>
        <time>2022-07-15T08:43:27Z</time>
      </trkpt>
      <trkpt lat="42.7778885700" lon="-0.5039366148">
        <ele>1400.30</ele>
        <time>2022-07-15T08:43:42Z</time>
      </trkpt>
      <trkpt lat="42.7778792661" lon="-0.5039420631">
        <ele>1400.30</ele>
        <time>2022-07-15T08:43:43Z</time>
      </trkpt>
      <trkpt lat="42.7778535336" lon="-0.5039537139">
        <ele>1399.82</ele>
        <time>2022-07-15T08:43:45Z</time>
      </trkpt>
      <trkpt lat="42.7776614204" lon="-0.5041498505">
        <ele>1398.86</ele>
        <time>2022-07-15T08:44:02Z</time>
      </trkpt>
      <trkpt lat="42.7775003202" lon="-0.5043419637">
        <ele>1398.86</ele>
        <time>2022-07-15T08:44:18Z</time>
      </trkpt>
      <trkpt lat="42.7774010785" lon="-0.5045296345">
        <ele>1397.89</ele>
        <time>2022-07-15T08:44:31Z</time>
      </trkpt>
      <trkpt lat="42.7774061915" lon="-0.5046031438">
        <ele>1396.45</ele>
        <time>2022-07-15T08:44:36Z</time>
      </trkpt>
      <trkpt lat="42.7774817124" lon="-0.5049070716">
        <ele>1395.01</ele>
        <time>2022-07-15T08:44:51Z</time>
      </trkpt>
      <trkpt lat="42.7774526272" lon="-0.5051472131">
        <ele>1394.53</ele>
        <time>2022-07-15T08:45:04Z</time>
      </trkpt>
      <trkpt lat="42.7774088737" lon="-0.5053685792">
        <ele>1394.05</ele>
        <time>2022-07-15T08:45:16Z</time>
      </trkpt>
      <trkpt lat="42.7773065306" lon="-0.5055031087">
        <ele>1393.09</ele>
        <time>2022-07-15T08:45:29Z</time>
      </trkpt>
      <trkpt lat="42.7772885095" lon="-0.5054862611">
        <ele>1394.53</ele>
        <time>2022-07-15T08:45:52Z</time>
      </trkpt>
      <trkpt lat="42.7772802114" lon="-0.5055067129">
        <ele>1391.65</ele>
        <time>2022-07-15T08:46:06Z</time>
      </trkpt>
      <trkpt lat="42.7772719972" lon="-0.5055787973">
        <ele>1393.09</ele>
        <time>2022-07-15T08:46:23Z</time>
      </trkpt>
      <trkpt lat="42.7771961410" lon="-0.5055784620">
        <ele>1392.61</ele>
        <time>2022-07-15T08:46:53Z</time>
      </trkpt>
      <trkpt lat="42.7772173472" lon="-0.5055824853">
        <ele>1392.13</ele>
        <time>2022-07-15T08:47:16Z</time>
      </trkpt>
      <trkpt lat="42.7772017568" lon="-0.5054863449">
        <ele>1392.13</ele>
        <time>2022-07-15T08:47:38Z</time>
      </trkpt>
      <trkpt lat="42.7771890163" lon="-0.5054870993">
        <ele>1390.20</ele>
        <time>2022-07-15T08:47:41Z</time>
      </trkpt>
      <trkpt lat="42.7770291734" lon="-0.5055658054">
        <ele>1386.84</ele>
        <time>2022-07-15T08:47:55Z</time>
      </trkpt>
      <trkpt lat="42.7769995853" lon="-0.5055914540">
        <ele>1386.36</ele>
        <time>2022-07-15T08:47:58Z</time>
      </trkpt>
      <trkpt lat="42.7769053727" lon="-0.5056645442">
        <ele>1384.92</ele>
        <time>2022-07-15T08:48:11Z</time>
      </trkpt>
      <trkpt lat="42.7768757846" lon="-0.5056782067">
        <ele>1383.96</ele>
        <time>2022-07-15T08:48:14Z</time>
      </trkpt>
      <trkpt lat="42.7768387366" lon="-0.5057461001">
        <ele>1382.99</ele>
        <time>2022-07-15T08:48:19Z</time>
      </trkpt>
      <trkpt lat="42.7766725235" lon="-0.5059960485">
        <ele>1381.07</ele>
        <time>2022-07-15T08:48:36Z</time>
      </trkpt>
      <trkpt lat="42.7765220683" lon="-0.5061559752">
        <ele>1379.63</ele>
        <time>2022-07-15T08:48:51Z</time>
      </trkpt>
      <trkpt lat="42.7764542587" lon="-0.5062014889">
        <ele>1378.67</ele>
        <time>2022-07-15T08:48:56Z</time>
      </trkpt>
      <trkpt lat="42.7764258441" lon="-0.5062156543">
        <ele>1378.67</ele>
        <time>2022-07-15T08:48:58Z</time>
      </trkpt>
      <trkpt lat="42.7763534244" lon="-0.5062357709">
        <ele>1377.71</ele>
        <time>2022-07-15T08:49:04Z</time>
      </trkpt>
      <trkpt lat="42.7762913145" lon="-0.5062527023">
        <ele>1376.26</ele>
        <time>2022-07-15T08:49:09Z</time>
      </trkpt>
      <trkpt lat="42.7762150392" lon="-0.5063423049">
        <ele>1375.78</ele>
        <time>2022-07-15T08:49:23Z</time>
      </trkpt>
      <trkpt lat="42.7761097625" lon="-0.5064428039">
        <ele>1373.38</ele>
        <time>2022-07-15T08:49:37Z</time>
      </trkpt>
      <trkpt lat="42.7760419529" lon="-0.5064761639">
        <ele>1370.02</ele>
        <time>2022-07-15T08:49:48Z</time>
      </trkpt>
      <trkpt lat="42.7759768255" lon="-0.5065222643">
        <ele>1368.09</ele>
        <time>2022-07-15T08:49:56Z</time>
      </trkpt>
      <trkpt lat="42.7759583853" lon="-0.5065533612">
        <ele>1370.02</ele>
        <time>2022-07-15T08:50:02Z</time>
      </trkpt>
      <trkpt lat="42.7758842055" lon="-0.5067185685">
        <ele>1368.57</ele>
        <time>2022-07-15T08:50:23Z</time>
      </trkpt>
      <trkpt lat="42.7758884802" lon="-0.5067009665">
        <ele>1368.57</ele>
        <time>2022-07-15T08:50:24Z</time>
      </trkpt>
      <trkpt lat="42.7757477481" lon="-0.5067767389">
        <ele>1366.65</ele>
        <time>2022-07-15T08:50:39Z</time>
      </trkpt>
      <trkpt lat="42.7756665275" lon="-0.5068585463">
        <ele>1364.73</ele>
        <time>2022-07-15T08:50:53Z</time>
      </trkpt>
      <trkpt lat="42.7755599096" lon="-0.5069352407">
        <ele>1362.33</ele>
        <time>2022-07-15T08:51:07Z</time>
      </trkpt>
      <trkpt lat="42.7755005658" lon="-0.5069834366">
        <ele>1359.92</ele>
        <time>2022-07-15T08:51:20Z</time>
      </trkpt>
      <trkpt lat="42.7754563093" lon="-0.5070452113">
        <ele>1358.96</ele>
        <time>2022-07-15T08:51:24Z</time>
      </trkpt>
      <trkpt lat="42.7753466740" lon="-0.5072051380">
        <ele>1357.52</ele>
        <time>2022-07-15T08:51:33Z</time>
      </trkpt>
      <trkpt lat="42.7753427345" lon="-0.5072312895">
        <ele>1357.52</ele>
        <time>2022-07-15T08:51:35Z</time>
      </trkpt>
      <trkpt lat="42.7752646152" lon="-0.5072974227">
        <ele>1354.15</ele>
        <time>2022-07-15T08:51:47Z</time>
      </trkpt>
      <trkpt lat="42.7751558181" lon="-0.5073031224">
        <ele>1352.71</ele>
        <time>2022-07-15T08:51:57Z</time>
      </trkpt>
      <trkpt lat="42.7750097215" lon="-0.5073009431">
        <ele>1349.35</ele>
        <time>2022-07-15T08:52:11Z</time>
      </trkpt>
      <trkpt lat="42.7749098092" lon="-0.5073326267">
        <ele>1345.98</ele>
        <time>2022-07-15T08:52:27Z</time>
      </trkpt>
      <trkpt lat="42.7748735156" lon="-0.5074115843">
        <ele>1342.62</ele>
        <time>2022-07-15T08:52:40Z</time>
      </trkpt>
      <trkpt lat="42.7747762855" lon="-0.5073665734">
        <ele>1340.22</ele>
        <time>2022-07-15T08:52:52Z</time>
      </trkpt>
      <trkpt lat="42.7747505531" lon="-0.5073467921">
        <ele>1339.73</ele>
        <time>2022-07-15T08:52:55Z</time>
      </trkpt>
      <trkpt lat="42.7746444382" lon="-0.5073254183">
        <ele>1336.85</ele>
        <time>2022-07-15T08:53:06Z</time>
      </trkpt>
      <trkpt lat="42.7745672408" lon="-0.5072451197">
        <ele>1335.89</ele>
        <time>2022-07-15T08:53:18Z</time>
      </trkpt>
      <trkpt lat="42.7745518181" lon="-0.5071747955">
        <ele>1333.01</ele>
        <time>2022-07-15T08:53:32Z</time>
      </trkpt>
      <trkpt lat="42.7745528240" lon="-0.5071648210">
        <ele>1332.52</ele>
        <time>2022-07-15T08:53:34Z</time>
      </trkpt>
      <trkpt lat="42.7745612059" lon="-0.5071004480">
        <ele>1330.60</ele>
        <time>2022-07-15T08:53:50Z</time>
      </trkpt>
      <trkpt lat="42.7745819092" lon="-0.5070910603">
        <ele>1330.12</ele>
        <time>2022-07-15T08:53:52Z</time>
      </trkpt>
      <trkpt lat="42.7747635450" lon="-0.5070068222">
        <ele>1330.12</ele>
        <time>2022-07-15T08:54:05Z</time>
      </trkpt>
      <trkpt lat="42.7748451009" lon="-0.5069541838">
        <ele>1330.12</ele>
        <time>2022-07-15T08:54:11Z</time>
      </trkpt>
      <trkpt lat="42.7749653812" lon="-0.5067159701">
        <ele>1330.12</ele>
        <time>2022-07-15T08:54:26Z</time>
      </trkpt>
      <trkpt lat="42.7750177681" lon="-0.5065112840">
        <ele>1330.12</ele>
        <time>2022-07-15T08:54:38Z</time>
      </trkpt>
      <trkpt lat="42.7750127390" lon="-0.5064726435">
        <ele>1330.12</ele>
        <time>2022-07-15T08:54:40Z</time>
      </trkpt>
      <trkpt lat="42.7748860046" lon="-0.5063052569">
        <ele>1329.16</ele>
        <time>2022-07-15T08:54:56Z</time>
      </trkpt>
      <trkpt lat="42.7748741861" lon="-0.5062992219">
        <ele>1329.16</ele>
        <time>2022-07-15T08:54:58Z</time>
      </trkpt>
      <trkpt lat="42.7748459391" lon="-0.5063024070">
        <ele>1330.60</ele>
        <time>2022-07-15T08:55:01Z</time>
      </trkpt>
      <trkpt lat="42.7747944742" lon="-0.5063164048">
        <ele>1330.60</ele>
        <time>2022-07-15T08:55:06Z</time>
      </trkpt>
      <trkpt lat="42.7747318614" lon="-0.5063381977">
        <ele>1332.04</ele>
        <time>2022-07-15T08:55:12Z</time>
      </trkpt>
      <trkpt lat="42.7745277621" lon="-0.5063948594">
        <ele>1333.49</ele>
        <time>2022-07-15T08:55:28Z</time>
      </trkpt>
      <trkpt lat="42.7743449528" lon="-0.5064298958">
        <ele>1331.56</ele>
        <time>2022-07-15T08:55:42Z</time>
      </trkpt>
      <trkpt lat="42.7741858643" lon="-0.5063840467">
        <ele>1332.52</ele>
        <time>2022-07-15T08:55:56Z</time>
      </trkpt>
      <trkpt lat="42.7741734590" lon="-0.5064124614">
        <ele>1332.52</ele>
        <time>2022-07-15T08:56:08Z</time>
      </trkpt>
      <trkpt lat="42.7741269395" lon="-0.5063586496">
        <ele>1332.52</ele>
        <time>2022-07-15T08:56:14Z</time>
      </trkpt>
      <trkpt lat="42.7741031349" lon="-0.5063486751">
        <ele>1331.08</ele>
        <time>2022-07-15T08:56:16Z</time>
      </trkpt>
      <trkpt lat="42.7739269473" lon="-0.5063541234">
        <ele>1331.08</ele>
        <time>2022-07-15T08:56:31Z</time>
      </trkpt>
      <trkpt lat="42.7737601474" lon="-0.5064575560">
        <ele>1329.64</ele>
        <time>2022-07-15T08:56:44Z</time>
      </trkpt>
      <trkpt lat="42.7737356722" lon="-0.5064637586">
        <ele>1329.16</ele>
        <time>2022-07-15T08:56:46Z</time>
      </trkpt>
      <trkpt lat="42.7735162340" lon="-0.5064443965">
        <ele>1327.72</ele>
        <time>2022-07-15T08:57:03Z</time>
      </trkpt>
      <trkpt lat="42.7733159903" lon="-0.5064491741">
        <ele>1328.68</ele>
        <time>2022-07-15T08:57:18Z</time>
      </trkpt>
      <trkpt lat="42.7732854802" lon="-0.5064508505">
        <ele>1328.68</ele>
        <time>2022-07-15T08:57:20Z</time>
      </trkpt>
      <trkpt lat="42.7731325943" lon="-0.5064811092">
        <ele>1327.24</ele>
        <time>2022-07-15T08:57:31Z</time>
      </trkpt>
      <trkpt lat="42.7729670517" lon="-0.5065475777">
        <ele>1326.76</ele>
        <time>2022-07-15T08:57:44Z</time>
      </trkpt>
      <trkpt lat="42.7728221286" lon="-0.5066333245">
        <ele>1328.20</ele>
        <time>2022-07-15T08:57:58Z</time>
      </trkpt>
      <trkpt lat="42.7726503834" lon="-0.5067256931">
        <ele>1328.20</ele>
        <time>2022-07-15T08:58:14Z</time>
      </trkpt>
      <trkpt lat="42.7724443562" lon="-0.5067140423">
        <ele>1327.72</ele>
        <time>2022-07-15T08:58:31Z</time>
      </trkpt>
      <trkpt lat="42.7724295203" lon="-0.5067058280">
        <ele>1326.28</ele>
        <time>2022-07-15T08:58:33Z</time>
      </trkpt>
      <trkpt lat="42.7723472938" lon="-0.5067499168">
        <ele>1326.76</ele>
        <time>2022-07-15T08:58:41Z</time>
      </trkpt>
      <trkpt lat="42.7721886244" lon="-0.5068711191">
        <ele>1326.76</ele>
        <time>2022-07-15T08:58:57Z</time>
      </trkpt>
      <trkpt lat="42.7720251773" lon="-0.5069587938">
        <ele>1327.72</ele>
        <time>2022-07-15T08:59:10Z</time>
      </trkpt>
      <trkpt lat="42.7717669308" lon="-0.5070409365">
        <ele>1325.31</ele>
        <time>2022-07-15T08:59:27Z</time>
      </trkpt>
      <trkpt lat="42.7715549525" lon="-0.5071016215">
        <ele>1323.39</ele>
        <time>2022-07-15T08:59:44Z</time>
      </trkpt>
      <trkpt lat="42.7715376858" lon="-0.5071079079">
        <ele>1323.39</ele>
        <time>2022-07-15T08:59:46Z</time>
      </trkpt>
      <trkpt lat="42.7714179084" lon="-0.5072602909">
        <ele>1321.47</ele>
        <time>2022-07-15T09:00:01Z</time>
      </trkpt>
      <trkpt lat="42.7712592389" lon="-0.5073939823">
        <ele>1320.51</ele>
        <time>2022-07-15T09:00:16Z</time>
      </trkpt>
      <trkpt lat="42.7710555587" lon="-0.5074933916">
        <ele>1318.59</ele>
        <time>2022-07-15T09:00:32Z</time>
      </trkpt>
      <trkpt lat="42.7708420716" lon="-0.5076176953">
        <ele>1316.66</ele>
        <time>2022-07-15T09:00:48Z</time>
      </trkpt>
      <trkpt lat="42.7707136609" lon="-0.5077047832">
        <ele>1315.70</ele>
        <time>2022-07-15T09:01:01Z</time>
      </trkpt>
      <trkpt lat="42.7706930414" lon="-0.5077349581">
        <ele>1315.22</ele>
        <time>2022-07-15T09:01:05Z</time>
      </trkpt>
      <trkpt lat="42.7706601843" lon="-0.5078238901">
        <ele>1313.78</ele>
        <time>2022-07-15T09:01:12Z</time>
      </trkpt>
      <trkpt lat="42.7704834938" lon="-0.5080300011">
        <ele>1314.26</ele>
        <time>2022-07-15T09:01:31Z</time>
      </trkpt>
      <trkpt lat="42.7704741899" lon="-0.5080398917">
        <ele>1314.26</ele>
        <time>2022-07-15T09:01:32Z</time>
      </trkpt>
      <trkpt lat="42.7702991758" lon="-0.5082237907">
        <ele>1315.22</ele>
        <time>2022-07-15T09:01:48Z</time>
      </trkpt>
      <trkpt lat="42.7701492235" lon="-0.5083900038">
        <ele>1315.22</ele>
        <time>2022-07-15T09:02:04Z</time>
      </trkpt>
      <trkpt lat="42.7699605469" lon="-0.5085599050">
        <ele>1315.22</ele>
        <time>2022-07-15T09:02:20Z</time>
      </trkpt>
      <trkpt lat="42.7698105108" lon="-0.5086764973">
        <ele>1315.70</ele>
        <time>2022-07-15T09:02:35Z</time>
      </trkpt>
      <trkpt lat="42.7696431242" lon="-0.5087489169">
        <ele>1314.26</ele>
        <time>2022-07-15T09:02:47Z</time>
      </trkpt>
      <trkpt lat="42.7694588061" lon="-0.5087668542">
        <ele>1314.26</ele>
        <time>2022-07-15T09:03:03Z</time>
      </trkpt>
      <trkpt lat="42.7694070898" lon="-0.5088318139">
        <ele>1315.22</ele>
        <time>2022-07-15T09:03:11Z</time>
      </trkpt>
      <trkpt lat="42.7693075966" lon="-0.5090219155">
        <ele>1314.26</ele>
        <time>2022-07-15T09:03:26Z</time>
      </trkpt>
      <trkpt lat="42.7691355161" lon="-0.5091450457">
        <ele>1313.30</ele>
        <time>2022-07-15T09:03:41Z</time>
      </trkpt>
      <trkpt lat="42.7690387052" lon="-0.5092015397">
        <ele>1311.86</ele>
        <time>2022-07-15T09:03:54Z</time>
      </trkpt>
      <trkpt lat="42.7690319996" lon="-0.5092050601">
        <ele>1311.86</ele>
        <time>2022-07-15T09:03:55Z</time>
      </trkpt>
      <trkpt lat="42.7688857354" lon="-0.5093104206">
        <ele>1310.90</ele>
        <time>2022-07-15T09:04:08Z</time>
      </trkpt>
      <trkpt lat="42.7687181812" lon="-0.5094320420">
        <ele>1309.93</ele>
        <time>2022-07-15T09:04:22Z</time>
      </trkpt>
      <trkpt lat="42.7686356194" lon="-0.5094899610">
        <ele>1306.57</ele>
        <time>2022-07-15T09:04:31Z</time>
      </trkpt>
      <trkpt lat="42.7685008384" lon="-0.5095871072">
        <ele>1305.13</ele>
        <time>2022-07-15T09:04:45Z</time>
      </trkpt>
      <trkpt lat="42.7684020158" lon="-0.5097311921">
        <ele>1301.76</ele>
        <time>2022-07-15T09:04:57Z</time>
      </trkpt>
      <trkpt lat="42.7682975773" lon="-0.5098491255">
        <ele>1298.88</ele>
        <time>2022-07-15T09:05:10Z</time>
      </trkpt>
      <trkpt lat="42.7682038676" lon="-0.5099590123">
        <ele>1295.99</ele>
        <time>2022-07-15T09:05:23Z</time>
      </trkpt>
      <trkpt lat="42.7681879420" lon="-0.5099888518">
        <ele>1295.99</ele>
        <time>2022-07-15T09:05:26Z</time>
      </trkpt>
      <trkpt lat="42.7681324538" lon="-0.5100459326">
        <ele>1294.07</ele>
        <time>2022-07-15T09:05:35Z</time>
      </trkpt>
      <trkpt lat="42.7680068929" lon="-0.5101051088">
        <ele>1291.67</ele>
        <time>2022-07-15T09:05:48Z</time>
      </trkpt>
      <trkpt lat="42.7679705992" lon="-0.5101319309">
        <ele>1290.23</ele>
        <time>2022-07-15T09:05:53Z</time>
      </trkpt>
      <trkpt lat="42.7678327169" lon="-0.5102890078">
        <ele>1288.30</ele>
        <time>2022-07-15T09:06:07Z</time>
      </trkpt>
      <trkpt lat="42.7677377500" lon="-0.5103977211">
        <ele>1286.86</ele>
        <time>2022-07-15T09:06:18Z</time>
      </trkpt>
      <trkpt lat="42.7675822657" lon="-0.5105989706">
        <ele>1284.46</ele>
        <time>2022-07-15T09:06:34Z</time>
      </trkpt>
      <trkpt lat="42.7674696129" lon="-0.5107157305">
        <ele>1283.98</ele>
        <time>2022-07-15T09:06:47Z</time>
      </trkpt>
      <trkpt lat="42.7673608158" lon="-0.5107994657">
        <ele>1281.57</ele>
        <time>2022-07-15T09:06:59Z</time>
      </trkpt>
      <trkpt lat="42.7673025616" lon="-0.5109074246">
        <ele>1280.61</ele>
        <time>2022-07-15T09:07:07Z</time>
      </trkpt>
      <trkpt lat="42.7672811039" lon="-0.5109783355">
        <ele>1279.17</ele>
        <time>2022-07-15T09:07:11Z</time>
      </trkpt>
      <trkpt lat="42.7672629151" lon="-0.5110396072">
        <ele>1278.21</ele>
        <time>2022-07-15T09:07:15Z</time>
      </trkpt>
      <trkpt lat="42.7671345044" lon="-0.5112663377">
        <ele>1274.85</ele>
        <time>2022-07-15T09:07:32Z</time>
      </trkpt>
      <trkpt lat="42.7670854703" lon="-0.5113971792">
        <ele>1271.96</ele>
        <time>2022-07-15T09:07:43Z</time>
      </trkpt>
      <trkpt lat="42.7669843845" lon="-0.5116731953">
        <ele>1271.00</ele>
        <time>2022-07-15T09:08:00Z</time>
      </trkpt>
      <trkpt lat="42.7669181675" lon="-0.5117560085">
        <ele>1271.00</ele>
        <time>2022-07-15T09:08:05Z</time>
      </trkpt>
      <trkpt lat="42.7667621803" lon="-0.5118657276">
        <ele>1268.60</ele>
        <time>2022-07-15T09:08:18Z</time>
      </trkpt>
      <trkpt lat="42.7665987331" lon="-0.5119512230">
        <ele>1265.71</ele>
        <time>2022-07-15T09:08:31Z</time>
      </trkpt>
      <trkpt lat="42.7663927060" lon="-0.5119570903">
        <ele>1262.83</ele>
        <time>2022-07-15T09:08:44Z</time>
      </trkpt>
      <trkpt lat="42.7662678156" lon="-0.5119475350">
        <ele>1259.94</ele>
        <time>2022-07-15T09:08:56Z</time>
      </trkpt>
      <trkpt lat="42.7661578450" lon="-0.5119541567">
        <ele>1258.98</ele>
        <time>2022-07-15T09:09:08Z</time>
      </trkpt>
      <trkpt lat="42.7660554182" lon="-0.5118097365">
        <ele>1256.58</ele>
        <time>2022-07-15T09:09:21Z</time>
      </trkpt>
      <trkpt lat="42.7660213877" lon="-0.5117878597">
        <ele>1256.58</ele>
        <time>2022-07-15T09:09:24Z</time>
      </trkpt>
      <trkpt lat="42.7659151889" lon="-0.5115268473">
        <ele>1256.10</ele>
        <time>2022-07-15T09:09:39Z</time>
      </trkpt>
      <trkpt lat="42.7659151889" lon="-0.5115121789">
        <ele>1256.10</ele>
        <time>2022-07-15T09:09:40Z</time>
      </trkpt>
      <trkpt lat="42.7657672483" lon="-0.5114875361">
        <ele>1255.14</ele>
        <time>2022-07-15T09:09:56Z</time>
      </trkpt>
      <trkpt lat="42.7657322120" lon="-0.5115090776">
        <ele>1255.14</ele>
        <time>2022-07-15T09:10:00Z</time>
      </trkpt>
      <trkpt lat="42.7657000255" lon="-0.5115254223">
        <ele>1255.14</ele>
        <time>2022-07-15T09:10:03Z</time>
      </trkpt>
      <trkpt lat="42.7655924857" lon="-0.5116022844">
        <ele>1256.10</ele>
        <time>2022-07-15T09:10:16Z</time>
      </trkpt>
      <trkpt lat="42.7653914876" lon="-0.5117135122">
        <ele>1256.10</ele>
        <time>2022-07-15T09:10:31Z</time>
      </trkpt>
      <trkpt lat="42.7653577924" lon="-0.5117286835">
        <ele>1256.10</ele>
        <time>2022-07-15T09:10:34Z</time>
      </trkpt>
      <trkpt lat="42.7653018851" lon="-0.5117482133">
        <ele>1255.62</ele>
        <time>2022-07-15T09:10:37Z</time>
      </trkpt>
      <trkpt lat="42.7651389409" lon="-0.5118231475">
        <ele>1255.62</ele>
        <time>2022-07-15T09:10:50Z</time>
      </trkpt>
      <trkpt lat="42.7650164813" lon="-0.5119048711">
        <ele>1255.62</ele>
        <time>2022-07-15T09:11:03Z</time>
      </trkpt>
      <trkpt lat="42.7647793572" lon="-0.5120989960">
        <ele>1258.98</ele>
        <time>2022-07-15T09:11:23Z</time>
      </trkpt>
      <trkpt lat="42.7646118868" lon="-0.5121655483">
        <ele>1260.43</ele>
        <time>2022-07-15T09:11:39Z</time>
      </trkpt>
      <trkpt lat="42.7644721605" lon="-0.5122974794">
        <ele>1261.39</ele>
        <time>2022-07-15T09:11:56Z</time>
      </trkpt>
      <trkpt lat="42.7643063664" lon="-0.5123620201">
        <ele>1260.91</ele>
        <time>2022-07-15T09:12:09Z</time>
      </trkpt>
      <trkpt lat="42.7641440928" lon="-0.5123549793">
        <ele>1261.39</ele>
        <time>2022-07-15T09:12:23Z</time>
      </trkpt>
      <trkpt lat="42.7639867645" lon="-0.5124072824">
        <ele>1259.46</ele>
        <time>2022-07-15T09:12:38Z</time>
      </trkpt>
      <trkpt lat="42.7638471220" lon="-0.5124339368">
        <ele>1258.02</ele>
        <time>2022-07-15T09:12:51Z</time>
      </trkpt>
      <trkpt lat="42.7636605408" lon="-0.5123647023">
        <ele>1258.02</ele>
        <time>2022-07-15T09:13:07Z</time>
      </trkpt>
      <trkpt lat="42.7634819224" lon="-0.5122548155">
        <ele>1255.62</ele>
        <time>2022-07-15T09:13:21Z</time>
      </trkpt>
      <trkpt lat="42.7633551881" lon="-0.5122209527">
        <ele>1252.25</ele>
        <time>2022-07-15T09:13:33Z</time>
      </trkpt>
      <trkpt lat="42.7632716205" lon="-0.5122153368">
        <ele>1251.29</ele>
        <time>2022-07-15T09:13:39Z</time>
      </trkpt>
      <trkpt lat="42.7631007973" lon="-0.5120164342">
        <ele>1250.81</ele>
        <time>2022-07-15T09:13:54Z</time>
      </trkpt>
      <trkpt lat="42.7630774956" lon="-0.5119554978">
        <ele>1250.81</ele>
        <time>2022-07-15T09:13:58Z</time>
      </trkpt>
      <trkpt lat="42.7630458958" lon="-0.5116978381">
        <ele>1251.77</ele>
        <time>2022-07-15T09:14:14Z</time>
      </trkpt>
      <trkpt lat="42.7630419564" lon="-0.5116825830">
        <ele>1251.77</ele>
        <time>2022-07-15T09:14:15Z</time>
      </trkpt>
      <trkpt lat="42.7630082611" lon="-0.5115032941">
        <ele>1251.77</ele>
        <time>2022-07-15T09:14:27Z</time>
      </trkpt>
      <trkpt lat="42.7629712969" lon="-0.5114143621">
        <ele>1251.77</ele>
        <time>2022-07-15T09:14:33Z</time>
      </trkpt>
      <trkpt lat="42.7629566286" lon="-0.5113583710">
        <ele>1251.77</ele>
        <time>2022-07-15T09:14:36Z</time>
      </trkpt>
      <trkpt lat="42.7628830355" lon="-0.5111863744">
        <ele>1251.29</ele>
        <time>2022-07-15T09:14:44Z</time>
      </trkpt>
      <trkpt lat="42.7627823688" lon="-0.5109732226">
        <ele>1251.29</ele>
        <time>2022-07-15T09:14:58Z</time>
      </trkpt>
      <trkpt lat="42.7626645193" lon="-0.5108796805">
        <ele>1247.45</ele>
        <time>2022-07-15T09:15:13Z</time>
      </trkpt>
      <trkpt lat="42.7626194246" lon="-0.5108345859">
        <ele>1246.49</ele>
        <time>2022-07-15T09:15:19Z</time>
      </trkpt>
      <trkpt lat="42.7624551393" lon="-0.5107784271">
        <ele>1243.60</ele>
        <time>2022-07-15T09:15:32Z</time>
      </trkpt>
      <trkpt lat="42.7623379603" lon="-0.5107112881">
        <ele>1240.72</ele>
        <time>2022-07-15T09:15:43Z</time>
      </trkpt>
      <trkpt lat="42.7622270677" lon="-0.5106294807">
        <ele>1237.83</ele>
        <time>2022-07-15T09:15:54Z</time>
      </trkpt>
      <trkpt lat="42.7620753553" lon="-0.5106298160">
        <ele>1236.39</ele>
        <time>2022-07-15T09:16:08Z</time>
      </trkpt>
      <trkpt lat="42.7619447652" lon="-0.5105936900">
        <ele>1234.95</ele>
        <time>2022-07-15T09:16:19Z</time>
      </trkpt>
      <trkpt lat="42.7619072143" lon="-0.5105874874">
        <ele>1233.99</ele>
        <time>2022-07-15T09:16:22Z</time>
      </trkpt>
      <trkpt lat="42.7617684938" lon="-0.5105583183">
        <ele>1231.59</ele>
        <time>2022-07-15T09:16:36Z</time>
      </trkpt>
      <trkpt lat="42.7616446093" lon="-0.5105806980">
        <ele>1229.66</ele>
        <time>2022-07-15T09:16:49Z</time>
      </trkpt>
      <trkpt lat="42.7616096567" lon="-0.5105889961">
        <ele>1229.18</ele>
        <time>2022-07-15T09:16:52Z</time>
      </trkpt>
      <trkpt lat="42.7615002729" lon="-0.5106114596">
        <ele>1227.26</ele>
        <time>2022-07-15T09:17:01Z</time>
      </trkpt>
      <trkpt lat="42.7612819243" lon="-0.5106026586">
        <ele>1225.82</ele>
        <time>2022-07-15T09:17:17Z</time>
      </trkpt>
      <trkpt lat="42.7611815091" lon="-0.5105998926">
        <ele>1224.86</ele>
        <time>2022-07-15T09:17:27Z</time>
      </trkpt>
      <trkpt lat="42.7610465605" lon="-0.5107727274">
        <ele>1226.78</ele>
        <time>2022-07-15T09:17:43Z</time>
      </trkpt>
      <trkpt lat="42.7609096840" lon="-0.5107966159">
        <ele>1228.22</ele>
        <time>2022-07-15T09:17:59Z</time>
      </trkpt>
      <trkpt lat="42.7608045749" lon="-0.5108034052">
        <ele>1229.66</ele>
        <time>2022-07-15T09:18:07Z</time>
      </trkpt>
      <trkpt lat="42.7607796807" lon="-0.5108119547">
        <ele>1229.66</ele>
        <time>2022-07-15T09:18:09Z</time>
      </trkpt>
      <trkpt lat="42.7606562991" lon="-0.5108213425">
        <ele>1231.11</ele>
        <time>2022-07-15T09:18:20Z</time>
      </trkpt>
      <trkpt lat="42.7606192511" lon="-0.5107956938">
        <ele>1230.62</ele>
        <time>2022-07-15T09:18:24Z</time>
      </trkpt>
      <trkpt lat="42.7605165727" lon="-0.5107609089">
        <ele>1232.55</ele>
        <time>2022-07-15T09:18:39Z</time>
      </trkpt>
      <trkpt lat="42.7604837157" lon="-0.5107764993">
        <ele>1233.51</ele>
        <time>2022-07-15T09:18:44Z</time>
      </trkpt>
      <trkpt lat="42.7603952028" lon="-0.5107889883">
        <ele>1233.99</ele>
        <time>2022-07-15T09:18:52Z</time>
      </trkpt>
      <trkpt lat="42.7602153271" lon="-0.5107196700">
        <ele>1234.95</ele>
        <time>2022-07-15T09:19:07Z</time>
      </trkpt>
      <trkpt lat="42.7601558995" lon="-0.5107545387">
        <ele>1234.95</ele>
        <time>2022-07-15T09:19:13Z</time>
      </trkpt>
      <trkpt lat="42.7601243835" lon="-0.5107996333">
        <ele>1233.51</ele>
        <time>2022-07-15T09:19:17Z</time>
      </trkpt>
      <trkpt lat="42.7600093838" lon="-0.5109403655">
        <ele>1231.11</ele>
        <time>2022-07-15T09:19:31Z</time>
      </trkpt>
      <trkpt lat="42.7598405723" lon="-0.5110406969">
        <ele>1228.70</ele>
        <time>2022-07-15T09:19:46Z</time>
      </trkpt>
      <trkpt lat="42.7597765345" lon="-0.5110975262">
        <ele>1227.74</ele>
        <time>2022-07-15T09:19:53Z</time>
      </trkpt>
      <trkpt lat="42.7597238123" lon="-0.5110835284">
        <ele>1227.26</ele>
        <time>2022-07-15T09:19:57Z</time>
      </trkpt>
      <trkpt lat="42.7596342936" lon="-0.5110215023">
        <ele>1225.34</ele>
        <time>2022-07-15T09:20:07Z</time>
      </trkpt>
      <trkpt lat="42.7594482154" lon="-0.5111567862">
        <ele>1223.90</ele>
        <time>2022-07-15T09:20:24Z</time>
      </trkpt>
      <trkpt lat="42.7592756320" lon="-0.5112670083">
        <ele>1222.93</ele>
        <time>2022-07-15T09:20:38Z</time>
      </trkpt>
      <trkpt lat="42.7591886278" lon="-0.5113154557">
        <ele>1222.93</ele>
        <time>2022-07-15T09:20:45Z</time>
      </trkpt>
      <trkpt lat="42.7589796670" lon="-0.5113703571">
        <ele>1222.93</ele>
        <time>2022-07-15T09:21:01Z</time>
      </trkpt>
      <trkpt lat="42.7588002943" lon="-0.5114506558">
        <ele>1223.90</ele>
        <time>2022-07-15T09:21:16Z</time>
      </trkpt>
      <trkpt lat="42.7586692851" lon="-0.5115362350">
        <ele>1225.82</ele>
        <time>2022-07-15T09:21:30Z</time>
      </trkpt>
      <trkpt lat="42.7585455682" lon="-0.5115286075">
        <ele>1228.22</ele>
        <time>2022-07-15T09:21:44Z</time>
      </trkpt>
      <trkpt lat="42.7584604081" lon="-0.5115600396">
        <ele>1229.18</ele>
        <time>2022-07-15T09:22:00Z</time>
      </trkpt>
      <trkpt lat="42.7583102044" lon="-0.5117040407">
        <ele>1225.82</ele>
        <time>2022-07-15T09:22:15Z</time>
      </trkpt>
      <trkpt lat="42.7581152413" lon="-0.5118277576">
        <ele>1224.38</ele>
        <time>2022-07-15T09:22:31Z</time>
      </trkpt>
      <trkpt lat="42.7579619363" lon="-0.5118683260">
        <ele>1222.93</ele>
        <time>2022-07-15T09:22:45Z</time>
      </trkpt>
      <trkpt lat="42.7579181828" lon="-0.5119057931">
        <ele>1221.01</ele>
        <time>2022-07-15T09:22:50Z</time>
      </trkpt>
      <trkpt lat="42.7576979063" lon="-0.5120014306">
        <ele>1219.57</ele>
        <time>2022-07-15T09:23:07Z</time>
      </trkpt>
      <trkpt lat="42.7576163504" lon="-0.5120329466">
        <ele>1219.57</ele>
        <time>2022-07-15T09:23:13Z</time>
      </trkpt>
      <trkpt lat="42.7574125025" lon="-0.5120554939">
        <ele>1219.09</ele>
        <time>2022-07-15T09:23:28Z</time>
      </trkpt>
      <trkpt lat="42.7573680785" lon="-0.5120638758">
        <ele>1218.61</ele>
        <time>2022-07-15T09:23:31Z</time>
      </trkpt>
      <trkpt lat="42.7571876161" lon="-0.5119396560">
        <ele>1218.61</ele>
        <time>2022-07-15T09:23:46Z</time>
      </trkpt>
      <trkpt lat="42.7571451198" lon="-0.5119083077">
        <ele>1218.61</ele>
        <time>2022-07-15T09:23:51Z</time>
      </trkpt>
      <trkpt lat="42.7569845226" lon="-0.5118727684">
        <ele>1218.13</ele>
        <time>2022-07-15T09:24:05Z</time>
      </trkpt>
      <trkpt lat="42.7569265198" lon="-0.5118819047">
        <ele>1218.13</ele>
        <time>2022-07-15T09:24:09Z</time>
      </trkpt>
      <trkpt lat="42.7568960097" lon="-0.5118846707">
        <ele>1218.13</ele>
        <time>2022-07-15T09:24:12Z</time>
      </trkpt>
      <trkpt lat="42.7567729633" lon="-0.5119504686">
        <ele>1218.13</ele>
        <time>2022-07-15T09:24:23Z</time>
      </trkpt>
      <trkpt lat="42.7567494940" lon="-0.5119595211">
        <ele>1217.65</ele>
        <time>2022-07-15T09:24:25Z</time>
      </trkpt>
      <trkpt lat="42.7566952631" lon="-0.5119423382">
        <ele>1217.65</ele>
        <time>2022-07-15T09:24:39Z</time>
      </trkpt>
      <trkpt lat="42.7566552814" lon="-0.5119106546">
        <ele>1217.65</ele>
        <time>2022-07-15T09:24:57Z</time>
      </trkpt>
      <trkpt lat="42.7566457260" lon="-0.5119108222">
        <ele>1217.65</ele>
        <time>2022-07-15T09:25:23Z</time>
      </trkpt>
      <trkpt lat="42.7566951793" lon="-0.5118850060">
        <ele>1217.17</ele>
        <time>2022-07-15T09:25:35Z</time>
      </trkpt>
      <trkpt lat="42.7565743122" lon="-0.5118832458">
        <ele>1217.17</ele>
        <time>2022-07-15T09:25:47Z</time>
      </trkpt>
      <trkpt lat="42.7564487513" lon="-0.5118128378">
        <ele>1217.17</ele>
        <time>2022-07-15T09:25:56Z</time>
      </trkpt>
      <trkpt lat="42.7562338393" lon="-0.5118037015">
        <ele>1218.13</ele>
        <time>2022-07-15T09:26:14Z</time>
      </trkpt>
      <trkpt lat="42.7561000641" lon="-0.5118464492">
        <ele>1218.61</ele>
        <time>2022-07-15T09:26:29Z</time>
      </trkpt>
      <trkpt lat="42.7558878344" lon="-0.5119190365">
        <ele>1218.61</ele>
        <time>2022-07-15T09:26:43Z</time>
      </trkpt>
      <trkpt lat="42.7558794525" lon="-0.5119173601">
        <ele>1218.61</ele>
        <time>2022-07-15T09:26:44Z</time>
      </trkpt>
      <trkpt lat="42.7558002435" lon="-0.5119591020">
        <ele>1219.09</ele>
        <time>2022-07-15T09:26:48Z</time>
      </trkpt>
      <trkpt lat="42.7556919493" lon="-0.5119679030">
        <ele>1219.09</ele>
        <time>2022-07-15T09:26:56Z</time>
      </trkpt>
      <trkpt lat="42.7555301785" lon="-0.5119808950">
        <ele>1219.57</ele>
        <time>2022-07-15T09:27:10Z</time>
      </trkpt>
      <trkpt lat="42.7554586809" lon="-0.5120476149">
        <ele>1217.17</ele>
        <time>2022-07-15T09:27:25Z</time>
      </trkpt>
      <trkpt lat="42.7553814836" lon="-0.5121002533">
        <ele>1213.80</ele>
        <time>2022-07-15T09:27:37Z</time>
      </trkpt>
      <trkpt lat="42.7553244866" lon="-0.5121875927">
        <ele>1210.44</ele>
        <time>2022-07-15T09:27:51Z</time>
      </trkpt>
      <trkpt lat="42.7553176973" lon="-0.5122686457">
        <ele>1208.03</ele>
        <time>2022-07-15T09:28:04Z</time>
      </trkpt>
      <trkpt lat="42.7552717645" lon="-0.5123163387">
        <ele>1207.07</ele>
        <time>2022-07-15T09:28:09Z</time>
      </trkpt>
      <trkpt lat="42.7551335469" lon="-0.5125356093">
        <ele>1206.59</ele>
        <time>2022-07-15T09:28:27Z</time>
      </trkpt>
      <trkpt lat="42.7550120931" lon="-0.5127072707">
        <ele>1206.11</ele>
        <time>2022-07-15T09:28:42Z</time>
      </trkpt>
      <trkpt lat="42.7549255081" lon="-0.5128337536">
        <ele>1206.11</ele>
        <time>2022-07-15T09:28:53Z</time>
      </trkpt>
      <trkpt lat="42.7548908908" lon="-0.5128555465">
        <ele>1206.11</ele>
        <time>2022-07-15T09:28:56Z</time>
      </trkpt>
      <trkpt lat="42.7548626438" lon="-0.5129386112">
        <ele>1206.11</ele>
        <time>2022-07-15T09:29:02Z</time>
      </trkpt>
      <trkpt lat="42.7550367359" lon="-0.5131089315">
        <ele>1206.11</ele>
        <time>2022-07-15T09:29:17Z</time>
      </trkpt>
      <trkpt lat="42.7550781425" lon="-0.5131640844">
        <ele>1206.11</ele>
        <time>2022-07-15T09:29:22Z</time>
      </trkpt>
      <trkpt lat="42.7550857700" lon="-0.5134450458">
        <ele>1206.11</ele>
        <time>2022-07-15T09:29:37Z</time>
      </trkpt>
      <trkpt lat="42.7551059704" lon="-0.5136245862">
        <ele>1206.11</ele>
        <time>2022-07-15T09:29:48Z</time>
      </trkpt>
      <trkpt lat="42.7551832516" lon="-0.5136935692">
        <ele>1205.63</ele>
        <time>2022-07-15T09:29:56Z</time>
      </trkpt>
      <trkpt lat="42.7553308569" lon="-0.5138334632">
        <ele>1205.63</ele>
        <time>2022-07-15T09:30:13Z</time>
      </trkpt>
      <trkpt lat="42.7553392388" lon="-0.5138414260">
        <ele>1205.63</ele>
        <time>2022-07-15T09:30:14Z</time>
      </trkpt>
      <trkpt lat="42.7553562541" lon="-0.5138640571">
        <ele>1205.63</ele>
        <time>2022-07-15T09:30:16Z</time>
      </trkpt>
      <trkpt lat="42.7554637939" lon="-0.5139759555">
        <ele>1205.63</ele>
        <time>2022-07-15T09:30:27Z</time>
      </trkpt>
      <trkpt lat="42.7554664761" lon="-0.5140575115">
        <ele>1205.63</ele>
        <time>2022-07-15T09:30:33Z</time>
      </trkpt>
      <trkpt lat="42.7553013526" lon="-0.5143055320">
        <ele>1205.15</ele>
        <time>2022-07-15T09:30:50Z</time>
      </trkpt>
      <trkpt lat="42.7551953215" lon="-0.5144902691">
        <ele>1204.67</ele>
        <time>2022-07-15T09:31:03Z</time>
      </trkpt>
      <trkpt lat="42.7550880332" lon="-0.5146392155">
        <ele>1206.59</ele>
        <time>2022-07-15T09:31:16Z</time>
      </trkpt>
      <trkpt lat="42.7550715208" lon="-0.5146656185">
        <ele>1206.59</ele>
        <time>2022-07-15T09:31:18Z</time>
      </trkpt>
      <trkpt lat="42.7550331317" lon="-0.5147024989">
        <ele>1206.59</ele>
        <time>2022-07-15T09:31:21Z</time>
      </trkpt>
      <trkpt lat="42.7550093271" lon="-0.5147101264">
        <ele>1206.59</ele>
        <time>2022-07-15T09:31:24Z</time>
      </trkpt>
      <trkpt lat="42.7549177129" lon="-0.5147278123">
        <ele>1206.59</ele>
        <time>2022-07-15T09:31:33Z</time>
      </trkpt>
      <trkpt lat="42.7547566127" lon="-0.5148175824">
        <ele>1205.15</ele>
        <time>2022-07-15T09:31:45Z</time>
      </trkpt>
      <trkpt lat="42.7545610629" lon="-0.5148968752">
        <ele>1204.19</ele>
        <time>2022-07-15T09:31:58Z</time>
      </trkpt>
      <trkpt lat="42.7545375098" lon="-0.5148877390">
        <ele>1203.71</ele>
        <time>2022-07-15T09:32:00Z</time>
      </trkpt>
      <trkpt lat="42.7543624956" lon="-0.5149016529">
        <ele>1203.23</ele>
        <time>2022-07-15T09:32:15Z</time>
      </trkpt>
      <trkpt lat="42.7542801853" lon="-0.5148988869">
        <ele>1202.75</ele>
        <time>2022-07-15T09:32:21Z</time>
      </trkpt>
      <trkpt lat="42.7542117052" lon="-0.5149002280">
        <ele>1202.27</ele>
        <time>2022-07-15T09:32:26Z</time>
      </trkpt>
      <trkpt lat="42.7541251201" lon="-0.5149096157">
        <ele>1201.79</ele>
        <time>2022-07-15T09:32:32Z</time>
      </trkpt>
      <trkpt lat="42.7539872378" lon="-0.5149239488">
        <ele>1201.30</ele>
        <time>2022-07-15T09:32:42Z</time>
      </trkpt>
      <trkpt lat="42.7539122198" lon="-0.5149255414">
        <ele>1201.30</ele>
        <time>2022-07-15T09:32:48Z</time>
      </trkpt>
      <trkpt lat="42.7538822126" lon="-0.5149309896">
        <ele>1200.82</ele>
        <time>2022-07-15T09:32:51Z</time>
      </trkpt>
      <trkpt lat="42.7536833938" lon="-0.5149583146">
        <ele>1200.82</ele>
        <time>2022-07-15T09:33:07Z</time>
      </trkpt>
      <trkpt lat="42.7536567394" lon="-0.5149540398">
        <ele>1200.82</ele>
        <time>2022-07-15T09:33:10Z</time>
      </trkpt>
      <trkpt lat="42.7536347788" lon="-0.5149406288">
        <ele>1200.82</ele>
        <time>2022-07-15T09:33:12Z</time>
      </trkpt>
      <trkpt lat="42.7536181826" lon="-0.5149098672">
        <ele>1200.82</ele>
        <time>2022-07-15T09:33:14Z</time>
      </trkpt>
      <trkpt lat="42.7535982337" lon="-0.5148509424">
        <ele>1200.82</ele>
        <time>2022-07-15T09:33:18Z</time>
      </trkpt>
      <trkpt lat="42.7535616048" lon="-0.5148332566">
        <ele>1200.82</ele>
        <time>2022-07-15T09:33:22Z</time>
      </trkpt>
      <trkpt lat="42.7534937114" lon="-0.5148035847">
        <ele>1200.82</ele>
        <time>2022-07-15T09:33:28Z</time>
      </trkpt>
      <trkpt lat="42.7533041965" lon="-0.5148252938">
        <ele>1200.34</ele>
        <time>2022-07-15T09:33:43Z</time>
      </trkpt>
      <trkpt lat="42.7532732673" lon="-0.5148173310">
        <ele>1200.34</ele>
        <time>2022-07-15T09:33:45Z</time>
      </trkpt>
      <trkpt lat="42.7532482892" lon="-0.5147998966">
        <ele>1200.34</ele>
        <time>2022-07-15T09:33:47Z</time>
      </trkpt>
      <trkpt lat="42.7530533262" lon="-0.5148212705">
        <ele>1200.34</ele>
        <time>2022-07-15T09:34:01Z</time>
      </trkpt>
      <trkpt lat="42.7529303636" lon="-0.5148295686">
        <ele>1199.86</ele>
        <time>2022-07-15T09:34:10Z</time>
      </trkpt>
      <trkpt lat="42.7528593689" lon="-0.5148314964">
        <ele>1199.86</ele>
        <time>2022-07-15T09:34:16Z</time>
      </trkpt>
      <trkpt lat="42.7526903898" lon="-0.5148647726">
        <ele>1199.86</ele>
        <time>2022-07-15T09:34:30Z</time>
      </trkpt>
      <trkpt lat="42.7525692713" lon="-0.5148770101">
        <ele>1199.86</ele>
        <time>2022-07-15T09:34:42Z</time>
      </trkpt>
      <trkpt lat="42.7524173912" lon="-0.5149129685">
        <ele>1200.82</ele>
        <time>2022-07-15T09:34:54Z</time>
      </trkpt>
      <trkpt lat="42.7522936743" lon="-0.5149714742">
        <ele>1200.82</ele>
        <time>2022-07-15T09:35:06Z</time>
      </trkpt>
      <trkpt lat="42.7521118708" lon="-0.5150183290">
        <ele>1201.30</ele>
        <time>2022-07-15T09:35:20Z</time>
      </trkpt>
      <trkpt lat="42.7520768344" lon="-0.5150365178">
        <ele>1201.30</ele>
        <time>2022-07-15T09:35:24Z</time>
      </trkpt>
      <trkpt lat="42.7520640939" lon="-0.5150302313">
        <ele>1201.30</ele>
        <time>2022-07-15T09:35:26Z</time>
      </trkpt>
      <trkpt lat="42.7519309893" lon="-0.5150370207">
        <ele>1201.79</ele>
        <time>2022-07-15T09:35:39Z</time>
      </trkpt>
      <trkpt lat="42.7518936899" lon="-0.5150472466">
        <ele>1201.79</ele>
        <time>2022-07-15T09:35:42Z</time>
      </trkpt>
      <trkpt lat="42.7517757565" lon="-0.5150982086">
        <ele>1202.75</ele>
        <time>2022-07-15T09:35:54Z</time>
      </trkpt>
      <trkpt lat="42.7516812086" lon="-0.5151346698">
        <ele>1202.75</ele>
        <time>2022-07-15T09:36:03Z</time>
      </trkpt>
      <trkpt lat="42.7516451664" lon="-0.5151515175">
        <ele>1202.75</ele>
        <time>2022-07-15T09:36:06Z</time>
      </trkpt>
      <trkpt lat="42.7515979763" lon="-0.5151575524">
        <ele>1202.75</ele>
        <time>2022-07-15T09:36:10Z</time>
      </trkpt>
      <trkpt lat="42.7514274046" lon="-0.5152183212">
        <ele>1203.71</ele>
        <time>2022-07-15T09:36:26Z</time>
      </trkpt>
      <trkpt lat="42.7513540629" lon="-0.5153119471">
        <ele>1203.71</ele>
        <time>2022-07-15T09:36:39Z</time>
      </trkpt>
      <trkpt lat="42.7513186913" lon="-0.5155184772">
        <ele>1203.23</ele>
        <time>2022-07-15T09:36:55Z</time>
      </trkpt>
      <trkpt lat="42.7512896061" lon="-0.5155695230">
        <ele>1203.71</ele>
        <time>2022-07-15T09:37:09Z</time>
      </trkpt>
      <trkpt lat="42.7512700763" lon="-0.5155644938">
        <ele>1201.79</ele>
        <time>2022-07-15T09:37:14Z</time>
      </trkpt>
      <trkpt lat="42.7512727585" lon="-0.5155608896">
        <ele>1203.23</ele>
        <time>2022-07-15T09:37:16Z</time>
      </trkpt>
      <trkpt lat="42.7512576710" lon="-0.5155690201">
        <ele>1201.79</ele>
        <time>2022-07-15T09:37:31Z</time>
      </trkpt>
    </trkseg>
  </trk>
</gpx>
